<?xml version="1.0" encoding="UTF-8" standalone="no" ?>
<gpx xmlns="http://www.topografix.com/GPX/1/1" xmlns:xsi="http://www.w3.org/2001/XMLSchema-instance" xsi:schemaLocation="http://www.topografix.com/GPX/1/1 http://www.topografix.com/GPX/1/1/gpx.xsd" version="1.1" creator="VisuGPX - https://www.visugpx.com">
  <metadata>
    <name>2023-05-28  Sallèles Cabardès </name>
  </metadata>
  <trk>
    <name><![CDATA[2023-05-28  Sallèles Cabardès ]]></name>
    <trkseg>
      <trkpt lat="43.32022" lon="2.41981">
        <ele>226.2</ele>
        <time>2023-05-28T05:44:08Z</time>
      </trkpt>
      <trkpt lat="43.32024" lon="2.41977">
        <ele>226.2</ele>
        <time>2023-05-28T05:44:09Z</time>
      </trkpt>
      <trkpt lat="43.32025" lon="2.41977">
        <ele>226.2</ele>
        <time>2023-05-28T05:44:10Z</time>
      </trkpt>
      <trkpt lat="43.32025" lon="2.41974">
        <ele>226.2</ele>
        <time>2023-05-28T05:44:11Z</time>
      </trkpt>
      <trkpt lat="43.32024" lon="2.41973">
        <ele>226.2</ele>
        <time>2023-05-28T05:44:12Z</time>
      </trkpt>
      <trkpt lat="43.32024" lon="2.41974">
        <ele>226.2</ele>
        <time>2023-05-28T05:44:13Z</time>
      </trkpt>
      <trkpt lat="43.32022" lon="2.41974">
        <ele>226.2</ele>
        <time>2023-05-28T05:44:15Z</time>
      </trkpt>
      <trkpt lat="43.3202" lon="2.41974">
        <ele>226.2</ele>
        <time>2023-05-28T05:44:16Z</time>
      </trkpt>
      <trkpt lat="43.3202" lon="2.41974">
        <ele>226.2</ele>
        <time>2023-05-28T05:44:17Z</time>
      </trkpt>
      <trkpt lat="43.32019" lon="2.41975">
        <ele>226.2</ele>
        <time>2023-05-28T05:44:18Z</time>
      </trkpt>
      <trkpt lat="43.32019" lon="2.41976">
        <ele>226.2</ele>
        <time>2023-05-28T05:44:19Z</time>
      </trkpt>
      <trkpt lat="43.3202" lon="2.41976">
        <ele>226.2</ele>
        <time>2023-05-28T05:44:20Z</time>
      </trkpt>
      <trkpt lat="43.3202" lon="2.41976">
        <ele>226.2</ele>
        <time>2023-05-28T05:44:21Z</time>
      </trkpt>
      <trkpt lat="43.32021" lon="2.41976">
        <ele>226.2</ele>
        <time>2023-05-28T05:44:22Z</time>
      </trkpt>
      <trkpt lat="43.32022" lon="2.41975">
        <ele>226.2</ele>
        <time>2023-05-28T05:44:23Z</time>
      </trkpt>
      <trkpt lat="43.32022" lon="2.41975">
        <ele>226.2</ele>
        <time>2023-05-28T05:44:24Z</time>
      </trkpt>
      <trkpt lat="43.32022" lon="2.41972">
        <ele>226.2</ele>
        <time>2023-05-28T05:44:25Z</time>
      </trkpt>
      <trkpt lat="43.32022" lon="2.41971">
        <ele>226.2</ele>
        <time>2023-05-28T05:44:26Z</time>
      </trkpt>
      <trkpt lat="43.32022" lon="2.41969">
        <ele>226.2</ele>
        <time>2023-05-28T05:44:27Z</time>
      </trkpt>
      <trkpt lat="43.32022" lon="2.41968">
        <ele>226.3</ele>
        <time>2023-05-28T05:44:28Z</time>
      </trkpt>
      <trkpt lat="43.32021" lon="2.41968">
        <ele>226.3</ele>
        <time>2023-05-28T05:44:29Z</time>
      </trkpt>
      <trkpt lat="43.3202" lon="2.41968">
        <ele>226.3</ele>
        <time>2023-05-28T05:44:30Z</time>
      </trkpt>
      <trkpt lat="43.3202" lon="2.41967">
        <ele>226.3</ele>
        <time>2023-05-28T05:44:31Z</time>
      </trkpt>
      <trkpt lat="43.3202" lon="2.41965">
        <ele>226.3</ele>
        <time>2023-05-28T05:44:32Z</time>
      </trkpt>
      <trkpt lat="43.32021" lon="2.41964">
        <ele>226.3</ele>
        <time>2023-05-28T05:44:33Z</time>
      </trkpt>
      <trkpt lat="43.32021" lon="2.41961">
        <ele>226.3</ele>
        <time>2023-05-28T05:44:34Z</time>
      </trkpt>
      <trkpt lat="43.32022" lon="2.41959">
        <ele>226.3</ele>
        <time>2023-05-28T05:44:35Z</time>
      </trkpt>
      <trkpt lat="43.32023" lon="2.41956">
        <ele>226.3</ele>
        <time>2023-05-28T05:44:36Z</time>
      </trkpt>
      <trkpt lat="43.32023" lon="2.41955">
        <ele>226.3</ele>
        <time>2023-05-28T05:44:37Z</time>
      </trkpt>
      <trkpt lat="43.32024" lon="2.41953">
        <ele>226.3</ele>
        <time>2023-05-28T05:44:38Z</time>
      </trkpt>
      <trkpt lat="43.32024" lon="2.41951">
        <ele>226.4</ele>
        <time>2023-05-28T05:44:39Z</time>
      </trkpt>
      <trkpt lat="43.32025" lon="2.41949">
        <ele>226.4</ele>
        <time>2023-05-28T05:44:40Z</time>
      </trkpt>
      <trkpt lat="43.32025" lon="2.41948">
        <ele>226.4</ele>
        <time>2023-05-28T05:44:41Z</time>
      </trkpt>
      <trkpt lat="43.32025" lon="2.41948">
        <ele>226.4</ele>
        <time>2023-05-28T05:44:42Z</time>
      </trkpt>
      <trkpt lat="43.32025" lon="2.41948">
        <ele>226.4</ele>
        <time>2023-05-28T05:44:43Z</time>
      </trkpt>
      <trkpt lat="43.32026" lon="2.41947">
        <ele>226.4</ele>
        <time>2023-05-28T05:44:44Z</time>
      </trkpt>
      <trkpt lat="43.32026" lon="2.41948">
        <ele>226.4</ele>
        <time>2023-05-28T05:44:45Z</time>
      </trkpt>
      <trkpt lat="43.32026" lon="2.41948">
        <ele>226.4</ele>
        <time>2023-05-28T05:44:46Z</time>
      </trkpt>
      <trkpt lat="43.32027" lon="2.41948">
        <ele>226.5</ele>
        <time>2023-05-28T05:44:47Z</time>
      </trkpt>
      <trkpt lat="43.32028" lon="2.41948">
        <ele>226.5</ele>
        <time>2023-05-28T05:44:48Z</time>
      </trkpt>
      <trkpt lat="43.32029" lon="2.41948">
        <ele>226.5</ele>
        <time>2023-05-28T05:44:49Z</time>
      </trkpt>
      <trkpt lat="43.3203" lon="2.41948">
        <ele>226.5</ele>
        <time>2023-05-28T05:44:50Z</time>
      </trkpt>
      <trkpt lat="43.32031" lon="2.41949">
        <ele>226.5</ele>
        <time>2023-05-28T05:44:51Z</time>
      </trkpt>
      <trkpt lat="43.32032" lon="2.4195">
        <ele>226.5</ele>
        <time>2023-05-28T05:44:52Z</time>
      </trkpt>
      <trkpt lat="43.32033" lon="2.4195">
        <ele>226.6</ele>
        <time>2023-05-28T05:44:53Z</time>
      </trkpt>
      <trkpt lat="43.32033" lon="2.41951">
        <ele>226.6</ele>
        <time>2023-05-28T05:44:54Z</time>
      </trkpt>
      <trkpt lat="43.32035" lon="2.41952">
        <ele>226.6</ele>
        <time>2023-05-28T05:44:55Z</time>
      </trkpt>
      <trkpt lat="43.32037" lon="2.41955">
        <ele>226.7</ele>
        <time>2023-05-28T05:44:56Z</time>
      </trkpt>
      <trkpt lat="43.32037" lon="2.41956">
        <ele>226.7</ele>
        <time>2023-05-28T05:44:57Z</time>
      </trkpt>
      <trkpt lat="43.32039" lon="2.4196">
        <ele>226.7</ele>
        <time>2023-05-28T05:44:58Z</time>
      </trkpt>
      <trkpt lat="43.3204" lon="2.41961">
        <ele>226.8</ele>
        <time>2023-05-28T05:44:59Z</time>
      </trkpt>
      <trkpt lat="43.32042" lon="2.41965">
        <ele>226.8</ele>
        <time>2023-05-28T05:45:00Z</time>
      </trkpt>
      <trkpt lat="43.32043" lon="2.41966">
        <ele>226.9</ele>
        <time>2023-05-28T05:45:01Z</time>
      </trkpt>
      <trkpt lat="43.32045" lon="2.4197">
        <ele>226.9</ele>
        <time>2023-05-28T05:45:02Z</time>
      </trkpt>
      <trkpt lat="43.32045" lon="2.41971">
        <ele>226.9</ele>
        <time>2023-05-28T05:45:03Z</time>
      </trkpt>
      <trkpt lat="43.32046" lon="2.41973">
        <ele>227</ele>
        <time>2023-05-28T05:45:04Z</time>
      </trkpt>
      <trkpt lat="43.32047" lon="2.41975">
        <ele>227</ele>
        <time>2023-05-28T05:45:05Z</time>
      </trkpt>
      <trkpt lat="43.32049" lon="2.41976">
        <ele>227.1</ele>
        <time>2023-05-28T05:45:06Z</time>
      </trkpt>
      <trkpt lat="43.3205" lon="2.41978">
        <ele>227.1</ele>
        <time>2023-05-28T05:45:07Z</time>
      </trkpt>
      <trkpt lat="43.32051" lon="2.41981">
        <ele>227.2</ele>
        <time>2023-05-28T05:45:08Z</time>
      </trkpt>
      <trkpt lat="43.32051" lon="2.41983">
        <ele>227.2</ele>
        <time>2023-05-28T05:45:09Z</time>
      </trkpt>
      <trkpt lat="43.32052" lon="2.41984">
        <ele>227.3</ele>
        <time>2023-05-28T05:45:10Z</time>
      </trkpt>
      <trkpt lat="43.32053" lon="2.41991">
        <ele>227.4</ele>
        <time>2023-05-28T05:45:11Z</time>
      </trkpt>
      <trkpt lat="43.32053" lon="2.41994">
        <ele>227.5</ele>
        <time>2023-05-28T05:45:12Z</time>
      </trkpt>
      <trkpt lat="43.32053" lon="2.41997">
        <ele>227.6</ele>
        <time>2023-05-28T05:45:13Z</time>
      </trkpt>
      <trkpt lat="43.32055" lon="2.42001">
        <ele>227.7</ele>
        <time>2023-05-28T05:45:14Z</time>
      </trkpt>
      <trkpt lat="43.32056" lon="2.42002">
        <ele>227.7</ele>
        <time>2023-05-28T05:45:15Z</time>
      </trkpt>
      <trkpt lat="43.32059" lon="2.42006">
        <ele>227.8</ele>
        <time>2023-05-28T05:45:16Z</time>
      </trkpt>
      <trkpt lat="43.3206" lon="2.42007">
        <ele>227.9</ele>
        <time>2023-05-28T05:45:17Z</time>
      </trkpt>
      <trkpt lat="43.32062" lon="2.42011">
        <ele>228</ele>
        <time>2023-05-28T05:45:18Z</time>
      </trkpt>
      <trkpt lat="43.32062" lon="2.42012">
        <ele>228</ele>
        <time>2023-05-28T05:45:19Z</time>
      </trkpt>
      <trkpt lat="43.32065" lon="2.42016">
        <ele>228.1</ele>
        <time>2023-05-28T05:45:20Z</time>
      </trkpt>
      <trkpt lat="43.32065" lon="2.42017">
        <ele>228.1</ele>
        <time>2023-05-28T05:45:21Z</time>
      </trkpt>
      <trkpt lat="43.32067" lon="2.4202">
        <ele>228.2</ele>
        <time>2023-05-28T05:45:22Z</time>
      </trkpt>
      <trkpt lat="43.32067" lon="2.42022">
        <ele>228.2</ele>
        <time>2023-05-28T05:45:23Z</time>
      </trkpt>
      <trkpt lat="43.32069" lon="2.42025">
        <ele>228.3</ele>
        <time>2023-05-28T05:45:24Z</time>
      </trkpt>
      <trkpt lat="43.32071" lon="2.42028">
        <ele>228.4</ele>
        <time>2023-05-28T05:45:25Z</time>
      </trkpt>
      <trkpt lat="43.32072" lon="2.42032">
        <ele>228.4</ele>
        <time>2023-05-28T05:45:26Z</time>
      </trkpt>
      <trkpt lat="43.32075" lon="2.42037">
        <ele>228.6</ele>
        <time>2023-05-28T05:45:28Z</time>
      </trkpt>
      <trkpt lat="43.32075" lon="2.4204">
        <ele>228.6</ele>
        <time>2023-05-28T05:45:29Z</time>
      </trkpt>
      <trkpt lat="43.32076" lon="2.42045">
        <ele>228.7</ele>
        <time>2023-05-28T05:45:30Z</time>
      </trkpt>
      <trkpt lat="43.32076" lon="2.42047">
        <ele>228.7</ele>
        <time>2023-05-28T05:45:31Z</time>
      </trkpt>
      <trkpt lat="43.32076" lon="2.42049">
        <ele>228.8</ele>
        <time>2023-05-28T05:45:32Z</time>
      </trkpt>
      <trkpt lat="43.32076" lon="2.42051">
        <ele>228.8</ele>
        <time>2023-05-28T05:45:33Z</time>
      </trkpt>
      <trkpt lat="43.32077" lon="2.42056">
        <ele>228.9</ele>
        <time>2023-05-28T05:45:34Z</time>
      </trkpt>
      <trkpt lat="43.32078" lon="2.42057">
        <ele>229</ele>
        <time>2023-05-28T05:45:35Z</time>
      </trkpt>
      <trkpt lat="43.32079" lon="2.4206">
        <ele>229.1</ele>
        <time>2023-05-28T05:45:36Z</time>
      </trkpt>
      <trkpt lat="43.3208" lon="2.42061">
        <ele>229.1</ele>
        <time>2023-05-28T05:45:37Z</time>
      </trkpt>
      <trkpt lat="43.32082" lon="2.42066">
        <ele>229.2</ele>
        <time>2023-05-28T05:45:38Z</time>
      </trkpt>
      <trkpt lat="43.32081" lon="2.42067">
        <ele>229.3</ele>
        <time>2023-05-28T05:45:39Z</time>
      </trkpt>
      <trkpt lat="43.32082" lon="2.4207">
        <ele>229.3</ele>
        <time>2023-05-28T05:45:40Z</time>
      </trkpt>
      <trkpt lat="43.32084" lon="2.42071">
        <ele>229.4</ele>
        <time>2023-05-28T05:45:41Z</time>
      </trkpt>
      <trkpt lat="43.32084" lon="2.42073">
        <ele>229.5</ele>
        <time>2023-05-28T05:45:42Z</time>
      </trkpt>
      <trkpt lat="43.32085" lon="2.42074">
        <ele>229.5</ele>
        <time>2023-05-28T05:45:43Z</time>
      </trkpt>
      <trkpt lat="43.32086" lon="2.42075">
        <ele>229.6</ele>
        <time>2023-05-28T05:45:44Z</time>
      </trkpt>
      <trkpt lat="43.32089" lon="2.42077">
        <ele>229.7</ele>
        <time>2023-05-28T05:45:45Z</time>
      </trkpt>
      <trkpt lat="43.3209" lon="2.42078">
        <ele>229.7</ele>
        <time>2023-05-28T05:45:46Z</time>
      </trkpt>
      <trkpt lat="43.32093" lon="2.42081">
        <ele>229.9</ele>
        <time>2023-05-28T05:45:47Z</time>
      </trkpt>
      <trkpt lat="43.32095" lon="2.42082">
        <ele>229.9</ele>
        <time>2023-05-28T05:45:48Z</time>
      </trkpt>
      <trkpt lat="43.32098" lon="2.42084">
        <ele>230</ele>
        <time>2023-05-28T05:45:49Z</time>
      </trkpt>
      <trkpt lat="43.32099" lon="2.42085">
        <ele>230.1</ele>
        <time>2023-05-28T05:45:50Z</time>
      </trkpt>
      <trkpt lat="43.32102" lon="2.42086">
        <ele>230.2</ele>
        <time>2023-05-28T05:45:51Z</time>
      </trkpt>
      <trkpt lat="43.32103" lon="2.42087">
        <ele>230.2</ele>
        <time>2023-05-28T05:45:52Z</time>
      </trkpt>
      <trkpt lat="43.32106" lon="2.42089">
        <ele>230.3</ele>
        <time>2023-05-28T05:45:53Z</time>
      </trkpt>
      <trkpt lat="43.32108" lon="2.42089">
        <ele>230.3</ele>
        <time>2023-05-28T05:45:54Z</time>
      </trkpt>
      <trkpt lat="43.32111" lon="2.4209">
        <ele>230.4</ele>
        <time>2023-05-28T05:45:55Z</time>
      </trkpt>
      <trkpt lat="43.32112" lon="2.42091">
        <ele>230.4</ele>
        <time>2023-05-28T05:45:56Z</time>
      </trkpt>
      <trkpt lat="43.32115" lon="2.42092">
        <ele>230.5</ele>
        <time>2023-05-28T05:45:57Z</time>
      </trkpt>
      <trkpt lat="43.32117" lon="2.42092">
        <ele>230.5</ele>
        <time>2023-05-28T05:45:58Z</time>
      </trkpt>
      <trkpt lat="43.3212" lon="2.42093">
        <ele>230.6</ele>
        <time>2023-05-28T05:45:59Z</time>
      </trkpt>
      <trkpt lat="43.32122" lon="2.42094">
        <ele>230.6</ele>
        <time>2023-05-28T05:46:00Z</time>
      </trkpt>
      <trkpt lat="43.32125" lon="2.42095">
        <ele>230.6</ele>
        <time>2023-05-28T05:46:01Z</time>
      </trkpt>
      <trkpt lat="43.32126" lon="2.42095">
        <ele>230.7</ele>
        <time>2023-05-28T05:46:02Z</time>
      </trkpt>
      <trkpt lat="43.3213" lon="2.42096">
        <ele>230.7</ele>
        <time>2023-05-28T05:46:03Z</time>
      </trkpt>
      <trkpt lat="43.32131" lon="2.42097">
        <ele>230.7</ele>
        <time>2023-05-28T05:46:04Z</time>
      </trkpt>
      <trkpt lat="43.32135" lon="2.42098">
        <ele>230.8</ele>
        <time>2023-05-28T05:46:05Z</time>
      </trkpt>
      <trkpt lat="43.32136" lon="2.42098">
        <ele>230.8</ele>
        <time>2023-05-28T05:46:06Z</time>
      </trkpt>
      <trkpt lat="43.32139" lon="2.42098">
        <ele>230.9</ele>
        <time>2023-05-28T05:46:07Z</time>
      </trkpt>
      <trkpt lat="43.32143" lon="2.42098">
        <ele>231</ele>
        <time>2023-05-28T05:46:08Z</time>
      </trkpt>
      <trkpt lat="43.32144" lon="2.42098">
        <ele>231</ele>
        <time>2023-05-28T05:46:09Z</time>
      </trkpt>
      <trkpt lat="43.32148" lon="2.42098">
        <ele>231</ele>
        <time>2023-05-28T05:46:10Z</time>
      </trkpt>
      <trkpt lat="43.32149" lon="2.42099">
        <ele>231</ele>
        <time>2023-05-28T05:46:11Z</time>
      </trkpt>
      <trkpt lat="43.32152" lon="2.42099">
        <ele>231.1</ele>
        <time>2023-05-28T05:46:12Z</time>
      </trkpt>
      <trkpt lat="43.32155" lon="2.421">
        <ele>231.1</ele>
        <time>2023-05-28T05:46:13Z</time>
      </trkpt>
      <trkpt lat="43.32159" lon="2.42101">
        <ele>231.2</ele>
        <time>2023-05-28T05:46:14Z</time>
      </trkpt>
      <trkpt lat="43.32159" lon="2.42101">
        <ele>231.2</ele>
        <time>2023-05-28T05:46:15Z</time>
      </trkpt>
      <trkpt lat="43.3216" lon="2.42101">
        <ele>231.2</ele>
        <time>2023-05-28T05:46:16Z</time>
      </trkpt>
      <trkpt lat="43.32161" lon="2.42101">
        <ele>231.2</ele>
        <time>2023-05-28T05:46:17Z</time>
      </trkpt>
      <trkpt lat="43.32163" lon="2.42102">
        <ele>231.2</ele>
        <time>2023-05-28T05:46:18Z</time>
      </trkpt>
      <trkpt lat="43.32165" lon="2.42102">
        <ele>231.3</ele>
        <time>2023-05-28T05:46:19Z</time>
      </trkpt>
      <trkpt lat="43.32166" lon="2.42103">
        <ele>231.3</ele>
        <time>2023-05-28T05:46:20Z</time>
      </trkpt>
      <trkpt lat="43.32169" lon="2.42104">
        <ele>231.3</ele>
        <time>2023-05-28T05:46:21Z</time>
      </trkpt>
      <trkpt lat="43.3217" lon="2.42104">
        <ele>231.3</ele>
        <time>2023-05-28T05:46:22Z</time>
      </trkpt>
      <trkpt lat="43.32174" lon="2.42105">
        <ele>231.4</ele>
        <time>2023-05-28T05:46:23Z</time>
      </trkpt>
      <trkpt lat="43.32175" lon="2.42105">
        <ele>231.4</ele>
        <time>2023-05-28T05:46:24Z</time>
      </trkpt>
      <trkpt lat="43.32178" lon="2.42105">
        <ele>231.4</ele>
        <time>2023-05-28T05:46:25Z</time>
      </trkpt>
      <trkpt lat="43.32179" lon="2.42106">
        <ele>231.4</ele>
        <time>2023-05-28T05:46:26Z</time>
      </trkpt>
      <trkpt lat="43.32182" lon="2.42106">
        <ele>231.5</ele>
        <time>2023-05-28T05:46:27Z</time>
      </trkpt>
      <trkpt lat="43.32183" lon="2.42107">
        <ele>231.5</ele>
        <time>2023-05-28T05:46:28Z</time>
      </trkpt>
      <trkpt lat="43.32186" lon="2.42108">
        <ele>231.5</ele>
        <time>2023-05-28T05:46:29Z</time>
      </trkpt>
      <trkpt lat="43.32188" lon="2.42108">
        <ele>231.6</ele>
        <time>2023-05-28T05:46:30Z</time>
      </trkpt>
      <trkpt lat="43.32191" lon="2.4211">
        <ele>231.6</ele>
        <time>2023-05-28T05:46:31Z</time>
      </trkpt>
      <trkpt lat="43.32192" lon="2.4211">
        <ele>231.6</ele>
        <time>2023-05-28T05:46:32Z</time>
      </trkpt>
      <trkpt lat="43.32195" lon="2.4211">
        <ele>231.7</ele>
        <time>2023-05-28T05:46:33Z</time>
      </trkpt>
      <trkpt lat="43.32196" lon="2.4211">
        <ele>231.7</ele>
        <time>2023-05-28T05:46:34Z</time>
      </trkpt>
      <trkpt lat="43.32199" lon="2.42111">
        <ele>231.7</ele>
        <time>2023-05-28T05:46:35Z</time>
      </trkpt>
      <trkpt lat="43.322" lon="2.42111">
        <ele>231.8</ele>
        <time>2023-05-28T05:46:36Z</time>
      </trkpt>
      <trkpt lat="43.32204" lon="2.42111">
        <ele>231.8</ele>
        <time>2023-05-28T05:46:37Z</time>
      </trkpt>
      <trkpt lat="43.32205" lon="2.42112">
        <ele>231.8</ele>
        <time>2023-05-28T05:46:38Z</time>
      </trkpt>
      <trkpt lat="43.32208" lon="2.42112">
        <ele>231.9</ele>
        <time>2023-05-28T05:46:39Z</time>
      </trkpt>
      <trkpt lat="43.32209" lon="2.42112">
        <ele>231.9</ele>
        <time>2023-05-28T05:46:40Z</time>
      </trkpt>
      <trkpt lat="43.32213" lon="2.42113">
        <ele>232</ele>
        <time>2023-05-28T05:46:41Z</time>
      </trkpt>
      <trkpt lat="43.32214" lon="2.42113">
        <ele>232</ele>
        <time>2023-05-28T05:46:42Z</time>
      </trkpt>
      <trkpt lat="43.32217" lon="2.42113">
        <ele>232</ele>
        <time>2023-05-28T05:46:43Z</time>
      </trkpt>
      <trkpt lat="43.32218" lon="2.42113">
        <ele>232.1</ele>
        <time>2023-05-28T05:46:44Z</time>
      </trkpt>
      <trkpt lat="43.32221" lon="2.42113">
        <ele>232.2</ele>
        <time>2023-05-28T05:46:45Z</time>
      </trkpt>
      <trkpt lat="43.32222" lon="2.42112">
        <ele>232.2</ele>
        <time>2023-05-28T05:46:46Z</time>
      </trkpt>
      <trkpt lat="43.32225" lon="2.42111">
        <ele>232.3</ele>
        <time>2023-05-28T05:46:47Z</time>
      </trkpt>
      <trkpt lat="43.32226" lon="2.4211">
        <ele>232.3</ele>
        <time>2023-05-28T05:46:48Z</time>
      </trkpt>
      <trkpt lat="43.32229" lon="2.42109">
        <ele>232.4</ele>
        <time>2023-05-28T05:46:49Z</time>
      </trkpt>
      <trkpt lat="43.3223" lon="2.42109">
        <ele>232.5</ele>
        <time>2023-05-28T05:46:50Z</time>
      </trkpt>
      <trkpt lat="43.32233" lon="2.42108">
        <ele>232.6</ele>
        <time>2023-05-28T05:46:51Z</time>
      </trkpt>
      <trkpt lat="43.32234" lon="2.42107">
        <ele>232.7</ele>
        <time>2023-05-28T05:46:52Z</time>
      </trkpt>
      <trkpt lat="43.32237" lon="2.42106">
        <ele>232.8</ele>
        <time>2023-05-28T05:46:53Z</time>
      </trkpt>
      <trkpt lat="43.32238" lon="2.42105">
        <ele>232.9</ele>
        <time>2023-05-28T05:46:54Z</time>
      </trkpt>
      <trkpt lat="43.3224" lon="2.42105">
        <ele>232.9</ele>
        <time>2023-05-28T05:46:55Z</time>
      </trkpt>
      <trkpt lat="43.32241" lon="2.42103">
        <ele>233</ele>
        <time>2023-05-28T05:46:56Z</time>
      </trkpt>
      <trkpt lat="43.32245" lon="2.42102">
        <ele>233.2</ele>
        <time>2023-05-28T05:46:57Z</time>
      </trkpt>
      <trkpt lat="43.32246" lon="2.42101">
        <ele>233.3</ele>
        <time>2023-05-28T05:46:58Z</time>
      </trkpt>
      <trkpt lat="43.3225" lon="2.421">
        <ele>233.5</ele>
        <time>2023-05-28T05:46:59Z</time>
      </trkpt>
      <trkpt lat="43.32251" lon="2.421">
        <ele>233.6</ele>
        <time>2023-05-28T05:47:00Z</time>
      </trkpt>
      <trkpt lat="43.32254" lon="2.42099">
        <ele>233.8</ele>
        <time>2023-05-28T05:47:01Z</time>
      </trkpt>
      <trkpt lat="43.32255" lon="2.42099">
        <ele>233.8</ele>
        <time>2023-05-28T05:47:02Z</time>
      </trkpt>
      <trkpt lat="43.32257" lon="2.42099">
        <ele>233.9</ele>
        <time>2023-05-28T05:47:03Z</time>
      </trkpt>
      <trkpt lat="43.32259" lon="2.421">
        <ele>234</ele>
        <time>2023-05-28T05:47:04Z</time>
      </trkpt>
      <trkpt lat="43.32262" lon="2.42101">
        <ele>234.3</ele>
        <time>2023-05-28T05:47:05Z</time>
      </trkpt>
      <trkpt lat="43.32263" lon="2.42101">
        <ele>234.4</ele>
        <time>2023-05-28T05:47:06Z</time>
      </trkpt>
      <trkpt lat="43.32266" lon="2.42102">
        <ele>234.5</ele>
        <time>2023-05-28T05:47:07Z</time>
      </trkpt>
      <trkpt lat="43.32267" lon="2.42102">
        <ele>234.9</ele>
        <time>2023-05-28T05:47:08Z</time>
      </trkpt>
      <trkpt lat="43.32268" lon="2.42104">
        <ele>234.8</ele>
        <time>2023-05-28T05:47:09Z</time>
      </trkpt>
      <trkpt lat="43.32269" lon="2.42106">
        <ele>234.7</ele>
        <time>2023-05-28T05:47:10Z</time>
      </trkpt>
      <trkpt lat="43.32269" lon="2.42108">
        <ele>234.7</ele>
        <time>2023-05-28T05:47:11Z</time>
      </trkpt>
      <trkpt lat="43.32269" lon="2.42113">
        <ele>234.5</ele>
        <time>2023-05-28T05:47:12Z</time>
      </trkpt>
      <trkpt lat="43.32269" lon="2.42115">
        <ele>234.4</ele>
        <time>2023-05-28T05:47:13Z</time>
      </trkpt>
      <trkpt lat="43.32269" lon="2.4212">
        <ele>234.3</ele>
        <time>2023-05-28T05:47:14Z</time>
      </trkpt>
      <trkpt lat="43.32269" lon="2.42121">
        <ele>234.2</ele>
        <time>2023-05-28T05:47:15Z</time>
      </trkpt>
      <trkpt lat="43.32269" lon="2.42126">
        <ele>234</ele>
        <time>2023-05-28T05:47:16Z</time>
      </trkpt>
      <trkpt lat="43.3227" lon="2.42128">
        <ele>234</ele>
        <time>2023-05-28T05:47:17Z</time>
      </trkpt>
      <trkpt lat="43.3227" lon="2.42132">
        <ele>233.8</ele>
        <time>2023-05-28T05:47:18Z</time>
      </trkpt>
      <trkpt lat="43.32271" lon="2.42134">
        <ele>233.8</ele>
        <time>2023-05-28T05:47:19Z</time>
      </trkpt>
      <trkpt lat="43.32272" lon="2.42137">
        <ele>233.6</ele>
        <time>2023-05-28T05:47:20Z</time>
      </trkpt>
      <trkpt lat="43.32273" lon="2.42139">
        <ele>233.5</ele>
        <time>2023-05-28T05:47:21Z</time>
      </trkpt>
      <trkpt lat="43.32274" lon="2.42143">
        <ele>233.4</ele>
        <time>2023-05-28T05:47:22Z</time>
      </trkpt>
      <trkpt lat="43.32274" lon="2.42145">
        <ele>233.3</ele>
        <time>2023-05-28T05:47:23Z</time>
      </trkpt>
      <trkpt lat="43.32276" lon="2.42149">
        <ele>233.1</ele>
        <time>2023-05-28T05:47:24Z</time>
      </trkpt>
      <trkpt lat="43.32276" lon="2.42151">
        <ele>233.1</ele>
        <time>2023-05-28T05:47:25Z</time>
      </trkpt>
      <trkpt lat="43.32278" lon="2.42155">
        <ele>232.9</ele>
        <time>2023-05-28T05:47:26Z</time>
      </trkpt>
      <trkpt lat="43.32279" lon="2.42156">
        <ele>232.9</ele>
        <time>2023-05-28T05:47:27Z</time>
      </trkpt>
      <trkpt lat="43.32281" lon="2.4216">
        <ele>232.8</ele>
        <time>2023-05-28T05:47:28Z</time>
      </trkpt>
      <trkpt lat="43.32281" lon="2.42162">
        <ele>232.7</ele>
        <time>2023-05-28T05:47:29Z</time>
      </trkpt>
      <trkpt lat="43.32283" lon="2.42166">
        <ele>232.7</ele>
        <time>2023-05-28T05:47:30Z</time>
      </trkpt>
      <trkpt lat="43.32284" lon="2.42167">
        <ele>232.6</ele>
        <time>2023-05-28T05:47:31Z</time>
      </trkpt>
      <trkpt lat="43.32285" lon="2.4217">
        <ele>232.6</ele>
        <time>2023-05-28T05:47:32Z</time>
      </trkpt>
      <trkpt lat="43.32286" lon="2.42171">
        <ele>232.6</ele>
        <time>2023-05-28T05:47:33Z</time>
      </trkpt>
      <trkpt lat="43.32287" lon="2.42176">
        <ele>232.6</ele>
        <time>2023-05-28T05:47:34Z</time>
      </trkpt>
      <trkpt lat="43.32287" lon="2.42177">
        <ele>232.6</ele>
        <time>2023-05-28T05:47:35Z</time>
      </trkpt>
      <trkpt lat="43.32287" lon="2.42181">
        <ele>232.7</ele>
        <time>2023-05-28T05:47:36Z</time>
      </trkpt>
      <trkpt lat="43.32287" lon="2.42183">
        <ele>232.7</ele>
        <time>2023-05-28T05:47:37Z</time>
      </trkpt>
      <trkpt lat="43.32287" lon="2.42187">
        <ele>232.8</ele>
        <time>2023-05-28T05:47:38Z</time>
      </trkpt>
      <trkpt lat="43.32287" lon="2.42189">
        <ele>232.8</ele>
        <time>2023-05-28T05:47:39Z</time>
      </trkpt>
      <trkpt lat="43.32287" lon="2.42193">
        <ele>232.9</ele>
        <time>2023-05-28T05:47:40Z</time>
      </trkpt>
      <trkpt lat="43.32287" lon="2.42194">
        <ele>233</ele>
        <time>2023-05-28T05:47:41Z</time>
      </trkpt>
      <trkpt lat="43.32286" lon="2.42196">
        <ele>233.1</ele>
        <time>2023-05-28T05:47:42Z</time>
      </trkpt>
      <trkpt lat="43.32286" lon="2.42199">
        <ele>233.2</ele>
        <time>2023-05-28T05:47:43Z</time>
      </trkpt>
      <trkpt lat="43.32285" lon="2.42202">
        <ele>233.4</ele>
        <time>2023-05-28T05:47:44Z</time>
      </trkpt>
      <trkpt lat="43.32284" lon="2.42204">
        <ele>233.4</ele>
        <time>2023-05-28T05:47:45Z</time>
      </trkpt>
      <trkpt lat="43.32284" lon="2.42206">
        <ele>233.5</ele>
        <time>2023-05-28T05:47:46Z</time>
      </trkpt>
      <trkpt lat="43.32283" lon="2.42208">
        <ele>233.7</ele>
        <time>2023-05-28T05:47:47Z</time>
      </trkpt>
      <trkpt lat="43.32281" lon="2.42211">
        <ele>233.9</ele>
        <time>2023-05-28T05:47:48Z</time>
      </trkpt>
      <trkpt lat="43.3228" lon="2.42212">
        <ele>234</ele>
        <time>2023-05-28T05:47:49Z</time>
      </trkpt>
      <trkpt lat="43.32278" lon="2.42214">
        <ele>234.3</ele>
        <time>2023-05-28T05:47:50Z</time>
      </trkpt>
      <trkpt lat="43.32277" lon="2.42215">
        <ele>234.4</ele>
        <time>2023-05-28T05:47:51Z</time>
      </trkpt>
      <trkpt lat="43.32276" lon="2.42217">
        <ele>234.6</ele>
        <time>2023-05-28T05:47:52Z</time>
      </trkpt>
      <trkpt lat="43.32274" lon="2.42219">
        <ele>234.8</ele>
        <time>2023-05-28T05:47:53Z</time>
      </trkpt>
      <trkpt lat="43.32273" lon="2.42222">
        <ele>235.1</ele>
        <time>2023-05-28T05:47:54Z</time>
      </trkpt>
      <trkpt lat="43.32272" lon="2.42223">
        <ele>235.2</ele>
        <time>2023-05-28T05:47:55Z</time>
      </trkpt>
      <trkpt lat="43.32271" lon="2.42227">
        <ele>235.6</ele>
        <time>2023-05-28T05:47:56Z</time>
      </trkpt>
      <trkpt lat="43.32271" lon="2.42228">
        <ele>236.8</ele>
        <time>2023-05-28T05:47:57Z</time>
      </trkpt>
      <trkpt lat="43.32271" lon="2.4223">
        <ele>237</ele>
        <time>2023-05-28T05:47:58Z</time>
      </trkpt>
      <trkpt lat="43.32271" lon="2.42233">
        <ele>237.3</ele>
        <time>2023-05-28T05:47:59Z</time>
      </trkpt>
      <trkpt lat="43.32272" lon="2.42236">
        <ele>237.6</ele>
        <time>2023-05-28T05:48:00Z</time>
      </trkpt>
      <trkpt lat="43.32273" lon="2.42237">
        <ele>237.7</ele>
        <time>2023-05-28T05:48:01Z</time>
      </trkpt>
      <trkpt lat="43.32274" lon="2.42239">
        <ele>238</ele>
        <time>2023-05-28T05:48:02Z</time>
      </trkpt>
      <trkpt lat="43.32275" lon="2.42241">
        <ele>238.2</ele>
        <time>2023-05-28T05:48:03Z</time>
      </trkpt>
      <trkpt lat="43.32276" lon="2.42242">
        <ele>238.4</ele>
        <time>2023-05-28T05:48:04Z</time>
      </trkpt>
      <trkpt lat="43.32278" lon="2.42243">
        <ele>238.6</ele>
        <time>2023-05-28T05:48:05Z</time>
      </trkpt>
      <trkpt lat="43.32279" lon="2.42244">
        <ele>238.8</ele>
        <time>2023-05-28T05:48:06Z</time>
      </trkpt>
      <trkpt lat="43.3228" lon="2.42246">
        <ele>239</ele>
        <time>2023-05-28T05:48:07Z</time>
      </trkpt>
      <trkpt lat="43.32282" lon="2.42249">
        <ele>239.4</ele>
        <time>2023-05-28T05:48:08Z</time>
      </trkpt>
      <trkpt lat="43.32283" lon="2.4225">
        <ele>239.5</ele>
        <time>2023-05-28T05:48:09Z</time>
      </trkpt>
      <trkpt lat="43.32285" lon="2.42253">
        <ele>239.8</ele>
        <time>2023-05-28T05:48:10Z</time>
      </trkpt>
      <trkpt lat="43.32285" lon="2.42254">
        <ele>240</ele>
        <time>2023-05-28T05:48:11Z</time>
      </trkpt>
      <trkpt lat="43.32287" lon="2.42255">
        <ele>240.2</ele>
        <time>2023-05-28T05:48:12Z</time>
      </trkpt>
      <trkpt lat="43.32288" lon="2.42257">
        <ele>240.4</ele>
        <time>2023-05-28T05:48:13Z</time>
      </trkpt>
      <trkpt lat="43.32291" lon="2.42259">
        <ele>240.8</ele>
        <time>2023-05-28T05:48:14Z</time>
      </trkpt>
      <trkpt lat="43.32292" lon="2.42259">
        <ele>240.9</ele>
        <time>2023-05-28T05:48:15Z</time>
      </trkpt>
      <trkpt lat="43.32295" lon="2.42261">
        <ele>241.3</ele>
        <time>2023-05-28T05:48:16Z</time>
      </trkpt>
      <trkpt lat="43.32295" lon="2.42261">
        <ele>241.4</ele>
        <time>2023-05-28T05:48:17Z</time>
      </trkpt>
      <trkpt lat="43.32297" lon="2.42263">
        <ele>241.7</ele>
        <time>2023-05-28T05:48:18Z</time>
      </trkpt>
      <trkpt lat="43.32298" lon="2.42264">
        <ele>241.9</ele>
        <time>2023-05-28T05:48:19Z</time>
      </trkpt>
      <trkpt lat="43.32299" lon="2.42266">
        <ele>242.1</ele>
        <time>2023-05-28T05:48:20Z</time>
      </trkpt>
      <trkpt lat="43.323" lon="2.42268">
        <ele>242.3</ele>
        <time>2023-05-28T05:48:21Z</time>
      </trkpt>
      <trkpt lat="43.32301" lon="2.4227">
        <ele>242.6</ele>
        <time>2023-05-28T05:48:22Z</time>
      </trkpt>
      <trkpt lat="43.32302" lon="2.42272">
        <ele>242.8</ele>
        <time>2023-05-28T05:48:23Z</time>
      </trkpt>
      <trkpt lat="43.32304" lon="2.42275">
        <ele>243.2</ele>
        <time>2023-05-28T05:48:24Z</time>
      </trkpt>
      <trkpt lat="43.32305" lon="2.42276">
        <ele>243.3</ele>
        <time>2023-05-28T05:48:25Z</time>
      </trkpt>
      <trkpt lat="43.32306" lon="2.42278">
        <ele>243.5</ele>
        <time>2023-05-28T05:48:26Z</time>
      </trkpt>
      <trkpt lat="43.32307" lon="2.4228">
        <ele>243.7</ele>
        <time>2023-05-28T05:48:27Z</time>
      </trkpt>
      <trkpt lat="43.32308" lon="2.42283">
        <ele>244</ele>
        <time>2023-05-28T05:48:28Z</time>
      </trkpt>
      <trkpt lat="43.32308" lon="2.42284">
        <ele>244.1</ele>
        <time>2023-05-28T05:48:29Z</time>
      </trkpt>
      <trkpt lat="43.32309" lon="2.42286">
        <ele>244.3</ele>
        <time>2023-05-28T05:48:30Z</time>
      </trkpt>
      <trkpt lat="43.3231" lon="2.42288">
        <ele>244.4</ele>
        <time>2023-05-28T05:48:31Z</time>
      </trkpt>
      <trkpt lat="43.32312" lon="2.42291">
        <ele>244.7</ele>
        <time>2023-05-28T05:48:32Z</time>
      </trkpt>
      <trkpt lat="43.32312" lon="2.42292">
        <ele>244.8</ele>
        <time>2023-05-28T05:48:33Z</time>
      </trkpt>
      <trkpt lat="43.32314" lon="2.42295">
        <ele>245.1</ele>
        <time>2023-05-28T05:48:34Z</time>
      </trkpt>
      <trkpt lat="43.32315" lon="2.42296">
        <ele>245.2</ele>
        <time>2023-05-28T05:48:35Z</time>
      </trkpt>
      <trkpt lat="43.32317" lon="2.42299">
        <ele>245.5</ele>
        <time>2023-05-28T05:48:36Z</time>
      </trkpt>
      <trkpt lat="43.32318" lon="2.423">
        <ele>245.6</ele>
        <time>2023-05-28T05:48:37Z</time>
      </trkpt>
      <trkpt lat="43.32319" lon="2.42302">
        <ele>245.8</ele>
        <time>2023-05-28T05:48:38Z</time>
      </trkpt>
      <trkpt lat="43.3232" lon="2.42304">
        <ele>245.9</ele>
        <time>2023-05-28T05:48:39Z</time>
      </trkpt>
      <trkpt lat="43.32322" lon="2.42306">
        <ele>246.2</ele>
        <time>2023-05-28T05:48:40Z</time>
      </trkpt>
      <trkpt lat="43.32323" lon="2.42307">
        <ele>246.2</ele>
        <time>2023-05-28T05:48:41Z</time>
      </trkpt>
      <trkpt lat="43.32324" lon="2.42309">
        <ele>246.4</ele>
        <time>2023-05-28T05:48:42Z</time>
      </trkpt>
      <trkpt lat="43.32326" lon="2.42311">
        <ele>246.6</ele>
        <time>2023-05-28T05:48:43Z</time>
      </trkpt>
      <trkpt lat="43.32327" lon="2.42312">
        <ele>246.7</ele>
        <time>2023-05-28T05:48:44Z</time>
      </trkpt>
      <trkpt lat="43.32327" lon="2.42313">
        <ele>246.8</ele>
        <time>2023-05-28T05:48:45Z</time>
      </trkpt>
      <trkpt lat="43.3233" lon="2.42316">
        <ele>247</ele>
        <time>2023-05-28T05:48:46Z</time>
      </trkpt>
      <trkpt lat="43.3233" lon="2.42317">
        <ele>247.1</ele>
        <time>2023-05-28T05:48:47Z</time>
      </trkpt>
      <trkpt lat="43.32331" lon="2.42319">
        <ele>247.3</ele>
        <time>2023-05-28T05:48:48Z</time>
      </trkpt>
      <trkpt lat="43.32333" lon="2.42321">
        <ele>247.4</ele>
        <time>2023-05-28T05:48:49Z</time>
      </trkpt>
      <trkpt lat="43.32334" lon="2.42324">
        <ele>247.7</ele>
        <time>2023-05-28T05:48:50Z</time>
      </trkpt>
      <trkpt lat="43.32335" lon="2.42325">
        <ele>247.7</ele>
        <time>2023-05-28T05:48:51Z</time>
      </trkpt>
      <trkpt lat="43.32338" lon="2.42326">
        <ele>248</ele>
        <time>2023-05-28T05:48:52Z</time>
      </trkpt>
      <trkpt lat="43.32338" lon="2.42327">
        <ele>248.1</ele>
        <time>2023-05-28T05:48:53Z</time>
      </trkpt>
      <trkpt lat="43.3234" lon="2.42328">
        <ele>248.2</ele>
        <time>2023-05-28T05:48:54Z</time>
      </trkpt>
      <trkpt lat="43.32341" lon="2.42329">
        <ele>248.3</ele>
        <time>2023-05-28T05:48:55Z</time>
      </trkpt>
      <trkpt lat="43.32342" lon="2.42331">
        <ele>248.5</ele>
        <time>2023-05-28T05:48:56Z</time>
      </trkpt>
      <trkpt lat="43.32343" lon="2.42333">
        <ele>248.6</ele>
        <time>2023-05-28T05:48:57Z</time>
      </trkpt>
      <trkpt lat="43.32344" lon="2.42334">
        <ele>248.7</ele>
        <time>2023-05-28T05:48:58Z</time>
      </trkpt>
      <trkpt lat="43.32345" lon="2.42336">
        <ele>248.9</ele>
        <time>2023-05-28T05:48:59Z</time>
      </trkpt>
      <trkpt lat="43.32346" lon="2.42338">
        <ele>249</ele>
        <time>2023-05-28T05:49:00Z</time>
      </trkpt>
      <trkpt lat="43.32347" lon="2.4234">
        <ele>249.2</ele>
        <time>2023-05-28T05:49:01Z</time>
      </trkpt>
      <trkpt lat="43.32348" lon="2.42342">
        <ele>249.3</ele>
        <time>2023-05-28T05:49:02Z</time>
      </trkpt>
      <trkpt lat="43.32349" lon="2.42344">
        <ele>249.5</ele>
        <time>2023-05-28T05:49:03Z</time>
      </trkpt>
      <trkpt lat="43.3235" lon="2.42349">
        <ele>249.8</ele>
        <time>2023-05-28T05:49:04Z</time>
      </trkpt>
      <trkpt lat="43.3235" lon="2.42351">
        <ele>249.9</ele>
        <time>2023-05-28T05:49:05Z</time>
      </trkpt>
      <trkpt lat="43.32351" lon="2.42355">
        <ele>250.2</ele>
        <time>2023-05-28T05:49:06Z</time>
      </trkpt>
      <trkpt lat="43.32352" lon="2.42357">
        <ele>250.2</ele>
        <time>2023-05-28T05:49:07Z</time>
      </trkpt>
      <trkpt lat="43.32353" lon="2.42361">
        <ele>250.5</ele>
        <time>2023-05-28T05:49:08Z</time>
      </trkpt>
      <trkpt lat="43.32353" lon="2.42363">
        <ele>250.6</ele>
        <time>2023-05-28T05:49:09Z</time>
      </trkpt>
      <trkpt lat="43.32354" lon="2.42367">
        <ele>250.9</ele>
        <time>2023-05-28T05:49:10Z</time>
      </trkpt>
      <trkpt lat="43.32354" lon="2.42368">
        <ele>251</ele>
        <time>2023-05-28T05:49:11Z</time>
      </trkpt>
      <trkpt lat="43.32355" lon="2.42372">
        <ele>251.2</ele>
        <time>2023-05-28T05:49:12Z</time>
      </trkpt>
      <trkpt lat="43.32356" lon="2.42374">
        <ele>251.3</ele>
        <time>2023-05-28T05:49:13Z</time>
      </trkpt>
      <trkpt lat="43.32357" lon="2.42378">
        <ele>251.7</ele>
        <time>2023-05-28T05:49:14Z</time>
      </trkpt>
      <trkpt lat="43.32358" lon="2.4238">
        <ele>251.8</ele>
        <time>2023-05-28T05:49:15Z</time>
      </trkpt>
      <trkpt lat="43.32359" lon="2.42383">
        <ele>252</ele>
        <time>2023-05-28T05:49:16Z</time>
      </trkpt>
      <trkpt lat="43.32359" lon="2.42385">
        <ele>252.1</ele>
        <time>2023-05-28T05:49:17Z</time>
      </trkpt>
      <trkpt lat="43.3236" lon="2.42388">
        <ele>252.3</ele>
        <time>2023-05-28T05:49:18Z</time>
      </trkpt>
      <trkpt lat="43.32361" lon="2.4239">
        <ele>252.4</ele>
        <time>2023-05-28T05:49:19Z</time>
      </trkpt>
      <trkpt lat="43.32361" lon="2.42392">
        <ele>252.6</ele>
        <time>2023-05-28T05:49:20Z</time>
      </trkpt>
      <trkpt lat="43.32362" lon="2.42394">
        <ele>252.7</ele>
        <time>2023-05-28T05:49:21Z</time>
      </trkpt>
      <trkpt lat="43.32363" lon="2.42398">
        <ele>253</ele>
        <time>2023-05-28T05:49:22Z</time>
      </trkpt>
      <trkpt lat="43.32363" lon="2.42399">
        <ele>253.1</ele>
        <time>2023-05-28T05:49:23Z</time>
      </trkpt>
      <trkpt lat="43.32364" lon="2.42402">
        <ele>253.3</ele>
        <time>2023-05-28T05:49:24Z</time>
      </trkpt>
      <trkpt lat="43.32364" lon="2.42404">
        <ele>253.4</ele>
        <time>2023-05-28T05:49:25Z</time>
      </trkpt>
      <trkpt lat="43.32364" lon="2.42406">
        <ele>253.5</ele>
        <time>2023-05-28T05:49:26Z</time>
      </trkpt>
      <trkpt lat="43.32364" lon="2.42408">
        <ele>253.7</ele>
        <time>2023-05-28T05:49:27Z</time>
      </trkpt>
      <trkpt lat="43.32365" lon="2.42412">
        <ele>254</ele>
        <time>2023-05-28T05:49:28Z</time>
      </trkpt>
      <trkpt lat="43.32365" lon="2.42413">
        <ele>254.1</ele>
        <time>2023-05-28T05:49:29Z</time>
      </trkpt>
      <trkpt lat="43.32365" lon="2.42415">
        <ele>254.3</ele>
        <time>2023-05-28T05:49:30Z</time>
      </trkpt>
      <trkpt lat="43.32365" lon="2.42417">
        <ele>254.4</ele>
        <time>2023-05-28T05:49:31Z</time>
      </trkpt>
      <trkpt lat="43.32365" lon="2.42419">
        <ele>254.5</ele>
        <time>2023-05-28T05:49:32Z</time>
      </trkpt>
      <trkpt lat="43.32365" lon="2.4242">
        <ele>254.6</ele>
        <time>2023-05-28T05:49:33Z</time>
      </trkpt>
      <trkpt lat="43.32365" lon="2.42422">
        <ele>254.8</ele>
        <time>2023-05-28T05:49:34Z</time>
      </trkpt>
      <trkpt lat="43.32366" lon="2.42424">
        <ele>255</ele>
        <time>2023-05-28T05:49:35Z</time>
      </trkpt>
      <trkpt lat="43.32366" lon="2.42426">
        <ele>255.2</ele>
        <time>2023-05-28T05:49:36Z</time>
      </trkpt>
      <trkpt lat="43.32366" lon="2.42428">
        <ele>255.3</ele>
        <time>2023-05-28T05:49:37Z</time>
      </trkpt>
      <trkpt lat="43.32367" lon="2.42429">
        <ele>255.4</ele>
        <time>2023-05-28T05:49:38Z</time>
      </trkpt>
      <trkpt lat="43.32367" lon="2.4243">
        <ele>255.6</ele>
        <time>2023-05-28T05:49:39Z</time>
      </trkpt>
      <trkpt lat="43.32368" lon="2.42432">
        <ele>255.8</ele>
        <time>2023-05-28T05:49:40Z</time>
      </trkpt>
      <trkpt lat="43.32368" lon="2.42434">
        <ele>255.9</ele>
        <time>2023-05-28T05:49:41Z</time>
      </trkpt>
      <trkpt lat="43.32369" lon="2.42436">
        <ele>256.1</ele>
        <time>2023-05-28T05:49:42Z</time>
      </trkpt>
      <trkpt lat="43.32369" lon="2.42438">
        <ele>256.3</ele>
        <time>2023-05-28T05:49:43Z</time>
      </trkpt>
      <trkpt lat="43.32369" lon="2.4244">
        <ele>256.5</ele>
        <time>2023-05-28T05:49:44Z</time>
      </trkpt>
      <trkpt lat="43.3237" lon="2.42443">
        <ele>256.7</ele>
        <time>2023-05-28T05:49:45Z</time>
      </trkpt>
      <trkpt lat="43.3237" lon="2.42445">
        <ele>256.9</ele>
        <time>2023-05-28T05:49:46Z</time>
      </trkpt>
      <trkpt lat="43.3237" lon="2.42447">
        <ele>257.1</ele>
        <time>2023-05-28T05:49:47Z</time>
      </trkpt>
      <trkpt lat="43.3237" lon="2.4245">
        <ele>257.4</ele>
        <time>2023-05-28T05:49:48Z</time>
      </trkpt>
      <trkpt lat="43.3237" lon="2.42452">
        <ele>257.6</ele>
        <time>2023-05-28T05:49:49Z</time>
      </trkpt>
      <trkpt lat="43.32371" lon="2.42453">
        <ele>257.7</ele>
        <time>2023-05-28T05:49:50Z</time>
      </trkpt>
      <trkpt lat="43.32371" lon="2.42455">
        <ele>257.9</ele>
        <time>2023-05-28T05:49:51Z</time>
      </trkpt>
      <trkpt lat="43.32371" lon="2.42457">
        <ele>258.1</ele>
        <time>2023-05-28T05:49:52Z</time>
      </trkpt>
      <trkpt lat="43.32371" lon="2.42459">
        <ele>258.3</ele>
        <time>2023-05-28T05:49:53Z</time>
      </trkpt>
      <trkpt lat="43.32371" lon="2.42461">
        <ele>258.5</ele>
        <time>2023-05-28T05:49:54Z</time>
      </trkpt>
      <trkpt lat="43.32372" lon="2.42464">
        <ele>258.8</ele>
        <time>2023-05-28T05:49:55Z</time>
      </trkpt>
      <trkpt lat="43.32373" lon="2.42465">
        <ele>258.9</ele>
        <time>2023-05-28T05:49:56Z</time>
      </trkpt>
      <trkpt lat="43.32373" lon="2.42466">
        <ele>259</ele>
        <time>2023-05-28T05:49:57Z</time>
      </trkpt>
      <trkpt lat="43.32374" lon="2.42468">
        <ele>259.2</ele>
        <time>2023-05-28T05:49:58Z</time>
      </trkpt>
      <trkpt lat="43.32374" lon="2.4247">
        <ele>259.4</ele>
        <time>2023-05-28T05:49:59Z</time>
      </trkpt>
      <trkpt lat="43.32375" lon="2.42472">
        <ele>259.6</ele>
        <time>2023-05-28T05:50:00Z</time>
      </trkpt>
      <trkpt lat="43.32376" lon="2.42473">
        <ele>259.8</ele>
        <time>2023-05-28T05:50:01Z</time>
      </trkpt>
      <trkpt lat="43.32377" lon="2.42475">
        <ele>259.9</ele>
        <time>2023-05-28T05:50:02Z</time>
      </trkpt>
      <trkpt lat="43.32378" lon="2.42476">
        <ele>260.1</ele>
        <time>2023-05-28T05:50:03Z</time>
      </trkpt>
      <trkpt lat="43.32378" lon="2.42478">
        <ele>260.2</ele>
        <time>2023-05-28T05:50:04Z</time>
      </trkpt>
      <trkpt lat="43.32379" lon="2.4248">
        <ele>260.4</ele>
        <time>2023-05-28T05:50:05Z</time>
      </trkpt>
      <trkpt lat="43.3238" lon="2.42481">
        <ele>260.6</ele>
        <time>2023-05-28T05:50:06Z</time>
      </trkpt>
      <trkpt lat="43.32381" lon="2.42483">
        <ele>260.7</ele>
        <time>2023-05-28T05:50:07Z</time>
      </trkpt>
      <trkpt lat="43.32382" lon="2.42485">
        <ele>260.9</ele>
        <time>2023-05-28T05:50:08Z</time>
      </trkpt>
      <trkpt lat="43.32382" lon="2.42487">
        <ele>261.1</ele>
        <time>2023-05-28T05:50:09Z</time>
      </trkpt>
      <trkpt lat="43.32383" lon="2.4249">
        <ele>261.2</ele>
        <time>2023-05-28T05:50:10Z</time>
      </trkpt>
      <trkpt lat="43.32383" lon="2.42492">
        <ele>261.4</ele>
        <time>2023-05-28T05:50:11Z</time>
      </trkpt>
      <trkpt lat="43.32384" lon="2.42494">
        <ele>261.5</ele>
        <time>2023-05-28T05:50:12Z</time>
      </trkpt>
      <trkpt lat="43.32384" lon="2.42496">
        <ele>261.7</ele>
        <time>2023-05-28T05:50:13Z</time>
      </trkpt>
      <trkpt lat="43.32385" lon="2.42498">
        <ele>261.8</ele>
        <time>2023-05-28T05:50:14Z</time>
      </trkpt>
      <trkpt lat="43.32385" lon="2.425">
        <ele>261.9</ele>
        <time>2023-05-28T05:50:15Z</time>
      </trkpt>
      <trkpt lat="43.32385" lon="2.42502">
        <ele>262</ele>
        <time>2023-05-28T05:50:16Z</time>
      </trkpt>
      <trkpt lat="43.32386" lon="2.42504">
        <ele>262.2</ele>
        <time>2023-05-28T05:50:17Z</time>
      </trkpt>
      <trkpt lat="43.32386" lon="2.42507">
        <ele>262.3</ele>
        <time>2023-05-28T05:50:18Z</time>
      </trkpt>
      <trkpt lat="43.32387" lon="2.42509">
        <ele>262.4</ele>
        <time>2023-05-28T05:50:19Z</time>
      </trkpt>
      <trkpt lat="43.32387" lon="2.42511">
        <ele>262.5</ele>
        <time>2023-05-28T05:50:20Z</time>
      </trkpt>
      <trkpt lat="43.32387" lon="2.42514">
        <ele>262.7</ele>
        <time>2023-05-28T05:50:21Z</time>
      </trkpt>
      <trkpt lat="43.32387" lon="2.42516">
        <ele>262.8</ele>
        <time>2023-05-28T05:50:22Z</time>
      </trkpt>
      <trkpt lat="43.32386" lon="2.42518">
        <ele>262.9</ele>
        <time>2023-05-28T05:50:23Z</time>
      </trkpt>
      <trkpt lat="43.32386" lon="2.42522">
        <ele>263</ele>
        <time>2023-05-28T05:50:24Z</time>
      </trkpt>
      <trkpt lat="43.32385" lon="2.42523">
        <ele>263.1</ele>
        <time>2023-05-28T05:50:25Z</time>
      </trkpt>
      <trkpt lat="43.32386" lon="2.42527">
        <ele>263.3</ele>
        <time>2023-05-28T05:50:26Z</time>
      </trkpt>
      <trkpt lat="43.32386" lon="2.42528">
        <ele>263.3</ele>
        <time>2023-05-28T05:50:27Z</time>
      </trkpt>
      <trkpt lat="43.32386" lon="2.42532">
        <ele>263.5</ele>
        <time>2023-05-28T05:50:28Z</time>
      </trkpt>
      <trkpt lat="43.32386" lon="2.42533">
        <ele>263.5</ele>
        <time>2023-05-28T05:50:29Z</time>
      </trkpt>
      <trkpt lat="43.32386" lon="2.42538">
        <ele>263.7</ele>
        <time>2023-05-28T05:50:30Z</time>
      </trkpt>
      <trkpt lat="43.32386" lon="2.4254">
        <ele>263.8</ele>
        <time>2023-05-28T05:50:31Z</time>
      </trkpt>
      <trkpt lat="43.32386" lon="2.42542">
        <ele>263.9</ele>
        <time>2023-05-28T05:50:32Z</time>
      </trkpt>
      <trkpt lat="43.32386" lon="2.42545">
        <ele>264</ele>
        <time>2023-05-28T05:50:33Z</time>
      </trkpt>
      <trkpt lat="43.32386" lon="2.42547">
        <ele>264.1</ele>
        <time>2023-05-28T05:50:35Z</time>
      </trkpt>
      <trkpt lat="43.32386" lon="2.4255">
        <ele>264.1</ele>
        <time>2023-05-28T05:50:36Z</time>
      </trkpt>
      <trkpt lat="43.32386" lon="2.42553">
        <ele>264.3</ele>
        <time>2023-05-28T05:50:37Z</time>
      </trkpt>
      <trkpt lat="43.32386" lon="2.42555">
        <ele>264.3</ele>
        <time>2023-05-28T05:50:38Z</time>
      </trkpt>
      <trkpt lat="43.32387" lon="2.42559">
        <ele>264.5</ele>
        <time>2023-05-28T05:50:39Z</time>
      </trkpt>
      <trkpt lat="43.32387" lon="2.4256">
        <ele>264.6</ele>
        <time>2023-05-28T05:50:40Z</time>
      </trkpt>
      <trkpt lat="43.32388" lon="2.42564">
        <ele>264.7</ele>
        <time>2023-05-28T05:50:41Z</time>
      </trkpt>
      <trkpt lat="43.32389" lon="2.42565">
        <ele>264.8</ele>
        <time>2023-05-28T05:50:42Z</time>
      </trkpt>
      <trkpt lat="43.32389" lon="2.42567">
        <ele>264.8</ele>
        <time>2023-05-28T05:50:43Z</time>
      </trkpt>
      <trkpt lat="43.3239" lon="2.42569">
        <ele>264.9</ele>
        <time>2023-05-28T05:50:44Z</time>
      </trkpt>
      <trkpt lat="43.3239" lon="2.42571">
        <ele>265</ele>
        <time>2023-05-28T05:50:45Z</time>
      </trkpt>
      <trkpt lat="43.32391" lon="2.42574">
        <ele>265.2</ele>
        <time>2023-05-28T05:50:46Z</time>
      </trkpt>
      <trkpt lat="43.32392" lon="2.42577">
        <ele>265.3</ele>
        <time>2023-05-28T05:50:47Z</time>
      </trkpt>
      <trkpt lat="43.32393" lon="2.42578">
        <ele>265.4</ele>
        <time>2023-05-28T05:50:48Z</time>
      </trkpt>
      <trkpt lat="43.32394" lon="2.42582">
        <ele>265.6</ele>
        <time>2023-05-28T05:50:49Z</time>
      </trkpt>
      <trkpt lat="43.32395" lon="2.42583">
        <ele>265.6</ele>
        <time>2023-05-28T05:50:50Z</time>
      </trkpt>
      <trkpt lat="43.32395" lon="2.42585">
        <ele>265.8</ele>
        <time>2023-05-28T05:50:51Z</time>
      </trkpt>
      <trkpt lat="43.32396" lon="2.42588">
        <ele>265.9</ele>
        <time>2023-05-28T05:50:52Z</time>
      </trkpt>
      <trkpt lat="43.32397" lon="2.42591">
        <ele>266.1</ele>
        <time>2023-05-28T05:50:53Z</time>
      </trkpt>
      <trkpt lat="43.32398" lon="2.42592">
        <ele>266.2</ele>
        <time>2023-05-28T05:50:54Z</time>
      </trkpt>
      <trkpt lat="43.32399" lon="2.42596">
        <ele>266.4</ele>
        <time>2023-05-28T05:50:55Z</time>
      </trkpt>
      <trkpt lat="43.324" lon="2.42597">
        <ele>266.5</ele>
        <time>2023-05-28T05:50:56Z</time>
      </trkpt>
      <trkpt lat="43.32401" lon="2.42601">
        <ele>266.8</ele>
        <time>2023-05-28T05:50:57Z</time>
      </trkpt>
      <trkpt lat="43.32402" lon="2.42602">
        <ele>266.9</ele>
        <time>2023-05-28T05:50:58Z</time>
      </trkpt>
      <trkpt lat="43.32403" lon="2.42606">
        <ele>267.1</ele>
        <time>2023-05-28T05:50:59Z</time>
      </trkpt>
      <trkpt lat="43.32404" lon="2.42607">
        <ele>267.2</ele>
        <time>2023-05-28T05:51:00Z</time>
      </trkpt>
      <trkpt lat="43.32406" lon="2.4261">
        <ele>268.1</ele>
        <time>2023-05-28T05:51:01Z</time>
      </trkpt>
      <trkpt lat="43.32407" lon="2.4261">
        <ele>268.2</ele>
        <time>2023-05-28T05:51:02Z</time>
      </trkpt>
      <trkpt lat="43.3241" lon="2.42611">
        <ele>268.4</ele>
        <time>2023-05-28T05:51:03Z</time>
      </trkpt>
      <trkpt lat="43.32411" lon="2.42611">
        <ele>268.5</ele>
        <time>2023-05-28T05:51:04Z</time>
      </trkpt>
      <trkpt lat="43.32414" lon="2.4261">
        <ele>268.8</ele>
        <time>2023-05-28T05:51:05Z</time>
      </trkpt>
      <trkpt lat="43.32415" lon="2.4261">
        <ele>268.9</ele>
        <time>2023-05-28T05:51:06Z</time>
      </trkpt>
      <trkpt lat="43.32417" lon="2.42609">
        <ele>269</ele>
        <time>2023-05-28T05:51:07Z</time>
      </trkpt>
      <trkpt lat="43.32418" lon="2.42607">
        <ele>269.1</ele>
        <time>2023-05-28T05:51:08Z</time>
      </trkpt>
      <trkpt lat="43.32419" lon="2.42604">
        <ele>269.3</ele>
        <time>2023-05-28T05:51:09Z</time>
      </trkpt>
      <trkpt lat="43.3242" lon="2.42602">
        <ele>269.4</ele>
        <time>2023-05-28T05:51:10Z</time>
      </trkpt>
      <trkpt lat="43.32422" lon="2.42599">
        <ele>269.6</ele>
        <time>2023-05-28T05:51:11Z</time>
      </trkpt>
      <trkpt lat="43.32422" lon="2.42598">
        <ele>269.6</ele>
        <time>2023-05-28T05:51:12Z</time>
      </trkpt>
      <trkpt lat="43.32424" lon="2.42594">
        <ele>269.8</ele>
        <time>2023-05-28T05:51:13Z</time>
      </trkpt>
      <trkpt lat="43.32425" lon="2.42593">
        <ele>269.8</ele>
        <time>2023-05-28T05:51:14Z</time>
      </trkpt>
      <trkpt lat="43.32427" lon="2.4259">
        <ele>270</ele>
        <time>2023-05-28T05:51:15Z</time>
      </trkpt>
      <trkpt lat="43.32427" lon="2.42589">
        <ele>270</ele>
        <time>2023-05-28T05:51:16Z</time>
      </trkpt>
      <trkpt lat="43.3243" lon="2.42586">
        <ele>270.1</ele>
        <time>2023-05-28T05:51:17Z</time>
      </trkpt>
      <trkpt lat="43.32431" lon="2.42585">
        <ele>270.2</ele>
        <time>2023-05-28T05:51:18Z</time>
      </trkpt>
      <trkpt lat="43.32433" lon="2.42582">
        <ele>270.3</ele>
        <time>2023-05-28T05:51:19Z</time>
      </trkpt>
      <trkpt lat="43.32434" lon="2.42581">
        <ele>270.4</ele>
        <time>2023-05-28T05:51:20Z</time>
      </trkpt>
      <trkpt lat="43.32436" lon="2.42577">
        <ele>270.5</ele>
        <time>2023-05-28T05:51:21Z</time>
      </trkpt>
      <trkpt lat="43.32437" lon="2.42576">
        <ele>270.6</ele>
        <time>2023-05-28T05:51:22Z</time>
      </trkpt>
      <trkpt lat="43.32439" lon="2.42573">
        <ele>270.7</ele>
        <time>2023-05-28T05:51:23Z</time>
      </trkpt>
      <trkpt lat="43.3244" lon="2.42572">
        <ele>270.7</ele>
        <time>2023-05-28T05:51:24Z</time>
      </trkpt>
      <trkpt lat="43.32442" lon="2.42569">
        <ele>270.8</ele>
        <time>2023-05-28T05:51:25Z</time>
      </trkpt>
      <trkpt lat="43.32442" lon="2.42568">
        <ele>270.8</ele>
        <time>2023-05-28T05:51:26Z</time>
      </trkpt>
      <trkpt lat="43.32444" lon="2.42564">
        <ele>271</ele>
        <time>2023-05-28T05:51:27Z</time>
      </trkpt>
      <trkpt lat="43.32444" lon="2.42563">
        <ele>271</ele>
        <time>2023-05-28T05:51:28Z</time>
      </trkpt>
      <trkpt lat="43.32445" lon="2.42558">
        <ele>271.1</ele>
        <time>2023-05-28T05:51:29Z</time>
      </trkpt>
      <trkpt lat="43.32446" lon="2.42557">
        <ele>271.1</ele>
        <time>2023-05-28T05:51:30Z</time>
      </trkpt>
      <trkpt lat="43.32448" lon="2.42553">
        <ele>271.3</ele>
        <time>2023-05-28T05:51:31Z</time>
      </trkpt>
      <trkpt lat="43.32448" lon="2.42552">
        <ele>271.3</ele>
        <time>2023-05-28T05:51:32Z</time>
      </trkpt>
      <trkpt lat="43.32449" lon="2.42548">
        <ele>271.4</ele>
        <time>2023-05-28T05:51:33Z</time>
      </trkpt>
      <trkpt lat="43.3245" lon="2.42546">
        <ele>271.4</ele>
        <time>2023-05-28T05:51:34Z</time>
      </trkpt>
      <trkpt lat="43.3245" lon="2.42542">
        <ele>271.6</ele>
        <time>2023-05-28T05:51:35Z</time>
      </trkpt>
      <trkpt lat="43.32451" lon="2.42541">
        <ele>271.6</ele>
        <time>2023-05-28T05:51:36Z</time>
      </trkpt>
      <trkpt lat="43.32451" lon="2.42536">
        <ele>271.7</ele>
        <time>2023-05-28T05:51:37Z</time>
      </trkpt>
      <trkpt lat="43.32451" lon="2.42535">
        <ele>271.7</ele>
        <time>2023-05-28T05:51:38Z</time>
      </trkpt>
      <trkpt lat="43.32452" lon="2.42531">
        <ele>271.8</ele>
        <time>2023-05-28T05:51:39Z</time>
      </trkpt>
      <trkpt lat="43.32452" lon="2.42529">
        <ele>271.8</ele>
        <time>2023-05-28T05:51:40Z</time>
      </trkpt>
      <trkpt lat="43.32453" lon="2.42524">
        <ele>271.9</ele>
        <time>2023-05-28T05:51:41Z</time>
      </trkpt>
      <trkpt lat="43.32453" lon="2.42523">
        <ele>272</ele>
        <time>2023-05-28T05:51:42Z</time>
      </trkpt>
      <trkpt lat="43.32452" lon="2.42519">
        <ele>272</ele>
        <time>2023-05-28T05:51:43Z</time>
      </trkpt>
      <trkpt lat="43.32451" lon="2.42515">
        <ele>272.1</ele>
        <time>2023-05-28T05:51:44Z</time>
      </trkpt>
      <trkpt lat="43.32451" lon="2.42514">
        <ele>272.1</ele>
        <time>2023-05-28T05:51:45Z</time>
      </trkpt>
      <trkpt lat="43.32451" lon="2.4251">
        <ele>272.2</ele>
        <time>2023-05-28T05:51:46Z</time>
      </trkpt>
      <trkpt lat="43.32451" lon="2.42506">
        <ele>272.3</ele>
        <time>2023-05-28T05:51:47Z</time>
      </trkpt>
      <trkpt lat="43.3245" lon="2.42502">
        <ele>272.4</ele>
        <time>2023-05-28T05:51:48Z</time>
      </trkpt>
      <trkpt lat="43.3245" lon="2.42498">
        <ele>272.4</ele>
        <time>2023-05-28T05:51:49Z</time>
      </trkpt>
      <trkpt lat="43.3245" lon="2.42496">
        <ele>272.5</ele>
        <time>2023-05-28T05:51:50Z</time>
      </trkpt>
      <trkpt lat="43.3245" lon="2.42492">
        <ele>272.6</ele>
        <time>2023-05-28T05:51:51Z</time>
      </trkpt>
      <trkpt lat="43.3245" lon="2.4249">
        <ele>272.6</ele>
        <time>2023-05-28T05:51:52Z</time>
      </trkpt>
      <trkpt lat="43.3245" lon="2.42485">
        <ele>272.7</ele>
        <time>2023-05-28T05:51:53Z</time>
      </trkpt>
      <trkpt lat="43.3245" lon="2.42484">
        <ele>272.7</ele>
        <time>2023-05-28T05:51:54Z</time>
      </trkpt>
      <trkpt lat="43.32449" lon="2.4248">
        <ele>272.6</ele>
        <time>2023-05-28T05:51:55Z</time>
      </trkpt>
      <trkpt lat="43.32449" lon="2.42478">
        <ele>272.6</ele>
        <time>2023-05-28T05:51:56Z</time>
      </trkpt>
      <trkpt lat="43.32448" lon="2.42474">
        <ele>272.5</ele>
        <time>2023-05-28T05:51:57Z</time>
      </trkpt>
      <trkpt lat="43.32448" lon="2.42472">
        <ele>272.5</ele>
        <time>2023-05-28T05:51:58Z</time>
      </trkpt>
      <trkpt lat="43.32447" lon="2.42467">
        <ele>272.4</ele>
        <time>2023-05-28T05:51:59Z</time>
      </trkpt>
      <trkpt lat="43.32446" lon="2.42465">
        <ele>272.3</ele>
        <time>2023-05-28T05:52:00Z</time>
      </trkpt>
      <trkpt lat="43.32446" lon="2.42462">
        <ele>272.2</ele>
        <time>2023-05-28T05:52:01Z</time>
      </trkpt>
      <trkpt lat="43.32445" lon="2.42457">
        <ele>272.1</ele>
        <time>2023-05-28T05:52:02Z</time>
      </trkpt>
      <trkpt lat="43.32445" lon="2.42455">
        <ele>272</ele>
        <time>2023-05-28T05:52:03Z</time>
      </trkpt>
      <trkpt lat="43.32445" lon="2.42452">
        <ele>271.9</ele>
        <time>2023-05-28T05:52:04Z</time>
      </trkpt>
      <trkpt lat="43.32444" lon="2.4245">
        <ele>271.9</ele>
        <time>2023-05-28T05:52:05Z</time>
      </trkpt>
      <trkpt lat="43.32444" lon="2.42446">
        <ele>271.7</ele>
        <time>2023-05-28T05:52:06Z</time>
      </trkpt>
      <trkpt lat="43.32443" lon="2.42445">
        <ele>271.6</ele>
        <time>2023-05-28T05:52:07Z</time>
      </trkpt>
      <trkpt lat="43.32443" lon="2.4244">
        <ele>271.5</ele>
        <time>2023-05-28T05:52:08Z</time>
      </trkpt>
      <trkpt lat="43.32443" lon="2.42439">
        <ele>271.4</ele>
        <time>2023-05-28T05:52:09Z</time>
      </trkpt>
      <trkpt lat="43.32443" lon="2.42435">
        <ele>271.2</ele>
        <time>2023-05-28T05:52:10Z</time>
      </trkpt>
      <trkpt lat="43.32443" lon="2.42434">
        <ele>271.1</ele>
        <time>2023-05-28T05:52:11Z</time>
      </trkpt>
      <trkpt lat="43.32443" lon="2.42432">
        <ele>271</ele>
        <time>2023-05-28T05:52:12Z</time>
      </trkpt>
      <trkpt lat="43.32443" lon="2.4243">
        <ele>270.9</ele>
        <time>2023-05-28T05:52:13Z</time>
      </trkpt>
      <trkpt lat="43.32442" lon="2.42426">
        <ele>270.7</ele>
        <time>2023-05-28T05:52:14Z</time>
      </trkpt>
      <trkpt lat="43.32442" lon="2.42422">
        <ele>270.5</ele>
        <time>2023-05-28T05:52:15Z</time>
      </trkpt>
      <trkpt lat="43.32442" lon="2.42418">
        <ele>270.3</ele>
        <time>2023-05-28T05:52:16Z</time>
      </trkpt>
      <trkpt lat="43.32441" lon="2.42415">
        <ele>270</ele>
        <time>2023-05-28T05:52:17Z</time>
      </trkpt>
      <trkpt lat="43.3244" lon="2.42411">
        <ele>269.8</ele>
        <time>2023-05-28T05:52:18Z</time>
      </trkpt>
      <trkpt lat="43.3244" lon="2.4241">
        <ele>269.7</ele>
        <time>2023-05-28T05:52:19Z</time>
      </trkpt>
      <trkpt lat="43.3244" lon="2.42408">
        <ele>269.6</ele>
        <time>2023-05-28T05:52:20Z</time>
      </trkpt>
      <trkpt lat="43.3244" lon="2.42406">
        <ele>269.5</ele>
        <time>2023-05-28T05:52:21Z</time>
      </trkpt>
      <trkpt lat="43.32439" lon="2.42401">
        <ele>269.2</ele>
        <time>2023-05-28T05:52:22Z</time>
      </trkpt>
      <trkpt lat="43.32439" lon="2.42399">
        <ele>269</ele>
        <time>2023-05-28T05:52:23Z</time>
      </trkpt>
      <trkpt lat="43.32437" lon="2.42394">
        <ele>268.7</ele>
        <time>2023-05-28T05:52:24Z</time>
      </trkpt>
      <trkpt lat="43.32436" lon="2.42393">
        <ele>268.6</ele>
        <time>2023-05-28T05:52:25Z</time>
      </trkpt>
      <trkpt lat="43.32434" lon="2.4239">
        <ele>268.4</ele>
        <time>2023-05-28T05:52:26Z</time>
      </trkpt>
      <trkpt lat="43.32434" lon="2.42389">
        <ele>268.3</ele>
        <time>2023-05-28T05:52:27Z</time>
      </trkpt>
      <trkpt lat="43.32432" lon="2.42386">
        <ele>268.1</ele>
        <time>2023-05-28T05:52:28Z</time>
      </trkpt>
      <trkpt lat="43.32432" lon="2.42385">
        <ele>268.1</ele>
        <time>2023-05-28T05:52:29Z</time>
      </trkpt>
      <trkpt lat="43.3243" lon="2.4238">
        <ele>267.8</ele>
        <time>2023-05-28T05:52:30Z</time>
      </trkpt>
      <trkpt lat="43.3243" lon="2.42379">
        <ele>267.8</ele>
        <time>2023-05-28T05:52:31Z</time>
      </trkpt>
      <trkpt lat="43.32429" lon="2.42374">
        <ele>267.5</ele>
        <time>2023-05-28T05:52:32Z</time>
      </trkpt>
      <trkpt lat="43.32429" lon="2.42372">
        <ele>267.5</ele>
        <time>2023-05-28T05:52:33Z</time>
      </trkpt>
      <trkpt lat="43.32429" lon="2.42368">
        <ele>267.3</ele>
        <time>2023-05-28T05:52:34Z</time>
      </trkpt>
      <trkpt lat="43.32429" lon="2.42366">
        <ele>267.3</ele>
        <time>2023-05-28T05:52:35Z</time>
      </trkpt>
      <trkpt lat="43.32429" lon="2.42362">
        <ele>267.1</ele>
        <time>2023-05-28T05:52:36Z</time>
      </trkpt>
      <trkpt lat="43.32429" lon="2.4236">
        <ele>267.1</ele>
        <time>2023-05-28T05:52:37Z</time>
      </trkpt>
      <trkpt lat="43.32431" lon="2.42356">
        <ele>267</ele>
        <time>2023-05-28T05:52:38Z</time>
      </trkpt>
      <trkpt lat="43.32431" lon="2.42355">
        <ele>266.9</ele>
        <time>2023-05-28T05:52:39Z</time>
      </trkpt>
      <trkpt lat="43.32433" lon="2.42351">
        <ele>266.9</ele>
        <time>2023-05-28T05:52:40Z</time>
      </trkpt>
      <trkpt lat="43.32434" lon="2.42349">
        <ele>266.9</ele>
        <time>2023-05-28T05:52:41Z</time>
      </trkpt>
      <trkpt lat="43.32436" lon="2.42346">
        <ele>266.9</ele>
        <time>2023-05-28T05:52:42Z</time>
      </trkpt>
      <trkpt lat="43.32437" lon="2.42345">
        <ele>266.9</ele>
        <time>2023-05-28T05:52:43Z</time>
      </trkpt>
      <trkpt lat="43.32439" lon="2.42342">
        <ele>266.9</ele>
        <time>2023-05-28T05:52:44Z</time>
      </trkpt>
      <trkpt lat="43.3244" lon="2.4234">
        <ele>267</ele>
        <time>2023-05-28T05:52:45Z</time>
      </trkpt>
      <trkpt lat="43.32442" lon="2.42337">
        <ele>267.1</ele>
        <time>2023-05-28T05:52:46Z</time>
      </trkpt>
      <trkpt lat="43.32442" lon="2.42336">
        <ele>267.2</ele>
        <time>2023-05-28T05:52:47Z</time>
      </trkpt>
      <trkpt lat="43.32445" lon="2.42334">
        <ele>267.3</ele>
        <time>2023-05-28T05:52:48Z</time>
      </trkpt>
      <trkpt lat="43.32446" lon="2.42334">
        <ele>267.4</ele>
        <time>2023-05-28T05:52:49Z</time>
      </trkpt>
      <trkpt lat="43.3245" lon="2.42332">
        <ele>267.7</ele>
        <time>2023-05-28T05:52:50Z</time>
      </trkpt>
      <trkpt lat="43.32451" lon="2.42332">
        <ele>267.9</ele>
        <time>2023-05-28T05:52:51Z</time>
      </trkpt>
      <trkpt lat="43.32454" lon="2.42331">
        <ele>268.2</ele>
        <time>2023-05-28T05:52:52Z</time>
      </trkpt>
      <trkpt lat="43.32455" lon="2.42331">
        <ele>268.3</ele>
        <time>2023-05-28T05:52:53Z</time>
      </trkpt>
      <trkpt lat="43.32458" lon="2.42331">
        <ele>268.7</ele>
        <time>2023-05-28T05:52:54Z</time>
      </trkpt>
      <trkpt lat="43.32459" lon="2.42331">
        <ele>268.8</ele>
        <time>2023-05-28T05:52:55Z</time>
      </trkpt>
      <trkpt lat="43.32461" lon="2.42331">
        <ele>269.1</ele>
        <time>2023-05-28T05:52:56Z</time>
      </trkpt>
      <trkpt lat="43.32461" lon="2.42332">
        <ele>269.2</ele>
        <time>2023-05-28T05:52:57Z</time>
      </trkpt>
      <trkpt lat="43.32462" lon="2.42333">
        <ele>269.3</ele>
        <time>2023-05-28T05:52:58Z</time>
      </trkpt>
      <trkpt lat="43.32462" lon="2.42335">
        <ele>269.6</ele>
        <time>2023-05-28T05:52:59Z</time>
      </trkpt>
      <trkpt lat="43.32463" lon="2.42337">
        <ele>269.8</ele>
        <time>2023-05-28T05:53:00Z</time>
      </trkpt>
      <trkpt lat="43.32463" lon="2.42338">
        <ele>270</ele>
        <time>2023-05-28T05:53:01Z</time>
      </trkpt>
      <trkpt lat="43.32465" lon="2.42343">
        <ele>270.5</ele>
        <time>2023-05-28T05:53:02Z</time>
      </trkpt>
      <trkpt lat="43.32465" lon="2.42344">
        <ele>270.7</ele>
        <time>2023-05-28T05:53:03Z</time>
      </trkpt>
      <trkpt lat="43.32466" lon="2.42348">
        <ele>271.2</ele>
        <time>2023-05-28T05:53:04Z</time>
      </trkpt>
      <trkpt lat="43.32467" lon="2.42349">
        <ele>271.3</ele>
        <time>2023-05-28T05:53:05Z</time>
      </trkpt>
      <trkpt lat="43.32468" lon="2.42351">
        <ele>271.6</ele>
        <time>2023-05-28T05:53:06Z</time>
      </trkpt>
      <trkpt lat="43.32468" lon="2.42353">
        <ele>271.9</ele>
        <time>2023-05-28T05:53:07Z</time>
      </trkpt>
      <trkpt lat="43.32468" lon="2.42355">
        <ele>272.1</ele>
        <time>2023-05-28T05:53:08Z</time>
      </trkpt>
      <trkpt lat="43.32469" lon="2.42357">
        <ele>272.3</ele>
        <time>2023-05-28T05:53:09Z</time>
      </trkpt>
      <trkpt lat="43.32469" lon="2.42359">
        <ele>272.5</ele>
        <time>2023-05-28T05:53:10Z</time>
      </trkpt>
      <trkpt lat="43.32469" lon="2.42361">
        <ele>272.8</ele>
        <time>2023-05-28T05:53:11Z</time>
      </trkpt>
      <trkpt lat="43.3247" lon="2.42363">
        <ele>273</ele>
        <time>2023-05-28T05:53:12Z</time>
      </trkpt>
      <trkpt lat="43.3247" lon="2.42365">
        <ele>273.3</ele>
        <time>2023-05-28T05:53:13Z</time>
      </trkpt>
      <trkpt lat="43.32471" lon="2.42367">
        <ele>273.5</ele>
        <time>2023-05-28T05:53:14Z</time>
      </trkpt>
      <trkpt lat="43.32472" lon="2.42368">
        <ele>273.7</ele>
        <time>2023-05-28T05:53:15Z</time>
      </trkpt>
      <trkpt lat="43.32472" lon="2.42369">
        <ele>273.8</ele>
        <time>2023-05-28T05:53:16Z</time>
      </trkpt>
      <trkpt lat="43.32473" lon="2.42371">
        <ele>274.2</ele>
        <time>2023-05-28T05:53:17Z</time>
      </trkpt>
      <trkpt lat="43.32474" lon="2.42373">
        <ele>274.3</ele>
        <time>2023-05-28T05:53:18Z</time>
      </trkpt>
      <trkpt lat="43.32474" lon="2.42374">
        <ele>274.5</ele>
        <time>2023-05-28T05:53:19Z</time>
      </trkpt>
      <trkpt lat="43.32475" lon="2.42377">
        <ele>274.9</ele>
        <time>2023-05-28T05:53:20Z</time>
      </trkpt>
      <trkpt lat="43.32476" lon="2.42378">
        <ele>275</ele>
        <time>2023-05-28T05:53:21Z</time>
      </trkpt>
      <trkpt lat="43.32476" lon="2.4238">
        <ele>275.3</ele>
        <time>2023-05-28T05:53:22Z</time>
      </trkpt>
      <trkpt lat="43.32477" lon="2.42383">
        <ele>275.5</ele>
        <time>2023-05-28T05:53:23Z</time>
      </trkpt>
      <trkpt lat="43.32479" lon="2.42386">
        <ele>275.9</ele>
        <time>2023-05-28T05:53:24Z</time>
      </trkpt>
      <trkpt lat="43.32479" lon="2.42387">
        <ele>276</ele>
        <time>2023-05-28T05:53:25Z</time>
      </trkpt>
      <trkpt lat="43.3248" lon="2.42389">
        <ele>276.2</ele>
        <time>2023-05-28T05:53:26Z</time>
      </trkpt>
      <trkpt lat="43.3248" lon="2.42391">
        <ele>276.4</ele>
        <time>2023-05-28T05:53:27Z</time>
      </trkpt>
      <trkpt lat="43.3248" lon="2.42393">
        <ele>276.6</ele>
        <time>2023-05-28T05:53:28Z</time>
      </trkpt>
      <trkpt lat="43.32481" lon="2.42396">
        <ele>276.8</ele>
        <time>2023-05-28T05:53:29Z</time>
      </trkpt>
      <trkpt lat="43.32481" lon="2.424">
        <ele>277.2</ele>
        <time>2023-05-28T05:53:30Z</time>
      </trkpt>
      <trkpt lat="43.32481" lon="2.42401">
        <ele>277.3</ele>
        <time>2023-05-28T05:53:31Z</time>
      </trkpt>
      <trkpt lat="43.32482" lon="2.42405">
        <ele>277.7</ele>
        <time>2023-05-28T05:53:32Z</time>
      </trkpt>
      <trkpt lat="43.32482" lon="2.42406">
        <ele>277.8</ele>
        <time>2023-05-28T05:53:33Z</time>
      </trkpt>
      <trkpt lat="43.32483" lon="2.4241">
        <ele>278.1</ele>
        <time>2023-05-28T05:53:34Z</time>
      </trkpt>
      <trkpt lat="43.32483" lon="2.42412">
        <ele>278.3</ele>
        <time>2023-05-28T05:53:35Z</time>
      </trkpt>
      <trkpt lat="43.32484" lon="2.42414">
        <ele>278.5</ele>
        <time>2023-05-28T05:53:36Z</time>
      </trkpt>
      <trkpt lat="43.32484" lon="2.42416">
        <ele>278.6</ele>
        <time>2023-05-28T05:53:37Z</time>
      </trkpt>
      <trkpt lat="43.32485" lon="2.42417">
        <ele>278.8</ele>
        <time>2023-05-28T05:53:38Z</time>
      </trkpt>
      <trkpt lat="43.32485" lon="2.4242">
        <ele>279</ele>
        <time>2023-05-28T05:53:39Z</time>
      </trkpt>
      <trkpt lat="43.32486" lon="2.42422">
        <ele>279.2</ele>
        <time>2023-05-28T05:53:40Z</time>
      </trkpt>
      <trkpt lat="43.32486" lon="2.42425">
        <ele>279.4</ele>
        <time>2023-05-28T05:53:41Z</time>
      </trkpt>
      <trkpt lat="43.32487" lon="2.42427">
        <ele>279.6</ele>
        <time>2023-05-28T05:53:42Z</time>
      </trkpt>
      <trkpt lat="43.32488" lon="2.42429">
        <ele>279.8</ele>
        <time>2023-05-28T05:53:43Z</time>
      </trkpt>
      <trkpt lat="43.32489" lon="2.42431">
        <ele>280.1</ele>
        <time>2023-05-28T05:53:44Z</time>
      </trkpt>
      <trkpt lat="43.3249" lon="2.42432">
        <ele>280.2</ele>
        <time>2023-05-28T05:53:45Z</time>
      </trkpt>
      <trkpt lat="43.3249" lon="2.42433">
        <ele>280.3</ele>
        <time>2023-05-28T05:53:46Z</time>
      </trkpt>
      <trkpt lat="43.32491" lon="2.42435">
        <ele>280.5</ele>
        <time>2023-05-28T05:53:47Z</time>
      </trkpt>
      <trkpt lat="43.32491" lon="2.42437">
        <ele>280.6</ele>
        <time>2023-05-28T05:53:48Z</time>
      </trkpt>
      <trkpt lat="43.32492" lon="2.42439">
        <ele>280.8</ele>
        <time>2023-05-28T05:53:49Z</time>
      </trkpt>
      <trkpt lat="43.32493" lon="2.42441">
        <ele>281</ele>
        <time>2023-05-28T05:53:50Z</time>
      </trkpt>
      <trkpt lat="43.32493" lon="2.42446">
        <ele>281.4</ele>
        <time>2023-05-28T05:53:51Z</time>
      </trkpt>
      <trkpt lat="43.32494" lon="2.42447">
        <ele>281.5</ele>
        <time>2023-05-28T05:53:52Z</time>
      </trkpt>
      <trkpt lat="43.32495" lon="2.42451">
        <ele>281.9</ele>
        <time>2023-05-28T05:53:53Z</time>
      </trkpt>
      <trkpt lat="43.32496" lon="2.42453">
        <ele>282.1</ele>
        <time>2023-05-28T05:53:54Z</time>
      </trkpt>
      <trkpt lat="43.32498" lon="2.42456">
        <ele>282.5</ele>
        <time>2023-05-28T05:53:55Z</time>
      </trkpt>
      <trkpt lat="43.32499" lon="2.42457">
        <ele>282.6</ele>
        <time>2023-05-28T05:53:56Z</time>
      </trkpt>
      <trkpt lat="43.325" lon="2.42457">
        <ele>282.8</ele>
        <time>2023-05-28T05:53:57Z</time>
      </trkpt>
      <trkpt lat="43.32501" lon="2.42459">
        <ele>283</ele>
        <time>2023-05-28T05:53:58Z</time>
      </trkpt>
      <trkpt lat="43.32502" lon="2.42461">
        <ele>283.3</ele>
        <time>2023-05-28T05:53:59Z</time>
      </trkpt>
      <trkpt lat="43.32502" lon="2.42464">
        <ele>283.5</ele>
        <time>2023-05-28T05:54:00Z</time>
      </trkpt>
      <trkpt lat="43.32503" lon="2.42467">
        <ele>283.9</ele>
        <time>2023-05-28T05:54:01Z</time>
      </trkpt>
      <trkpt lat="43.32504" lon="2.42468">
        <ele>284</ele>
        <time>2023-05-28T05:54:02Z</time>
      </trkpt>
      <trkpt lat="43.32505" lon="2.4247">
        <ele>284.2</ele>
        <time>2023-05-28T05:54:03Z</time>
      </trkpt>
      <trkpt lat="43.32506" lon="2.42472">
        <ele>284.4</ele>
        <time>2023-05-28T05:54:04Z</time>
      </trkpt>
      <trkpt lat="43.32507" lon="2.42474">
        <ele>284.7</ele>
        <time>2023-05-28T05:54:05Z</time>
      </trkpt>
      <trkpt lat="43.32508" lon="2.42476">
        <ele>284.9</ele>
        <time>2023-05-28T05:54:06Z</time>
      </trkpt>
      <trkpt lat="43.32509" lon="2.4248">
        <ele>285.2</ele>
        <time>2023-05-28T05:54:07Z</time>
      </trkpt>
      <trkpt lat="43.3251" lon="2.42481">
        <ele>285.4</ele>
        <time>2023-05-28T05:54:08Z</time>
      </trkpt>
      <trkpt lat="43.32511" lon="2.42484">
        <ele>285.6</ele>
        <time>2023-05-28T05:54:09Z</time>
      </trkpt>
      <trkpt lat="43.32512" lon="2.42487">
        <ele>285.8</ele>
        <time>2023-05-28T05:54:11Z</time>
      </trkpt>
      <trkpt lat="43.32514" lon="2.4249">
        <ele>286.1</ele>
        <time>2023-05-28T05:54:12Z</time>
      </trkpt>
      <trkpt lat="43.32514" lon="2.4249">
        <ele>286.1</ele>
        <time>2023-05-28T05:54:13Z</time>
      </trkpt>
      <trkpt lat="43.32515" lon="2.42492">
        <ele>286.3</ele>
        <time>2023-05-28T05:54:14Z</time>
      </trkpt>
      <trkpt lat="43.32515" lon="2.42493">
        <ele>286.3</ele>
        <time>2023-05-28T05:54:15Z</time>
      </trkpt>
      <trkpt lat="43.32516" lon="2.42495">
        <ele>286.4</ele>
        <time>2023-05-28T05:54:16Z</time>
      </trkpt>
      <trkpt lat="43.32517" lon="2.42498">
        <ele>286.7</ele>
        <time>2023-05-28T05:54:17Z</time>
      </trkpt>
      <trkpt lat="43.32517" lon="2.42499">
        <ele>286.8</ele>
        <time>2023-05-28T05:54:18Z</time>
      </trkpt>
      <trkpt lat="43.32518" lon="2.42502">
        <ele>286.9</ele>
        <time>2023-05-28T05:54:19Z</time>
      </trkpt>
      <trkpt lat="43.32519" lon="2.42504">
        <ele>287</ele>
        <time>2023-05-28T05:54:20Z</time>
      </trkpt>
      <trkpt lat="43.3252" lon="2.42507">
        <ele>287.3</ele>
        <time>2023-05-28T05:54:21Z</time>
      </trkpt>
      <trkpt lat="43.3252" lon="2.42508">
        <ele>287.3</ele>
        <time>2023-05-28T05:54:22Z</time>
      </trkpt>
      <trkpt lat="43.3252" lon="2.42512">
        <ele>287.6</ele>
        <time>2023-05-28T05:54:23Z</time>
      </trkpt>
      <trkpt lat="43.32521" lon="2.42513">
        <ele>287.7</ele>
        <time>2023-05-28T05:54:24Z</time>
      </trkpt>
      <trkpt lat="43.32522" lon="2.42518">
        <ele>288</ele>
        <time>2023-05-28T05:54:25Z</time>
      </trkpt>
      <trkpt lat="43.32522" lon="2.4252">
        <ele>288.1</ele>
        <time>2023-05-28T05:54:26Z</time>
      </trkpt>
      <trkpt lat="43.32523" lon="2.42522">
        <ele>288.3</ele>
        <time>2023-05-28T05:54:27Z</time>
      </trkpt>
      <trkpt lat="43.32524" lon="2.42524">
        <ele>288.4</ele>
        <time>2023-05-28T05:54:28Z</time>
      </trkpt>
      <trkpt lat="43.32524" lon="2.42528">
        <ele>288.7</ele>
        <time>2023-05-28T05:54:29Z</time>
      </trkpt>
      <trkpt lat="43.32525" lon="2.42529">
        <ele>288.8</ele>
        <time>2023-05-28T05:54:30Z</time>
      </trkpt>
      <trkpt lat="43.32525" lon="2.42533">
        <ele>289.1</ele>
        <time>2023-05-28T05:54:31Z</time>
      </trkpt>
      <trkpt lat="43.32525" lon="2.42534">
        <ele>289.3</ele>
        <time>2023-05-28T05:54:32Z</time>
      </trkpt>
      <trkpt lat="43.32526" lon="2.42538">
        <ele>289.6</ele>
        <time>2023-05-28T05:54:33Z</time>
      </trkpt>
      <trkpt lat="43.32527" lon="2.42541">
        <ele>289.9</ele>
        <time>2023-05-28T05:54:34Z</time>
      </trkpt>
      <trkpt lat="43.32529" lon="2.42545">
        <ele>290.3</ele>
        <time>2023-05-28T05:54:35Z</time>
      </trkpt>
      <trkpt lat="43.32529" lon="2.42547">
        <ele>290.4</ele>
        <time>2023-05-28T05:54:36Z</time>
      </trkpt>
      <trkpt lat="43.3253" lon="2.4255">
        <ele>290.7</ele>
        <time>2023-05-28T05:54:37Z</time>
      </trkpt>
      <trkpt lat="43.32531" lon="2.42555">
        <ele>291.1</ele>
        <time>2023-05-28T05:54:38Z</time>
      </trkpt>
      <trkpt lat="43.32532" lon="2.42556">
        <ele>291.2</ele>
        <time>2023-05-28T05:54:39Z</time>
      </trkpt>
      <trkpt lat="43.32534" lon="2.42558">
        <ele>291.4</ele>
        <time>2023-05-28T05:54:40Z</time>
      </trkpt>
      <trkpt lat="43.32535" lon="2.42559">
        <ele>291.6</ele>
        <time>2023-05-28T05:54:41Z</time>
      </trkpt>
      <trkpt lat="43.32535" lon="2.42559">
        <ele>291.7</ele>
        <time>2023-05-28T05:54:42Z</time>
      </trkpt>
      <trkpt lat="43.32536" lon="2.4256">
        <ele>291.7</ele>
        <time>2023-05-28T05:54:43Z</time>
      </trkpt>
      <trkpt lat="43.32536" lon="2.4256">
        <ele>291.8</ele>
        <time>2023-05-28T05:54:44Z</time>
      </trkpt>
      <trkpt lat="43.32537" lon="2.42561">
        <ele>291.8</ele>
        <time>2023-05-28T05:54:45Z</time>
      </trkpt>
      <trkpt lat="43.32537" lon="2.42562">
        <ele>292</ele>
        <time>2023-05-28T05:54:46Z</time>
      </trkpt>
      <trkpt lat="43.32538" lon="2.42562">
        <ele>292</ele>
        <time>2023-05-28T05:54:47Z</time>
      </trkpt>
      <trkpt lat="43.32539" lon="2.42563">
        <ele>292</ele>
        <time>2023-05-28T05:54:48Z</time>
      </trkpt>
      <trkpt lat="43.32539" lon="2.42564">
        <ele>292</ele>
        <time>2023-05-28T05:54:49Z</time>
      </trkpt>
      <trkpt lat="43.3254" lon="2.42565">
        <ele>292.1</ele>
        <time>2023-05-28T05:54:50Z</time>
      </trkpt>
      <trkpt lat="43.32541" lon="2.42567">
        <ele>292.1</ele>
        <time>2023-05-28T05:54:51Z</time>
      </trkpt>
      <trkpt lat="43.32541" lon="2.42568">
        <ele>292.2</ele>
        <time>2023-05-28T05:54:52Z</time>
      </trkpt>
      <trkpt lat="43.32541" lon="2.42568">
        <ele>292.2</ele>
        <time>2023-05-28T05:54:53Z</time>
      </trkpt>
      <trkpt lat="43.32542" lon="2.42569">
        <ele>292.2</ele>
        <time>2023-05-28T05:54:54Z</time>
      </trkpt>
      <trkpt lat="43.32543" lon="2.42572">
        <ele>292.3</ele>
        <time>2023-05-28T05:54:55Z</time>
      </trkpt>
      <trkpt lat="43.32543" lon="2.42573">
        <ele>292.3</ele>
        <time>2023-05-28T05:54:56Z</time>
      </trkpt>
      <trkpt lat="43.32544" lon="2.42574">
        <ele>292.3</ele>
        <time>2023-05-28T05:54:57Z</time>
      </trkpt>
      <trkpt lat="43.32544" lon="2.42575">
        <ele>292.4</ele>
        <time>2023-05-28T05:54:58Z</time>
      </trkpt>
      <trkpt lat="43.32545" lon="2.42576">
        <ele>292.4</ele>
        <time>2023-05-28T05:54:59Z</time>
      </trkpt>
      <trkpt lat="43.32545" lon="2.42577">
        <ele>292.5</ele>
        <time>2023-05-28T05:55:00Z</time>
      </trkpt>
      <trkpt lat="43.32546" lon="2.42578">
        <ele>292.5</ele>
        <time>2023-05-28T05:55:01Z</time>
      </trkpt>
      <trkpt lat="43.32546" lon="2.42579">
        <ele>292.5</ele>
        <time>2023-05-28T05:55:02Z</time>
      </trkpt>
      <trkpt lat="43.32547" lon="2.4258">
        <ele>292.6</ele>
        <time>2023-05-28T05:55:03Z</time>
      </trkpt>
      <trkpt lat="43.32548" lon="2.42581">
        <ele>292.6</ele>
        <time>2023-05-28T05:55:04Z</time>
      </trkpt>
      <trkpt lat="43.32548" lon="2.42582">
        <ele>292.6</ele>
        <time>2023-05-28T05:55:05Z</time>
      </trkpt>
      <trkpt lat="43.32548" lon="2.42583">
        <ele>292.7</ele>
        <time>2023-05-28T05:55:06Z</time>
      </trkpt>
      <trkpt lat="43.32549" lon="2.42584">
        <ele>292.7</ele>
        <time>2023-05-28T05:55:07Z</time>
      </trkpt>
      <trkpt lat="43.32549" lon="2.42586">
        <ele>292.7</ele>
        <time>2023-05-28T05:55:08Z</time>
      </trkpt>
      <trkpt lat="43.3255" lon="2.42587">
        <ele>292.8</ele>
        <time>2023-05-28T05:55:09Z</time>
      </trkpt>
      <trkpt lat="43.3255" lon="2.42588">
        <ele>292.8</ele>
        <time>2023-05-28T05:55:10Z</time>
      </trkpt>
      <trkpt lat="43.3255" lon="2.42588">
        <ele>292.8</ele>
        <time>2023-05-28T05:55:11Z</time>
      </trkpt>
      <trkpt lat="43.3255" lon="2.42588">
        <ele>292.8</ele>
        <time>2023-05-28T05:55:12Z</time>
      </trkpt>
      <trkpt lat="43.3255" lon="2.42588">
        <ele>292.8</ele>
        <time>2023-05-28T05:55:13Z</time>
      </trkpt>
      <trkpt lat="43.3255" lon="2.42589">
        <ele>292.9</ele>
        <time>2023-05-28T05:55:14Z</time>
      </trkpt>
      <trkpt lat="43.32549" lon="2.42589">
        <ele>292.9</ele>
        <time>2023-05-28T05:55:15Z</time>
      </trkpt>
      <trkpt lat="43.32549" lon="2.42589">
        <ele>292.9</ele>
        <time>2023-05-28T05:55:16Z</time>
      </trkpt>
      <trkpt lat="43.32549" lon="2.4259">
        <ele>292.9</ele>
        <time>2023-05-28T05:55:17Z</time>
      </trkpt>
      <trkpt lat="43.32548" lon="2.4259">
        <ele>292.9</ele>
        <time>2023-05-28T05:55:18Z</time>
      </trkpt>
      <trkpt lat="43.32548" lon="2.4259">
        <ele>292.9</ele>
        <time>2023-05-28T05:55:19Z</time>
      </trkpt>
      <trkpt lat="43.32548" lon="2.4259">
        <ele>292.9</ele>
        <time>2023-05-28T05:55:20Z</time>
      </trkpt>
      <trkpt lat="43.32548" lon="2.42591">
        <ele>292.9</ele>
        <time>2023-05-28T05:55:21Z</time>
      </trkpt>
      <trkpt lat="43.32549" lon="2.42592">
        <ele>293</ele>
        <time>2023-05-28T05:55:22Z</time>
      </trkpt>
      <trkpt lat="43.32549" lon="2.42592">
        <ele>293</ele>
        <time>2023-05-28T05:55:23Z</time>
      </trkpt>
      <trkpt lat="43.32549" lon="2.42593">
        <ele>293</ele>
        <time>2023-05-28T05:55:24Z</time>
      </trkpt>
      <trkpt lat="43.32549" lon="2.42593">
        <ele>293</ele>
        <time>2023-05-28T05:55:25Z</time>
      </trkpt>
      <trkpt lat="43.32549" lon="2.42594">
        <ele>293</ele>
        <time>2023-05-28T05:55:26Z</time>
      </trkpt>
      <trkpt lat="43.32549" lon="2.42595">
        <ele>293.1</ele>
        <time>2023-05-28T05:55:27Z</time>
      </trkpt>
      <trkpt lat="43.32549" lon="2.42595">
        <ele>293.1</ele>
        <time>2023-05-28T05:55:28Z</time>
      </trkpt>
      <trkpt lat="43.3255" lon="2.42598">
        <ele>293.2</ele>
        <time>2023-05-28T05:55:29Z</time>
      </trkpt>
      <trkpt lat="43.32551" lon="2.42599">
        <ele>293.2</ele>
        <time>2023-05-28T05:55:30Z</time>
      </trkpt>
      <trkpt lat="43.32551" lon="2.426">
        <ele>293.2</ele>
        <time>2023-05-28T05:55:31Z</time>
      </trkpt>
      <trkpt lat="43.32552" lon="2.42602">
        <ele>293.3</ele>
        <time>2023-05-28T05:55:32Z</time>
      </trkpt>
      <trkpt lat="43.32553" lon="2.42604">
        <ele>293.4</ele>
        <time>2023-05-28T05:55:33Z</time>
      </trkpt>
      <trkpt lat="43.32553" lon="2.42605">
        <ele>293.4</ele>
        <time>2023-05-28T05:55:34Z</time>
      </trkpt>
      <trkpt lat="43.32554" lon="2.42607">
        <ele>293.5</ele>
        <time>2023-05-28T05:55:35Z</time>
      </trkpt>
      <trkpt lat="43.32555" lon="2.42608">
        <ele>293.6</ele>
        <time>2023-05-28T05:55:36Z</time>
      </trkpt>
      <trkpt lat="43.32555" lon="2.4261">
        <ele>293.6</ele>
        <time>2023-05-28T05:55:37Z</time>
      </trkpt>
      <trkpt lat="43.32556" lon="2.42611">
        <ele>293.7</ele>
        <time>2023-05-28T05:55:38Z</time>
      </trkpt>
      <trkpt lat="43.32556" lon="2.42614">
        <ele>293.8</ele>
        <time>2023-05-28T05:55:39Z</time>
      </trkpt>
      <trkpt lat="43.32557" lon="2.42617">
        <ele>294</ele>
        <time>2023-05-28T05:55:40Z</time>
      </trkpt>
      <trkpt lat="43.32557" lon="2.42619">
        <ele>294.1</ele>
        <time>2023-05-28T05:55:41Z</time>
      </trkpt>
      <trkpt lat="43.32558" lon="2.42623">
        <ele>294.3</ele>
        <time>2023-05-28T05:55:42Z</time>
      </trkpt>
      <trkpt lat="43.32558" lon="2.42624">
        <ele>294.4</ele>
        <time>2023-05-28T05:55:43Z</time>
      </trkpt>
      <trkpt lat="43.32559" lon="2.42628">
        <ele>294.6</ele>
        <time>2023-05-28T05:55:44Z</time>
      </trkpt>
      <trkpt lat="43.32559" lon="2.42629">
        <ele>294.7</ele>
        <time>2023-05-28T05:55:45Z</time>
      </trkpt>
      <trkpt lat="43.32559" lon="2.42631">
        <ele>294.8</ele>
        <time>2023-05-28T05:55:46Z</time>
      </trkpt>
      <trkpt lat="43.3256" lon="2.42634">
        <ele>295</ele>
        <time>2023-05-28T05:55:47Z</time>
      </trkpt>
      <trkpt lat="43.3256" lon="2.42638">
        <ele>295.3</ele>
        <time>2023-05-28T05:55:48Z</time>
      </trkpt>
      <trkpt lat="43.3256" lon="2.42639">
        <ele>295.4</ele>
        <time>2023-05-28T05:55:49Z</time>
      </trkpt>
      <trkpt lat="43.3256" lon="2.42643">
        <ele>295.7</ele>
        <time>2023-05-28T05:55:50Z</time>
      </trkpt>
      <trkpt lat="43.3256" lon="2.42645">
        <ele>295.8</ele>
        <time>2023-05-28T05:55:51Z</time>
      </trkpt>
      <trkpt lat="43.3256" lon="2.4265">
        <ele>296.2</ele>
        <time>2023-05-28T05:55:52Z</time>
      </trkpt>
      <trkpt lat="43.3256" lon="2.42651">
        <ele>296.3</ele>
        <time>2023-05-28T05:55:53Z</time>
      </trkpt>
      <trkpt lat="43.3256" lon="2.42655">
        <ele>296.6</ele>
        <time>2023-05-28T05:55:54Z</time>
      </trkpt>
      <trkpt lat="43.3256" lon="2.42657">
        <ele>296.7</ele>
        <time>2023-05-28T05:55:55Z</time>
      </trkpt>
      <trkpt lat="43.32561" lon="2.42661">
        <ele>297</ele>
        <time>2023-05-28T05:55:56Z</time>
      </trkpt>
      <trkpt lat="43.32561" lon="2.42662">
        <ele>297.1</ele>
        <time>2023-05-28T05:55:57Z</time>
      </trkpt>
      <trkpt lat="43.32562" lon="2.42664">
        <ele>297.3</ele>
        <time>2023-05-28T05:55:58Z</time>
      </trkpt>
      <trkpt lat="43.32562" lon="2.42667">
        <ele>297.5</ele>
        <time>2023-05-28T05:55:59Z</time>
      </trkpt>
      <trkpt lat="43.32563" lon="2.42671">
        <ele>297.8</ele>
        <time>2023-05-28T05:56:00Z</time>
      </trkpt>
      <trkpt lat="43.32563" lon="2.42672">
        <ele>297.9</ele>
        <time>2023-05-28T05:56:01Z</time>
      </trkpt>
      <trkpt lat="43.32563" lon="2.42676">
        <ele>298.2</ele>
        <time>2023-05-28T05:56:02Z</time>
      </trkpt>
      <trkpt lat="43.32563" lon="2.42677">
        <ele>298.4</ele>
        <time>2023-05-28T05:56:03Z</time>
      </trkpt>
      <trkpt lat="43.32564" lon="2.42681">
        <ele>298.7</ele>
        <time>2023-05-28T05:56:04Z</time>
      </trkpt>
      <trkpt lat="43.32564" lon="2.42683">
        <ele>298.8</ele>
        <time>2023-05-28T05:56:05Z</time>
      </trkpt>
      <trkpt lat="43.32565" lon="2.42687">
        <ele>299.1</ele>
        <time>2023-05-28T05:56:06Z</time>
      </trkpt>
      <trkpt lat="43.32565" lon="2.42689">
        <ele>299.2</ele>
        <time>2023-05-28T05:56:07Z</time>
      </trkpt>
      <trkpt lat="43.32565" lon="2.42693">
        <ele>299.5</ele>
        <time>2023-05-28T05:56:08Z</time>
      </trkpt>
      <trkpt lat="43.32564" lon="2.42694">
        <ele>299.6</ele>
        <time>2023-05-28T05:56:09Z</time>
      </trkpt>
      <trkpt lat="43.32564" lon="2.42699">
        <ele>299.9</ele>
        <time>2023-05-28T05:56:10Z</time>
      </trkpt>
      <trkpt lat="43.32564" lon="2.42701">
        <ele>300</ele>
        <time>2023-05-28T05:56:11Z</time>
      </trkpt>
      <trkpt lat="43.32565" lon="2.42706">
        <ele>300.2</ele>
        <time>2023-05-28T05:56:12Z</time>
      </trkpt>
      <trkpt lat="43.32565" lon="2.42707">
        <ele>300.3</ele>
        <time>2023-05-28T05:56:13Z</time>
      </trkpt>
      <trkpt lat="43.32566" lon="2.42712">
        <ele>300.4</ele>
        <time>2023-05-28T05:56:14Z</time>
      </trkpt>
      <trkpt lat="43.32566" lon="2.42713">
        <ele>300.5</ele>
        <time>2023-05-28T05:56:15Z</time>
      </trkpt>
      <trkpt lat="43.32567" lon="2.42719">
        <ele>300.6</ele>
        <time>2023-05-28T05:56:16Z</time>
      </trkpt>
      <trkpt lat="43.32567" lon="2.4272">
        <ele>300.7</ele>
        <time>2023-05-28T05:56:17Z</time>
      </trkpt>
      <trkpt lat="43.32568" lon="2.42724">
        <ele>300.8</ele>
        <time>2023-05-28T05:56:18Z</time>
      </trkpt>
      <trkpt lat="43.32568" lon="2.42729">
        <ele>300.8</ele>
        <time>2023-05-28T05:56:19Z</time>
      </trkpt>
      <trkpt lat="43.32568" lon="2.4273">
        <ele>300.8</ele>
        <time>2023-05-28T05:56:20Z</time>
      </trkpt>
      <trkpt lat="43.32569" lon="2.42735">
        <ele>300.9</ele>
        <time>2023-05-28T05:56:21Z</time>
      </trkpt>
      <trkpt lat="43.32569" lon="2.42736">
        <ele>300.9</ele>
        <time>2023-05-28T05:56:22Z</time>
      </trkpt>
      <trkpt lat="43.32569" lon="2.4274">
        <ele>300.9</ele>
        <time>2023-05-28T05:56:23Z</time>
      </trkpt>
      <trkpt lat="43.32569" lon="2.42742">
        <ele>301</ele>
        <time>2023-05-28T05:56:24Z</time>
      </trkpt>
      <trkpt lat="43.3257" lon="2.42747">
        <ele>301</ele>
        <time>2023-05-28T05:56:25Z</time>
      </trkpt>
      <trkpt lat="43.3257" lon="2.42748">
        <ele>301</ele>
        <time>2023-05-28T05:56:26Z</time>
      </trkpt>
      <trkpt lat="43.3257" lon="2.42752">
        <ele>301</ele>
        <time>2023-05-28T05:56:27Z</time>
      </trkpt>
      <trkpt lat="43.3257" lon="2.42753">
        <ele>301</ele>
        <time>2023-05-28T05:56:28Z</time>
      </trkpt>
      <trkpt lat="43.3257" lon="2.42756">
        <ele>301</ele>
        <time>2023-05-28T05:56:29Z</time>
      </trkpt>
      <trkpt lat="43.32571" lon="2.42758">
        <ele>301</ele>
        <time>2023-05-28T05:56:30Z</time>
      </trkpt>
      <trkpt lat="43.32572" lon="2.4276">
        <ele>301.1</ele>
        <time>2023-05-28T05:56:31Z</time>
      </trkpt>
      <trkpt lat="43.32573" lon="2.4276">
        <ele>301.1</ele>
        <time>2023-05-28T05:56:32Z</time>
      </trkpt>
      <trkpt lat="43.32574" lon="2.42761">
        <ele>301.2</ele>
        <time>2023-05-28T05:56:33Z</time>
      </trkpt>
      <trkpt lat="43.32575" lon="2.42761">
        <ele>301.2</ele>
        <time>2023-05-28T05:56:34Z</time>
      </trkpt>
      <trkpt lat="43.32576" lon="2.42761">
        <ele>301.2</ele>
        <time>2023-05-28T05:56:35Z</time>
      </trkpt>
      <trkpt lat="43.3258" lon="2.42761">
        <ele>301.3</ele>
        <time>2023-05-28T05:56:36Z</time>
      </trkpt>
      <trkpt lat="43.3258" lon="2.4276">
        <ele>301.3</ele>
        <time>2023-05-28T05:56:37Z</time>
      </trkpt>
      <trkpt lat="43.32582" lon="2.4276">
        <ele>301.4</ele>
        <time>2023-05-28T05:56:38Z</time>
      </trkpt>
      <trkpt lat="43.32583" lon="2.4276">
        <ele>301.4</ele>
        <time>2023-05-28T05:56:39Z</time>
      </trkpt>
      <trkpt lat="43.32585" lon="2.42759">
        <ele>301.4</ele>
        <time>2023-05-28T05:56:40Z</time>
      </trkpt>
      <trkpt lat="43.32587" lon="2.42759">
        <ele>301.5</ele>
        <time>2023-05-28T05:56:41Z</time>
      </trkpt>
      <trkpt lat="43.32588" lon="2.42759">
        <ele>301.5</ele>
        <time>2023-05-28T05:56:42Z</time>
      </trkpt>
      <trkpt lat="43.3259" lon="2.42758">
        <ele>301.6</ele>
        <time>2023-05-28T05:56:43Z</time>
      </trkpt>
      <trkpt lat="43.32592" lon="2.42758">
        <ele>301.6</ele>
        <time>2023-05-28T05:56:44Z</time>
      </trkpt>
      <trkpt lat="43.32593" lon="2.42758">
        <ele>301.7</ele>
        <time>2023-05-28T05:56:45Z</time>
      </trkpt>
      <trkpt lat="43.32595" lon="2.42758">
        <ele>301.8</ele>
        <time>2023-05-28T05:56:46Z</time>
      </trkpt>
      <trkpt lat="43.32596" lon="2.42758">
        <ele>301.9</ele>
        <time>2023-05-28T05:56:47Z</time>
      </trkpt>
      <trkpt lat="43.326" lon="2.42758">
        <ele>302</ele>
        <time>2023-05-28T05:56:48Z</time>
      </trkpt>
      <trkpt lat="43.32601" lon="2.42758">
        <ele>302.1</ele>
        <time>2023-05-28T05:56:49Z</time>
      </trkpt>
      <trkpt lat="43.32603" lon="2.42757">
        <ele>302.2</ele>
        <time>2023-05-28T05:56:50Z</time>
      </trkpt>
      <trkpt lat="43.32604" lon="2.42757">
        <ele>302.2</ele>
        <time>2023-05-28T05:56:51Z</time>
      </trkpt>
      <trkpt lat="43.32606" lon="2.42758">
        <ele>302.3</ele>
        <time>2023-05-28T05:56:52Z</time>
      </trkpt>
      <trkpt lat="43.32608" lon="2.42757">
        <ele>302.4</ele>
        <time>2023-05-28T05:56:53Z</time>
      </trkpt>
      <trkpt lat="43.32609" lon="2.42757">
        <ele>302.5</ele>
        <time>2023-05-28T05:56:54Z</time>
      </trkpt>
      <trkpt lat="43.32611" lon="2.42757">
        <ele>302.6</ele>
        <time>2023-05-28T05:56:55Z</time>
      </trkpt>
      <trkpt lat="43.32612" lon="2.42757">
        <ele>302.7</ele>
        <time>2023-05-28T05:56:56Z</time>
      </trkpt>
      <trkpt lat="43.32614" lon="2.42757">
        <ele>302.8</ele>
        <time>2023-05-28T05:56:57Z</time>
      </trkpt>
      <trkpt lat="43.32615" lon="2.42757">
        <ele>303</ele>
        <time>2023-05-28T05:56:58Z</time>
      </trkpt>
      <trkpt lat="43.32616" lon="2.42757">
        <ele>303</ele>
        <time>2023-05-28T05:56:59Z</time>
      </trkpt>
      <trkpt lat="43.32617" lon="2.42757">
        <ele>303.1</ele>
        <time>2023-05-28T05:57:00Z</time>
      </trkpt>
      <trkpt lat="43.32619" lon="2.42757">
        <ele>303.2</ele>
        <time>2023-05-28T05:57:01Z</time>
      </trkpt>
      <trkpt lat="43.3262" lon="2.42756">
        <ele>303.4</ele>
        <time>2023-05-28T05:57:02Z</time>
      </trkpt>
      <trkpt lat="43.32622" lon="2.42756">
        <ele>303.5</ele>
        <time>2023-05-28T05:57:03Z</time>
      </trkpt>
      <trkpt lat="43.32623" lon="2.42755">
        <ele>303.7</ele>
        <time>2023-05-28T05:57:04Z</time>
      </trkpt>
      <trkpt lat="43.32624" lon="2.42755">
        <ele>303.8</ele>
        <time>2023-05-28T05:57:05Z</time>
      </trkpt>
      <trkpt lat="43.32625" lon="2.42755">
        <ele>303.8</ele>
        <time>2023-05-28T05:57:06Z</time>
      </trkpt>
      <trkpt lat="43.32625" lon="2.42755">
        <ele>303.9</ele>
        <time>2023-05-28T05:57:07Z</time>
      </trkpt>
      <trkpt lat="43.32626" lon="2.42755">
        <ele>303.9</ele>
        <time>2023-05-28T05:57:08Z</time>
      </trkpt>
      <trkpt lat="43.32626" lon="2.42755">
        <ele>303.9</ele>
        <time>2023-05-28T05:57:09Z</time>
      </trkpt>
      <trkpt lat="43.32628" lon="2.42755">
        <ele>304.1</ele>
        <time>2023-05-28T05:57:10Z</time>
      </trkpt>
      <trkpt lat="43.3263" lon="2.42755">
        <ele>304.3</ele>
        <time>2023-05-28T05:57:11Z</time>
      </trkpt>
      <trkpt lat="43.32631" lon="2.42755">
        <ele>304.4</ele>
        <time>2023-05-28T05:57:12Z</time>
      </trkpt>
      <trkpt lat="43.32631" lon="2.42754">
        <ele>304.5</ele>
        <time>2023-05-28T05:57:13Z</time>
      </trkpt>
      <trkpt lat="43.32632" lon="2.42753">
        <ele>304.7</ele>
        <time>2023-05-28T05:57:14Z</time>
      </trkpt>
      <trkpt lat="43.32634" lon="2.42753">
        <ele>304.9</ele>
        <time>2023-05-28T05:57:15Z</time>
      </trkpt>
      <trkpt lat="43.32635" lon="2.42753">
        <ele>305</ele>
        <time>2023-05-28T05:57:16Z</time>
      </trkpt>
      <trkpt lat="43.32638" lon="2.42754">
        <ele>305.4</ele>
        <time>2023-05-28T05:57:17Z</time>
      </trkpt>
      <trkpt lat="43.32639" lon="2.42754">
        <ele>305.6</ele>
        <time>2023-05-28T05:57:18Z</time>
      </trkpt>
      <trkpt lat="43.32641" lon="2.42754">
        <ele>305.8</ele>
        <time>2023-05-28T05:57:19Z</time>
      </trkpt>
      <trkpt lat="43.32642" lon="2.42754">
        <ele>305.9</ele>
        <time>2023-05-28T05:57:20Z</time>
      </trkpt>
      <trkpt lat="43.32643" lon="2.42754">
        <ele>306</ele>
        <time>2023-05-28T05:57:21Z</time>
      </trkpt>
      <trkpt lat="43.32644" lon="2.42754">
        <ele>306.1</ele>
        <time>2023-05-28T05:57:22Z</time>
      </trkpt>
      <trkpt lat="43.32645" lon="2.42754">
        <ele>306.3</ele>
        <time>2023-05-28T05:57:23Z</time>
      </trkpt>
      <trkpt lat="43.32645" lon="2.42754">
        <ele>306.4</ele>
        <time>2023-05-28T05:57:24Z</time>
      </trkpt>
      <trkpt lat="43.32646" lon="2.42755">
        <ele>306.5</ele>
        <time>2023-05-28T05:57:25Z</time>
      </trkpt>
      <trkpt lat="43.32648" lon="2.42756">
        <ele>306.8</ele>
        <time>2023-05-28T05:57:26Z</time>
      </trkpt>
      <trkpt lat="43.32649" lon="2.42758">
        <ele>307</ele>
        <time>2023-05-28T05:57:27Z</time>
      </trkpt>
      <trkpt lat="43.3265" lon="2.42759">
        <ele>307.2</ele>
        <time>2023-05-28T05:57:28Z</time>
      </trkpt>
      <trkpt lat="43.32651" lon="2.4276">
        <ele>307.4</ele>
        <time>2023-05-28T05:57:29Z</time>
      </trkpt>
      <trkpt lat="43.32652" lon="2.42761">
        <ele>307.6</ele>
        <time>2023-05-28T05:57:30Z</time>
      </trkpt>
      <trkpt lat="43.32653" lon="2.42762">
        <ele>307.7</ele>
        <time>2023-05-28T05:57:31Z</time>
      </trkpt>
      <trkpt lat="43.32654" lon="2.42763">
        <ele>307.9</ele>
        <time>2023-05-28T05:57:32Z</time>
      </trkpt>
      <trkpt lat="43.32655" lon="2.42763">
        <ele>308.1</ele>
        <time>2023-05-28T05:57:33Z</time>
      </trkpt>
      <trkpt lat="43.32656" lon="2.42763">
        <ele>308.3</ele>
        <time>2023-05-28T05:57:34Z</time>
      </trkpt>
      <trkpt lat="43.32658" lon="2.42763">
        <ele>308.5</ele>
        <time>2023-05-28T05:57:35Z</time>
      </trkpt>
      <trkpt lat="43.32658" lon="2.42763">
        <ele>308.6</ele>
        <time>2023-05-28T05:57:36Z</time>
      </trkpt>
      <trkpt lat="43.32659" lon="2.42763">
        <ele>308.7</ele>
        <time>2023-05-28T05:57:37Z</time>
      </trkpt>
      <trkpt lat="43.32661" lon="2.42763">
        <ele>309</ele>
        <time>2023-05-28T05:57:38Z</time>
      </trkpt>
      <trkpt lat="43.32662" lon="2.42762">
        <ele>309.2</ele>
        <time>2023-05-28T05:57:39Z</time>
      </trkpt>
      <trkpt lat="43.32665" lon="2.4276">
        <ele>309.7</ele>
        <time>2023-05-28T05:57:40Z</time>
      </trkpt>
      <trkpt lat="43.32665" lon="2.42759">
        <ele>309.8</ele>
        <time>2023-05-28T05:57:41Z</time>
      </trkpt>
      <trkpt lat="43.32667" lon="2.42755">
        <ele>310.2</ele>
        <time>2023-05-28T05:57:42Z</time>
      </trkpt>
      <trkpt lat="43.32668" lon="2.42754">
        <ele>310.4</ele>
        <time>2023-05-28T05:57:43Z</time>
      </trkpt>
      <trkpt lat="43.3267" lon="2.42751">
        <ele>310.8</ele>
        <time>2023-05-28T05:57:44Z</time>
      </trkpt>
      <trkpt lat="43.3267" lon="2.4275">
        <ele>310.9</ele>
        <time>2023-05-28T05:57:45Z</time>
      </trkpt>
      <trkpt lat="43.32671" lon="2.42748">
        <ele>311.1</ele>
        <time>2023-05-28T05:57:46Z</time>
      </trkpt>
      <trkpt lat="43.32672" lon="2.42747">
        <ele>311.3</ele>
        <time>2023-05-28T05:57:47Z</time>
      </trkpt>
      <trkpt lat="43.32674" lon="2.42746">
        <ele>311.5</ele>
        <time>2023-05-28T05:57:48Z</time>
      </trkpt>
      <trkpt lat="43.32675" lon="2.42745">
        <ele>311.7</ele>
        <time>2023-05-28T05:57:49Z</time>
      </trkpt>
      <trkpt lat="43.32677" lon="2.42744">
        <ele>311.9</ele>
        <time>2023-05-28T05:57:50Z</time>
      </trkpt>
      <trkpt lat="43.32679" lon="2.42744">
        <ele>312.1</ele>
        <time>2023-05-28T05:57:51Z</time>
      </trkpt>
      <trkpt lat="43.32681" lon="2.42743">
        <ele>312.4</ele>
        <time>2023-05-28T05:57:52Z</time>
      </trkpt>
      <trkpt lat="43.32682" lon="2.42743">
        <ele>312.5</ele>
        <time>2023-05-28T05:57:53Z</time>
      </trkpt>
      <trkpt lat="43.32684" lon="2.42742">
        <ele>312.7</ele>
        <time>2023-05-28T05:57:54Z</time>
      </trkpt>
      <trkpt lat="43.32686" lon="2.42742">
        <ele>312.8</ele>
        <time>2023-05-28T05:57:55Z</time>
      </trkpt>
      <trkpt lat="43.32687" lon="2.42741">
        <ele>313</ele>
        <time>2023-05-28T05:57:56Z</time>
      </trkpt>
      <trkpt lat="43.32688" lon="2.42741">
        <ele>313.1</ele>
        <time>2023-05-28T05:57:57Z</time>
      </trkpt>
      <trkpt lat="43.3269" lon="2.4274">
        <ele>313.3</ele>
        <time>2023-05-28T05:57:58Z</time>
      </trkpt>
      <trkpt lat="43.32691" lon="2.42739">
        <ele>313.4</ele>
        <time>2023-05-28T05:57:59Z</time>
      </trkpt>
      <trkpt lat="43.32693" lon="2.42739">
        <ele>313.6</ele>
        <time>2023-05-28T05:58:00Z</time>
      </trkpt>
      <trkpt lat="43.32695" lon="2.42738">
        <ele>313.7</ele>
        <time>2023-05-28T05:58:01Z</time>
      </trkpt>
      <trkpt lat="43.32696" lon="2.42737">
        <ele>313.9</ele>
        <time>2023-05-28T05:58:02Z</time>
      </trkpt>
      <trkpt lat="43.32697" lon="2.42736">
        <ele>314</ele>
        <time>2023-05-28T05:58:03Z</time>
      </trkpt>
      <trkpt lat="43.32698" lon="2.42736">
        <ele>314.1</ele>
        <time>2023-05-28T05:58:04Z</time>
      </trkpt>
      <trkpt lat="43.327" lon="2.42735">
        <ele>314.3</ele>
        <time>2023-05-28T05:58:05Z</time>
      </trkpt>
      <trkpt lat="43.32701" lon="2.42734">
        <ele>314.4</ele>
        <time>2023-05-28T05:58:06Z</time>
      </trkpt>
      <trkpt lat="43.32703" lon="2.42734">
        <ele>314.6</ele>
        <time>2023-05-28T05:58:07Z</time>
      </trkpt>
      <trkpt lat="43.32704" lon="2.42733">
        <ele>314.7</ele>
        <time>2023-05-28T05:58:08Z</time>
      </trkpt>
      <trkpt lat="43.32706" lon="2.42733">
        <ele>314.9</ele>
        <time>2023-05-28T05:58:09Z</time>
      </trkpt>
      <trkpt lat="43.32707" lon="2.42732">
        <ele>315.1</ele>
        <time>2023-05-28T05:58:10Z</time>
      </trkpt>
      <trkpt lat="43.32709" lon="2.42732">
        <ele>315.2</ele>
        <time>2023-05-28T05:58:11Z</time>
      </trkpt>
      <trkpt lat="43.3271" lon="2.42732">
        <ele>315.4</ele>
        <time>2023-05-28T05:58:12Z</time>
      </trkpt>
      <trkpt lat="43.32712" lon="2.42731">
        <ele>315.5</ele>
        <time>2023-05-28T05:58:13Z</time>
      </trkpt>
      <trkpt lat="43.32713" lon="2.42731">
        <ele>315.7</ele>
        <time>2023-05-28T05:58:14Z</time>
      </trkpt>
      <trkpt lat="43.32715" lon="2.42731">
        <ele>315.9</ele>
        <time>2023-05-28T05:58:15Z</time>
      </trkpt>
      <trkpt lat="43.32717" lon="2.42731">
        <ele>316.1</ele>
        <time>2023-05-28T05:58:16Z</time>
      </trkpt>
      <trkpt lat="43.32718" lon="2.42731">
        <ele>316.3</ele>
        <time>2023-05-28T05:58:17Z</time>
      </trkpt>
      <trkpt lat="43.3272" lon="2.42731">
        <ele>316.4</ele>
        <time>2023-05-28T05:58:18Z</time>
      </trkpt>
      <trkpt lat="43.32721" lon="2.42732">
        <ele>316.6</ele>
        <time>2023-05-28T05:58:19Z</time>
      </trkpt>
      <trkpt lat="43.32723" lon="2.42731">
        <ele>316.8</ele>
        <time>2023-05-28T05:58:20Z</time>
      </trkpt>
      <trkpt lat="43.32725" lon="2.42731">
        <ele>317</ele>
        <time>2023-05-28T05:58:21Z</time>
      </trkpt>
      <trkpt lat="43.32726" lon="2.4273">
        <ele>317.3</ele>
        <time>2023-05-28T05:58:22Z</time>
      </trkpt>
      <trkpt lat="43.32728" lon="2.4273">
        <ele>317.5</ele>
        <time>2023-05-28T05:58:23Z</time>
      </trkpt>
      <trkpt lat="43.32729" lon="2.42728">
        <ele>317.7</ele>
        <time>2023-05-28T05:58:24Z</time>
      </trkpt>
      <trkpt lat="43.3273" lon="2.42726">
        <ele>317.9</ele>
        <time>2023-05-28T05:58:25Z</time>
      </trkpt>
      <trkpt lat="43.32731" lon="2.42725">
        <ele>318.1</ele>
        <time>2023-05-28T05:58:26Z</time>
      </trkpt>
      <trkpt lat="43.32732" lon="2.42723">
        <ele>318.3</ele>
        <time>2023-05-28T05:58:27Z</time>
      </trkpt>
      <trkpt lat="43.32733" lon="2.42721">
        <ele>318.5</ele>
        <time>2023-05-28T05:58:28Z</time>
      </trkpt>
      <trkpt lat="43.32734" lon="2.4272">
        <ele>318.6</ele>
        <time>2023-05-28T05:58:29Z</time>
      </trkpt>
      <trkpt lat="43.32735" lon="2.42719">
        <ele>318.7</ele>
        <time>2023-05-28T05:58:30Z</time>
      </trkpt>
      <trkpt lat="43.32736" lon="2.42717">
        <ele>318.9</ele>
        <time>2023-05-28T05:58:31Z</time>
      </trkpt>
      <trkpt lat="43.32737" lon="2.42716">
        <ele>319.1</ele>
        <time>2023-05-28T05:58:32Z</time>
      </trkpt>
      <trkpt lat="43.32739" lon="2.42715">
        <ele>319</ele>
        <time>2023-05-28T05:58:33Z</time>
      </trkpt>
      <trkpt lat="43.3274" lon="2.42714">
        <ele>319.5</ele>
        <time>2023-05-28T05:58:34Z</time>
      </trkpt>
      <trkpt lat="43.32741" lon="2.42714">
        <ele>319.4</ele>
        <time>2023-05-28T05:58:35Z</time>
      </trkpt>
      <trkpt lat="43.32743" lon="2.42714">
        <ele>319.8</ele>
        <time>2023-05-28T05:58:36Z</time>
      </trkpt>
      <trkpt lat="43.32745" lon="2.42716">
        <ele>319.7</ele>
        <time>2023-05-28T05:58:37Z</time>
      </trkpt>
      <trkpt lat="43.32746" lon="2.42717">
        <ele>320.1</ele>
        <time>2023-05-28T05:58:38Z</time>
      </trkpt>
      <trkpt lat="43.32747" lon="2.42719">
        <ele>320.1</ele>
        <time>2023-05-28T05:58:39Z</time>
      </trkpt>
      <trkpt lat="43.32748" lon="2.4272">
        <ele>320</ele>
        <time>2023-05-28T05:58:40Z</time>
      </trkpt>
      <trkpt lat="43.3275" lon="2.42722">
        <ele>320.3</ele>
        <time>2023-05-28T05:58:41Z</time>
      </trkpt>
      <trkpt lat="43.32751" lon="2.42724">
        <ele>320.3</ele>
        <time>2023-05-28T05:58:42Z</time>
      </trkpt>
      <trkpt lat="43.32752" lon="2.42725">
        <ele>320.3</ele>
        <time>2023-05-28T05:58:43Z</time>
      </trkpt>
      <trkpt lat="43.32753" lon="2.42726">
        <ele>320.5</ele>
        <time>2023-05-28T05:58:44Z</time>
      </trkpt>
      <trkpt lat="43.32754" lon="2.42727">
        <ele>320.5</ele>
        <time>2023-05-28T05:58:45Z</time>
      </trkpt>
      <trkpt lat="43.32756" lon="2.42728">
        <ele>320.7</ele>
        <time>2023-05-28T05:58:46Z</time>
      </trkpt>
      <trkpt lat="43.32757" lon="2.42729">
        <ele>320.7</ele>
        <time>2023-05-28T05:58:47Z</time>
      </trkpt>
      <trkpt lat="43.32758" lon="2.4273">
        <ele>320.9</ele>
        <time>2023-05-28T05:58:48Z</time>
      </trkpt>
      <trkpt lat="43.3276" lon="2.42733">
        <ele>320.9</ele>
        <time>2023-05-28T05:58:49Z</time>
      </trkpt>
      <trkpt lat="43.3276" lon="2.42735">
        <ele>320.9</ele>
        <time>2023-05-28T05:58:50Z</time>
      </trkpt>
      <trkpt lat="43.32761" lon="2.42739">
        <ele>321</ele>
        <time>2023-05-28T05:58:51Z</time>
      </trkpt>
      <trkpt lat="43.32761" lon="2.4274">
        <ele>320.9</ele>
        <time>2023-05-28T05:58:52Z</time>
      </trkpt>
      <trkpt lat="43.32762" lon="2.42744">
        <ele>321.3</ele>
        <time>2023-05-28T05:58:53Z</time>
      </trkpt>
      <trkpt lat="43.32763" lon="2.42745">
        <ele>321.2</ele>
        <time>2023-05-28T05:58:54Z</time>
      </trkpt>
      <trkpt lat="43.32765" lon="2.42749">
        <ele>321.6</ele>
        <time>2023-05-28T05:58:55Z</time>
      </trkpt>
      <trkpt lat="43.32765" lon="2.4275">
        <ele>321.5</ele>
        <time>2023-05-28T05:58:56Z</time>
      </trkpt>
      <trkpt lat="43.32768" lon="2.42752">
        <ele>321.8</ele>
        <time>2023-05-28T05:58:57Z</time>
      </trkpt>
      <trkpt lat="43.32769" lon="2.42753">
        <ele>321.8</ele>
        <time>2023-05-28T05:58:58Z</time>
      </trkpt>
      <trkpt lat="43.32771" lon="2.42755">
        <ele>322.1</ele>
        <time>2023-05-28T05:58:59Z</time>
      </trkpt>
      <trkpt lat="43.32772" lon="2.42756">
        <ele>322</ele>
        <time>2023-05-28T05:59:00Z</time>
      </trkpt>
      <trkpt lat="43.32773" lon="2.42757">
        <ele>322</ele>
        <time>2023-05-28T05:59:01Z</time>
      </trkpt>
      <trkpt lat="43.32774" lon="2.42759">
        <ele>322</ele>
        <time>2023-05-28T05:59:02Z</time>
      </trkpt>
      <trkpt lat="43.32777" lon="2.42761">
        <ele>322.2</ele>
        <time>2023-05-28T05:59:03Z</time>
      </trkpt>
      <trkpt lat="43.32778" lon="2.42762">
        <ele>322.1</ele>
        <time>2023-05-28T05:59:04Z</time>
      </trkpt>
      <trkpt lat="43.3278" lon="2.42763">
        <ele>322</ele>
        <time>2023-05-28T05:59:05Z</time>
      </trkpt>
      <trkpt lat="43.32781" lon="2.42763">
        <ele>321.9</ele>
        <time>2023-05-28T05:59:06Z</time>
      </trkpt>
      <trkpt lat="43.32783" lon="2.42763">
        <ele>321.9</ele>
        <time>2023-05-28T05:59:07Z</time>
      </trkpt>
      <trkpt lat="43.32785" lon="2.42764">
        <ele>322</ele>
        <time>2023-05-28T05:59:08Z</time>
      </trkpt>
      <trkpt lat="43.32786" lon="2.42766">
        <ele>321.9</ele>
        <time>2023-05-28T05:59:09Z</time>
      </trkpt>
      <trkpt lat="43.32787" lon="2.42767">
        <ele>321.6</ele>
        <time>2023-05-28T05:59:10Z</time>
      </trkpt>
      <trkpt lat="43.3279" lon="2.4277">
        <ele>321.6</ele>
        <time>2023-05-28T05:59:11Z</time>
      </trkpt>
      <trkpt lat="43.3279" lon="2.42771">
        <ele>321.5</ele>
        <time>2023-05-28T05:59:12Z</time>
      </trkpt>
      <trkpt lat="43.32792" lon="2.42772">
        <ele>321.5</ele>
        <time>2023-05-28T05:59:13Z</time>
      </trkpt>
      <trkpt lat="43.32794" lon="2.42773">
        <ele>321.4</ele>
        <time>2023-05-28T05:59:14Z</time>
      </trkpt>
      <trkpt lat="43.32796" lon="2.42774">
        <ele>320.9</ele>
        <time>2023-05-28T05:59:15Z</time>
      </trkpt>
      <trkpt lat="43.32797" lon="2.42774">
        <ele>320.9</ele>
        <time>2023-05-28T05:59:16Z</time>
      </trkpt>
      <trkpt lat="43.328" lon="2.42777">
        <ele>320.7</ele>
        <time>2023-05-28T05:59:17Z</time>
      </trkpt>
      <trkpt lat="43.32801" lon="2.42777">
        <ele>320.7</ele>
        <time>2023-05-28T05:59:18Z</time>
      </trkpt>
      <trkpt lat="43.32802" lon="2.42778">
        <ele>320.2</ele>
        <time>2023-05-28T05:59:19Z</time>
      </trkpt>
      <trkpt lat="43.32804" lon="2.4278">
        <ele>320.2</ele>
        <time>2023-05-28T05:59:20Z</time>
      </trkpt>
      <trkpt lat="43.32807" lon="2.42781">
        <ele>319.8</ele>
        <time>2023-05-28T05:59:21Z</time>
      </trkpt>
      <trkpt lat="43.32808" lon="2.42781">
        <ele>319.7</ele>
        <time>2023-05-28T05:59:22Z</time>
      </trkpt>
      <trkpt lat="43.32811" lon="2.42783">
        <ele>319.6</ele>
        <time>2023-05-28T05:59:23Z</time>
      </trkpt>
      <trkpt lat="43.32812" lon="2.42784">
        <ele>319.2</ele>
        <time>2023-05-28T05:59:24Z</time>
      </trkpt>
      <trkpt lat="43.32814" lon="2.42786">
        <ele>319.5</ele>
        <time>2023-05-28T05:59:25Z</time>
      </trkpt>
      <trkpt lat="43.32815" lon="2.42787">
        <ele>319.2</ele>
        <time>2023-05-28T05:59:26Z</time>
      </trkpt>
      <trkpt lat="43.32818" lon="2.42788">
        <ele>318.8</ele>
        <time>2023-05-28T05:59:27Z</time>
      </trkpt>
      <trkpt lat="43.32819" lon="2.42789">
        <ele>318.8</ele>
        <time>2023-05-28T05:59:28Z</time>
      </trkpt>
      <trkpt lat="43.32822" lon="2.42789">
        <ele>318.5</ele>
        <time>2023-05-28T05:59:29Z</time>
      </trkpt>
      <trkpt lat="43.32823" lon="2.42789">
        <ele>318.9</ele>
        <time>2023-05-28T05:59:30Z</time>
      </trkpt>
      <trkpt lat="43.32826" lon="2.42791">
        <ele>318.8</ele>
        <time>2023-05-28T05:59:31Z</time>
      </trkpt>
      <trkpt lat="43.32827" lon="2.42791">
        <ele>318.7</ele>
        <time>2023-05-28T05:59:32Z</time>
      </trkpt>
      <trkpt lat="43.32828" lon="2.42791">
        <ele>318.6</ele>
        <time>2023-05-28T05:59:33Z</time>
      </trkpt>
      <trkpt lat="43.3283" lon="2.42792">
        <ele>318.6</ele>
        <time>2023-05-28T05:59:34Z</time>
      </trkpt>
      <trkpt lat="43.32833" lon="2.42793">
        <ele>318.7</ele>
        <time>2023-05-28T05:59:35Z</time>
      </trkpt>
      <trkpt lat="43.32834" lon="2.42794">
        <ele>319.1</ele>
        <time>2023-05-28T05:59:36Z</time>
      </trkpt>
      <trkpt lat="43.32836" lon="2.42794">
        <ele>319.1</ele>
        <time>2023-05-28T05:59:37Z</time>
      </trkpt>
      <trkpt lat="43.32838" lon="2.42795">
        <ele>319.2</ele>
        <time>2023-05-28T05:59:38Z</time>
      </trkpt>
      <trkpt lat="43.32839" lon="2.42796">
        <ele>319.2</ele>
        <time>2023-05-28T05:59:39Z</time>
      </trkpt>
      <trkpt lat="43.3284" lon="2.42798">
        <ele>319.2</ele>
        <time>2023-05-28T05:59:40Z</time>
      </trkpt>
      <trkpt lat="43.32841" lon="2.42802">
        <ele>319.2</ele>
        <time>2023-05-28T05:59:41Z</time>
      </trkpt>
      <trkpt lat="43.32841" lon="2.42803">
        <ele>319.2</ele>
        <time>2023-05-28T05:59:42Z</time>
      </trkpt>
      <trkpt lat="43.32842" lon="2.42808">
        <ele>319.3</ele>
        <time>2023-05-28T05:59:43Z</time>
      </trkpt>
      <trkpt lat="43.32842" lon="2.42809">
        <ele>319.3</ele>
        <time>2023-05-28T05:59:44Z</time>
      </trkpt>
      <trkpt lat="43.32843" lon="2.42813">
        <ele>319.3</ele>
        <time>2023-05-28T05:59:45Z</time>
      </trkpt>
      <trkpt lat="43.32844" lon="2.42814">
        <ele>319.3</ele>
        <time>2023-05-28T05:59:46Z</time>
      </trkpt>
      <trkpt lat="43.32846" lon="2.42819">
        <ele>319.4</ele>
        <time>2023-05-28T05:59:47Z</time>
      </trkpt>
      <trkpt lat="43.32847" lon="2.4282">
        <ele>319.4</ele>
        <time>2023-05-28T05:59:48Z</time>
      </trkpt>
      <trkpt lat="43.32849" lon="2.42824">
        <ele>319.4</ele>
        <time>2023-05-28T05:59:49Z</time>
      </trkpt>
      <trkpt lat="43.3285" lon="2.42825">
        <ele>319.4</ele>
        <time>2023-05-28T05:59:50Z</time>
      </trkpt>
      <trkpt lat="43.32851" lon="2.42827">
        <ele>319.4</ele>
        <time>2023-05-28T05:59:51Z</time>
      </trkpt>
      <trkpt lat="43.32852" lon="2.42829">
        <ele>319.5</ele>
        <time>2023-05-28T05:59:52Z</time>
      </trkpt>
      <trkpt lat="43.32853" lon="2.42833">
        <ele>319.5</ele>
        <time>2023-05-28T05:59:53Z</time>
      </trkpt>
      <trkpt lat="43.32853" lon="2.42835">
        <ele>319.5</ele>
        <time>2023-05-28T05:59:54Z</time>
      </trkpt>
      <trkpt lat="43.32853" lon="2.42839">
        <ele>319.5</ele>
        <time>2023-05-28T05:59:55Z</time>
      </trkpt>
      <trkpt lat="43.32853" lon="2.42841">
        <ele>319.5</ele>
        <time>2023-05-28T05:59:56Z</time>
      </trkpt>
      <trkpt lat="43.32853" lon="2.42843">
        <ele>319.6</ele>
        <time>2023-05-28T05:59:57Z</time>
      </trkpt>
      <trkpt lat="43.32853" lon="2.42844">
        <ele>319.6</ele>
        <time>2023-05-28T05:59:58Z</time>
      </trkpt>
      <trkpt lat="43.32855" lon="2.42848">
        <ele>319.6</ele>
        <time>2023-05-28T05:59:59Z</time>
      </trkpt>
      <trkpt lat="43.32857" lon="2.42851">
        <ele>319.6</ele>
        <time>2023-05-28T06:00:00Z</time>
      </trkpt>
      <trkpt lat="43.32858" lon="2.42853">
        <ele>319.7</ele>
        <time>2023-05-28T06:00:01Z</time>
      </trkpt>
      <trkpt lat="43.32859" lon="2.42855">
        <ele>319.7</ele>
        <time>2023-05-28T06:00:02Z</time>
      </trkpt>
      <trkpt lat="43.32859" lon="2.42857">
        <ele>319.7</ele>
        <time>2023-05-28T06:00:03Z</time>
      </trkpt>
      <trkpt lat="43.32859" lon="2.42858">
        <ele>319.7</ele>
        <time>2023-05-28T06:00:04Z</time>
      </trkpt>
      <trkpt lat="43.3286" lon="2.42863">
        <ele>319.7</ele>
        <time>2023-05-28T06:00:05Z</time>
      </trkpt>
      <trkpt lat="43.3286" lon="2.42864">
        <ele>319.7</ele>
        <time>2023-05-28T06:00:06Z</time>
      </trkpt>
      <trkpt lat="43.32861" lon="2.4287">
        <ele>319.8</ele>
        <time>2023-05-28T06:00:07Z</time>
      </trkpt>
      <trkpt lat="43.32861" lon="2.42871">
        <ele>319.8</ele>
        <time>2023-05-28T06:00:08Z</time>
      </trkpt>
      <trkpt lat="43.32862" lon="2.42875">
        <ele>319.8</ele>
        <time>2023-05-28T06:00:09Z</time>
      </trkpt>
      <trkpt lat="43.32863" lon="2.4288">
        <ele>319.8</ele>
        <time>2023-05-28T06:00:10Z</time>
      </trkpt>
      <trkpt lat="43.32863" lon="2.42882">
        <ele>319.9</ele>
        <time>2023-05-28T06:00:11Z</time>
      </trkpt>
      <trkpt lat="43.32863" lon="2.42886">
        <ele>319.9</ele>
        <time>2023-05-28T06:00:12Z</time>
      </trkpt>
      <trkpt lat="43.32863" lon="2.42887">
        <ele>319.9</ele>
        <time>2023-05-28T06:00:13Z</time>
      </trkpt>
      <trkpt lat="43.32863" lon="2.42892">
        <ele>319.9</ele>
        <time>2023-05-28T06:00:14Z</time>
      </trkpt>
      <trkpt lat="43.32863" lon="2.42893">
        <ele>319.9</ele>
        <time>2023-05-28T06:00:15Z</time>
      </trkpt>
      <trkpt lat="43.32863" lon="2.42899">
        <ele>320</ele>
        <time>2023-05-28T06:00:16Z</time>
      </trkpt>
      <trkpt lat="43.32863" lon="2.429">
        <ele>320</ele>
        <time>2023-05-28T06:00:17Z</time>
      </trkpt>
      <trkpt lat="43.32863" lon="2.42905">
        <ele>320</ele>
        <time>2023-05-28T06:00:18Z</time>
      </trkpt>
      <trkpt lat="43.32863" lon="2.42907">
        <ele>320</ele>
        <time>2023-05-28T06:00:19Z</time>
      </trkpt>
      <trkpt lat="43.32864" lon="2.42912">
        <ele>320.1</ele>
        <time>2023-05-28T06:00:20Z</time>
      </trkpt>
      <trkpt lat="43.32864" lon="2.42913">
        <ele>320.1</ele>
        <time>2023-05-28T06:00:21Z</time>
      </trkpt>
      <trkpt lat="43.32864" lon="2.42919">
        <ele>320.1</ele>
        <time>2023-05-28T06:00:22Z</time>
      </trkpt>
      <trkpt lat="43.32864" lon="2.42921">
        <ele>320.1</ele>
        <time>2023-05-28T06:00:23Z</time>
      </trkpt>
      <trkpt lat="43.32865" lon="2.42924">
        <ele>320.2</ele>
        <time>2023-05-28T06:00:24Z</time>
      </trkpt>
      <trkpt lat="43.32865" lon="2.4293">
        <ele>320.2</ele>
        <time>2023-05-28T06:00:25Z</time>
      </trkpt>
      <trkpt lat="43.32865" lon="2.42931">
        <ele>320.2</ele>
        <time>2023-05-28T06:00:26Z</time>
      </trkpt>
      <trkpt lat="43.32864" lon="2.42936">
        <ele>320.2</ele>
        <time>2023-05-28T06:00:27Z</time>
      </trkpt>
      <trkpt lat="43.32864" lon="2.42937">
        <ele>320.3</ele>
        <time>2023-05-28T06:00:28Z</time>
      </trkpt>
      <trkpt lat="43.32863" lon="2.42941">
        <ele>320.3</ele>
        <time>2023-05-28T06:00:29Z</time>
      </trkpt>
      <trkpt lat="43.32862" lon="2.42943">
        <ele>320.3</ele>
        <time>2023-05-28T06:00:30Z</time>
      </trkpt>
      <trkpt lat="43.32861" lon="2.42946">
        <ele>320.3</ele>
        <time>2023-05-28T06:00:31Z</time>
      </trkpt>
      <trkpt lat="43.3286" lon="2.42947">
        <ele>320.3</ele>
        <time>2023-05-28T06:00:32Z</time>
      </trkpt>
      <trkpt lat="43.32858" lon="2.4295">
        <ele>320.4</ele>
        <time>2023-05-28T06:00:33Z</time>
      </trkpt>
      <trkpt lat="43.32857" lon="2.42951">
        <ele>320.4</ele>
        <time>2023-05-28T06:00:34Z</time>
      </trkpt>
      <trkpt lat="43.32855" lon="2.42955">
        <ele>320.4</ele>
        <time>2023-05-28T06:00:35Z</time>
      </trkpt>
      <trkpt lat="43.32855" lon="2.42956">
        <ele>320.4</ele>
        <time>2023-05-28T06:00:36Z</time>
      </trkpt>
      <trkpt lat="43.32854" lon="2.42958">
        <ele>320.4</ele>
        <time>2023-05-28T06:00:37Z</time>
      </trkpt>
      <trkpt lat="43.32854" lon="2.4296">
        <ele>320.4</ele>
        <time>2023-05-28T06:00:38Z</time>
      </trkpt>
      <trkpt lat="43.32853" lon="2.42962">
        <ele>320.5</ele>
        <time>2023-05-28T06:00:39Z</time>
      </trkpt>
      <trkpt lat="43.32853" lon="2.42964">
        <ele>320.5</ele>
        <time>2023-05-28T06:00:40Z</time>
      </trkpt>
      <trkpt lat="43.32853" lon="2.42967">
        <ele>320.5</ele>
        <time>2023-05-28T06:00:41Z</time>
      </trkpt>
      <trkpt lat="43.32854" lon="2.42969">
        <ele>320.5</ele>
        <time>2023-05-28T06:00:42Z</time>
      </trkpt>
      <trkpt lat="43.32853" lon="2.42972">
        <ele>320.5</ele>
        <time>2023-05-28T06:00:43Z</time>
      </trkpt>
      <trkpt lat="43.32853" lon="2.42974">
        <ele>320.5</ele>
        <time>2023-05-28T06:00:44Z</time>
      </trkpt>
      <trkpt lat="43.32851" lon="2.42976">
        <ele>320.6</ele>
        <time>2023-05-28T06:00:45Z</time>
      </trkpt>
      <trkpt lat="43.32851" lon="2.42977">
        <ele>320.6</ele>
        <time>2023-05-28T06:00:46Z</time>
      </trkpt>
      <trkpt lat="43.3285" lon="2.42978">
        <ele>320.6</ele>
        <time>2023-05-28T06:00:47Z</time>
      </trkpt>
      <trkpt lat="43.32848" lon="2.42982">
        <ele>320.6</ele>
        <time>2023-05-28T06:00:48Z</time>
      </trkpt>
      <trkpt lat="43.32847" lon="2.42983">
        <ele>320.6</ele>
        <time>2023-05-28T06:00:49Z</time>
      </trkpt>
      <trkpt lat="43.32846" lon="2.42987">
        <ele>320.7</ele>
        <time>2023-05-28T06:00:50Z</time>
      </trkpt>
      <trkpt lat="43.32845" lon="2.42988">
        <ele>320.7</ele>
        <time>2023-05-28T06:00:51Z</time>
      </trkpt>
      <trkpt lat="43.32844" lon="2.42992">
        <ele>320.7</ele>
        <time>2023-05-28T06:00:52Z</time>
      </trkpt>
      <trkpt lat="43.32844" lon="2.42993">
        <ele>320.7</ele>
        <time>2023-05-28T06:00:53Z</time>
      </trkpt>
      <trkpt lat="43.32845" lon="2.42998">
        <ele>320.7</ele>
        <time>2023-05-28T06:00:54Z</time>
      </trkpt>
      <trkpt lat="43.32845" lon="2.43">
        <ele>320.8</ele>
        <time>2023-05-28T06:00:55Z</time>
      </trkpt>
      <trkpt lat="43.32846" lon="2.43003">
        <ele>320.8</ele>
        <time>2023-05-28T06:00:56Z</time>
      </trkpt>
      <trkpt lat="43.32847" lon="2.43007">
        <ele>320.8</ele>
        <time>2023-05-28T06:00:57Z</time>
      </trkpt>
      <trkpt lat="43.32848" lon="2.43011">
        <ele>320.8</ele>
        <time>2023-05-28T06:00:58Z</time>
      </trkpt>
      <trkpt lat="43.32849" lon="2.43015">
        <ele>320.9</ele>
        <time>2023-05-28T06:00:59Z</time>
      </trkpt>
      <trkpt lat="43.32849" lon="2.43019">
        <ele>320.9</ele>
        <time>2023-05-28T06:01:00Z</time>
      </trkpt>
      <trkpt lat="43.32848" lon="2.43024">
        <ele>320.9</ele>
        <time>2023-05-28T06:01:01Z</time>
      </trkpt>
      <trkpt lat="43.32848" lon="2.43028">
        <ele>321</ele>
        <time>2023-05-28T06:01:02Z</time>
      </trkpt>
      <trkpt lat="43.32848" lon="2.43031">
        <ele>321</ele>
        <time>2023-05-28T06:01:03Z</time>
      </trkpt>
      <trkpt lat="43.32848" lon="2.43037">
        <ele>321</ele>
        <time>2023-05-28T06:01:04Z</time>
      </trkpt>
      <trkpt lat="43.32848" lon="2.43039">
        <ele>321</ele>
        <time>2023-05-28T06:01:05Z</time>
      </trkpt>
      <trkpt lat="43.32847" lon="2.43043">
        <ele>321.1</ele>
        <time>2023-05-28T06:01:06Z</time>
      </trkpt>
      <trkpt lat="43.32846" lon="2.43045">
        <ele>321.1</ele>
        <time>2023-05-28T06:01:07Z</time>
      </trkpt>
      <trkpt lat="43.32844" lon="2.43048">
        <ele>321.1</ele>
        <time>2023-05-28T06:01:08Z</time>
      </trkpt>
      <trkpt lat="43.32844" lon="2.43049">
        <ele>321.1</ele>
        <time>2023-05-28T06:01:09Z</time>
      </trkpt>
      <trkpt lat="43.32843" lon="2.4305">
        <ele>321.1</ele>
        <time>2023-05-28T06:01:10Z</time>
      </trkpt>
      <trkpt lat="43.32843" lon="2.43052">
        <ele>321.1</ele>
        <time>2023-05-28T06:01:11Z</time>
      </trkpt>
      <trkpt lat="43.32842" lon="2.43053">
        <ele>321.1</ele>
        <time>2023-05-28T06:01:12Z</time>
      </trkpt>
      <trkpt lat="43.32843" lon="2.43055">
        <ele>321.3</ele>
        <time>2023-05-28T06:01:13Z</time>
      </trkpt>
      <trkpt lat="43.32843" lon="2.43055">
        <ele>321.3</ele>
        <time>2023-05-28T06:01:14Z</time>
      </trkpt>
      <trkpt lat="43.32843" lon="2.43056">
        <ele>321.4</ele>
        <time>2023-05-28T06:01:15Z</time>
      </trkpt>
      <trkpt lat="43.32843" lon="2.43057">
        <ele>321.4</ele>
        <time>2023-05-28T06:01:16Z</time>
      </trkpt>
      <trkpt lat="43.32843" lon="2.43057">
        <ele>321.4</ele>
        <time>2023-05-28T06:01:17Z</time>
      </trkpt>
      <trkpt lat="43.32843" lon="2.43058">
        <ele>321.5</ele>
        <time>2023-05-28T06:01:18Z</time>
      </trkpt>
      <trkpt lat="43.32843" lon="2.43059">
        <ele>321.5</ele>
        <time>2023-05-28T06:01:19Z</time>
      </trkpt>
      <trkpt lat="43.32843" lon="2.43061">
        <ele>321.6</ele>
        <time>2023-05-28T06:01:20Z</time>
      </trkpt>
      <trkpt lat="43.32844" lon="2.43062">
        <ele>321.8</ele>
        <time>2023-05-28T06:01:21Z</time>
      </trkpt>
      <trkpt lat="43.32845" lon="2.43066">
        <ele>322</ele>
        <time>2023-05-28T06:01:22Z</time>
      </trkpt>
      <trkpt lat="43.32845" lon="2.43067">
        <ele>322.2</ele>
        <time>2023-05-28T06:01:23Z</time>
      </trkpt>
      <trkpt lat="43.32847" lon="2.43071">
        <ele>322.5</ele>
        <time>2023-05-28T06:01:24Z</time>
      </trkpt>
      <trkpt lat="43.32847" lon="2.43073">
        <ele>322.6</ele>
        <time>2023-05-28T06:01:25Z</time>
      </trkpt>
      <trkpt lat="43.32848" lon="2.43075">
        <ele>322.7</ele>
        <time>2023-05-28T06:01:26Z</time>
      </trkpt>
      <trkpt lat="43.32848" lon="2.43076">
        <ele>322.9</ele>
        <time>2023-05-28T06:01:27Z</time>
      </trkpt>
      <trkpt lat="43.3285" lon="2.4308">
        <ele>323.2</ele>
        <time>2023-05-28T06:01:28Z</time>
      </trkpt>
      <trkpt lat="43.3285" lon="2.43082">
        <ele>323.3</ele>
        <time>2023-05-28T06:01:29Z</time>
      </trkpt>
      <trkpt lat="43.32851" lon="2.43085">
        <ele>323.6</ele>
        <time>2023-05-28T06:01:30Z</time>
      </trkpt>
      <trkpt lat="43.32852" lon="2.43087">
        <ele>323.7</ele>
        <time>2023-05-28T06:01:31Z</time>
      </trkpt>
      <trkpt lat="43.32853" lon="2.4309">
        <ele>324.1</ele>
        <time>2023-05-28T06:01:32Z</time>
      </trkpt>
      <trkpt lat="43.32854" lon="2.43091">
        <ele>324.2</ele>
        <time>2023-05-28T06:01:33Z</time>
      </trkpt>
      <trkpt lat="43.32855" lon="2.43094">
        <ele>324.4</ele>
        <time>2023-05-28T06:01:34Z</time>
      </trkpt>
      <trkpt lat="43.32855" lon="2.43096">
        <ele>324.6</ele>
        <time>2023-05-28T06:01:35Z</time>
      </trkpt>
      <trkpt lat="43.32856" lon="2.43097">
        <ele>324.7</ele>
        <time>2023-05-28T06:01:36Z</time>
      </trkpt>
      <trkpt lat="43.32857" lon="2.43098">
        <ele>324.7</ele>
        <time>2023-05-28T06:01:37Z</time>
      </trkpt>
      <trkpt lat="43.32858" lon="2.43099">
        <ele>324.5</ele>
        <time>2023-05-28T06:01:38Z</time>
      </trkpt>
      <trkpt lat="43.3286" lon="2.43099">
        <ele>324.3</ele>
        <time>2023-05-28T06:01:39Z</time>
      </trkpt>
      <trkpt lat="43.32861" lon="2.43099">
        <ele>324.2</ele>
        <time>2023-05-28T06:01:40Z</time>
      </trkpt>
      <trkpt lat="43.32862" lon="2.43099">
        <ele>324.2</ele>
        <time>2023-05-28T06:01:41Z</time>
      </trkpt>
      <trkpt lat="43.32864" lon="2.43099">
        <ele>323.9</ele>
        <time>2023-05-28T06:01:42Z</time>
      </trkpt>
      <trkpt lat="43.32865" lon="2.43099">
        <ele>323.8</ele>
        <time>2023-05-28T06:01:43Z</time>
      </trkpt>
      <trkpt lat="43.32865" lon="2.43099">
        <ele>323.7</ele>
        <time>2023-05-28T06:01:44Z</time>
      </trkpt>
      <trkpt lat="43.32867" lon="2.431">
        <ele>323.6</ele>
        <time>2023-05-28T06:01:45Z</time>
      </trkpt>
      <trkpt lat="43.32868" lon="2.43101">
        <ele>323.4</ele>
        <time>2023-05-28T06:01:46Z</time>
      </trkpt>
      <trkpt lat="43.3287" lon="2.43102">
        <ele>323.2</ele>
        <time>2023-05-28T06:01:47Z</time>
      </trkpt>
      <trkpt lat="43.32871" lon="2.43103">
        <ele>322.9</ele>
        <time>2023-05-28T06:01:48Z</time>
      </trkpt>
      <trkpt lat="43.32872" lon="2.43105">
        <ele>322.7</ele>
        <time>2023-05-28T06:01:49Z</time>
      </trkpt>
      <trkpt lat="43.32874" lon="2.43106">
        <ele>322.4</ele>
        <time>2023-05-28T06:01:50Z</time>
      </trkpt>
      <trkpt lat="43.32875" lon="2.43108">
        <ele>322.1</ele>
        <time>2023-05-28T06:01:51Z</time>
      </trkpt>
      <trkpt lat="43.32876" lon="2.4311">
        <ele>321.8</ele>
        <time>2023-05-28T06:01:52Z</time>
      </trkpt>
      <trkpt lat="43.32877" lon="2.43112">
        <ele>321.5</ele>
        <time>2023-05-28T06:01:53Z</time>
      </trkpt>
      <trkpt lat="43.32878" lon="2.43114">
        <ele>321.3</ele>
        <time>2023-05-28T06:01:54Z</time>
      </trkpt>
      <trkpt lat="43.32879" lon="2.43115">
        <ele>321</ele>
        <time>2023-05-28T06:01:55Z</time>
      </trkpt>
      <trkpt lat="43.3288" lon="2.43116">
        <ele>320.7</ele>
        <time>2023-05-28T06:01:56Z</time>
      </trkpt>
      <trkpt lat="43.32881" lon="2.43118">
        <ele>320.4</ele>
        <time>2023-05-28T06:01:57Z</time>
      </trkpt>
      <trkpt lat="43.32883" lon="2.43119">
        <ele>320.1</ele>
        <time>2023-05-28T06:01:58Z</time>
      </trkpt>
      <trkpt lat="43.32885" lon="2.4312">
        <ele>319.7</ele>
        <time>2023-05-28T06:01:59Z</time>
      </trkpt>
      <trkpt lat="43.32886" lon="2.4312">
        <ele>319.5</ele>
        <time>2023-05-28T06:02:00Z</time>
      </trkpt>
      <trkpt lat="43.32888" lon="2.43122">
        <ele>319.1</ele>
        <time>2023-05-28T06:02:01Z</time>
      </trkpt>
      <trkpt lat="43.32889" lon="2.43122">
        <ele>318.8</ele>
        <time>2023-05-28T06:02:02Z</time>
      </trkpt>
      <trkpt lat="43.32891" lon="2.43123">
        <ele>318.6</ele>
        <time>2023-05-28T06:02:03Z</time>
      </trkpt>
      <trkpt lat="43.32893" lon="2.43124">
        <ele>318.2</ele>
        <time>2023-05-28T06:02:04Z</time>
      </trkpt>
      <trkpt lat="43.32893" lon="2.43125">
        <ele>318</ele>
        <time>2023-05-28T06:02:05Z</time>
      </trkpt>
      <trkpt lat="43.32894" lon="2.43126">
        <ele>317.9</ele>
        <time>2023-05-28T06:02:06Z</time>
      </trkpt>
      <trkpt lat="43.32895" lon="2.43126">
        <ele>317.5</ele>
        <time>2023-05-28T06:02:07Z</time>
      </trkpt>
      <trkpt lat="43.32897" lon="2.43127">
        <ele>317.2</ele>
        <time>2023-05-28T06:02:08Z</time>
      </trkpt>
      <trkpt lat="43.32898" lon="2.43127">
        <ele>316.9</ele>
        <time>2023-05-28T06:02:09Z</time>
      </trkpt>
      <trkpt lat="43.32899" lon="2.43128">
        <ele>316.6</ele>
        <time>2023-05-28T06:02:10Z</time>
      </trkpt>
      <trkpt lat="43.32901" lon="2.43128">
        <ele>316.3</ele>
        <time>2023-05-28T06:02:11Z</time>
      </trkpt>
      <trkpt lat="43.32903" lon="2.43129">
        <ele>315.9</ele>
        <time>2023-05-28T06:02:12Z</time>
      </trkpt>
      <trkpt lat="43.32906" lon="2.43129">
        <ele>315.1</ele>
        <time>2023-05-28T06:02:13Z</time>
      </trkpt>
      <trkpt lat="43.32907" lon="2.4313">
        <ele>314.9</ele>
        <time>2023-05-28T06:02:14Z</time>
      </trkpt>
      <trkpt lat="43.3291" lon="2.4313">
        <ele>314.2</ele>
        <time>2023-05-28T06:02:15Z</time>
      </trkpt>
      <trkpt lat="43.32911" lon="2.4313">
        <ele>313.9</ele>
        <time>2023-05-28T06:02:16Z</time>
      </trkpt>
      <trkpt lat="43.32914" lon="2.4313">
        <ele>313.2</ele>
        <time>2023-05-28T06:02:17Z</time>
      </trkpt>
      <trkpt lat="43.32914" lon="2.43131">
        <ele>313</ele>
        <time>2023-05-28T06:02:18Z</time>
      </trkpt>
      <trkpt lat="43.32916" lon="2.43131">
        <ele>312.6</ele>
        <time>2023-05-28T06:02:19Z</time>
      </trkpt>
      <trkpt lat="43.32917" lon="2.43131">
        <ele>312.2</ele>
        <time>2023-05-28T06:02:20Z</time>
      </trkpt>
      <trkpt lat="43.32919" lon="2.43132">
        <ele>311.9</ele>
        <time>2023-05-28T06:02:21Z</time>
      </trkpt>
      <trkpt lat="43.3292" lon="2.43132">
        <ele>311.6</ele>
        <time>2023-05-28T06:02:22Z</time>
      </trkpt>
      <trkpt lat="43.32921" lon="2.43132">
        <ele>311.4</ele>
        <time>2023-05-28T06:02:23Z</time>
      </trkpt>
      <trkpt lat="43.32922" lon="2.43131">
        <ele>311.1</ele>
        <time>2023-05-28T06:02:24Z</time>
      </trkpt>
      <trkpt lat="43.32923" lon="2.43131">
        <ele>310.8</ele>
        <time>2023-05-28T06:02:25Z</time>
      </trkpt>
      <trkpt lat="43.32924" lon="2.43131">
        <ele>310.5</ele>
        <time>2023-05-28T06:02:26Z</time>
      </trkpt>
      <trkpt lat="43.32925" lon="2.43131">
        <ele>310.2</ele>
        <time>2023-05-28T06:02:27Z</time>
      </trkpt>
      <trkpt lat="43.32926" lon="2.4313">
        <ele>309.9</ele>
        <time>2023-05-28T06:02:28Z</time>
      </trkpt>
      <trkpt lat="43.32928" lon="2.43131">
        <ele>309.6</ele>
        <time>2023-05-28T06:02:29Z</time>
      </trkpt>
      <trkpt lat="43.3293" lon="2.43131">
        <ele>309.1</ele>
        <time>2023-05-28T06:02:30Z</time>
      </trkpt>
      <trkpt lat="43.32931" lon="2.43132">
        <ele>308.8</ele>
        <time>2023-05-28T06:02:31Z</time>
      </trkpt>
      <trkpt lat="43.32932" lon="2.43132">
        <ele>308.6</ele>
        <time>2023-05-28T06:02:32Z</time>
      </trkpt>
      <trkpt lat="43.32934" lon="2.43133">
        <ele>308</ele>
        <time>2023-05-28T06:02:33Z</time>
      </trkpt>
      <trkpt lat="43.32935" lon="2.43133">
        <ele>307.8</ele>
        <time>2023-05-28T06:02:34Z</time>
      </trkpt>
      <trkpt lat="43.32936" lon="2.43133">
        <ele>307.6</ele>
        <time>2023-05-28T06:02:35Z</time>
      </trkpt>
      <trkpt lat="43.32938" lon="2.43132">
        <ele>307</ele>
        <time>2023-05-28T06:02:36Z</time>
      </trkpt>
      <trkpt lat="43.32939" lon="2.43131">
        <ele>306.7</ele>
        <time>2023-05-28T06:02:37Z</time>
      </trkpt>
      <trkpt lat="43.32941" lon="2.43131">
        <ele>306.3</ele>
        <time>2023-05-28T06:02:38Z</time>
      </trkpt>
      <trkpt lat="43.32942" lon="2.4313">
        <ele>306</ele>
        <time>2023-05-28T06:02:39Z</time>
      </trkpt>
      <trkpt lat="43.32944" lon="2.4313">
        <ele>305.6</ele>
        <time>2023-05-28T06:02:40Z</time>
      </trkpt>
      <trkpt lat="43.32945" lon="2.4313">
        <ele>305.3</ele>
        <time>2023-05-28T06:02:41Z</time>
      </trkpt>
      <trkpt lat="43.32947" lon="2.4313">
        <ele>304.9</ele>
        <time>2023-05-28T06:02:42Z</time>
      </trkpt>
      <trkpt lat="43.32948" lon="2.43131">
        <ele>304.5</ele>
        <time>2023-05-28T06:02:43Z</time>
      </trkpt>
      <trkpt lat="43.3295" lon="2.43131">
        <ele>304.1</ele>
        <time>2023-05-28T06:02:44Z</time>
      </trkpt>
      <trkpt lat="43.32952" lon="2.43131">
        <ele>303.7</ele>
        <time>2023-05-28T06:02:45Z</time>
      </trkpt>
      <trkpt lat="43.32954" lon="2.43132">
        <ele>303.2</ele>
        <time>2023-05-28T06:02:46Z</time>
      </trkpt>
      <trkpt lat="43.32955" lon="2.43131">
        <ele>303</ele>
        <time>2023-05-28T06:02:47Z</time>
      </trkpt>
      <trkpt lat="43.32956" lon="2.43131">
        <ele>302.8</ele>
        <time>2023-05-28T06:02:48Z</time>
      </trkpt>
      <trkpt lat="43.32958" lon="2.43132">
        <ele>302.3</ele>
        <time>2023-05-28T06:02:49Z</time>
      </trkpt>
      <trkpt lat="43.32959" lon="2.43132">
        <ele>302.1</ele>
        <time>2023-05-28T06:02:50Z</time>
      </trkpt>
      <trkpt lat="43.3296" lon="2.43132">
        <ele>301.8</ele>
        <time>2023-05-28T06:02:51Z</time>
      </trkpt>
      <trkpt lat="43.32962" lon="2.43132">
        <ele>301.4</ele>
        <time>2023-05-28T06:02:52Z</time>
      </trkpt>
      <trkpt lat="43.32963" lon="2.43131">
        <ele>301.1</ele>
        <time>2023-05-28T06:02:53Z</time>
      </trkpt>
      <trkpt lat="43.32964" lon="2.43132">
        <ele>300.7</ele>
        <time>2023-05-28T06:02:54Z</time>
      </trkpt>
      <trkpt lat="43.32966" lon="2.43132">
        <ele>300.4</ele>
        <time>2023-05-28T06:02:55Z</time>
      </trkpt>
      <trkpt lat="43.32969" lon="2.43131">
        <ele>299.7</ele>
        <time>2023-05-28T06:02:56Z</time>
      </trkpt>
      <trkpt lat="43.3297" lon="2.43131">
        <ele>299.4</ele>
        <time>2023-05-28T06:02:57Z</time>
      </trkpt>
      <trkpt lat="43.32972" lon="2.4313">
        <ele>299</ele>
        <time>2023-05-28T06:02:58Z</time>
      </trkpt>
      <trkpt lat="43.32973" lon="2.4313">
        <ele>298.6</ele>
        <time>2023-05-28T06:02:59Z</time>
      </trkpt>
      <trkpt lat="43.32975" lon="2.4313">
        <ele>298.2</ele>
        <time>2023-05-28T06:03:00Z</time>
      </trkpt>
      <trkpt lat="43.32976" lon="2.4313">
        <ele>297.8</ele>
        <time>2023-05-28T06:03:01Z</time>
      </trkpt>
      <trkpt lat="43.32979" lon="2.4313">
        <ele>297.3</ele>
        <time>2023-05-28T06:03:02Z</time>
      </trkpt>
      <trkpt lat="43.3298" lon="2.4313">
        <ele>297</ele>
        <time>2023-05-28T06:03:03Z</time>
      </trkpt>
      <trkpt lat="43.32981" lon="2.4313">
        <ele>296.9</ele>
        <time>2023-05-28T06:03:04Z</time>
      </trkpt>
      <trkpt lat="43.32984" lon="2.4313">
        <ele>296.6</ele>
        <time>2023-05-28T06:03:05Z</time>
      </trkpt>
      <trkpt lat="43.32985" lon="2.4313">
        <ele>296.6</ele>
        <time>2023-05-28T06:03:06Z</time>
      </trkpt>
      <trkpt lat="43.32986" lon="2.4313">
        <ele>296.4</ele>
        <time>2023-05-28T06:03:07Z</time>
      </trkpt>
      <trkpt lat="43.32988" lon="2.4313">
        <ele>296.3</ele>
        <time>2023-05-28T06:03:08Z</time>
      </trkpt>
      <trkpt lat="43.32989" lon="2.43129">
        <ele>296.2</ele>
        <time>2023-05-28T06:03:09Z</time>
      </trkpt>
      <trkpt lat="43.3299" lon="2.43128">
        <ele>296.2</ele>
        <time>2023-05-28T06:03:10Z</time>
      </trkpt>
      <trkpt lat="43.32991" lon="2.43128">
        <ele>296.1</ele>
        <time>2023-05-28T06:03:11Z</time>
      </trkpt>
      <trkpt lat="43.32993" lon="2.43128">
        <ele>295.9</ele>
        <time>2023-05-28T06:03:12Z</time>
      </trkpt>
      <trkpt lat="43.32994" lon="2.43128">
        <ele>295.9</ele>
        <time>2023-05-28T06:03:13Z</time>
      </trkpt>
      <trkpt lat="43.32995" lon="2.43128">
        <ele>295.8</ele>
        <time>2023-05-28T06:03:14Z</time>
      </trkpt>
      <trkpt lat="43.32996" lon="2.43127">
        <ele>295.7</ele>
        <time>2023-05-28T06:03:15Z</time>
      </trkpt>
      <trkpt lat="43.32997" lon="2.43127">
        <ele>295.7</ele>
        <time>2023-05-28T06:03:16Z</time>
      </trkpt>
      <trkpt lat="43.32998" lon="2.43126">
        <ele>295.6</ele>
        <time>2023-05-28T06:03:17Z</time>
      </trkpt>
      <trkpt lat="43.32999" lon="2.43125">
        <ele>295.5</ele>
        <time>2023-05-28T06:03:18Z</time>
      </trkpt>
      <trkpt lat="43.33" lon="2.43125">
        <ele>295.5</ele>
        <time>2023-05-28T06:03:19Z</time>
      </trkpt>
      <trkpt lat="43.33001" lon="2.43125">
        <ele>295.5</ele>
        <time>2023-05-28T06:03:20Z</time>
      </trkpt>
      <trkpt lat="43.33002" lon="2.43124">
        <ele>295.4</ele>
        <time>2023-05-28T06:03:21Z</time>
      </trkpt>
      <trkpt lat="43.33003" lon="2.43124">
        <ele>295.4</ele>
        <time>2023-05-28T06:03:22Z</time>
      </trkpt>
      <trkpt lat="43.33004" lon="2.43124">
        <ele>295.4</ele>
        <time>2023-05-28T06:03:23Z</time>
      </trkpt>
      <trkpt lat="43.33005" lon="2.43124">
        <ele>295.4</ele>
        <time>2023-05-28T06:03:24Z</time>
      </trkpt>
      <trkpt lat="43.33006" lon="2.43124">
        <ele>295.4</ele>
        <time>2023-05-28T06:03:25Z</time>
      </trkpt>
      <trkpt lat="43.33007" lon="2.43124">
        <ele>295.4</ele>
        <time>2023-05-28T06:03:26Z</time>
      </trkpt>
      <trkpt lat="43.33008" lon="2.43124">
        <ele>295.4</ele>
        <time>2023-05-28T06:03:27Z</time>
      </trkpt>
      <trkpt lat="43.33008" lon="2.43124">
        <ele>295.4</ele>
        <time>2023-05-28T06:03:28Z</time>
      </trkpt>
      <trkpt lat="43.33009" lon="2.43124">
        <ele>295.4</ele>
        <time>2023-05-28T06:03:29Z</time>
      </trkpt>
      <trkpt lat="43.33009" lon="2.43124">
        <ele>295.4</ele>
        <time>2023-05-28T06:03:30Z</time>
      </trkpt>
      <trkpt lat="43.33009" lon="2.43124">
        <ele>295.5</ele>
        <time>2023-05-28T06:03:31Z</time>
      </trkpt>
      <trkpt lat="43.3301" lon="2.43123">
        <ele>295.5</ele>
        <time>2023-05-28T06:03:32Z</time>
      </trkpt>
      <trkpt lat="43.33011" lon="2.43122">
        <ele>295.5</ele>
        <time>2023-05-28T06:03:33Z</time>
      </trkpt>
      <trkpt lat="43.33011" lon="2.43122">
        <ele>295.6</ele>
        <time>2023-05-28T06:03:34Z</time>
      </trkpt>
      <trkpt lat="43.33011" lon="2.43121">
        <ele>295.6</ele>
        <time>2023-05-28T06:03:35Z</time>
      </trkpt>
      <trkpt lat="43.33011" lon="2.4312">
        <ele>295.7</ele>
        <time>2023-05-28T06:03:36Z</time>
      </trkpt>
      <trkpt lat="43.33012" lon="2.4312">
        <ele>295.8</ele>
        <time>2023-05-28T06:03:37Z</time>
      </trkpt>
      <trkpt lat="43.33013" lon="2.43118">
        <ele>296</ele>
        <time>2023-05-28T06:03:38Z</time>
      </trkpt>
      <trkpt lat="43.33014" lon="2.43116">
        <ele>296.1</ele>
        <time>2023-05-28T06:03:39Z</time>
      </trkpt>
      <trkpt lat="43.33014" lon="2.43115">
        <ele>296.2</ele>
        <time>2023-05-28T06:03:40Z</time>
      </trkpt>
      <trkpt lat="43.33015" lon="2.43113">
        <ele>296.5</ele>
        <time>2023-05-28T06:03:41Z</time>
      </trkpt>
      <trkpt lat="43.33016" lon="2.43111">
        <ele>296.8</ele>
        <time>2023-05-28T06:03:42Z</time>
      </trkpt>
      <trkpt lat="43.33017" lon="2.43109">
        <ele>297.2</ele>
        <time>2023-05-28T06:03:43Z</time>
      </trkpt>
      <trkpt lat="43.33018" lon="2.43109">
        <ele>297.4</ele>
        <time>2023-05-28T06:03:44Z</time>
      </trkpt>
      <trkpt lat="43.33019" lon="2.43108">
        <ele>297.6</ele>
        <time>2023-05-28T06:03:45Z</time>
      </trkpt>
      <trkpt lat="43.33021" lon="2.43107">
        <ele>298</ele>
        <time>2023-05-28T06:03:46Z</time>
      </trkpt>
      <trkpt lat="43.33022" lon="2.43107">
        <ele>298.2</ele>
        <time>2023-05-28T06:03:47Z</time>
      </trkpt>
      <trkpt lat="43.33024" lon="2.43108">
        <ele>298.6</ele>
        <time>2023-05-28T06:03:48Z</time>
      </trkpt>
      <trkpt lat="43.33026" lon="2.43108">
        <ele>299</ele>
        <time>2023-05-28T06:03:49Z</time>
      </trkpt>
      <trkpt lat="43.33029" lon="2.43109">
        <ele>299.6</ele>
        <time>2023-05-28T06:03:50Z</time>
      </trkpt>
      <trkpt lat="43.3303" lon="2.43109">
        <ele>299.9</ele>
        <time>2023-05-28T06:03:51Z</time>
      </trkpt>
      <trkpt lat="43.33034" lon="2.43109">
        <ele>300.7</ele>
        <time>2023-05-28T06:03:52Z</time>
      </trkpt>
      <trkpt lat="43.33035" lon="2.43109">
        <ele>300.9</ele>
        <time>2023-05-28T06:03:53Z</time>
      </trkpt>
      <trkpt lat="43.33037" lon="2.43109">
        <ele>301.4</ele>
        <time>2023-05-28T06:03:54Z</time>
      </trkpt>
      <trkpt lat="43.33038" lon="2.43109">
        <ele>301.6</ele>
        <time>2023-05-28T06:03:55Z</time>
      </trkpt>
      <trkpt lat="43.33039" lon="2.43109">
        <ele>301.7</ele>
        <time>2023-05-28T06:03:56Z</time>
      </trkpt>
      <trkpt lat="43.33041" lon="2.43109">
        <ele>302.1</ele>
        <time>2023-05-28T06:03:57Z</time>
      </trkpt>
      <trkpt lat="43.33042" lon="2.43108">
        <ele>302.4</ele>
        <time>2023-05-28T06:03:58Z</time>
      </trkpt>
      <trkpt lat="43.33044" lon="2.43108">
        <ele>302.8</ele>
        <time>2023-05-28T06:03:59Z</time>
      </trkpt>
      <trkpt lat="43.33045" lon="2.43108">
        <ele>303</ele>
        <time>2023-05-28T06:04:00Z</time>
      </trkpt>
      <trkpt lat="43.33047" lon="2.43109">
        <ele>303.2</ele>
        <time>2023-05-28T06:04:01Z</time>
      </trkpt>
      <trkpt lat="43.33047" lon="2.43109">
        <ele>303.3</ele>
        <time>2023-05-28T06:04:02Z</time>
      </trkpt>
      <trkpt lat="43.33048" lon="2.43109">
        <ele>303.5</ele>
        <time>2023-05-28T06:04:03Z</time>
      </trkpt>
      <trkpt lat="43.33048" lon="2.4311">
        <ele>303.6</ele>
        <time>2023-05-28T06:04:04Z</time>
      </trkpt>
      <trkpt lat="43.33049" lon="2.4311">
        <ele>303.7</ele>
        <time>2023-05-28T06:04:05Z</time>
      </trkpt>
      <trkpt lat="43.33052" lon="2.4311">
        <ele>304.2</ele>
        <time>2023-05-28T06:04:06Z</time>
      </trkpt>
      <trkpt lat="43.33055" lon="2.43109">
        <ele>304.8</ele>
        <time>2023-05-28T06:04:07Z</time>
      </trkpt>
      <trkpt lat="43.33058" lon="2.43108">
        <ele>305.3</ele>
        <time>2023-05-28T06:04:08Z</time>
      </trkpt>
      <trkpt lat="43.33061" lon="2.43107">
        <ele>305.8</ele>
        <time>2023-05-28T06:04:09Z</time>
      </trkpt>
      <trkpt lat="43.33065" lon="2.43106">
        <ele>306.5</ele>
        <time>2023-05-28T06:04:10Z</time>
      </trkpt>
      <trkpt lat="43.33066" lon="2.43106">
        <ele>306.8</ele>
        <time>2023-05-28T06:04:11Z</time>
      </trkpt>
      <trkpt lat="43.3307" lon="2.43105">
        <ele>307.5</ele>
        <time>2023-05-28T06:04:12Z</time>
      </trkpt>
      <trkpt lat="43.33071" lon="2.43105">
        <ele>307.7</ele>
        <time>2023-05-28T06:04:13Z</time>
      </trkpt>
      <trkpt lat="43.33075" lon="2.43105">
        <ele>308.3</ele>
        <time>2023-05-28T06:04:14Z</time>
      </trkpt>
      <trkpt lat="43.33075" lon="2.43105">
        <ele>308.4</ele>
        <time>2023-05-28T06:04:15Z</time>
      </trkpt>
      <trkpt lat="43.33077" lon="2.43105">
        <ele>308.6</ele>
        <time>2023-05-28T06:04:16Z</time>
      </trkpt>
      <trkpt lat="43.33077" lon="2.43105">
        <ele>308.8</ele>
        <time>2023-05-28T06:04:17Z</time>
      </trkpt>
      <trkpt lat="43.33078" lon="2.43106">
        <ele>308.9</ele>
        <time>2023-05-28T06:04:18Z</time>
      </trkpt>
      <trkpt lat="43.33078" lon="2.43107">
        <ele>309</ele>
        <time>2023-05-28T06:04:19Z</time>
      </trkpt>
      <trkpt lat="43.33077" lon="2.43108">
        <ele>309.1</ele>
        <time>2023-05-28T06:04:20Z</time>
      </trkpt>
      <trkpt lat="43.33077" lon="2.43108">
        <ele>309.2</ele>
        <time>2023-05-28T06:04:21Z</time>
      </trkpt>
      <trkpt lat="43.33077" lon="2.43108">
        <ele>309.2</ele>
        <time>2023-05-28T06:04:22Z</time>
      </trkpt>
      <trkpt lat="43.33077" lon="2.43108">
        <ele>309.3</ele>
        <time>2023-05-28T06:04:23Z</time>
      </trkpt>
      <trkpt lat="43.33077" lon="2.43108">
        <ele>309.3</ele>
        <time>2023-05-28T06:04:24Z</time>
      </trkpt>
      <trkpt lat="43.33077" lon="2.43107">
        <ele>309.3</ele>
        <time>2023-05-28T06:04:25Z</time>
      </trkpt>
      <trkpt lat="43.33077" lon="2.43107">
        <ele>309.5</ele>
        <time>2023-05-28T06:04:26Z</time>
      </trkpt>
      <trkpt lat="43.33078" lon="2.43105">
        <ele>309.7</ele>
        <time>2023-05-28T06:04:27Z</time>
      </trkpt>
      <trkpt lat="43.33079" lon="2.43105">
        <ele>309.8</ele>
        <time>2023-05-28T06:04:28Z</time>
      </trkpt>
      <trkpt lat="43.3308" lon="2.43104">
        <ele>310</ele>
        <time>2023-05-28T06:04:29Z</time>
      </trkpt>
      <trkpt lat="43.33081" lon="2.43104">
        <ele>310.2</ele>
        <time>2023-05-28T06:04:30Z</time>
      </trkpt>
      <trkpt lat="43.33083" lon="2.43104">
        <ele>310.5</ele>
        <time>2023-05-28T06:04:31Z</time>
      </trkpt>
      <trkpt lat="43.33084" lon="2.43104">
        <ele>310.7</ele>
        <time>2023-05-28T06:04:32Z</time>
      </trkpt>
      <trkpt lat="43.33086" lon="2.43104">
        <ele>311.1</ele>
        <time>2023-05-28T06:04:33Z</time>
      </trkpt>
      <trkpt lat="43.33088" lon="2.43103">
        <ele>311.5</ele>
        <time>2023-05-28T06:04:34Z</time>
      </trkpt>
      <trkpt lat="43.33089" lon="2.43102">
        <ele>311.8</ele>
        <time>2023-05-28T06:04:35Z</time>
      </trkpt>
      <trkpt lat="43.33089" lon="2.43103">
        <ele>311.9</ele>
        <time>2023-05-28T06:04:36Z</time>
      </trkpt>
      <trkpt lat="43.3309" lon="2.43103">
        <ele>312</ele>
        <time>2023-05-28T06:04:37Z</time>
      </trkpt>
      <trkpt lat="43.33091" lon="2.43103">
        <ele>312.2</ele>
        <time>2023-05-28T06:04:38Z</time>
      </trkpt>
      <trkpt lat="43.33092" lon="2.43103">
        <ele>312.4</ele>
        <time>2023-05-28T06:04:39Z</time>
      </trkpt>
      <trkpt lat="43.33094" lon="2.43103">
        <ele>312.9</ele>
        <time>2023-05-28T06:04:40Z</time>
      </trkpt>
      <trkpt lat="43.33095" lon="2.43103">
        <ele>313</ele>
        <time>2023-05-28T06:04:41Z</time>
      </trkpt>
      <trkpt lat="43.33096" lon="2.43103">
        <ele>313.2</ele>
        <time>2023-05-28T06:04:42Z</time>
      </trkpt>
      <trkpt lat="43.33097" lon="2.43103">
        <ele>313.6</ele>
        <time>2023-05-28T06:04:43Z</time>
      </trkpt>
      <trkpt lat="43.33099" lon="2.43103">
        <ele>313.8</ele>
        <time>2023-05-28T06:04:44Z</time>
      </trkpt>
      <trkpt lat="43.33101" lon="2.43102">
        <ele>314.3</ele>
        <time>2023-05-28T06:04:45Z</time>
      </trkpt>
      <trkpt lat="43.33102" lon="2.43102">
        <ele>314.6</ele>
        <time>2023-05-28T06:04:46Z</time>
      </trkpt>
      <trkpt lat="43.33103" lon="2.43102">
        <ele>314.7</ele>
        <time>2023-05-28T06:04:47Z</time>
      </trkpt>
      <trkpt lat="43.33104" lon="2.43102">
        <ele>314.7</ele>
        <time>2023-05-28T06:04:48Z</time>
      </trkpt>
      <trkpt lat="43.33106" lon="2.43103">
        <ele>314.8</ele>
        <time>2023-05-28T06:04:49Z</time>
      </trkpt>
      <trkpt lat="43.33107" lon="2.43103">
        <ele>314.9</ele>
        <time>2023-05-28T06:04:50Z</time>
      </trkpt>
      <trkpt lat="43.33109" lon="2.43103">
        <ele>315.1</ele>
        <time>2023-05-28T06:04:51Z</time>
      </trkpt>
      <trkpt lat="43.33111" lon="2.43103">
        <ele>315.2</ele>
        <time>2023-05-28T06:04:52Z</time>
      </trkpt>
      <trkpt lat="43.33112" lon="2.43103">
        <ele>315.2</ele>
        <time>2023-05-28T06:04:53Z</time>
      </trkpt>
      <trkpt lat="43.33113" lon="2.43103">
        <ele>315.3</ele>
        <time>2023-05-28T06:04:54Z</time>
      </trkpt>
      <trkpt lat="43.33114" lon="2.43103">
        <ele>315.4</ele>
        <time>2023-05-28T06:04:55Z</time>
      </trkpt>
      <trkpt lat="43.33115" lon="2.43103">
        <ele>315.4</ele>
        <time>2023-05-28T06:04:56Z</time>
      </trkpt>
      <trkpt lat="43.33117" lon="2.43103">
        <ele>315.5</ele>
        <time>2023-05-28T06:04:57Z</time>
      </trkpt>
      <trkpt lat="43.33118" lon="2.43103">
        <ele>315.6</ele>
        <time>2023-05-28T06:04:58Z</time>
      </trkpt>
      <trkpt lat="43.3312" lon="2.43103">
        <ele>315.7</ele>
        <time>2023-05-28T06:04:59Z</time>
      </trkpt>
      <trkpt lat="43.33122" lon="2.43102">
        <ele>315.7</ele>
        <time>2023-05-28T06:05:00Z</time>
      </trkpt>
      <trkpt lat="43.33123" lon="2.43101">
        <ele>315.8</ele>
        <time>2023-05-28T06:05:01Z</time>
      </trkpt>
      <trkpt lat="43.33125" lon="2.431">
        <ele>315.9</ele>
        <time>2023-05-28T06:05:02Z</time>
      </trkpt>
      <trkpt lat="43.33127" lon="2.43099">
        <ele>315.9</ele>
        <time>2023-05-28T06:05:03Z</time>
      </trkpt>
      <trkpt lat="43.33128" lon="2.43098">
        <ele>315.9</ele>
        <time>2023-05-28T06:05:04Z</time>
      </trkpt>
      <trkpt lat="43.33128" lon="2.43098">
        <ele>316</ele>
        <time>2023-05-28T06:05:05Z</time>
      </trkpt>
      <trkpt lat="43.3313" lon="2.43097">
        <ele>316</ele>
        <time>2023-05-28T06:05:06Z</time>
      </trkpt>
      <trkpt lat="43.33131" lon="2.43096">
        <ele>316</ele>
        <time>2023-05-28T06:05:07Z</time>
      </trkpt>
      <trkpt lat="43.33132" lon="2.43095">
        <ele>316</ele>
        <time>2023-05-28T06:05:08Z</time>
      </trkpt>
      <trkpt lat="43.33134" lon="2.43094">
        <ele>316</ele>
        <time>2023-05-28T06:05:09Z</time>
      </trkpt>
      <trkpt lat="43.33137" lon="2.43093">
        <ele>316</ele>
        <time>2023-05-28T06:05:10Z</time>
      </trkpt>
      <trkpt lat="43.33138" lon="2.43093">
        <ele>316.1</ele>
        <time>2023-05-28T06:05:11Z</time>
      </trkpt>
      <trkpt lat="43.33139" lon="2.43092">
        <ele>316.1</ele>
        <time>2023-05-28T06:05:12Z</time>
      </trkpt>
      <trkpt lat="43.3314" lon="2.43092">
        <ele>316.1</ele>
        <time>2023-05-28T06:05:13Z</time>
      </trkpt>
      <trkpt lat="43.33142" lon="2.43091">
        <ele>316.1</ele>
        <time>2023-05-28T06:05:14Z</time>
      </trkpt>
      <trkpt lat="43.33143" lon="2.4309">
        <ele>316.1</ele>
        <time>2023-05-28T06:05:15Z</time>
      </trkpt>
      <trkpt lat="43.33144" lon="2.4309">
        <ele>316.1</ele>
        <time>2023-05-28T06:05:16Z</time>
      </trkpt>
      <trkpt lat="43.33145" lon="2.43089">
        <ele>316.2</ele>
        <time>2023-05-28T06:05:17Z</time>
      </trkpt>
      <trkpt lat="43.33147" lon="2.43088">
        <ele>316.2</ele>
        <time>2023-05-28T06:05:18Z</time>
      </trkpt>
      <trkpt lat="43.33151" lon="2.43087">
        <ele>316.4</ele>
        <time>2023-05-28T06:05:19Z</time>
      </trkpt>
      <trkpt lat="43.33152" lon="2.43087">
        <ele>316.4</ele>
        <time>2023-05-28T06:05:20Z</time>
      </trkpt>
      <trkpt lat="43.33153" lon="2.43087">
        <ele>316.5</ele>
        <time>2023-05-28T06:05:21Z</time>
      </trkpt>
      <trkpt lat="43.33154" lon="2.43088">
        <ele>316.5</ele>
        <time>2023-05-28T06:05:22Z</time>
      </trkpt>
      <trkpt lat="43.33155" lon="2.43088">
        <ele>316.6</ele>
        <time>2023-05-28T06:05:23Z</time>
      </trkpt>
      <trkpt lat="43.33158" lon="2.43089">
        <ele>316.8</ele>
        <time>2023-05-28T06:05:24Z</time>
      </trkpt>
      <trkpt lat="43.33159" lon="2.4309">
        <ele>316.9</ele>
        <time>2023-05-28T06:05:25Z</time>
      </trkpt>
      <trkpt lat="43.33161" lon="2.4309">
        <ele>317.1</ele>
        <time>2023-05-28T06:05:26Z</time>
      </trkpt>
      <trkpt lat="43.33162" lon="2.4309">
        <ele>317.2</ele>
        <time>2023-05-28T06:05:27Z</time>
      </trkpt>
      <trkpt lat="43.33163" lon="2.4309">
        <ele>317.3</ele>
        <time>2023-05-28T06:05:28Z</time>
      </trkpt>
      <trkpt lat="43.33165" lon="2.4309">
        <ele>317.4</ele>
        <time>2023-05-28T06:05:29Z</time>
      </trkpt>
      <trkpt lat="43.33167" lon="2.4309">
        <ele>317.6</ele>
        <time>2023-05-28T06:05:30Z</time>
      </trkpt>
      <trkpt lat="43.33169" lon="2.4309">
        <ele>317.8</ele>
        <time>2023-05-28T06:05:31Z</time>
      </trkpt>
      <trkpt lat="43.3317" lon="2.4309">
        <ele>317.9</ele>
        <time>2023-05-28T06:05:32Z</time>
      </trkpt>
      <trkpt lat="43.33174" lon="2.43091">
        <ele>318.2</ele>
        <time>2023-05-28T06:05:33Z</time>
      </trkpt>
      <trkpt lat="43.33175" lon="2.43091">
        <ele>318.3</ele>
        <time>2023-05-28T06:05:34Z</time>
      </trkpt>
      <trkpt lat="43.33177" lon="2.43092">
        <ele>318.4</ele>
        <time>2023-05-28T06:05:35Z</time>
      </trkpt>
      <trkpt lat="43.33178" lon="2.43092">
        <ele>318.6</ele>
        <time>2023-05-28T06:05:36Z</time>
      </trkpt>
      <trkpt lat="43.33181" lon="2.43092">
        <ele>318.7</ele>
        <time>2023-05-28T06:05:37Z</time>
      </trkpt>
      <trkpt lat="43.33182" lon="2.43092">
        <ele>318.8</ele>
        <time>2023-05-28T06:05:38Z</time>
      </trkpt>
      <trkpt lat="43.33184" lon="2.43092">
        <ele>318.9</ele>
        <time>2023-05-28T06:05:39Z</time>
      </trkpt>
      <trkpt lat="43.33185" lon="2.43092">
        <ele>319</ele>
        <time>2023-05-28T06:05:40Z</time>
      </trkpt>
      <trkpt lat="43.33189" lon="2.43092">
        <ele>319.2</ele>
        <time>2023-05-28T06:05:41Z</time>
      </trkpt>
      <trkpt lat="43.3319" lon="2.43092">
        <ele>319.3</ele>
        <time>2023-05-28T06:05:42Z</time>
      </trkpt>
      <trkpt lat="43.33193" lon="2.43092">
        <ele>319.4</ele>
        <time>2023-05-28T06:05:43Z</time>
      </trkpt>
      <trkpt lat="43.33194" lon="2.43092">
        <ele>319.5</ele>
        <time>2023-05-28T06:05:44Z</time>
      </trkpt>
      <trkpt lat="43.33198" lon="2.43092">
        <ele>319.6</ele>
        <time>2023-05-28T06:05:45Z</time>
      </trkpt>
      <trkpt lat="43.33199" lon="2.43092">
        <ele>319.7</ele>
        <time>2023-05-28T06:05:46Z</time>
      </trkpt>
      <trkpt lat="43.33202" lon="2.43093">
        <ele>319.8</ele>
        <time>2023-05-28T06:05:47Z</time>
      </trkpt>
      <trkpt lat="43.33203" lon="2.43093">
        <ele>319.8</ele>
        <time>2023-05-28T06:05:48Z</time>
      </trkpt>
      <trkpt lat="43.33206" lon="2.43094">
        <ele>320</ele>
        <time>2023-05-28T06:05:49Z</time>
      </trkpt>
      <trkpt lat="43.33207" lon="2.43095">
        <ele>320</ele>
        <time>2023-05-28T06:05:50Z</time>
      </trkpt>
      <trkpt lat="43.3321" lon="2.43096">
        <ele>320.1</ele>
        <time>2023-05-28T06:05:51Z</time>
      </trkpt>
      <trkpt lat="43.33211" lon="2.43096">
        <ele>320.1</ele>
        <time>2023-05-28T06:05:52Z</time>
      </trkpt>
      <trkpt lat="43.33214" lon="2.43097">
        <ele>320.2</ele>
        <time>2023-05-28T06:05:53Z</time>
      </trkpt>
      <trkpt lat="43.33215" lon="2.43098">
        <ele>320.2</ele>
        <time>2023-05-28T06:05:54Z</time>
      </trkpt>
      <trkpt lat="43.33216" lon="2.43098">
        <ele>320.3</ele>
        <time>2023-05-28T06:05:55Z</time>
      </trkpt>
      <trkpt lat="43.33218" lon="2.431">
        <ele>320.3</ele>
        <time>2023-05-28T06:05:56Z</time>
      </trkpt>
      <trkpt lat="43.33219" lon="2.43101">
        <ele>320.4</ele>
        <time>2023-05-28T06:05:57Z</time>
      </trkpt>
      <trkpt lat="43.33221" lon="2.43102">
        <ele>320.4</ele>
        <time>2023-05-28T06:05:58Z</time>
      </trkpt>
      <trkpt lat="43.33224" lon="2.43103">
        <ele>320.4</ele>
        <time>2023-05-28T06:05:59Z</time>
      </trkpt>
      <trkpt lat="43.33224" lon="2.43104">
        <ele>320.5</ele>
        <time>2023-05-28T06:06:00Z</time>
      </trkpt>
      <trkpt lat="43.33225" lon="2.43105">
        <ele>320.5</ele>
        <time>2023-05-28T06:06:01Z</time>
      </trkpt>
      <trkpt lat="43.33226" lon="2.43107">
        <ele>320.5</ele>
        <time>2023-05-28T06:06:02Z</time>
      </trkpt>
      <trkpt lat="43.33228" lon="2.43109">
        <ele>320.5</ele>
        <time>2023-05-28T06:06:03Z</time>
      </trkpt>
      <trkpt lat="43.33229" lon="2.4311">
        <ele>320.5</ele>
        <time>2023-05-28T06:06:04Z</time>
      </trkpt>
      <trkpt lat="43.33232" lon="2.43111">
        <ele>320.5</ele>
        <time>2023-05-28T06:06:05Z</time>
      </trkpt>
      <trkpt lat="43.33232" lon="2.4311">
        <ele>320.5</ele>
        <time>2023-05-28T06:06:06Z</time>
      </trkpt>
      <trkpt lat="43.33233" lon="2.4311">
        <ele>320.5</ele>
        <time>2023-05-28T06:06:07Z</time>
      </trkpt>
      <trkpt lat="43.33235" lon="2.43109">
        <ele>320.5</ele>
        <time>2023-05-28T06:06:08Z</time>
      </trkpt>
      <trkpt lat="43.33236" lon="2.43109">
        <ele>320.5</ele>
        <time>2023-05-28T06:06:09Z</time>
      </trkpt>
      <trkpt lat="43.33237" lon="2.43109">
        <ele>320.5</ele>
        <time>2023-05-28T06:06:10Z</time>
      </trkpt>
      <trkpt lat="43.33238" lon="2.43108">
        <ele>320.6</ele>
        <time>2023-05-28T06:06:11Z</time>
      </trkpt>
      <trkpt lat="43.33239" lon="2.43108">
        <ele>320.6</ele>
        <time>2023-05-28T06:06:12Z</time>
      </trkpt>
      <trkpt lat="43.3324" lon="2.43108">
        <ele>320.6</ele>
        <time>2023-05-28T06:06:13Z</time>
      </trkpt>
      <trkpt lat="43.3324" lon="2.43109">
        <ele>320.7</ele>
        <time>2023-05-28T06:06:14Z</time>
      </trkpt>
      <trkpt lat="43.33241" lon="2.4311">
        <ele>320.7</ele>
        <time>2023-05-28T06:06:15Z</time>
      </trkpt>
      <trkpt lat="43.33242" lon="2.4311">
        <ele>320.7</ele>
        <time>2023-05-28T06:06:16Z</time>
      </trkpt>
      <trkpt lat="43.33242" lon="2.43111">
        <ele>320.8</ele>
        <time>2023-05-28T06:06:17Z</time>
      </trkpt>
      <trkpt lat="43.33243" lon="2.43113">
        <ele>320.9</ele>
        <time>2023-05-28T06:06:18Z</time>
      </trkpt>
      <trkpt lat="43.33244" lon="2.43113">
        <ele>321</ele>
        <time>2023-05-28T06:06:19Z</time>
      </trkpt>
      <trkpt lat="43.33245" lon="2.43113">
        <ele>321</ele>
        <time>2023-05-28T06:06:20Z</time>
      </trkpt>
      <trkpt lat="43.33245" lon="2.43114">
        <ele>321</ele>
        <time>2023-05-28T06:06:21Z</time>
      </trkpt>
      <trkpt lat="43.33245" lon="2.43114">
        <ele>321.1</ele>
        <time>2023-05-28T06:06:22Z</time>
      </trkpt>
      <trkpt lat="43.33244" lon="2.43114">
        <ele>321.1</ele>
        <time>2023-05-28T06:06:23Z</time>
      </trkpt>
      <trkpt lat="43.33244" lon="2.43115">
        <ele>321.2</ele>
        <time>2023-05-28T06:06:24Z</time>
      </trkpt>
      <trkpt lat="43.33245" lon="2.43117">
        <ele>321.3</ele>
        <time>2023-05-28T06:06:25Z</time>
      </trkpt>
      <trkpt lat="43.33246" lon="2.43117">
        <ele>321.4</ele>
        <time>2023-05-28T06:06:26Z</time>
      </trkpt>
      <trkpt lat="43.33247" lon="2.43118">
        <ele>321.5</ele>
        <time>2023-05-28T06:06:27Z</time>
      </trkpt>
      <trkpt lat="43.33249" lon="2.43118">
        <ele>321.7</ele>
        <time>2023-05-28T06:06:28Z</time>
      </trkpt>
      <trkpt lat="43.3325" lon="2.43119">
        <ele>321.9</ele>
        <time>2023-05-28T06:06:29Z</time>
      </trkpt>
      <trkpt lat="43.33251" lon="2.4312">
        <ele>322.1</ele>
        <time>2023-05-28T06:06:30Z</time>
      </trkpt>
      <trkpt lat="43.33253" lon="2.43121">
        <ele>322.3</ele>
        <time>2023-05-28T06:06:31Z</time>
      </trkpt>
      <trkpt lat="43.33254" lon="2.43122">
        <ele>322.5</ele>
        <time>2023-05-28T06:06:32Z</time>
      </trkpt>
      <trkpt lat="43.33256" lon="2.43124">
        <ele>322.8</ele>
        <time>2023-05-28T06:06:33Z</time>
      </trkpt>
      <trkpt lat="43.33257" lon="2.43124">
        <ele>322.9</ele>
        <time>2023-05-28T06:06:34Z</time>
      </trkpt>
      <trkpt lat="43.33257" lon="2.43125">
        <ele>323</ele>
        <time>2023-05-28T06:06:35Z</time>
      </trkpt>
      <trkpt lat="43.33259" lon="2.43127">
        <ele>323.1</ele>
        <time>2023-05-28T06:06:36Z</time>
      </trkpt>
      <trkpt lat="43.3326" lon="2.43128">
        <ele>323.3</ele>
        <time>2023-05-28T06:06:37Z</time>
      </trkpt>
      <trkpt lat="43.33261" lon="2.43129">
        <ele>323.4</ele>
        <time>2023-05-28T06:06:38Z</time>
      </trkpt>
      <trkpt lat="43.33263" lon="2.43131">
        <ele>323.5</ele>
        <time>2023-05-28T06:06:39Z</time>
      </trkpt>
      <trkpt lat="43.33265" lon="2.43132">
        <ele>323.7</ele>
        <time>2023-05-28T06:06:40Z</time>
      </trkpt>
      <trkpt lat="43.33266" lon="2.43133">
        <ele>323.8</ele>
        <time>2023-05-28T06:06:41Z</time>
      </trkpt>
      <trkpt lat="43.33269" lon="2.43135">
        <ele>323.9</ele>
        <time>2023-05-28T06:06:42Z</time>
      </trkpt>
      <trkpt lat="43.3327" lon="2.43135">
        <ele>324</ele>
        <time>2023-05-28T06:06:43Z</time>
      </trkpt>
      <trkpt lat="43.33273" lon="2.43137">
        <ele>324.1</ele>
        <time>2023-05-28T06:06:44Z</time>
      </trkpt>
      <trkpt lat="43.33274" lon="2.43137">
        <ele>324.2</ele>
        <time>2023-05-28T06:06:45Z</time>
      </trkpt>
      <trkpt lat="43.33275" lon="2.43138">
        <ele>324.2</ele>
        <time>2023-05-28T06:06:46Z</time>
      </trkpt>
      <trkpt lat="43.33276" lon="2.43139">
        <ele>324.3</ele>
        <time>2023-05-28T06:06:47Z</time>
      </trkpt>
      <trkpt lat="43.33278" lon="2.43141">
        <ele>324.3</ele>
        <time>2023-05-28T06:06:48Z</time>
      </trkpt>
      <trkpt lat="43.33279" lon="2.43142">
        <ele>324.3</ele>
        <time>2023-05-28T06:06:49Z</time>
      </trkpt>
      <trkpt lat="43.3328" lon="2.43143">
        <ele>324.4</ele>
        <time>2023-05-28T06:06:50Z</time>
      </trkpt>
      <trkpt lat="43.33281" lon="2.43144">
        <ele>324.4</ele>
        <time>2023-05-28T06:06:51Z</time>
      </trkpt>
      <trkpt lat="43.33282" lon="2.43146">
        <ele>324.4</ele>
        <time>2023-05-28T06:06:52Z</time>
      </trkpt>
      <trkpt lat="43.33283" lon="2.43147">
        <ele>324.4</ele>
        <time>2023-05-28T06:06:53Z</time>
      </trkpt>
      <trkpt lat="43.33284" lon="2.43149">
        <ele>324.4</ele>
        <time>2023-05-28T06:06:54Z</time>
      </trkpt>
      <trkpt lat="43.33285" lon="2.43152">
        <ele>324.3</ele>
        <time>2023-05-28T06:06:55Z</time>
      </trkpt>
      <trkpt lat="43.33285" lon="2.43153">
        <ele>324.3</ele>
        <time>2023-05-28T06:06:56Z</time>
      </trkpt>
      <trkpt lat="43.33286" lon="2.43155">
        <ele>324.3</ele>
        <time>2023-05-28T06:06:57Z</time>
      </trkpt>
      <trkpt lat="43.33287" lon="2.43157">
        <ele>324.2</ele>
        <time>2023-05-28T06:06:58Z</time>
      </trkpt>
      <trkpt lat="43.33288" lon="2.4316">
        <ele>324.2</ele>
        <time>2023-05-28T06:06:59Z</time>
      </trkpt>
      <trkpt lat="43.33289" lon="2.43161">
        <ele>324.1</ele>
        <time>2023-05-28T06:07:00Z</time>
      </trkpt>
      <trkpt lat="43.33289" lon="2.43162">
        <ele>324.1</ele>
        <time>2023-05-28T06:07:01Z</time>
      </trkpt>
      <trkpt lat="43.3329" lon="2.43166">
        <ele>324.1</ele>
        <time>2023-05-28T06:07:02Z</time>
      </trkpt>
      <trkpt lat="43.3329" lon="2.43167">
        <ele>324</ele>
        <time>2023-05-28T06:07:03Z</time>
      </trkpt>
      <trkpt lat="43.3329" lon="2.43169">
        <ele>324</ele>
        <time>2023-05-28T06:07:04Z</time>
      </trkpt>
      <trkpt lat="43.33291" lon="2.43171">
        <ele>324</ele>
        <time>2023-05-28T06:07:05Z</time>
      </trkpt>
      <trkpt lat="43.33291" lon="2.43172">
        <ele>324</ele>
        <time>2023-05-28T06:07:06Z</time>
      </trkpt>
      <trkpt lat="43.33292" lon="2.43173">
        <ele>324</ele>
        <time>2023-05-28T06:07:07Z</time>
      </trkpt>
      <trkpt lat="43.33293" lon="2.43174">
        <ele>324</ele>
        <time>2023-05-28T06:07:08Z</time>
      </trkpt>
      <trkpt lat="43.33294" lon="2.43175">
        <ele>324.1</ele>
        <time>2023-05-28T06:07:09Z</time>
      </trkpt>
      <trkpt lat="43.33295" lon="2.43176">
        <ele>324.1</ele>
        <time>2023-05-28T06:07:10Z</time>
      </trkpt>
      <trkpt lat="43.33295" lon="2.43176">
        <ele>324.1</ele>
        <time>2023-05-28T06:07:11Z</time>
      </trkpt>
      <trkpt lat="43.33296" lon="2.43177">
        <ele>324.1</ele>
        <time>2023-05-28T06:07:12Z</time>
      </trkpt>
      <trkpt lat="43.33298" lon="2.43178">
        <ele>324.2</ele>
        <time>2023-05-28T06:07:13Z</time>
      </trkpt>
      <trkpt lat="43.333" lon="2.43177">
        <ele>324.3</ele>
        <time>2023-05-28T06:07:14Z</time>
      </trkpt>
      <trkpt lat="43.33302" lon="2.43178">
        <ele>324.4</ele>
        <time>2023-05-28T06:07:15Z</time>
      </trkpt>
      <trkpt lat="43.33303" lon="2.43178">
        <ele>324.5</ele>
        <time>2023-05-28T06:07:16Z</time>
      </trkpt>
      <trkpt lat="43.33307" lon="2.43179">
        <ele>324.7</ele>
        <time>2023-05-28T06:07:17Z</time>
      </trkpt>
      <trkpt lat="43.33308" lon="2.43179">
        <ele>324.8</ele>
        <time>2023-05-28T06:07:18Z</time>
      </trkpt>
      <trkpt lat="43.3331" lon="2.43179">
        <ele>324.9</ele>
        <time>2023-05-28T06:07:19Z</time>
      </trkpt>
      <trkpt lat="43.33312" lon="2.43179">
        <ele>325</ele>
        <time>2023-05-28T06:07:20Z</time>
      </trkpt>
      <trkpt lat="43.33315" lon="2.43179">
        <ele>325.2</ele>
        <time>2023-05-28T06:07:21Z</time>
      </trkpt>
      <trkpt lat="43.33316" lon="2.4318">
        <ele>325.3</ele>
        <time>2023-05-28T06:07:22Z</time>
      </trkpt>
      <trkpt lat="43.33318" lon="2.4318">
        <ele>325.4</ele>
        <time>2023-05-28T06:07:23Z</time>
      </trkpt>
      <trkpt lat="43.3332" lon="2.4318">
        <ele>325.6</ele>
        <time>2023-05-28T06:07:24Z</time>
      </trkpt>
      <trkpt lat="43.33324" lon="2.4318">
        <ele>325.9</ele>
        <time>2023-05-28T06:07:25Z</time>
      </trkpt>
      <trkpt lat="43.33325" lon="2.43181">
        <ele>326.1</ele>
        <time>2023-05-28T06:07:26Z</time>
      </trkpt>
      <trkpt lat="43.33326" lon="2.43182">
        <ele>326.2</ele>
        <time>2023-05-28T06:07:27Z</time>
      </trkpt>
      <trkpt lat="43.33327" lon="2.43182">
        <ele>326.3</ele>
        <time>2023-05-28T06:07:28Z</time>
      </trkpt>
      <trkpt lat="43.33329" lon="2.43184">
        <ele>326.5</ele>
        <time>2023-05-28T06:07:29Z</time>
      </trkpt>
      <trkpt lat="43.33331" lon="2.43185">
        <ele>326.7</ele>
        <time>2023-05-28T06:07:30Z</time>
      </trkpt>
      <trkpt lat="43.33332" lon="2.43186">
        <ele>326.8</ele>
        <time>2023-05-28T06:07:31Z</time>
      </trkpt>
      <trkpt lat="43.33333" lon="2.43187">
        <ele>327</ele>
        <time>2023-05-28T06:07:32Z</time>
      </trkpt>
      <trkpt lat="43.33334" lon="2.43188">
        <ele>327.1</ele>
        <time>2023-05-28T06:07:33Z</time>
      </trkpt>
      <trkpt lat="43.33336" lon="2.4319">
        <ele>327.3</ele>
        <time>2023-05-28T06:07:34Z</time>
      </trkpt>
      <trkpt lat="43.33339" lon="2.43192">
        <ele>327.6</ele>
        <time>2023-05-28T06:07:35Z</time>
      </trkpt>
      <trkpt lat="43.3334" lon="2.43193">
        <ele>327.7</ele>
        <time>2023-05-28T06:07:36Z</time>
      </trkpt>
      <trkpt lat="43.33343" lon="2.43196">
        <ele>328</ele>
        <time>2023-05-28T06:07:37Z</time>
      </trkpt>
      <trkpt lat="43.33344" lon="2.43197">
        <ele>328</ele>
        <time>2023-05-28T06:07:38Z</time>
      </trkpt>
      <trkpt lat="43.33346" lon="2.43198">
        <ele>328.1</ele>
        <time>2023-05-28T06:07:39Z</time>
      </trkpt>
      <trkpt lat="43.33347" lon="2.43198">
        <ele>328.2</ele>
        <time>2023-05-28T06:07:40Z</time>
      </trkpt>
      <trkpt lat="43.33349" lon="2.43199">
        <ele>328.3</ele>
        <time>2023-05-28T06:07:41Z</time>
      </trkpt>
      <trkpt lat="43.3335" lon="2.432">
        <ele>328.4</ele>
        <time>2023-05-28T06:07:42Z</time>
      </trkpt>
      <trkpt lat="43.33351" lon="2.43202">
        <ele>328.4</ele>
        <time>2023-05-28T06:07:43Z</time>
      </trkpt>
      <trkpt lat="43.33351" lon="2.43204">
        <ele>328.5</ele>
        <time>2023-05-28T06:07:44Z</time>
      </trkpt>
      <trkpt lat="43.33351" lon="2.43208">
        <ele>328.6</ele>
        <time>2023-05-28T06:07:45Z</time>
      </trkpt>
      <trkpt lat="43.33351" lon="2.43209">
        <ele>328.7</ele>
        <time>2023-05-28T06:07:46Z</time>
      </trkpt>
      <trkpt lat="43.33349" lon="2.43211">
        <ele>328.8</ele>
        <time>2023-05-28T06:07:47Z</time>
      </trkpt>
      <trkpt lat="43.33348" lon="2.43212">
        <ele>328.8</ele>
        <time>2023-05-28T06:07:48Z</time>
      </trkpt>
      <trkpt lat="43.33347" lon="2.43216">
        <ele>329</ele>
        <time>2023-05-28T06:07:49Z</time>
      </trkpt>
      <trkpt lat="43.33347" lon="2.43217">
        <ele>329.1</ele>
        <time>2023-05-28T06:07:50Z</time>
      </trkpt>
      <trkpt lat="43.33347" lon="2.4322">
        <ele>329.2</ele>
        <time>2023-05-28T06:07:51Z</time>
      </trkpt>
      <trkpt lat="43.33346" lon="2.43221">
        <ele>329.3</ele>
        <time>2023-05-28T06:07:52Z</time>
      </trkpt>
      <trkpt lat="43.33346" lon="2.43222">
        <ele>329.3</ele>
        <time>2023-05-28T06:07:53Z</time>
      </trkpt>
      <trkpt lat="43.33346" lon="2.43223">
        <ele>329.4</ele>
        <time>2023-05-28T06:07:54Z</time>
      </trkpt>
      <trkpt lat="43.33346" lon="2.43225">
        <ele>329.5</ele>
        <time>2023-05-28T06:07:55Z</time>
      </trkpt>
      <trkpt lat="43.33347" lon="2.43227">
        <ele>329.6</ele>
        <time>2023-05-28T06:07:56Z</time>
      </trkpt>
      <trkpt lat="43.33347" lon="2.43228">
        <ele>329.8</ele>
        <time>2023-05-28T06:07:57Z</time>
      </trkpt>
      <trkpt lat="43.33347" lon="2.4323">
        <ele>329.9</ele>
        <time>2023-05-28T06:07:58Z</time>
      </trkpt>
      <trkpt lat="43.33347" lon="2.43231">
        <ele>329.9</ele>
        <time>2023-05-28T06:07:59Z</time>
      </trkpt>
      <trkpt lat="43.33347" lon="2.43232">
        <ele>330</ele>
        <time>2023-05-28T06:08:00Z</time>
      </trkpt>
      <trkpt lat="43.33347" lon="2.43235">
        <ele>330.2</ele>
        <time>2023-05-28T06:08:01Z</time>
      </trkpt>
      <trkpt lat="43.33346" lon="2.43237">
        <ele>330.4</ele>
        <time>2023-05-28T06:08:02Z</time>
      </trkpt>
      <trkpt lat="43.33346" lon="2.43239">
        <ele>330.5</ele>
        <time>2023-05-28T06:08:03Z</time>
      </trkpt>
      <trkpt lat="43.33346" lon="2.43241">
        <ele>330.6</ele>
        <time>2023-05-28T06:08:04Z</time>
      </trkpt>
      <trkpt lat="43.33346" lon="2.43243">
        <ele>330.7</ele>
        <time>2023-05-28T06:08:05Z</time>
      </trkpt>
      <trkpt lat="43.33346" lon="2.43245">
        <ele>330.9</ele>
        <time>2023-05-28T06:08:06Z</time>
      </trkpt>
      <trkpt lat="43.33346" lon="2.43247">
        <ele>331</ele>
        <time>2023-05-28T06:08:07Z</time>
      </trkpt>
      <trkpt lat="43.33346" lon="2.4325">
        <ele>331.1</ele>
        <time>2023-05-28T06:08:08Z</time>
      </trkpt>
      <trkpt lat="43.33345" lon="2.43252">
        <ele>331.2</ele>
        <time>2023-05-28T06:08:09Z</time>
      </trkpt>
      <trkpt lat="43.33345" lon="2.43253">
        <ele>331.2</ele>
        <time>2023-05-28T06:08:10Z</time>
      </trkpt>
      <trkpt lat="43.33345" lon="2.43254">
        <ele>331.3</ele>
        <time>2023-05-28T06:08:11Z</time>
      </trkpt>
      <trkpt lat="43.33345" lon="2.43255">
        <ele>331.3</ele>
        <time>2023-05-28T06:08:12Z</time>
      </trkpt>
      <trkpt lat="43.33345" lon="2.43257">
        <ele>331.4</ele>
        <time>2023-05-28T06:08:13Z</time>
      </trkpt>
      <trkpt lat="43.33344" lon="2.4326">
        <ele>331.5</ele>
        <time>2023-05-28T06:08:14Z</time>
      </trkpt>
      <trkpt lat="43.33344" lon="2.43265">
        <ele>331.7</ele>
        <time>2023-05-28T06:08:15Z</time>
      </trkpt>
      <trkpt lat="43.33344" lon="2.43267">
        <ele>331.7</ele>
        <time>2023-05-28T06:08:16Z</time>
      </trkpt>
      <trkpt lat="43.33344" lon="2.43272">
        <ele>331.8</ele>
        <time>2023-05-28T06:08:17Z</time>
      </trkpt>
      <trkpt lat="43.33343" lon="2.43273">
        <ele>331.9</ele>
        <time>2023-05-28T06:08:18Z</time>
      </trkpt>
      <trkpt lat="43.33343" lon="2.43276">
        <ele>331.9</ele>
        <time>2023-05-28T06:08:19Z</time>
      </trkpt>
      <trkpt lat="43.33343" lon="2.43277">
        <ele>332</ele>
        <time>2023-05-28T06:08:20Z</time>
      </trkpt>
      <trkpt lat="43.33343" lon="2.43278">
        <ele>332</ele>
        <time>2023-05-28T06:08:21Z</time>
      </trkpt>
      <trkpt lat="43.33343" lon="2.4328">
        <ele>332</ele>
        <time>2023-05-28T06:08:22Z</time>
      </trkpt>
      <trkpt lat="43.33342" lon="2.43282">
        <ele>332.1</ele>
        <time>2023-05-28T06:08:23Z</time>
      </trkpt>
      <trkpt lat="43.33342" lon="2.43284">
        <ele>332.1</ele>
        <time>2023-05-28T06:08:24Z</time>
      </trkpt>
      <trkpt lat="43.33342" lon="2.43286">
        <ele>332.1</ele>
        <time>2023-05-28T06:08:25Z</time>
      </trkpt>
      <trkpt lat="43.33342" lon="2.43289">
        <ele>332.2</ele>
        <time>2023-05-28T06:08:26Z</time>
      </trkpt>
      <trkpt lat="43.33343" lon="2.4329">
        <ele>332.2</ele>
        <time>2023-05-28T06:08:27Z</time>
      </trkpt>
      <trkpt lat="43.33344" lon="2.43293">
        <ele>332.3</ele>
        <time>2023-05-28T06:08:28Z</time>
      </trkpt>
      <trkpt lat="43.33345" lon="2.43294">
        <ele>332.3</ele>
        <time>2023-05-28T06:08:29Z</time>
      </trkpt>
      <trkpt lat="43.33345" lon="2.43295">
        <ele>332.4</ele>
        <time>2023-05-28T06:08:30Z</time>
      </trkpt>
      <trkpt lat="43.33346" lon="2.43297">
        <ele>332.4</ele>
        <time>2023-05-28T06:08:31Z</time>
      </trkpt>
      <trkpt lat="43.33347" lon="2.43299">
        <ele>332.5</ele>
        <time>2023-05-28T06:08:32Z</time>
      </trkpt>
      <trkpt lat="43.33347" lon="2.433">
        <ele>332.5</ele>
        <time>2023-05-28T06:08:33Z</time>
      </trkpt>
      <trkpt lat="43.33347" lon="2.43303">
        <ele>332.6</ele>
        <time>2023-05-28T06:08:34Z</time>
      </trkpt>
      <trkpt lat="43.33347" lon="2.43305">
        <ele>332.7</ele>
        <time>2023-05-28T06:08:35Z</time>
      </trkpt>
      <trkpt lat="43.33347" lon="2.43307">
        <ele>332.7</ele>
        <time>2023-05-28T06:08:36Z</time>
      </trkpt>
      <trkpt lat="43.33348" lon="2.43308">
        <ele>332.8</ele>
        <time>2023-05-28T06:08:37Z</time>
      </trkpt>
      <trkpt lat="43.33348" lon="2.43311">
        <ele>332.9</ele>
        <time>2023-05-28T06:08:38Z</time>
      </trkpt>
      <trkpt lat="43.3335" lon="2.43314">
        <ele>333.1</ele>
        <time>2023-05-28T06:08:39Z</time>
      </trkpt>
      <trkpt lat="43.33353" lon="2.43315">
        <ele>333.3</ele>
        <time>2023-05-28T06:08:40Z</time>
      </trkpt>
      <trkpt lat="43.33354" lon="2.43316">
        <ele>333.3</ele>
        <time>2023-05-28T06:08:41Z</time>
      </trkpt>
      <trkpt lat="43.33355" lon="2.43316">
        <ele>333.4</ele>
        <time>2023-05-28T06:08:42Z</time>
      </trkpt>
      <trkpt lat="43.33355" lon="2.43317">
        <ele>333.4</ele>
        <time>2023-05-28T06:08:43Z</time>
      </trkpt>
      <trkpt lat="43.33354" lon="2.43318">
        <ele>333.5</ele>
        <time>2023-05-28T06:08:44Z</time>
      </trkpt>
      <trkpt lat="43.33354" lon="2.43319">
        <ele>333.6</ele>
        <time>2023-05-28T06:08:45Z</time>
      </trkpt>
      <trkpt lat="43.33354" lon="2.4332">
        <ele>333.6</ele>
        <time>2023-05-28T06:08:46Z</time>
      </trkpt>
      <trkpt lat="43.33354" lon="2.43321">
        <ele>335.7</ele>
        <time>2023-05-28T06:08:47Z</time>
      </trkpt>
      <trkpt lat="43.33355" lon="2.43322">
        <ele>335.8</ele>
        <time>2023-05-28T06:08:48Z</time>
      </trkpt>
      <trkpt lat="43.33355" lon="2.43323">
        <ele>335.9</ele>
        <time>2023-05-28T06:08:49Z</time>
      </trkpt>
      <trkpt lat="43.33355" lon="2.43323">
        <ele>336</ele>
        <time>2023-05-28T06:08:50Z</time>
      </trkpt>
      <trkpt lat="43.33355" lon="2.43324">
        <ele>336.1</ele>
        <time>2023-05-28T06:08:51Z</time>
      </trkpt>
      <trkpt lat="43.33355" lon="2.43324">
        <ele>336.1</ele>
        <time>2023-05-28T06:08:52Z</time>
      </trkpt>
      <trkpt lat="43.33354" lon="2.43325">
        <ele>336.2</ele>
        <time>2023-05-28T06:08:53Z</time>
      </trkpt>
      <trkpt lat="43.33354" lon="2.43325">
        <ele>336.2</ele>
        <time>2023-05-28T06:08:54Z</time>
      </trkpt>
      <trkpt lat="43.33354" lon="2.43326">
        <ele>336.3</ele>
        <time>2023-05-28T06:08:55Z</time>
      </trkpt>
      <trkpt lat="43.33354" lon="2.43327">
        <ele>336.4</ele>
        <time>2023-05-28T06:08:56Z</time>
      </trkpt>
      <trkpt lat="43.33355" lon="2.43327">
        <ele>336.5</ele>
        <time>2023-05-28T06:08:57Z</time>
      </trkpt>
      <trkpt lat="43.33354" lon="2.43328">
        <ele>336.5</ele>
        <time>2023-05-28T06:08:58Z</time>
      </trkpt>
      <trkpt lat="43.33354" lon="2.43329">
        <ele>336.6</ele>
        <time>2023-05-28T06:08:59Z</time>
      </trkpt>
      <trkpt lat="43.33354" lon="2.43329">
        <ele>336.7</ele>
        <time>2023-05-28T06:09:00Z</time>
      </trkpt>
      <trkpt lat="43.33354" lon="2.43329">
        <ele>336.7</ele>
        <time>2023-05-28T06:09:01Z</time>
      </trkpt>
      <trkpt lat="43.33354" lon="2.43329">
        <ele>336.8</ele>
        <time>2023-05-28T06:09:02Z</time>
      </trkpt>
      <trkpt lat="43.33355" lon="2.43329">
        <ele>336.9</ele>
        <time>2023-05-28T06:09:03Z</time>
      </trkpt>
      <trkpt lat="43.33356" lon="2.43328">
        <ele>337.1</ele>
        <time>2023-05-28T06:09:04Z</time>
      </trkpt>
      <trkpt lat="43.33358" lon="2.43328">
        <ele>337.3</ele>
        <time>2023-05-28T06:09:05Z</time>
      </trkpt>
      <trkpt lat="43.33359" lon="2.43326">
        <ele>337.4</ele>
        <time>2023-05-28T06:09:06Z</time>
      </trkpt>
      <trkpt lat="43.33359" lon="2.43325">
        <ele>337.6</ele>
        <time>2023-05-28T06:09:07Z</time>
      </trkpt>
      <trkpt lat="43.33359" lon="2.43324">
        <ele>337.6</ele>
        <time>2023-05-28T06:09:08Z</time>
      </trkpt>
      <trkpt lat="43.33359" lon="2.43323">
        <ele>337.7</ele>
        <time>2023-05-28T06:09:09Z</time>
      </trkpt>
      <trkpt lat="43.33359" lon="2.43322">
        <ele>337.8</ele>
        <time>2023-05-28T06:09:10Z</time>
      </trkpt>
      <trkpt lat="43.33359" lon="2.4332">
        <ele>337.9</ele>
        <time>2023-05-28T06:09:11Z</time>
      </trkpt>
      <trkpt lat="43.33359" lon="2.43319">
        <ele>338.1</ele>
        <time>2023-05-28T06:09:12Z</time>
      </trkpt>
      <trkpt lat="43.3336" lon="2.43317">
        <ele>338.2</ele>
        <time>2023-05-28T06:09:13Z</time>
      </trkpt>
      <trkpt lat="43.33361" lon="2.43315">
        <ele>338.3</ele>
        <time>2023-05-28T06:09:14Z</time>
      </trkpt>
      <trkpt lat="43.33361" lon="2.43314">
        <ele>338.4</ele>
        <time>2023-05-28T06:09:15Z</time>
      </trkpt>
      <trkpt lat="43.33362" lon="2.43313">
        <ele>338.5</ele>
        <time>2023-05-28T06:09:16Z</time>
      </trkpt>
      <trkpt lat="43.33362" lon="2.43312">
        <ele>338.6</ele>
        <time>2023-05-28T06:09:17Z</time>
      </trkpt>
      <trkpt lat="43.33362" lon="2.43311">
        <ele>338.6</ele>
        <time>2023-05-28T06:09:18Z</time>
      </trkpt>
      <trkpt lat="43.33362" lon="2.4331">
        <ele>338.7</ele>
        <time>2023-05-28T06:09:19Z</time>
      </trkpt>
      <trkpt lat="43.33362" lon="2.43308">
        <ele>338.8</ele>
        <time>2023-05-28T06:09:20Z</time>
      </trkpt>
      <trkpt lat="43.33362" lon="2.43306">
        <ele>339</ele>
        <time>2023-05-28T06:09:21Z</time>
      </trkpt>
      <trkpt lat="43.33363" lon="2.43303">
        <ele>339.1</ele>
        <time>2023-05-28T06:09:22Z</time>
      </trkpt>
      <trkpt lat="43.33363" lon="2.43301">
        <ele>339.2</ele>
        <time>2023-05-28T06:09:23Z</time>
      </trkpt>
      <trkpt lat="43.33363" lon="2.433">
        <ele>339.3</ele>
        <time>2023-05-28T06:09:24Z</time>
      </trkpt>
      <trkpt lat="43.33364" lon="2.43298">
        <ele>339.4</ele>
        <time>2023-05-28T06:09:25Z</time>
      </trkpt>
      <trkpt lat="43.33364" lon="2.43297">
        <ele>339.5</ele>
        <time>2023-05-28T06:09:26Z</time>
      </trkpt>
      <trkpt lat="43.33364" lon="2.43296">
        <ele>339.6</ele>
        <time>2023-05-28T06:09:27Z</time>
      </trkpt>
      <trkpt lat="43.33364" lon="2.43293">
        <ele>339.7</ele>
        <time>2023-05-28T06:09:28Z</time>
      </trkpt>
      <trkpt lat="43.33365" lon="2.43292">
        <ele>339.9</ele>
        <time>2023-05-28T06:09:29Z</time>
      </trkpt>
      <trkpt lat="43.33365" lon="2.43291">
        <ele>339.9</ele>
        <time>2023-05-28T06:09:30Z</time>
      </trkpt>
      <trkpt lat="43.33366" lon="2.43289">
        <ele>340.1</ele>
        <time>2023-05-28T06:09:31Z</time>
      </trkpt>
      <trkpt lat="43.33367" lon="2.43288">
        <ele>340.2</ele>
        <time>2023-05-28T06:09:32Z</time>
      </trkpt>
      <trkpt lat="43.33368" lon="2.43286">
        <ele>340.4</ele>
        <time>2023-05-28T06:09:33Z</time>
      </trkpt>
      <trkpt lat="43.3337" lon="2.43283">
        <ele>340.7</ele>
        <time>2023-05-28T06:09:34Z</time>
      </trkpt>
      <trkpt lat="43.3337" lon="2.43282">
        <ele>340.8</ele>
        <time>2023-05-28T06:09:35Z</time>
      </trkpt>
      <trkpt lat="43.33371" lon="2.43281">
        <ele>341</ele>
        <time>2023-05-28T06:09:36Z</time>
      </trkpt>
      <trkpt lat="43.33372" lon="2.4328">
        <ele>341.2</ele>
        <time>2023-05-28T06:09:37Z</time>
      </trkpt>
      <trkpt lat="43.33374" lon="2.43278">
        <ele>341.4</ele>
        <time>2023-05-28T06:09:38Z</time>
      </trkpt>
      <trkpt lat="43.33375" lon="2.43277">
        <ele>341.6</ele>
        <time>2023-05-28T06:09:39Z</time>
      </trkpt>
      <trkpt lat="43.33376" lon="2.43275">
        <ele>341.9</ele>
        <time>2023-05-28T06:09:40Z</time>
      </trkpt>
      <trkpt lat="43.33377" lon="2.43274">
        <ele>342.1</ele>
        <time>2023-05-28T06:09:41Z</time>
      </trkpt>
      <trkpt lat="43.33378" lon="2.43272">
        <ele>342.3</ele>
        <time>2023-05-28T06:09:42Z</time>
      </trkpt>
      <trkpt lat="43.33378" lon="2.4327">
        <ele>342.5</ele>
        <time>2023-05-28T06:09:43Z</time>
      </trkpt>
      <trkpt lat="43.33378" lon="2.43268">
        <ele>342.7</ele>
        <time>2023-05-28T06:09:44Z</time>
      </trkpt>
      <trkpt lat="43.33379" lon="2.43266">
        <ele>342.9</ele>
        <time>2023-05-28T06:09:45Z</time>
      </trkpt>
      <trkpt lat="43.33381" lon="2.43264">
        <ele>343.3</ele>
        <time>2023-05-28T06:09:46Z</time>
      </trkpt>
      <trkpt lat="43.33382" lon="2.43264">
        <ele>343.4</ele>
        <time>2023-05-28T06:09:47Z</time>
      </trkpt>
      <trkpt lat="43.33383" lon="2.43264">
        <ele>343.5</ele>
        <time>2023-05-28T06:09:48Z</time>
      </trkpt>
      <trkpt lat="43.33384" lon="2.43266">
        <ele>343.7</ele>
        <time>2023-05-28T06:09:49Z</time>
      </trkpt>
      <trkpt lat="43.33384" lon="2.43267">
        <ele>343.8</ele>
        <time>2023-05-28T06:09:50Z</time>
      </trkpt>
      <trkpt lat="43.33384" lon="2.43269">
        <ele>344.1</ele>
        <time>2023-05-28T06:09:51Z</time>
      </trkpt>
      <trkpt lat="43.33383" lon="2.43271">
        <ele>344.2</ele>
        <time>2023-05-28T06:09:52Z</time>
      </trkpt>
      <trkpt lat="43.33383" lon="2.43272">
        <ele>344.4</ele>
        <time>2023-05-28T06:09:53Z</time>
      </trkpt>
      <trkpt lat="43.33382" lon="2.43275">
        <ele>344.8</ele>
        <time>2023-05-28T06:09:54Z</time>
      </trkpt>
      <trkpt lat="43.33382" lon="2.43277">
        <ele>344.9</ele>
        <time>2023-05-28T06:09:55Z</time>
      </trkpt>
      <trkpt lat="43.33381" lon="2.43279">
        <ele>345.2</ele>
        <time>2023-05-28T06:09:56Z</time>
      </trkpt>
      <trkpt lat="43.33381" lon="2.4328">
        <ele>345.3</ele>
        <time>2023-05-28T06:09:57Z</time>
      </trkpt>
      <trkpt lat="43.3338" lon="2.43282">
        <ele>345.5</ele>
        <time>2023-05-28T06:09:58Z</time>
      </trkpt>
      <trkpt lat="43.3338" lon="2.43283">
        <ele>345.7</ele>
        <time>2023-05-28T06:09:59Z</time>
      </trkpt>
      <trkpt lat="43.3338" lon="2.43285">
        <ele>345.9</ele>
        <time>2023-05-28T06:10:00Z</time>
      </trkpt>
      <trkpt lat="43.33379" lon="2.43286">
        <ele>346</ele>
        <time>2023-05-28T06:10:01Z</time>
      </trkpt>
      <trkpt lat="43.33379" lon="2.43287">
        <ele>346.2</ele>
        <time>2023-05-28T06:10:02Z</time>
      </trkpt>
      <trkpt lat="43.33379" lon="2.43289">
        <ele>346.4</ele>
        <time>2023-05-28T06:10:03Z</time>
      </trkpt>
      <trkpt lat="43.33379" lon="2.43291">
        <ele>346.6</ele>
        <time>2023-05-28T06:10:04Z</time>
      </trkpt>
      <trkpt lat="43.33379" lon="2.43293">
        <ele>346.9</ele>
        <time>2023-05-28T06:10:05Z</time>
      </trkpt>
      <trkpt lat="43.33379" lon="2.43295">
        <ele>347.2</ele>
        <time>2023-05-28T06:10:06Z</time>
      </trkpt>
      <trkpt lat="43.33379" lon="2.43296">
        <ele>347.4</ele>
        <time>2023-05-28T06:10:07Z</time>
      </trkpt>
      <trkpt lat="43.33379" lon="2.43299">
        <ele>347.8</ele>
        <time>2023-05-28T06:10:08Z</time>
      </trkpt>
      <trkpt lat="43.3338" lon="2.433">
        <ele>348</ele>
        <time>2023-05-28T06:10:09Z</time>
      </trkpt>
      <trkpt lat="43.3338" lon="2.43301">
        <ele>348.1</ele>
        <time>2023-05-28T06:10:10Z</time>
      </trkpt>
      <trkpt lat="43.3338" lon="2.43303">
        <ele>348.4</ele>
        <time>2023-05-28T06:10:11Z</time>
      </trkpt>
      <trkpt lat="43.3338" lon="2.43305">
        <ele>348.7</ele>
        <time>2023-05-28T06:10:12Z</time>
      </trkpt>
      <trkpt lat="43.33382" lon="2.43307">
        <ele>349.1</ele>
        <time>2023-05-28T06:10:13Z</time>
      </trkpt>
      <trkpt lat="43.33382" lon="2.43308">
        <ele>349.2</ele>
        <time>2023-05-28T06:10:14Z</time>
      </trkpt>
      <trkpt lat="43.33383" lon="2.43309">
        <ele>349.4</ele>
        <time>2023-05-28T06:10:15Z</time>
      </trkpt>
      <trkpt lat="43.33385" lon="2.4331">
        <ele>349.7</ele>
        <time>2023-05-28T06:10:16Z</time>
      </trkpt>
      <trkpt lat="43.33386" lon="2.4331">
        <ele>349.9</ele>
        <time>2023-05-28T06:10:17Z</time>
      </trkpt>
      <trkpt lat="43.33387" lon="2.4331">
        <ele>350</ele>
        <time>2023-05-28T06:10:18Z</time>
      </trkpt>
      <trkpt lat="43.33389" lon="2.43312">
        <ele>350.4</ele>
        <time>2023-05-28T06:10:19Z</time>
      </trkpt>
      <trkpt lat="43.33389" lon="2.43312">
        <ele>350.5</ele>
        <time>2023-05-28T06:10:20Z</time>
      </trkpt>
      <trkpt lat="43.3339" lon="2.43312">
        <ele>350.6</ele>
        <time>2023-05-28T06:10:21Z</time>
      </trkpt>
      <trkpt lat="43.33392" lon="2.43313">
        <ele>351</ele>
        <time>2023-05-28T06:10:22Z</time>
      </trkpt>
      <trkpt lat="43.33393" lon="2.43312">
        <ele>351.1</ele>
        <time>2023-05-28T06:10:23Z</time>
      </trkpt>
      <trkpt lat="43.33394" lon="2.43312">
        <ele>351.2</ele>
        <time>2023-05-28T06:10:24Z</time>
      </trkpt>
      <trkpt lat="43.33395" lon="2.43312">
        <ele>351.4</ele>
        <time>2023-05-28T06:10:25Z</time>
      </trkpt>
      <trkpt lat="43.33395" lon="2.43312">
        <ele>351.5</ele>
        <time>2023-05-28T06:10:26Z</time>
      </trkpt>
      <trkpt lat="43.33396" lon="2.43311">
        <ele>351.6</ele>
        <time>2023-05-28T06:10:27Z</time>
      </trkpt>
      <trkpt lat="43.33396" lon="2.4331">
        <ele>351.8</ele>
        <time>2023-05-28T06:10:28Z</time>
      </trkpt>
      <trkpt lat="43.33395" lon="2.43308">
        <ele>352.1</ele>
        <time>2023-05-28T06:10:29Z</time>
      </trkpt>
      <trkpt lat="43.33395" lon="2.43307">
        <ele>352.2</ele>
        <time>2023-05-28T06:10:30Z</time>
      </trkpt>
      <trkpt lat="43.33394" lon="2.43306">
        <ele>352.4</ele>
        <time>2023-05-28T06:10:31Z</time>
      </trkpt>
      <trkpt lat="43.33393" lon="2.43305">
        <ele>352.5</ele>
        <time>2023-05-28T06:10:32Z</time>
      </trkpt>
      <trkpt lat="43.33391" lon="2.43302">
        <ele>353</ele>
        <time>2023-05-28T06:10:33Z</time>
      </trkpt>
      <trkpt lat="43.3339" lon="2.43302">
        <ele>353.1</ele>
        <time>2023-05-28T06:10:34Z</time>
      </trkpt>
      <trkpt lat="43.33389" lon="2.433">
        <ele>353.4</ele>
        <time>2023-05-28T06:10:35Z</time>
      </trkpt>
      <trkpt lat="43.3339" lon="2.43299">
        <ele>353.5</ele>
        <time>2023-05-28T06:10:36Z</time>
      </trkpt>
      <trkpt lat="43.33391" lon="2.43299">
        <ele>353.6</ele>
        <time>2023-05-28T06:10:37Z</time>
      </trkpt>
      <trkpt lat="43.33392" lon="2.43294">
        <ele>354.3</ele>
        <time>2023-05-28T06:10:40Z</time>
      </trkpt>
      <trkpt lat="43.33392" lon="2.43293">
        <ele>354.3</ele>
        <time>2023-05-28T06:10:41Z</time>
      </trkpt>
      <trkpt lat="43.33393" lon="2.43292">
        <ele>354.5</ele>
        <time>2023-05-28T06:10:42Z</time>
      </trkpt>
      <trkpt lat="43.33395" lon="2.4329">
        <ele>355</ele>
        <time>2023-05-28T06:10:43Z</time>
      </trkpt>
      <trkpt lat="43.33395" lon="2.43289">
        <ele>355.1</ele>
        <time>2023-05-28T06:10:44Z</time>
      </trkpt>
      <trkpt lat="43.33396" lon="2.43289">
        <ele>355.2</ele>
        <time>2023-05-28T06:10:45Z</time>
      </trkpt>
      <trkpt lat="43.33397" lon="2.43288">
        <ele>355.4</ele>
        <time>2023-05-28T06:10:46Z</time>
      </trkpt>
      <trkpt lat="43.33398" lon="2.43287">
        <ele>355.7</ele>
        <time>2023-05-28T06:10:47Z</time>
      </trkpt>
      <trkpt lat="43.33399" lon="2.43285">
        <ele>355.9</ele>
        <time>2023-05-28T06:10:48Z</time>
      </trkpt>
      <trkpt lat="43.33399" lon="2.43284">
        <ele>356</ele>
        <time>2023-05-28T06:10:49Z</time>
      </trkpt>
      <trkpt lat="43.33399" lon="2.43283">
        <ele>356.2</ele>
        <time>2023-05-28T06:10:50Z</time>
      </trkpt>
      <trkpt lat="43.334" lon="2.43282">
        <ele>356.3</ele>
        <time>2023-05-28T06:10:51Z</time>
      </trkpt>
      <trkpt lat="43.334" lon="2.43281">
        <ele>356.4</ele>
        <time>2023-05-28T06:10:52Z</time>
      </trkpt>
      <trkpt lat="43.33402" lon="2.4328">
        <ele>356.9</ele>
        <time>2023-05-28T06:10:53Z</time>
      </trkpt>
      <trkpt lat="43.33403" lon="2.43279">
        <ele>357.1</ele>
        <time>2023-05-28T06:10:54Z</time>
      </trkpt>
      <trkpt lat="43.33404" lon="2.43278">
        <ele>357.3</ele>
        <time>2023-05-28T06:10:55Z</time>
      </trkpt>
      <trkpt lat="43.33405" lon="2.43277">
        <ele>357.4</ele>
        <time>2023-05-28T06:10:56Z</time>
      </trkpt>
      <trkpt lat="43.33405" lon="2.43277">
        <ele>357.5</ele>
        <time>2023-05-28T06:10:57Z</time>
      </trkpt>
      <trkpt lat="43.33406" lon="2.43276">
        <ele>357.7</ele>
        <time>2023-05-28T06:10:58Z</time>
      </trkpt>
      <trkpt lat="43.33406" lon="2.43274">
        <ele>357.9</ele>
        <time>2023-05-28T06:10:59Z</time>
      </trkpt>
      <trkpt lat="43.33407" lon="2.43273">
        <ele>358</ele>
        <time>2023-05-28T06:11:00Z</time>
      </trkpt>
      <trkpt lat="43.33407" lon="2.43272">
        <ele>358.1</ele>
        <time>2023-05-28T06:11:01Z</time>
      </trkpt>
      <trkpt lat="43.33407" lon="2.43271">
        <ele>358.3</ele>
        <time>2023-05-28T06:11:02Z</time>
      </trkpt>
      <trkpt lat="43.33407" lon="2.4327">
        <ele>358.3</ele>
        <time>2023-05-28T06:11:03Z</time>
      </trkpt>
      <trkpt lat="43.33407" lon="2.43269">
        <ele>358.5</ele>
        <time>2023-05-28T06:11:04Z</time>
      </trkpt>
      <trkpt lat="43.33408" lon="2.43267">
        <ele>358.7</ele>
        <time>2023-05-28T06:11:05Z</time>
      </trkpt>
      <trkpt lat="43.33409" lon="2.43265">
        <ele>359</ele>
        <time>2023-05-28T06:11:06Z</time>
      </trkpt>
      <trkpt lat="43.3341" lon="2.43264">
        <ele>359.2</ele>
        <time>2023-05-28T06:11:07Z</time>
      </trkpt>
      <trkpt lat="43.33411" lon="2.43263">
        <ele>359.3</ele>
        <time>2023-05-28T06:11:08Z</time>
      </trkpt>
      <trkpt lat="43.33411" lon="2.43263">
        <ele>359.4</ele>
        <time>2023-05-28T06:11:09Z</time>
      </trkpt>
      <trkpt lat="43.33412" lon="2.43262">
        <ele>359.6</ele>
        <time>2023-05-28T06:11:10Z</time>
      </trkpt>
      <trkpt lat="43.33413" lon="2.43259">
        <ele>359.9</ele>
        <time>2023-05-28T06:11:11Z</time>
      </trkpt>
      <trkpt lat="43.33414" lon="2.43255">
        <ele>360.3</ele>
        <time>2023-05-28T06:11:12Z</time>
      </trkpt>
      <trkpt lat="43.33414" lon="2.43254">
        <ele>360.5</ele>
        <time>2023-05-28T06:11:13Z</time>
      </trkpt>
      <trkpt lat="43.33415" lon="2.43252">
        <ele>360.7</ele>
        <time>2023-05-28T06:11:14Z</time>
      </trkpt>
      <trkpt lat="43.33415" lon="2.4325">
        <ele>361</ele>
        <time>2023-05-28T06:11:15Z</time>
      </trkpt>
      <trkpt lat="43.33416" lon="2.43248">
        <ele>361.1</ele>
        <time>2023-05-28T06:11:16Z</time>
      </trkpt>
      <trkpt lat="43.33417" lon="2.43248">
        <ele>361.3</ele>
        <time>2023-05-28T06:11:17Z</time>
      </trkpt>
      <trkpt lat="43.33417" lon="2.43247">
        <ele>361.4</ele>
        <time>2023-05-28T06:11:18Z</time>
      </trkpt>
      <trkpt lat="43.33418" lon="2.43247">
        <ele>361.5</ele>
        <time>2023-05-28T06:11:19Z</time>
      </trkpt>
      <trkpt lat="43.33418" lon="2.43246">
        <ele>361.6</ele>
        <time>2023-05-28T06:11:20Z</time>
      </trkpt>
      <trkpt lat="43.33419" lon="2.43245">
        <ele>361.8</ele>
        <time>2023-05-28T06:11:21Z</time>
      </trkpt>
      <trkpt lat="43.3342" lon="2.43245">
        <ele>361.9</ele>
        <time>2023-05-28T06:11:22Z</time>
      </trkpt>
      <trkpt lat="43.33421" lon="2.43244">
        <ele>362.1</ele>
        <time>2023-05-28T06:11:23Z</time>
      </trkpt>
      <trkpt lat="43.33422" lon="2.43243">
        <ele>362.3</ele>
        <time>2023-05-28T06:11:24Z</time>
      </trkpt>
      <trkpt lat="43.33423" lon="2.43241">
        <ele>362.6</ele>
        <time>2023-05-28T06:11:25Z</time>
      </trkpt>
      <trkpt lat="43.33425" lon="2.4324">
        <ele>362.9</ele>
        <time>2023-05-28T06:11:26Z</time>
      </trkpt>
      <trkpt lat="43.33426" lon="2.4324">
        <ele>363.2</ele>
        <time>2023-05-28T06:11:27Z</time>
      </trkpt>
      <trkpt lat="43.33428" lon="2.43238">
        <ele>363.4</ele>
        <time>2023-05-28T06:11:28Z</time>
      </trkpt>
      <trkpt lat="43.33429" lon="2.43237">
        <ele>363.7</ele>
        <time>2023-05-28T06:11:29Z</time>
      </trkpt>
      <trkpt lat="43.33431" lon="2.43235">
        <ele>364</ele>
        <time>2023-05-28T06:11:30Z</time>
      </trkpt>
      <trkpt lat="43.33432" lon="2.43235">
        <ele>364.2</ele>
        <time>2023-05-28T06:11:31Z</time>
      </trkpt>
      <trkpt lat="43.33434" lon="2.43233">
        <ele>364.5</ele>
        <time>2023-05-28T06:11:32Z</time>
      </trkpt>
      <trkpt lat="43.33435" lon="2.43233">
        <ele>364.7</ele>
        <time>2023-05-28T06:11:33Z</time>
      </trkpt>
      <trkpt lat="43.33436" lon="2.43232">
        <ele>364.9</ele>
        <time>2023-05-28T06:11:34Z</time>
      </trkpt>
      <trkpt lat="43.33437" lon="2.4323">
        <ele>365</ele>
        <time>2023-05-28T06:11:35Z</time>
      </trkpt>
      <trkpt lat="43.33437" lon="2.43229">
        <ele>365.1</ele>
        <time>2023-05-28T06:11:36Z</time>
      </trkpt>
      <trkpt lat="43.33438" lon="2.43227">
        <ele>365.3</ele>
        <time>2023-05-28T06:11:37Z</time>
      </trkpt>
      <trkpt lat="43.33439" lon="2.43225">
        <ele>365.5</ele>
        <time>2023-05-28T06:11:38Z</time>
      </trkpt>
      <trkpt lat="43.3344" lon="2.43224">
        <ele>365.7</ele>
        <time>2023-05-28T06:11:39Z</time>
      </trkpt>
      <trkpt lat="43.33441" lon="2.43223">
        <ele>365.9</ele>
        <time>2023-05-28T06:11:40Z</time>
      </trkpt>
      <trkpt lat="43.33442" lon="2.43222">
        <ele>366</ele>
        <time>2023-05-28T06:11:41Z</time>
      </trkpt>
      <trkpt lat="43.33443" lon="2.43222">
        <ele>366.1</ele>
        <time>2023-05-28T06:11:42Z</time>
      </trkpt>
      <trkpt lat="43.33443" lon="2.43221">
        <ele>366.2</ele>
        <time>2023-05-28T06:11:43Z</time>
      </trkpt>
      <trkpt lat="43.33444" lon="2.4322">
        <ele>366.3</ele>
        <time>2023-05-28T06:11:44Z</time>
      </trkpt>
      <trkpt lat="43.33445" lon="2.43218">
        <ele>366.5</ele>
        <time>2023-05-28T06:11:45Z</time>
      </trkpt>
      <trkpt lat="43.33445" lon="2.43216">
        <ele>366.7</ele>
        <time>2023-05-28T06:11:46Z</time>
      </trkpt>
      <trkpt lat="43.33445" lon="2.43215">
        <ele>366.8</ele>
        <time>2023-05-28T06:11:47Z</time>
      </trkpt>
      <trkpt lat="43.33446" lon="2.43214">
        <ele>366.9</ele>
        <time>2023-05-28T06:11:48Z</time>
      </trkpt>
      <trkpt lat="43.33447" lon="2.43213">
        <ele>367.1</ele>
        <time>2023-05-28T06:11:49Z</time>
      </trkpt>
      <trkpt lat="43.3345" lon="2.43211">
        <ele>367.4</ele>
        <time>2023-05-28T06:11:50Z</time>
      </trkpt>
      <trkpt lat="43.3345" lon="2.4321">
        <ele>367.5</ele>
        <time>2023-05-28T06:11:51Z</time>
      </trkpt>
      <trkpt lat="43.33452" lon="2.43208">
        <ele>367.7</ele>
        <time>2023-05-28T06:11:52Z</time>
      </trkpt>
      <trkpt lat="43.33453" lon="2.43207">
        <ele>367.9</ele>
        <time>2023-05-28T06:11:53Z</time>
      </trkpt>
      <trkpt lat="43.33455" lon="2.43207">
        <ele>368.1</ele>
        <time>2023-05-28T06:11:54Z</time>
      </trkpt>
      <trkpt lat="43.33456" lon="2.43206">
        <ele>368.2</ele>
        <time>2023-05-28T06:11:55Z</time>
      </trkpt>
      <trkpt lat="43.33457" lon="2.43205">
        <ele>368.3</ele>
        <time>2023-05-28T06:11:56Z</time>
      </trkpt>
      <trkpt lat="43.33459" lon="2.43204">
        <ele>368.5</ele>
        <time>2023-05-28T06:11:57Z</time>
      </trkpt>
      <trkpt lat="43.3346" lon="2.43204">
        <ele>368.5</ele>
        <time>2023-05-28T06:11:58Z</time>
      </trkpt>
      <trkpt lat="43.33461" lon="2.43203">
        <ele>368.6</ele>
        <time>2023-05-28T06:11:59Z</time>
      </trkpt>
      <trkpt lat="43.33463" lon="2.43201">
        <ele>368.8</ele>
        <time>2023-05-28T06:12:00Z</time>
      </trkpt>
      <trkpt lat="43.33464" lon="2.432">
        <ele>368.9</ele>
        <time>2023-05-28T06:12:01Z</time>
      </trkpt>
      <trkpt lat="43.33466" lon="2.43199">
        <ele>369</ele>
        <time>2023-05-28T06:12:02Z</time>
      </trkpt>
      <trkpt lat="43.33468" lon="2.43198">
        <ele>369.1</ele>
        <time>2023-05-28T06:12:03Z</time>
      </trkpt>
      <trkpt lat="43.33471" lon="2.43197">
        <ele>369.4</ele>
        <time>2023-05-28T06:12:04Z</time>
      </trkpt>
      <trkpt lat="43.33472" lon="2.43196">
        <ele>369.4</ele>
        <time>2023-05-28T06:12:05Z</time>
      </trkpt>
      <trkpt lat="43.33474" lon="2.43195">
        <ele>369.6</ele>
        <time>2023-05-28T06:12:06Z</time>
      </trkpt>
      <trkpt lat="43.33475" lon="2.43194">
        <ele>369.7</ele>
        <time>2023-05-28T06:12:07Z</time>
      </trkpt>
      <trkpt lat="43.33478" lon="2.43192">
        <ele>369.9</ele>
        <time>2023-05-28T06:12:08Z</time>
      </trkpt>
      <trkpt lat="43.33479" lon="2.43192">
        <ele>369.9</ele>
        <time>2023-05-28T06:12:09Z</time>
      </trkpt>
      <trkpt lat="43.33479" lon="2.43191">
        <ele>370</ele>
        <time>2023-05-28T06:12:10Z</time>
      </trkpt>
      <trkpt lat="43.3348" lon="2.4319">
        <ele>370</ele>
        <time>2023-05-28T06:12:11Z</time>
      </trkpt>
      <trkpt lat="43.3348" lon="2.43188">
        <ele>370.1</ele>
        <time>2023-05-28T06:12:12Z</time>
      </trkpt>
      <trkpt lat="43.33481" lon="2.43186">
        <ele>370.2</ele>
        <time>2023-05-28T06:12:13Z</time>
      </trkpt>
      <trkpt lat="43.33481" lon="2.43185">
        <ele>370.3</ele>
        <time>2023-05-28T06:12:14Z</time>
      </trkpt>
      <trkpt lat="43.33482" lon="2.43183">
        <ele>370.4</ele>
        <time>2023-05-28T06:12:15Z</time>
      </trkpt>
      <trkpt lat="43.33484" lon="2.43182">
        <ele>370.5</ele>
        <time>2023-05-28T06:12:16Z</time>
      </trkpt>
      <trkpt lat="43.33484" lon="2.43181">
        <ele>370.6</ele>
        <time>2023-05-28T06:12:17Z</time>
      </trkpt>
      <trkpt lat="43.33485" lon="2.43181">
        <ele>370.6</ele>
        <time>2023-05-28T06:12:18Z</time>
      </trkpt>
      <trkpt lat="43.33487" lon="2.4318">
        <ele>370.7</ele>
        <time>2023-05-28T06:12:19Z</time>
      </trkpt>
      <trkpt lat="43.33488" lon="2.43179">
        <ele>370.8</ele>
        <time>2023-05-28T06:12:20Z</time>
      </trkpt>
      <trkpt lat="43.33489" lon="2.43178">
        <ele>370.9</ele>
        <time>2023-05-28T06:12:21Z</time>
      </trkpt>
      <trkpt lat="43.3349" lon="2.43176">
        <ele>371</ele>
        <time>2023-05-28T06:12:22Z</time>
      </trkpt>
      <trkpt lat="43.33491" lon="2.43175">
        <ele>371.1</ele>
        <time>2023-05-28T06:12:23Z</time>
      </trkpt>
      <trkpt lat="43.33493" lon="2.43174">
        <ele>371.2</ele>
        <time>2023-05-28T06:12:24Z</time>
      </trkpt>
      <trkpt lat="43.33494" lon="2.43173">
        <ele>371.4</ele>
        <time>2023-05-28T06:12:25Z</time>
      </trkpt>
      <trkpt lat="43.33496" lon="2.43172">
        <ele>371.5</ele>
        <time>2023-05-28T06:12:26Z</time>
      </trkpt>
      <trkpt lat="43.33497" lon="2.4317">
        <ele>371.6</ele>
        <time>2023-05-28T06:12:27Z</time>
      </trkpt>
      <trkpt lat="43.33498" lon="2.43169">
        <ele>371.7</ele>
        <time>2023-05-28T06:12:28Z</time>
      </trkpt>
      <trkpt lat="43.33499" lon="2.43168">
        <ele>371.8</ele>
        <time>2023-05-28T06:12:29Z</time>
      </trkpt>
      <trkpt lat="43.335" lon="2.43166">
        <ele>371.9</ele>
        <time>2023-05-28T06:12:30Z</time>
      </trkpt>
      <trkpt lat="43.33501" lon="2.43164">
        <ele>372</ele>
        <time>2023-05-28T06:12:31Z</time>
      </trkpt>
      <trkpt lat="43.33502" lon="2.43163">
        <ele>372.1</ele>
        <time>2023-05-28T06:12:32Z</time>
      </trkpt>
      <trkpt lat="43.33502" lon="2.43162">
        <ele>372.2</ele>
        <time>2023-05-28T06:12:33Z</time>
      </trkpt>
      <trkpt lat="43.33503" lon="2.43161">
        <ele>372.3</ele>
        <time>2023-05-28T06:12:34Z</time>
      </trkpt>
      <trkpt lat="43.33504" lon="2.4316">
        <ele>372.4</ele>
        <time>2023-05-28T06:12:35Z</time>
      </trkpt>
      <trkpt lat="43.33505" lon="2.43158">
        <ele>372.6</ele>
        <time>2023-05-28T06:12:36Z</time>
      </trkpt>
      <trkpt lat="43.33505" lon="2.43156">
        <ele>372.7</ele>
        <time>2023-05-28T06:12:37Z</time>
      </trkpt>
      <trkpt lat="43.33505" lon="2.43152">
        <ele>372.9</ele>
        <time>2023-05-28T06:12:38Z</time>
      </trkpt>
      <trkpt lat="43.33505" lon="2.43151">
        <ele>373</ele>
        <time>2023-05-28T06:12:39Z</time>
      </trkpt>
      <trkpt lat="43.33505" lon="2.43149">
        <ele>373.1</ele>
        <time>2023-05-28T06:12:40Z</time>
      </trkpt>
      <trkpt lat="43.33505" lon="2.43147">
        <ele>373.3</ele>
        <time>2023-05-28T06:12:41Z</time>
      </trkpt>
      <trkpt lat="43.33505" lon="2.43144">
        <ele>373.5</ele>
        <time>2023-05-28T06:12:42Z</time>
      </trkpt>
      <trkpt lat="43.33505" lon="2.43143">
        <ele>373.6</ele>
        <time>2023-05-28T06:12:43Z</time>
      </trkpt>
      <trkpt lat="43.33505" lon="2.43141">
        <ele>373.7</ele>
        <time>2023-05-28T06:12:44Z</time>
      </trkpt>
      <trkpt lat="43.33505" lon="2.4314">
        <ele>373.8</ele>
        <time>2023-05-28T06:12:45Z</time>
      </trkpt>
      <trkpt lat="43.33504" lon="2.43137">
        <ele>374</ele>
        <time>2023-05-28T06:12:46Z</time>
      </trkpt>
      <trkpt lat="43.33504" lon="2.43134">
        <ele>374.2</ele>
        <time>2023-05-28T06:12:47Z</time>
      </trkpt>
      <trkpt lat="43.33503" lon="2.43132">
        <ele>374.4</ele>
        <time>2023-05-28T06:12:48Z</time>
      </trkpt>
      <trkpt lat="43.33502" lon="2.4313">
        <ele>374.6</ele>
        <time>2023-05-28T06:12:49Z</time>
      </trkpt>
      <trkpt lat="43.33502" lon="2.43128">
        <ele>374.8</ele>
        <time>2023-05-28T06:12:50Z</time>
      </trkpt>
      <trkpt lat="43.33501" lon="2.43126">
        <ele>375</ele>
        <time>2023-05-28T06:12:51Z</time>
      </trkpt>
      <trkpt lat="43.335" lon="2.43124">
        <ele>375.2</ele>
        <time>2023-05-28T06:12:52Z</time>
      </trkpt>
      <trkpt lat="43.33499" lon="2.43123">
        <ele>375.4</ele>
        <time>2023-05-28T06:12:53Z</time>
      </trkpt>
      <trkpt lat="43.33498" lon="2.43122">
        <ele>375.5</ele>
        <time>2023-05-28T06:12:54Z</time>
      </trkpt>
      <trkpt lat="43.33495" lon="2.43121">
        <ele>375.8</ele>
        <time>2023-05-28T06:12:55Z</time>
      </trkpt>
      <trkpt lat="43.33494" lon="2.4312">
        <ele>375.9</ele>
        <time>2023-05-28T06:12:56Z</time>
      </trkpt>
      <trkpt lat="43.33493" lon="2.43119">
        <ele>376.1</ele>
        <time>2023-05-28T06:12:57Z</time>
      </trkpt>
      <trkpt lat="43.33491" lon="2.43118">
        <ele>376.3</ele>
        <time>2023-05-28T06:12:58Z</time>
      </trkpt>
      <trkpt lat="43.33491" lon="2.43117">
        <ele>376.4</ele>
        <time>2023-05-28T06:12:59Z</time>
      </trkpt>
      <trkpt lat="43.3349" lon="2.43116">
        <ele>376.5</ele>
        <time>2023-05-28T06:13:00Z</time>
      </trkpt>
      <trkpt lat="43.33489" lon="2.43115">
        <ele>376.7</ele>
        <time>2023-05-28T06:13:01Z</time>
      </trkpt>
      <trkpt lat="43.33488" lon="2.43114">
        <ele>376.8</ele>
        <time>2023-05-28T06:13:02Z</time>
      </trkpt>
      <trkpt lat="43.33487" lon="2.43113">
        <ele>376.9</ele>
        <time>2023-05-28T06:13:03Z</time>
      </trkpt>
      <trkpt lat="43.33485" lon="2.43113">
        <ele>377.1</ele>
        <time>2023-05-28T06:13:04Z</time>
      </trkpt>
      <trkpt lat="43.33484" lon="2.43112">
        <ele>377.3</ele>
        <time>2023-05-28T06:13:05Z</time>
      </trkpt>
      <trkpt lat="43.33482" lon="2.4311">
        <ele>377.5</ele>
        <time>2023-05-28T06:13:06Z</time>
      </trkpt>
      <trkpt lat="43.33482" lon="2.43109">
        <ele>377.6</ele>
        <time>2023-05-28T06:13:07Z</time>
      </trkpt>
      <trkpt lat="43.33481" lon="2.43108">
        <ele>377.7</ele>
        <time>2023-05-28T06:13:08Z</time>
      </trkpt>
      <trkpt lat="43.33481" lon="2.43108">
        <ele>377.8</ele>
        <time>2023-05-28T06:13:09Z</time>
      </trkpt>
      <trkpt lat="43.3348" lon="2.43106">
        <ele>377.9</ele>
        <time>2023-05-28T06:13:10Z</time>
      </trkpt>
      <trkpt lat="43.33479" lon="2.43106">
        <ele>378.1</ele>
        <time>2023-05-28T06:13:11Z</time>
      </trkpt>
      <trkpt lat="43.33479" lon="2.43105">
        <ele>378.2</ele>
        <time>2023-05-28T06:13:12Z</time>
      </trkpt>
      <trkpt lat="43.33478" lon="2.43104">
        <ele>378.3</ele>
        <time>2023-05-28T06:13:13Z</time>
      </trkpt>
      <trkpt lat="43.33476" lon="2.43103">
        <ele>378.5</ele>
        <time>2023-05-28T06:13:14Z</time>
      </trkpt>
      <trkpt lat="43.33475" lon="2.43102">
        <ele>378.8</ele>
        <time>2023-05-28T06:13:15Z</time>
      </trkpt>
      <trkpt lat="43.33474" lon="2.431">
        <ele>379</ele>
        <time>2023-05-28T06:13:16Z</time>
      </trkpt>
      <trkpt lat="43.33473" lon="2.43099">
        <ele>379.1</ele>
        <time>2023-05-28T06:13:17Z</time>
      </trkpt>
      <trkpt lat="43.33472" lon="2.43097">
        <ele>379.5</ele>
        <time>2023-05-28T06:13:18Z</time>
      </trkpt>
      <trkpt lat="43.33471" lon="2.43095">
        <ele>379.7</ele>
        <time>2023-05-28T06:13:19Z</time>
      </trkpt>
      <trkpt lat="43.33471" lon="2.43093">
        <ele>380</ele>
        <time>2023-05-28T06:13:20Z</time>
      </trkpt>
      <trkpt lat="43.33471" lon="2.43092">
        <ele>380.1</ele>
        <time>2023-05-28T06:13:21Z</time>
      </trkpt>
      <trkpt lat="43.33471" lon="2.43091">
        <ele>380.3</ele>
        <time>2023-05-28T06:13:22Z</time>
      </trkpt>
      <trkpt lat="43.33472" lon="2.43088">
        <ele>380.7</ele>
        <time>2023-05-28T06:13:23Z</time>
      </trkpt>
      <trkpt lat="43.33473" lon="2.43087">
        <ele>380.8</ele>
        <time>2023-05-28T06:13:24Z</time>
      </trkpt>
      <trkpt lat="43.33473" lon="2.43086">
        <ele>380.9</ele>
        <time>2023-05-28T06:13:25Z</time>
      </trkpt>
      <trkpt lat="43.33474" lon="2.43084">
        <ele>381.2</ele>
        <time>2023-05-28T06:13:26Z</time>
      </trkpt>
      <trkpt lat="43.33475" lon="2.43082">
        <ele>381.4</ele>
        <time>2023-05-28T06:13:27Z</time>
      </trkpt>
      <trkpt lat="43.33475" lon="2.43079">
        <ele>381.6</ele>
        <time>2023-05-28T06:13:28Z</time>
      </trkpt>
      <trkpt lat="43.33475" lon="2.43077">
        <ele>381.8</ele>
        <time>2023-05-28T06:13:29Z</time>
      </trkpt>
      <trkpt lat="43.33475" lon="2.43075">
        <ele>381.9</ele>
        <time>2023-05-28T06:13:30Z</time>
      </trkpt>
      <trkpt lat="43.33474" lon="2.43073">
        <ele>382.1</ele>
        <time>2023-05-28T06:13:31Z</time>
      </trkpt>
      <trkpt lat="43.33474" lon="2.43071">
        <ele>382.2</ele>
        <time>2023-05-28T06:13:32Z</time>
      </trkpt>
      <trkpt lat="43.33473" lon="2.4307">
        <ele>382.3</ele>
        <time>2023-05-28T06:13:33Z</time>
      </trkpt>
      <trkpt lat="43.33472" lon="2.43069">
        <ele>382.3</ele>
        <time>2023-05-28T06:13:34Z</time>
      </trkpt>
      <trkpt lat="43.33471" lon="2.43067">
        <ele>382.4</ele>
        <time>2023-05-28T06:13:35Z</time>
      </trkpt>
      <trkpt lat="43.3347" lon="2.43066">
        <ele>382.5</ele>
        <time>2023-05-28T06:13:36Z</time>
      </trkpt>
      <trkpt lat="43.33469" lon="2.43064">
        <ele>382.6</ele>
        <time>2023-05-28T06:13:37Z</time>
      </trkpt>
      <trkpt lat="43.33468" lon="2.43063">
        <ele>382.7</ele>
        <time>2023-05-28T06:13:38Z</time>
      </trkpt>
      <trkpt lat="43.33466" lon="2.43062">
        <ele>382.8</ele>
        <time>2023-05-28T06:13:39Z</time>
      </trkpt>
      <trkpt lat="43.33465" lon="2.43059">
        <ele>382.9</ele>
        <time>2023-05-28T06:13:40Z</time>
      </trkpt>
      <trkpt lat="43.33465" lon="2.43058">
        <ele>382.9</ele>
        <time>2023-05-28T06:13:41Z</time>
      </trkpt>
      <trkpt lat="43.33464" lon="2.43057">
        <ele>382.9</ele>
        <time>2023-05-28T06:13:42Z</time>
      </trkpt>
      <trkpt lat="43.33463" lon="2.43055">
        <ele>383</ele>
        <time>2023-05-28T06:13:43Z</time>
      </trkpt>
      <trkpt lat="43.33462" lon="2.43054">
        <ele>383.1</ele>
        <time>2023-05-28T06:13:44Z</time>
      </trkpt>
      <trkpt lat="43.33462" lon="2.43053">
        <ele>383.1</ele>
        <time>2023-05-28T06:13:45Z</time>
      </trkpt>
      <trkpt lat="43.33461" lon="2.43051">
        <ele>383.2</ele>
        <time>2023-05-28T06:13:46Z</time>
      </trkpt>
      <trkpt lat="43.3346" lon="2.4305">
        <ele>383.2</ele>
        <time>2023-05-28T06:13:47Z</time>
      </trkpt>
      <trkpt lat="43.3346" lon="2.43048">
        <ele>383.3</ele>
        <time>2023-05-28T06:13:48Z</time>
      </trkpt>
      <trkpt lat="43.3346" lon="2.43046">
        <ele>383.3</ele>
        <time>2023-05-28T06:13:49Z</time>
      </trkpt>
      <trkpt lat="43.3346" lon="2.43044">
        <ele>383.4</ele>
        <time>2023-05-28T06:13:50Z</time>
      </trkpt>
      <trkpt lat="43.3346" lon="2.43042">
        <ele>383.5</ele>
        <time>2023-05-28T06:13:51Z</time>
      </trkpt>
      <trkpt lat="43.3346" lon="2.43039">
        <ele>383.5</ele>
        <time>2023-05-28T06:13:52Z</time>
      </trkpt>
      <trkpt lat="43.3346" lon="2.43038">
        <ele>383.6</ele>
        <time>2023-05-28T06:13:53Z</time>
      </trkpt>
      <trkpt lat="43.3346" lon="2.43036">
        <ele>383.6</ele>
        <time>2023-05-28T06:13:54Z</time>
      </trkpt>
      <trkpt lat="43.33461" lon="2.43034">
        <ele>383.7</ele>
        <time>2023-05-28T06:13:55Z</time>
      </trkpt>
      <trkpt lat="43.33461" lon="2.43033">
        <ele>383.7</ele>
        <time>2023-05-28T06:13:56Z</time>
      </trkpt>
      <trkpt lat="43.33461" lon="2.43031">
        <ele>383.8</ele>
        <time>2023-05-28T06:13:57Z</time>
      </trkpt>
      <trkpt lat="43.33461" lon="2.4303">
        <ele>383.8</ele>
        <time>2023-05-28T06:13:58Z</time>
      </trkpt>
      <trkpt lat="43.33462" lon="2.43029">
        <ele>383.9</ele>
        <time>2023-05-28T06:13:59Z</time>
      </trkpt>
      <trkpt lat="43.33462" lon="2.43027">
        <ele>383.9</ele>
        <time>2023-05-28T06:14:00Z</time>
      </trkpt>
      <trkpt lat="43.33463" lon="2.43026">
        <ele>384</ele>
        <time>2023-05-28T06:14:01Z</time>
      </trkpt>
      <trkpt lat="43.33464" lon="2.43025">
        <ele>384</ele>
        <time>2023-05-28T06:14:02Z</time>
      </trkpt>
      <trkpt lat="43.33465" lon="2.43024">
        <ele>384.3</ele>
        <time>2023-05-28T06:14:03Z</time>
      </trkpt>
      <trkpt lat="43.33466" lon="2.43023">
        <ele>384.4</ele>
        <time>2023-05-28T06:14:04Z</time>
      </trkpt>
      <trkpt lat="43.33466" lon="2.43022">
        <ele>384.4</ele>
        <time>2023-05-28T06:14:05Z</time>
      </trkpt>
      <trkpt lat="43.33467" lon="2.43021">
        <ele>384.5</ele>
        <time>2023-05-28T06:14:06Z</time>
      </trkpt>
      <trkpt lat="43.33468" lon="2.4302">
        <ele>384.6</ele>
        <time>2023-05-28T06:14:07Z</time>
      </trkpt>
      <trkpt lat="43.33469" lon="2.43019">
        <ele>384.6</ele>
        <time>2023-05-28T06:14:08Z</time>
      </trkpt>
      <trkpt lat="43.3347" lon="2.43019">
        <ele>384.7</ele>
        <time>2023-05-28T06:14:09Z</time>
      </trkpt>
      <trkpt lat="43.33471" lon="2.43018">
        <ele>384.8</ele>
        <time>2023-05-28T06:14:10Z</time>
      </trkpt>
      <trkpt lat="43.33472" lon="2.43016">
        <ele>384.8</ele>
        <time>2023-05-28T06:14:11Z</time>
      </trkpt>
      <trkpt lat="43.33473" lon="2.43015">
        <ele>384.9</ele>
        <time>2023-05-28T06:14:12Z</time>
      </trkpt>
      <trkpt lat="43.33474" lon="2.43014">
        <ele>385</ele>
        <time>2023-05-28T06:14:13Z</time>
      </trkpt>
      <trkpt lat="43.33474" lon="2.43013">
        <ele>385.1</ele>
        <time>2023-05-28T06:14:14Z</time>
      </trkpt>
      <trkpt lat="43.33475" lon="2.43012">
        <ele>385.1</ele>
        <time>2023-05-28T06:14:15Z</time>
      </trkpt>
      <trkpt lat="43.33476" lon="2.43011">
        <ele>385.2</ele>
        <time>2023-05-28T06:14:16Z</time>
      </trkpt>
      <trkpt lat="43.33477" lon="2.43009">
        <ele>385.3</ele>
        <time>2023-05-28T06:14:17Z</time>
      </trkpt>
      <trkpt lat="43.33478" lon="2.43008">
        <ele>385.3</ele>
        <time>2023-05-28T06:14:18Z</time>
      </trkpt>
      <trkpt lat="43.33479" lon="2.43007">
        <ele>385.4</ele>
        <time>2023-05-28T06:14:19Z</time>
      </trkpt>
      <trkpt lat="43.3348" lon="2.43007">
        <ele>385.5</ele>
        <time>2023-05-28T06:14:20Z</time>
      </trkpt>
      <trkpt lat="43.33481" lon="2.43007">
        <ele>385.5</ele>
        <time>2023-05-28T06:14:21Z</time>
      </trkpt>
      <trkpt lat="43.33483" lon="2.43006">
        <ele>385.6</ele>
        <time>2023-05-28T06:14:22Z</time>
      </trkpt>
      <trkpt lat="43.33484" lon="2.43006">
        <ele>385.7</ele>
        <time>2023-05-28T06:14:23Z</time>
      </trkpt>
      <trkpt lat="43.33485" lon="2.43005">
        <ele>385.8</ele>
        <time>2023-05-28T06:14:24Z</time>
      </trkpt>
      <trkpt lat="43.33486" lon="2.43004">
        <ele>385.9</ele>
        <time>2023-05-28T06:14:25Z</time>
      </trkpt>
      <trkpt lat="43.33488" lon="2.43004">
        <ele>386.1</ele>
        <time>2023-05-28T06:14:26Z</time>
      </trkpt>
      <trkpt lat="43.33489" lon="2.43004">
        <ele>386.1</ele>
        <time>2023-05-28T06:14:27Z</time>
      </trkpt>
      <trkpt lat="43.3349" lon="2.43004">
        <ele>386.2</ele>
        <time>2023-05-28T06:14:28Z</time>
      </trkpt>
      <trkpt lat="43.33492" lon="2.43004">
        <ele>386.3</ele>
        <time>2023-05-28T06:14:29Z</time>
      </trkpt>
      <trkpt lat="43.33493" lon="2.43004">
        <ele>386.4</ele>
        <time>2023-05-28T06:14:30Z</time>
      </trkpt>
      <trkpt lat="43.33495" lon="2.43005">
        <ele>386.5</ele>
        <time>2023-05-28T06:14:31Z</time>
      </trkpt>
      <trkpt lat="43.33496" lon="2.43005">
        <ele>386.6</ele>
        <time>2023-05-28T06:14:32Z</time>
      </trkpt>
      <trkpt lat="43.33498" lon="2.43006">
        <ele>386.7</ele>
        <time>2023-05-28T06:14:33Z</time>
      </trkpt>
      <trkpt lat="43.33499" lon="2.43006">
        <ele>386.8</ele>
        <time>2023-05-28T06:14:34Z</time>
      </trkpt>
      <trkpt lat="43.33502" lon="2.43006">
        <ele>387</ele>
        <time>2023-05-28T06:14:35Z</time>
      </trkpt>
      <trkpt lat="43.33503" lon="2.43006">
        <ele>387.1</ele>
        <time>2023-05-28T06:14:36Z</time>
      </trkpt>
      <trkpt lat="43.33504" lon="2.43007">
        <ele>387.1</ele>
        <time>2023-05-28T06:14:37Z</time>
      </trkpt>
      <trkpt lat="43.33506" lon="2.43007">
        <ele>387.2</ele>
        <time>2023-05-28T06:14:38Z</time>
      </trkpt>
      <trkpt lat="43.33506" lon="2.43007">
        <ele>387.3</ele>
        <time>2023-05-28T06:14:39Z</time>
      </trkpt>
      <trkpt lat="43.33507" lon="2.43007">
        <ele>387.3</ele>
        <time>2023-05-28T06:14:40Z</time>
      </trkpt>
      <trkpt lat="43.33508" lon="2.43007">
        <ele>387.4</ele>
        <time>2023-05-28T06:14:41Z</time>
      </trkpt>
      <trkpt lat="43.33509" lon="2.43006">
        <ele>387.4</ele>
        <time>2023-05-28T06:14:42Z</time>
      </trkpt>
      <trkpt lat="43.3351" lon="2.43006">
        <ele>387.4</ele>
        <time>2023-05-28T06:14:43Z</time>
      </trkpt>
      <trkpt lat="43.33511" lon="2.43005">
        <ele>387.5</ele>
        <time>2023-05-28T06:14:44Z</time>
      </trkpt>
      <trkpt lat="43.33512" lon="2.43005">
        <ele>387.5</ele>
        <time>2023-05-28T06:14:45Z</time>
      </trkpt>
      <trkpt lat="43.33513" lon="2.43005">
        <ele>387.6</ele>
        <time>2023-05-28T06:14:46Z</time>
      </trkpt>
      <trkpt lat="43.33514" lon="2.43004">
        <ele>387.6</ele>
        <time>2023-05-28T06:14:47Z</time>
      </trkpt>
      <trkpt lat="43.33516" lon="2.43005">
        <ele>387.6</ele>
        <time>2023-05-28T06:14:48Z</time>
      </trkpt>
      <trkpt lat="43.33517" lon="2.43005">
        <ele>387.7</ele>
        <time>2023-05-28T06:14:49Z</time>
      </trkpt>
      <trkpt lat="43.33518" lon="2.43005">
        <ele>387.7</ele>
        <time>2023-05-28T06:14:50Z</time>
      </trkpt>
      <trkpt lat="43.3352" lon="2.43006">
        <ele>387.7</ele>
        <time>2023-05-28T06:14:51Z</time>
      </trkpt>
      <trkpt lat="43.33522" lon="2.43006">
        <ele>387.7</ele>
        <time>2023-05-28T06:14:52Z</time>
      </trkpt>
      <trkpt lat="43.33524" lon="2.43006">
        <ele>387.7</ele>
        <time>2023-05-28T06:14:53Z</time>
      </trkpt>
      <trkpt lat="43.33525" lon="2.43007">
        <ele>387.7</ele>
        <time>2023-05-28T06:14:54Z</time>
      </trkpt>
      <trkpt lat="43.33525" lon="2.43007">
        <ele>387.7</ele>
        <time>2023-05-28T06:14:55Z</time>
      </trkpt>
      <trkpt lat="43.33527" lon="2.43007">
        <ele>387.7</ele>
        <time>2023-05-28T06:14:56Z</time>
      </trkpt>
      <trkpt lat="43.33528" lon="2.43008">
        <ele>387.8</ele>
        <time>2023-05-28T06:14:57Z</time>
      </trkpt>
      <trkpt lat="43.3353" lon="2.43009">
        <ele>387.8</ele>
        <time>2023-05-28T06:14:58Z</time>
      </trkpt>
      <trkpt lat="43.33532" lon="2.4301">
        <ele>387.7</ele>
        <time>2023-05-28T06:14:59Z</time>
      </trkpt>
      <trkpt lat="43.33533" lon="2.4301">
        <ele>387.7</ele>
        <time>2023-05-28T06:15:00Z</time>
      </trkpt>
      <trkpt lat="43.33535" lon="2.43011">
        <ele>387.7</ele>
        <time>2023-05-28T06:15:01Z</time>
      </trkpt>
      <trkpt lat="43.33538" lon="2.43012">
        <ele>387.7</ele>
        <time>2023-05-28T06:15:02Z</time>
      </trkpt>
      <trkpt lat="43.33539" lon="2.43012">
        <ele>387.7</ele>
        <time>2023-05-28T06:15:03Z</time>
      </trkpt>
      <trkpt lat="43.3354" lon="2.43013">
        <ele>387.7</ele>
        <time>2023-05-28T06:15:04Z</time>
      </trkpt>
      <trkpt lat="43.33542" lon="2.43013">
        <ele>387.6</ele>
        <time>2023-05-28T06:15:05Z</time>
      </trkpt>
      <trkpt lat="43.33543" lon="2.43014">
        <ele>387.6</ele>
        <time>2023-05-28T06:15:06Z</time>
      </trkpt>
      <trkpt lat="43.33545" lon="2.43015">
        <ele>387.6</ele>
        <time>2023-05-28T06:15:07Z</time>
      </trkpt>
      <trkpt lat="43.33548" lon="2.43016">
        <ele>387.6</ele>
        <time>2023-05-28T06:15:08Z</time>
      </trkpt>
      <trkpt lat="43.33549" lon="2.43017">
        <ele>387.5</ele>
        <time>2023-05-28T06:15:09Z</time>
      </trkpt>
      <trkpt lat="43.33552" lon="2.43018">
        <ele>387.5</ele>
        <time>2023-05-28T06:15:10Z</time>
      </trkpt>
      <trkpt lat="43.33553" lon="2.43018">
        <ele>387.5</ele>
        <time>2023-05-28T06:15:11Z</time>
      </trkpt>
      <trkpt lat="43.33556" lon="2.43019">
        <ele>387.4</ele>
        <time>2023-05-28T06:15:12Z</time>
      </trkpt>
      <trkpt lat="43.33557" lon="2.43019">
        <ele>387.4</ele>
        <time>2023-05-28T06:15:13Z</time>
      </trkpt>
      <trkpt lat="43.3356" lon="2.43019">
        <ele>387.3</ele>
        <time>2023-05-28T06:15:14Z</time>
      </trkpt>
      <trkpt lat="43.33561" lon="2.43019">
        <ele>387.3</ele>
        <time>2023-05-28T06:15:15Z</time>
      </trkpt>
      <trkpt lat="43.33564" lon="2.4302">
        <ele>387.3</ele>
        <time>2023-05-28T06:15:16Z</time>
      </trkpt>
      <trkpt lat="43.33565" lon="2.4302">
        <ele>387.2</ele>
        <time>2023-05-28T06:15:17Z</time>
      </trkpt>
      <trkpt lat="43.33567" lon="2.4302">
        <ele>387.2</ele>
        <time>2023-05-28T06:15:18Z</time>
      </trkpt>
      <trkpt lat="43.33568" lon="2.4302">
        <ele>387.1</ele>
        <time>2023-05-28T06:15:19Z</time>
      </trkpt>
      <trkpt lat="43.33571" lon="2.43021">
        <ele>387.1</ele>
        <time>2023-05-28T06:15:20Z</time>
      </trkpt>
      <trkpt lat="43.33572" lon="2.43021">
        <ele>387.1</ele>
        <time>2023-05-28T06:15:21Z</time>
      </trkpt>
      <trkpt lat="43.33576" lon="2.43022">
        <ele>387</ele>
        <time>2023-05-28T06:15:22Z</time>
      </trkpt>
      <trkpt lat="43.33577" lon="2.43022">
        <ele>387</ele>
        <time>2023-05-28T06:15:23Z</time>
      </trkpt>
      <trkpt lat="43.33581" lon="2.43023">
        <ele>386.9</ele>
        <time>2023-05-28T06:15:24Z</time>
      </trkpt>
      <trkpt lat="43.33582" lon="2.43023">
        <ele>386.9</ele>
        <time>2023-05-28T06:15:25Z</time>
      </trkpt>
      <trkpt lat="43.33586" lon="2.43023">
        <ele>386.8</ele>
        <time>2023-05-28T06:15:26Z</time>
      </trkpt>
      <trkpt lat="43.33587" lon="2.43023">
        <ele>386.8</ele>
        <time>2023-05-28T06:15:27Z</time>
      </trkpt>
      <trkpt lat="43.3359" lon="2.43023">
        <ele>386.8</ele>
        <time>2023-05-28T06:15:28Z</time>
      </trkpt>
      <trkpt lat="43.33593" lon="2.43022">
        <ele>386.7</ele>
        <time>2023-05-28T06:15:29Z</time>
      </trkpt>
      <trkpt lat="43.33594" lon="2.43021">
        <ele>386.7</ele>
        <time>2023-05-28T06:15:30Z</time>
      </trkpt>
      <trkpt lat="43.33596" lon="2.4302">
        <ele>386.7</ele>
        <time>2023-05-28T06:15:31Z</time>
      </trkpt>
      <trkpt lat="43.33597" lon="2.43019">
        <ele>386.7</ele>
        <time>2023-05-28T06:15:32Z</time>
      </trkpt>
      <trkpt lat="43.33597" lon="2.43018">
        <ele>386.6</ele>
        <time>2023-05-28T06:15:33Z</time>
      </trkpt>
      <trkpt lat="43.33599" lon="2.43017">
        <ele>386.6</ele>
        <time>2023-05-28T06:15:34Z</time>
      </trkpt>
      <trkpt lat="43.336" lon="2.43016">
        <ele>386.5</ele>
        <time>2023-05-28T06:15:35Z</time>
      </trkpt>
      <trkpt lat="43.33602" lon="2.43015">
        <ele>386.5</ele>
        <time>2023-05-28T06:15:36Z</time>
      </trkpt>
      <trkpt lat="43.33603" lon="2.43015">
        <ele>386.4</ele>
        <time>2023-05-28T06:15:37Z</time>
      </trkpt>
      <trkpt lat="43.33604" lon="2.43015">
        <ele>386.4</ele>
        <time>2023-05-28T06:15:38Z</time>
      </trkpt>
      <trkpt lat="43.33605" lon="2.43014">
        <ele>386.3</ele>
        <time>2023-05-28T06:15:39Z</time>
      </trkpt>
      <trkpt lat="43.33607" lon="2.43013">
        <ele>386.2</ele>
        <time>2023-05-28T06:15:40Z</time>
      </trkpt>
      <trkpt lat="43.3361" lon="2.43012">
        <ele>386</ele>
        <time>2023-05-28T06:15:41Z</time>
      </trkpt>
      <trkpt lat="43.33611" lon="2.43011">
        <ele>386</ele>
        <time>2023-05-28T06:15:42Z</time>
      </trkpt>
      <trkpt lat="43.33614" lon="2.4301">
        <ele>385.8</ele>
        <time>2023-05-28T06:15:43Z</time>
      </trkpt>
      <trkpt lat="43.33615" lon="2.43009">
        <ele>385.7</ele>
        <time>2023-05-28T06:15:44Z</time>
      </trkpt>
      <trkpt lat="43.33618" lon="2.43008">
        <ele>385.5</ele>
        <time>2023-05-28T06:15:45Z</time>
      </trkpt>
      <trkpt lat="43.33618" lon="2.43008">
        <ele>385.5</ele>
        <time>2023-05-28T06:15:46Z</time>
      </trkpt>
      <trkpt lat="43.33621" lon="2.43008">
        <ele>385.3</ele>
        <time>2023-05-28T06:15:47Z</time>
      </trkpt>
      <trkpt lat="43.33622" lon="2.43008">
        <ele>385.2</ele>
        <time>2023-05-28T06:15:48Z</time>
      </trkpt>
      <trkpt lat="43.33625" lon="2.43009">
        <ele>385</ele>
        <time>2023-05-28T06:15:49Z</time>
      </trkpt>
      <trkpt lat="43.33626" lon="2.43009">
        <ele>384.8</ele>
        <time>2023-05-28T06:15:50Z</time>
      </trkpt>
      <trkpt lat="43.33629" lon="2.43011">
        <ele>384.7</ele>
        <time>2023-05-28T06:15:51Z</time>
      </trkpt>
      <trkpt lat="43.3363" lon="2.43011">
        <ele>384.7</ele>
        <time>2023-05-28T06:15:52Z</time>
      </trkpt>
      <trkpt lat="43.33632" lon="2.43011">
        <ele>384.7</ele>
        <time>2023-05-28T06:15:53Z</time>
      </trkpt>
      <trkpt lat="43.33633" lon="2.4301">
        <ele>384.7</ele>
        <time>2023-05-28T06:15:54Z</time>
      </trkpt>
      <trkpt lat="43.33637" lon="2.43008">
        <ele>384.7</ele>
        <time>2023-05-28T06:15:55Z</time>
      </trkpt>
      <trkpt lat="43.33638" lon="2.43008">
        <ele>384.7</ele>
        <time>2023-05-28T06:15:56Z</time>
      </trkpt>
      <trkpt lat="43.33642" lon="2.43005">
        <ele>384.7</ele>
        <time>2023-05-28T06:15:57Z</time>
      </trkpt>
      <trkpt lat="43.33643" lon="2.43005">
        <ele>384.7</ele>
        <time>2023-05-28T06:15:58Z</time>
      </trkpt>
      <trkpt lat="43.33646" lon="2.43002">
        <ele>384.8</ele>
        <time>2023-05-28T06:15:59Z</time>
      </trkpt>
      <trkpt lat="43.33647" lon="2.43002">
        <ele>384.8</ele>
        <time>2023-05-28T06:16:00Z</time>
      </trkpt>
      <trkpt lat="43.3365" lon="2.43">
        <ele>384.9</ele>
        <time>2023-05-28T06:16:01Z</time>
      </trkpt>
      <trkpt lat="43.33651" lon="2.42999">
        <ele>384.9</ele>
        <time>2023-05-28T06:16:02Z</time>
      </trkpt>
      <trkpt lat="43.33654" lon="2.42998">
        <ele>385</ele>
        <time>2023-05-28T06:16:03Z</time>
      </trkpt>
      <trkpt lat="43.33657" lon="2.42995">
        <ele>385.1</ele>
        <time>2023-05-28T06:16:04Z</time>
      </trkpt>
      <trkpt lat="43.33658" lon="2.42994">
        <ele>385.1</ele>
        <time>2023-05-28T06:16:05Z</time>
      </trkpt>
      <trkpt lat="43.3366" lon="2.42992">
        <ele>385.3</ele>
        <time>2023-05-28T06:16:06Z</time>
      </trkpt>
      <trkpt lat="43.33661" lon="2.42991">
        <ele>385.3</ele>
        <time>2023-05-28T06:16:07Z</time>
      </trkpt>
      <trkpt lat="43.33664" lon="2.42989">
        <ele>385.5</ele>
        <time>2023-05-28T06:16:08Z</time>
      </trkpt>
      <trkpt lat="43.33665" lon="2.42988">
        <ele>385.5</ele>
        <time>2023-05-28T06:16:09Z</time>
      </trkpt>
      <trkpt lat="43.33667" lon="2.42986">
        <ele>385.7</ele>
        <time>2023-05-28T06:16:10Z</time>
      </trkpt>
      <trkpt lat="43.33668" lon="2.42985">
        <ele>385.8</ele>
        <time>2023-05-28T06:16:11Z</time>
      </trkpt>
      <trkpt lat="43.33671" lon="2.42983">
        <ele>386</ele>
        <time>2023-05-28T06:16:12Z</time>
      </trkpt>
      <trkpt lat="43.33672" lon="2.42982">
        <ele>386</ele>
        <time>2023-05-28T06:16:13Z</time>
      </trkpt>
      <trkpt lat="43.33675" lon="2.4298">
        <ele>386.2</ele>
        <time>2023-05-28T06:16:14Z</time>
      </trkpt>
      <trkpt lat="43.33676" lon="2.42979">
        <ele>386.3</ele>
        <time>2023-05-28T06:16:15Z</time>
      </trkpt>
      <trkpt lat="43.33679" lon="2.42978">
        <ele>386.5</ele>
        <time>2023-05-28T06:16:16Z</time>
      </trkpt>
      <trkpt lat="43.33679" lon="2.42978">
        <ele>386.6</ele>
        <time>2023-05-28T06:16:17Z</time>
      </trkpt>
      <trkpt lat="43.33683" lon="2.42977">
        <ele>386.9</ele>
        <time>2023-05-28T06:16:18Z</time>
      </trkpt>
      <trkpt lat="43.33684" lon="2.42976">
        <ele>387</ele>
        <time>2023-05-28T06:16:19Z</time>
      </trkpt>
      <trkpt lat="43.33686" lon="2.42975">
        <ele>387.2</ele>
        <time>2023-05-28T06:16:20Z</time>
      </trkpt>
      <trkpt lat="43.33687" lon="2.42974">
        <ele>387.3</ele>
        <time>2023-05-28T06:16:21Z</time>
      </trkpt>
      <trkpt lat="43.33689" lon="2.42973">
        <ele>387.5</ele>
        <time>2023-05-28T06:16:22Z</time>
      </trkpt>
      <trkpt lat="43.3369" lon="2.42973">
        <ele>387.6</ele>
        <time>2023-05-28T06:16:23Z</time>
      </trkpt>
      <trkpt lat="43.33692" lon="2.42972">
        <ele>387.8</ele>
        <time>2023-05-28T06:16:24Z</time>
      </trkpt>
      <trkpt lat="43.33693" lon="2.42971">
        <ele>387.9</ele>
        <time>2023-05-28T06:16:25Z</time>
      </trkpt>
      <trkpt lat="43.33697" lon="2.4297">
        <ele>388.3</ele>
        <time>2023-05-28T06:16:26Z</time>
      </trkpt>
      <trkpt lat="43.33698" lon="2.42969">
        <ele>388.4</ele>
        <time>2023-05-28T06:16:27Z</time>
      </trkpt>
      <trkpt lat="43.337" lon="2.42968">
        <ele>388.7</ele>
        <time>2023-05-28T06:16:28Z</time>
      </trkpt>
      <trkpt lat="43.33702" lon="2.42967">
        <ele>388.8</ele>
        <time>2023-05-28T06:16:29Z</time>
      </trkpt>
      <trkpt lat="43.33705" lon="2.42966">
        <ele>389.2</ele>
        <time>2023-05-28T06:16:30Z</time>
      </trkpt>
      <trkpt lat="43.33706" lon="2.42965">
        <ele>389.3</ele>
        <time>2023-05-28T06:16:31Z</time>
      </trkpt>
      <trkpt lat="43.33709" lon="2.42964">
        <ele>389.7</ele>
        <time>2023-05-28T06:16:32Z</time>
      </trkpt>
      <trkpt lat="43.3371" lon="2.42963">
        <ele>389.8</ele>
        <time>2023-05-28T06:16:33Z</time>
      </trkpt>
      <trkpt lat="43.33712" lon="2.42963">
        <ele>390</ele>
        <time>2023-05-28T06:16:34Z</time>
      </trkpt>
      <trkpt lat="43.33714" lon="2.42962">
        <ele>390.2</ele>
        <time>2023-05-28T06:16:35Z</time>
      </trkpt>
      <trkpt lat="43.33715" lon="2.42961">
        <ele>390.3</ele>
        <time>2023-05-28T06:16:36Z</time>
      </trkpt>
      <trkpt lat="43.33717" lon="2.42961">
        <ele>390.5</ele>
        <time>2023-05-28T06:16:37Z</time>
      </trkpt>
      <trkpt lat="43.33719" lon="2.4296">
        <ele>390.7</ele>
        <time>2023-05-28T06:16:38Z</time>
      </trkpt>
      <trkpt lat="43.3372" lon="2.4296">
        <ele>390.8</ele>
        <time>2023-05-28T06:16:39Z</time>
      </trkpt>
      <trkpt lat="43.33723" lon="2.42958">
        <ele>391.1</ele>
        <time>2023-05-28T06:16:40Z</time>
      </trkpt>
      <trkpt lat="43.33724" lon="2.42958">
        <ele>391.2</ele>
        <time>2023-05-28T06:16:41Z</time>
      </trkpt>
      <trkpt lat="43.33726" lon="2.42957">
        <ele>391.4</ele>
        <time>2023-05-28T06:16:42Z</time>
      </trkpt>
      <trkpt lat="43.33727" lon="2.42956">
        <ele>391.6</ele>
        <time>2023-05-28T06:16:43Z</time>
      </trkpt>
      <trkpt lat="43.33729" lon="2.42956">
        <ele>391.7</ele>
        <time>2023-05-28T06:16:44Z</time>
      </trkpt>
      <trkpt lat="43.33731" lon="2.42955">
        <ele>391.9</ele>
        <time>2023-05-28T06:16:45Z</time>
      </trkpt>
      <trkpt lat="43.33733" lon="2.42954">
        <ele>392.1</ele>
        <time>2023-05-28T06:16:46Z</time>
      </trkpt>
      <trkpt lat="43.33734" lon="2.42954">
        <ele>392.3</ele>
        <time>2023-05-28T06:16:47Z</time>
      </trkpt>
      <trkpt lat="43.33737" lon="2.42954">
        <ele>392.5</ele>
        <time>2023-05-28T06:16:48Z</time>
      </trkpt>
      <trkpt lat="43.33738" lon="2.42954">
        <ele>392.6</ele>
        <time>2023-05-28T06:16:49Z</time>
      </trkpt>
      <trkpt lat="43.33739" lon="2.42953">
        <ele>392.7</ele>
        <time>2023-05-28T06:16:50Z</time>
      </trkpt>
      <trkpt lat="43.33741" lon="2.42953">
        <ele>392.9</ele>
        <time>2023-05-28T06:16:51Z</time>
      </trkpt>
      <trkpt lat="43.33743" lon="2.42953">
        <ele>393.1</ele>
        <time>2023-05-28T06:16:52Z</time>
      </trkpt>
      <trkpt lat="43.33744" lon="2.42953">
        <ele>393.2</ele>
        <time>2023-05-28T06:16:53Z</time>
      </trkpt>
      <trkpt lat="43.33746" lon="2.42952">
        <ele>393.4</ele>
        <time>2023-05-28T06:16:54Z</time>
      </trkpt>
      <trkpt lat="43.33747" lon="2.42952">
        <ele>393.5</ele>
        <time>2023-05-28T06:16:55Z</time>
      </trkpt>
      <trkpt lat="43.33748" lon="2.42952">
        <ele>393.6</ele>
        <time>2023-05-28T06:16:56Z</time>
      </trkpt>
      <trkpt lat="43.33751" lon="2.4295">
        <ele>393.8</ele>
        <time>2023-05-28T06:16:57Z</time>
      </trkpt>
      <trkpt lat="43.33752" lon="2.4295">
        <ele>393.9</ele>
        <time>2023-05-28T06:16:58Z</time>
      </trkpt>
      <trkpt lat="43.33755" lon="2.42949">
        <ele>394.2</ele>
        <time>2023-05-28T06:16:59Z</time>
      </trkpt>
      <trkpt lat="43.33756" lon="2.42949">
        <ele>394.3</ele>
        <time>2023-05-28T06:17:00Z</time>
      </trkpt>
      <trkpt lat="43.3376" lon="2.42946">
        <ele>394.7</ele>
        <time>2023-05-28T06:17:01Z</time>
      </trkpt>
      <trkpt lat="43.33761" lon="2.42946">
        <ele>394.8</ele>
        <time>2023-05-28T06:17:02Z</time>
      </trkpt>
      <trkpt lat="43.33763" lon="2.42943">
        <ele>395.1</ele>
        <time>2023-05-28T06:17:03Z</time>
      </trkpt>
      <trkpt lat="43.33764" lon="2.42943">
        <ele>395.2</ele>
        <time>2023-05-28T06:17:04Z</time>
      </trkpt>
      <trkpt lat="43.33766" lon="2.42941">
        <ele>395.4</ele>
        <time>2023-05-28T06:17:05Z</time>
      </trkpt>
      <trkpt lat="43.33766" lon="2.4294">
        <ele>395.4</ele>
        <time>2023-05-28T06:17:06Z</time>
      </trkpt>
      <trkpt lat="43.33767" lon="2.4294">
        <ele>395.5</ele>
        <time>2023-05-28T06:17:07Z</time>
      </trkpt>
      <trkpt lat="43.33769" lon="2.42938">
        <ele>395.7</ele>
        <time>2023-05-28T06:17:08Z</time>
      </trkpt>
      <trkpt lat="43.33769" lon="2.42937">
        <ele>395.8</ele>
        <time>2023-05-28T06:17:09Z</time>
      </trkpt>
      <trkpt lat="43.3377" lon="2.42936">
        <ele>395.8</ele>
        <time>2023-05-28T06:17:10Z</time>
      </trkpt>
      <trkpt lat="43.33771" lon="2.42935">
        <ele>396</ele>
        <time>2023-05-28T06:17:11Z</time>
      </trkpt>
      <trkpt lat="43.33773" lon="2.42934">
        <ele>396.1</ele>
        <time>2023-05-28T06:17:12Z</time>
      </trkpt>
      <trkpt lat="43.33776" lon="2.42933">
        <ele>396.4</ele>
        <time>2023-05-28T06:17:13Z</time>
      </trkpt>
      <trkpt lat="43.33777" lon="2.42932">
        <ele>396.5</ele>
        <time>2023-05-28T06:17:14Z</time>
      </trkpt>
      <trkpt lat="43.33781" lon="2.4293">
        <ele>396.7</ele>
        <time>2023-05-28T06:17:15Z</time>
      </trkpt>
      <trkpt lat="43.33782" lon="2.4293">
        <ele>396.8</ele>
        <time>2023-05-28T06:17:16Z</time>
      </trkpt>
      <trkpt lat="43.33785" lon="2.42928">
        <ele>397</ele>
        <time>2023-05-28T06:17:17Z</time>
      </trkpt>
      <trkpt lat="43.33786" lon="2.42928">
        <ele>397.1</ele>
        <time>2023-05-28T06:17:18Z</time>
      </trkpt>
      <trkpt lat="43.3379" lon="2.42926">
        <ele>397.3</ele>
        <time>2023-05-28T06:17:19Z</time>
      </trkpt>
      <trkpt lat="43.33791" lon="2.42926">
        <ele>397.4</ele>
        <time>2023-05-28T06:17:20Z</time>
      </trkpt>
      <trkpt lat="43.33793" lon="2.42925">
        <ele>397.4</ele>
        <time>2023-05-28T06:17:21Z</time>
      </trkpt>
      <trkpt lat="43.33794" lon="2.42925">
        <ele>397.5</ele>
        <time>2023-05-28T06:17:22Z</time>
      </trkpt>
      <trkpt lat="43.33796" lon="2.42924">
        <ele>397.6</ele>
        <time>2023-05-28T06:17:23Z</time>
      </trkpt>
      <trkpt lat="43.33797" lon="2.42924">
        <ele>397.7</ele>
        <time>2023-05-28T06:17:24Z</time>
      </trkpt>
      <trkpt lat="43.33799" lon="2.42923">
        <ele>397.8</ele>
        <time>2023-05-28T06:17:25Z</time>
      </trkpt>
      <trkpt lat="43.338" lon="2.42923">
        <ele>397.9</ele>
        <time>2023-05-28T06:17:26Z</time>
      </trkpt>
      <trkpt lat="43.33801" lon="2.42922">
        <ele>398</ele>
        <time>2023-05-28T06:17:27Z</time>
      </trkpt>
      <trkpt lat="43.33803" lon="2.42922">
        <ele>398.1</ele>
        <time>2023-05-28T06:17:28Z</time>
      </trkpt>
      <trkpt lat="43.33806" lon="2.4292">
        <ele>398.3</ele>
        <time>2023-05-28T06:17:29Z</time>
      </trkpt>
      <trkpt lat="43.33806" lon="2.4292">
        <ele>398.4</ele>
        <time>2023-05-28T06:17:30Z</time>
      </trkpt>
      <trkpt lat="43.33808" lon="2.42919">
        <ele>398.5</ele>
        <time>2023-05-28T06:17:31Z</time>
      </trkpt>
      <trkpt lat="43.3381" lon="2.42919">
        <ele>398.6</ele>
        <time>2023-05-28T06:17:32Z</time>
      </trkpt>
      <trkpt lat="43.33813" lon="2.42918">
        <ele>398.9</ele>
        <time>2023-05-28T06:17:33Z</time>
      </trkpt>
      <trkpt lat="43.33814" lon="2.42917">
        <ele>399</ele>
        <time>2023-05-28T06:17:34Z</time>
      </trkpt>
      <trkpt lat="43.33817" lon="2.42916">
        <ele>399.3</ele>
        <time>2023-05-28T06:17:35Z</time>
      </trkpt>
      <trkpt lat="43.33818" lon="2.42915">
        <ele>399.4</ele>
        <time>2023-05-28T06:17:36Z</time>
      </trkpt>
      <trkpt lat="43.33822" lon="2.42913">
        <ele>399.7</ele>
        <time>2023-05-28T06:17:37Z</time>
      </trkpt>
      <trkpt lat="43.33823" lon="2.42913">
        <ele>399.8</ele>
        <time>2023-05-28T06:17:38Z</time>
      </trkpt>
      <trkpt lat="43.33825" lon="2.42912">
        <ele>400</ele>
        <time>2023-05-28T06:17:39Z</time>
      </trkpt>
      <trkpt lat="43.33826" lon="2.42911">
        <ele>400.1</ele>
        <time>2023-05-28T06:17:40Z</time>
      </trkpt>
      <trkpt lat="43.33829" lon="2.42909">
        <ele>400.3</ele>
        <time>2023-05-28T06:17:41Z</time>
      </trkpt>
      <trkpt lat="43.3383" lon="2.42908">
        <ele>400.4</ele>
        <time>2023-05-28T06:17:42Z</time>
      </trkpt>
      <trkpt lat="43.33833" lon="2.42906">
        <ele>400.6</ele>
        <time>2023-05-28T06:17:43Z</time>
      </trkpt>
      <trkpt lat="43.33835" lon="2.42906">
        <ele>400.6</ele>
        <time>2023-05-28T06:17:44Z</time>
      </trkpt>
      <trkpt lat="43.33838" lon="2.42904">
        <ele>400.8</ele>
        <time>2023-05-28T06:17:45Z</time>
      </trkpt>
      <trkpt lat="43.33839" lon="2.42903">
        <ele>400.8</ele>
        <time>2023-05-28T06:17:46Z</time>
      </trkpt>
      <trkpt lat="43.33842" lon="2.42901">
        <ele>400.9</ele>
        <time>2023-05-28T06:17:47Z</time>
      </trkpt>
      <trkpt lat="43.33842" lon="2.429">
        <ele>400.9</ele>
        <time>2023-05-28T06:17:48Z</time>
      </trkpt>
      <trkpt lat="43.33846" lon="2.42898">
        <ele>401</ele>
        <time>2023-05-28T06:17:49Z</time>
      </trkpt>
      <trkpt lat="43.33847" lon="2.42898">
        <ele>401.1</ele>
        <time>2023-05-28T06:17:50Z</time>
      </trkpt>
      <trkpt lat="43.3385" lon="2.42895">
        <ele>401.1</ele>
        <time>2023-05-28T06:17:51Z</time>
      </trkpt>
      <trkpt lat="43.33851" lon="2.42894">
        <ele>401.2</ele>
        <time>2023-05-28T06:17:52Z</time>
      </trkpt>
      <trkpt lat="43.33854" lon="2.42892">
        <ele>401.3</ele>
        <time>2023-05-28T06:17:53Z</time>
      </trkpt>
      <trkpt lat="43.33855" lon="2.42891">
        <ele>401.3</ele>
        <time>2023-05-28T06:17:54Z</time>
      </trkpt>
      <trkpt lat="43.33858" lon="2.42889">
        <ele>401.4</ele>
        <time>2023-05-28T06:17:55Z</time>
      </trkpt>
      <trkpt lat="43.3386" lon="2.42888">
        <ele>401.5</ele>
        <time>2023-05-28T06:17:56Z</time>
      </trkpt>
      <trkpt lat="43.33864" lon="2.42885">
        <ele>401.7</ele>
        <time>2023-05-28T06:17:57Z</time>
      </trkpt>
      <trkpt lat="43.33865" lon="2.42884">
        <ele>401.8</ele>
        <time>2023-05-28T06:17:58Z</time>
      </trkpt>
      <trkpt lat="43.33869" lon="2.42882">
        <ele>402</ele>
        <time>2023-05-28T06:17:59Z</time>
      </trkpt>
      <trkpt lat="43.3387" lon="2.42881">
        <ele>402.1</ele>
        <time>2023-05-28T06:18:00Z</time>
      </trkpt>
      <trkpt lat="43.33872" lon="2.42879">
        <ele>402.4</ele>
        <time>2023-05-28T06:18:01Z</time>
      </trkpt>
      <trkpt lat="43.33873" lon="2.42879">
        <ele>402.4</ele>
        <time>2023-05-28T06:18:02Z</time>
      </trkpt>
      <trkpt lat="43.33876" lon="2.42877">
        <ele>402.7</ele>
        <time>2023-05-28T06:18:03Z</time>
      </trkpt>
      <trkpt lat="43.33877" lon="2.42877">
        <ele>402.7</ele>
        <time>2023-05-28T06:18:04Z</time>
      </trkpt>
      <trkpt lat="43.33879" lon="2.42875">
        <ele>402.9</ele>
        <time>2023-05-28T06:18:05Z</time>
      </trkpt>
      <trkpt lat="43.3388" lon="2.42875">
        <ele>403</ele>
        <time>2023-05-28T06:18:06Z</time>
      </trkpt>
      <trkpt lat="43.33881" lon="2.42874">
        <ele>403.1</ele>
        <time>2023-05-28T06:18:07Z</time>
      </trkpt>
      <trkpt lat="43.33882" lon="2.42873">
        <ele>403.2</ele>
        <time>2023-05-28T06:18:08Z</time>
      </trkpt>
      <trkpt lat="43.33883" lon="2.42872">
        <ele>403.3</ele>
        <time>2023-05-28T06:18:09Z</time>
      </trkpt>
      <trkpt lat="43.33883" lon="2.42871">
        <ele>403.4</ele>
        <time>2023-05-28T06:18:10Z</time>
      </trkpt>
      <trkpt lat="43.33884" lon="2.42869">
        <ele>403.5</ele>
        <time>2023-05-28T06:18:11Z</time>
      </trkpt>
      <trkpt lat="43.33885" lon="2.42868">
        <ele>403.6</ele>
        <time>2023-05-28T06:18:12Z</time>
      </trkpt>
      <trkpt lat="43.33886" lon="2.42867">
        <ele>403.7</ele>
        <time>2023-05-28T06:18:13Z</time>
      </trkpt>
      <trkpt lat="43.33887" lon="2.42867">
        <ele>403.7</ele>
        <time>2023-05-28T06:18:14Z</time>
      </trkpt>
      <trkpt lat="43.33888" lon="2.42866">
        <ele>403.9</ele>
        <time>2023-05-28T06:18:15Z</time>
      </trkpt>
      <trkpt lat="43.33889" lon="2.42866">
        <ele>403.7</ele>
        <time>2023-05-28T06:18:16Z</time>
      </trkpt>
      <trkpt lat="43.33889" lon="2.42866">
        <ele>403.6</ele>
        <time>2023-05-28T06:18:17Z</time>
      </trkpt>
      <trkpt lat="43.3389" lon="2.42866">
        <ele>403.6</ele>
        <time>2023-05-28T06:18:18Z</time>
      </trkpt>
      <trkpt lat="43.3389" lon="2.42866">
        <ele>403.6</ele>
        <time>2023-05-28T06:18:19Z</time>
      </trkpt>
      <trkpt lat="43.33891" lon="2.42866">
        <ele>403.5</ele>
        <time>2023-05-28T06:18:20Z</time>
      </trkpt>
      <trkpt lat="43.33892" lon="2.42867">
        <ele>403.4</ele>
        <time>2023-05-28T06:18:21Z</time>
      </trkpt>
      <trkpt lat="43.33894" lon="2.42867">
        <ele>403.3</ele>
        <time>2023-05-28T06:18:22Z</time>
      </trkpt>
      <trkpt lat="43.33896" lon="2.42867">
        <ele>403.1</ele>
        <time>2023-05-28T06:18:23Z</time>
      </trkpt>
      <trkpt lat="43.33898" lon="2.42867">
        <ele>403.1</ele>
        <time>2023-05-28T06:18:24Z</time>
      </trkpt>
      <trkpt lat="43.33901" lon="2.42867">
        <ele>402.8</ele>
        <time>2023-05-28T06:18:25Z</time>
      </trkpt>
      <trkpt lat="43.33902" lon="2.42867">
        <ele>402.7</ele>
        <time>2023-05-28T06:18:26Z</time>
      </trkpt>
      <trkpt lat="43.33906" lon="2.42867">
        <ele>402.5</ele>
        <time>2023-05-28T06:18:27Z</time>
      </trkpt>
      <trkpt lat="43.33907" lon="2.42867">
        <ele>402.4</ele>
        <time>2023-05-28T06:18:28Z</time>
      </trkpt>
      <trkpt lat="43.3391" lon="2.42866">
        <ele>402.2</ele>
        <time>2023-05-28T06:18:29Z</time>
      </trkpt>
      <trkpt lat="43.33911" lon="2.42865">
        <ele>402.1</ele>
        <time>2023-05-28T06:18:30Z</time>
      </trkpt>
      <trkpt lat="43.33914" lon="2.42865">
        <ele>401.9</ele>
        <time>2023-05-28T06:18:31Z</time>
      </trkpt>
      <trkpt lat="43.33915" lon="2.42865">
        <ele>401.8</ele>
        <time>2023-05-28T06:18:32Z</time>
      </trkpt>
      <trkpt lat="43.33918" lon="2.42864">
        <ele>401.5</ele>
        <time>2023-05-28T06:18:33Z</time>
      </trkpt>
      <trkpt lat="43.33919" lon="2.42863">
        <ele>401.4</ele>
        <time>2023-05-28T06:18:34Z</time>
      </trkpt>
      <trkpt lat="43.33922" lon="2.42862">
        <ele>401.1</ele>
        <time>2023-05-28T06:18:35Z</time>
      </trkpt>
      <trkpt lat="43.33923" lon="2.42862">
        <ele>400.9</ele>
        <time>2023-05-28T06:18:36Z</time>
      </trkpt>
      <trkpt lat="43.33925" lon="2.42862">
        <ele>400.7</ele>
        <time>2023-05-28T06:18:37Z</time>
      </trkpt>
      <trkpt lat="43.33926" lon="2.42863">
        <ele>400.6</ele>
        <time>2023-05-28T06:18:38Z</time>
      </trkpt>
      <trkpt lat="43.33927" lon="2.42863">
        <ele>400.4</ele>
        <time>2023-05-28T06:18:39Z</time>
      </trkpt>
      <trkpt lat="43.33929" lon="2.42864">
        <ele>400.1</ele>
        <time>2023-05-28T06:18:40Z</time>
      </trkpt>
      <trkpt lat="43.33932" lon="2.42864">
        <ele>399.7</ele>
        <time>2023-05-28T06:18:41Z</time>
      </trkpt>
      <trkpt lat="43.33933" lon="2.42864">
        <ele>399.6</ele>
        <time>2023-05-28T06:18:42Z</time>
      </trkpt>
      <trkpt lat="43.33935" lon="2.42864">
        <ele>399.3</ele>
        <time>2023-05-28T06:18:43Z</time>
      </trkpt>
      <trkpt lat="43.33936" lon="2.42863">
        <ele>399</ele>
        <time>2023-05-28T06:18:44Z</time>
      </trkpt>
      <trkpt lat="43.33938" lon="2.42863">
        <ele>398.8</ele>
        <time>2023-05-28T06:18:45Z</time>
      </trkpt>
      <trkpt lat="43.33939" lon="2.42863">
        <ele>398.5</ele>
        <time>2023-05-28T06:18:46Z</time>
      </trkpt>
      <trkpt lat="43.33941" lon="2.42863">
        <ele>398.3</ele>
        <time>2023-05-28T06:18:47Z</time>
      </trkpt>
      <trkpt lat="43.33942" lon="2.42863">
        <ele>398.2</ele>
        <time>2023-05-28T06:18:48Z</time>
      </trkpt>
      <trkpt lat="43.33942" lon="2.42863">
        <ele>398</ele>
        <time>2023-05-28T06:18:49Z</time>
      </trkpt>
      <trkpt lat="43.33943" lon="2.42864">
        <ele>397.8</ele>
        <time>2023-05-28T06:18:50Z</time>
      </trkpt>
      <trkpt lat="43.33944" lon="2.42864">
        <ele>397.7</ele>
        <time>2023-05-28T06:18:51Z</time>
      </trkpt>
      <trkpt lat="43.33945" lon="2.42865">
        <ele>397.5</ele>
        <time>2023-05-28T06:18:52Z</time>
      </trkpt>
      <trkpt lat="43.33946" lon="2.42865">
        <ele>397.4</ele>
        <time>2023-05-28T06:18:53Z</time>
      </trkpt>
      <trkpt lat="43.33947" lon="2.42865">
        <ele>397.1</ele>
        <time>2023-05-28T06:18:54Z</time>
      </trkpt>
      <trkpt lat="43.33949" lon="2.42865">
        <ele>396.7</ele>
        <time>2023-05-28T06:18:55Z</time>
      </trkpt>
      <trkpt lat="43.3395" lon="2.42864">
        <ele>396.6</ele>
        <time>2023-05-28T06:18:56Z</time>
      </trkpt>
      <trkpt lat="43.3395" lon="2.42864">
        <ele>396.4</ele>
        <time>2023-05-28T06:18:57Z</time>
      </trkpt>
      <trkpt lat="43.33952" lon="2.42864">
        <ele>396.2</ele>
        <time>2023-05-28T06:18:58Z</time>
      </trkpt>
      <trkpt lat="43.33954" lon="2.42864">
        <ele>395.6</ele>
        <time>2023-05-28T06:18:59Z</time>
      </trkpt>
      <trkpt lat="43.33956" lon="2.42864">
        <ele>395.4</ele>
        <time>2023-05-28T06:19:00Z</time>
      </trkpt>
      <trkpt lat="43.33957" lon="2.42864">
        <ele>395</ele>
        <time>2023-05-28T06:19:01Z</time>
      </trkpt>
      <trkpt lat="43.33959" lon="2.42865">
        <ele>394.8</ele>
        <time>2023-05-28T06:19:02Z</time>
      </trkpt>
      <trkpt lat="43.3396" lon="2.42865">
        <ele>394.5</ele>
        <time>2023-05-28T06:19:03Z</time>
      </trkpt>
      <trkpt lat="43.33961" lon="2.42866">
        <ele>394.3</ele>
        <time>2023-05-28T06:19:04Z</time>
      </trkpt>
      <trkpt lat="43.33962" lon="2.42867">
        <ele>394.1</ele>
        <time>2023-05-28T06:19:05Z</time>
      </trkpt>
      <trkpt lat="43.33963" lon="2.42868">
        <ele>393.8</ele>
        <time>2023-05-28T06:19:06Z</time>
      </trkpt>
      <trkpt lat="43.33964" lon="2.42868">
        <ele>393.5</ele>
        <time>2023-05-28T06:19:07Z</time>
      </trkpt>
      <trkpt lat="43.33968" lon="2.42868">
        <ele>392.9</ele>
        <time>2023-05-28T06:19:08Z</time>
      </trkpt>
      <trkpt lat="43.33969" lon="2.42869">
        <ele>392.7</ele>
        <time>2023-05-28T06:19:09Z</time>
      </trkpt>
      <trkpt lat="43.33971" lon="2.42869">
        <ele>392.1</ele>
        <time>2023-05-28T06:19:10Z</time>
      </trkpt>
      <trkpt lat="43.33972" lon="2.42869">
        <ele>391.9</ele>
        <time>2023-05-28T06:19:11Z</time>
      </trkpt>
      <trkpt lat="43.33975" lon="2.42869">
        <ele>391.3</ele>
        <time>2023-05-28T06:19:12Z</time>
      </trkpt>
      <trkpt lat="43.33976" lon="2.42869">
        <ele>391.1</ele>
        <time>2023-05-28T06:19:13Z</time>
      </trkpt>
      <trkpt lat="43.33977" lon="2.4287">
        <ele>390.9</ele>
        <time>2023-05-28T06:19:14Z</time>
      </trkpt>
      <trkpt lat="43.33979" lon="2.42871">
        <ele>390.5</ele>
        <time>2023-05-28T06:19:15Z</time>
      </trkpt>
      <trkpt lat="43.33982" lon="2.42872">
        <ele>389.9</ele>
        <time>2023-05-28T06:19:16Z</time>
      </trkpt>
      <trkpt lat="43.33983" lon="2.42872">
        <ele>389.7</ele>
        <time>2023-05-28T06:19:17Z</time>
      </trkpt>
      <trkpt lat="43.33985" lon="2.42872">
        <ele>389.3</ele>
        <time>2023-05-28T06:19:18Z</time>
      </trkpt>
      <trkpt lat="43.33986" lon="2.42871">
        <ele>389.1</ele>
        <time>2023-05-28T06:19:19Z</time>
      </trkpt>
      <trkpt lat="43.33989" lon="2.42871">
        <ele>388.6</ele>
        <time>2023-05-28T06:19:20Z</time>
      </trkpt>
      <trkpt lat="43.3399" lon="2.4287">
        <ele>388.5</ele>
        <time>2023-05-28T06:19:21Z</time>
      </trkpt>
      <trkpt lat="43.33991" lon="2.4287">
        <ele>388.3</ele>
        <time>2023-05-28T06:19:22Z</time>
      </trkpt>
      <trkpt lat="43.33992" lon="2.4287">
        <ele>387.9</ele>
        <time>2023-05-28T06:19:23Z</time>
      </trkpt>
      <trkpt lat="43.33994" lon="2.4287">
        <ele>387.6</ele>
        <time>2023-05-28T06:19:24Z</time>
      </trkpt>
      <trkpt lat="43.33996" lon="2.4287">
        <ele>387.3</ele>
        <time>2023-05-28T06:19:25Z</time>
      </trkpt>
      <trkpt lat="43.33997" lon="2.42871">
        <ele>387</ele>
        <time>2023-05-28T06:19:26Z</time>
      </trkpt>
      <trkpt lat="43.33999" lon="2.42871">
        <ele>386.8</ele>
        <time>2023-05-28T06:19:27Z</time>
      </trkpt>
      <trkpt lat="43.33999" lon="2.42871">
        <ele>386.6</ele>
        <time>2023-05-28T06:19:28Z</time>
      </trkpt>
      <trkpt lat="43.34" lon="2.42871">
        <ele>386.5</ele>
        <time>2023-05-28T06:19:29Z</time>
      </trkpt>
      <trkpt lat="43.34002" lon="2.42871">
        <ele>386.2</ele>
        <time>2023-05-28T06:19:30Z</time>
      </trkpt>
      <trkpt lat="43.34003" lon="2.42871">
        <ele>385.9</ele>
        <time>2023-05-28T06:19:31Z</time>
      </trkpt>
      <trkpt lat="43.34005" lon="2.42871">
        <ele>385.7</ele>
        <time>2023-05-28T06:19:32Z</time>
      </trkpt>
      <trkpt lat="43.34006" lon="2.42871">
        <ele>385.4</ele>
        <time>2023-05-28T06:19:33Z</time>
      </trkpt>
      <trkpt lat="43.34007" lon="2.42871">
        <ele>385.2</ele>
        <time>2023-05-28T06:19:34Z</time>
      </trkpt>
      <trkpt lat="43.34009" lon="2.42871">
        <ele>385</ele>
        <time>2023-05-28T06:19:35Z</time>
      </trkpt>
      <trkpt lat="43.3401" lon="2.42871">
        <ele>384.8</ele>
        <time>2023-05-28T06:19:36Z</time>
      </trkpt>
      <trkpt lat="43.34011" lon="2.4287">
        <ele>384.6</ele>
        <time>2023-05-28T06:19:37Z</time>
      </trkpt>
      <trkpt lat="43.34013" lon="2.4287">
        <ele>384.3</ele>
        <time>2023-05-28T06:19:38Z</time>
      </trkpt>
      <trkpt lat="43.34014" lon="2.4287">
        <ele>383.9</ele>
        <time>2023-05-28T06:19:39Z</time>
      </trkpt>
      <trkpt lat="43.34016" lon="2.4287">
        <ele>383.7</ele>
        <time>2023-05-28T06:19:40Z</time>
      </trkpt>
      <trkpt lat="43.34017" lon="2.4287">
        <ele>383.4</ele>
        <time>2023-05-28T06:19:41Z</time>
      </trkpt>
      <trkpt lat="43.34019" lon="2.4287">
        <ele>383.1</ele>
        <time>2023-05-28T06:19:42Z</time>
      </trkpt>
      <trkpt lat="43.34021" lon="2.4287">
        <ele>382.7</ele>
        <time>2023-05-28T06:19:43Z</time>
      </trkpt>
      <trkpt lat="43.34023" lon="2.42871">
        <ele>382.5</ele>
        <time>2023-05-28T06:19:44Z</time>
      </trkpt>
      <trkpt lat="43.34024" lon="2.42871">
        <ele>382.2</ele>
        <time>2023-05-28T06:19:45Z</time>
      </trkpt>
      <trkpt lat="43.34026" lon="2.42871">
        <ele>381.8</ele>
        <time>2023-05-28T06:19:46Z</time>
      </trkpt>
      <trkpt lat="43.34029" lon="2.4287">
        <ele>381.3</ele>
        <time>2023-05-28T06:19:47Z</time>
      </trkpt>
      <trkpt lat="43.3403" lon="2.4287">
        <ele>381.1</ele>
        <time>2023-05-28T06:19:48Z</time>
      </trkpt>
      <trkpt lat="43.34033" lon="2.42871">
        <ele>380.5</ele>
        <time>2023-05-28T06:19:49Z</time>
      </trkpt>
      <trkpt lat="43.34034" lon="2.42871">
        <ele>380.3</ele>
        <time>2023-05-28T06:19:50Z</time>
      </trkpt>
      <trkpt lat="43.34037" lon="2.42872">
        <ele>379.7</ele>
        <time>2023-05-28T06:19:51Z</time>
      </trkpt>
      <trkpt lat="43.34038" lon="2.42872">
        <ele>379.5</ele>
        <time>2023-05-28T06:19:52Z</time>
      </trkpt>
      <trkpt lat="43.34041" lon="2.42873">
        <ele>379</ele>
        <time>2023-05-28T06:19:53Z</time>
      </trkpt>
      <trkpt lat="43.34042" lon="2.42873">
        <ele>378.8</ele>
        <time>2023-05-28T06:19:54Z</time>
      </trkpt>
      <trkpt lat="43.34045" lon="2.42872">
        <ele>378.3</ele>
        <time>2023-05-28T06:19:55Z</time>
      </trkpt>
      <trkpt lat="43.34046" lon="2.42872">
        <ele>378.2</ele>
        <time>2023-05-28T06:19:56Z</time>
      </trkpt>
      <trkpt lat="43.34048" lon="2.42871">
        <ele>377.9</ele>
        <time>2023-05-28T06:19:57Z</time>
      </trkpt>
      <trkpt lat="43.34049" lon="2.42871">
        <ele>377.7</ele>
        <time>2023-05-28T06:19:58Z</time>
      </trkpt>
      <trkpt lat="43.34051" lon="2.42872">
        <ele>377.5</ele>
        <time>2023-05-28T06:19:59Z</time>
      </trkpt>
      <trkpt lat="43.34053" lon="2.42872">
        <ele>377.3</ele>
        <time>2023-05-28T06:20:00Z</time>
      </trkpt>
      <trkpt lat="43.34055" lon="2.42872">
        <ele>377</ele>
        <time>2023-05-28T06:20:01Z</time>
      </trkpt>
      <trkpt lat="43.34057" lon="2.42872">
        <ele>376.9</ele>
        <time>2023-05-28T06:20:02Z</time>
      </trkpt>
      <trkpt lat="43.34059" lon="2.42872">
        <ele>376.6</ele>
        <time>2023-05-28T06:20:03Z</time>
      </trkpt>
      <trkpt lat="43.34062" lon="2.42873">
        <ele>376.4</ele>
        <time>2023-05-28T06:20:04Z</time>
      </trkpt>
      <trkpt lat="43.34065" lon="2.42874">
        <ele>376.2</ele>
        <time>2023-05-28T06:20:05Z</time>
      </trkpt>
      <trkpt lat="43.34068" lon="2.42875">
        <ele>376</ele>
        <time>2023-05-28T06:20:06Z</time>
      </trkpt>
      <trkpt lat="43.34072" lon="2.42875">
        <ele>375.9</ele>
        <time>2023-05-28T06:20:07Z</time>
      </trkpt>
      <trkpt lat="43.34074" lon="2.42874">
        <ele>375.8</ele>
        <time>2023-05-28T06:20:08Z</time>
      </trkpt>
      <trkpt lat="43.34077" lon="2.42874">
        <ele>375.7</ele>
        <time>2023-05-28T06:20:09Z</time>
      </trkpt>
      <trkpt lat="43.34081" lon="2.42874">
        <ele>375.6</ele>
        <time>2023-05-28T06:20:10Z</time>
      </trkpt>
      <trkpt lat="43.34082" lon="2.42874">
        <ele>375.6</ele>
        <time>2023-05-28T06:20:11Z</time>
      </trkpt>
      <trkpt lat="43.34085" lon="2.42873">
        <ele>375.5</ele>
        <time>2023-05-28T06:20:12Z</time>
      </trkpt>
      <trkpt lat="43.34086" lon="2.42872">
        <ele>375.5</ele>
        <time>2023-05-28T06:20:13Z</time>
      </trkpt>
      <trkpt lat="43.34088" lon="2.42871">
        <ele>375.5</ele>
        <time>2023-05-28T06:20:14Z</time>
      </trkpt>
      <trkpt lat="43.34089" lon="2.42871">
        <ele>375.4</ele>
        <time>2023-05-28T06:20:15Z</time>
      </trkpt>
      <trkpt lat="43.34089" lon="2.42871">
        <ele>375.4</ele>
        <time>2023-05-28T06:20:16Z</time>
      </trkpt>
      <trkpt lat="43.34092" lon="2.42869">
        <ele>375.4</ele>
        <time>2023-05-28T06:20:17Z</time>
      </trkpt>
      <trkpt lat="43.34093" lon="2.42869">
        <ele>375.4</ele>
        <time>2023-05-28T06:20:18Z</time>
      </trkpt>
      <trkpt lat="43.34096" lon="2.42868">
        <ele>375.3</ele>
        <time>2023-05-28T06:20:19Z</time>
      </trkpt>
      <trkpt lat="43.341" lon="2.42867">
        <ele>375.3</ele>
        <time>2023-05-28T06:20:20Z</time>
      </trkpt>
      <trkpt lat="43.34101" lon="2.42867">
        <ele>375.3</ele>
        <time>2023-05-28T06:20:21Z</time>
      </trkpt>
      <trkpt lat="43.34104" lon="2.42866">
        <ele>375.2</ele>
        <time>2023-05-28T06:20:22Z</time>
      </trkpt>
      <trkpt lat="43.34107" lon="2.42868">
        <ele>375.2</ele>
        <time>2023-05-28T06:20:23Z</time>
      </trkpt>
      <trkpt lat="43.3411" lon="2.42869">
        <ele>375.2</ele>
        <time>2023-05-28T06:20:24Z</time>
      </trkpt>
      <trkpt lat="43.34113" lon="2.42871">
        <ele>375.2</ele>
        <time>2023-05-28T06:20:25Z</time>
      </trkpt>
      <trkpt lat="43.34114" lon="2.42871">
        <ele>375.2</ele>
        <time>2023-05-28T06:20:26Z</time>
      </trkpt>
      <trkpt lat="43.34116" lon="2.42871">
        <ele>375.2</ele>
        <time>2023-05-28T06:20:27Z</time>
      </trkpt>
      <trkpt lat="43.34118" lon="2.4287">
        <ele>375.2</ele>
        <time>2023-05-28T06:20:28Z</time>
      </trkpt>
      <trkpt lat="43.3412" lon="2.42869">
        <ele>375.3</ele>
        <time>2023-05-28T06:20:29Z</time>
      </trkpt>
      <trkpt lat="43.34121" lon="2.42868">
        <ele>375.3</ele>
        <time>2023-05-28T06:20:30Z</time>
      </trkpt>
      <trkpt lat="43.34123" lon="2.42868">
        <ele>375.3</ele>
        <time>2023-05-28T06:20:31Z</time>
      </trkpt>
      <trkpt lat="43.34124" lon="2.42867">
        <ele>375.4</ele>
        <time>2023-05-28T06:20:32Z</time>
      </trkpt>
      <trkpt lat="43.34126" lon="2.42867">
        <ele>375.4</ele>
        <time>2023-05-28T06:20:33Z</time>
      </trkpt>
      <trkpt lat="43.34128" lon="2.42867">
        <ele>375.5</ele>
        <time>2023-05-28T06:20:34Z</time>
      </trkpt>
      <trkpt lat="43.3413" lon="2.42867">
        <ele>375.5</ele>
        <time>2023-05-28T06:20:35Z</time>
      </trkpt>
      <trkpt lat="43.34131" lon="2.42867">
        <ele>375.6</ele>
        <time>2023-05-28T06:20:36Z</time>
      </trkpt>
      <trkpt lat="43.34135" lon="2.42866">
        <ele>375.7</ele>
        <time>2023-05-28T06:20:37Z</time>
      </trkpt>
      <trkpt lat="43.34136" lon="2.42866">
        <ele>375.8</ele>
        <time>2023-05-28T06:20:38Z</time>
      </trkpt>
      <trkpt lat="43.34138" lon="2.42865">
        <ele>375.9</ele>
        <time>2023-05-28T06:20:39Z</time>
      </trkpt>
      <trkpt lat="43.34139" lon="2.42865">
        <ele>375.9</ele>
        <time>2023-05-28T06:20:40Z</time>
      </trkpt>
      <trkpt lat="43.3414" lon="2.42864">
        <ele>375.9</ele>
        <time>2023-05-28T06:20:41Z</time>
      </trkpt>
      <trkpt lat="43.34142" lon="2.42863">
        <ele>376.1</ele>
        <time>2023-05-28T06:20:42Z</time>
      </trkpt>
      <trkpt lat="43.34143" lon="2.42863">
        <ele>376.1</ele>
        <time>2023-05-28T06:20:43Z</time>
      </trkpt>
      <trkpt lat="43.34145" lon="2.42863">
        <ele>376.2</ele>
        <time>2023-05-28T06:20:44Z</time>
      </trkpt>
      <trkpt lat="43.34148" lon="2.42862">
        <ele>376.4</ele>
        <time>2023-05-28T06:20:45Z</time>
      </trkpt>
      <trkpt lat="43.34151" lon="2.42861">
        <ele>376.5</ele>
        <time>2023-05-28T06:20:46Z</time>
      </trkpt>
      <trkpt lat="43.34152" lon="2.42861">
        <ele>376.5</ele>
        <time>2023-05-28T06:20:47Z</time>
      </trkpt>
      <trkpt lat="43.34154" lon="2.42859">
        <ele>376.6</ele>
        <time>2023-05-28T06:20:48Z</time>
      </trkpt>
      <trkpt lat="43.34156" lon="2.42859">
        <ele>376.7</ele>
        <time>2023-05-28T06:20:49Z</time>
      </trkpt>
      <trkpt lat="43.34157" lon="2.42858">
        <ele>376.8</ele>
        <time>2023-05-28T06:20:50Z</time>
      </trkpt>
      <trkpt lat="43.34158" lon="2.42858">
        <ele>376.8</ele>
        <time>2023-05-28T06:20:51Z</time>
      </trkpt>
      <trkpt lat="43.34158" lon="2.42858">
        <ele>376.8</ele>
        <time>2023-05-28T06:20:52Z</time>
      </trkpt>
      <trkpt lat="43.34158" lon="2.42858">
        <ele>376.8</ele>
        <time>2023-05-28T06:20:53Z</time>
      </trkpt>
      <trkpt lat="43.34158" lon="2.42858">
        <ele>376.9</ele>
        <time>2023-05-28T06:20:54Z</time>
      </trkpt>
      <trkpt lat="43.3416" lon="2.42857">
        <ele>376.9</ele>
        <time>2023-05-28T06:20:55Z</time>
      </trkpt>
      <trkpt lat="43.34164" lon="2.42855">
        <ele>377.1</ele>
        <time>2023-05-28T06:20:56Z</time>
      </trkpt>
      <trkpt lat="43.34165" lon="2.42855">
        <ele>377.2</ele>
        <time>2023-05-28T06:20:57Z</time>
      </trkpt>
      <trkpt lat="43.34168" lon="2.42855">
        <ele>377.3</ele>
        <time>2023-05-28T06:20:58Z</time>
      </trkpt>
      <trkpt lat="43.34169" lon="2.42855">
        <ele>377.4</ele>
        <time>2023-05-28T06:20:59Z</time>
      </trkpt>
      <trkpt lat="43.3417" lon="2.42855">
        <ele>377.5</ele>
        <time>2023-05-28T06:21:00Z</time>
      </trkpt>
      <trkpt lat="43.34172" lon="2.42855">
        <ele>377.6</ele>
        <time>2023-05-28T06:21:01Z</time>
      </trkpt>
      <trkpt lat="43.34176" lon="2.42856">
        <ele>377.8</ele>
        <time>2023-05-28T06:21:02Z</time>
      </trkpt>
      <trkpt lat="43.34178" lon="2.42856">
        <ele>377.9</ele>
        <time>2023-05-28T06:21:03Z</time>
      </trkpt>
      <trkpt lat="43.34182" lon="2.42856">
        <ele>378.1</ele>
        <time>2023-05-28T06:21:04Z</time>
      </trkpt>
      <trkpt lat="43.34184" lon="2.42856">
        <ele>378.2</ele>
        <time>2023-05-28T06:21:05Z</time>
      </trkpt>
      <trkpt lat="43.34186" lon="2.42856">
        <ele>378.4</ele>
        <time>2023-05-28T06:21:06Z</time>
      </trkpt>
      <trkpt lat="43.34189" lon="2.42856">
        <ele>378.6</ele>
        <time>2023-05-28T06:21:07Z</time>
      </trkpt>
      <trkpt lat="43.3419" lon="2.42856">
        <ele>378.6</ele>
        <time>2023-05-28T06:21:08Z</time>
      </trkpt>
      <trkpt lat="43.34194" lon="2.42857">
        <ele>378.9</ele>
        <time>2023-05-28T06:21:09Z</time>
      </trkpt>
      <trkpt lat="43.34197" lon="2.42857">
        <ele>379.1</ele>
        <time>2023-05-28T06:21:10Z</time>
      </trkpt>
      <trkpt lat="43.342" lon="2.42857">
        <ele>379.3</ele>
        <time>2023-05-28T06:21:11Z</time>
      </trkpt>
      <trkpt lat="43.34202" lon="2.42858">
        <ele>379.5</ele>
        <time>2023-05-28T06:21:12Z</time>
      </trkpt>
      <trkpt lat="43.34203" lon="2.42859">
        <ele>379.5</ele>
        <time>2023-05-28T06:21:13Z</time>
      </trkpt>
      <trkpt lat="43.34205" lon="2.42859">
        <ele>379.7</ele>
        <time>2023-05-28T06:21:14Z</time>
      </trkpt>
      <trkpt lat="43.34206" lon="2.42859">
        <ele>379.7</ele>
        <time>2023-05-28T06:21:15Z</time>
      </trkpt>
      <trkpt lat="43.34206" lon="2.42859">
        <ele>379.8</ele>
        <time>2023-05-28T06:21:16Z</time>
      </trkpt>
      <trkpt lat="43.34207" lon="2.42857">
        <ele>379.8</ele>
        <time>2023-05-28T06:21:17Z</time>
      </trkpt>
      <trkpt lat="43.34208" lon="2.42857">
        <ele>379.9</ele>
        <time>2023-05-28T06:21:18Z</time>
      </trkpt>
      <trkpt lat="43.34209" lon="2.42856">
        <ele>380</ele>
        <time>2023-05-28T06:21:19Z</time>
      </trkpt>
      <trkpt lat="43.3421" lon="2.42857">
        <ele>380.1</ele>
        <time>2023-05-28T06:21:20Z</time>
      </trkpt>
      <trkpt lat="43.34211" lon="2.42858">
        <ele>380.2</ele>
        <time>2023-05-28T06:21:21Z</time>
      </trkpt>
      <trkpt lat="43.34211" lon="2.42859">
        <ele>380.3</ele>
        <time>2023-05-28T06:21:22Z</time>
      </trkpt>
      <trkpt lat="43.34211" lon="2.4286">
        <ele>380.3</ele>
        <time>2023-05-28T06:21:23Z</time>
      </trkpt>
      <trkpt lat="43.3421" lon="2.42861">
        <ele>380.4</ele>
        <time>2023-05-28T06:21:24Z</time>
      </trkpt>
      <trkpt lat="43.3421" lon="2.42863">
        <ele>380.5</ele>
        <time>2023-05-28T06:21:25Z</time>
      </trkpt>
      <trkpt lat="43.34209" lon="2.42865">
        <ele>380.6</ele>
        <time>2023-05-28T06:21:26Z</time>
      </trkpt>
      <trkpt lat="43.34209" lon="2.42866">
        <ele>380.6</ele>
        <time>2023-05-28T06:21:27Z</time>
      </trkpt>
      <trkpt lat="43.34209" lon="2.42866">
        <ele>380.7</ele>
        <time>2023-05-28T06:21:28Z</time>
      </trkpt>
      <trkpt lat="43.34208" lon="2.42866">
        <ele>380.7</ele>
        <time>2023-05-28T06:21:29Z</time>
      </trkpt>
      <trkpt lat="43.34208" lon="2.42866">
        <ele>380.7</ele>
        <time>2023-05-28T06:21:30Z</time>
      </trkpt>
      <trkpt lat="43.34208" lon="2.42867">
        <ele>380.7</ele>
        <time>2023-05-28T06:21:31Z</time>
      </trkpt>
      <trkpt lat="43.34207" lon="2.42867">
        <ele>380.7</ele>
        <time>2023-05-28T06:21:32Z</time>
      </trkpt>
      <trkpt lat="43.34207" lon="2.42868">
        <ele>380.8</ele>
        <time>2023-05-28T06:21:33Z</time>
      </trkpt>
      <trkpt lat="43.34207" lon="2.42869">
        <ele>380.8</ele>
        <time>2023-05-28T06:21:34Z</time>
      </trkpt>
      <trkpt lat="43.34208" lon="2.42869">
        <ele>380.8</ele>
        <time>2023-05-28T06:21:35Z</time>
      </trkpt>
      <trkpt lat="43.34208" lon="2.42869">
        <ele>380.8</ele>
        <time>2023-05-28T06:21:36Z</time>
      </trkpt>
      <trkpt lat="43.34208" lon="2.42869">
        <ele>380.8</ele>
        <time>2023-05-28T06:21:37Z</time>
      </trkpt>
      <trkpt lat="43.34208" lon="2.42869">
        <ele>380.9</ele>
        <time>2023-05-28T06:21:38Z</time>
      </trkpt>
      <trkpt lat="43.34208" lon="2.4287">
        <ele>380.9</ele>
        <time>2023-05-28T06:21:39Z</time>
      </trkpt>
      <trkpt lat="43.34208" lon="2.4287">
        <ele>380.9</ele>
        <time>2023-05-28T06:21:40Z</time>
      </trkpt>
      <trkpt lat="43.34208" lon="2.4287">
        <ele>380.9</ele>
        <time>2023-05-28T06:21:41Z</time>
      </trkpt>
      <trkpt lat="43.34208" lon="2.4287">
        <ele>380.9</ele>
        <time>2023-05-28T06:21:42Z</time>
      </trkpt>
      <trkpt lat="43.34208" lon="2.42869">
        <ele>380.9</ele>
        <time>2023-05-28T06:21:43Z</time>
      </trkpt>
      <trkpt lat="43.34208" lon="2.42869">
        <ele>380.9</ele>
        <time>2023-05-28T06:21:44Z</time>
      </trkpt>
      <trkpt lat="43.34208" lon="2.42869">
        <ele>380.9</ele>
        <time>2023-05-28T06:21:45Z</time>
      </trkpt>
      <trkpt lat="43.34208" lon="2.4287">
        <ele>381</ele>
        <time>2023-05-28T06:21:46Z</time>
      </trkpt>
      <trkpt lat="43.34208" lon="2.4287">
        <ele>381</ele>
        <time>2023-05-28T06:21:47Z</time>
      </trkpt>
      <trkpt lat="43.34208" lon="2.42872">
        <ele>381.1</ele>
        <time>2023-05-28T06:21:48Z</time>
      </trkpt>
      <trkpt lat="43.34207" lon="2.42873">
        <ele>381.1</ele>
        <time>2023-05-28T06:21:49Z</time>
      </trkpt>
      <trkpt lat="43.34207" lon="2.42873">
        <ele>381.2</ele>
        <time>2023-05-28T06:21:50Z</time>
      </trkpt>
      <trkpt lat="43.34206" lon="2.42873">
        <ele>381.2</ele>
        <time>2023-05-28T06:21:51Z</time>
      </trkpt>
      <trkpt lat="43.34205" lon="2.42874">
        <ele>381.3</ele>
        <time>2023-05-28T06:21:52Z</time>
      </trkpt>
      <trkpt lat="43.34204" lon="2.42875">
        <ele>381.3</ele>
        <time>2023-05-28T06:21:53Z</time>
      </trkpt>
      <trkpt lat="43.34203" lon="2.42876">
        <ele>381.5</ele>
        <time>2023-05-28T06:21:54Z</time>
      </trkpt>
      <trkpt lat="43.34201" lon="2.42877">
        <ele>381.5</ele>
        <time>2023-05-28T06:21:55Z</time>
      </trkpt>
      <trkpt lat="43.342" lon="2.42879">
        <ele>381.7</ele>
        <time>2023-05-28T06:21:56Z</time>
      </trkpt>
      <trkpt lat="43.34198" lon="2.42879">
        <ele>381.8</ele>
        <time>2023-05-28T06:21:57Z</time>
      </trkpt>
      <trkpt lat="43.34196" lon="2.42879">
        <ele>382</ele>
        <time>2023-05-28T06:21:58Z</time>
      </trkpt>
      <trkpt lat="43.34195" lon="2.42879">
        <ele>382</ele>
        <time>2023-05-28T06:21:59Z</time>
      </trkpt>
      <trkpt lat="43.34194" lon="2.42879">
        <ele>382.1</ele>
        <time>2023-05-28T06:22:00Z</time>
      </trkpt>
      <trkpt lat="43.34191" lon="2.42878">
        <ele>382.4</ele>
        <time>2023-05-28T06:22:01Z</time>
      </trkpt>
      <trkpt lat="43.3419" lon="2.42878">
        <ele>382.5</ele>
        <time>2023-05-28T06:22:02Z</time>
      </trkpt>
      <trkpt lat="43.34188" lon="2.42879">
        <ele>382.8</ele>
        <time>2023-05-28T06:22:03Z</time>
      </trkpt>
      <trkpt lat="43.34187" lon="2.4288">
        <ele>382.9</ele>
        <time>2023-05-28T06:22:04Z</time>
      </trkpt>
      <trkpt lat="43.34184" lon="2.42884">
        <ele>383.4</ele>
        <time>2023-05-28T06:22:05Z</time>
      </trkpt>
      <trkpt lat="43.34184" lon="2.42885">
        <ele>383.6</ele>
        <time>2023-05-28T06:22:06Z</time>
      </trkpt>
      <trkpt lat="43.34183" lon="2.42888">
        <ele>383.8</ele>
        <time>2023-05-28T06:22:07Z</time>
      </trkpt>
      <trkpt lat="43.34184" lon="2.42888">
        <ele>383.9</ele>
        <time>2023-05-28T06:22:08Z</time>
      </trkpt>
      <trkpt lat="43.34184" lon="2.42889">
        <ele>384</ele>
        <time>2023-05-28T06:22:09Z</time>
      </trkpt>
      <trkpt lat="43.34185" lon="2.42891">
        <ele>384.3</ele>
        <time>2023-05-28T06:22:10Z</time>
      </trkpt>
      <trkpt lat="43.34186" lon="2.42892">
        <ele>384.4</ele>
        <time>2023-05-28T06:22:11Z</time>
      </trkpt>
      <trkpt lat="43.34186" lon="2.42893">
        <ele>384.5</ele>
        <time>2023-05-28T06:22:12Z</time>
      </trkpt>
      <trkpt lat="43.34186" lon="2.42893">
        <ele>384.6</ele>
        <time>2023-05-28T06:22:13Z</time>
      </trkpt>
      <trkpt lat="43.34187" lon="2.42893">
        <ele>384.7</ele>
        <time>2023-05-28T06:22:14Z</time>
      </trkpt>
      <trkpt lat="43.34188" lon="2.42893">
        <ele>384.8</ele>
        <time>2023-05-28T06:22:15Z</time>
      </trkpt>
      <trkpt lat="43.34188" lon="2.42893">
        <ele>384.9</ele>
        <time>2023-05-28T06:22:16Z</time>
      </trkpt>
      <trkpt lat="43.34189" lon="2.42893">
        <ele>385</ele>
        <time>2023-05-28T06:22:17Z</time>
      </trkpt>
      <trkpt lat="43.34189" lon="2.42893">
        <ele>385.1</ele>
        <time>2023-05-28T06:22:18Z</time>
      </trkpt>
      <trkpt lat="43.34191" lon="2.42894">
        <ele>385.3</ele>
        <time>2023-05-28T06:22:19Z</time>
      </trkpt>
      <trkpt lat="43.34192" lon="2.42894">
        <ele>385.5</ele>
        <time>2023-05-28T06:22:20Z</time>
      </trkpt>
      <trkpt lat="43.34193" lon="2.42895">
        <ele>385.6</ele>
        <time>2023-05-28T06:22:21Z</time>
      </trkpt>
      <trkpt lat="43.34195" lon="2.42896">
        <ele>385.8</ele>
        <time>2023-05-28T06:22:22Z</time>
      </trkpt>
      <trkpt lat="43.34196" lon="2.42896">
        <ele>385.9</ele>
        <time>2023-05-28T06:22:23Z</time>
      </trkpt>
      <trkpt lat="43.34196" lon="2.42896">
        <ele>386</ele>
        <time>2023-05-28T06:22:24Z</time>
      </trkpt>
      <trkpt lat="43.34198" lon="2.42897">
        <ele>386.2</ele>
        <time>2023-05-28T06:22:25Z</time>
      </trkpt>
      <trkpt lat="43.342" lon="2.42898">
        <ele>386.4</ele>
        <time>2023-05-28T06:22:26Z</time>
      </trkpt>
      <trkpt lat="43.34201" lon="2.42898">
        <ele>386.6</ele>
        <time>2023-05-28T06:22:27Z</time>
      </trkpt>
      <trkpt lat="43.34203" lon="2.42898">
        <ele>386.7</ele>
        <time>2023-05-28T06:22:28Z</time>
      </trkpt>
      <trkpt lat="43.34204" lon="2.42899">
        <ele>386.8</ele>
        <time>2023-05-28T06:22:29Z</time>
      </trkpt>
      <trkpt lat="43.34205" lon="2.42899">
        <ele>387</ele>
        <time>2023-05-28T06:22:30Z</time>
      </trkpt>
      <trkpt lat="43.34208" lon="2.429">
        <ele>387.2</ele>
        <time>2023-05-28T06:22:31Z</time>
      </trkpt>
      <trkpt lat="43.34209" lon="2.429">
        <ele>387.3</ele>
        <time>2023-05-28T06:22:32Z</time>
      </trkpt>
      <trkpt lat="43.34212" lon="2.429">
        <ele>387.5</ele>
        <time>2023-05-28T06:22:33Z</time>
      </trkpt>
      <trkpt lat="43.34213" lon="2.429">
        <ele>387.6</ele>
        <time>2023-05-28T06:22:34Z</time>
      </trkpt>
      <trkpt lat="43.34216" lon="2.42902">
        <ele>387.8</ele>
        <time>2023-05-28T06:22:35Z</time>
      </trkpt>
      <trkpt lat="43.34217" lon="2.42903">
        <ele>387.9</ele>
        <time>2023-05-28T06:22:36Z</time>
      </trkpt>
      <trkpt lat="43.34219" lon="2.42906">
        <ele>388.1</ele>
        <time>2023-05-28T06:22:37Z</time>
      </trkpt>
      <trkpt lat="43.3422" lon="2.42907">
        <ele>388.2</ele>
        <time>2023-05-28T06:22:38Z</time>
      </trkpt>
      <trkpt lat="43.34223" lon="2.4291">
        <ele>388.5</ele>
        <time>2023-05-28T06:22:39Z</time>
      </trkpt>
      <trkpt lat="43.34223" lon="2.42911">
        <ele>388.6</ele>
        <time>2023-05-28T06:22:40Z</time>
      </trkpt>
      <trkpt lat="43.34225" lon="2.42914">
        <ele>388.8</ele>
        <time>2023-05-28T06:22:41Z</time>
      </trkpt>
      <trkpt lat="43.34225" lon="2.42915">
        <ele>388.9</ele>
        <time>2023-05-28T06:22:42Z</time>
      </trkpt>
      <trkpt lat="43.34226" lon="2.42919">
        <ele>389.3</ele>
        <time>2023-05-28T06:22:43Z</time>
      </trkpt>
      <trkpt lat="43.34227" lon="2.4292">
        <ele>389.3</ele>
        <time>2023-05-28T06:22:44Z</time>
      </trkpt>
      <trkpt lat="43.34228" lon="2.42921">
        <ele>389.5</ele>
        <time>2023-05-28T06:22:45Z</time>
      </trkpt>
      <trkpt lat="43.34229" lon="2.42923">
        <ele>389.7</ele>
        <time>2023-05-28T06:22:46Z</time>
      </trkpt>
      <trkpt lat="43.3423" lon="2.42926">
        <ele>390</ele>
        <time>2023-05-28T06:22:47Z</time>
      </trkpt>
      <trkpt lat="43.3423" lon="2.42927">
        <ele>390.1</ele>
        <time>2023-05-28T06:22:48Z</time>
      </trkpt>
      <trkpt lat="43.34231" lon="2.42928">
        <ele>390.3</ele>
        <time>2023-05-28T06:22:49Z</time>
      </trkpt>
      <trkpt lat="43.34232" lon="2.4293">
        <ele>390.5</ele>
        <time>2023-05-28T06:22:50Z</time>
      </trkpt>
      <trkpt lat="43.34232" lon="2.42932">
        <ele>390.6</ele>
        <time>2023-05-28T06:22:51Z</time>
      </trkpt>
      <trkpt lat="43.34233" lon="2.42933">
        <ele>390.8</ele>
        <time>2023-05-28T06:22:52Z</time>
      </trkpt>
      <trkpt lat="43.34233" lon="2.42934">
        <ele>390.9</ele>
        <time>2023-05-28T06:22:53Z</time>
      </trkpt>
      <trkpt lat="43.34233" lon="2.42936">
        <ele>391.1</ele>
        <time>2023-05-28T06:22:54Z</time>
      </trkpt>
      <trkpt lat="43.34233" lon="2.42938">
        <ele>391.3</ele>
        <time>2023-05-28T06:22:55Z</time>
      </trkpt>
      <trkpt lat="43.34233" lon="2.4294">
        <ele>391.4</ele>
        <time>2023-05-28T06:22:56Z</time>
      </trkpt>
      <trkpt lat="43.34233" lon="2.42942">
        <ele>391.6</ele>
        <time>2023-05-28T06:22:57Z</time>
      </trkpt>
      <trkpt lat="43.34233" lon="2.42943">
        <ele>391.7</ele>
        <time>2023-05-28T06:22:58Z</time>
      </trkpt>
      <trkpt lat="43.34234" lon="2.42945">
        <ele>391.9</ele>
        <time>2023-05-28T06:22:59Z</time>
      </trkpt>
      <trkpt lat="43.34235" lon="2.42946">
        <ele>392</ele>
        <time>2023-05-28T06:23:00Z</time>
      </trkpt>
      <trkpt lat="43.34236" lon="2.42948">
        <ele>392.2</ele>
        <time>2023-05-28T06:23:01Z</time>
      </trkpt>
      <trkpt lat="43.34237" lon="2.4295">
        <ele>392.4</ele>
        <time>2023-05-28T06:23:02Z</time>
      </trkpt>
      <trkpt lat="43.34238" lon="2.42952">
        <ele>392.5</ele>
        <time>2023-05-28T06:23:03Z</time>
      </trkpt>
      <trkpt lat="43.34238" lon="2.42954">
        <ele>392.7</ele>
        <time>2023-05-28T06:23:04Z</time>
      </trkpt>
      <trkpt lat="43.34239" lon="2.42956">
        <ele>392.8</ele>
        <time>2023-05-28T06:23:05Z</time>
      </trkpt>
      <trkpt lat="43.3424" lon="2.42958">
        <ele>393</ele>
        <time>2023-05-28T06:23:06Z</time>
      </trkpt>
      <trkpt lat="43.34241" lon="2.42959">
        <ele>393.1</ele>
        <time>2023-05-28T06:23:07Z</time>
      </trkpt>
      <trkpt lat="43.34242" lon="2.4296">
        <ele>393.1</ele>
        <time>2023-05-28T06:23:08Z</time>
      </trkpt>
      <trkpt lat="43.34243" lon="2.42961">
        <ele>393.3</ele>
        <time>2023-05-28T06:23:09Z</time>
      </trkpt>
      <trkpt lat="43.34243" lon="2.42962">
        <ele>393.3</ele>
        <time>2023-05-28T06:23:10Z</time>
      </trkpt>
      <trkpt lat="43.34244" lon="2.42964">
        <ele>393.4</ele>
        <time>2023-05-28T06:23:11Z</time>
      </trkpt>
      <trkpt lat="43.34245" lon="2.42966">
        <ele>393.6</ele>
        <time>2023-05-28T06:23:12Z</time>
      </trkpt>
      <trkpt lat="43.34246" lon="2.42967">
        <ele>393.7</ele>
        <time>2023-05-28T06:23:13Z</time>
      </trkpt>
      <trkpt lat="43.34247" lon="2.42967">
        <ele>393.8</ele>
        <time>2023-05-28T06:23:14Z</time>
      </trkpt>
      <trkpt lat="43.34249" lon="2.42968">
        <ele>393.9</ele>
        <time>2023-05-28T06:23:15Z</time>
      </trkpt>
      <trkpt lat="43.3425" lon="2.42969">
        <ele>394</ele>
        <time>2023-05-28T06:23:16Z</time>
      </trkpt>
      <trkpt lat="43.34252" lon="2.4297">
        <ele>394.2</ele>
        <time>2023-05-28T06:23:17Z</time>
      </trkpt>
      <trkpt lat="43.34254" lon="2.42973">
        <ele>394.4</ele>
        <time>2023-05-28T06:23:18Z</time>
      </trkpt>
      <trkpt lat="43.34255" lon="2.42974">
        <ele>394.5</ele>
        <time>2023-05-28T06:23:19Z</time>
      </trkpt>
      <trkpt lat="43.34256" lon="2.42976">
        <ele>394.7</ele>
        <time>2023-05-28T06:23:20Z</time>
      </trkpt>
      <trkpt lat="43.34257" lon="2.42977">
        <ele>394.8</ele>
        <time>2023-05-28T06:23:21Z</time>
      </trkpt>
      <trkpt lat="43.34257" lon="2.42978">
        <ele>394.8</ele>
        <time>2023-05-28T06:23:22Z</time>
      </trkpt>
      <trkpt lat="43.34258" lon="2.42979">
        <ele>395</ele>
        <time>2023-05-28T06:23:23Z</time>
      </trkpt>
      <trkpt lat="43.34259" lon="2.4298">
        <ele>395</ele>
        <time>2023-05-28T06:23:24Z</time>
      </trkpt>
      <trkpt lat="43.34259" lon="2.42981">
        <ele>395.1</ele>
        <time>2023-05-28T06:23:25Z</time>
      </trkpt>
      <trkpt lat="43.34259" lon="2.42983">
        <ele>395.2</ele>
        <time>2023-05-28T06:23:26Z</time>
      </trkpt>
      <trkpt lat="43.3426" lon="2.42985">
        <ele>395.4</ele>
        <time>2023-05-28T06:23:27Z</time>
      </trkpt>
      <trkpt lat="43.3426" lon="2.42989">
        <ele>395.7</ele>
        <time>2023-05-28T06:23:28Z</time>
      </trkpt>
      <trkpt lat="43.34261" lon="2.4299">
        <ele>395.8</ele>
        <time>2023-05-28T06:23:29Z</time>
      </trkpt>
      <trkpt lat="43.34263" lon="2.42993">
        <ele>396.1</ele>
        <time>2023-05-28T06:23:30Z</time>
      </trkpt>
      <trkpt lat="43.34264" lon="2.42994">
        <ele>396.2</ele>
        <time>2023-05-28T06:23:31Z</time>
      </trkpt>
      <trkpt lat="43.34266" lon="2.42996">
        <ele>396.4</ele>
        <time>2023-05-28T06:23:32Z</time>
      </trkpt>
      <trkpt lat="43.34267" lon="2.42996">
        <ele>396.5</ele>
        <time>2023-05-28T06:23:33Z</time>
      </trkpt>
      <trkpt lat="43.34269" lon="2.42999">
        <ele>396.8</ele>
        <time>2023-05-28T06:23:34Z</time>
      </trkpt>
      <trkpt lat="43.3427" lon="2.43">
        <ele>396.8</ele>
        <time>2023-05-28T06:23:35Z</time>
      </trkpt>
      <trkpt lat="43.34271" lon="2.43003">
        <ele>397.1</ele>
        <time>2023-05-28T06:23:36Z</time>
      </trkpt>
      <trkpt lat="43.34272" lon="2.43004">
        <ele>397.2</ele>
        <time>2023-05-28T06:23:37Z</time>
      </trkpt>
      <trkpt lat="43.34273" lon="2.43006">
        <ele>397.3</ele>
        <time>2023-05-28T06:23:38Z</time>
      </trkpt>
      <trkpt lat="43.34273" lon="2.43008">
        <ele>397.4</ele>
        <time>2023-05-28T06:23:39Z</time>
      </trkpt>
      <trkpt lat="43.34274" lon="2.43011">
        <ele>397.6</ele>
        <time>2023-05-28T06:23:40Z</time>
      </trkpt>
      <trkpt lat="43.34275" lon="2.43013">
        <ele>397.7</ele>
        <time>2023-05-28T06:23:41Z</time>
      </trkpt>
      <trkpt lat="43.34276" lon="2.43017">
        <ele>397.9</ele>
        <time>2023-05-28T06:23:42Z</time>
      </trkpt>
      <trkpt lat="43.34277" lon="2.43018">
        <ele>397.9</ele>
        <time>2023-05-28T06:23:43Z</time>
      </trkpt>
      <trkpt lat="43.34279" lon="2.43021">
        <ele>398.1</ele>
        <time>2023-05-28T06:23:44Z</time>
      </trkpt>
      <trkpt lat="43.3428" lon="2.43022">
        <ele>398.1</ele>
        <time>2023-05-28T06:23:45Z</time>
      </trkpt>
      <trkpt lat="43.34282" lon="2.43023">
        <ele>398.2</ele>
        <time>2023-05-28T06:23:46Z</time>
      </trkpt>
      <trkpt lat="43.34283" lon="2.43025">
        <ele>398.3</ele>
        <time>2023-05-28T06:23:47Z</time>
      </trkpt>
      <trkpt lat="43.34285" lon="2.43029">
        <ele>398.3</ele>
        <time>2023-05-28T06:23:48Z</time>
      </trkpt>
      <trkpt lat="43.34285" lon="2.43031">
        <ele>398.3</ele>
        <time>2023-05-28T06:23:49Z</time>
      </trkpt>
      <trkpt lat="43.34288" lon="2.43034">
        <ele>398.4</ele>
        <time>2023-05-28T06:23:50Z</time>
      </trkpt>
      <trkpt lat="43.34289" lon="2.43035">
        <ele>398.4</ele>
        <time>2023-05-28T06:23:51Z</time>
      </trkpt>
      <trkpt lat="43.34292" lon="2.43038">
        <ele>398.4</ele>
        <time>2023-05-28T06:23:52Z</time>
      </trkpt>
      <trkpt lat="43.34293" lon="2.4304">
        <ele>398.3</ele>
        <time>2023-05-28T06:23:53Z</time>
      </trkpt>
      <trkpt lat="43.34294" lon="2.43044">
        <ele>398.3</ele>
        <time>2023-05-28T06:23:54Z</time>
      </trkpt>
      <trkpt lat="43.34295" lon="2.43045">
        <ele>398.3</ele>
        <time>2023-05-28T06:23:55Z</time>
      </trkpt>
      <trkpt lat="43.34296" lon="2.43049">
        <ele>398.3</ele>
        <time>2023-05-28T06:23:56Z</time>
      </trkpt>
      <trkpt lat="43.34297" lon="2.4305">
        <ele>398.3</ele>
        <time>2023-05-28T06:23:57Z</time>
      </trkpt>
      <trkpt lat="43.34297" lon="2.43054">
        <ele>398.3</ele>
        <time>2023-05-28T06:23:58Z</time>
      </trkpt>
      <trkpt lat="43.34298" lon="2.43058">
        <ele>398.3</ele>
        <time>2023-05-28T06:23:59Z</time>
      </trkpt>
      <trkpt lat="43.34298" lon="2.43059">
        <ele>398.3</ele>
        <time>2023-05-28T06:24:00Z</time>
      </trkpt>
      <trkpt lat="43.34299" lon="2.43061">
        <ele>398.3</ele>
        <time>2023-05-28T06:24:01Z</time>
      </trkpt>
      <trkpt lat="43.343" lon="2.43063">
        <ele>398.3</ele>
        <time>2023-05-28T06:24:02Z</time>
      </trkpt>
      <trkpt lat="43.34301" lon="2.43065">
        <ele>398.3</ele>
        <time>2023-05-28T06:24:03Z</time>
      </trkpt>
      <trkpt lat="43.34302" lon="2.43067">
        <ele>398.3</ele>
        <time>2023-05-28T06:24:04Z</time>
      </trkpt>
      <trkpt lat="43.34302" lon="2.43069">
        <ele>398.3</ele>
        <time>2023-05-28T06:24:05Z</time>
      </trkpt>
      <trkpt lat="43.34303" lon="2.43072">
        <ele>398.4</ele>
        <time>2023-05-28T06:24:06Z</time>
      </trkpt>
      <trkpt lat="43.34304" lon="2.43076">
        <ele>398.4</ele>
        <time>2023-05-28T06:24:07Z</time>
      </trkpt>
      <trkpt lat="43.34304" lon="2.43077">
        <ele>398.5</ele>
        <time>2023-05-28T06:24:08Z</time>
      </trkpt>
      <trkpt lat="43.34305" lon="2.43078">
        <ele>398.5</ele>
        <time>2023-05-28T06:24:09Z</time>
      </trkpt>
      <trkpt lat="43.34305" lon="2.43079">
        <ele>398.5</ele>
        <time>2023-05-28T06:24:10Z</time>
      </trkpt>
      <trkpt lat="43.34306" lon="2.4308">
        <ele>398.6</ele>
        <time>2023-05-28T06:24:11Z</time>
      </trkpt>
      <trkpt lat="43.34308" lon="2.43082">
        <ele>398.8</ele>
        <time>2023-05-28T06:24:12Z</time>
      </trkpt>
      <trkpt lat="43.34309" lon="2.43083">
        <ele>398.8</ele>
        <time>2023-05-28T06:24:13Z</time>
      </trkpt>
      <trkpt lat="43.34311" lon="2.43085">
        <ele>398.9</ele>
        <time>2023-05-28T06:24:14Z</time>
      </trkpt>
      <trkpt lat="43.34312" lon="2.43086">
        <ele>399</ele>
        <time>2023-05-28T06:24:15Z</time>
      </trkpt>
      <trkpt lat="43.34314" lon="2.43089">
        <ele>399.1</ele>
        <time>2023-05-28T06:24:16Z</time>
      </trkpt>
      <trkpt lat="43.34314" lon="2.43091">
        <ele>399.2</ele>
        <time>2023-05-28T06:24:17Z</time>
      </trkpt>
      <trkpt lat="43.34315" lon="2.43094">
        <ele>399.4</ele>
        <time>2023-05-28T06:24:18Z</time>
      </trkpt>
      <trkpt lat="43.34315" lon="2.43098">
        <ele>399.5</ele>
        <time>2023-05-28T06:24:19Z</time>
      </trkpt>
      <trkpt lat="43.34315" lon="2.431">
        <ele>399.6</ele>
        <time>2023-05-28T06:24:20Z</time>
      </trkpt>
      <trkpt lat="43.34315" lon="2.43103">
        <ele>399.7</ele>
        <time>2023-05-28T06:24:21Z</time>
      </trkpt>
      <trkpt lat="43.34314" lon="2.43104">
        <ele>399.8</ele>
        <time>2023-05-28T06:24:22Z</time>
      </trkpt>
      <trkpt lat="43.34314" lon="2.43106">
        <ele>399.8</ele>
        <time>2023-05-28T06:24:23Z</time>
      </trkpt>
      <trkpt lat="43.34313" lon="2.43108">
        <ele>399.9</ele>
        <time>2023-05-28T06:24:24Z</time>
      </trkpt>
      <trkpt lat="43.34313" lon="2.4311">
        <ele>400</ele>
        <time>2023-05-28T06:24:25Z</time>
      </trkpt>
      <trkpt lat="43.34313" lon="2.43113">
        <ele>400.1</ele>
        <time>2023-05-28T06:24:26Z</time>
      </trkpt>
      <trkpt lat="43.34313" lon="2.43115">
        <ele>400.2</ele>
        <time>2023-05-28T06:24:27Z</time>
      </trkpt>
      <trkpt lat="43.34313" lon="2.43117">
        <ele>400.3</ele>
        <time>2023-05-28T06:24:28Z</time>
      </trkpt>
      <trkpt lat="43.34313" lon="2.43119">
        <ele>400.4</ele>
        <time>2023-05-28T06:24:29Z</time>
      </trkpt>
      <trkpt lat="43.34312" lon="2.43122">
        <ele>400.6</ele>
        <time>2023-05-28T06:24:30Z</time>
      </trkpt>
      <trkpt lat="43.34312" lon="2.43124">
        <ele>400.6</ele>
        <time>2023-05-28T06:24:31Z</time>
      </trkpt>
      <trkpt lat="43.34312" lon="2.43128">
        <ele>400.8</ele>
        <time>2023-05-28T06:24:32Z</time>
      </trkpt>
      <trkpt lat="43.34311" lon="2.4313">
        <ele>400.9</ele>
        <time>2023-05-28T06:24:33Z</time>
      </trkpt>
      <trkpt lat="43.34311" lon="2.43133">
        <ele>401.2</ele>
        <time>2023-05-28T06:24:34Z</time>
      </trkpt>
      <trkpt lat="43.3431" lon="2.43135">
        <ele>401.2</ele>
        <time>2023-05-28T06:24:35Z</time>
      </trkpt>
      <trkpt lat="43.3431" lon="2.43137">
        <ele>401.4</ele>
        <time>2023-05-28T06:24:36Z</time>
      </trkpt>
      <trkpt lat="43.34309" lon="2.43138">
        <ele>401.5</ele>
        <time>2023-05-28T06:24:37Z</time>
      </trkpt>
      <trkpt lat="43.34308" lon="2.4314">
        <ele>401.7</ele>
        <time>2023-05-28T06:24:38Z</time>
      </trkpt>
      <trkpt lat="43.34307" lon="2.43141">
        <ele>401.8</ele>
        <time>2023-05-28T06:24:39Z</time>
      </trkpt>
      <trkpt lat="43.34307" lon="2.43142">
        <ele>401.9</ele>
        <time>2023-05-28T06:24:40Z</time>
      </trkpt>
      <trkpt lat="43.34307" lon="2.43143">
        <ele>401.9</ele>
        <time>2023-05-28T06:24:41Z</time>
      </trkpt>
      <trkpt lat="43.34304" lon="2.43146">
        <ele>402.3</ele>
        <time>2023-05-28T06:24:42Z</time>
      </trkpt>
      <trkpt lat="43.34304" lon="2.43146">
        <ele>402.4</ele>
        <time>2023-05-28T06:24:43Z</time>
      </trkpt>
      <trkpt lat="43.34302" lon="2.43147">
        <ele>402.6</ele>
        <time>2023-05-28T06:24:44Z</time>
      </trkpt>
      <trkpt lat="43.34301" lon="2.43148">
        <ele>402.8</ele>
        <time>2023-05-28T06:24:45Z</time>
      </trkpt>
      <trkpt lat="43.343" lon="2.43149">
        <ele>402.9</ele>
        <time>2023-05-28T06:24:46Z</time>
      </trkpt>
      <trkpt lat="43.34299" lon="2.43151">
        <ele>403.2</ele>
        <time>2023-05-28T06:24:47Z</time>
      </trkpt>
      <trkpt lat="43.34297" lon="2.43153">
        <ele>403.5</ele>
        <time>2023-05-28T06:24:48Z</time>
      </trkpt>
      <trkpt lat="43.34296" lon="2.43154">
        <ele>403.7</ele>
        <time>2023-05-28T06:24:49Z</time>
      </trkpt>
      <trkpt lat="43.34294" lon="2.43155">
        <ele>404</ele>
        <time>2023-05-28T06:24:50Z</time>
      </trkpt>
      <trkpt lat="43.34293" lon="2.43156">
        <ele>404.2</ele>
        <time>2023-05-28T06:24:51Z</time>
      </trkpt>
      <trkpt lat="43.34292" lon="2.43157">
        <ele>404.3</ele>
        <time>2023-05-28T06:24:52Z</time>
      </trkpt>
      <trkpt lat="43.3429" lon="2.43158">
        <ele>404.4</ele>
        <time>2023-05-28T06:24:53Z</time>
      </trkpt>
      <trkpt lat="43.34289" lon="2.43159">
        <ele>404.5</ele>
        <time>2023-05-28T06:24:54Z</time>
      </trkpt>
      <trkpt lat="43.34288" lon="2.4316">
        <ele>404.5</ele>
        <time>2023-05-28T06:24:55Z</time>
      </trkpt>
      <trkpt lat="43.34287" lon="2.43161">
        <ele>404.6</ele>
        <time>2023-05-28T06:24:56Z</time>
      </trkpt>
      <trkpt lat="43.34286" lon="2.43162">
        <ele>404.7</ele>
        <time>2023-05-28T06:24:57Z</time>
      </trkpt>
      <trkpt lat="43.34285" lon="2.43162">
        <ele>404.7</ele>
        <time>2023-05-28T06:24:58Z</time>
      </trkpt>
      <trkpt lat="43.34285" lon="2.43163">
        <ele>404.7</ele>
        <time>2023-05-28T06:24:59Z</time>
      </trkpt>
      <trkpt lat="43.34285" lon="2.43164">
        <ele>404.8</ele>
        <time>2023-05-28T06:25:00Z</time>
      </trkpt>
      <trkpt lat="43.34284" lon="2.43164">
        <ele>404.8</ele>
        <time>2023-05-28T06:25:01Z</time>
      </trkpt>
      <trkpt lat="43.34283" lon="2.43164">
        <ele>404.8</ele>
        <time>2023-05-28T06:25:02Z</time>
      </trkpt>
      <trkpt lat="43.34282" lon="2.43164">
        <ele>404.9</ele>
        <time>2023-05-28T06:25:03Z</time>
      </trkpt>
      <trkpt lat="43.34281" lon="2.43164">
        <ele>404.9</ele>
        <time>2023-05-28T06:25:04Z</time>
      </trkpt>
      <trkpt lat="43.34281" lon="2.43164">
        <ele>404.9</ele>
        <time>2023-05-28T06:25:05Z</time>
      </trkpt>
      <trkpt lat="43.3428" lon="2.43164">
        <ele>404.9</ele>
        <time>2023-05-28T06:25:06Z</time>
      </trkpt>
      <trkpt lat="43.34278" lon="2.43164">
        <ele>405</ele>
        <time>2023-05-28T06:25:07Z</time>
      </trkpt>
      <trkpt lat="43.34277" lon="2.43163">
        <ele>405.1</ele>
        <time>2023-05-28T06:25:08Z</time>
      </trkpt>
      <trkpt lat="43.34276" lon="2.43162">
        <ele>405.1</ele>
        <time>2023-05-28T06:25:09Z</time>
      </trkpt>
      <trkpt lat="43.34274" lon="2.43161">
        <ele>405.2</ele>
        <time>2023-05-28T06:25:10Z</time>
      </trkpt>
      <trkpt lat="43.34273" lon="2.43161">
        <ele>405.3</ele>
        <time>2023-05-28T06:25:11Z</time>
      </trkpt>
      <trkpt lat="43.34272" lon="2.4316">
        <ele>405.3</ele>
        <time>2023-05-28T06:25:12Z</time>
      </trkpt>
      <trkpt lat="43.34269" lon="2.43158">
        <ele>405.4</ele>
        <time>2023-05-28T06:25:13Z</time>
      </trkpt>
      <trkpt lat="43.34268" lon="2.43157">
        <ele>405.5</ele>
        <time>2023-05-28T06:25:14Z</time>
      </trkpt>
      <trkpt lat="43.34265" lon="2.43156">
        <ele>405.6</ele>
        <time>2023-05-28T06:25:15Z</time>
      </trkpt>
      <trkpt lat="43.34265" lon="2.43155">
        <ele>405.7</ele>
        <time>2023-05-28T06:25:16Z</time>
      </trkpt>
      <trkpt lat="43.34263" lon="2.43154">
        <ele>405.8</ele>
        <time>2023-05-28T06:25:17Z</time>
      </trkpt>
      <trkpt lat="43.34262" lon="2.43153">
        <ele>405.8</ele>
        <time>2023-05-28T06:25:18Z</time>
      </trkpt>
      <trkpt lat="43.34261" lon="2.43152">
        <ele>405.8</ele>
        <time>2023-05-28T06:25:19Z</time>
      </trkpt>
      <trkpt lat="43.3426" lon="2.43151">
        <ele>405.9</ele>
        <time>2023-05-28T06:25:20Z</time>
      </trkpt>
      <trkpt lat="43.34259" lon="2.4315">
        <ele>406</ele>
        <time>2023-05-28T06:25:21Z</time>
      </trkpt>
      <trkpt lat="43.34259" lon="2.4315">
        <ele>406</ele>
        <time>2023-05-28T06:25:22Z</time>
      </trkpt>
      <trkpt lat="43.34258" lon="2.43148">
        <ele>406.1</ele>
        <time>2023-05-28T06:25:23Z</time>
      </trkpt>
      <trkpt lat="43.34257" lon="2.43146">
        <ele>406.2</ele>
        <time>2023-05-28T06:25:24Z</time>
      </trkpt>
      <trkpt lat="43.34257" lon="2.43145">
        <ele>406.2</ele>
        <time>2023-05-28T06:25:25Z</time>
      </trkpt>
      <trkpt lat="43.34257" lon="2.43144">
        <ele>406.2</ele>
        <time>2023-05-28T06:25:26Z</time>
      </trkpt>
      <trkpt lat="43.34257" lon="2.43142">
        <ele>406.3</ele>
        <time>2023-05-28T06:25:27Z</time>
      </trkpt>
      <trkpt lat="43.34257" lon="2.4314">
        <ele>406.4</ele>
        <time>2023-05-28T06:25:28Z</time>
      </trkpt>
      <trkpt lat="43.34257" lon="2.43137">
        <ele>406.5</ele>
        <time>2023-05-28T06:25:29Z</time>
      </trkpt>
      <trkpt lat="43.34256" lon="2.43135">
        <ele>406.6</ele>
        <time>2023-05-28T06:25:30Z</time>
      </trkpt>
      <trkpt lat="43.34256" lon="2.43133">
        <ele>406.6</ele>
        <time>2023-05-28T06:25:31Z</time>
      </trkpt>
      <trkpt lat="43.34255" lon="2.43129">
        <ele>406.8</ele>
        <time>2023-05-28T06:25:32Z</time>
      </trkpt>
      <trkpt lat="43.34254" lon="2.43128">
        <ele>406.8</ele>
        <time>2023-05-28T06:25:33Z</time>
      </trkpt>
      <trkpt lat="43.34254" lon="2.43125">
        <ele>407</ele>
        <time>2023-05-28T06:25:34Z</time>
      </trkpt>
      <trkpt lat="43.34254" lon="2.43123">
        <ele>407</ele>
        <time>2023-05-28T06:25:35Z</time>
      </trkpt>
      <trkpt lat="43.34253" lon="2.4312">
        <ele>407.2</ele>
        <time>2023-05-28T06:25:36Z</time>
      </trkpt>
      <trkpt lat="43.34253" lon="2.43119">
        <ele>407.2</ele>
        <time>2023-05-28T06:25:37Z</time>
      </trkpt>
      <trkpt lat="43.34253" lon="2.43118">
        <ele>407.2</ele>
        <time>2023-05-28T06:25:38Z</time>
      </trkpt>
      <trkpt lat="43.34253" lon="2.43117">
        <ele>407.3</ele>
        <time>2023-05-28T06:25:39Z</time>
      </trkpt>
      <trkpt lat="43.34253" lon="2.43114">
        <ele>407.4</ele>
        <time>2023-05-28T06:25:40Z</time>
      </trkpt>
      <trkpt lat="43.34252" lon="2.43112">
        <ele>407.5</ele>
        <time>2023-05-28T06:25:41Z</time>
      </trkpt>
      <trkpt lat="43.34252" lon="2.4311">
        <ele>407.6</ele>
        <time>2023-05-28T06:25:42Z</time>
      </trkpt>
      <trkpt lat="43.34252" lon="2.43108">
        <ele>407.7</ele>
        <time>2023-05-28T06:25:43Z</time>
      </trkpt>
      <trkpt lat="43.34251" lon="2.43106">
        <ele>407.7</ele>
        <time>2023-05-28T06:25:44Z</time>
      </trkpt>
      <trkpt lat="43.34251" lon="2.43104">
        <ele>407.8</ele>
        <time>2023-05-28T06:25:45Z</time>
      </trkpt>
      <trkpt lat="43.34251" lon="2.43102">
        <ele>407.9</ele>
        <time>2023-05-28T06:25:46Z</time>
      </trkpt>
      <trkpt lat="43.34251" lon="2.43098">
        <ele>408</ele>
        <time>2023-05-28T06:25:47Z</time>
      </trkpt>
      <trkpt lat="43.3425" lon="2.43096">
        <ele>408.1</ele>
        <time>2023-05-28T06:25:48Z</time>
      </trkpt>
      <trkpt lat="43.34249" lon="2.43093">
        <ele>408.2</ele>
        <time>2023-05-28T06:25:49Z</time>
      </trkpt>
      <trkpt lat="43.34248" lon="2.43092">
        <ele>408.3</ele>
        <time>2023-05-28T06:25:50Z</time>
      </trkpt>
      <trkpt lat="43.34247" lon="2.43089">
        <ele>408.4</ele>
        <time>2023-05-28T06:25:51Z</time>
      </trkpt>
      <trkpt lat="43.34246" lon="2.43088">
        <ele>408.4</ele>
        <time>2023-05-28T06:25:52Z</time>
      </trkpt>
      <trkpt lat="43.34244" lon="2.43085">
        <ele>408.6</ele>
        <time>2023-05-28T06:25:53Z</time>
      </trkpt>
      <trkpt lat="43.34243" lon="2.43084">
        <ele>408.6</ele>
        <time>2023-05-28T06:25:54Z</time>
      </trkpt>
      <trkpt lat="43.34241" lon="2.43081">
        <ele>408.8</ele>
        <time>2023-05-28T06:25:55Z</time>
      </trkpt>
      <trkpt lat="43.34241" lon="2.4308">
        <ele>408.8</ele>
        <time>2023-05-28T06:25:56Z</time>
      </trkpt>
      <trkpt lat="43.3424" lon="2.43079">
        <ele>408.9</ele>
        <time>2023-05-28T06:25:57Z</time>
      </trkpt>
      <trkpt lat="43.34239" lon="2.43078">
        <ele>408.9</ele>
        <time>2023-05-28T06:25:58Z</time>
      </trkpt>
      <trkpt lat="43.34239" lon="2.43078">
        <ele>409</ele>
        <time>2023-05-28T06:25:59Z</time>
      </trkpt>
      <trkpt lat="43.34236" lon="2.43078">
        <ele>409.1</ele>
        <time>2023-05-28T06:26:00Z</time>
      </trkpt>
      <trkpt lat="43.34235" lon="2.43078">
        <ele>409.2</ele>
        <time>2023-05-28T06:26:01Z</time>
      </trkpt>
      <trkpt lat="43.34233" lon="2.43078">
        <ele>409.2</ele>
        <time>2023-05-28T06:26:02Z</time>
      </trkpt>
      <trkpt lat="43.3423" lon="2.43079">
        <ele>409.4</ele>
        <time>2023-05-28T06:26:03Z</time>
      </trkpt>
      <trkpt lat="43.34228" lon="2.43079">
        <ele>409.5</ele>
        <time>2023-05-28T06:26:04Z</time>
      </trkpt>
      <trkpt lat="43.34224" lon="2.43083">
        <ele>409.7</ele>
        <time>2023-05-28T06:26:06Z</time>
      </trkpt>
      <trkpt lat="43.34223" lon="2.43088">
        <ele>409.8</ele>
        <time>2023-05-28T06:26:07Z</time>
      </trkpt>
      <trkpt lat="43.34223" lon="2.43088">
        <ele>409.9</ele>
        <time>2023-05-28T06:26:08Z</time>
      </trkpt>
      <trkpt lat="43.34224" lon="2.4309">
        <ele>409.9</ele>
        <time>2023-05-28T06:26:09Z</time>
      </trkpt>
      <trkpt lat="43.34224" lon="2.43092">
        <ele>410</ele>
        <time>2023-05-28T06:26:10Z</time>
      </trkpt>
      <trkpt lat="43.34224" lon="2.43093">
        <ele>410</ele>
        <time>2023-05-28T06:26:11Z</time>
      </trkpt>
      <trkpt lat="43.34224" lon="2.43094">
        <ele>410.1</ele>
        <time>2023-05-28T06:26:12Z</time>
      </trkpt>
      <trkpt lat="43.34222" lon="2.43098">
        <ele>410.2</ele>
        <time>2023-05-28T06:26:13Z</time>
      </trkpt>
      <trkpt lat="43.34221" lon="2.43099">
        <ele>410.3</ele>
        <time>2023-05-28T06:26:14Z</time>
      </trkpt>
      <trkpt lat="43.3422" lon="2.431">
        <ele>410.4</ele>
        <time>2023-05-28T06:26:15Z</time>
      </trkpt>
      <trkpt lat="43.3422" lon="2.43102">
        <ele>410.5</ele>
        <time>2023-05-28T06:26:16Z</time>
      </trkpt>
      <trkpt lat="43.3422" lon="2.43103">
        <ele>410.6</ele>
        <time>2023-05-28T06:26:17Z</time>
      </trkpt>
      <trkpt lat="43.3422" lon="2.43104">
        <ele>410.7</ele>
        <time>2023-05-28T06:26:18Z</time>
      </trkpt>
      <trkpt lat="43.34218" lon="2.43108">
        <ele>410.9</ele>
        <time>2023-05-28T06:26:20Z</time>
      </trkpt>
      <trkpt lat="43.34216" lon="2.43112">
        <ele>411.3</ele>
        <time>2023-05-28T06:26:21Z</time>
      </trkpt>
      <trkpt lat="43.34216" lon="2.43113">
        <ele>411.4</ele>
        <time>2023-05-28T06:26:22Z</time>
      </trkpt>
      <trkpt lat="43.34215" lon="2.43115">
        <ele>411.6</ele>
        <time>2023-05-28T06:26:23Z</time>
      </trkpt>
      <trkpt lat="43.34215" lon="2.43116">
        <ele>411.7</ele>
        <time>2023-05-28T06:26:24Z</time>
      </trkpt>
      <trkpt lat="43.34214" lon="2.43117">
        <ele>411.8</ele>
        <time>2023-05-28T06:26:25Z</time>
      </trkpt>
      <trkpt lat="43.34214" lon="2.4312">
        <ele>412</ele>
        <time>2023-05-28T06:26:26Z</time>
      </trkpt>
      <trkpt lat="43.34213" lon="2.43122">
        <ele>412.2</ele>
        <time>2023-05-28T06:26:27Z</time>
      </trkpt>
      <trkpt lat="43.34211" lon="2.43125">
        <ele>412.6</ele>
        <time>2023-05-28T06:26:28Z</time>
      </trkpt>
      <trkpt lat="43.3421" lon="2.43126">
        <ele>412.7</ele>
        <time>2023-05-28T06:26:29Z</time>
      </trkpt>
      <trkpt lat="43.34209" lon="2.43129">
        <ele>413</ele>
        <time>2023-05-28T06:26:30Z</time>
      </trkpt>
      <trkpt lat="43.34209" lon="2.43131">
        <ele>413.1</ele>
        <time>2023-05-28T06:26:31Z</time>
      </trkpt>
      <trkpt lat="43.34209" lon="2.43132">
        <ele>413.3</ele>
        <time>2023-05-28T06:26:32Z</time>
      </trkpt>
      <trkpt lat="43.34209" lon="2.43135">
        <ele>413.6</ele>
        <time>2023-05-28T06:26:33Z</time>
      </trkpt>
      <trkpt lat="43.3421" lon="2.4314">
        <ele>414</ele>
        <time>2023-05-28T06:26:34Z</time>
      </trkpt>
      <trkpt lat="43.3421" lon="2.43141">
        <ele>414.1</ele>
        <time>2023-05-28T06:26:35Z</time>
      </trkpt>
      <trkpt lat="43.3421" lon="2.43146">
        <ele>414.5</ele>
        <time>2023-05-28T06:26:36Z</time>
      </trkpt>
      <trkpt lat="43.3421" lon="2.43149">
        <ele>414.8</ele>
        <time>2023-05-28T06:26:37Z</time>
      </trkpt>
      <trkpt lat="43.34209" lon="2.43154">
        <ele>415.3</ele>
        <time>2023-05-28T06:26:38Z</time>
      </trkpt>
      <trkpt lat="43.34209" lon="2.43156">
        <ele>415.4</ele>
        <time>2023-05-28T06:26:39Z</time>
      </trkpt>
      <trkpt lat="43.34209" lon="2.4316">
        <ele>415.8</ele>
        <time>2023-05-28T06:26:40Z</time>
      </trkpt>
      <trkpt lat="43.34208" lon="2.43164">
        <ele>416.2</ele>
        <time>2023-05-28T06:26:41Z</time>
      </trkpt>
      <trkpt lat="43.34206" lon="2.43168">
        <ele>416.7</ele>
        <time>2023-05-28T06:26:42Z</time>
      </trkpt>
      <trkpt lat="43.34205" lon="2.43169">
        <ele>416.8</ele>
        <time>2023-05-28T06:26:43Z</time>
      </trkpt>
      <trkpt lat="43.34204" lon="2.43171">
        <ele>417.1</ele>
        <time>2023-05-28T06:26:44Z</time>
      </trkpt>
      <trkpt lat="43.34204" lon="2.43172">
        <ele>417.2</ele>
        <time>2023-05-28T06:26:45Z</time>
      </trkpt>
      <trkpt lat="43.34202" lon="2.43175">
        <ele>417.6</ele>
        <time>2023-05-28T06:26:46Z</time>
      </trkpt>
      <trkpt lat="43.34201" lon="2.43176">
        <ele>417.8</ele>
        <time>2023-05-28T06:26:47Z</time>
      </trkpt>
      <trkpt lat="43.34198" lon="2.43179">
        <ele>418.3</ele>
        <time>2023-05-28T06:26:48Z</time>
      </trkpt>
      <trkpt lat="43.34196" lon="2.43182">
        <ele>418.7</ele>
        <time>2023-05-28T06:26:49Z</time>
      </trkpt>
      <trkpt lat="43.34194" lon="2.43187">
        <ele>419.3</ele>
        <time>2023-05-28T06:26:50Z</time>
      </trkpt>
      <trkpt lat="43.34194" lon="2.43189">
        <ele>419.5</ele>
        <time>2023-05-28T06:26:51Z</time>
      </trkpt>
      <trkpt lat="43.34192" lon="2.43192">
        <ele>419.9</ele>
        <time>2023-05-28T06:26:52Z</time>
      </trkpt>
      <trkpt lat="43.34191" lon="2.43196">
        <ele>420.2</ele>
        <time>2023-05-28T06:26:53Z</time>
      </trkpt>
      <trkpt lat="43.34191" lon="2.432">
        <ele>420.6</ele>
        <time>2023-05-28T06:26:54Z</time>
      </trkpt>
      <trkpt lat="43.34191" lon="2.43201">
        <ele>420.7</ele>
        <time>2023-05-28T06:26:55Z</time>
      </trkpt>
      <trkpt lat="43.34192" lon="2.43205">
        <ele>421</ele>
        <time>2023-05-28T06:26:56Z</time>
      </trkpt>
      <trkpt lat="43.34192" lon="2.43206">
        <ele>421.1</ele>
        <time>2023-05-28T06:26:57Z</time>
      </trkpt>
      <trkpt lat="43.34192" lon="2.43209">
        <ele>421.3</ele>
        <time>2023-05-28T06:26:58Z</time>
      </trkpt>
      <trkpt lat="43.34194" lon="2.43211">
        <ele>421.5</ele>
        <time>2023-05-28T06:26:59Z</time>
      </trkpt>
      <trkpt lat="43.34195" lon="2.43212">
        <ele>421.7</ele>
        <time>2023-05-28T06:27:00Z</time>
      </trkpt>
      <trkpt lat="43.34196" lon="2.43213">
        <ele>421.9</ele>
        <time>2023-05-28T06:27:01Z</time>
      </trkpt>
      <trkpt lat="43.34198" lon="2.43217">
        <ele>422.2</ele>
        <time>2023-05-28T06:27:02Z</time>
      </trkpt>
      <trkpt lat="43.34198" lon="2.43218">
        <ele>422.3</ele>
        <time>2023-05-28T06:27:03Z</time>
      </trkpt>
      <trkpt lat="43.34199" lon="2.43222">
        <ele>422.6</ele>
        <time>2023-05-28T06:27:04Z</time>
      </trkpt>
      <trkpt lat="43.34199" lon="2.43223">
        <ele>422.7</ele>
        <time>2023-05-28T06:27:05Z</time>
      </trkpt>
      <trkpt lat="43.342" lon="2.43227">
        <ele>423</ele>
        <time>2023-05-28T06:27:06Z</time>
      </trkpt>
      <trkpt lat="43.34201" lon="2.43229">
        <ele>423.1</ele>
        <time>2023-05-28T06:27:07Z</time>
      </trkpt>
      <trkpt lat="43.34201" lon="2.43231">
        <ele>423.3</ele>
        <time>2023-05-28T06:27:08Z</time>
      </trkpt>
      <trkpt lat="43.34202" lon="2.43233">
        <ele>423.5</ele>
        <time>2023-05-28T06:27:09Z</time>
      </trkpt>
      <trkpt lat="43.34202" lon="2.43237">
        <ele>423.8</ele>
        <time>2023-05-28T06:27:10Z</time>
      </trkpt>
      <trkpt lat="43.34202" lon="2.43239">
        <ele>423.9</ele>
        <time>2023-05-28T06:27:11Z</time>
      </trkpt>
      <trkpt lat="43.34202" lon="2.43244">
        <ele>424.3</ele>
        <time>2023-05-28T06:27:12Z</time>
      </trkpt>
      <trkpt lat="43.34202" lon="2.43245">
        <ele>424.4</ele>
        <time>2023-05-28T06:27:13Z</time>
      </trkpt>
      <trkpt lat="43.34201" lon="2.4325">
        <ele>424.8</ele>
        <time>2023-05-28T06:27:14Z</time>
      </trkpt>
      <trkpt lat="43.34202" lon="2.43252">
        <ele>424.9</ele>
        <time>2023-05-28T06:27:15Z</time>
      </trkpt>
      <trkpt lat="43.34202" lon="2.43254">
        <ele>425.1</ele>
        <time>2023-05-28T06:27:16Z</time>
      </trkpt>
      <trkpt lat="43.34202" lon="2.43257">
        <ele>425.3</ele>
        <time>2023-05-28T06:27:17Z</time>
      </trkpt>
      <trkpt lat="43.34202" lon="2.43259">
        <ele>425.4</ele>
        <time>2023-05-28T06:27:18Z</time>
      </trkpt>
      <trkpt lat="43.34203" lon="2.43261">
        <ele>425.6</ele>
        <time>2023-05-28T06:27:19Z</time>
      </trkpt>
      <trkpt lat="43.34205" lon="2.43263">
        <ele>425.8</ele>
        <time>2023-05-28T06:27:20Z</time>
      </trkpt>
      <trkpt lat="43.34205" lon="2.43264">
        <ele>425.9</ele>
        <time>2023-05-28T06:27:21Z</time>
      </trkpt>
      <trkpt lat="43.34206" lon="2.43265">
        <ele>425.9</ele>
        <time>2023-05-28T06:27:22Z</time>
      </trkpt>
      <trkpt lat="43.34207" lon="2.43266">
        <ele>426.1</ele>
        <time>2023-05-28T06:27:23Z</time>
      </trkpt>
      <trkpt lat="43.34208" lon="2.43268">
        <ele>426.2</ele>
        <time>2023-05-28T06:27:24Z</time>
      </trkpt>
      <trkpt lat="43.34211" lon="2.4327">
        <ele>426.4</ele>
        <time>2023-05-28T06:27:25Z</time>
      </trkpt>
      <trkpt lat="43.34212" lon="2.43271">
        <ele>426.5</ele>
        <time>2023-05-28T06:27:26Z</time>
      </trkpt>
      <trkpt lat="43.34214" lon="2.43274">
        <ele>426.8</ele>
        <time>2023-05-28T06:27:27Z</time>
      </trkpt>
      <trkpt lat="43.34218" lon="2.43277">
        <ele>427</ele>
        <time>2023-05-28T06:27:28Z</time>
      </trkpt>
      <trkpt lat="43.34219" lon="2.43278">
        <ele>427.1</ele>
        <time>2023-05-28T06:27:29Z</time>
      </trkpt>
      <trkpt lat="43.34221" lon="2.43281">
        <ele>427.3</ele>
        <time>2023-05-28T06:27:30Z</time>
      </trkpt>
      <trkpt lat="43.34223" lon="2.43283">
        <ele>427.4</ele>
        <time>2023-05-28T06:27:31Z</time>
      </trkpt>
      <trkpt lat="43.34225" lon="2.43286">
        <ele>427.5</ele>
        <time>2023-05-28T06:27:32Z</time>
      </trkpt>
      <trkpt lat="43.34228" lon="2.43289">
        <ele>427.7</ele>
        <time>2023-05-28T06:27:33Z</time>
      </trkpt>
      <trkpt lat="43.34229" lon="2.43291">
        <ele>427.7</ele>
        <time>2023-05-28T06:27:34Z</time>
      </trkpt>
      <trkpt lat="43.3423" lon="2.43293">
        <ele>427.8</ele>
        <time>2023-05-28T06:27:35Z</time>
      </trkpt>
      <trkpt lat="43.34231" lon="2.43294">
        <ele>427.8</ele>
        <time>2023-05-28T06:27:36Z</time>
      </trkpt>
      <trkpt lat="43.34232" lon="2.43297">
        <ele>427.9</ele>
        <time>2023-05-28T06:27:37Z</time>
      </trkpt>
      <trkpt lat="43.34233" lon="2.43298">
        <ele>428</ele>
        <time>2023-05-28T06:27:38Z</time>
      </trkpt>
      <trkpt lat="43.34233" lon="2.433">
        <ele>428.1</ele>
        <time>2023-05-28T06:27:39Z</time>
      </trkpt>
      <trkpt lat="43.34234" lon="2.433">
        <ele>428.1</ele>
        <time>2023-05-28T06:27:40Z</time>
      </trkpt>
      <trkpt lat="43.34235" lon="2.433">
        <ele>428.1</ele>
        <time>2023-05-28T06:27:41Z</time>
      </trkpt>
      <trkpt lat="43.34236" lon="2.43301">
        <ele>428.2</ele>
        <time>2023-05-28T06:27:42Z</time>
      </trkpt>
      <trkpt lat="43.34237" lon="2.43302">
        <ele>428.3</ele>
        <time>2023-05-28T06:27:43Z</time>
      </trkpt>
      <trkpt lat="43.34237" lon="2.43303">
        <ele>428.3</ele>
        <time>2023-05-28T06:27:44Z</time>
      </trkpt>
      <trkpt lat="43.34238" lon="2.43304">
        <ele>428.4</ele>
        <time>2023-05-28T06:27:45Z</time>
      </trkpt>
      <trkpt lat="43.34238" lon="2.43304">
        <ele>428.4</ele>
        <time>2023-05-28T06:27:46Z</time>
      </trkpt>
      <trkpt lat="43.34239" lon="2.43304">
        <ele>428.4</ele>
        <time>2023-05-28T06:27:47Z</time>
      </trkpt>
      <trkpt lat="43.3424" lon="2.43304">
        <ele>428.5</ele>
        <time>2023-05-28T06:27:48Z</time>
      </trkpt>
      <trkpt lat="43.34241" lon="2.43304">
        <ele>428.5</ele>
        <time>2023-05-28T06:27:49Z</time>
      </trkpt>
      <trkpt lat="43.34241" lon="2.43303">
        <ele>428.5</ele>
        <time>2023-05-28T06:27:50Z</time>
      </trkpt>
      <trkpt lat="43.34242" lon="2.43303">
        <ele>428.6</ele>
        <time>2023-05-28T06:27:51Z</time>
      </trkpt>
      <trkpt lat="43.34243" lon="2.43302">
        <ele>428.7</ele>
        <time>2023-05-28T06:27:52Z</time>
      </trkpt>
      <trkpt lat="43.34244" lon="2.43302">
        <ele>428.7</ele>
        <time>2023-05-28T06:27:53Z</time>
      </trkpt>
      <trkpt lat="43.34246" lon="2.43302">
        <ele>428.8</ele>
        <time>2023-05-28T06:27:54Z</time>
      </trkpt>
      <trkpt lat="43.34247" lon="2.43302">
        <ele>428.9</ele>
        <time>2023-05-28T06:27:55Z</time>
      </trkpt>
      <trkpt lat="43.34249" lon="2.43302">
        <ele>429</ele>
        <time>2023-05-28T06:27:56Z</time>
      </trkpt>
      <trkpt lat="43.34251" lon="2.43303">
        <ele>429.1</ele>
        <time>2023-05-28T06:27:57Z</time>
      </trkpt>
      <trkpt lat="43.34253" lon="2.43303">
        <ele>429.2</ele>
        <time>2023-05-28T06:27:58Z</time>
      </trkpt>
      <trkpt lat="43.34254" lon="2.43303">
        <ele>429.2</ele>
        <time>2023-05-28T06:27:59Z</time>
      </trkpt>
      <trkpt lat="43.34257" lon="2.43303">
        <ele>429.4</ele>
        <time>2023-05-28T06:28:00Z</time>
      </trkpt>
      <trkpt lat="43.34259" lon="2.43303">
        <ele>429.5</ele>
        <time>2023-05-28T06:28:01Z</time>
      </trkpt>
      <trkpt lat="43.34262" lon="2.43303">
        <ele>429.6</ele>
        <time>2023-05-28T06:28:02Z</time>
      </trkpt>
      <trkpt lat="43.34263" lon="2.43303">
        <ele>429.7</ele>
        <time>2023-05-28T06:28:03Z</time>
      </trkpt>
      <trkpt lat="43.34266" lon="2.43304">
        <ele>429.9</ele>
        <time>2023-05-28T06:28:04Z</time>
      </trkpt>
      <trkpt lat="43.34267" lon="2.43304">
        <ele>429.9</ele>
        <time>2023-05-28T06:28:05Z</time>
      </trkpt>
      <trkpt lat="43.3427" lon="2.43305">
        <ele>430.1</ele>
        <time>2023-05-28T06:28:06Z</time>
      </trkpt>
      <trkpt lat="43.34271" lon="2.43305">
        <ele>430.1</ele>
        <time>2023-05-28T06:28:07Z</time>
      </trkpt>
      <trkpt lat="43.34274" lon="2.43304">
        <ele>430.3</ele>
        <time>2023-05-28T06:28:08Z</time>
      </trkpt>
      <trkpt lat="43.34275" lon="2.43304">
        <ele>430.3</ele>
        <time>2023-05-28T06:28:09Z</time>
      </trkpt>
      <trkpt lat="43.34278" lon="2.43304">
        <ele>430.5</ele>
        <time>2023-05-28T06:28:10Z</time>
      </trkpt>
      <trkpt lat="43.34279" lon="2.43303">
        <ele>430.6</ele>
        <time>2023-05-28T06:28:11Z</time>
      </trkpt>
      <trkpt lat="43.34282" lon="2.43303">
        <ele>430.7</ele>
        <time>2023-05-28T06:28:12Z</time>
      </trkpt>
      <trkpt lat="43.34283" lon="2.43303">
        <ele>430.8</ele>
        <time>2023-05-28T06:28:13Z</time>
      </trkpt>
      <trkpt lat="43.34286" lon="2.43304">
        <ele>430.9</ele>
        <time>2023-05-28T06:28:14Z</time>
      </trkpt>
      <trkpt lat="43.34287" lon="2.43304">
        <ele>431</ele>
        <time>2023-05-28T06:28:15Z</time>
      </trkpt>
      <trkpt lat="43.34288" lon="2.43304">
        <ele>431</ele>
        <time>2023-05-28T06:28:16Z</time>
      </trkpt>
      <trkpt lat="43.34291" lon="2.43306">
        <ele>431.2</ele>
        <time>2023-05-28T06:28:17Z</time>
      </trkpt>
      <trkpt lat="43.34291" lon="2.43306">
        <ele>431.2</ele>
        <time>2023-05-28T06:28:18Z</time>
      </trkpt>
      <trkpt lat="43.34293" lon="2.43308">
        <ele>431.3</ele>
        <time>2023-05-28T06:28:19Z</time>
      </trkpt>
      <trkpt lat="43.34294" lon="2.43309">
        <ele>431.4</ele>
        <time>2023-05-28T06:28:20Z</time>
      </trkpt>
      <trkpt lat="43.34294" lon="2.43311">
        <ele>431.5</ele>
        <time>2023-05-28T06:28:21Z</time>
      </trkpt>
      <trkpt lat="43.34295" lon="2.43314">
        <ele>431.6</ele>
        <time>2023-05-28T06:28:22Z</time>
      </trkpt>
      <trkpt lat="43.34296" lon="2.43316">
        <ele>431.7</ele>
        <time>2023-05-28T06:28:23Z</time>
      </trkpt>
      <trkpt lat="43.34297" lon="2.43317">
        <ele>431.7</ele>
        <time>2023-05-28T06:28:24Z</time>
      </trkpt>
      <trkpt lat="43.34298" lon="2.43321">
        <ele>431.9</ele>
        <time>2023-05-28T06:28:25Z</time>
      </trkpt>
      <trkpt lat="43.34298" lon="2.43322">
        <ele>431.9</ele>
        <time>2023-05-28T06:28:26Z</time>
      </trkpt>
      <trkpt lat="43.34298" lon="2.43324">
        <ele>432</ele>
        <time>2023-05-28T06:28:27Z</time>
      </trkpt>
      <trkpt lat="43.34298" lon="2.43326">
        <ele>432.1</ele>
        <time>2023-05-28T06:28:28Z</time>
      </trkpt>
      <trkpt lat="43.34299" lon="2.43328">
        <ele>432.2</ele>
        <time>2023-05-28T06:28:29Z</time>
      </trkpt>
      <trkpt lat="43.34301" lon="2.43332">
        <ele>432.4</ele>
        <time>2023-05-28T06:28:30Z</time>
      </trkpt>
      <trkpt lat="43.34302" lon="2.43334">
        <ele>432.4</ele>
        <time>2023-05-28T06:28:31Z</time>
      </trkpt>
      <trkpt lat="43.34304" lon="2.43336">
        <ele>432.6</ele>
        <time>2023-05-28T06:28:32Z</time>
      </trkpt>
      <trkpt lat="43.34305" lon="2.43337">
        <ele>432.6</ele>
        <time>2023-05-28T06:28:33Z</time>
      </trkpt>
      <trkpt lat="43.34308" lon="2.43339">
        <ele>432.8</ele>
        <time>2023-05-28T06:28:34Z</time>
      </trkpt>
      <trkpt lat="43.34309" lon="2.43339">
        <ele>432.9</ele>
        <time>2023-05-28T06:28:35Z</time>
      </trkpt>
      <trkpt lat="43.34312" lon="2.43341">
        <ele>433</ele>
        <time>2023-05-28T06:28:36Z</time>
      </trkpt>
      <trkpt lat="43.34313" lon="2.43342">
        <ele>433.1</ele>
        <time>2023-05-28T06:28:37Z</time>
      </trkpt>
      <trkpt lat="43.34314" lon="2.43343">
        <ele>433.2</ele>
        <time>2023-05-28T06:28:38Z</time>
      </trkpt>
      <trkpt lat="43.34315" lon="2.43344">
        <ele>433.3</ele>
        <time>2023-05-28T06:28:39Z</time>
      </trkpt>
      <trkpt lat="43.34317" lon="2.43345">
        <ele>433.3</ele>
        <time>2023-05-28T06:28:40Z</time>
      </trkpt>
      <trkpt lat="43.34318" lon="2.43347">
        <ele>433.4</ele>
        <time>2023-05-28T06:28:41Z</time>
      </trkpt>
      <trkpt lat="43.34318" lon="2.43348">
        <ele>433.5</ele>
        <time>2023-05-28T06:28:42Z</time>
      </trkpt>
      <trkpt lat="43.34319" lon="2.43351">
        <ele>433.6</ele>
        <time>2023-05-28T06:28:43Z</time>
      </trkpt>
      <trkpt lat="43.34321" lon="2.43354">
        <ele>433.7</ele>
        <time>2023-05-28T06:28:44Z</time>
      </trkpt>
      <trkpt lat="43.34321" lon="2.43355">
        <ele>433.8</ele>
        <time>2023-05-28T06:28:45Z</time>
      </trkpt>
      <trkpt lat="43.34323" lon="2.43359">
        <ele>434</ele>
        <time>2023-05-28T06:28:46Z</time>
      </trkpt>
      <trkpt lat="43.34324" lon="2.43361">
        <ele>434</ele>
        <time>2023-05-28T06:28:47Z</time>
      </trkpt>
      <trkpt lat="43.34325" lon="2.43365">
        <ele>434.2</ele>
        <time>2023-05-28T06:28:48Z</time>
      </trkpt>
      <trkpt lat="43.34326" lon="2.43366">
        <ele>434.3</ele>
        <time>2023-05-28T06:28:49Z</time>
      </trkpt>
      <trkpt lat="43.34327" lon="2.43369">
        <ele>434.4</ele>
        <time>2023-05-28T06:28:50Z</time>
      </trkpt>
      <trkpt lat="43.34328" lon="2.4337">
        <ele>434.5</ele>
        <time>2023-05-28T06:28:51Z</time>
      </trkpt>
      <trkpt lat="43.34329" lon="2.43372">
        <ele>434.5</ele>
        <time>2023-05-28T06:28:52Z</time>
      </trkpt>
      <trkpt lat="43.3433" lon="2.43374">
        <ele>434.6</ele>
        <time>2023-05-28T06:28:53Z</time>
      </trkpt>
      <trkpt lat="43.34331" lon="2.43375">
        <ele>434.7</ele>
        <time>2023-05-28T06:28:54Z</time>
      </trkpt>
      <trkpt lat="43.34332" lon="2.43377">
        <ele>434.8</ele>
        <time>2023-05-28T06:28:55Z</time>
      </trkpt>
      <trkpt lat="43.34333" lon="2.43379">
        <ele>434.9</ele>
        <time>2023-05-28T06:28:56Z</time>
      </trkpt>
      <trkpt lat="43.34334" lon="2.4338">
        <ele>435</ele>
        <time>2023-05-28T06:28:57Z</time>
      </trkpt>
      <trkpt lat="43.34335" lon="2.43382">
        <ele>435.1</ele>
        <time>2023-05-28T06:28:58Z</time>
      </trkpt>
      <trkpt lat="43.34336" lon="2.43384">
        <ele>435.2</ele>
        <time>2023-05-28T06:29:00Z</time>
      </trkpt>
      <trkpt lat="43.34338" lon="2.43388">
        <ele>435.3</ele>
        <time>2023-05-28T06:29:01Z</time>
      </trkpt>
      <trkpt lat="43.34339" lon="2.43389">
        <ele>435.4</ele>
        <time>2023-05-28T06:29:02Z</time>
      </trkpt>
      <trkpt lat="43.34341" lon="2.43392">
        <ele>435.6</ele>
        <time>2023-05-28T06:29:03Z</time>
      </trkpt>
      <trkpt lat="43.34341" lon="2.43393">
        <ele>435.6</ele>
        <time>2023-05-28T06:29:04Z</time>
      </trkpt>
      <trkpt lat="43.34343" lon="2.43397">
        <ele>435.8</ele>
        <time>2023-05-28T06:29:05Z</time>
      </trkpt>
      <trkpt lat="43.34344" lon="2.43398">
        <ele>435.8</ele>
        <time>2023-05-28T06:29:06Z</time>
      </trkpt>
      <trkpt lat="43.34345" lon="2.434">
        <ele>435.9</ele>
        <time>2023-05-28T06:29:07Z</time>
      </trkpt>
      <trkpt lat="43.34346" lon="2.43402">
        <ele>436</ele>
        <time>2023-05-28T06:29:08Z</time>
      </trkpt>
      <trkpt lat="43.34348" lon="2.43405">
        <ele>436.2</ele>
        <time>2023-05-28T06:29:09Z</time>
      </trkpt>
      <trkpt lat="43.34349" lon="2.43406">
        <ele>436.2</ele>
        <time>2023-05-28T06:29:10Z</time>
      </trkpt>
      <trkpt lat="43.34351" lon="2.43409">
        <ele>436.4</ele>
        <time>2023-05-28T06:29:11Z</time>
      </trkpt>
      <trkpt lat="43.34352" lon="2.4341">
        <ele>436.5</ele>
        <time>2023-05-28T06:29:12Z</time>
      </trkpt>
      <trkpt lat="43.34354" lon="2.43414">
        <ele>436.6</ele>
        <time>2023-05-28T06:29:13Z</time>
      </trkpt>
      <trkpt lat="43.34355" lon="2.43414">
        <ele>436.7</ele>
        <time>2023-05-28T06:29:14Z</time>
      </trkpt>
      <trkpt lat="43.34357" lon="2.43417">
        <ele>436.8</ele>
        <time>2023-05-28T06:29:15Z</time>
      </trkpt>
      <trkpt lat="43.34358" lon="2.43418">
        <ele>436.9</ele>
        <time>2023-05-28T06:29:16Z</time>
      </trkpt>
      <trkpt lat="43.3436" lon="2.4342">
        <ele>437.1</ele>
        <time>2023-05-28T06:29:17Z</time>
      </trkpt>
      <trkpt lat="43.34361" lon="2.43421">
        <ele>437.1</ele>
        <time>2023-05-28T06:29:18Z</time>
      </trkpt>
      <trkpt lat="43.34363" lon="2.43424">
        <ele>437.3</ele>
        <time>2023-05-28T06:29:19Z</time>
      </trkpt>
      <trkpt lat="43.34364" lon="2.43425">
        <ele>437.3</ele>
        <time>2023-05-28T06:29:20Z</time>
      </trkpt>
      <trkpt lat="43.34365" lon="2.43427">
        <ele>437.4</ele>
        <time>2023-05-28T06:29:21Z</time>
      </trkpt>
      <trkpt lat="43.34366" lon="2.43429">
        <ele>437.5</ele>
        <time>2023-05-28T06:29:22Z</time>
      </trkpt>
      <trkpt lat="43.34367" lon="2.4343">
        <ele>437.6</ele>
        <time>2023-05-28T06:29:23Z</time>
      </trkpt>
      <trkpt lat="43.34368" lon="2.43432">
        <ele>437.6</ele>
        <time>2023-05-28T06:29:24Z</time>
      </trkpt>
      <trkpt lat="43.34369" lon="2.43434">
        <ele>437.7</ele>
        <time>2023-05-28T06:29:25Z</time>
      </trkpt>
      <trkpt lat="43.34369" lon="2.43436">
        <ele>437.8</ele>
        <time>2023-05-28T06:29:26Z</time>
      </trkpt>
      <trkpt lat="43.3437" lon="2.43438">
        <ele>437.9</ele>
        <time>2023-05-28T06:29:27Z</time>
      </trkpt>
      <trkpt lat="43.3437" lon="2.4344">
        <ele>438</ele>
        <time>2023-05-28T06:29:28Z</time>
      </trkpt>
      <trkpt lat="43.3437" lon="2.43441">
        <ele>438</ele>
        <time>2023-05-28T06:29:29Z</time>
      </trkpt>
      <trkpt lat="43.34371" lon="2.43443">
        <ele>438.1</ele>
        <time>2023-05-28T06:29:30Z</time>
      </trkpt>
      <trkpt lat="43.34373" lon="2.43446">
        <ele>438.3</ele>
        <time>2023-05-28T06:29:31Z</time>
      </trkpt>
      <trkpt lat="43.34373" lon="2.43447">
        <ele>438.3</ele>
        <time>2023-05-28T06:29:32Z</time>
      </trkpt>
      <trkpt lat="43.34374" lon="2.43449">
        <ele>438.4</ele>
        <time>2023-05-28T06:29:33Z</time>
      </trkpt>
      <trkpt lat="43.34375" lon="2.43451">
        <ele>438.5</ele>
        <time>2023-05-28T06:29:34Z</time>
      </trkpt>
      <trkpt lat="43.34377" lon="2.43453">
        <ele>438.6</ele>
        <time>2023-05-28T06:29:35Z</time>
      </trkpt>
      <trkpt lat="43.34378" lon="2.43454">
        <ele>438.7</ele>
        <time>2023-05-28T06:29:36Z</time>
      </trkpt>
      <trkpt lat="43.34381" lon="2.43456">
        <ele>438.8</ele>
        <time>2023-05-28T06:29:37Z</time>
      </trkpt>
      <trkpt lat="43.34382" lon="2.43457">
        <ele>438.9</ele>
        <time>2023-05-28T06:29:38Z</time>
      </trkpt>
      <trkpt lat="43.34384" lon="2.4346">
        <ele>439.1</ele>
        <time>2023-05-28T06:29:39Z</time>
      </trkpt>
      <trkpt lat="43.34385" lon="2.43461">
        <ele>439.1</ele>
        <time>2023-05-28T06:29:40Z</time>
      </trkpt>
      <trkpt lat="43.34387" lon="2.43464">
        <ele>439.3</ele>
        <time>2023-05-28T06:29:41Z</time>
      </trkpt>
      <trkpt lat="43.34388" lon="2.43465">
        <ele>439.3</ele>
        <time>2023-05-28T06:29:42Z</time>
      </trkpt>
      <trkpt lat="43.3439" lon="2.43468">
        <ele>439.5</ele>
        <time>2023-05-28T06:29:43Z</time>
      </trkpt>
      <trkpt lat="43.34391" lon="2.4347">
        <ele>439.6</ele>
        <time>2023-05-28T06:29:44Z</time>
      </trkpt>
      <trkpt lat="43.34392" lon="2.43473">
        <ele>439.8</ele>
        <time>2023-05-28T06:29:45Z</time>
      </trkpt>
      <trkpt lat="43.34393" lon="2.43475">
        <ele>439.8</ele>
        <time>2023-05-28T06:29:46Z</time>
      </trkpt>
      <trkpt lat="43.34394" lon="2.43478">
        <ele>440</ele>
        <time>2023-05-28T06:29:47Z</time>
      </trkpt>
      <trkpt lat="43.34395" lon="2.43479">
        <ele>440</ele>
        <time>2023-05-28T06:29:48Z</time>
      </trkpt>
      <trkpt lat="43.34397" lon="2.43482">
        <ele>440.2</ele>
        <time>2023-05-28T06:29:49Z</time>
      </trkpt>
      <trkpt lat="43.34398" lon="2.43484">
        <ele>440.3</ele>
        <time>2023-05-28T06:29:50Z</time>
      </trkpt>
      <trkpt lat="43.344" lon="2.43487">
        <ele>440.4</ele>
        <time>2023-05-28T06:29:51Z</time>
      </trkpt>
      <trkpt lat="43.34401" lon="2.43488">
        <ele>440.5</ele>
        <time>2023-05-28T06:29:52Z</time>
      </trkpt>
      <trkpt lat="43.34404" lon="2.43492">
        <ele>440.7</ele>
        <time>2023-05-28T06:29:53Z</time>
      </trkpt>
      <trkpt lat="43.34405" lon="2.43493">
        <ele>440.7</ele>
        <time>2023-05-28T06:29:54Z</time>
      </trkpt>
      <trkpt lat="43.34406" lon="2.43495">
        <ele>440.8</ele>
        <time>2023-05-28T06:29:55Z</time>
      </trkpt>
      <trkpt lat="43.34407" lon="2.43497">
        <ele>440.9</ele>
        <time>2023-05-28T06:29:56Z</time>
      </trkpt>
      <trkpt lat="43.34407" lon="2.43499">
        <ele>441</ele>
        <time>2023-05-28T06:29:57Z</time>
      </trkpt>
      <trkpt lat="43.34409" lon="2.435">
        <ele>441.1</ele>
        <time>2023-05-28T06:29:58Z</time>
      </trkpt>
      <trkpt lat="43.3441" lon="2.43504">
        <ele>441.3</ele>
        <time>2023-05-28T06:29:59Z</time>
      </trkpt>
      <trkpt lat="43.34411" lon="2.43506">
        <ele>441.3</ele>
        <time>2023-05-28T06:30:00Z</time>
      </trkpt>
      <trkpt lat="43.34413" lon="2.4351">
        <ele>441.5</ele>
        <time>2023-05-28T06:30:01Z</time>
      </trkpt>
      <trkpt lat="43.34413" lon="2.43511">
        <ele>441.6</ele>
        <time>2023-05-28T06:30:02Z</time>
      </trkpt>
      <trkpt lat="43.34416" lon="2.43514">
        <ele>441.8</ele>
        <time>2023-05-28T06:30:03Z</time>
      </trkpt>
      <trkpt lat="43.34417" lon="2.43516">
        <ele>441.8</ele>
        <time>2023-05-28T06:30:04Z</time>
      </trkpt>
      <trkpt lat="43.34419" lon="2.43519">
        <ele>442</ele>
        <time>2023-05-28T06:30:05Z</time>
      </trkpt>
      <trkpt lat="43.3442" lon="2.43521">
        <ele>442.1</ele>
        <time>2023-05-28T06:30:06Z</time>
      </trkpt>
      <trkpt lat="43.34422" lon="2.43524">
        <ele>442.3</ele>
        <time>2023-05-28T06:30:07Z</time>
      </trkpt>
      <trkpt lat="43.34423" lon="2.43526">
        <ele>442.3</ele>
        <time>2023-05-28T06:30:08Z</time>
      </trkpt>
      <trkpt lat="43.34426" lon="2.4353">
        <ele>442.5</ele>
        <time>2023-05-28T06:30:09Z</time>
      </trkpt>
      <trkpt lat="43.34427" lon="2.43531">
        <ele>442.7</ele>
        <time>2023-05-28T06:30:10Z</time>
      </trkpt>
      <trkpt lat="43.34429" lon="2.43534">
        <ele>442.7</ele>
        <time>2023-05-28T06:30:11Z</time>
      </trkpt>
      <trkpt lat="43.3443" lon="2.43535">
        <ele>442.7</ele>
        <time>2023-05-28T06:30:12Z</time>
      </trkpt>
      <trkpt lat="43.34433" lon="2.43538">
        <ele>442.7</ele>
        <time>2023-05-28T06:30:13Z</time>
      </trkpt>
      <trkpt lat="43.34434" lon="2.43539">
        <ele>442.7</ele>
        <time>2023-05-28T06:30:14Z</time>
      </trkpt>
      <trkpt lat="43.34435" lon="2.4354">
        <ele>442.7</ele>
        <time>2023-05-28T06:30:15Z</time>
      </trkpt>
      <trkpt lat="43.34437" lon="2.43541">
        <ele>442.8</ele>
        <time>2023-05-28T06:30:16Z</time>
      </trkpt>
      <trkpt lat="43.34438" lon="2.43543">
        <ele>442.8</ele>
        <time>2023-05-28T06:30:17Z</time>
      </trkpt>
      <trkpt lat="43.34439" lon="2.43544">
        <ele>442.8</ele>
        <time>2023-05-28T06:30:18Z</time>
      </trkpt>
      <trkpt lat="43.3444" lon="2.43545">
        <ele>442.8</ele>
        <time>2023-05-28T06:30:19Z</time>
      </trkpt>
      <trkpt lat="43.3444" lon="2.43547">
        <ele>442.8</ele>
        <time>2023-05-28T06:30:20Z</time>
      </trkpt>
      <trkpt lat="43.34441" lon="2.43548">
        <ele>442.8</ele>
        <time>2023-05-28T06:30:21Z</time>
      </trkpt>
      <trkpt lat="43.34441" lon="2.43549">
        <ele>442.8</ele>
        <time>2023-05-28T06:30:22Z</time>
      </trkpt>
      <trkpt lat="43.34442" lon="2.4355">
        <ele>442.8</ele>
        <time>2023-05-28T06:30:23Z</time>
      </trkpt>
      <trkpt lat="43.34442" lon="2.43551">
        <ele>442.8</ele>
        <time>2023-05-28T06:30:24Z</time>
      </trkpt>
      <trkpt lat="43.34443" lon="2.43552">
        <ele>442.8</ele>
        <time>2023-05-28T06:30:25Z</time>
      </trkpt>
      <trkpt lat="43.34444" lon="2.43554">
        <ele>442.8</ele>
        <time>2023-05-28T06:30:26Z</time>
      </trkpt>
      <trkpt lat="43.34445" lon="2.43555">
        <ele>442.8</ele>
        <time>2023-05-28T06:30:27Z</time>
      </trkpt>
      <trkpt lat="43.34446" lon="2.43557">
        <ele>442.8</ele>
        <time>2023-05-28T06:30:28Z</time>
      </trkpt>
      <trkpt lat="43.34447" lon="2.4356">
        <ele>442.8</ele>
        <time>2023-05-28T06:30:29Z</time>
      </trkpt>
      <trkpt lat="43.34448" lon="2.43563">
        <ele>442.7</ele>
        <time>2023-05-28T06:30:30Z</time>
      </trkpt>
      <trkpt lat="43.34449" lon="2.43564">
        <ele>442.7</ele>
        <time>2023-05-28T06:30:31Z</time>
      </trkpt>
      <trkpt lat="43.3445" lon="2.43568">
        <ele>442.7</ele>
        <time>2023-05-28T06:30:32Z</time>
      </trkpt>
      <trkpt lat="43.3445" lon="2.43569">
        <ele>442.7</ele>
        <time>2023-05-28T06:30:33Z</time>
      </trkpt>
      <trkpt lat="43.34451" lon="2.43571">
        <ele>442.7</ele>
        <time>2023-05-28T06:30:34Z</time>
      </trkpt>
      <trkpt lat="43.34452" lon="2.43573">
        <ele>442.7</ele>
        <time>2023-05-28T06:30:35Z</time>
      </trkpt>
      <trkpt lat="43.34455" lon="2.43576">
        <ele>442.7</ele>
        <time>2023-05-28T06:30:36Z</time>
      </trkpt>
      <trkpt lat="43.34455" lon="2.43577">
        <ele>442.7</ele>
        <time>2023-05-28T06:30:37Z</time>
      </trkpt>
      <trkpt lat="43.34457" lon="2.4358">
        <ele>442.6</ele>
        <time>2023-05-28T06:30:38Z</time>
      </trkpt>
      <trkpt lat="43.34457" lon="2.43582">
        <ele>442.6</ele>
        <time>2023-05-28T06:30:39Z</time>
      </trkpt>
      <trkpt lat="43.34458" lon="2.43584">
        <ele>442.6</ele>
        <time>2023-05-28T06:30:40Z</time>
      </trkpt>
      <trkpt lat="43.34459" lon="2.43586">
        <ele>442.6</ele>
        <time>2023-05-28T06:30:41Z</time>
      </trkpt>
      <trkpt lat="43.34459" lon="2.43588">
        <ele>442.6</ele>
        <time>2023-05-28T06:30:42Z</time>
      </trkpt>
      <trkpt lat="43.3446" lon="2.4359">
        <ele>442.6</ele>
        <time>2023-05-28T06:30:43Z</time>
      </trkpt>
      <trkpt lat="43.34462" lon="2.43595">
        <ele>442.5</ele>
        <time>2023-05-28T06:30:44Z</time>
      </trkpt>
      <trkpt lat="43.34463" lon="2.43596">
        <ele>442.5</ele>
        <time>2023-05-28T06:30:45Z</time>
      </trkpt>
      <trkpt lat="43.34464" lon="2.436">
        <ele>442.4</ele>
        <time>2023-05-28T06:30:46Z</time>
      </trkpt>
      <trkpt lat="43.34465" lon="2.43601">
        <ele>442.4</ele>
        <time>2023-05-28T06:30:47Z</time>
      </trkpt>
      <trkpt lat="43.34465" lon="2.43603">
        <ele>442.4</ele>
        <time>2023-05-28T06:30:48Z</time>
      </trkpt>
      <trkpt lat="43.34466" lon="2.43604">
        <ele>442.3</ele>
        <time>2023-05-28T06:30:49Z</time>
      </trkpt>
      <trkpt lat="43.34466" lon="2.43605">
        <ele>442.3</ele>
        <time>2023-05-28T06:30:50Z</time>
      </trkpt>
      <trkpt lat="43.34466" lon="2.43606">
        <ele>442.3</ele>
        <time>2023-05-28T06:30:51Z</time>
      </trkpt>
      <trkpt lat="43.34467" lon="2.43606">
        <ele>442.3</ele>
        <time>2023-05-28T06:30:52Z</time>
      </trkpt>
      <trkpt lat="43.34467" lon="2.43607">
        <ele>442.3</ele>
        <time>2023-05-28T06:30:53Z</time>
      </trkpt>
      <trkpt lat="43.34467" lon="2.43608">
        <ele>442.2</ele>
        <time>2023-05-28T06:30:54Z</time>
      </trkpt>
      <trkpt lat="43.34468" lon="2.43608">
        <ele>442.2</ele>
        <time>2023-05-28T06:30:55Z</time>
      </trkpt>
      <trkpt lat="43.34468" lon="2.43609">
        <ele>442.2</ele>
        <time>2023-05-28T06:30:56Z</time>
      </trkpt>
      <trkpt lat="43.34468" lon="2.4361">
        <ele>442.2</ele>
        <time>2023-05-28T06:30:57Z</time>
      </trkpt>
      <trkpt lat="43.34469" lon="2.43611">
        <ele>442.1</ele>
        <time>2023-05-28T06:30:58Z</time>
      </trkpt>
      <trkpt lat="43.3447" lon="2.43613">
        <ele>442.1</ele>
        <time>2023-05-28T06:30:59Z</time>
      </trkpt>
      <trkpt lat="43.34472" lon="2.43617">
        <ele>442.1</ele>
        <time>2023-05-28T06:31:00Z</time>
      </trkpt>
      <trkpt lat="43.34473" lon="2.43618">
        <ele>442</ele>
        <time>2023-05-28T06:31:01Z</time>
      </trkpt>
      <trkpt lat="43.34474" lon="2.43619">
        <ele>442</ele>
        <time>2023-05-28T06:31:02Z</time>
      </trkpt>
      <trkpt lat="43.34475" lon="2.43619">
        <ele>442</ele>
        <time>2023-05-28T06:31:03Z</time>
      </trkpt>
      <trkpt lat="43.34479" lon="2.43621">
        <ele>441.9</ele>
        <time>2023-05-28T06:31:04Z</time>
      </trkpt>
      <trkpt lat="43.3448" lon="2.43622">
        <ele>441.9</ele>
        <time>2023-05-28T06:31:05Z</time>
      </trkpt>
      <trkpt lat="43.34483" lon="2.43625">
        <ele>441.8</ele>
        <time>2023-05-28T06:31:06Z</time>
      </trkpt>
      <trkpt lat="43.34484" lon="2.43626">
        <ele>441.8</ele>
        <time>2023-05-28T06:31:07Z</time>
      </trkpt>
      <trkpt lat="43.34487" lon="2.43628">
        <ele>441.7</ele>
        <time>2023-05-28T06:31:08Z</time>
      </trkpt>
      <trkpt lat="43.34488" lon="2.43628">
        <ele>441.6</ele>
        <time>2023-05-28T06:31:09Z</time>
      </trkpt>
      <trkpt lat="43.34492" lon="2.43629">
        <ele>441.5</ele>
        <time>2023-05-28T06:31:10Z</time>
      </trkpt>
      <trkpt lat="43.34493" lon="2.4363">
        <ele>441.5</ele>
        <time>2023-05-28T06:31:11Z</time>
      </trkpt>
      <trkpt lat="43.34496" lon="2.43631">
        <ele>441.4</ele>
        <time>2023-05-28T06:31:12Z</time>
      </trkpt>
      <trkpt lat="43.34499" lon="2.43631">
        <ele>441.3</ele>
        <time>2023-05-28T06:31:13Z</time>
      </trkpt>
      <trkpt lat="43.34502" lon="2.43632">
        <ele>441.2</ele>
        <time>2023-05-28T06:31:14Z</time>
      </trkpt>
      <trkpt lat="43.34505" lon="2.43633">
        <ele>441.1</ele>
        <time>2023-05-28T06:31:15Z</time>
      </trkpt>
      <trkpt lat="43.34508" lon="2.43634">
        <ele>441</ele>
        <time>2023-05-28T06:31:16Z</time>
      </trkpt>
      <trkpt lat="43.34511" lon="2.43634">
        <ele>440.9</ele>
        <time>2023-05-28T06:31:17Z</time>
      </trkpt>
      <trkpt lat="43.34514" lon="2.43635">
        <ele>440.8</ele>
        <time>2023-05-28T06:31:18Z</time>
      </trkpt>
      <trkpt lat="43.34518" lon="2.43636">
        <ele>440.7</ele>
        <time>2023-05-28T06:31:19Z</time>
      </trkpt>
      <trkpt lat="43.34521" lon="2.43637">
        <ele>440.5</ele>
        <time>2023-05-28T06:31:20Z</time>
      </trkpt>
      <trkpt lat="43.34522" lon="2.43637">
        <ele>440.5</ele>
        <time>2023-05-28T06:31:21Z</time>
      </trkpt>
      <trkpt lat="43.34526" lon="2.43638">
        <ele>440.4</ele>
        <time>2023-05-28T06:31:22Z</time>
      </trkpt>
      <trkpt lat="43.34527" lon="2.43638">
        <ele>440.4</ele>
        <time>2023-05-28T06:31:23Z</time>
      </trkpt>
      <trkpt lat="43.3453" lon="2.43639">
        <ele>440.3</ele>
        <time>2023-05-28T06:31:24Z</time>
      </trkpt>
      <trkpt lat="43.34534" lon="2.4364">
        <ele>440.1</ele>
        <time>2023-05-28T06:31:25Z</time>
      </trkpt>
      <trkpt lat="43.34535" lon="2.4364">
        <ele>440.1</ele>
        <time>2023-05-28T06:31:26Z</time>
      </trkpt>
      <trkpt lat="43.34538" lon="2.43642">
        <ele>440</ele>
        <time>2023-05-28T06:31:27Z</time>
      </trkpt>
      <trkpt lat="43.34539" lon="2.43643">
        <ele>439.9</ele>
        <time>2023-05-28T06:31:28Z</time>
      </trkpt>
      <trkpt lat="43.34542" lon="2.43643">
        <ele>439.8</ele>
        <time>2023-05-28T06:31:29Z</time>
      </trkpt>
      <trkpt lat="43.34543" lon="2.43643">
        <ele>439.8</ele>
        <time>2023-05-28T06:31:30Z</time>
      </trkpt>
      <trkpt lat="43.34547" lon="2.43642">
        <ele>439.7</ele>
        <time>2023-05-28T06:31:31Z</time>
      </trkpt>
      <trkpt lat="43.34548" lon="2.43642">
        <ele>439.6</ele>
        <time>2023-05-28T06:31:32Z</time>
      </trkpt>
      <trkpt lat="43.34552" lon="2.43641">
        <ele>439.5</ele>
        <time>2023-05-28T06:31:33Z</time>
      </trkpt>
      <trkpt lat="43.34553" lon="2.43641">
        <ele>439.5</ele>
        <time>2023-05-28T06:31:34Z</time>
      </trkpt>
      <trkpt lat="43.34557" lon="2.43641">
        <ele>439.4</ele>
        <time>2023-05-28T06:31:35Z</time>
      </trkpt>
      <trkpt lat="43.34558" lon="2.43641">
        <ele>439.4</ele>
        <time>2023-05-28T06:31:36Z</time>
      </trkpt>
      <trkpt lat="43.34562" lon="2.43641">
        <ele>439.3</ele>
        <time>2023-05-28T06:31:37Z</time>
      </trkpt>
      <trkpt lat="43.34563" lon="2.43641">
        <ele>439.3</ele>
        <time>2023-05-28T06:31:38Z</time>
      </trkpt>
      <trkpt lat="43.34566" lon="2.43641">
        <ele>439.3</ele>
        <time>2023-05-28T06:31:39Z</time>
      </trkpt>
      <trkpt lat="43.34569" lon="2.43641">
        <ele>439.2</ele>
        <time>2023-05-28T06:31:40Z</time>
      </trkpt>
      <trkpt lat="43.34572" lon="2.43641">
        <ele>439.2</ele>
        <time>2023-05-28T06:31:41Z</time>
      </trkpt>
      <trkpt lat="43.34575" lon="2.4364">
        <ele>439.2</ele>
        <time>2023-05-28T06:31:42Z</time>
      </trkpt>
      <trkpt lat="43.34577" lon="2.4364">
        <ele>439.2</ele>
        <time>2023-05-28T06:31:43Z</time>
      </trkpt>
      <trkpt lat="43.3458" lon="2.4364">
        <ele>439.3</ele>
        <time>2023-05-28T06:31:44Z</time>
      </trkpt>
      <trkpt lat="43.34584" lon="2.4364">
        <ele>439.3</ele>
        <time>2023-05-28T06:31:45Z</time>
      </trkpt>
      <trkpt lat="43.34584" lon="2.4364">
        <ele>439.4</ele>
        <time>2023-05-28T06:31:46Z</time>
      </trkpt>
      <trkpt lat="43.34588" lon="2.4364">
        <ele>439.4</ele>
        <time>2023-05-28T06:31:47Z</time>
      </trkpt>
      <trkpt lat="43.34589" lon="2.4364">
        <ele>439.5</ele>
        <time>2023-05-28T06:31:48Z</time>
      </trkpt>
      <trkpt lat="43.34592" lon="2.4364">
        <ele>439.6</ele>
        <time>2023-05-28T06:31:49Z</time>
      </trkpt>
      <trkpt lat="43.34593" lon="2.4364">
        <ele>439.6</ele>
        <time>2023-05-28T06:31:50Z</time>
      </trkpt>
      <trkpt lat="43.34597" lon="2.43642">
        <ele>439.7</ele>
        <time>2023-05-28T06:31:51Z</time>
      </trkpt>
      <trkpt lat="43.34598" lon="2.43642">
        <ele>439.7</ele>
        <time>2023-05-28T06:31:52Z</time>
      </trkpt>
      <trkpt lat="43.34601" lon="2.43643">
        <ele>439.8</ele>
        <time>2023-05-28T06:31:53Z</time>
      </trkpt>
      <trkpt lat="43.34605" lon="2.43645">
        <ele>440</ele>
        <time>2023-05-28T06:31:54Z</time>
      </trkpt>
      <trkpt lat="43.34606" lon="2.43645">
        <ele>440</ele>
        <time>2023-05-28T06:31:55Z</time>
      </trkpt>
      <trkpt lat="43.34607" lon="2.43646">
        <ele>440.1</ele>
        <time>2023-05-28T06:31:56Z</time>
      </trkpt>
      <trkpt lat="43.34608" lon="2.43647">
        <ele>440.2</ele>
        <time>2023-05-28T06:31:57Z</time>
      </trkpt>
      <trkpt lat="43.34611" lon="2.43651">
        <ele>440.3</ele>
        <time>2023-05-28T06:31:58Z</time>
      </trkpt>
      <trkpt lat="43.34611" lon="2.43652">
        <ele>440.4</ele>
        <time>2023-05-28T06:31:59Z</time>
      </trkpt>
      <trkpt lat="43.34613" lon="2.43656">
        <ele>440.6</ele>
        <time>2023-05-28T06:32:00Z</time>
      </trkpt>
      <trkpt lat="43.34614" lon="2.43657">
        <ele>440.7</ele>
        <time>2023-05-28T06:32:01Z</time>
      </trkpt>
      <trkpt lat="43.34615" lon="2.43662">
        <ele>440.9</ele>
        <time>2023-05-28T06:32:02Z</time>
      </trkpt>
      <trkpt lat="43.34615" lon="2.43663">
        <ele>440.9</ele>
        <time>2023-05-28T06:32:03Z</time>
      </trkpt>
      <trkpt lat="43.34617" lon="2.43667">
        <ele>441.1</ele>
        <time>2023-05-28T06:32:04Z</time>
      </trkpt>
      <trkpt lat="43.34617" lon="2.43668">
        <ele>441.2</ele>
        <time>2023-05-28T06:32:05Z</time>
      </trkpt>
      <trkpt lat="43.34619" lon="2.43673">
        <ele>441.4</ele>
        <time>2023-05-28T06:32:06Z</time>
      </trkpt>
      <trkpt lat="43.34619" lon="2.43674">
        <ele>441.5</ele>
        <time>2023-05-28T06:32:07Z</time>
      </trkpt>
      <trkpt lat="43.3462" lon="2.43679">
        <ele>441.7</ele>
        <time>2023-05-28T06:32:08Z</time>
      </trkpt>
      <trkpt lat="43.34621" lon="2.43683">
        <ele>442</ele>
        <time>2023-05-28T06:32:09Z</time>
      </trkpt>
      <trkpt lat="43.34622" lon="2.43687">
        <ele>442.2</ele>
        <time>2023-05-28T06:32:10Z</time>
      </trkpt>
      <trkpt lat="43.34623" lon="2.43688">
        <ele>442.3</ele>
        <time>2023-05-28T06:32:11Z</time>
      </trkpt>
      <trkpt lat="43.34623" lon="2.4369">
        <ele>442.4</ele>
        <time>2023-05-28T06:32:12Z</time>
      </trkpt>
      <trkpt lat="43.34624" lon="2.43692">
        <ele>442.6</ele>
        <time>2023-05-28T06:32:13Z</time>
      </trkpt>
      <trkpt lat="43.34626" lon="2.43696">
        <ele>442.9</ele>
        <time>2023-05-28T06:32:14Z</time>
      </trkpt>
      <trkpt lat="43.34626" lon="2.43697">
        <ele>443</ele>
        <time>2023-05-28T06:32:15Z</time>
      </trkpt>
      <trkpt lat="43.34629" lon="2.43701">
        <ele>443.3</ele>
        <time>2023-05-28T06:32:16Z</time>
      </trkpt>
      <trkpt lat="43.34629" lon="2.43702">
        <ele>443.4</ele>
        <time>2023-05-28T06:32:17Z</time>
      </trkpt>
      <trkpt lat="43.34633" lon="2.43703">
        <ele>443.7</ele>
        <time>2023-05-28T06:32:18Z</time>
      </trkpt>
      <trkpt lat="43.34635" lon="2.43704">
        <ele>443.8</ele>
        <time>2023-05-28T06:32:19Z</time>
      </trkpt>
      <trkpt lat="43.34638" lon="2.43705">
        <ele>444.1</ele>
        <time>2023-05-28T06:32:20Z</time>
      </trkpt>
      <trkpt lat="43.3464" lon="2.43707">
        <ele>444.4</ele>
        <time>2023-05-28T06:32:21Z</time>
      </trkpt>
      <trkpt lat="43.34641" lon="2.43709">
        <ele>444.5</ele>
        <time>2023-05-28T06:32:22Z</time>
      </trkpt>
      <trkpt lat="43.34642" lon="2.4371">
        <ele>444.6</ele>
        <time>2023-05-28T06:32:23Z</time>
      </trkpt>
      <trkpt lat="43.34644" lon="2.43714">
        <ele>444.9</ele>
        <time>2023-05-28T06:32:24Z</time>
      </trkpt>
      <trkpt lat="43.34645" lon="2.43715">
        <ele>445</ele>
        <time>2023-05-28T06:32:25Z</time>
      </trkpt>
      <trkpt lat="43.34648" lon="2.43716">
        <ele>445.3</ele>
        <time>2023-05-28T06:32:26Z</time>
      </trkpt>
      <trkpt lat="43.34649" lon="2.43717">
        <ele>445.4</ele>
        <time>2023-05-28T06:32:27Z</time>
      </trkpt>
      <trkpt lat="43.34653" lon="2.43717">
        <ele>445.7</ele>
        <time>2023-05-28T06:32:28Z</time>
      </trkpt>
      <trkpt lat="43.34654" lon="2.43718">
        <ele>445.8</ele>
        <time>2023-05-28T06:32:29Z</time>
      </trkpt>
      <trkpt lat="43.34658" lon="2.43718">
        <ele>446.2</ele>
        <time>2023-05-28T06:32:30Z</time>
      </trkpt>
      <trkpt lat="43.34659" lon="2.43718">
        <ele>446.3</ele>
        <time>2023-05-28T06:32:31Z</time>
      </trkpt>
      <trkpt lat="43.34661" lon="2.43718">
        <ele>446.8</ele>
        <time>2023-05-28T06:32:32Z</time>
      </trkpt>
      <trkpt lat="43.34662" lon="2.43718">
        <ele>446.9</ele>
        <time>2023-05-28T06:32:33Z</time>
      </trkpt>
      <trkpt lat="43.34663" lon="2.43717">
        <ele>446.9</ele>
        <time>2023-05-28T06:32:34Z</time>
      </trkpt>
      <trkpt lat="43.34665" lon="2.43716">
        <ele>447.2</ele>
        <time>2023-05-28T06:32:35Z</time>
      </trkpt>
      <trkpt lat="43.34666" lon="2.43715">
        <ele>447.2</ele>
        <time>2023-05-28T06:32:36Z</time>
      </trkpt>
      <trkpt lat="43.34668" lon="2.43714">
        <ele>447.4</ele>
        <time>2023-05-28T06:32:37Z</time>
      </trkpt>
      <trkpt lat="43.34672" lon="2.43712">
        <ele>447.7</ele>
        <time>2023-05-28T06:32:39Z</time>
      </trkpt>
      <trkpt lat="43.34674" lon="2.43712">
        <ele>447.9</ele>
        <time>2023-05-28T06:32:40Z</time>
      </trkpt>
      <trkpt lat="43.34677" lon="2.43712">
        <ele>448.1</ele>
        <time>2023-05-28T06:32:41Z</time>
      </trkpt>
      <trkpt lat="43.34678" lon="2.43712">
        <ele>448.2</ele>
        <time>2023-05-28T06:32:42Z</time>
      </trkpt>
      <trkpt lat="43.3468" lon="2.43712">
        <ele>448.3</ele>
        <time>2023-05-28T06:32:43Z</time>
      </trkpt>
      <trkpt lat="43.34684" lon="2.43715">
        <ele>448.6</ele>
        <time>2023-05-28T06:32:45Z</time>
      </trkpt>
      <trkpt lat="43.34686" lon="2.43716">
        <ele>448.7</ele>
        <time>2023-05-28T06:32:46Z</time>
      </trkpt>
      <trkpt lat="43.34689" lon="2.43719">
        <ele>448.9</ele>
        <time>2023-05-28T06:32:47Z</time>
      </trkpt>
      <trkpt lat="43.3469" lon="2.4372">
        <ele>449</ele>
        <time>2023-05-28T06:32:48Z</time>
      </trkpt>
      <trkpt lat="43.34692" lon="2.43722">
        <ele>449</ele>
        <time>2023-05-28T06:32:49Z</time>
      </trkpt>
      <trkpt lat="43.34693" lon="2.43722">
        <ele>449.1</ele>
        <time>2023-05-28T06:32:50Z</time>
      </trkpt>
      <trkpt lat="43.34696" lon="2.43725">
        <ele>449.3</ele>
        <time>2023-05-28T06:32:51Z</time>
      </trkpt>
      <trkpt lat="43.34697" lon="2.43727">
        <ele>449.3</ele>
        <time>2023-05-28T06:32:52Z</time>
      </trkpt>
      <trkpt lat="43.34699" lon="2.4373">
        <ele>449.4</ele>
        <time>2023-05-28T06:32:53Z</time>
      </trkpt>
      <trkpt lat="43.347" lon="2.43734">
        <ele>449.5</ele>
        <time>2023-05-28T06:32:54Z</time>
      </trkpt>
      <trkpt lat="43.34701" lon="2.43736">
        <ele>449.6</ele>
        <time>2023-05-28T06:32:55Z</time>
      </trkpt>
      <trkpt lat="43.34702" lon="2.43741">
        <ele>449.7</ele>
        <time>2023-05-28T06:32:56Z</time>
      </trkpt>
      <trkpt lat="43.34703" lon="2.43742">
        <ele>449.7</ele>
        <time>2023-05-28T06:32:57Z</time>
      </trkpt>
      <trkpt lat="43.34705" lon="2.43745">
        <ele>449.8</ele>
        <time>2023-05-28T06:32:58Z</time>
      </trkpt>
      <trkpt lat="43.34705" lon="2.43746">
        <ele>449.8</ele>
        <time>2023-05-28T06:32:59Z</time>
      </trkpt>
      <trkpt lat="43.34706" lon="2.4375">
        <ele>449.9</ele>
        <time>2023-05-28T06:33:00Z</time>
      </trkpt>
      <trkpt lat="43.34706" lon="2.43751">
        <ele>450</ele>
        <time>2023-05-28T06:33:01Z</time>
      </trkpt>
      <trkpt lat="43.34707" lon="2.43753">
        <ele>450</ele>
        <time>2023-05-28T06:33:02Z</time>
      </trkpt>
      <trkpt lat="43.34708" lon="2.43755">
        <ele>450.1</ele>
        <time>2023-05-28T06:33:03Z</time>
      </trkpt>
      <trkpt lat="43.34709" lon="2.43758">
        <ele>450.2</ele>
        <time>2023-05-28T06:33:04Z</time>
      </trkpt>
      <trkpt lat="43.34709" lon="2.4376">
        <ele>450.2</ele>
        <time>2023-05-28T06:33:05Z</time>
      </trkpt>
      <trkpt lat="43.34709" lon="2.43765">
        <ele>450.4</ele>
        <time>2023-05-28T06:33:06Z</time>
      </trkpt>
      <trkpt lat="43.34709" lon="2.43767">
        <ele>450.4</ele>
        <time>2023-05-28T06:33:07Z</time>
      </trkpt>
      <trkpt lat="43.34709" lon="2.43772">
        <ele>450.5</ele>
        <time>2023-05-28T06:33:08Z</time>
      </trkpt>
      <trkpt lat="43.34709" lon="2.43773">
        <ele>450.5</ele>
        <time>2023-05-28T06:33:09Z</time>
      </trkpt>
      <trkpt lat="43.34709" lon="2.43778">
        <ele>450.6</ele>
        <time>2023-05-28T06:33:10Z</time>
      </trkpt>
      <trkpt lat="43.34709" lon="2.4378">
        <ele>450.7</ele>
        <time>2023-05-28T06:33:11Z</time>
      </trkpt>
      <trkpt lat="43.34709" lon="2.43783">
        <ele>450.7</ele>
        <time>2023-05-28T06:33:12Z</time>
      </trkpt>
      <trkpt lat="43.34708" lon="2.43788">
        <ele>450.8</ele>
        <time>2023-05-28T06:33:13Z</time>
      </trkpt>
      <trkpt lat="43.34708" lon="2.4379">
        <ele>450.9</ele>
        <time>2023-05-28T06:33:14Z</time>
      </trkpt>
      <trkpt lat="43.34707" lon="2.43795">
        <ele>450.9</ele>
        <time>2023-05-28T06:33:15Z</time>
      </trkpt>
      <trkpt lat="43.34707" lon="2.43796">
        <ele>451</ele>
        <time>2023-05-28T06:33:16Z</time>
      </trkpt>
      <trkpt lat="43.34706" lon="2.438">
        <ele>451</ele>
        <time>2023-05-28T06:33:17Z</time>
      </trkpt>
      <trkpt lat="43.34706" lon="2.43802">
        <ele>451.1</ele>
        <time>2023-05-28T06:33:18Z</time>
      </trkpt>
      <trkpt lat="43.34704" lon="2.43807">
        <ele>451.1</ele>
        <time>2023-05-28T06:33:19Z</time>
      </trkpt>
      <trkpt lat="43.34704" lon="2.43808">
        <ele>451.2</ele>
        <time>2023-05-28T06:33:20Z</time>
      </trkpt>
      <trkpt lat="43.34702" lon="2.43812">
        <ele>451.3</ele>
        <time>2023-05-28T06:33:21Z</time>
      </trkpt>
      <trkpt lat="43.34702" lon="2.43813">
        <ele>451.3</ele>
        <time>2023-05-28T06:33:22Z</time>
      </trkpt>
      <trkpt lat="43.34701" lon="2.43817">
        <ele>451.4</ele>
        <time>2023-05-28T06:33:23Z</time>
      </trkpt>
      <trkpt lat="43.347" lon="2.43819">
        <ele>451.4</ele>
        <time>2023-05-28T06:33:24Z</time>
      </trkpt>
      <trkpt lat="43.34699" lon="2.43824">
        <ele>451.5</ele>
        <time>2023-05-28T06:33:25Z</time>
      </trkpt>
      <trkpt lat="43.34699" lon="2.43825">
        <ele>451.6</ele>
        <time>2023-05-28T06:33:26Z</time>
      </trkpt>
      <trkpt lat="43.34697" lon="2.4383">
        <ele>451.7</ele>
        <time>2023-05-28T06:33:27Z</time>
      </trkpt>
      <trkpt lat="43.34697" lon="2.43832">
        <ele>451.8</ele>
        <time>2023-05-28T06:33:28Z</time>
      </trkpt>
      <trkpt lat="43.34697" lon="2.43836">
        <ele>451.9</ele>
        <time>2023-05-28T06:33:29Z</time>
      </trkpt>
      <trkpt lat="43.34697" lon="2.43837">
        <ele>451.9</ele>
        <time>2023-05-28T06:33:30Z</time>
      </trkpt>
      <trkpt lat="43.34697" lon="2.43839">
        <ele>452</ele>
        <time>2023-05-28T06:33:31Z</time>
      </trkpt>
      <trkpt lat="43.34697" lon="2.43842">
        <ele>452.1</ele>
        <time>2023-05-28T06:33:32Z</time>
      </trkpt>
      <trkpt lat="43.34696" lon="2.43847">
        <ele>452.3</ele>
        <time>2023-05-28T06:33:33Z</time>
      </trkpt>
      <trkpt lat="43.34696" lon="2.43848">
        <ele>452.4</ele>
        <time>2023-05-28T06:33:34Z</time>
      </trkpt>
      <trkpt lat="43.34696" lon="2.4385">
        <ele>452.5</ele>
        <time>2023-05-28T06:33:35Z</time>
      </trkpt>
      <trkpt lat="43.34696" lon="2.43853">
        <ele>452.6</ele>
        <time>2023-05-28T06:33:36Z</time>
      </trkpt>
      <trkpt lat="43.34697" lon="2.43857">
        <ele>452.8</ele>
        <time>2023-05-28T06:33:37Z</time>
      </trkpt>
      <trkpt lat="43.34697" lon="2.43859">
        <ele>452.8</ele>
        <time>2023-05-28T06:33:38Z</time>
      </trkpt>
      <trkpt lat="43.34697" lon="2.43861">
        <ele>452.9</ele>
        <time>2023-05-28T06:33:39Z</time>
      </trkpt>
      <trkpt lat="43.34697" lon="2.43863">
        <ele>453</ele>
        <time>2023-05-28T06:33:40Z</time>
      </trkpt>
      <trkpt lat="43.34698" lon="2.43867">
        <ele>453.2</ele>
        <time>2023-05-28T06:33:41Z</time>
      </trkpt>
      <trkpt lat="43.34698" lon="2.43869">
        <ele>453.3</ele>
        <time>2023-05-28T06:33:42Z</time>
      </trkpt>
      <trkpt lat="43.34698" lon="2.43873">
        <ele>453.4</ele>
        <time>2023-05-28T06:33:43Z</time>
      </trkpt>
      <trkpt lat="43.34699" lon="2.43877">
        <ele>453.6</ele>
        <time>2023-05-28T06:33:44Z</time>
      </trkpt>
      <trkpt lat="43.34699" lon="2.43878">
        <ele>453.7</ele>
        <time>2023-05-28T06:33:45Z</time>
      </trkpt>
      <trkpt lat="43.347" lon="2.43883">
        <ele>453.8</ele>
        <time>2023-05-28T06:33:46Z</time>
      </trkpt>
      <trkpt lat="43.347" lon="2.43884">
        <ele>453.9</ele>
        <time>2023-05-28T06:33:47Z</time>
      </trkpt>
      <trkpt lat="43.347" lon="2.43889">
        <ele>454</ele>
        <time>2023-05-28T06:33:48Z</time>
      </trkpt>
      <trkpt lat="43.347" lon="2.4389">
        <ele>454.1</ele>
        <time>2023-05-28T06:33:49Z</time>
      </trkpt>
      <trkpt lat="43.34701" lon="2.43895">
        <ele>454.2</ele>
        <time>2023-05-28T06:33:50Z</time>
      </trkpt>
      <trkpt lat="43.34701" lon="2.43897">
        <ele>454.3</ele>
        <time>2023-05-28T06:33:51Z</time>
      </trkpt>
      <trkpt lat="43.34701" lon="2.43901">
        <ele>454.4</ele>
        <time>2023-05-28T06:33:52Z</time>
      </trkpt>
      <trkpt lat="43.34701" lon="2.43903">
        <ele>454.4</ele>
        <time>2023-05-28T06:33:53Z</time>
      </trkpt>
      <trkpt lat="43.34701" lon="2.43907">
        <ele>454.5</ele>
        <time>2023-05-28T06:33:54Z</time>
      </trkpt>
      <trkpt lat="43.34701" lon="2.43909">
        <ele>454.5</ele>
        <time>2023-05-28T06:33:55Z</time>
      </trkpt>
      <trkpt lat="43.34701" lon="2.43914">
        <ele>454.6</ele>
        <time>2023-05-28T06:33:56Z</time>
      </trkpt>
      <trkpt lat="43.34701" lon="2.43916">
        <ele>454.6</ele>
        <time>2023-05-28T06:33:57Z</time>
      </trkpt>
      <trkpt lat="43.34701" lon="2.43921">
        <ele>454.7</ele>
        <time>2023-05-28T06:33:58Z</time>
      </trkpt>
      <trkpt lat="43.34701" lon="2.43923">
        <ele>454.7</ele>
        <time>2023-05-28T06:33:59Z</time>
      </trkpt>
      <trkpt lat="43.34702" lon="2.43928">
        <ele>454.8</ele>
        <time>2023-05-28T06:34:00Z</time>
      </trkpt>
      <trkpt lat="43.34702" lon="2.4393">
        <ele>454.9</ele>
        <time>2023-05-28T06:34:01Z</time>
      </trkpt>
      <trkpt lat="43.34702" lon="2.43935">
        <ele>455</ele>
        <time>2023-05-28T06:34:02Z</time>
      </trkpt>
      <trkpt lat="43.34702" lon="2.43936">
        <ele>455</ele>
        <time>2023-05-28T06:34:03Z</time>
      </trkpt>
      <trkpt lat="43.34703" lon="2.4394">
        <ele>455.1</ele>
        <time>2023-05-28T06:34:04Z</time>
      </trkpt>
      <trkpt lat="43.34703" lon="2.43942">
        <ele>455.1</ele>
        <time>2023-05-28T06:34:05Z</time>
      </trkpt>
      <trkpt lat="43.34704" lon="2.43946">
        <ele>455.2</ele>
        <time>2023-05-28T06:34:06Z</time>
      </trkpt>
      <trkpt lat="43.34705" lon="2.4395">
        <ele>455.4</ele>
        <time>2023-05-28T06:34:07Z</time>
      </trkpt>
      <trkpt lat="43.34706" lon="2.43954">
        <ele>455.5</ele>
        <time>2023-05-28T06:34:08Z</time>
      </trkpt>
      <trkpt lat="43.34706" lon="2.43959">
        <ele>455.7</ele>
        <time>2023-05-28T06:34:09Z</time>
      </trkpt>
      <trkpt lat="43.34706" lon="2.4396">
        <ele>455.7</ele>
        <time>2023-05-28T06:34:10Z</time>
      </trkpt>
      <trkpt lat="43.34705" lon="2.43963">
        <ele>455.8</ele>
        <time>2023-05-28T06:34:11Z</time>
      </trkpt>
      <trkpt lat="43.34705" lon="2.43965">
        <ele>455.9</ele>
        <time>2023-05-28T06:34:12Z</time>
      </trkpt>
      <trkpt lat="43.34705" lon="2.43969">
        <ele>456.1</ele>
        <time>2023-05-28T06:34:13Z</time>
      </trkpt>
      <trkpt lat="43.34705" lon="2.43971">
        <ele>456.2</ele>
        <time>2023-05-28T06:34:14Z</time>
      </trkpt>
      <trkpt lat="43.34705" lon="2.43975">
        <ele>456.4</ele>
        <time>2023-05-28T06:34:15Z</time>
      </trkpt>
      <trkpt lat="43.34704" lon="2.43976">
        <ele>456.5</ele>
        <time>2023-05-28T06:34:16Z</time>
      </trkpt>
      <trkpt lat="43.34704" lon="2.43981">
        <ele>456.7</ele>
        <time>2023-05-28T06:34:17Z</time>
      </trkpt>
      <trkpt lat="43.34704" lon="2.43983">
        <ele>456.8</ele>
        <time>2023-05-28T06:34:18Z</time>
      </trkpt>
      <trkpt lat="43.34703" lon="2.43988">
        <ele>457.2</ele>
        <time>2023-05-28T06:34:19Z</time>
      </trkpt>
      <trkpt lat="43.34703" lon="2.43989">
        <ele>457.2</ele>
        <time>2023-05-28T06:34:20Z</time>
      </trkpt>
      <trkpt lat="43.34704" lon="2.43993">
        <ele>457.5</ele>
        <time>2023-05-28T06:34:21Z</time>
      </trkpt>
      <trkpt lat="43.34704" lon="2.43994">
        <ele>457.6</ele>
        <time>2023-05-28T06:34:22Z</time>
      </trkpt>
      <trkpt lat="43.34704" lon="2.43997">
        <ele>457.8</ele>
        <time>2023-05-28T06:34:23Z</time>
      </trkpt>
      <trkpt lat="43.34705" lon="2.43999">
        <ele>458</ele>
        <time>2023-05-28T06:34:24Z</time>
      </trkpt>
      <trkpt lat="43.34705" lon="2.44003">
        <ele>458.3</ele>
        <time>2023-05-28T06:34:25Z</time>
      </trkpt>
      <trkpt lat="43.34706" lon="2.44004">
        <ele>458.4</ele>
        <time>2023-05-28T06:34:26Z</time>
      </trkpt>
      <trkpt lat="43.34707" lon="2.44008">
        <ele>458.7</ele>
        <time>2023-05-28T06:34:27Z</time>
      </trkpt>
      <trkpt lat="43.34707" lon="2.44009">
        <ele>458.8</ele>
        <time>2023-05-28T06:34:28Z</time>
      </trkpt>
      <trkpt lat="43.34708" lon="2.44013">
        <ele>459.2</ele>
        <time>2023-05-28T06:34:29Z</time>
      </trkpt>
      <trkpt lat="43.34708" lon="2.44015">
        <ele>459.3</ele>
        <time>2023-05-28T06:34:30Z</time>
      </trkpt>
      <trkpt lat="43.34708" lon="2.44017">
        <ele>459.6</ele>
        <time>2023-05-28T06:34:31Z</time>
      </trkpt>
      <trkpt lat="43.34709" lon="2.44019">
        <ele>459.8</ele>
        <time>2023-05-28T06:34:32Z</time>
      </trkpt>
      <trkpt lat="43.3471" lon="2.44022">
        <ele>460.2</ele>
        <time>2023-05-28T06:34:33Z</time>
      </trkpt>
      <trkpt lat="43.3471" lon="2.44023">
        <ele>460.3</ele>
        <time>2023-05-28T06:34:34Z</time>
      </trkpt>
      <trkpt lat="43.3471" lon="2.44025">
        <ele>460.5</ele>
        <time>2023-05-28T06:34:35Z</time>
      </trkpt>
      <trkpt lat="43.34711" lon="2.44026">
        <ele>460.7</ele>
        <time>2023-05-28T06:34:36Z</time>
      </trkpt>
      <trkpt lat="43.34711" lon="2.44029">
        <ele>460.9</ele>
        <time>2023-05-28T06:34:37Z</time>
      </trkpt>
      <trkpt lat="43.34712" lon="2.44032">
        <ele>461.3</ele>
        <time>2023-05-28T06:34:38Z</time>
      </trkpt>
      <trkpt lat="43.34712" lon="2.44034">
        <ele>461.4</ele>
        <time>2023-05-28T06:34:39Z</time>
      </trkpt>
      <trkpt lat="43.34712" lon="2.44036">
        <ele>461.6</ele>
        <time>2023-05-28T06:34:40Z</time>
      </trkpt>
      <trkpt lat="43.34712" lon="2.44038">
        <ele>461.8</ele>
        <time>2023-05-28T06:34:41Z</time>
      </trkpt>
      <trkpt lat="43.34713" lon="2.44041">
        <ele>462.1</ele>
        <time>2023-05-28T06:34:42Z</time>
      </trkpt>
      <trkpt lat="43.34713" lon="2.44042">
        <ele>462.2</ele>
        <time>2023-05-28T06:34:43Z</time>
      </trkpt>
      <trkpt lat="43.34713" lon="2.44043">
        <ele>462.3</ele>
        <time>2023-05-28T06:34:44Z</time>
      </trkpt>
      <trkpt lat="43.34714" lon="2.44045">
        <ele>462.5</ele>
        <time>2023-05-28T06:34:45Z</time>
      </trkpt>
      <trkpt lat="43.34715" lon="2.44047">
        <ele>462.6</ele>
        <time>2023-05-28T06:34:46Z</time>
      </trkpt>
      <trkpt lat="43.34715" lon="2.44049">
        <ele>462.8</ele>
        <time>2023-05-28T06:34:47Z</time>
      </trkpt>
      <trkpt lat="43.34716" lon="2.44051">
        <ele>463</ele>
        <time>2023-05-28T06:34:48Z</time>
      </trkpt>
      <trkpt lat="43.34716" lon="2.44053">
        <ele>463.2</ele>
        <time>2023-05-28T06:34:49Z</time>
      </trkpt>
      <trkpt lat="43.34717" lon="2.44055">
        <ele>463.3</ele>
        <time>2023-05-28T06:34:50Z</time>
      </trkpt>
      <trkpt lat="43.34718" lon="2.44058">
        <ele>463.5</ele>
        <time>2023-05-28T06:34:51Z</time>
      </trkpt>
      <trkpt lat="43.34719" lon="2.4406">
        <ele>463.7</ele>
        <time>2023-05-28T06:34:52Z</time>
      </trkpt>
      <trkpt lat="43.34719" lon="2.44064">
        <ele>463.9</ele>
        <time>2023-05-28T06:34:53Z</time>
      </trkpt>
      <trkpt lat="43.34719" lon="2.44065">
        <ele>464</ele>
        <time>2023-05-28T06:34:54Z</time>
      </trkpt>
      <trkpt lat="43.3472" lon="2.44068">
        <ele>464.2</ele>
        <time>2023-05-28T06:34:55Z</time>
      </trkpt>
      <trkpt lat="43.34721" lon="2.44069">
        <ele>464.2</ele>
        <time>2023-05-28T06:34:56Z</time>
      </trkpt>
      <trkpt lat="43.34721" lon="2.4407">
        <ele>464.3</ele>
        <time>2023-05-28T06:34:57Z</time>
      </trkpt>
      <trkpt lat="43.34722" lon="2.44072">
        <ele>464.4</ele>
        <time>2023-05-28T06:34:58Z</time>
      </trkpt>
      <trkpt lat="43.34723" lon="2.44074">
        <ele>464.5</ele>
        <time>2023-05-28T06:34:59Z</time>
      </trkpt>
      <trkpt lat="43.34724" lon="2.44075">
        <ele>464.6</ele>
        <time>2023-05-28T06:35:00Z</time>
      </trkpt>
      <trkpt lat="43.34724" lon="2.44077">
        <ele>464.7</ele>
        <time>2023-05-28T06:35:01Z</time>
      </trkpt>
      <trkpt lat="43.34725" lon="2.44081">
        <ele>464.9</ele>
        <time>2023-05-28T06:35:02Z</time>
      </trkpt>
      <trkpt lat="43.34726" lon="2.44083">
        <ele>465</ele>
        <time>2023-05-28T06:35:03Z</time>
      </trkpt>
      <trkpt lat="43.34726" lon="2.44086">
        <ele>465.2</ele>
        <time>2023-05-28T06:35:04Z</time>
      </trkpt>
      <trkpt lat="43.34726" lon="2.44088">
        <ele>465.3</ele>
        <time>2023-05-28T06:35:05Z</time>
      </trkpt>
      <trkpt lat="43.34727" lon="2.44092">
        <ele>465.5</ele>
        <time>2023-05-28T06:35:06Z</time>
      </trkpt>
      <trkpt lat="43.34727" lon="2.44093">
        <ele>465.5</ele>
        <time>2023-05-28T06:35:07Z</time>
      </trkpt>
      <trkpt lat="43.34728" lon="2.44097">
        <ele>465.7</ele>
        <time>2023-05-28T06:35:08Z</time>
      </trkpt>
      <trkpt lat="43.34728" lon="2.44099">
        <ele>465.8</ele>
        <time>2023-05-28T06:35:09Z</time>
      </trkpt>
      <trkpt lat="43.34729" lon="2.44104">
        <ele>466</ele>
        <time>2023-05-28T06:35:10Z</time>
      </trkpt>
      <trkpt lat="43.34729" lon="2.44106">
        <ele>466.1</ele>
        <time>2023-05-28T06:35:11Z</time>
      </trkpt>
      <trkpt lat="43.34729" lon="2.4411">
        <ele>466.3</ele>
        <time>2023-05-28T06:35:12Z</time>
      </trkpt>
      <trkpt lat="43.34729" lon="2.44112">
        <ele>466.4</ele>
        <time>2023-05-28T06:35:13Z</time>
      </trkpt>
      <trkpt lat="43.3473" lon="2.44117">
        <ele>466.6</ele>
        <time>2023-05-28T06:35:14Z</time>
      </trkpt>
      <trkpt lat="43.3473" lon="2.44119">
        <ele>466.6</ele>
        <time>2023-05-28T06:35:15Z</time>
      </trkpt>
      <trkpt lat="43.34731" lon="2.44123">
        <ele>466.8</ele>
        <time>2023-05-28T06:35:16Z</time>
      </trkpt>
      <trkpt lat="43.34731" lon="2.44125">
        <ele>466.9</ele>
        <time>2023-05-28T06:35:17Z</time>
      </trkpt>
      <trkpt lat="43.34732" lon="2.4413">
        <ele>467.1</ele>
        <time>2023-05-28T06:35:18Z</time>
      </trkpt>
      <trkpt lat="43.34732" lon="2.44132">
        <ele>467.1</ele>
        <time>2023-05-28T06:35:19Z</time>
      </trkpt>
      <trkpt lat="43.34733" lon="2.44137">
        <ele>467.3</ele>
        <time>2023-05-28T06:35:20Z</time>
      </trkpt>
      <trkpt lat="43.34734" lon="2.44139">
        <ele>467.3</ele>
        <time>2023-05-28T06:35:21Z</time>
      </trkpt>
      <trkpt lat="43.34735" lon="2.44144">
        <ele>467.4</ele>
        <time>2023-05-28T06:35:22Z</time>
      </trkpt>
      <trkpt lat="43.34735" lon="2.44145">
        <ele>467.4</ele>
        <time>2023-05-28T06:35:23Z</time>
      </trkpt>
      <trkpt lat="43.34736" lon="2.44151">
        <ele>467.4</ele>
        <time>2023-05-28T06:35:24Z</time>
      </trkpt>
      <trkpt lat="43.34736" lon="2.44153">
        <ele>467.4</ele>
        <time>2023-05-28T06:35:25Z</time>
      </trkpt>
      <trkpt lat="43.34736" lon="2.44158">
        <ele>467.4</ele>
        <time>2023-05-28T06:35:26Z</time>
      </trkpt>
      <trkpt lat="43.34736" lon="2.44162">
        <ele>467.3</ele>
        <time>2023-05-28T06:35:27Z</time>
      </trkpt>
      <trkpt lat="43.34736" lon="2.44167">
        <ele>467.2</ele>
        <time>2023-05-28T06:35:28Z</time>
      </trkpt>
      <trkpt lat="43.34736" lon="2.44169">
        <ele>467.1</ele>
        <time>2023-05-28T06:35:29Z</time>
      </trkpt>
      <trkpt lat="43.34737" lon="2.44172">
        <ele>467</ele>
        <time>2023-05-28T06:35:30Z</time>
      </trkpt>
      <trkpt lat="43.34738" lon="2.44174">
        <ele>467</ele>
        <time>2023-05-28T06:35:31Z</time>
      </trkpt>
      <trkpt lat="43.34739" lon="2.44177">
        <ele>466.9</ele>
        <time>2023-05-28T06:35:32Z</time>
      </trkpt>
      <trkpt lat="43.3474" lon="2.44179">
        <ele>466.9</ele>
        <time>2023-05-28T06:35:33Z</time>
      </trkpt>
      <trkpt lat="43.34741" lon="2.44183">
        <ele>466.8</ele>
        <time>2023-05-28T06:35:34Z</time>
      </trkpt>
      <trkpt lat="43.34741" lon="2.44185">
        <ele>466.7</ele>
        <time>2023-05-28T06:35:35Z</time>
      </trkpt>
      <trkpt lat="43.34742" lon="2.44189">
        <ele>466.7</ele>
        <time>2023-05-28T06:35:36Z</time>
      </trkpt>
      <trkpt lat="43.34742" lon="2.44194">
        <ele>466.6</ele>
        <time>2023-05-28T06:35:37Z</time>
      </trkpt>
      <trkpt lat="43.34742" lon="2.44195">
        <ele>466.6</ele>
        <time>2023-05-28T06:35:38Z</time>
      </trkpt>
      <trkpt lat="43.34744" lon="2.44199">
        <ele>466.7</ele>
        <time>2023-05-28T06:35:39Z</time>
      </trkpt>
      <trkpt lat="43.34744" lon="2.44201">
        <ele>466.7</ele>
        <time>2023-05-28T06:35:40Z</time>
      </trkpt>
      <trkpt lat="43.34746" lon="2.44204">
        <ele>466.7</ele>
        <time>2023-05-28T06:35:41Z</time>
      </trkpt>
      <trkpt lat="43.34746" lon="2.44206">
        <ele>466.8</ele>
        <time>2023-05-28T06:35:42Z</time>
      </trkpt>
      <trkpt lat="43.34748" lon="2.44211">
        <ele>466.9</ele>
        <time>2023-05-28T06:35:43Z</time>
      </trkpt>
      <trkpt lat="43.34748" lon="2.44212">
        <ele>466.9</ele>
        <time>2023-05-28T06:35:44Z</time>
      </trkpt>
      <trkpt lat="43.3475" lon="2.44216">
        <ele>467.1</ele>
        <time>2023-05-28T06:35:45Z</time>
      </trkpt>
      <trkpt lat="43.34751" lon="2.44218">
        <ele>467.2</ele>
        <time>2023-05-28T06:35:46Z</time>
      </trkpt>
      <trkpt lat="43.34752" lon="2.4422">
        <ele>467.3</ele>
        <time>2023-05-28T06:35:47Z</time>
      </trkpt>
      <trkpt lat="43.34753" lon="2.44221">
        <ele>467.4</ele>
        <time>2023-05-28T06:35:48Z</time>
      </trkpt>
      <trkpt lat="43.34754" lon="2.44223">
        <ele>467.5</ele>
        <time>2023-05-28T06:35:49Z</time>
      </trkpt>
      <trkpt lat="43.34755" lon="2.44225">
        <ele>467.6</ele>
        <time>2023-05-28T06:35:50Z</time>
      </trkpt>
      <trkpt lat="43.34757" lon="2.44228">
        <ele>467.9</ele>
        <time>2023-05-28T06:35:51Z</time>
      </trkpt>
      <trkpt lat="43.34758" lon="2.44229">
        <ele>468</ele>
        <time>2023-05-28T06:35:52Z</time>
      </trkpt>
      <trkpt lat="43.34761" lon="2.44232">
        <ele>468.3</ele>
        <time>2023-05-28T06:35:53Z</time>
      </trkpt>
      <trkpt lat="43.34762" lon="2.44232">
        <ele>468.4</ele>
        <time>2023-05-28T06:35:54Z</time>
      </trkpt>
      <trkpt lat="43.34764" lon="2.44234">
        <ele>468.6</ele>
        <time>2023-05-28T06:35:55Z</time>
      </trkpt>
      <trkpt lat="43.34765" lon="2.44235">
        <ele>468.7</ele>
        <time>2023-05-28T06:35:56Z</time>
      </trkpt>
      <trkpt lat="43.34766" lon="2.44235">
        <ele>468.8</ele>
        <time>2023-05-28T06:35:57Z</time>
      </trkpt>
      <trkpt lat="43.34767" lon="2.44236">
        <ele>468.9</ele>
        <time>2023-05-28T06:35:58Z</time>
      </trkpt>
      <trkpt lat="43.34767" lon="2.44236">
        <ele>469</ele>
        <time>2023-05-28T06:35:59Z</time>
      </trkpt>
      <trkpt lat="43.34768" lon="2.44236">
        <ele>469.1</ele>
        <time>2023-05-28T06:36:00Z</time>
      </trkpt>
      <trkpt lat="43.34768" lon="2.44235">
        <ele>469.2</ele>
        <time>2023-05-28T06:36:01Z</time>
      </trkpt>
      <trkpt lat="43.34769" lon="2.44236">
        <ele>469.2</ele>
        <time>2023-05-28T06:36:02Z</time>
      </trkpt>
      <trkpt lat="43.34769" lon="2.44236">
        <ele>469.3</ele>
        <time>2023-05-28T06:36:03Z</time>
      </trkpt>
      <trkpt lat="43.3477" lon="2.44238">
        <ele>469.5</ele>
        <time>2023-05-28T06:36:04Z</time>
      </trkpt>
      <trkpt lat="43.34772" lon="2.44242">
        <ele>470</ele>
        <time>2023-05-28T06:36:05Z</time>
      </trkpt>
      <trkpt lat="43.34772" lon="2.44243">
        <ele>470.1</ele>
        <time>2023-05-28T06:36:06Z</time>
      </trkpt>
      <trkpt lat="43.34773" lon="2.44247">
        <ele>470.6</ele>
        <time>2023-05-28T06:36:07Z</time>
      </trkpt>
      <trkpt lat="43.34773" lon="2.44248">
        <ele>470.7</ele>
        <time>2023-05-28T06:36:08Z</time>
      </trkpt>
      <trkpt lat="43.34774" lon="2.44252">
        <ele>471.2</ele>
        <time>2023-05-28T06:36:09Z</time>
      </trkpt>
      <trkpt lat="43.34774" lon="2.44253">
        <ele>471.3</ele>
        <time>2023-05-28T06:36:10Z</time>
      </trkpt>
      <trkpt lat="43.34774" lon="2.44255">
        <ele>471.6</ele>
        <time>2023-05-28T06:36:11Z</time>
      </trkpt>
      <trkpt lat="43.34774" lon="2.44258">
        <ele>471.9</ele>
        <time>2023-05-28T06:36:12Z</time>
      </trkpt>
      <trkpt lat="43.34774" lon="2.44259">
        <ele>472.2</ele>
        <time>2023-05-28T06:36:13Z</time>
      </trkpt>
      <trkpt lat="43.34774" lon="2.44262">
        <ele>472.5</ele>
        <time>2023-05-28T06:36:14Z</time>
      </trkpt>
      <trkpt lat="43.34774" lon="2.44265">
        <ele>472.9</ele>
        <time>2023-05-28T06:36:15Z</time>
      </trkpt>
      <trkpt lat="43.34774" lon="2.44266">
        <ele>473.1</ele>
        <time>2023-05-28T06:36:16Z</time>
      </trkpt>
      <trkpt lat="43.34774" lon="2.44268">
        <ele>473.3</ele>
        <time>2023-05-28T06:36:17Z</time>
      </trkpt>
      <trkpt lat="43.34776" lon="2.4427">
        <ele>473.8</ele>
        <time>2023-05-28T06:36:18Z</time>
      </trkpt>
      <trkpt lat="43.34777" lon="2.44271">
        <ele>474</ele>
        <time>2023-05-28T06:36:19Z</time>
      </trkpt>
      <trkpt lat="43.34778" lon="2.44272">
        <ele>474.1</ele>
        <time>2023-05-28T06:36:20Z</time>
      </trkpt>
      <trkpt lat="43.34779" lon="2.44272">
        <ele>474.3</ele>
        <time>2023-05-28T06:36:21Z</time>
      </trkpt>
      <trkpt lat="43.34779" lon="2.44272">
        <ele>474.3</ele>
        <time>2023-05-28T06:36:22Z</time>
      </trkpt>
      <trkpt lat="43.34779" lon="2.44271">
        <ele>474.3</ele>
        <time>2023-05-28T06:36:23Z</time>
      </trkpt>
      <trkpt lat="43.34779" lon="2.44272">
        <ele>474.5</ele>
        <time>2023-05-28T06:36:24Z</time>
      </trkpt>
      <trkpt lat="43.3478" lon="2.44274">
        <ele>474.7</ele>
        <time>2023-05-28T06:36:25Z</time>
      </trkpt>
      <trkpt lat="43.3478" lon="2.44275">
        <ele>474.8</ele>
        <time>2023-05-28T06:36:26Z</time>
      </trkpt>
      <trkpt lat="43.34781" lon="2.44276">
        <ele>474.9</ele>
        <time>2023-05-28T06:36:27Z</time>
      </trkpt>
      <trkpt lat="43.34781" lon="2.44277">
        <ele>475</ele>
        <time>2023-05-28T06:36:28Z</time>
      </trkpt>
      <trkpt lat="43.34782" lon="2.44278">
        <ele>475.1</ele>
        <time>2023-05-28T06:36:29Z</time>
      </trkpt>
      <trkpt lat="43.34782" lon="2.44278">
        <ele>475.3</ele>
        <time>2023-05-28T06:36:30Z</time>
      </trkpt>
      <trkpt lat="43.34783" lon="2.44279">
        <ele>475.4</ele>
        <time>2023-05-28T06:36:31Z</time>
      </trkpt>
      <trkpt lat="43.34784" lon="2.44281">
        <ele>475.7</ele>
        <time>2023-05-28T06:36:32Z</time>
      </trkpt>
      <trkpt lat="43.34784" lon="2.44283">
        <ele>475.9</ele>
        <time>2023-05-28T06:36:33Z</time>
      </trkpt>
      <trkpt lat="43.34785" lon="2.44285">
        <ele>476.2</ele>
        <time>2023-05-28T06:36:34Z</time>
      </trkpt>
      <trkpt lat="43.34785" lon="2.44287">
        <ele>476.4</ele>
        <time>2023-05-28T06:36:35Z</time>
      </trkpt>
      <trkpt lat="43.34786" lon="2.44289">
        <ele>476.7</ele>
        <time>2023-05-28T06:36:36Z</time>
      </trkpt>
      <trkpt lat="43.34787" lon="2.4429">
        <ele>476.9</ele>
        <time>2023-05-28T06:36:37Z</time>
      </trkpt>
      <trkpt lat="43.34789" lon="2.44292">
        <ele>477.1</ele>
        <time>2023-05-28T06:36:38Z</time>
      </trkpt>
      <trkpt lat="43.34792" lon="2.44293">
        <ele>477.6</ele>
        <time>2023-05-28T06:36:39Z</time>
      </trkpt>
      <trkpt lat="43.34793" lon="2.44293">
        <ele>477.7</ele>
        <time>2023-05-28T06:36:40Z</time>
      </trkpt>
      <trkpt lat="43.34795" lon="2.44294">
        <ele>478.1</ele>
        <time>2023-05-28T06:36:41Z</time>
      </trkpt>
      <trkpt lat="43.34796" lon="2.44294">
        <ele>478.2</ele>
        <time>2023-05-28T06:36:42Z</time>
      </trkpt>
      <trkpt lat="43.34798" lon="2.44294">
        <ele>478.5</ele>
        <time>2023-05-28T06:36:43Z</time>
      </trkpt>
      <trkpt lat="43.34799" lon="2.44295">
        <ele>478.7</ele>
        <time>2023-05-28T06:36:44Z</time>
      </trkpt>
      <trkpt lat="43.34801" lon="2.44295">
        <ele>478.9</ele>
        <time>2023-05-28T06:36:45Z</time>
      </trkpt>
      <trkpt lat="43.34802" lon="2.44296">
        <ele>479.1</ele>
        <time>2023-05-28T06:36:46Z</time>
      </trkpt>
      <trkpt lat="43.34804" lon="2.44297">
        <ele>479.4</ele>
        <time>2023-05-28T06:36:47Z</time>
      </trkpt>
      <trkpt lat="43.34805" lon="2.44297">
        <ele>479.5</ele>
        <time>2023-05-28T06:36:48Z</time>
      </trkpt>
      <trkpt lat="43.34806" lon="2.44298">
        <ele>479.6</ele>
        <time>2023-05-28T06:36:49Z</time>
      </trkpt>
      <trkpt lat="43.34807" lon="2.44299">
        <ele>479.8</ele>
        <time>2023-05-28T06:36:50Z</time>
      </trkpt>
      <trkpt lat="43.34809" lon="2.443">
        <ele>480</ele>
        <time>2023-05-28T06:36:51Z</time>
      </trkpt>
      <trkpt lat="43.3481" lon="2.44301">
        <ele>480.2</ele>
        <time>2023-05-28T06:36:52Z</time>
      </trkpt>
      <trkpt lat="43.34812" lon="2.44302">
        <ele>480.5</ele>
        <time>2023-05-28T06:36:53Z</time>
      </trkpt>
      <trkpt lat="43.34813" lon="2.44303">
        <ele>480.6</ele>
        <time>2023-05-28T06:36:54Z</time>
      </trkpt>
      <trkpt lat="43.34814" lon="2.44304">
        <ele>480.8</ele>
        <time>2023-05-28T06:36:55Z</time>
      </trkpt>
      <trkpt lat="43.34816" lon="2.44305">
        <ele>481</ele>
        <time>2023-05-28T06:36:56Z</time>
      </trkpt>
      <trkpt lat="43.34817" lon="2.44306">
        <ele>481.2</ele>
        <time>2023-05-28T06:36:57Z</time>
      </trkpt>
      <trkpt lat="43.34818" lon="2.44307">
        <ele>481.3</ele>
        <time>2023-05-28T06:36:58Z</time>
      </trkpt>
      <trkpt lat="43.3482" lon="2.44308">
        <ele>481.5</ele>
        <time>2023-05-28T06:36:59Z</time>
      </trkpt>
      <trkpt lat="43.34821" lon="2.44308">
        <ele>481.6</ele>
        <time>2023-05-28T06:37:00Z</time>
      </trkpt>
      <trkpt lat="43.34821" lon="2.44309">
        <ele>481.7</ele>
        <time>2023-05-28T06:37:01Z</time>
      </trkpt>
      <trkpt lat="43.34821" lon="2.44309">
        <ele>481.7</ele>
        <time>2023-05-28T06:37:02Z</time>
      </trkpt>
      <trkpt lat="43.34823" lon="2.4431">
        <ele>481.9</ele>
        <time>2023-05-28T06:37:03Z</time>
      </trkpt>
      <trkpt lat="43.34824" lon="2.44311">
        <ele>482</ele>
        <time>2023-05-28T06:37:04Z</time>
      </trkpt>
      <trkpt lat="43.34824" lon="2.44311">
        <ele>482.1</ele>
        <time>2023-05-28T06:37:05Z</time>
      </trkpt>
      <trkpt lat="43.34825" lon="2.44312">
        <ele>482.1</ele>
        <time>2023-05-28T06:37:06Z</time>
      </trkpt>
      <trkpt lat="43.34825" lon="2.44312">
        <ele>482.2</ele>
        <time>2023-05-28T06:37:07Z</time>
      </trkpt>
      <trkpt lat="43.34825" lon="2.44311">
        <ele>482.2</ele>
        <time>2023-05-28T06:37:08Z</time>
      </trkpt>
      <trkpt lat="43.34826" lon="2.44311">
        <ele>482.2</ele>
        <time>2023-05-28T06:37:09Z</time>
      </trkpt>
      <trkpt lat="43.34826" lon="2.44311">
        <ele>482.2</ele>
        <time>2023-05-28T06:37:10Z</time>
      </trkpt>
      <trkpt lat="43.34826" lon="2.44311">
        <ele>482.2</ele>
        <time>2023-05-28T06:37:11Z</time>
      </trkpt>
      <trkpt lat="43.34826" lon="2.44311">
        <ele>482.3</ele>
        <time>2023-05-28T06:37:12Z</time>
      </trkpt>
      <trkpt lat="43.34827" lon="2.44312">
        <ele>482.4</ele>
        <time>2023-05-28T06:37:13Z</time>
      </trkpt>
      <trkpt lat="43.34829" lon="2.44313">
        <ele>482.5</ele>
        <time>2023-05-28T06:37:14Z</time>
      </trkpt>
      <trkpt lat="43.3483" lon="2.44315">
        <ele>482.6</ele>
        <time>2023-05-28T06:37:15Z</time>
      </trkpt>
      <trkpt lat="43.3483" lon="2.44316">
        <ele>482.7</ele>
        <time>2023-05-28T06:37:16Z</time>
      </trkpt>
      <trkpt lat="43.34831" lon="2.44317">
        <ele>482.7</ele>
        <time>2023-05-28T06:37:17Z</time>
      </trkpt>
      <trkpt lat="43.34831" lon="2.44319">
        <ele>482.8</ele>
        <time>2023-05-28T06:37:18Z</time>
      </trkpt>
      <trkpt lat="43.34832" lon="2.44321">
        <ele>482.9</ele>
        <time>2023-05-28T06:37:19Z</time>
      </trkpt>
      <trkpt lat="43.34831" lon="2.44324">
        <ele>483</ele>
        <time>2023-05-28T06:37:20Z</time>
      </trkpt>
      <trkpt lat="43.34831" lon="2.44325">
        <ele>483</ele>
        <time>2023-05-28T06:37:21Z</time>
      </trkpt>
      <trkpt lat="43.3483" lon="2.44326">
        <ele>483</ele>
        <time>2023-05-28T06:37:22Z</time>
      </trkpt>
      <trkpt lat="43.3483" lon="2.44327">
        <ele>483.1</ele>
        <time>2023-05-28T06:37:23Z</time>
      </trkpt>
      <trkpt lat="43.34829" lon="2.44328">
        <ele>483.1</ele>
        <time>2023-05-28T06:37:24Z</time>
      </trkpt>
      <trkpt lat="43.34828" lon="2.44329">
        <ele>483.1</ele>
        <time>2023-05-28T06:37:25Z</time>
      </trkpt>
      <trkpt lat="43.34828" lon="2.4433">
        <ele>483.2</ele>
        <time>2023-05-28T06:37:26Z</time>
      </trkpt>
      <trkpt lat="43.34827" lon="2.44331">
        <ele>483.2</ele>
        <time>2023-05-28T06:37:27Z</time>
      </trkpt>
      <trkpt lat="43.34826" lon="2.44332">
        <ele>483.2</ele>
        <time>2023-05-28T06:37:28Z</time>
      </trkpt>
      <trkpt lat="43.34826" lon="2.44334">
        <ele>483.2</ele>
        <time>2023-05-28T06:37:29Z</time>
      </trkpt>
      <trkpt lat="43.34826" lon="2.44335">
        <ele>483.3</ele>
        <time>2023-05-28T06:37:30Z</time>
      </trkpt>
      <trkpt lat="43.34825" lon="2.44337">
        <ele>483.3</ele>
        <time>2023-05-28T06:37:31Z</time>
      </trkpt>
      <trkpt lat="43.34825" lon="2.4434">
        <ele>483.3</ele>
        <time>2023-05-28T06:37:32Z</time>
      </trkpt>
      <trkpt lat="43.34825" lon="2.44341">
        <ele>483.3</ele>
        <time>2023-05-28T06:37:33Z</time>
      </trkpt>
      <trkpt lat="43.34825" lon="2.44342">
        <ele>483.4</ele>
        <time>2023-05-28T06:37:34Z</time>
      </trkpt>
      <trkpt lat="43.34825" lon="2.44344">
        <ele>483.4</ele>
        <time>2023-05-28T06:37:35Z</time>
      </trkpt>
      <trkpt lat="43.34824" lon="2.44346">
        <ele>483.4</ele>
        <time>2023-05-28T06:37:36Z</time>
      </trkpt>
      <trkpt lat="43.34824" lon="2.44348">
        <ele>483.5</ele>
        <time>2023-05-28T06:37:37Z</time>
      </trkpt>
      <trkpt lat="43.34825" lon="2.4435">
        <ele>483.5</ele>
        <time>2023-05-28T06:37:38Z</time>
      </trkpt>
      <trkpt lat="43.34825" lon="2.44353">
        <ele>483.6</ele>
        <time>2023-05-28T06:37:39Z</time>
      </trkpt>
      <trkpt lat="43.34825" lon="2.44355">
        <ele>483.6</ele>
        <time>2023-05-28T06:37:40Z</time>
      </trkpt>
      <trkpt lat="43.34826" lon="2.44358">
        <ele>483.7</ele>
        <time>2023-05-28T06:37:41Z</time>
      </trkpt>
      <trkpt lat="43.34826" lon="2.44359">
        <ele>483.7</ele>
        <time>2023-05-28T06:37:42Z</time>
      </trkpt>
      <trkpt lat="43.34827" lon="2.44361">
        <ele>483.8</ele>
        <time>2023-05-28T06:37:43Z</time>
      </trkpt>
      <trkpt lat="43.34828" lon="2.44363">
        <ele>483.9</ele>
        <time>2023-05-28T06:37:44Z</time>
      </trkpt>
      <trkpt lat="43.3483" lon="2.44367">
        <ele>484</ele>
        <time>2023-05-28T06:37:45Z</time>
      </trkpt>
      <trkpt lat="43.34831" lon="2.44368">
        <ele>484.1</ele>
        <time>2023-05-28T06:37:46Z</time>
      </trkpt>
      <trkpt lat="43.34832" lon="2.44372">
        <ele>484.3</ele>
        <time>2023-05-28T06:37:47Z</time>
      </trkpt>
      <trkpt lat="43.34833" lon="2.44374">
        <ele>484.4</ele>
        <time>2023-05-28T06:37:48Z</time>
      </trkpt>
      <trkpt lat="43.34834" lon="2.44378">
        <ele>484.6</ele>
        <time>2023-05-28T06:37:49Z</time>
      </trkpt>
      <trkpt lat="43.34834" lon="2.4438">
        <ele>484.7</ele>
        <time>2023-05-28T06:37:50Z</time>
      </trkpt>
      <trkpt lat="43.34833" lon="2.44382">
        <ele>484.8</ele>
        <time>2023-05-28T06:37:51Z</time>
      </trkpt>
      <trkpt lat="43.34832" lon="2.44383">
        <ele>485</ele>
        <time>2023-05-28T06:37:52Z</time>
      </trkpt>
      <trkpt lat="43.34831" lon="2.44385">
        <ele>485.1</ele>
        <time>2023-05-28T06:37:53Z</time>
      </trkpt>
      <trkpt lat="43.3483" lon="2.44385">
        <ele>485.1</ele>
        <time>2023-05-28T06:37:54Z</time>
      </trkpt>
      <trkpt lat="43.34829" lon="2.44387">
        <ele>485.2</ele>
        <time>2023-05-28T06:37:55Z</time>
      </trkpt>
      <trkpt lat="43.34829" lon="2.44387">
        <ele>485.3</ele>
        <time>2023-05-28T06:37:56Z</time>
      </trkpt>
      <trkpt lat="43.34829" lon="2.44389">
        <ele>485.4</ele>
        <time>2023-05-28T06:37:57Z</time>
      </trkpt>
      <trkpt lat="43.34828" lon="2.4439">
        <ele>485.5</ele>
        <time>2023-05-28T06:37:58Z</time>
      </trkpt>
      <trkpt lat="43.34827" lon="2.44391">
        <ele>485.6</ele>
        <time>2023-05-28T06:37:59Z</time>
      </trkpt>
      <trkpt lat="43.34826" lon="2.44392">
        <ele>485.7</ele>
        <time>2023-05-28T06:38:00Z</time>
      </trkpt>
      <trkpt lat="43.34826" lon="2.44393">
        <ele>485.8</ele>
        <time>2023-05-28T06:38:01Z</time>
      </trkpt>
      <trkpt lat="43.34825" lon="2.44394">
        <ele>485.9</ele>
        <time>2023-05-28T06:38:02Z</time>
      </trkpt>
      <trkpt lat="43.34825" lon="2.44395">
        <ele>486</ele>
        <time>2023-05-28T06:38:03Z</time>
      </trkpt>
      <trkpt lat="43.34825" lon="2.44396">
        <ele>486.1</ele>
        <time>2023-05-28T06:38:04Z</time>
      </trkpt>
      <trkpt lat="43.34824" lon="2.44398">
        <ele>486.2</ele>
        <time>2023-05-28T06:38:05Z</time>
      </trkpt>
      <trkpt lat="43.34823" lon="2.444">
        <ele>486.4</ele>
        <time>2023-05-28T06:38:06Z</time>
      </trkpt>
      <trkpt lat="43.34822" lon="2.44402">
        <ele>486.5</ele>
        <time>2023-05-28T06:38:07Z</time>
      </trkpt>
      <trkpt lat="43.34822" lon="2.44403">
        <ele>486.6</ele>
        <time>2023-05-28T06:38:08Z</time>
      </trkpt>
      <trkpt lat="43.34819" lon="2.44406">
        <ele>486.8</ele>
        <time>2023-05-28T06:38:09Z</time>
      </trkpt>
      <trkpt lat="43.34818" lon="2.44407">
        <ele>486.9</ele>
        <time>2023-05-28T06:38:10Z</time>
      </trkpt>
      <trkpt lat="43.34816" lon="2.44411">
        <ele>487.1</ele>
        <time>2023-05-28T06:38:11Z</time>
      </trkpt>
      <trkpt lat="43.34816" lon="2.44412">
        <ele>487.1</ele>
        <time>2023-05-28T06:38:12Z</time>
      </trkpt>
      <trkpt lat="43.34815" lon="2.44414">
        <ele>487.2</ele>
        <time>2023-05-28T06:38:13Z</time>
      </trkpt>
      <trkpt lat="43.34814" lon="2.44415">
        <ele>487.3</ele>
        <time>2023-05-28T06:38:14Z</time>
      </trkpt>
      <trkpt lat="43.34813" lon="2.44417">
        <ele>487.4</ele>
        <time>2023-05-28T06:38:15Z</time>
      </trkpt>
      <trkpt lat="43.34812" lon="2.44419">
        <ele>487.4</ele>
        <time>2023-05-28T06:38:16Z</time>
      </trkpt>
      <trkpt lat="43.34812" lon="2.44421">
        <ele>487.5</ele>
        <time>2023-05-28T06:38:17Z</time>
      </trkpt>
      <trkpt lat="43.34811" lon="2.44422">
        <ele>487.6</ele>
        <time>2023-05-28T06:38:18Z</time>
      </trkpt>
      <trkpt lat="43.3481" lon="2.44424">
        <ele>487.7</ele>
        <time>2023-05-28T06:38:19Z</time>
      </trkpt>
      <trkpt lat="43.34809" lon="2.44426">
        <ele>487.7</ele>
        <time>2023-05-28T06:38:20Z</time>
      </trkpt>
      <trkpt lat="43.34808" lon="2.44427">
        <ele>487.8</ele>
        <time>2023-05-28T06:38:21Z</time>
      </trkpt>
      <trkpt lat="43.34808" lon="2.44429">
        <ele>487.9</ele>
        <time>2023-05-28T06:38:22Z</time>
      </trkpt>
      <trkpt lat="43.34808" lon="2.4443">
        <ele>487.9</ele>
        <time>2023-05-28T06:38:23Z</time>
      </trkpt>
      <trkpt lat="43.34807" lon="2.44431">
        <ele>488</ele>
        <time>2023-05-28T06:38:24Z</time>
      </trkpt>
      <trkpt lat="43.34807" lon="2.44433">
        <ele>488.1</ele>
        <time>2023-05-28T06:38:25Z</time>
      </trkpt>
      <trkpt lat="43.34808" lon="2.44434">
        <ele>488.1</ele>
        <time>2023-05-28T06:38:26Z</time>
      </trkpt>
      <trkpt lat="43.34808" lon="2.44435">
        <ele>488.2</ele>
        <time>2023-05-28T06:38:27Z</time>
      </trkpt>
      <trkpt lat="43.34808" lon="2.44436">
        <ele>488.2</ele>
        <time>2023-05-28T06:38:28Z</time>
      </trkpt>
      <trkpt lat="43.34808" lon="2.44438">
        <ele>488.3</ele>
        <time>2023-05-28T06:38:29Z</time>
      </trkpt>
      <trkpt lat="43.34808" lon="2.4444">
        <ele>488.5</ele>
        <time>2023-05-28T06:38:30Z</time>
      </trkpt>
      <trkpt lat="43.34808" lon="2.44442">
        <ele>488.6</ele>
        <time>2023-05-28T06:38:31Z</time>
      </trkpt>
      <trkpt lat="43.34808" lon="2.44443">
        <ele>488.6</ele>
        <time>2023-05-28T06:38:32Z</time>
      </trkpt>
      <trkpt lat="43.34807" lon="2.44444">
        <ele>488.7</ele>
        <time>2023-05-28T06:38:33Z</time>
      </trkpt>
      <trkpt lat="43.34806" lon="2.44446">
        <ele>488.8</ele>
        <time>2023-05-28T06:38:34Z</time>
      </trkpt>
      <trkpt lat="43.34806" lon="2.44447">
        <ele>489</ele>
        <time>2023-05-28T06:38:35Z</time>
      </trkpt>
      <trkpt lat="43.34806" lon="2.44448">
        <ele>489</ele>
        <time>2023-05-28T06:38:36Z</time>
      </trkpt>
      <trkpt lat="43.34806" lon="2.4445">
        <ele>489.1</ele>
        <time>2023-05-28T06:38:37Z</time>
      </trkpt>
      <trkpt lat="43.34806" lon="2.44452">
        <ele>489.3</ele>
        <time>2023-05-28T06:38:38Z</time>
      </trkpt>
      <trkpt lat="43.34806" lon="2.44454">
        <ele>489.5</ele>
        <time>2023-05-28T06:38:39Z</time>
      </trkpt>
      <trkpt lat="43.34806" lon="2.44456">
        <ele>489.6</ele>
        <time>2023-05-28T06:38:40Z</time>
      </trkpt>
      <trkpt lat="43.34805" lon="2.44457">
        <ele>489.7</ele>
        <time>2023-05-28T06:38:41Z</time>
      </trkpt>
      <trkpt lat="43.34805" lon="2.44458">
        <ele>489.8</ele>
        <time>2023-05-28T06:38:42Z</time>
      </trkpt>
      <trkpt lat="43.34804" lon="2.44459">
        <ele>489.9</ele>
        <time>2023-05-28T06:38:43Z</time>
      </trkpt>
      <trkpt lat="43.34804" lon="2.4446">
        <ele>490</ele>
        <time>2023-05-28T06:38:44Z</time>
      </trkpt>
      <trkpt lat="43.34804" lon="2.44462">
        <ele>490.2</ele>
        <time>2023-05-28T06:38:45Z</time>
      </trkpt>
      <trkpt lat="43.34804" lon="2.44464">
        <ele>490.3</ele>
        <time>2023-05-28T06:38:46Z</time>
      </trkpt>
      <trkpt lat="43.34804" lon="2.44466">
        <ele>490.5</ele>
        <time>2023-05-28T06:38:47Z</time>
      </trkpt>
      <trkpt lat="43.34805" lon="2.44468">
        <ele>490.7</ele>
        <time>2023-05-28T06:38:48Z</time>
      </trkpt>
      <trkpt lat="43.34806" lon="2.44469">
        <ele>490.9</ele>
        <time>2023-05-28T06:38:49Z</time>
      </trkpt>
      <trkpt lat="43.34806" lon="2.4447">
        <ele>491</ele>
        <time>2023-05-28T06:38:50Z</time>
      </trkpt>
      <trkpt lat="43.34806" lon="2.44472">
        <ele>491.1</ele>
        <time>2023-05-28T06:38:51Z</time>
      </trkpt>
      <trkpt lat="43.34806" lon="2.44475">
        <ele>491.4</ele>
        <time>2023-05-28T06:38:52Z</time>
      </trkpt>
      <trkpt lat="43.34807" lon="2.44477">
        <ele>491.5</ele>
        <time>2023-05-28T06:38:53Z</time>
      </trkpt>
      <trkpt lat="43.34807" lon="2.44478">
        <ele>491.6</ele>
        <time>2023-05-28T06:38:54Z</time>
      </trkpt>
      <trkpt lat="43.34806" lon="2.44481">
        <ele>491.8</ele>
        <time>2023-05-28T06:38:55Z</time>
      </trkpt>
      <trkpt lat="43.34805" lon="2.44482">
        <ele>492</ele>
        <time>2023-05-28T06:38:56Z</time>
      </trkpt>
      <trkpt lat="43.34804" lon="2.44483">
        <ele>492.1</ele>
        <time>2023-05-28T06:38:57Z</time>
      </trkpt>
      <trkpt lat="43.34804" lon="2.44484">
        <ele>492.2</ele>
        <time>2023-05-28T06:38:58Z</time>
      </trkpt>
      <trkpt lat="43.34802" lon="2.44486">
        <ele>492.4</ele>
        <time>2023-05-28T06:38:59Z</time>
      </trkpt>
      <trkpt lat="43.34802" lon="2.44487">
        <ele>492.5</ele>
        <time>2023-05-28T06:39:00Z</time>
      </trkpt>
      <trkpt lat="43.34801" lon="2.44488">
        <ele>492.6</ele>
        <time>2023-05-28T06:39:01Z</time>
      </trkpt>
      <trkpt lat="43.348" lon="2.44491">
        <ele>492.8</ele>
        <time>2023-05-28T06:39:02Z</time>
      </trkpt>
      <trkpt lat="43.34799" lon="2.44494">
        <ele>493.1</ele>
        <time>2023-05-28T06:39:03Z</time>
      </trkpt>
      <trkpt lat="43.34798" lon="2.44495">
        <ele>493.2</ele>
        <time>2023-05-28T06:39:04Z</time>
      </trkpt>
      <trkpt lat="43.34798" lon="2.44498">
        <ele>493.3</ele>
        <time>2023-05-28T06:39:06Z</time>
      </trkpt>
      <trkpt lat="43.34797" lon="2.445">
        <ele>493.5</ele>
        <time>2023-05-28T06:39:07Z</time>
      </trkpt>
      <trkpt lat="43.34797" lon="2.44503">
        <ele>493.6</ele>
        <time>2023-05-28T06:39:08Z</time>
      </trkpt>
      <trkpt lat="43.34796" lon="2.44505">
        <ele>493.8</ele>
        <time>2023-05-28T06:39:09Z</time>
      </trkpt>
      <trkpt lat="43.34794" lon="2.44508">
        <ele>494</ele>
        <time>2023-05-28T06:39:10Z</time>
      </trkpt>
      <trkpt lat="43.34794" lon="2.4451">
        <ele>494</ele>
        <time>2023-05-28T06:39:11Z</time>
      </trkpt>
      <trkpt lat="43.34791" lon="2.44512">
        <ele>494.2</ele>
        <time>2023-05-28T06:39:12Z</time>
      </trkpt>
      <trkpt lat="43.3479" lon="2.44513">
        <ele>494.3</ele>
        <time>2023-05-28T06:39:13Z</time>
      </trkpt>
      <trkpt lat="43.34786" lon="2.44515">
        <ele>494.4</ele>
        <time>2023-05-28T06:39:14Z</time>
      </trkpt>
      <trkpt lat="43.34785" lon="2.44515">
        <ele>494.5</ele>
        <time>2023-05-28T06:39:15Z</time>
      </trkpt>
      <trkpt lat="43.34784" lon="2.44516">
        <ele>494.5</ele>
        <time>2023-05-28T06:39:16Z</time>
      </trkpt>
      <trkpt lat="43.34783" lon="2.44517">
        <ele>494.6</ele>
        <time>2023-05-28T06:39:17Z</time>
      </trkpt>
      <trkpt lat="43.3478" lon="2.44519">
        <ele>494.6</ele>
        <time>2023-05-28T06:39:18Z</time>
      </trkpt>
      <trkpt lat="43.34779" lon="2.4452">
        <ele>494.6</ele>
        <time>2023-05-28T06:39:19Z</time>
      </trkpt>
      <trkpt lat="43.34776" lon="2.44523">
        <ele>494.6</ele>
        <time>2023-05-28T06:39:20Z</time>
      </trkpt>
      <trkpt lat="43.34775" lon="2.44523">
        <ele>494.6</ele>
        <time>2023-05-28T06:39:21Z</time>
      </trkpt>
      <trkpt lat="43.34773" lon="2.44525">
        <ele>494.6</ele>
        <time>2023-05-28T06:39:22Z</time>
      </trkpt>
      <trkpt lat="43.34772" lon="2.44525">
        <ele>494.6</ele>
        <time>2023-05-28T06:39:23Z</time>
      </trkpt>
      <trkpt lat="43.3477" lon="2.44524">
        <ele>494.6</ele>
        <time>2023-05-28T06:39:24Z</time>
      </trkpt>
      <trkpt lat="43.3477" lon="2.44524">
        <ele>494.6</ele>
        <time>2023-05-28T06:39:25Z</time>
      </trkpt>
      <trkpt lat="43.3477" lon="2.44525">
        <ele>494.6</ele>
        <time>2023-05-28T06:39:26Z</time>
      </trkpt>
      <trkpt lat="43.34769" lon="2.44526">
        <ele>494.6</ele>
        <time>2023-05-28T06:39:27Z</time>
      </trkpt>
      <trkpt lat="43.3477" lon="2.44527">
        <ele>494.6</ele>
        <time>2023-05-28T06:39:28Z</time>
      </trkpt>
      <trkpt lat="43.34769" lon="2.44528">
        <ele>494.6</ele>
        <time>2023-05-28T06:39:29Z</time>
      </trkpt>
      <trkpt lat="43.3477" lon="2.4453">
        <ele>494.6</ele>
        <time>2023-05-28T06:39:30Z</time>
      </trkpt>
      <trkpt lat="43.3477" lon="2.4453">
        <ele>494.6</ele>
        <time>2023-05-28T06:39:31Z</time>
      </trkpt>
      <trkpt lat="43.3477" lon="2.4453">
        <ele>494.6</ele>
        <time>2023-05-28T06:39:32Z</time>
      </trkpt>
      <trkpt lat="43.34769" lon="2.44531">
        <ele>494.6</ele>
        <time>2023-05-28T06:39:33Z</time>
      </trkpt>
      <trkpt lat="43.34769" lon="2.44533">
        <ele>494.5</ele>
        <time>2023-05-28T06:39:34Z</time>
      </trkpt>
      <trkpt lat="43.34768" lon="2.44534">
        <ele>494.5</ele>
        <time>2023-05-28T06:39:35Z</time>
      </trkpt>
      <trkpt lat="43.34768" lon="2.44535">
        <ele>494.5</ele>
        <time>2023-05-28T06:39:36Z</time>
      </trkpt>
      <trkpt lat="43.34768" lon="2.44536">
        <ele>494.5</ele>
        <time>2023-05-28T06:39:37Z</time>
      </trkpt>
      <trkpt lat="43.34767" lon="2.44538">
        <ele>494.5</ele>
        <time>2023-05-28T06:39:38Z</time>
      </trkpt>
      <trkpt lat="43.34766" lon="2.44542">
        <ele>494.6</ele>
        <time>2023-05-28T06:39:39Z</time>
      </trkpt>
      <trkpt lat="43.34766" lon="2.44543">
        <ele>494.6</ele>
        <time>2023-05-28T06:39:40Z</time>
      </trkpt>
      <trkpt lat="43.34765" lon="2.44545">
        <ele>494.6</ele>
        <time>2023-05-28T06:39:41Z</time>
      </trkpt>
      <trkpt lat="43.34765" lon="2.44547">
        <ele>494.6</ele>
        <time>2023-05-28T06:39:42Z</time>
      </trkpt>
      <trkpt lat="43.34766" lon="2.4455">
        <ele>494.7</ele>
        <time>2023-05-28T06:39:43Z</time>
      </trkpt>
      <trkpt lat="43.34766" lon="2.44551">
        <ele>494.7</ele>
        <time>2023-05-28T06:39:44Z</time>
      </trkpt>
      <trkpt lat="43.34767" lon="2.44552">
        <ele>494.8</ele>
        <time>2023-05-28T06:39:45Z</time>
      </trkpt>
      <trkpt lat="43.34767" lon="2.44553">
        <ele>494.8</ele>
        <time>2023-05-28T06:39:46Z</time>
      </trkpt>
      <trkpt lat="43.34767" lon="2.44555">
        <ele>494.9</ele>
        <time>2023-05-28T06:39:47Z</time>
      </trkpt>
      <trkpt lat="43.34768" lon="2.44556">
        <ele>494.9</ele>
        <time>2023-05-28T06:39:48Z</time>
      </trkpt>
      <trkpt lat="43.34768" lon="2.44559">
        <ele>495</ele>
        <time>2023-05-28T06:39:49Z</time>
      </trkpt>
      <trkpt lat="43.34768" lon="2.44561">
        <ele>495</ele>
        <time>2023-05-28T06:39:50Z</time>
      </trkpt>
      <trkpt lat="43.34768" lon="2.44563">
        <ele>495.1</ele>
        <time>2023-05-28T06:39:51Z</time>
      </trkpt>
      <trkpt lat="43.34767" lon="2.44565">
        <ele>495.2</ele>
        <time>2023-05-28T06:39:52Z</time>
      </trkpt>
      <trkpt lat="43.34766" lon="2.44567">
        <ele>495.3</ele>
        <time>2023-05-28T06:39:53Z</time>
      </trkpt>
      <trkpt lat="43.34766" lon="2.44568">
        <ele>495.3</ele>
        <time>2023-05-28T06:39:54Z</time>
      </trkpt>
      <trkpt lat="43.34765" lon="2.44568">
        <ele>495.3</ele>
        <time>2023-05-28T06:39:55Z</time>
      </trkpt>
      <trkpt lat="43.34765" lon="2.44569">
        <ele>495.3</ele>
        <time>2023-05-28T06:39:56Z</time>
      </trkpt>
      <trkpt lat="43.34765" lon="2.44569">
        <ele>495.3</ele>
        <time>2023-05-28T06:39:57Z</time>
      </trkpt>
      <trkpt lat="43.34764" lon="2.44572">
        <ele>495.4</ele>
        <time>2023-05-28T06:39:58Z</time>
      </trkpt>
      <trkpt lat="43.34764" lon="2.44572">
        <ele>495.4</ele>
        <time>2023-05-28T06:39:59Z</time>
      </trkpt>
      <trkpt lat="43.34764" lon="2.44573">
        <ele>495.4</ele>
        <time>2023-05-28T06:40:00Z</time>
      </trkpt>
      <trkpt lat="43.34763" lon="2.44574">
        <ele>495.4</ele>
        <time>2023-05-28T06:40:01Z</time>
      </trkpt>
      <trkpt lat="43.34762" lon="2.44576">
        <ele>495.5</ele>
        <time>2023-05-28T06:40:02Z</time>
      </trkpt>
      <trkpt lat="43.34762" lon="2.44576">
        <ele>495.5</ele>
        <time>2023-05-28T06:40:03Z</time>
      </trkpt>
      <trkpt lat="43.34761" lon="2.44577">
        <ele>495.5</ele>
        <time>2023-05-28T06:40:04Z</time>
      </trkpt>
      <trkpt lat="43.34761" lon="2.44578">
        <ele>495.5</ele>
        <time>2023-05-28T06:40:05Z</time>
      </trkpt>
      <trkpt lat="43.3476" lon="2.4458">
        <ele>495.6</ele>
        <time>2023-05-28T06:40:06Z</time>
      </trkpt>
      <trkpt lat="43.34759" lon="2.44582">
        <ele>495.6</ele>
        <time>2023-05-28T06:40:07Z</time>
      </trkpt>
      <trkpt lat="43.34758" lon="2.44583">
        <ele>495.6</ele>
        <time>2023-05-28T06:40:08Z</time>
      </trkpt>
      <trkpt lat="43.34758" lon="2.44584">
        <ele>495.6</ele>
        <time>2023-05-28T06:40:09Z</time>
      </trkpt>
      <trkpt lat="43.34758" lon="2.44586">
        <ele>495.6</ele>
        <time>2023-05-28T06:40:10Z</time>
      </trkpt>
      <trkpt lat="43.34758" lon="2.44587">
        <ele>495.6</ele>
        <time>2023-05-28T06:40:11Z</time>
      </trkpt>
      <trkpt lat="43.34757" lon="2.44588">
        <ele>495.6</ele>
        <time>2023-05-28T06:40:12Z</time>
      </trkpt>
      <trkpt lat="43.34757" lon="2.44589">
        <ele>495.6</ele>
        <time>2023-05-28T06:40:13Z</time>
      </trkpt>
      <trkpt lat="43.34756" lon="2.4459">
        <ele>495.6</ele>
        <time>2023-05-28T06:40:14Z</time>
      </trkpt>
      <trkpt lat="43.34756" lon="2.4459">
        <ele>495.6</ele>
        <time>2023-05-28T06:40:15Z</time>
      </trkpt>
      <trkpt lat="43.34755" lon="2.44591">
        <ele>495.6</ele>
        <time>2023-05-28T06:40:16Z</time>
      </trkpt>
      <trkpt lat="43.34754" lon="2.44591">
        <ele>495.5</ele>
        <time>2023-05-28T06:40:17Z</time>
      </trkpt>
      <trkpt lat="43.34752" lon="2.44592">
        <ele>495.5</ele>
        <time>2023-05-28T06:40:18Z</time>
      </trkpt>
      <trkpt lat="43.34751" lon="2.44593">
        <ele>495.5</ele>
        <time>2023-05-28T06:40:19Z</time>
      </trkpt>
      <trkpt lat="43.3475" lon="2.44593">
        <ele>495.5</ele>
        <time>2023-05-28T06:40:20Z</time>
      </trkpt>
      <trkpt lat="43.34748" lon="2.44594">
        <ele>495.4</ele>
        <time>2023-05-28T06:40:21Z</time>
      </trkpt>
      <trkpt lat="43.34746" lon="2.44594">
        <ele>495.4</ele>
        <time>2023-05-28T06:40:22Z</time>
      </trkpt>
      <trkpt lat="43.34745" lon="2.44594">
        <ele>495.4</ele>
        <time>2023-05-28T06:40:23Z</time>
      </trkpt>
      <trkpt lat="43.34743" lon="2.44594">
        <ele>495.3</ele>
        <time>2023-05-28T06:40:24Z</time>
      </trkpt>
      <trkpt lat="43.34741" lon="2.44596">
        <ele>495.3</ele>
        <time>2023-05-28T06:40:25Z</time>
      </trkpt>
      <trkpt lat="43.3474" lon="2.44597">
        <ele>495.3</ele>
        <time>2023-05-28T06:40:26Z</time>
      </trkpt>
      <trkpt lat="43.34739" lon="2.44598">
        <ele>495.3</ele>
        <time>2023-05-28T06:40:27Z</time>
      </trkpt>
      <trkpt lat="43.34737" lon="2.446">
        <ele>495.3</ele>
        <time>2023-05-28T06:40:28Z</time>
      </trkpt>
      <trkpt lat="43.34735" lon="2.44602">
        <ele>495.4</ele>
        <time>2023-05-28T06:40:29Z</time>
      </trkpt>
      <trkpt lat="43.34734" lon="2.44602">
        <ele>495.4</ele>
        <time>2023-05-28T06:40:30Z</time>
      </trkpt>
      <trkpt lat="43.34733" lon="2.44603">
        <ele>495.4</ele>
        <time>2023-05-28T06:40:31Z</time>
      </trkpt>
      <trkpt lat="43.34733" lon="2.44604">
        <ele>495.5</ele>
        <time>2023-05-28T06:40:32Z</time>
      </trkpt>
      <trkpt lat="43.34732" lon="2.44605">
        <ele>495.5</ele>
        <time>2023-05-28T06:40:33Z</time>
      </trkpt>
      <trkpt lat="43.34731" lon="2.44606">
        <ele>495.6</ele>
        <time>2023-05-28T06:40:34Z</time>
      </trkpt>
      <trkpt lat="43.3473" lon="2.44608">
        <ele>495.6</ele>
        <time>2023-05-28T06:40:35Z</time>
      </trkpt>
      <trkpt lat="43.3473" lon="2.4461">
        <ele>495.7</ele>
        <time>2023-05-28T06:40:36Z</time>
      </trkpt>
      <trkpt lat="43.34729" lon="2.44612">
        <ele>495.8</ele>
        <time>2023-05-28T06:40:37Z</time>
      </trkpt>
      <trkpt lat="43.34728" lon="2.44613">
        <ele>495.9</ele>
        <time>2023-05-28T06:40:38Z</time>
      </trkpt>
      <trkpt lat="43.34727" lon="2.44614">
        <ele>496</ele>
        <time>2023-05-28T06:40:39Z</time>
      </trkpt>
      <trkpt lat="43.34725" lon="2.44614">
        <ele>496.1</ele>
        <time>2023-05-28T06:40:40Z</time>
      </trkpt>
      <trkpt lat="43.34724" lon="2.44615">
        <ele>496.2</ele>
        <time>2023-05-28T06:40:41Z</time>
      </trkpt>
      <trkpt lat="43.34723" lon="2.44616">
        <ele>496.3</ele>
        <time>2023-05-28T06:40:42Z</time>
      </trkpt>
      <trkpt lat="43.34722" lon="2.44617">
        <ele>496.4</ele>
        <time>2023-05-28T06:40:43Z</time>
      </trkpt>
      <trkpt lat="43.34722" lon="2.44618">
        <ele>496.4</ele>
        <time>2023-05-28T06:40:44Z</time>
      </trkpt>
      <trkpt lat="43.34722" lon="2.44619">
        <ele>496.5</ele>
        <time>2023-05-28T06:40:45Z</time>
      </trkpt>
      <trkpt lat="43.34721" lon="2.44623">
        <ele>496.7</ele>
        <time>2023-05-28T06:40:46Z</time>
      </trkpt>
      <trkpt lat="43.3472" lon="2.44624">
        <ele>496.8</ele>
        <time>2023-05-28T06:40:47Z</time>
      </trkpt>
      <trkpt lat="43.34717" lon="2.44627">
        <ele>497</ele>
        <time>2023-05-28T06:40:48Z</time>
      </trkpt>
      <trkpt lat="43.34716" lon="2.44627">
        <ele>497.1</ele>
        <time>2023-05-28T06:40:49Z</time>
      </trkpt>
      <trkpt lat="43.34714" lon="2.4463">
        <ele>497.3</ele>
        <time>2023-05-28T06:40:50Z</time>
      </trkpt>
      <trkpt lat="43.34713" lon="2.4463">
        <ele>497.4</ele>
        <time>2023-05-28T06:40:51Z</time>
      </trkpt>
      <trkpt lat="43.34711" lon="2.44631">
        <ele>497.6</ele>
        <time>2023-05-28T06:40:52Z</time>
      </trkpt>
      <trkpt lat="43.3471" lon="2.44632">
        <ele>497.7</ele>
        <time>2023-05-28T06:40:53Z</time>
      </trkpt>
      <trkpt lat="43.34707" lon="2.44634">
        <ele>497.9</ele>
        <time>2023-05-28T06:40:54Z</time>
      </trkpt>
      <trkpt lat="43.34706" lon="2.44634">
        <ele>498</ele>
        <time>2023-05-28T06:40:55Z</time>
      </trkpt>
      <trkpt lat="43.34704" lon="2.44636">
        <ele>498.2</ele>
        <time>2023-05-28T06:40:56Z</time>
      </trkpt>
      <trkpt lat="43.34703" lon="2.44636">
        <ele>498.3</ele>
        <time>2023-05-28T06:40:57Z</time>
      </trkpt>
      <trkpt lat="43.347" lon="2.44637">
        <ele>498.6</ele>
        <time>2023-05-28T06:40:58Z</time>
      </trkpt>
      <trkpt lat="43.34699" lon="2.44637">
        <ele>498.7</ele>
        <time>2023-05-28T06:40:59Z</time>
      </trkpt>
      <trkpt lat="43.34697" lon="2.44637">
        <ele>498.9</ele>
        <time>2023-05-28T06:41:00Z</time>
      </trkpt>
      <trkpt lat="43.34696" lon="2.44637">
        <ele>499</ele>
        <time>2023-05-28T06:41:01Z</time>
      </trkpt>
      <trkpt lat="43.34694" lon="2.44635">
        <ele>499.2</ele>
        <time>2023-05-28T06:41:02Z</time>
      </trkpt>
      <trkpt lat="43.34694" lon="2.44634">
        <ele>499.3</ele>
        <time>2023-05-28T06:41:03Z</time>
      </trkpt>
      <trkpt lat="43.34693" lon="2.44633">
        <ele>499.4</ele>
        <time>2023-05-28T06:41:04Z</time>
      </trkpt>
      <trkpt lat="43.34692" lon="2.44631">
        <ele>499.6</ele>
        <time>2023-05-28T06:41:05Z</time>
      </trkpt>
      <trkpt lat="43.34692" lon="2.4463">
        <ele>499.6</ele>
        <time>2023-05-28T06:41:06Z</time>
      </trkpt>
      <trkpt lat="43.34691" lon="2.4463">
        <ele>499.7</ele>
        <time>2023-05-28T06:41:07Z</time>
      </trkpt>
      <trkpt lat="43.34689" lon="2.4463">
        <ele>499.9</ele>
        <time>2023-05-28T06:41:08Z</time>
      </trkpt>
      <trkpt lat="43.34689" lon="2.4463">
        <ele>500</ele>
        <time>2023-05-28T06:41:09Z</time>
      </trkpt>
      <trkpt lat="43.34688" lon="2.4463">
        <ele>500</ele>
        <time>2023-05-28T06:41:10Z</time>
      </trkpt>
      <trkpt lat="43.34687" lon="2.4463">
        <ele>500.1</ele>
        <time>2023-05-28T06:41:11Z</time>
      </trkpt>
      <trkpt lat="43.34687" lon="2.44629">
        <ele>500.2</ele>
        <time>2023-05-28T06:41:12Z</time>
      </trkpt>
      <trkpt lat="43.34686" lon="2.44629">
        <ele>500.2</ele>
        <time>2023-05-28T06:41:13Z</time>
      </trkpt>
      <trkpt lat="43.34685" lon="2.44628">
        <ele>500.3</ele>
        <time>2023-05-28T06:41:14Z</time>
      </trkpt>
      <trkpt lat="43.34683" lon="2.44627">
        <ele>500.5</ele>
        <time>2023-05-28T06:41:15Z</time>
      </trkpt>
      <trkpt lat="43.34682" lon="2.44627">
        <ele>500.6</ele>
        <time>2023-05-28T06:41:16Z</time>
      </trkpt>
      <trkpt lat="43.34681" lon="2.44627">
        <ele>500.8</ele>
        <time>2023-05-28T06:41:17Z</time>
      </trkpt>
      <trkpt lat="43.3468" lon="2.44628">
        <ele>500.8</ele>
        <time>2023-05-28T06:41:18Z</time>
      </trkpt>
      <trkpt lat="43.34679" lon="2.44629">
        <ele>500.9</ele>
        <time>2023-05-28T06:41:19Z</time>
      </trkpt>
      <trkpt lat="43.34678" lon="2.44631">
        <ele>501.1</ele>
        <time>2023-05-28T06:41:20Z</time>
      </trkpt>
      <trkpt lat="43.34677" lon="2.44632">
        <ele>501.2</ele>
        <time>2023-05-28T06:41:21Z</time>
      </trkpt>
      <trkpt lat="43.34676" lon="2.44634">
        <ele>501.3</ele>
        <time>2023-05-28T06:41:22Z</time>
      </trkpt>
      <trkpt lat="43.34675" lon="2.44636">
        <ele>501.5</ele>
        <time>2023-05-28T06:41:23Z</time>
      </trkpt>
      <trkpt lat="43.34674" lon="2.44638">
        <ele>501.6</ele>
        <time>2023-05-28T06:41:24Z</time>
      </trkpt>
      <trkpt lat="43.34673" lon="2.4464">
        <ele>501.7</ele>
        <time>2023-05-28T06:41:25Z</time>
      </trkpt>
      <trkpt lat="43.34671" lon="2.44642">
        <ele>501.9</ele>
        <time>2023-05-28T06:41:26Z</time>
      </trkpt>
      <trkpt lat="43.3467" lon="2.44643">
        <ele>502</ele>
        <time>2023-05-28T06:41:27Z</time>
      </trkpt>
      <trkpt lat="43.34667" lon="2.44644">
        <ele>502.2</ele>
        <time>2023-05-28T06:41:28Z</time>
      </trkpt>
      <trkpt lat="43.34666" lon="2.44645">
        <ele>502.2</ele>
        <time>2023-05-28T06:41:29Z</time>
      </trkpt>
      <trkpt lat="43.34663" lon="2.44645">
        <ele>502.4</ele>
        <time>2023-05-28T06:41:30Z</time>
      </trkpt>
      <trkpt lat="43.34662" lon="2.44645">
        <ele>502.5</ele>
        <time>2023-05-28T06:41:31Z</time>
      </trkpt>
      <trkpt lat="43.34661" lon="2.44645">
        <ele>502.5</ele>
        <time>2023-05-28T06:41:32Z</time>
      </trkpt>
      <trkpt lat="43.34659" lon="2.44646">
        <ele>502.6</ele>
        <time>2023-05-28T06:41:33Z</time>
      </trkpt>
      <trkpt lat="43.34658" lon="2.44646">
        <ele>502.7</ele>
        <time>2023-05-28T06:41:34Z</time>
      </trkpt>
      <trkpt lat="43.34656" lon="2.44647">
        <ele>502.7</ele>
        <time>2023-05-28T06:41:35Z</time>
      </trkpt>
      <trkpt lat="43.34654" lon="2.44648">
        <ele>502.8</ele>
        <time>2023-05-28T06:41:36Z</time>
      </trkpt>
      <trkpt lat="43.34653" lon="2.44649">
        <ele>502.8</ele>
        <time>2023-05-28T06:41:37Z</time>
      </trkpt>
      <trkpt lat="43.34651" lon="2.44651">
        <ele>502.8</ele>
        <time>2023-05-28T06:41:38Z</time>
      </trkpt>
      <trkpt lat="43.34651" lon="2.44652">
        <ele>502.8</ele>
        <time>2023-05-28T06:41:39Z</time>
      </trkpt>
      <trkpt lat="43.3465" lon="2.44653">
        <ele>502.8</ele>
        <time>2023-05-28T06:41:40Z</time>
      </trkpt>
      <trkpt lat="43.3465" lon="2.44655">
        <ele>502.8</ele>
        <time>2023-05-28T06:41:41Z</time>
      </trkpt>
      <trkpt lat="43.3465" lon="2.44656">
        <ele>502.8</ele>
        <time>2023-05-28T06:41:42Z</time>
      </trkpt>
      <trkpt lat="43.3465" lon="2.44658">
        <ele>502.8</ele>
        <time>2023-05-28T06:41:43Z</time>
      </trkpt>
      <trkpt lat="43.34651" lon="2.44659">
        <ele>502.7</ele>
        <time>2023-05-28T06:41:44Z</time>
      </trkpt>
      <trkpt lat="43.34651" lon="2.44661">
        <ele>502.7</ele>
        <time>2023-05-28T06:41:45Z</time>
      </trkpt>
      <trkpt lat="43.34651" lon="2.44661">
        <ele>502.7</ele>
        <time>2023-05-28T06:41:46Z</time>
      </trkpt>
      <trkpt lat="43.34652" lon="2.44664">
        <ele>502.6</ele>
        <time>2023-05-28T06:41:47Z</time>
      </trkpt>
      <trkpt lat="43.34652" lon="2.44665">
        <ele>502.6</ele>
        <time>2023-05-28T06:41:48Z</time>
      </trkpt>
      <trkpt lat="43.34653" lon="2.44666">
        <ele>502.6</ele>
        <time>2023-05-28T06:41:49Z</time>
      </trkpt>
      <trkpt lat="43.34654" lon="2.44668">
        <ele>502.5</ele>
        <time>2023-05-28T06:41:50Z</time>
      </trkpt>
      <trkpt lat="43.34654" lon="2.44669">
        <ele>502.5</ele>
        <time>2023-05-28T06:41:51Z</time>
      </trkpt>
      <trkpt lat="43.34654" lon="2.4467">
        <ele>502.4</ele>
        <time>2023-05-28T06:41:52Z</time>
      </trkpt>
      <trkpt lat="43.34655" lon="2.44672">
        <ele>502.4</ele>
        <time>2023-05-28T06:41:53Z</time>
      </trkpt>
      <trkpt lat="43.34655" lon="2.44674">
        <ele>502.3</ele>
        <time>2023-05-28T06:41:54Z</time>
      </trkpt>
      <trkpt lat="43.34655" lon="2.44675">
        <ele>502.3</ele>
        <time>2023-05-28T06:41:55Z</time>
      </trkpt>
      <trkpt lat="43.34655" lon="2.44675">
        <ele>502.2</ele>
        <time>2023-05-28T06:41:56Z</time>
      </trkpt>
      <trkpt lat="43.34656" lon="2.44676">
        <ele>502.2</ele>
        <time>2023-05-28T06:41:57Z</time>
      </trkpt>
      <trkpt lat="43.34657" lon="2.44678">
        <ele>502.1</ele>
        <time>2023-05-28T06:41:58Z</time>
      </trkpt>
      <trkpt lat="43.34657" lon="2.44679">
        <ele>502</ele>
        <time>2023-05-28T06:41:59Z</time>
      </trkpt>
      <trkpt lat="43.34658" lon="2.44681">
        <ele>502</ele>
        <time>2023-05-28T06:42:00Z</time>
      </trkpt>
      <trkpt lat="43.34658" lon="2.44684">
        <ele>501.8</ele>
        <time>2023-05-28T06:42:01Z</time>
      </trkpt>
      <trkpt lat="43.34659" lon="2.44685">
        <ele>501.8</ele>
        <time>2023-05-28T06:42:02Z</time>
      </trkpt>
      <trkpt lat="43.34661" lon="2.44688">
        <ele>501.6</ele>
        <time>2023-05-28T06:42:03Z</time>
      </trkpt>
      <trkpt lat="43.34662" lon="2.4469">
        <ele>501.5</ele>
        <time>2023-05-28T06:42:04Z</time>
      </trkpt>
      <trkpt lat="43.34664" lon="2.44693">
        <ele>501.4</ele>
        <time>2023-05-28T06:42:05Z</time>
      </trkpt>
      <trkpt lat="43.34664" lon="2.44694">
        <ele>501.3</ele>
        <time>2023-05-28T06:42:06Z</time>
      </trkpt>
      <trkpt lat="43.34666" lon="2.44697">
        <ele>501.2</ele>
        <time>2023-05-28T06:42:07Z</time>
      </trkpt>
      <trkpt lat="43.34667" lon="2.44697">
        <ele>501.2</ele>
        <time>2023-05-28T06:42:08Z</time>
      </trkpt>
      <trkpt lat="43.34668" lon="2.44698">
        <ele>501.2</ele>
        <time>2023-05-28T06:42:09Z</time>
      </trkpt>
      <trkpt lat="43.3467" lon="2.44701">
        <ele>501.1</ele>
        <time>2023-05-28T06:42:10Z</time>
      </trkpt>
      <trkpt lat="43.34671" lon="2.44702">
        <ele>501.1</ele>
        <time>2023-05-28T06:42:11Z</time>
      </trkpt>
      <trkpt lat="43.34673" lon="2.44705">
        <ele>500.8</ele>
        <time>2023-05-28T06:42:12Z</time>
      </trkpt>
      <trkpt lat="43.34674" lon="2.44706">
        <ele>500.7</ele>
        <time>2023-05-28T06:42:13Z</time>
      </trkpt>
      <trkpt lat="43.34676" lon="2.44709">
        <ele>500.4</ele>
        <time>2023-05-28T06:42:14Z</time>
      </trkpt>
      <trkpt lat="43.34677" lon="2.4471">
        <ele>500.3</ele>
        <time>2023-05-28T06:42:15Z</time>
      </trkpt>
      <trkpt lat="43.34678" lon="2.44714">
        <ele>500</ele>
        <time>2023-05-28T06:42:16Z</time>
      </trkpt>
      <trkpt lat="43.34679" lon="2.44716">
        <ele>499.8</ele>
        <time>2023-05-28T06:42:17Z</time>
      </trkpt>
      <trkpt lat="43.34679" lon="2.4472">
        <ele>499.5</ele>
        <time>2023-05-28T06:42:18Z</time>
      </trkpt>
      <trkpt lat="43.34679" lon="2.44722">
        <ele>499.3</ele>
        <time>2023-05-28T06:42:19Z</time>
      </trkpt>
      <trkpt lat="43.34679" lon="2.44727">
        <ele>498.9</ele>
        <time>2023-05-28T06:42:20Z</time>
      </trkpt>
      <trkpt lat="43.34678" lon="2.44729">
        <ele>498.7</ele>
        <time>2023-05-28T06:42:21Z</time>
      </trkpt>
      <trkpt lat="43.34677" lon="2.44732">
        <ele>498.3</ele>
        <time>2023-05-28T06:42:22Z</time>
      </trkpt>
      <trkpt lat="43.34677" lon="2.44733">
        <ele>498.2</ele>
        <time>2023-05-28T06:42:23Z</time>
      </trkpt>
      <trkpt lat="43.34675" lon="2.44737">
        <ele>497.8</ele>
        <time>2023-05-28T06:42:24Z</time>
      </trkpt>
      <trkpt lat="43.34674" lon="2.44738">
        <ele>497.6</ele>
        <time>2023-05-28T06:42:25Z</time>
      </trkpt>
      <trkpt lat="43.34672" lon="2.44742">
        <ele>497.1</ele>
        <time>2023-05-28T06:42:26Z</time>
      </trkpt>
      <trkpt lat="43.34671" lon="2.44743">
        <ele>497</ele>
        <time>2023-05-28T06:42:27Z</time>
      </trkpt>
      <trkpt lat="43.34669" lon="2.44746">
        <ele>496.5</ele>
        <time>2023-05-28T06:42:28Z</time>
      </trkpt>
      <trkpt lat="43.34669" lon="2.44748">
        <ele>496.4</ele>
        <time>2023-05-28T06:42:29Z</time>
      </trkpt>
      <trkpt lat="43.34667" lon="2.44752">
        <ele>496</ele>
        <time>2023-05-28T06:42:30Z</time>
      </trkpt>
      <trkpt lat="43.34667" lon="2.44753">
        <ele>495.9</ele>
        <time>2023-05-28T06:42:31Z</time>
      </trkpt>
      <trkpt lat="43.34667" lon="2.44758">
        <ele>495.4</ele>
        <time>2023-05-28T06:42:32Z</time>
      </trkpt>
      <trkpt lat="43.34667" lon="2.4476">
        <ele>495.3</ele>
        <time>2023-05-28T06:42:33Z</time>
      </trkpt>
      <trkpt lat="43.34667" lon="2.44765">
        <ele>494.9</ele>
        <time>2023-05-28T06:42:34Z</time>
      </trkpt>
      <trkpt lat="43.34667" lon="2.44767">
        <ele>494.7</ele>
        <time>2023-05-28T06:42:35Z</time>
      </trkpt>
      <trkpt lat="43.34666" lon="2.44771">
        <ele>494.5</ele>
        <time>2023-05-28T06:42:36Z</time>
      </trkpt>
      <trkpt lat="43.34666" lon="2.44774">
        <ele>494.2</ele>
        <time>2023-05-28T06:42:37Z</time>
      </trkpt>
      <trkpt lat="43.34665" lon="2.44778">
        <ele>494</ele>
        <time>2023-05-28T06:42:38Z</time>
      </trkpt>
      <trkpt lat="43.34665" lon="2.44783">
        <ele>493.8</ele>
        <time>2023-05-28T06:42:39Z</time>
      </trkpt>
      <trkpt lat="43.34665" lon="2.44784">
        <ele>493.7</ele>
        <time>2023-05-28T06:42:40Z</time>
      </trkpt>
      <trkpt lat="43.34664" lon="2.44789">
        <ele>493.6</ele>
        <time>2023-05-28T06:42:41Z</time>
      </trkpt>
      <trkpt lat="43.34664" lon="2.44791">
        <ele>493.6</ele>
        <time>2023-05-28T06:42:42Z</time>
      </trkpt>
      <trkpt lat="43.34664" lon="2.44796">
        <ele>493.5</ele>
        <time>2023-05-28T06:42:43Z</time>
      </trkpt>
      <trkpt lat="43.34664" lon="2.44798">
        <ele>493.5</ele>
        <time>2023-05-28T06:42:44Z</time>
      </trkpt>
      <trkpt lat="43.34664" lon="2.44801">
        <ele>493.5</ele>
        <time>2023-05-28T06:42:45Z</time>
      </trkpt>
      <trkpt lat="43.34664" lon="2.44801">
        <ele>493.5</ele>
        <time>2023-05-28T06:42:46Z</time>
      </trkpt>
      <trkpt lat="43.34664" lon="2.44802">
        <ele>493.5</ele>
        <time>2023-05-28T06:42:47Z</time>
      </trkpt>
      <trkpt lat="43.34664" lon="2.44802">
        <ele>493.6</ele>
        <time>2023-05-28T06:42:48Z</time>
      </trkpt>
      <trkpt lat="43.34663" lon="2.44803">
        <ele>493.6</ele>
        <time>2023-05-28T06:42:49Z</time>
      </trkpt>
      <trkpt lat="43.34664" lon="2.44804">
        <ele>493.6</ele>
        <time>2023-05-28T06:42:50Z</time>
      </trkpt>
      <trkpt lat="43.34664" lon="2.44804">
        <ele>493.6</ele>
        <time>2023-05-28T06:42:51Z</time>
      </trkpt>
      <trkpt lat="43.34664" lon="2.44805">
        <ele>493.6</ele>
        <time>2023-05-28T06:42:52Z</time>
      </trkpt>
      <trkpt lat="43.34665" lon="2.44805">
        <ele>493.6</ele>
        <time>2023-05-28T06:42:53Z</time>
      </trkpt>
      <trkpt lat="43.34666" lon="2.44806">
        <ele>493.6</ele>
        <time>2023-05-28T06:42:54Z</time>
      </trkpt>
      <trkpt lat="43.34666" lon="2.44806">
        <ele>493.6</ele>
        <time>2023-05-28T06:42:55Z</time>
      </trkpt>
      <trkpt lat="43.34666" lon="2.44806">
        <ele>493.7</ele>
        <time>2023-05-28T06:42:56Z</time>
      </trkpt>
      <trkpt lat="43.34666" lon="2.44806">
        <ele>493.7</ele>
        <time>2023-05-28T06:42:57Z</time>
      </trkpt>
      <trkpt lat="43.34665" lon="2.44807">
        <ele>493.7</ele>
        <time>2023-05-28T06:42:58Z</time>
      </trkpt>
      <trkpt lat="43.34665" lon="2.44807">
        <ele>493.7</ele>
        <time>2023-05-28T06:42:59Z</time>
      </trkpt>
      <trkpt lat="43.34665" lon="2.44807">
        <ele>493.7</ele>
        <time>2023-05-28T06:43:00Z</time>
      </trkpt>
      <trkpt lat="43.34665" lon="2.44807">
        <ele>493.7</ele>
        <time>2023-05-28T06:43:01Z</time>
      </trkpt>
      <trkpt lat="43.34665" lon="2.44808">
        <ele>493.7</ele>
        <time>2023-05-28T06:43:02Z</time>
      </trkpt>
      <trkpt lat="43.34665" lon="2.44808">
        <ele>493.7</ele>
        <time>2023-05-28T06:43:03Z</time>
      </trkpt>
      <trkpt lat="43.34665" lon="2.44808">
        <ele>493.7</ele>
        <time>2023-05-28T06:43:04Z</time>
      </trkpt>
      <trkpt lat="43.34665" lon="2.44808">
        <ele>493.7</ele>
        <time>2023-05-28T06:43:05Z</time>
      </trkpt>
      <trkpt lat="43.34665" lon="2.44808">
        <ele>493.7</ele>
        <time>2023-05-28T06:43:06Z</time>
      </trkpt>
      <trkpt lat="43.34665" lon="2.44808">
        <ele>493.7</ele>
        <time>2023-05-28T06:43:07Z</time>
      </trkpt>
      <trkpt lat="43.34665" lon="2.44808">
        <ele>493.7</ele>
        <time>2023-05-28T06:43:08Z</time>
      </trkpt>
      <trkpt lat="43.34665" lon="2.44808">
        <ele>493.7</ele>
        <time>2023-05-28T06:43:09Z</time>
      </trkpt>
      <trkpt lat="43.34665" lon="2.44808">
        <ele>493.7</ele>
        <time>2023-05-28T06:43:10Z</time>
      </trkpt>
      <trkpt lat="43.34666" lon="2.44808">
        <ele>493.7</ele>
        <time>2023-05-28T06:43:11Z</time>
      </trkpt>
      <trkpt lat="43.34666" lon="2.44808">
        <ele>493.8</ele>
        <time>2023-05-28T06:43:12Z</time>
      </trkpt>
      <trkpt lat="43.34666" lon="2.44807">
        <ele>493.8</ele>
        <time>2023-05-28T06:43:13Z</time>
      </trkpt>
      <trkpt lat="43.34666" lon="2.44807">
        <ele>493.8</ele>
        <time>2023-05-28T06:43:14Z</time>
      </trkpt>
      <trkpt lat="43.34666" lon="2.44807">
        <ele>493.8</ele>
        <time>2023-05-28T06:43:15Z</time>
      </trkpt>
      <trkpt lat="43.34667" lon="2.44807">
        <ele>493.8</ele>
        <time>2023-05-28T06:43:16Z</time>
      </trkpt>
      <trkpt lat="43.34667" lon="2.44807">
        <ele>493.8</ele>
        <time>2023-05-28T06:43:17Z</time>
      </trkpt>
      <trkpt lat="43.34667" lon="2.44808">
        <ele>493.8</ele>
        <time>2023-05-28T06:43:20Z</time>
      </trkpt>
      <trkpt lat="43.34667" lon="2.44808">
        <ele>493.8</ele>
        <time>2023-05-28T06:43:21Z</time>
      </trkpt>
      <trkpt lat="43.34667" lon="2.44808">
        <ele>493.8</ele>
        <time>2023-05-28T06:43:22Z</time>
      </trkpt>
      <trkpt lat="43.34668" lon="2.44808">
        <ele>493.8</ele>
        <time>2023-05-28T06:43:23Z</time>
      </trkpt>
      <trkpt lat="43.34668" lon="2.44808">
        <ele>493.8</ele>
        <time>2023-05-28T06:43:24Z</time>
      </trkpt>
      <trkpt lat="43.34668" lon="2.44808">
        <ele>493.8</ele>
        <time>2023-05-28T06:43:25Z</time>
      </trkpt>
      <trkpt lat="43.34668" lon="2.44808">
        <ele>493.8</ele>
        <time>2023-05-28T06:43:26Z</time>
      </trkpt>
      <trkpt lat="43.34668" lon="2.44808">
        <ele>493.8</ele>
        <time>2023-05-28T06:43:27Z</time>
      </trkpt>
      <trkpt lat="43.34668" lon="2.44808">
        <ele>493.8</ele>
        <time>2023-05-28T06:43:28Z</time>
      </trkpt>
      <trkpt lat="43.34667" lon="2.44808">
        <ele>493.8</ele>
        <time>2023-05-28T06:43:29Z</time>
      </trkpt>
      <trkpt lat="43.34667" lon="2.44808">
        <ele>493.8</ele>
        <time>2023-05-28T06:43:30Z</time>
      </trkpt>
      <trkpt lat="43.34667" lon="2.44808">
        <ele>493.8</ele>
        <time>2023-05-28T06:43:31Z</time>
      </trkpt>
      <trkpt lat="43.34667" lon="2.44808">
        <ele>493.8</ele>
        <time>2023-05-28T06:43:32Z</time>
      </trkpt>
      <trkpt lat="43.34667" lon="2.44808">
        <ele>493.8</ele>
        <time>2023-05-28T06:43:33Z</time>
      </trkpt>
      <trkpt lat="43.34667" lon="2.44808">
        <ele>493.8</ele>
        <time>2023-05-28T06:43:34Z</time>
      </trkpt>
      <trkpt lat="43.34666" lon="2.44808">
        <ele>493.9</ele>
        <time>2023-05-28T06:43:35Z</time>
      </trkpt>
      <trkpt lat="43.34666" lon="2.44808">
        <ele>493.9</ele>
        <time>2023-05-28T06:43:36Z</time>
      </trkpt>
      <trkpt lat="43.34666" lon="2.44808">
        <ele>493.9</ele>
        <time>2023-05-28T06:43:37Z</time>
      </trkpt>
      <trkpt lat="43.34666" lon="2.44808">
        <ele>493.9</ele>
        <time>2023-05-28T06:43:39Z</time>
      </trkpt>
      <trkpt lat="43.34666" lon="2.44809">
        <ele>493.9</ele>
        <time>2023-05-28T06:43:40Z</time>
      </trkpt>
      <trkpt lat="43.34666" lon="2.44809">
        <ele>493.9</ele>
        <time>2023-05-28T06:43:41Z</time>
      </trkpt>
      <trkpt lat="43.34666" lon="2.44809">
        <ele>493.9</ele>
        <time>2023-05-28T06:43:42Z</time>
      </trkpt>
      <trkpt lat="43.34666" lon="2.44809">
        <ele>493.9</ele>
        <time>2023-05-28T06:43:43Z</time>
      </trkpt>
      <trkpt lat="43.34666" lon="2.44809">
        <ele>493.9</ele>
        <time>2023-05-28T06:43:45Z</time>
      </trkpt>
      <trkpt lat="43.34667" lon="2.44809">
        <ele>494</ele>
        <time>2023-05-28T06:43:46Z</time>
      </trkpt>
      <trkpt lat="43.34666" lon="2.44809">
        <ele>494</ele>
        <time>2023-05-28T06:43:47Z</time>
      </trkpt>
      <trkpt lat="43.34666" lon="2.44809">
        <ele>494</ele>
        <time>2023-05-28T06:43:49Z</time>
      </trkpt>
      <trkpt lat="43.34666" lon="2.44809">
        <ele>494</ele>
        <time>2023-05-28T06:43:50Z</time>
      </trkpt>
      <trkpt lat="43.34666" lon="2.44809">
        <ele>494</ele>
        <time>2023-05-28T06:43:51Z</time>
      </trkpt>
      <trkpt lat="43.34667" lon="2.44809">
        <ele>494</ele>
        <time>2023-05-28T06:43:52Z</time>
      </trkpt>
      <trkpt lat="43.34667" lon="2.44809">
        <ele>494</ele>
        <time>2023-05-28T06:43:53Z</time>
      </trkpt>
      <trkpt lat="43.34667" lon="2.44809">
        <ele>494</ele>
        <time>2023-05-28T06:43:54Z</time>
      </trkpt>
      <trkpt lat="43.34667" lon="2.44808">
        <ele>494</ele>
        <time>2023-05-28T06:43:55Z</time>
      </trkpt>
      <trkpt lat="43.34667" lon="2.44808">
        <ele>494</ele>
        <time>2023-05-28T06:43:56Z</time>
      </trkpt>
      <trkpt lat="43.34667" lon="2.44808">
        <ele>494</ele>
        <time>2023-05-28T06:43:57Z</time>
      </trkpt>
      <trkpt lat="43.34667" lon="2.44808">
        <ele>494</ele>
        <time>2023-05-28T06:43:58Z</time>
      </trkpt>
      <trkpt lat="43.34667" lon="2.44808">
        <ele>494</ele>
        <time>2023-05-28T06:43:59Z</time>
      </trkpt>
      <trkpt lat="43.34667" lon="2.44808">
        <ele>494</ele>
        <time>2023-05-28T06:44:00Z</time>
      </trkpt>
      <trkpt lat="43.34667" lon="2.44808">
        <ele>494</ele>
        <time>2023-05-28T06:44:01Z</time>
      </trkpt>
      <trkpt lat="43.34667" lon="2.44808">
        <ele>494</ele>
        <time>2023-05-28T06:44:02Z</time>
      </trkpt>
      <trkpt lat="43.34667" lon="2.44808">
        <ele>494</ele>
        <time>2023-05-28T06:44:03Z</time>
      </trkpt>
      <trkpt lat="43.34667" lon="2.44808">
        <ele>494</ele>
        <time>2023-05-28T06:44:04Z</time>
      </trkpt>
      <trkpt lat="43.34666" lon="2.44808">
        <ele>494.1</ele>
        <time>2023-05-28T06:44:05Z</time>
      </trkpt>
      <trkpt lat="43.34666" lon="2.44808">
        <ele>494.1</ele>
        <time>2023-05-28T06:44:06Z</time>
      </trkpt>
      <trkpt lat="43.34665" lon="2.44808">
        <ele>494.1</ele>
        <time>2023-05-28T06:44:07Z</time>
      </trkpt>
      <trkpt lat="43.34666" lon="2.44808">
        <ele>494.1</ele>
        <time>2023-05-28T06:44:08Z</time>
      </trkpt>
      <trkpt lat="43.34666" lon="2.44808">
        <ele>494.1</ele>
        <time>2023-05-28T06:44:09Z</time>
      </trkpt>
      <trkpt lat="43.34666" lon="2.44808">
        <ele>494.1</ele>
        <time>2023-05-28T06:44:10Z</time>
      </trkpt>
      <trkpt lat="43.34666" lon="2.44808">
        <ele>494.1</ele>
        <time>2023-05-28T06:44:11Z</time>
      </trkpt>
      <trkpt lat="43.34666" lon="2.44808">
        <ele>494.1</ele>
        <time>2023-05-28T06:44:12Z</time>
      </trkpt>
      <trkpt lat="43.34666" lon="2.44808">
        <ele>494.1</ele>
        <time>2023-05-28T06:44:13Z</time>
      </trkpt>
      <trkpt lat="43.34666" lon="2.44808">
        <ele>494.1</ele>
        <time>2023-05-28T06:44:14Z</time>
      </trkpt>
      <trkpt lat="43.34666" lon="2.44808">
        <ele>494.1</ele>
        <time>2023-05-28T06:44:15Z</time>
      </trkpt>
      <trkpt lat="43.34667" lon="2.44808">
        <ele>494.1</ele>
        <time>2023-05-28T06:44:16Z</time>
      </trkpt>
      <trkpt lat="43.34667" lon="2.44808">
        <ele>494.1</ele>
        <time>2023-05-28T06:44:17Z</time>
      </trkpt>
      <trkpt lat="43.34667" lon="2.44809">
        <ele>494.1</ele>
        <time>2023-05-28T06:44:18Z</time>
      </trkpt>
      <trkpt lat="43.34667" lon="2.44809">
        <ele>494.1</ele>
        <time>2023-05-28T06:44:19Z</time>
      </trkpt>
      <trkpt lat="43.34667" lon="2.44809">
        <ele>494.1</ele>
        <time>2023-05-28T06:44:20Z</time>
      </trkpt>
      <trkpt lat="43.34667" lon="2.44809">
        <ele>494.1</ele>
        <time>2023-05-28T06:44:21Z</time>
      </trkpt>
      <trkpt lat="43.34667" lon="2.44809">
        <ele>494.1</ele>
        <time>2023-05-28T06:44:22Z</time>
      </trkpt>
      <trkpt lat="43.34667" lon="2.44809">
        <ele>494.1</ele>
        <time>2023-05-28T06:44:23Z</time>
      </trkpt>
      <trkpt lat="43.34667" lon="2.44809">
        <ele>494.1</ele>
        <time>2023-05-28T06:44:24Z</time>
      </trkpt>
      <trkpt lat="43.34667" lon="2.44808">
        <ele>494.1</ele>
        <time>2023-05-28T06:44:25Z</time>
      </trkpt>
      <trkpt lat="43.34667" lon="2.44808">
        <ele>494.1</ele>
        <time>2023-05-28T06:44:26Z</time>
      </trkpt>
      <trkpt lat="43.34667" lon="2.44808">
        <ele>494.1</ele>
        <time>2023-05-28T06:44:27Z</time>
      </trkpt>
      <trkpt lat="43.34667" lon="2.44808">
        <ele>494.1</ele>
        <time>2023-05-28T06:44:28Z</time>
      </trkpt>
      <trkpt lat="43.34667" lon="2.44808">
        <ele>494.1</ele>
        <time>2023-05-28T06:44:29Z</time>
      </trkpt>
      <trkpt lat="43.34667" lon="2.44808">
        <ele>494.1</ele>
        <time>2023-05-28T06:44:30Z</time>
      </trkpt>
      <trkpt lat="43.34667" lon="2.44808">
        <ele>494.1</ele>
        <time>2023-05-28T06:44:31Z</time>
      </trkpt>
      <trkpt lat="43.34667" lon="2.44808">
        <ele>494.1</ele>
        <time>2023-05-28T06:44:32Z</time>
      </trkpt>
      <trkpt lat="43.34667" lon="2.44808">
        <ele>494.2</ele>
        <time>2023-05-28T06:44:33Z</time>
      </trkpt>
      <trkpt lat="43.34667" lon="2.44808">
        <ele>494.2</ele>
        <time>2023-05-28T06:44:34Z</time>
      </trkpt>
      <trkpt lat="43.34667" lon="2.44808">
        <ele>494.2</ele>
        <time>2023-05-28T06:44:35Z</time>
      </trkpt>
      <trkpt lat="43.34666" lon="2.44808">
        <ele>494.2</ele>
        <time>2023-05-28T06:44:36Z</time>
      </trkpt>
      <trkpt lat="43.34666" lon="2.44808">
        <ele>494.2</ele>
        <time>2023-05-28T06:44:37Z</time>
      </trkpt>
      <trkpt lat="43.34666" lon="2.44808">
        <ele>494.2</ele>
        <time>2023-05-28T06:44:38Z</time>
      </trkpt>
      <trkpt lat="43.34666" lon="2.44809">
        <ele>494.2</ele>
        <time>2023-05-28T06:44:39Z</time>
      </trkpt>
      <trkpt lat="43.34666" lon="2.44809">
        <ele>494.2</ele>
        <time>2023-05-28T06:44:40Z</time>
      </trkpt>
      <trkpt lat="43.34665" lon="2.44809">
        <ele>494.2</ele>
        <time>2023-05-28T06:44:41Z</time>
      </trkpt>
      <trkpt lat="43.34665" lon="2.44809">
        <ele>494.2</ele>
        <time>2023-05-28T06:44:42Z</time>
      </trkpt>
      <trkpt lat="43.34664" lon="2.44809">
        <ele>494.2</ele>
        <time>2023-05-28T06:44:43Z</time>
      </trkpt>
      <trkpt lat="43.34663" lon="2.44809">
        <ele>494.2</ele>
        <time>2023-05-28T06:44:44Z</time>
      </trkpt>
      <trkpt lat="43.34662" lon="2.4481">
        <ele>494.2</ele>
        <time>2023-05-28T06:44:45Z</time>
      </trkpt>
      <trkpt lat="43.34661" lon="2.44811">
        <ele>494.3</ele>
        <time>2023-05-28T06:44:46Z</time>
      </trkpt>
      <trkpt lat="43.34661" lon="2.44812">
        <ele>494.3</ele>
        <time>2023-05-28T06:44:47Z</time>
      </trkpt>
      <trkpt lat="43.34661" lon="2.44814">
        <ele>494.3</ele>
        <time>2023-05-28T06:44:48Z</time>
      </trkpt>
      <trkpt lat="43.34661" lon="2.44816">
        <ele>494.3</ele>
        <time>2023-05-28T06:44:49Z</time>
      </trkpt>
      <trkpt lat="43.3466" lon="2.4482">
        <ele>494.3</ele>
        <time>2023-05-28T06:44:50Z</time>
      </trkpt>
      <trkpt lat="43.3466" lon="2.44821">
        <ele>494.3</ele>
        <time>2023-05-28T06:44:51Z</time>
      </trkpt>
      <trkpt lat="43.34659" lon="2.44825">
        <ele>494.3</ele>
        <time>2023-05-28T06:44:52Z</time>
      </trkpt>
      <trkpt lat="43.34659" lon="2.44826">
        <ele>494.3</ele>
        <time>2023-05-28T06:44:53Z</time>
      </trkpt>
      <trkpt lat="43.34658" lon="2.4483">
        <ele>494.2</ele>
        <time>2023-05-28T06:44:54Z</time>
      </trkpt>
      <trkpt lat="43.34658" lon="2.44832">
        <ele>494.2</ele>
        <time>2023-05-28T06:44:55Z</time>
      </trkpt>
      <trkpt lat="43.34658" lon="2.44836">
        <ele>494.1</ele>
        <time>2023-05-28T06:44:56Z</time>
      </trkpt>
      <trkpt lat="43.34657" lon="2.44838">
        <ele>494.1</ele>
        <time>2023-05-28T06:44:57Z</time>
      </trkpt>
      <trkpt lat="43.34657" lon="2.44843">
        <ele>494</ele>
        <time>2023-05-28T06:44:58Z</time>
      </trkpt>
      <trkpt lat="43.34657" lon="2.44844">
        <ele>494</ele>
        <time>2023-05-28T06:44:59Z</time>
      </trkpt>
      <trkpt lat="43.34656" lon="2.44848">
        <ele>493.9</ele>
        <time>2023-05-28T06:45:00Z</time>
      </trkpt>
      <trkpt lat="43.34655" lon="2.44849">
        <ele>493.8</ele>
        <time>2023-05-28T06:45:01Z</time>
      </trkpt>
      <trkpt lat="43.34654" lon="2.44854">
        <ele>493.7</ele>
        <time>2023-05-28T06:45:02Z</time>
      </trkpt>
      <trkpt lat="43.34653" lon="2.44855">
        <ele>493.6</ele>
        <time>2023-05-28T06:45:03Z</time>
      </trkpt>
      <trkpt lat="43.34651" lon="2.44859">
        <ele>493.4</ele>
        <time>2023-05-28T06:45:04Z</time>
      </trkpt>
      <trkpt lat="43.34651" lon="2.4486">
        <ele>493.4</ele>
        <time>2023-05-28T06:45:05Z</time>
      </trkpt>
      <trkpt lat="43.34648" lon="2.44865">
        <ele>493.2</ele>
        <time>2023-05-28T06:45:06Z</time>
      </trkpt>
      <trkpt lat="43.34647" lon="2.44866">
        <ele>493.1</ele>
        <time>2023-05-28T06:45:07Z</time>
      </trkpt>
      <trkpt lat="43.34646" lon="2.4487">
        <ele>493</ele>
        <time>2023-05-28T06:45:08Z</time>
      </trkpt>
      <trkpt lat="43.34645" lon="2.44874">
        <ele>492.9</ele>
        <time>2023-05-28T06:45:09Z</time>
      </trkpt>
      <trkpt lat="43.34644" lon="2.44878">
        <ele>492.8</ele>
        <time>2023-05-28T06:45:10Z</time>
      </trkpt>
      <trkpt lat="43.34643" lon="2.44883">
        <ele>492.7</ele>
        <time>2023-05-28T06:45:11Z</time>
      </trkpt>
      <trkpt lat="43.34643" lon="2.44885">
        <ele>492.7</ele>
        <time>2023-05-28T06:45:12Z</time>
      </trkpt>
      <trkpt lat="43.34643" lon="2.4489">
        <ele>492.7</ele>
        <time>2023-05-28T06:45:13Z</time>
      </trkpt>
      <trkpt lat="43.34643" lon="2.44892">
        <ele>492.6</ele>
        <time>2023-05-28T06:45:14Z</time>
      </trkpt>
      <trkpt lat="43.34643" lon="2.44896">
        <ele>492.6</ele>
        <time>2023-05-28T06:45:15Z</time>
      </trkpt>
      <trkpt lat="43.34643" lon="2.44898">
        <ele>492.6</ele>
        <time>2023-05-28T06:45:16Z</time>
      </trkpt>
      <trkpt lat="43.34643" lon="2.44903">
        <ele>492.5</ele>
        <time>2023-05-28T06:45:17Z</time>
      </trkpt>
      <trkpt lat="43.34643" lon="2.44904">
        <ele>492.5</ele>
        <time>2023-05-28T06:45:18Z</time>
      </trkpt>
      <trkpt lat="43.34642" lon="2.44909">
        <ele>492.4</ele>
        <time>2023-05-28T06:45:19Z</time>
      </trkpt>
      <trkpt lat="43.34641" lon="2.4491">
        <ele>492.4</ele>
        <time>2023-05-28T06:45:20Z</time>
      </trkpt>
      <trkpt lat="43.34638" lon="2.44913">
        <ele>492.2</ele>
        <time>2023-05-28T06:45:21Z</time>
      </trkpt>
      <trkpt lat="43.34637" lon="2.44914">
        <ele>492.1</ele>
        <time>2023-05-28T06:45:22Z</time>
      </trkpt>
      <trkpt lat="43.34634" lon="2.44915">
        <ele>492</ele>
        <time>2023-05-28T06:45:23Z</time>
      </trkpt>
      <trkpt lat="43.34632" lon="2.44915">
        <ele>491.9</ele>
        <time>2023-05-28T06:45:24Z</time>
      </trkpt>
      <trkpt lat="43.34629" lon="2.44915">
        <ele>491.7</ele>
        <time>2023-05-28T06:45:25Z</time>
      </trkpt>
      <trkpt lat="43.34627" lon="2.44914">
        <ele>491.5</ele>
        <time>2023-05-28T06:45:26Z</time>
      </trkpt>
      <trkpt lat="43.34623" lon="2.44914">
        <ele>491.2</ele>
        <time>2023-05-28T06:45:27Z</time>
      </trkpt>
      <trkpt lat="43.34622" lon="2.44914">
        <ele>491.1</ele>
        <time>2023-05-28T06:45:28Z</time>
      </trkpt>
      <trkpt lat="43.3462" lon="2.44913">
        <ele>490.9</ele>
        <time>2023-05-28T06:45:29Z</time>
      </trkpt>
      <trkpt lat="43.34621" lon="2.44912">
        <ele>490.9</ele>
        <time>2023-05-28T06:45:30Z</time>
      </trkpt>
      <trkpt lat="43.34621" lon="2.44912">
        <ele>490.8</ele>
        <time>2023-05-28T06:45:31Z</time>
      </trkpt>
      <trkpt lat="43.34621" lon="2.44912">
        <ele>490.8</ele>
        <time>2023-05-28T06:45:32Z</time>
      </trkpt>
      <trkpt lat="43.34621" lon="2.44912">
        <ele>490.8</ele>
        <time>2023-05-28T06:45:33Z</time>
      </trkpt>
      <trkpt lat="43.34621" lon="2.44911">
        <ele>490.7</ele>
        <time>2023-05-28T06:45:34Z</time>
      </trkpt>
      <trkpt lat="43.34622" lon="2.44911">
        <ele>490.6</ele>
        <time>2023-05-28T06:45:35Z</time>
      </trkpt>
      <trkpt lat="43.34623" lon="2.4491">
        <ele>490.6</ele>
        <time>2023-05-28T06:45:36Z</time>
      </trkpt>
      <trkpt lat="43.34624" lon="2.4491">
        <ele>490.5</ele>
        <time>2023-05-28T06:45:37Z</time>
      </trkpt>
      <trkpt lat="43.34625" lon="2.4491">
        <ele>490.4</ele>
        <time>2023-05-28T06:45:38Z</time>
      </trkpt>
      <trkpt lat="43.34627" lon="2.4491">
        <ele>490.2</ele>
        <time>2023-05-28T06:45:39Z</time>
      </trkpt>
      <trkpt lat="43.34628" lon="2.4491">
        <ele>490</ele>
        <time>2023-05-28T06:45:40Z</time>
      </trkpt>
      <trkpt lat="43.34629" lon="2.4491">
        <ele>489.9</ele>
        <time>2023-05-28T06:45:41Z</time>
      </trkpt>
      <trkpt lat="43.34631" lon="2.4491">
        <ele>489.8</ele>
        <time>2023-05-28T06:45:42Z</time>
      </trkpt>
      <trkpt lat="43.34631" lon="2.4491">
        <ele>489.7</ele>
        <time>2023-05-28T06:45:43Z</time>
      </trkpt>
      <trkpt lat="43.34632" lon="2.4491">
        <ele>489.7</ele>
        <time>2023-05-28T06:45:44Z</time>
      </trkpt>
      <trkpt lat="43.34633" lon="2.4491">
        <ele>489.6</ele>
        <time>2023-05-28T06:45:45Z</time>
      </trkpt>
      <trkpt lat="43.34634" lon="2.44911">
        <ele>488.6</ele>
        <time>2023-05-28T06:45:46Z</time>
      </trkpt>
      <trkpt lat="43.34636" lon="2.44912">
        <ele>488.5</ele>
        <time>2023-05-28T06:45:47Z</time>
      </trkpt>
      <trkpt lat="43.34639" lon="2.44914">
        <ele>486.8</ele>
        <time>2023-05-28T06:45:48Z</time>
      </trkpt>
      <trkpt lat="43.34639" lon="2.44915">
        <ele>486.7</ele>
        <time>2023-05-28T06:45:49Z</time>
      </trkpt>
      <trkpt lat="43.34639" lon="2.44918">
        <ele>486</ele>
        <time>2023-05-28T06:45:50Z</time>
      </trkpt>
      <trkpt lat="43.34638" lon="2.44919">
        <ele>486</ele>
        <time>2023-05-28T06:45:51Z</time>
      </trkpt>
      <trkpt lat="43.34638" lon="2.44921">
        <ele>485.9</ele>
        <time>2023-05-28T06:45:52Z</time>
      </trkpt>
      <trkpt lat="43.34636" lon="2.44924">
        <ele>486.3</ele>
        <time>2023-05-28T06:45:53Z</time>
      </trkpt>
      <trkpt lat="43.34636" lon="2.44926">
        <ele>486.3</ele>
        <time>2023-05-28T06:45:54Z</time>
      </trkpt>
      <trkpt lat="43.34635" lon="2.44927">
        <ele>485.5</ele>
        <time>2023-05-28T06:45:55Z</time>
      </trkpt>
      <trkpt lat="43.34634" lon="2.44929">
        <ele>486.5</ele>
        <time>2023-05-28T06:45:56Z</time>
      </trkpt>
      <trkpt lat="43.34633" lon="2.44933">
        <ele>485.7</ele>
        <time>2023-05-28T06:45:57Z</time>
      </trkpt>
      <trkpt lat="43.34632" lon="2.44934">
        <ele>485.7</ele>
        <time>2023-05-28T06:45:58Z</time>
      </trkpt>
      <trkpt lat="43.34632" lon="2.44939">
        <ele>484.9</ele>
        <time>2023-05-28T06:45:59Z</time>
      </trkpt>
      <trkpt lat="43.34632" lon="2.4494">
        <ele>484</ele>
        <time>2023-05-28T06:46:00Z</time>
      </trkpt>
      <trkpt lat="43.34632" lon="2.44942">
        <ele>484</ele>
        <time>2023-05-28T06:46:01Z</time>
      </trkpt>
      <trkpt lat="43.34632" lon="2.44945">
        <ele>483.1</ele>
        <time>2023-05-28T06:46:02Z</time>
      </trkpt>
      <trkpt lat="43.34633" lon="2.4495">
        <ele>482.2</ele>
        <time>2023-05-28T06:46:03Z</time>
      </trkpt>
      <trkpt lat="43.34633" lon="2.44952">
        <ele>482.1</ele>
        <time>2023-05-28T06:46:04Z</time>
      </trkpt>
      <trkpt lat="43.34633" lon="2.44957">
        <ele>480.5</ele>
        <time>2023-05-28T06:46:05Z</time>
      </trkpt>
      <trkpt lat="43.34634" lon="2.44958">
        <ele>480.4</ele>
        <time>2023-05-28T06:46:06Z</time>
      </trkpt>
      <trkpt lat="43.34634" lon="2.44962">
        <ele>479.6</ele>
        <time>2023-05-28T06:46:07Z</time>
      </trkpt>
      <trkpt lat="43.34634" lon="2.44963">
        <ele>479.6</ele>
        <time>2023-05-28T06:46:08Z</time>
      </trkpt>
      <trkpt lat="43.34632" lon="2.44967">
        <ele>478.8</ele>
        <time>2023-05-28T06:46:09Z</time>
      </trkpt>
      <trkpt lat="43.34631" lon="2.44969">
        <ele>478.8</ele>
        <time>2023-05-28T06:46:10Z</time>
      </trkpt>
      <trkpt lat="43.34629" lon="2.44972">
        <ele>479</ele>
        <time>2023-05-28T06:46:11Z</time>
      </trkpt>
      <trkpt lat="43.34629" lon="2.44973">
        <ele>478.9</ele>
        <time>2023-05-28T06:46:12Z</time>
      </trkpt>
      <trkpt lat="43.34628" lon="2.44976">
        <ele>479</ele>
        <time>2023-05-28T06:46:13Z</time>
      </trkpt>
      <trkpt lat="43.34627" lon="2.44978">
        <ele>479</ele>
        <time>2023-05-28T06:46:14Z</time>
      </trkpt>
      <trkpt lat="43.34627" lon="2.4498">
        <ele>478.2</ele>
        <time>2023-05-28T06:46:15Z</time>
      </trkpt>
      <trkpt lat="43.34626" lon="2.44982">
        <ele>478.1</ele>
        <time>2023-05-28T06:46:16Z</time>
      </trkpt>
      <trkpt lat="43.34625" lon="2.44984">
        <ele>477.3</ele>
        <time>2023-05-28T06:46:17Z</time>
      </trkpt>
      <trkpt lat="43.34625" lon="2.44986">
        <ele>477.3</ele>
        <time>2023-05-28T06:46:18Z</time>
      </trkpt>
      <trkpt lat="43.34624" lon="2.4499">
        <ele>477.4</ele>
        <time>2023-05-28T06:46:19Z</time>
      </trkpt>
      <trkpt lat="43.34624" lon="2.44991">
        <ele>476.5</ele>
        <time>2023-05-28T06:46:20Z</time>
      </trkpt>
      <trkpt lat="43.34622" lon="2.44995">
        <ele>476.5</ele>
        <time>2023-05-28T06:46:21Z</time>
      </trkpt>
      <trkpt lat="43.34622" lon="2.44996">
        <ele>475.2</ele>
        <time>2023-05-28T06:46:22Z</time>
      </trkpt>
      <trkpt lat="43.3462" lon="2.45">
        <ele>475.5</ele>
        <time>2023-05-28T06:46:23Z</time>
      </trkpt>
      <trkpt lat="43.3462" lon="2.45001">
        <ele>475.5</ele>
        <time>2023-05-28T06:46:24Z</time>
      </trkpt>
      <trkpt lat="43.3462" lon="2.45005">
        <ele>474.8</ele>
        <time>2023-05-28T06:46:25Z</time>
      </trkpt>
      <trkpt lat="43.3462" lon="2.45006">
        <ele>474.7</ele>
        <time>2023-05-28T06:46:26Z</time>
      </trkpt>
      <trkpt lat="43.3462" lon="2.45009">
        <ele>474.1</ele>
        <time>2023-05-28T06:46:27Z</time>
      </trkpt>
      <trkpt lat="43.34621" lon="2.45011">
        <ele>474.1</ele>
        <time>2023-05-28T06:46:28Z</time>
      </trkpt>
      <trkpt lat="43.34621" lon="2.45013">
        <ele>473.4</ele>
        <time>2023-05-28T06:46:29Z</time>
      </trkpt>
      <trkpt lat="43.34621" lon="2.45014">
        <ele>473.4</ele>
        <time>2023-05-28T06:46:30Z</time>
      </trkpt>
      <trkpt lat="43.34622" lon="2.45014">
        <ele>472.3</ele>
        <time>2023-05-28T06:46:31Z</time>
      </trkpt>
      <trkpt lat="43.34622" lon="2.45013">
        <ele>472.2</ele>
        <time>2023-05-28T06:46:32Z</time>
      </trkpt>
      <trkpt lat="43.34623" lon="2.45012">
        <ele>472.8</ele>
        <time>2023-05-28T06:46:33Z</time>
      </trkpt>
      <trkpt lat="43.34623" lon="2.45012">
        <ele>472.8</ele>
        <time>2023-05-28T06:46:34Z</time>
      </trkpt>
      <trkpt lat="43.34623" lon="2.45011">
        <ele>472.8</ele>
        <time>2023-05-28T06:46:35Z</time>
      </trkpt>
      <trkpt lat="43.34623" lon="2.45011">
        <ele>472.7</ele>
        <time>2023-05-28T06:46:36Z</time>
      </trkpt>
      <trkpt lat="43.34623" lon="2.45011">
        <ele>472.7</ele>
        <time>2023-05-28T06:46:37Z</time>
      </trkpt>
      <trkpt lat="43.34623" lon="2.45011">
        <ele>472.7</ele>
        <time>2023-05-28T06:46:38Z</time>
      </trkpt>
      <trkpt lat="43.34623" lon="2.45012">
        <ele>472.6</ele>
        <time>2023-05-28T06:46:39Z</time>
      </trkpt>
      <trkpt lat="43.34624" lon="2.45013">
        <ele>472</ele>
        <time>2023-05-28T06:46:40Z</time>
      </trkpt>
      <trkpt lat="43.34624" lon="2.45013">
        <ele>472</ele>
        <time>2023-05-28T06:46:41Z</time>
      </trkpt>
      <trkpt lat="43.34625" lon="2.45014">
        <ele>470.8</ele>
        <time>2023-05-28T06:46:42Z</time>
      </trkpt>
      <trkpt lat="43.34625" lon="2.45014">
        <ele>470.8</ele>
        <time>2023-05-28T06:46:43Z</time>
      </trkpt>
      <trkpt lat="43.34625" lon="2.45014">
        <ele>470.8</ele>
        <time>2023-05-28T06:46:44Z</time>
      </trkpt>
      <trkpt lat="43.34625" lon="2.45014">
        <ele>470.7</ele>
        <time>2023-05-28T06:46:45Z</time>
      </trkpt>
      <trkpt lat="43.34625" lon="2.45014">
        <ele>470.7</ele>
        <time>2023-05-28T06:46:46Z</time>
      </trkpt>
      <trkpt lat="43.34625" lon="2.45014">
        <ele>470.7</ele>
        <time>2023-05-28T06:46:47Z</time>
      </trkpt>
      <trkpt lat="43.34625" lon="2.45014">
        <ele>470.7</ele>
        <time>2023-05-28T06:46:48Z</time>
      </trkpt>
      <trkpt lat="43.34625" lon="2.45014">
        <ele>470.6</ele>
        <time>2023-05-28T06:46:49Z</time>
      </trkpt>
      <trkpt lat="43.34625" lon="2.45014">
        <ele>470.6</ele>
        <time>2023-05-28T06:46:50Z</time>
      </trkpt>
      <trkpt lat="43.34625" lon="2.45014">
        <ele>470.6</ele>
        <time>2023-05-28T06:46:51Z</time>
      </trkpt>
      <trkpt lat="43.34625" lon="2.45015">
        <ele>470.5</ele>
        <time>2023-05-28T06:46:52Z</time>
      </trkpt>
      <trkpt lat="43.34625" lon="2.45015">
        <ele>470.5</ele>
        <time>2023-05-28T06:46:53Z</time>
      </trkpt>
      <trkpt lat="43.34625" lon="2.45015">
        <ele>470.5</ele>
        <time>2023-05-28T06:46:54Z</time>
      </trkpt>
      <trkpt lat="43.34625" lon="2.45016">
        <ele>470.5</ele>
        <time>2023-05-28T06:46:55Z</time>
      </trkpt>
      <trkpt lat="43.34625" lon="2.45016">
        <ele>470.4</ele>
        <time>2023-05-28T06:46:56Z</time>
      </trkpt>
      <trkpt lat="43.34626" lon="2.45016">
        <ele>470.4</ele>
        <time>2023-05-28T06:46:57Z</time>
      </trkpt>
      <trkpt lat="43.34626" lon="2.45016">
        <ele>470.4</ele>
        <time>2023-05-28T06:46:58Z</time>
      </trkpt>
      <trkpt lat="43.34626" lon="2.45016">
        <ele>470.3</ele>
        <time>2023-05-28T06:46:59Z</time>
      </trkpt>
      <trkpt lat="43.34626" lon="2.45016">
        <ele>470.3</ele>
        <time>2023-05-28T06:47:00Z</time>
      </trkpt>
      <trkpt lat="43.34626" lon="2.45017">
        <ele>469.6</ele>
        <time>2023-05-28T06:47:01Z</time>
      </trkpt>
      <trkpt lat="43.34626" lon="2.45017">
        <ele>469.6</ele>
        <time>2023-05-28T06:47:02Z</time>
      </trkpt>
      <trkpt lat="43.34626" lon="2.45016">
        <ele>470.2</ele>
        <time>2023-05-28T06:47:03Z</time>
      </trkpt>
      <trkpt lat="43.34626" lon="2.45015">
        <ele>470.2</ele>
        <time>2023-05-28T06:47:04Z</time>
      </trkpt>
      <trkpt lat="43.34625" lon="2.45015">
        <ele>470.2</ele>
        <time>2023-05-28T06:47:05Z</time>
      </trkpt>
      <trkpt lat="43.34625" lon="2.45015">
        <ele>470.1</ele>
        <time>2023-05-28T06:47:06Z</time>
      </trkpt>
      <trkpt lat="43.34625" lon="2.45014">
        <ele>471.2</ele>
        <time>2023-05-28T06:47:07Z</time>
      </trkpt>
      <trkpt lat="43.34625" lon="2.45014">
        <ele>471.2</ele>
        <time>2023-05-28T06:47:08Z</time>
      </trkpt>
      <trkpt lat="43.34624" lon="2.45014">
        <ele>471.2</ele>
        <time>2023-05-28T06:47:09Z</time>
      </trkpt>
      <trkpt lat="43.34624" lon="2.45014">
        <ele>471.1</ele>
        <time>2023-05-28T06:47:10Z</time>
      </trkpt>
      <trkpt lat="43.34624" lon="2.45014">
        <ele>471.1</ele>
        <time>2023-05-28T06:47:11Z</time>
      </trkpt>
      <trkpt lat="43.34623" lon="2.45014">
        <ele>471.1</ele>
        <time>2023-05-28T06:47:12Z</time>
      </trkpt>
      <trkpt lat="43.34623" lon="2.45013">
        <ele>471.1</ele>
        <time>2023-05-28T06:47:13Z</time>
      </trkpt>
      <trkpt lat="43.34623" lon="2.45013">
        <ele>471</ele>
        <time>2023-05-28T06:47:14Z</time>
      </trkpt>
      <trkpt lat="43.34622" lon="2.45013">
        <ele>471</ele>
        <time>2023-05-28T06:47:15Z</time>
      </trkpt>
      <trkpt lat="43.34621" lon="2.45012">
        <ele>472.1</ele>
        <time>2023-05-28T06:47:16Z</time>
      </trkpt>
      <trkpt lat="43.3462" lon="2.45013">
        <ele>472.1</ele>
        <time>2023-05-28T06:47:17Z</time>
      </trkpt>
      <trkpt lat="43.3462" lon="2.45014">
        <ele>472</ele>
        <time>2023-05-28T06:47:18Z</time>
      </trkpt>
      <trkpt lat="43.3462" lon="2.45016">
        <ele>472</ele>
        <time>2023-05-28T06:47:19Z</time>
      </trkpt>
      <trkpt lat="43.3462" lon="2.45017">
        <ele>471.4</ele>
        <time>2023-05-28T06:47:20Z</time>
      </trkpt>
      <trkpt lat="43.34619" lon="2.45019">
        <ele>471.3</ele>
        <time>2023-05-28T06:47:21Z</time>
      </trkpt>
      <trkpt lat="43.34619" lon="2.4502">
        <ele>471.3</ele>
        <time>2023-05-28T06:47:22Z</time>
      </trkpt>
      <trkpt lat="43.34618" lon="2.45022">
        <ele>471.8</ele>
        <time>2023-05-28T06:47:23Z</time>
      </trkpt>
      <trkpt lat="43.34617" lon="2.45024">
        <ele>471.8</ele>
        <time>2023-05-28T06:47:24Z</time>
      </trkpt>
      <trkpt lat="43.34616" lon="2.45026">
        <ele>471.1</ele>
        <time>2023-05-28T06:47:25Z</time>
      </trkpt>
      <trkpt lat="43.34615" lon="2.45028">
        <ele>472.3</ele>
        <time>2023-05-28T06:47:26Z</time>
      </trkpt>
      <trkpt lat="43.34614" lon="2.4503">
        <ele>471.7</ele>
        <time>2023-05-28T06:47:27Z</time>
      </trkpt>
      <trkpt lat="43.34612" lon="2.45031">
        <ele>471.6</ele>
        <time>2023-05-28T06:47:28Z</time>
      </trkpt>
      <trkpt lat="43.3461" lon="2.45033">
        <ele>472.7</ele>
        <time>2023-05-28T06:47:29Z</time>
      </trkpt>
      <trkpt lat="43.34607" lon="2.45034">
        <ele>473.1</ele>
        <time>2023-05-28T06:47:30Z</time>
      </trkpt>
      <trkpt lat="43.34606" lon="2.45034">
        <ele>474</ele>
        <time>2023-05-28T06:47:31Z</time>
      </trkpt>
      <trkpt lat="43.34603" lon="2.45035">
        <ele>474.7</ele>
        <time>2023-05-28T06:47:32Z</time>
      </trkpt>
      <trkpt lat="43.34602" lon="2.45036">
        <ele>474.7</ele>
        <time>2023-05-28T06:47:33Z</time>
      </trkpt>
      <trkpt lat="43.34599" lon="2.45037">
        <ele>475.4</ele>
        <time>2023-05-28T06:47:34Z</time>
      </trkpt>
      <trkpt lat="43.34598" lon="2.45038">
        <ele>475.3</ele>
        <time>2023-05-28T06:47:35Z</time>
      </trkpt>
      <trkpt lat="43.34595" lon="2.4504">
        <ele>475.5</ele>
        <time>2023-05-28T06:47:36Z</time>
      </trkpt>
      <trkpt lat="43.34595" lon="2.45041">
        <ele>475.5</ele>
        <time>2023-05-28T06:47:37Z</time>
      </trkpt>
      <trkpt lat="43.34593" lon="2.45042">
        <ele>476</ele>
        <time>2023-05-28T06:47:38Z</time>
      </trkpt>
      <trkpt lat="43.34592" lon="2.45043">
        <ele>475.6</ele>
        <time>2023-05-28T06:47:39Z</time>
      </trkpt>
      <trkpt lat="43.34591" lon="2.45044">
        <ele>475.5</ele>
        <time>2023-05-28T06:47:40Z</time>
      </trkpt>
      <trkpt lat="43.3459" lon="2.45045">
        <ele>476</ele>
        <time>2023-05-28T06:47:41Z</time>
      </trkpt>
      <trkpt lat="43.34588" lon="2.45046">
        <ele>476</ele>
        <time>2023-05-28T06:47:42Z</time>
      </trkpt>
      <trkpt lat="43.34585" lon="2.45048">
        <ele>476</ele>
        <time>2023-05-28T06:47:43Z</time>
      </trkpt>
      <trkpt lat="43.34584" lon="2.45048">
        <ele>476.3</ele>
        <time>2023-05-28T06:47:44Z</time>
      </trkpt>
      <trkpt lat="43.34581" lon="2.4505">
        <ele>476.3</ele>
        <time>2023-05-28T06:47:45Z</time>
      </trkpt>
      <trkpt lat="43.34578" lon="2.45051">
        <ele>476.6</ele>
        <time>2023-05-28T06:47:46Z</time>
      </trkpt>
      <trkpt lat="43.34576" lon="2.45051">
        <ele>476.2</ele>
        <time>2023-05-28T06:47:47Z</time>
      </trkpt>
      <trkpt lat="43.34574" lon="2.45053">
        <ele>476.2</ele>
        <time>2023-05-28T06:47:48Z</time>
      </trkpt>
      <trkpt lat="43.34573" lon="2.45053">
        <ele>476.2</ele>
        <time>2023-05-28T06:47:49Z</time>
      </trkpt>
      <trkpt lat="43.34571" lon="2.45055">
        <ele>476.1</ele>
        <time>2023-05-28T06:47:50Z</time>
      </trkpt>
      <trkpt lat="43.3457" lon="2.45055">
        <ele>476.1</ele>
        <time>2023-05-28T06:47:51Z</time>
      </trkpt>
      <trkpt lat="43.34567" lon="2.45055">
        <ele>476</ele>
        <time>2023-05-28T06:47:52Z</time>
      </trkpt>
      <trkpt lat="43.34566" lon="2.45055">
        <ele>476</ele>
        <time>2023-05-28T06:47:53Z</time>
      </trkpt>
      <trkpt lat="43.34562" lon="2.45054">
        <ele>475.6</ele>
        <time>2023-05-28T06:47:54Z</time>
      </trkpt>
      <trkpt lat="43.34561" lon="2.45054">
        <ele>475.5</ele>
        <time>2023-05-28T06:47:55Z</time>
      </trkpt>
      <trkpt lat="43.34557" lon="2.45053">
        <ele>475.2</ele>
        <time>2023-05-28T06:47:56Z</time>
      </trkpt>
      <trkpt lat="43.34556" lon="2.45052">
        <ele>475.2</ele>
        <time>2023-05-28T06:47:57Z</time>
      </trkpt>
      <trkpt lat="43.34554" lon="2.45052">
        <ele>474.8</ele>
        <time>2023-05-28T06:47:58Z</time>
      </trkpt>
      <trkpt lat="43.34553" lon="2.45052">
        <ele>474.8</ele>
        <time>2023-05-28T06:47:59Z</time>
      </trkpt>
      <trkpt lat="43.34552" lon="2.45052">
        <ele>474.4</ele>
        <time>2023-05-28T06:48:00Z</time>
      </trkpt>
      <trkpt lat="43.34549" lon="2.45054">
        <ele>474</ele>
        <time>2023-05-28T06:48:01Z</time>
      </trkpt>
      <trkpt lat="43.34548" lon="2.45054">
        <ele>474</ele>
        <time>2023-05-28T06:48:02Z</time>
      </trkpt>
      <trkpt lat="43.34546" lon="2.45056">
        <ele>472.9</ele>
        <time>2023-05-28T06:48:03Z</time>
      </trkpt>
      <trkpt lat="43.34545" lon="2.45057">
        <ele>472.9</ele>
        <time>2023-05-28T06:48:04Z</time>
      </trkpt>
      <trkpt lat="43.34543" lon="2.4506">
        <ele>471.8</ele>
        <time>2023-05-28T06:48:05Z</time>
      </trkpt>
      <trkpt lat="43.34543" lon="2.45061">
        <ele>471.8</ele>
        <time>2023-05-28T06:48:06Z</time>
      </trkpt>
      <trkpt lat="43.34542" lon="2.45065">
        <ele>471.1</ele>
        <time>2023-05-28T06:48:07Z</time>
      </trkpt>
      <trkpt lat="43.34542" lon="2.45066">
        <ele>471.1</ele>
        <time>2023-05-28T06:48:08Z</time>
      </trkpt>
      <trkpt lat="43.34541" lon="2.4507">
        <ele>470.5</ele>
        <time>2023-05-28T06:48:09Z</time>
      </trkpt>
      <trkpt lat="43.34541" lon="2.45071">
        <ele>470.4</ele>
        <time>2023-05-28T06:48:10Z</time>
      </trkpt>
      <trkpt lat="43.3454" lon="2.45072">
        <ele>469.9</ele>
        <time>2023-05-28T06:48:11Z</time>
      </trkpt>
      <trkpt lat="43.34538" lon="2.45073">
        <ele>469.3</ele>
        <time>2023-05-28T06:48:12Z</time>
      </trkpt>
      <trkpt lat="43.34537" lon="2.45074">
        <ele>468.7</ele>
        <time>2023-05-28T06:48:13Z</time>
      </trkpt>
      <trkpt lat="43.34535" lon="2.45075">
        <ele>468.7</ele>
        <time>2023-05-28T06:48:14Z</time>
      </trkpt>
      <trkpt lat="43.34534" lon="2.45075">
        <ele>468.2</ele>
        <time>2023-05-28T06:48:15Z</time>
      </trkpt>
      <trkpt lat="43.34533" lon="2.45075">
        <ele>468.1</ele>
        <time>2023-05-28T06:48:16Z</time>
      </trkpt>
      <trkpt lat="43.3453" lon="2.45076">
        <ele>467.5</ele>
        <time>2023-05-28T06:48:17Z</time>
      </trkpt>
      <trkpt lat="43.34529" lon="2.45077">
        <ele>466.8</ele>
        <time>2023-05-28T06:48:18Z</time>
      </trkpt>
      <trkpt lat="43.34528" lon="2.45078">
        <ele>466.8</ele>
        <time>2023-05-28T06:48:19Z</time>
      </trkpt>
      <trkpt lat="43.34527" lon="2.45079">
        <ele>466.2</ele>
        <time>2023-05-28T06:48:20Z</time>
      </trkpt>
      <trkpt lat="43.34526" lon="2.4508">
        <ele>466.1</ele>
        <time>2023-05-28T06:48:21Z</time>
      </trkpt>
      <trkpt lat="43.34526" lon="2.45081">
        <ele>466.1</ele>
        <time>2023-05-28T06:48:22Z</time>
      </trkpt>
      <trkpt lat="43.34526" lon="2.45083">
        <ele>465.4</ele>
        <time>2023-05-28T06:48:23Z</time>
      </trkpt>
      <trkpt lat="43.34526" lon="2.45085">
        <ele>465.4</ele>
        <time>2023-05-28T06:48:24Z</time>
      </trkpt>
      <trkpt lat="43.34526" lon="2.45087">
        <ele>464.7</ele>
        <time>2023-05-28T06:48:25Z</time>
      </trkpt>
      <trkpt lat="43.34526" lon="2.45089">
        <ele>464.6</ele>
        <time>2023-05-28T06:48:26Z</time>
      </trkpt>
      <trkpt lat="43.34527" lon="2.45092">
        <ele>463.9</ele>
        <time>2023-05-28T06:48:27Z</time>
      </trkpt>
      <trkpt lat="43.34527" lon="2.45094">
        <ele>463.9</ele>
        <time>2023-05-28T06:48:28Z</time>
      </trkpt>
      <trkpt lat="43.34527" lon="2.45096">
        <ele>463.2</ele>
        <time>2023-05-28T06:48:29Z</time>
      </trkpt>
      <trkpt lat="43.34527" lon="2.45098">
        <ele>463.2</ele>
        <time>2023-05-28T06:48:30Z</time>
      </trkpt>
      <trkpt lat="43.34527" lon="2.45099">
        <ele>462.5</ele>
        <time>2023-05-28T06:48:31Z</time>
      </trkpt>
      <trkpt lat="43.34527" lon="2.45101">
        <ele>462.5</ele>
        <time>2023-05-28T06:48:32Z</time>
      </trkpt>
      <trkpt lat="43.34527" lon="2.45103">
        <ele>461.7</ele>
        <time>2023-05-28T06:48:33Z</time>
      </trkpt>
      <trkpt lat="43.34528" lon="2.45105">
        <ele>461.7</ele>
        <time>2023-05-28T06:48:34Z</time>
      </trkpt>
      <trkpt lat="43.34528" lon="2.45107">
        <ele>461.4</ele>
        <time>2023-05-28T06:48:35Z</time>
      </trkpt>
      <trkpt lat="43.3453" lon="2.45111">
        <ele>461.4</ele>
        <time>2023-05-28T06:48:36Z</time>
      </trkpt>
      <trkpt lat="43.34531" lon="2.45112">
        <ele>460.5</ele>
        <time>2023-05-28T06:48:37Z</time>
      </trkpt>
      <trkpt lat="43.34532" lon="2.45115">
        <ele>461</ele>
        <time>2023-05-28T06:48:38Z</time>
      </trkpt>
      <trkpt lat="43.34532" lon="2.45116">
        <ele>460</ele>
        <time>2023-05-28T06:48:39Z</time>
      </trkpt>
      <trkpt lat="43.34532" lon="2.45118">
        <ele>460</ele>
        <time>2023-05-28T06:48:40Z</time>
      </trkpt>
      <trkpt lat="43.34534" lon="2.45121">
        <ele>458.9</ele>
        <time>2023-05-28T06:48:41Z</time>
      </trkpt>
      <trkpt lat="43.34535" lon="2.45123">
        <ele>459.5</ele>
        <time>2023-05-28T06:48:42Z</time>
      </trkpt>
      <trkpt lat="43.34538" lon="2.45126">
        <ele>458.8</ele>
        <time>2023-05-28T06:48:43Z</time>
      </trkpt>
      <trkpt lat="43.34539" lon="2.45127">
        <ele>458.8</ele>
        <time>2023-05-28T06:48:44Z</time>
      </trkpt>
      <trkpt lat="43.34541" lon="2.45129">
        <ele>458.2</ele>
        <time>2023-05-28T06:48:45Z</time>
      </trkpt>
      <trkpt lat="43.34544" lon="2.4513">
        <ele>458.5</ele>
        <time>2023-05-28T06:48:46Z</time>
      </trkpt>
      <trkpt lat="43.34547" lon="2.45133">
        <ele>457.8</ele>
        <time>2023-05-28T06:48:47Z</time>
      </trkpt>
      <trkpt lat="43.34548" lon="2.45133">
        <ele>457.8</ele>
        <time>2023-05-28T06:48:48Z</time>
      </trkpt>
      <trkpt lat="43.3455" lon="2.45135">
        <ele>458.2</ele>
        <time>2023-05-28T06:48:49Z</time>
      </trkpt>
      <trkpt lat="43.34551" lon="2.45135">
        <ele>458.1</ele>
        <time>2023-05-28T06:48:50Z</time>
      </trkpt>
      <trkpt lat="43.34552" lon="2.45136">
        <ele>458.1</ele>
        <time>2023-05-28T06:48:51Z</time>
      </trkpt>
      <trkpt lat="43.34555" lon="2.45138">
        <ele>457.4</ele>
        <time>2023-05-28T06:48:52Z</time>
      </trkpt>
      <trkpt lat="43.34556" lon="2.45139">
        <ele>457.7</ele>
        <time>2023-05-28T06:48:53Z</time>
      </trkpt>
      <trkpt lat="43.3456" lon="2.4514">
        <ele>458</ele>
        <time>2023-05-28T06:48:54Z</time>
      </trkpt>
      <trkpt lat="43.34562" lon="2.4514">
        <ele>458</ele>
        <time>2023-05-28T06:48:55Z</time>
      </trkpt>
      <trkpt lat="43.34563" lon="2.4514">
        <ele>458.2</ele>
        <time>2023-05-28T06:48:56Z</time>
      </trkpt>
      <trkpt lat="43.34564" lon="2.45141">
        <ele>458.1</ele>
        <time>2023-05-28T06:48:57Z</time>
      </trkpt>
      <trkpt lat="43.34565" lon="2.45143">
        <ele>457.1</ele>
        <time>2023-05-28T06:48:58Z</time>
      </trkpt>
      <trkpt lat="43.34565" lon="2.45145">
        <ele>457.1</ele>
        <time>2023-05-28T06:48:59Z</time>
      </trkpt>
      <trkpt lat="43.34566" lon="2.45146">
        <ele>456.3</ele>
        <time>2023-05-28T06:49:00Z</time>
      </trkpt>
      <trkpt lat="43.3457" lon="2.45146">
        <ele>456.4</ele>
        <time>2023-05-28T06:49:01Z</time>
      </trkpt>
      <trkpt lat="43.34574" lon="2.45145">
        <ele>457.3</ele>
        <time>2023-05-28T06:49:02Z</time>
      </trkpt>
      <trkpt lat="43.34577" lon="2.45145">
        <ele>457.3</ele>
        <time>2023-05-28T06:49:03Z</time>
      </trkpt>
      <trkpt lat="43.3458" lon="2.45145">
        <ele>457.1</ele>
        <time>2023-05-28T06:49:04Z</time>
      </trkpt>
      <trkpt lat="43.34584" lon="2.45146">
        <ele>456</ele>
        <time>2023-05-28T06:49:05Z</time>
      </trkpt>
      <trkpt lat="43.34587" lon="2.45147">
        <ele>455.7</ele>
        <time>2023-05-28T06:49:06Z</time>
      </trkpt>
      <trkpt lat="43.3459" lon="2.45149">
        <ele>455.3</ele>
        <time>2023-05-28T06:49:07Z</time>
      </trkpt>
      <trkpt lat="43.34593" lon="2.45151">
        <ele>453.9</ele>
        <time>2023-05-28T06:49:08Z</time>
      </trkpt>
      <trkpt lat="43.34597" lon="2.45156">
        <ele>452.5</ele>
        <time>2023-05-28T06:49:09Z</time>
      </trkpt>
      <trkpt lat="43.34598" lon="2.45158">
        <ele>451.9</ele>
        <time>2023-05-28T06:49:10Z</time>
      </trkpt>
      <trkpt lat="43.34599" lon="2.45159">
        <ele>450.9</ele>
        <time>2023-05-28T06:49:11Z</time>
      </trkpt>
      <trkpt lat="43.34601" lon="2.45163">
        <ele>449.3</ele>
        <time>2023-05-28T06:49:12Z</time>
      </trkpt>
      <trkpt lat="43.34602" lon="2.45164">
        <ele>449.2</ele>
        <time>2023-05-28T06:49:13Z</time>
      </trkpt>
      <trkpt lat="43.34603" lon="2.45166">
        <ele>449.2</ele>
        <time>2023-05-28T06:49:14Z</time>
      </trkpt>
      <trkpt lat="43.34603" lon="2.45168">
        <ele>448.1</ele>
        <time>2023-05-28T06:49:15Z</time>
      </trkpt>
      <trkpt lat="43.34603" lon="2.4517">
        <ele>447.5</ele>
        <time>2023-05-28T06:49:16Z</time>
      </trkpt>
      <trkpt lat="43.34604" lon="2.45171">
        <ele>447.5</ele>
        <time>2023-05-28T06:49:17Z</time>
      </trkpt>
      <trkpt lat="43.34604" lon="2.45172">
        <ele>446.4</ele>
        <time>2023-05-28T06:49:18Z</time>
      </trkpt>
      <trkpt lat="43.34604" lon="2.45173">
        <ele>446.3</ele>
        <time>2023-05-28T06:49:19Z</time>
      </trkpt>
      <trkpt lat="43.34604" lon="2.45173">
        <ele>446.3</ele>
        <time>2023-05-28T06:49:20Z</time>
      </trkpt>
      <trkpt lat="43.34604" lon="2.45174">
        <ele>446.3</ele>
        <time>2023-05-28T06:49:21Z</time>
      </trkpt>
      <trkpt lat="43.34604" lon="2.45174">
        <ele>446.3</ele>
        <time>2023-05-28T06:49:22Z</time>
      </trkpt>
      <trkpt lat="43.34604" lon="2.45175">
        <ele>446.2</ele>
        <time>2023-05-28T06:49:23Z</time>
      </trkpt>
      <trkpt lat="43.34604" lon="2.45175">
        <ele>446.2</ele>
        <time>2023-05-28T06:49:24Z</time>
      </trkpt>
      <trkpt lat="43.34604" lon="2.45176">
        <ele>445.1</ele>
        <time>2023-05-28T06:49:25Z</time>
      </trkpt>
      <trkpt lat="43.34604" lon="2.45176">
        <ele>445.1</ele>
        <time>2023-05-28T06:49:26Z</time>
      </trkpt>
      <trkpt lat="43.34604" lon="2.45177">
        <ele>445.1</ele>
        <time>2023-05-28T06:49:27Z</time>
      </trkpt>
      <trkpt lat="43.34604" lon="2.45177">
        <ele>445</ele>
        <time>2023-05-28T06:49:28Z</time>
      </trkpt>
      <trkpt lat="43.34604" lon="2.45177">
        <ele>445</ele>
        <time>2023-05-28T06:49:29Z</time>
      </trkpt>
      <trkpt lat="43.34604" lon="2.45177">
        <ele>445</ele>
        <time>2023-05-28T06:49:30Z</time>
      </trkpt>
      <trkpt lat="43.34604" lon="2.45178">
        <ele>445</ele>
        <time>2023-05-28T06:49:31Z</time>
      </trkpt>
      <trkpt lat="43.34604" lon="2.45178">
        <ele>444.9</ele>
        <time>2023-05-28T06:49:32Z</time>
      </trkpt>
      <trkpt lat="43.34604" lon="2.45178">
        <ele>444.9</ele>
        <time>2023-05-28T06:49:33Z</time>
      </trkpt>
      <trkpt lat="43.34604" lon="2.45178">
        <ele>444.9</ele>
        <time>2023-05-28T06:49:34Z</time>
      </trkpt>
      <trkpt lat="43.34604" lon="2.45179">
        <ele>444.8</ele>
        <time>2023-05-28T06:49:35Z</time>
      </trkpt>
      <trkpt lat="43.34604" lon="2.45179">
        <ele>444.8</ele>
        <time>2023-05-28T06:49:36Z</time>
      </trkpt>
      <trkpt lat="43.34604" lon="2.45179">
        <ele>444.8</ele>
        <time>2023-05-28T06:49:37Z</time>
      </trkpt>
      <trkpt lat="43.34604" lon="2.45179">
        <ele>444.8</ele>
        <time>2023-05-28T06:49:38Z</time>
      </trkpt>
      <trkpt lat="43.34604" lon="2.4518">
        <ele>443.7</ele>
        <time>2023-05-28T06:49:39Z</time>
      </trkpt>
      <trkpt lat="43.34604" lon="2.4518">
        <ele>443.7</ele>
        <time>2023-05-28T06:49:40Z</time>
      </trkpt>
      <trkpt lat="43.34604" lon="2.4518">
        <ele>443.7</ele>
        <time>2023-05-28T06:49:41Z</time>
      </trkpt>
      <trkpt lat="43.34604" lon="2.4518">
        <ele>443.6</ele>
        <time>2023-05-28T06:49:42Z</time>
      </trkpt>
      <trkpt lat="43.34604" lon="2.45181">
        <ele>443.6</ele>
        <time>2023-05-28T06:49:43Z</time>
      </trkpt>
      <trkpt lat="43.34604" lon="2.45181">
        <ele>443.6</ele>
        <time>2023-05-28T06:49:44Z</time>
      </trkpt>
      <trkpt lat="43.34605" lon="2.45185">
        <ele>442.5</ele>
        <time>2023-05-28T06:49:45Z</time>
      </trkpt>
      <trkpt lat="43.34605" lon="2.45186">
        <ele>442.5</ele>
        <time>2023-05-28T06:49:46Z</time>
      </trkpt>
      <trkpt lat="43.34606" lon="2.45191">
        <ele>441.5</ele>
        <time>2023-05-28T06:49:47Z</time>
      </trkpt>
      <trkpt lat="43.34606" lon="2.45192">
        <ele>441.4</ele>
        <time>2023-05-28T06:49:48Z</time>
      </trkpt>
      <trkpt lat="43.34606" lon="2.45195">
        <ele>440.3</ele>
        <time>2023-05-28T06:49:49Z</time>
      </trkpt>
      <trkpt lat="43.34606" lon="2.45197">
        <ele>439.7</ele>
        <time>2023-05-28T06:49:50Z</time>
      </trkpt>
      <trkpt lat="43.34606" lon="2.45199">
        <ele>439.1</ele>
        <time>2023-05-28T06:49:51Z</time>
      </trkpt>
      <trkpt lat="43.34606" lon="2.45201">
        <ele>439.1</ele>
        <time>2023-05-28T06:49:52Z</time>
      </trkpt>
      <trkpt lat="43.34605" lon="2.45203">
        <ele>437.8</ele>
        <time>2023-05-28T06:49:53Z</time>
      </trkpt>
      <trkpt lat="43.34605" lon="2.45205">
        <ele>437.8</ele>
        <time>2023-05-28T06:49:54Z</time>
      </trkpt>
      <trkpt lat="43.34605" lon="2.4521">
        <ele>436.5</ele>
        <time>2023-05-28T06:49:55Z</time>
      </trkpt>
      <trkpt lat="43.34605" lon="2.45211">
        <ele>435.2</ele>
        <time>2023-05-28T06:49:56Z</time>
      </trkpt>
      <trkpt lat="43.34605" lon="2.45215">
        <ele>433.8</ele>
        <time>2023-05-28T06:49:57Z</time>
      </trkpt>
      <trkpt lat="43.34605" lon="2.45219">
        <ele>432.4</ele>
        <time>2023-05-28T06:49:58Z</time>
      </trkpt>
      <trkpt lat="43.34605" lon="2.45223">
        <ele>431.1</ele>
        <time>2023-05-28T06:49:59Z</time>
      </trkpt>
      <trkpt lat="43.34605" lon="2.45227">
        <ele>429.8</ele>
        <time>2023-05-28T06:50:00Z</time>
      </trkpt>
      <trkpt lat="43.34606" lon="2.45232">
        <ele>428.6</ele>
        <time>2023-05-28T06:50:01Z</time>
      </trkpt>
      <trkpt lat="43.34606" lon="2.45236">
        <ele>427.2</ele>
        <time>2023-05-28T06:50:02Z</time>
      </trkpt>
      <trkpt lat="43.34607" lon="2.4524">
        <ele>426.1</ele>
        <time>2023-05-28T06:50:03Z</time>
      </trkpt>
      <trkpt lat="43.34607" lon="2.45244">
        <ele>426.1</ele>
        <time>2023-05-28T06:50:04Z</time>
      </trkpt>
      <trkpt lat="43.34607" lon="2.45248">
        <ele>425</ele>
        <time>2023-05-28T06:50:05Z</time>
      </trkpt>
      <trkpt lat="43.34607" lon="2.45252">
        <ele>424</ele>
        <time>2023-05-28T06:50:06Z</time>
      </trkpt>
      <trkpt lat="43.34608" lon="2.45256">
        <ele>422.9</ele>
        <time>2023-05-28T06:50:07Z</time>
      </trkpt>
      <trkpt lat="43.34609" lon="2.4526">
        <ele>421.7</ele>
        <time>2023-05-28T06:50:08Z</time>
      </trkpt>
      <trkpt lat="43.34611" lon="2.45267">
        <ele>420</ele>
        <time>2023-05-28T06:50:09Z</time>
      </trkpt>
      <trkpt lat="43.34612" lon="2.45271">
        <ele>419</ele>
        <time>2023-05-28T06:50:10Z</time>
      </trkpt>
      <trkpt lat="43.34614" lon="2.45275">
        <ele>418.2</ele>
        <time>2023-05-28T06:50:11Z</time>
      </trkpt>
      <trkpt lat="43.34615" lon="2.45279">
        <ele>417.5</ele>
        <time>2023-05-28T06:50:12Z</time>
      </trkpt>
      <trkpt lat="43.34617" lon="2.45283">
        <ele>416.7</ele>
        <time>2023-05-28T06:50:13Z</time>
      </trkpt>
      <trkpt lat="43.34618" lon="2.45285">
        <ele>416.6</ele>
        <time>2023-05-28T06:50:14Z</time>
      </trkpt>
      <trkpt lat="43.3462" lon="2.45289">
        <ele>415.8</ele>
        <time>2023-05-28T06:50:15Z</time>
      </trkpt>
      <trkpt lat="43.34622" lon="2.45292">
        <ele>415.2</ele>
        <time>2023-05-28T06:50:16Z</time>
      </trkpt>
      <trkpt lat="43.34624" lon="2.45294">
        <ele>415.1</ele>
        <time>2023-05-28T06:50:17Z</time>
      </trkpt>
      <trkpt lat="43.34626" lon="2.45297">
        <ele>414.4</ele>
        <time>2023-05-28T06:50:18Z</time>
      </trkpt>
      <trkpt lat="43.34629" lon="2.453">
        <ele>414.3</ele>
        <time>2023-05-28T06:50:19Z</time>
      </trkpt>
      <trkpt lat="43.34631" lon="2.45302">
        <ele>413.6</ele>
        <time>2023-05-28T06:50:20Z</time>
      </trkpt>
      <trkpt lat="43.34635" lon="2.45305">
        <ele>412.9</ele>
        <time>2023-05-28T06:50:21Z</time>
      </trkpt>
      <trkpt lat="43.34636" lon="2.45305">
        <ele>412.9</ele>
        <time>2023-05-28T06:50:22Z</time>
      </trkpt>
      <trkpt lat="43.34639" lon="2.45307">
        <ele>412.5</ele>
        <time>2023-05-28T06:50:23Z</time>
      </trkpt>
      <trkpt lat="43.34642" lon="2.45308">
        <ele>412</ele>
        <time>2023-05-28T06:50:24Z</time>
      </trkpt>
      <trkpt lat="43.34645" lon="2.45309">
        <ele>411.2</ele>
        <time>2023-05-28T06:50:25Z</time>
      </trkpt>
      <trkpt lat="43.34648" lon="2.4531">
        <ele>410.6</ele>
        <time>2023-05-28T06:50:26Z</time>
      </trkpt>
      <trkpt lat="43.3465" lon="2.45311">
        <ele>410.1</ele>
        <time>2023-05-28T06:50:27Z</time>
      </trkpt>
      <trkpt lat="43.34653" lon="2.45312">
        <ele>409.4</ele>
        <time>2023-05-28T06:50:28Z</time>
      </trkpt>
      <trkpt lat="43.34654" lon="2.45312">
        <ele>409.4</ele>
        <time>2023-05-28T06:50:29Z</time>
      </trkpt>
      <trkpt lat="43.34656" lon="2.45313">
        <ele>409.2</ele>
        <time>2023-05-28T06:50:30Z</time>
      </trkpt>
      <trkpt lat="43.34657" lon="2.45314">
        <ele>408.4</ele>
        <time>2023-05-28T06:50:31Z</time>
      </trkpt>
      <trkpt lat="43.34658" lon="2.45315">
        <ele>408.4</ele>
        <time>2023-05-28T06:50:32Z</time>
      </trkpt>
      <trkpt lat="43.34658" lon="2.45317">
        <ele>408.4</ele>
        <time>2023-05-28T06:50:33Z</time>
      </trkpt>
      <trkpt lat="43.34658" lon="2.45318">
        <ele>408.2</ele>
        <time>2023-05-28T06:50:34Z</time>
      </trkpt>
      <trkpt lat="43.34659" lon="2.45318">
        <ele>408.2</ele>
        <time>2023-05-28T06:50:35Z</time>
      </trkpt>
      <trkpt lat="43.34659" lon="2.45318">
        <ele>408.2</ele>
        <time>2023-05-28T06:50:36Z</time>
      </trkpt>
      <trkpt lat="43.34659" lon="2.45318">
        <ele>407.3</ele>
        <time>2023-05-28T06:50:37Z</time>
      </trkpt>
      <trkpt lat="43.34659" lon="2.45317">
        <ele>407.3</ele>
        <time>2023-05-28T06:50:38Z</time>
      </trkpt>
      <trkpt lat="43.3466" lon="2.45317">
        <ele>407.3</ele>
        <time>2023-05-28T06:50:39Z</time>
      </trkpt>
      <trkpt lat="43.3466" lon="2.45318">
        <ele>407.2</ele>
        <time>2023-05-28T06:50:40Z</time>
      </trkpt>
      <trkpt lat="43.3466" lon="2.45318">
        <ele>407.2</ele>
        <time>2023-05-28T06:50:41Z</time>
      </trkpt>
      <trkpt lat="43.3466" lon="2.45319">
        <ele>407.2</ele>
        <time>2023-05-28T06:50:42Z</time>
      </trkpt>
      <trkpt lat="43.34661" lon="2.45319">
        <ele>407.1</ele>
        <time>2023-05-28T06:50:43Z</time>
      </trkpt>
      <trkpt lat="43.34661" lon="2.45319">
        <ele>407.1</ele>
        <time>2023-05-28T06:50:44Z</time>
      </trkpt>
      <trkpt lat="43.34662" lon="2.45319">
        <ele>407.1</ele>
        <time>2023-05-28T06:50:45Z</time>
      </trkpt>
      <trkpt lat="43.34663" lon="2.45319">
        <ele>406.1</ele>
        <time>2023-05-28T06:50:46Z</time>
      </trkpt>
      <trkpt lat="43.34663" lon="2.45319">
        <ele>406.1</ele>
        <time>2023-05-28T06:50:47Z</time>
      </trkpt>
      <trkpt lat="43.34663" lon="2.4532">
        <ele>406</ele>
        <time>2023-05-28T06:50:48Z</time>
      </trkpt>
      <trkpt lat="43.34662" lon="2.4532">
        <ele>407</ele>
        <time>2023-05-28T06:50:49Z</time>
      </trkpt>
      <trkpt lat="43.34662" lon="2.4532">
        <ele>406.9</ele>
        <time>2023-05-28T06:50:50Z</time>
      </trkpt>
      <trkpt lat="43.34661" lon="2.4532">
        <ele>406.9</ele>
        <time>2023-05-28T06:50:51Z</time>
      </trkpt>
      <trkpt lat="43.34661" lon="2.4532">
        <ele>406.9</ele>
        <time>2023-05-28T06:50:52Z</time>
      </trkpt>
      <trkpt lat="43.34661" lon="2.45321">
        <ele>406.9</ele>
        <time>2023-05-28T06:50:53Z</time>
      </trkpt>
      <trkpt lat="43.3466" lon="2.45321">
        <ele>406.7</ele>
        <time>2023-05-28T06:50:54Z</time>
      </trkpt>
      <trkpt lat="43.3466" lon="2.45322">
        <ele>406.7</ele>
        <time>2023-05-28T06:50:55Z</time>
      </trkpt>
      <trkpt lat="43.3466" lon="2.45322">
        <ele>406.7</ele>
        <time>2023-05-28T06:50:56Z</time>
      </trkpt>
      <trkpt lat="43.34661" lon="2.45323">
        <ele>406.7</ele>
        <time>2023-05-28T06:50:57Z</time>
      </trkpt>
      <trkpt lat="43.3466" lon="2.45324">
        <ele>406.6</ele>
        <time>2023-05-28T06:50:58Z</time>
      </trkpt>
      <trkpt lat="43.3466" lon="2.45324">
        <ele>406.6</ele>
        <time>2023-05-28T06:50:59Z</time>
      </trkpt>
      <trkpt lat="43.3466" lon="2.45325">
        <ele>406.6</ele>
        <time>2023-05-28T06:51:00Z</time>
      </trkpt>
      <trkpt lat="43.34659" lon="2.45326">
        <ele>406.5</ele>
        <time>2023-05-28T06:51:01Z</time>
      </trkpt>
      <trkpt lat="43.34659" lon="2.45328">
        <ele>407.2</ele>
        <time>2023-05-28T06:51:02Z</time>
      </trkpt>
      <trkpt lat="43.34659" lon="2.4533">
        <ele>407.1</ele>
        <time>2023-05-28T06:51:03Z</time>
      </trkpt>
      <trkpt lat="43.34658" lon="2.45334">
        <ele>407</ele>
        <time>2023-05-28T06:51:04Z</time>
      </trkpt>
      <trkpt lat="43.34658" lon="2.45336">
        <ele>406.9</ele>
        <time>2023-05-28T06:51:05Z</time>
      </trkpt>
      <trkpt lat="43.34658" lon="2.45341">
        <ele>406.8</ele>
        <time>2023-05-28T06:51:06Z</time>
      </trkpt>
      <trkpt lat="43.34657" lon="2.45343">
        <ele>406.7</ele>
        <time>2023-05-28T06:51:07Z</time>
      </trkpt>
      <trkpt lat="43.34657" lon="2.45347">
        <ele>406.5</ele>
        <time>2023-05-28T06:51:08Z</time>
      </trkpt>
      <trkpt lat="43.34658" lon="2.45351">
        <ele>406.5</ele>
        <time>2023-05-28T06:51:09Z</time>
      </trkpt>
      <trkpt lat="43.34659" lon="2.45353">
        <ele>405.6</ele>
        <time>2023-05-28T06:51:10Z</time>
      </trkpt>
      <trkpt lat="43.3466" lon="2.45355">
        <ele>405.6</ele>
        <time>2023-05-28T06:51:11Z</time>
      </trkpt>
      <trkpt lat="43.34661" lon="2.45355">
        <ele>405.6</ele>
        <time>2023-05-28T06:51:12Z</time>
      </trkpt>
      <trkpt lat="43.34661" lon="2.45356">
        <ele>405.4</ele>
        <time>2023-05-28T06:51:13Z</time>
      </trkpt>
      <trkpt lat="43.34662" lon="2.45356">
        <ele>405.4</ele>
        <time>2023-05-28T06:51:14Z</time>
      </trkpt>
      <trkpt lat="43.34662" lon="2.45357">
        <ele>404.5</ele>
        <time>2023-05-28T06:51:15Z</time>
      </trkpt>
      <trkpt lat="43.34663" lon="2.45358">
        <ele>404.5</ele>
        <time>2023-05-28T06:51:16Z</time>
      </trkpt>
      <trkpt lat="43.34662" lon="2.45362">
        <ele>404.3</ele>
        <time>2023-05-28T06:51:17Z</time>
      </trkpt>
      <trkpt lat="43.34662" lon="2.45364">
        <ele>405.1</ele>
        <time>2023-05-28T06:51:18Z</time>
      </trkpt>
      <trkpt lat="43.34661" lon="2.45368">
        <ele>404.9</ele>
        <time>2023-05-28T06:51:19Z</time>
      </trkpt>
      <trkpt lat="43.34661" lon="2.45369">
        <ele>404.7</ele>
        <time>2023-05-28T06:51:20Z</time>
      </trkpt>
      <trkpt lat="43.34661" lon="2.45371">
        <ele>404.6</ele>
        <time>2023-05-28T06:51:21Z</time>
      </trkpt>
      <trkpt lat="43.34661" lon="2.45373">
        <ele>404.4</ele>
        <time>2023-05-28T06:51:22Z</time>
      </trkpt>
      <trkpt lat="43.34659" lon="2.45377">
        <ele>404.3</ele>
        <time>2023-05-28T06:51:23Z</time>
      </trkpt>
      <trkpt lat="43.34659" lon="2.45378">
        <ele>404.7</ele>
        <time>2023-05-28T06:51:24Z</time>
      </trkpt>
      <trkpt lat="43.34656" lon="2.45381">
        <ele>404.6</ele>
        <time>2023-05-28T06:51:25Z</time>
      </trkpt>
      <trkpt lat="43.34656" lon="2.45382">
        <ele>404.8</ele>
        <time>2023-05-28T06:51:26Z</time>
      </trkpt>
      <trkpt lat="43.34654" lon="2.45385">
        <ele>404.7</ele>
        <time>2023-05-28T06:51:27Z</time>
      </trkpt>
      <trkpt lat="43.34653" lon="2.45386">
        <ele>404.7</ele>
        <time>2023-05-28T06:51:28Z</time>
      </trkpt>
      <trkpt lat="43.34651" lon="2.4539">
        <ele>404.2</ele>
        <time>2023-05-28T06:51:29Z</time>
      </trkpt>
      <trkpt lat="43.3465" lon="2.45391">
        <ele>404.1</ele>
        <time>2023-05-28T06:51:30Z</time>
      </trkpt>
      <trkpt lat="43.34647" lon="2.45395">
        <ele>403.9</ele>
        <time>2023-05-28T06:51:31Z</time>
      </trkpt>
      <trkpt lat="43.34646" lon="2.45397">
        <ele>404.2</ele>
        <time>2023-05-28T06:51:32Z</time>
      </trkpt>
      <trkpt lat="43.34645" lon="2.45398">
        <ele>404.1</ele>
        <time>2023-05-28T06:51:33Z</time>
      </trkpt>
      <trkpt lat="43.34644" lon="2.454">
        <ele>403.6</ele>
        <time>2023-05-28T06:51:34Z</time>
      </trkpt>
      <trkpt lat="43.34643" lon="2.45403">
        <ele>403.8</ele>
        <time>2023-05-28T06:51:35Z</time>
      </trkpt>
      <trkpt lat="43.34642" lon="2.45404">
        <ele>403.2</ele>
        <time>2023-05-28T06:51:36Z</time>
      </trkpt>
      <trkpt lat="43.34642" lon="2.45406">
        <ele>403.2</ele>
        <time>2023-05-28T06:51:37Z</time>
      </trkpt>
      <trkpt lat="43.34641" lon="2.45408">
        <ele>402.6</ele>
        <time>2023-05-28T06:51:38Z</time>
      </trkpt>
      <trkpt lat="43.3464" lon="2.4541">
        <ele>402.7</ele>
        <time>2023-05-28T06:51:39Z</time>
      </trkpt>
      <trkpt lat="43.34639" lon="2.45411">
        <ele>402.6</ele>
        <time>2023-05-28T06:51:40Z</time>
      </trkpt>
      <trkpt lat="43.34639" lon="2.45412">
        <ele>402</ele>
        <time>2023-05-28T06:51:41Z</time>
      </trkpt>
      <trkpt lat="43.34638" lon="2.45414">
        <ele>402</ele>
        <time>2023-05-28T06:51:42Z</time>
      </trkpt>
      <trkpt lat="43.34636" lon="2.45415">
        <ele>402</ele>
        <time>2023-05-28T06:51:43Z</time>
      </trkpt>
      <trkpt lat="43.34635" lon="2.45418">
        <ele>401.3</ele>
        <time>2023-05-28T06:51:44Z</time>
      </trkpt>
      <trkpt lat="43.34634" lon="2.45419">
        <ele>401.3</ele>
        <time>2023-05-28T06:51:45Z</time>
      </trkpt>
      <trkpt lat="43.34634" lon="2.4542">
        <ele>401.2</ele>
        <time>2023-05-28T06:51:46Z</time>
      </trkpt>
      <trkpt lat="43.34633" lon="2.45422">
        <ele>400.5</ele>
        <time>2023-05-28T06:51:47Z</time>
      </trkpt>
      <trkpt lat="43.34632" lon="2.45423">
        <ele>400.5</ele>
        <time>2023-05-28T06:51:48Z</time>
      </trkpt>
      <trkpt lat="43.34632" lon="2.45423">
        <ele>400.4</ele>
        <time>2023-05-28T06:51:49Z</time>
      </trkpt>
      <trkpt lat="43.34631" lon="2.45424">
        <ele>400.2</ele>
        <time>2023-05-28T06:51:50Z</time>
      </trkpt>
      <trkpt lat="43.3463" lon="2.45424">
        <ele>400.2</ele>
        <time>2023-05-28T06:51:51Z</time>
      </trkpt>
      <trkpt lat="43.3463" lon="2.45424">
        <ele>399.4</ele>
        <time>2023-05-28T06:51:52Z</time>
      </trkpt>
      <trkpt lat="43.34629" lon="2.45425">
        <ele>399.4</ele>
        <time>2023-05-28T06:51:53Z</time>
      </trkpt>
      <trkpt lat="43.34629" lon="2.45425">
        <ele>399.4</ele>
        <time>2023-05-28T06:51:54Z</time>
      </trkpt>
      <trkpt lat="43.34629" lon="2.45425">
        <ele>399.3</ele>
        <time>2023-05-28T06:51:55Z</time>
      </trkpt>
      <trkpt lat="43.34628" lon="2.45426">
        <ele>399.3</ele>
        <time>2023-05-28T06:51:56Z</time>
      </trkpt>
      <trkpt lat="43.34628" lon="2.45426">
        <ele>399.3</ele>
        <time>2023-05-28T06:51:57Z</time>
      </trkpt>
      <trkpt lat="43.34628" lon="2.45427">
        <ele>399</ele>
        <time>2023-05-28T06:51:58Z</time>
      </trkpt>
      <trkpt lat="43.34627" lon="2.45428">
        <ele>399</ele>
        <time>2023-05-28T06:51:59Z</time>
      </trkpt>
      <trkpt lat="43.34627" lon="2.45429">
        <ele>398.2</ele>
        <time>2023-05-28T06:52:00Z</time>
      </trkpt>
      <trkpt lat="43.34626" lon="2.45431">
        <ele>398.1</ele>
        <time>2023-05-28T06:52:01Z</time>
      </trkpt>
      <trkpt lat="43.34627" lon="2.45433">
        <ele>398.1</ele>
        <time>2023-05-28T06:52:02Z</time>
      </trkpt>
      <trkpt lat="43.34627" lon="2.45435">
        <ele>397.3</ele>
        <time>2023-05-28T06:52:03Z</time>
      </trkpt>
      <trkpt lat="43.34627" lon="2.45437">
        <ele>397.2</ele>
        <time>2023-05-28T06:52:04Z</time>
      </trkpt>
      <trkpt lat="43.34626" lon="2.45438">
        <ele>396.3</ele>
        <time>2023-05-28T06:52:05Z</time>
      </trkpt>
      <trkpt lat="43.34625" lon="2.45438">
        <ele>396.3</ele>
        <time>2023-05-28T06:52:06Z</time>
      </trkpt>
      <trkpt lat="43.34625" lon="2.45439">
        <ele>395.9</ele>
        <time>2023-05-28T06:52:07Z</time>
      </trkpt>
      <trkpt lat="43.34624" lon="2.45439">
        <ele>395.9</ele>
        <time>2023-05-28T06:52:08Z</time>
      </trkpt>
      <trkpt lat="43.34623" lon="2.45438">
        <ele>395.9</ele>
        <time>2023-05-28T06:52:09Z</time>
      </trkpt>
      <trkpt lat="43.34622" lon="2.45437">
        <ele>396.7</ele>
        <time>2023-05-28T06:52:10Z</time>
      </trkpt>
      <trkpt lat="43.34621" lon="2.45437">
        <ele>395.4</ele>
        <time>2023-05-28T06:52:11Z</time>
      </trkpt>
      <trkpt lat="43.34619" lon="2.45438">
        <ele>395.4</ele>
        <time>2023-05-28T06:52:12Z</time>
      </trkpt>
      <trkpt lat="43.34618" lon="2.45438">
        <ele>394.9</ele>
        <time>2023-05-28T06:52:13Z</time>
      </trkpt>
      <trkpt lat="43.34617" lon="2.45438">
        <ele>394.9</ele>
        <time>2023-05-28T06:52:14Z</time>
      </trkpt>
      <trkpt lat="43.34616" lon="2.45437">
        <ele>395.8</ele>
        <time>2023-05-28T06:52:15Z</time>
      </trkpt>
      <trkpt lat="43.34616" lon="2.45437">
        <ele>395.7</ele>
        <time>2023-05-28T06:52:16Z</time>
      </trkpt>
      <trkpt lat="43.34615" lon="2.45437">
        <ele>395.2</ele>
        <time>2023-05-28T06:52:17Z</time>
      </trkpt>
      <trkpt lat="43.34615" lon="2.45438">
        <ele>394.3</ele>
        <time>2023-05-28T06:52:18Z</time>
      </trkpt>
      <trkpt lat="43.34614" lon="2.45438">
        <ele>394.3</ele>
        <time>2023-05-28T06:52:19Z</time>
      </trkpt>
      <trkpt lat="43.34614" lon="2.45438">
        <ele>394.3</ele>
        <time>2023-05-28T06:52:20Z</time>
      </trkpt>
      <trkpt lat="43.34613" lon="2.45438">
        <ele>394.2</ele>
        <time>2023-05-28T06:52:21Z</time>
      </trkpt>
      <trkpt lat="43.34613" lon="2.45438">
        <ele>394.2</ele>
        <time>2023-05-28T06:52:22Z</time>
      </trkpt>
      <trkpt lat="43.34612" lon="2.45437">
        <ele>395.1</ele>
        <time>2023-05-28T06:52:23Z</time>
      </trkpt>
      <trkpt lat="43.34612" lon="2.45436">
        <ele>394.5</ele>
        <time>2023-05-28T06:52:24Z</time>
      </trkpt>
      <trkpt lat="43.34612" lon="2.45435">
        <ele>394.5</ele>
        <time>2023-05-28T06:52:25Z</time>
      </trkpt>
      <trkpt lat="43.34611" lon="2.45434">
        <ele>394.5</ele>
        <time>2023-05-28T06:52:26Z</time>
      </trkpt>
      <trkpt lat="43.3461" lon="2.45433">
        <ele>395.3</ele>
        <time>2023-05-28T06:52:27Z</time>
      </trkpt>
      <trkpt lat="43.34609" lon="2.45432">
        <ele>394.7</ele>
        <time>2023-05-28T06:52:28Z</time>
      </trkpt>
      <trkpt lat="43.34608" lon="2.45431">
        <ele>394.7</ele>
        <time>2023-05-28T06:52:29Z</time>
      </trkpt>
      <trkpt lat="43.34606" lon="2.45428">
        <ele>395.4</ele>
        <time>2023-05-28T06:52:30Z</time>
      </trkpt>
      <trkpt lat="43.34606" lon="2.45427">
        <ele>394.8</ele>
        <time>2023-05-28T06:52:31Z</time>
      </trkpt>
      <trkpt lat="43.34605" lon="2.45426">
        <ele>394.8</ele>
        <time>2023-05-28T06:52:32Z</time>
      </trkpt>
      <trkpt lat="43.34604" lon="2.45425">
        <ele>394.7</ele>
        <time>2023-05-28T06:52:33Z</time>
      </trkpt>
      <trkpt lat="43.34604" lon="2.45424">
        <ele>395.4</ele>
        <time>2023-05-28T06:52:34Z</time>
      </trkpt>
      <trkpt lat="43.34603" lon="2.45421">
        <ele>394.8</ele>
        <time>2023-05-28T06:52:35Z</time>
      </trkpt>
      <trkpt lat="43.34602" lon="2.4542">
        <ele>395.4</ele>
        <time>2023-05-28T06:52:36Z</time>
      </trkpt>
      <trkpt lat="43.34601" lon="2.45418">
        <ele>395.4</ele>
        <time>2023-05-28T06:52:37Z</time>
      </trkpt>
      <trkpt lat="43.34599" lon="2.45417">
        <ele>394.7</ele>
        <time>2023-05-28T06:52:38Z</time>
      </trkpt>
      <trkpt lat="43.34599" lon="2.45416">
        <ele>394.7</ele>
        <time>2023-05-28T06:52:39Z</time>
      </trkpt>
      <trkpt lat="43.34598" lon="2.45416">
        <ele>395.3</ele>
        <time>2023-05-28T06:52:40Z</time>
      </trkpt>
      <trkpt lat="43.34596" lon="2.45415">
        <ele>394.5</ele>
        <time>2023-05-28T06:52:41Z</time>
      </trkpt>
      <trkpt lat="43.34596" lon="2.45415">
        <ele>394.5</ele>
        <time>2023-05-28T06:52:42Z</time>
      </trkpt>
      <trkpt lat="43.34596" lon="2.45415">
        <ele>394.5</ele>
        <time>2023-05-28T06:52:43Z</time>
      </trkpt>
      <trkpt lat="43.34595" lon="2.45414">
        <ele>394.4</ele>
        <time>2023-05-28T06:52:44Z</time>
      </trkpt>
      <trkpt lat="43.34594" lon="2.45414">
        <ele>394.4</ele>
        <time>2023-05-28T06:52:45Z</time>
      </trkpt>
      <trkpt lat="43.34594" lon="2.45413">
        <ele>394.4</ele>
        <time>2023-05-28T06:52:46Z</time>
      </trkpt>
      <trkpt lat="43.34593" lon="2.45413">
        <ele>393.6</ele>
        <time>2023-05-28T06:52:47Z</time>
      </trkpt>
      <trkpt lat="43.34592" lon="2.45414">
        <ele>393.6</ele>
        <time>2023-05-28T06:52:48Z</time>
      </trkpt>
      <trkpt lat="43.3459" lon="2.45414">
        <ele>392.8</ele>
        <time>2023-05-28T06:52:49Z</time>
      </trkpt>
      <trkpt lat="43.34589" lon="2.45414">
        <ele>392.8</ele>
        <time>2023-05-28T06:52:50Z</time>
      </trkpt>
      <trkpt lat="43.34589" lon="2.45413">
        <ele>392.8</ele>
        <time>2023-05-28T06:52:51Z</time>
      </trkpt>
      <trkpt lat="43.34588" lon="2.45413">
        <ele>392.7</ele>
        <time>2023-05-28T06:52:52Z</time>
      </trkpt>
      <trkpt lat="43.34587" lon="2.45413">
        <ele>392</ele>
        <time>2023-05-28T06:52:53Z</time>
      </trkpt>
      <trkpt lat="43.34586" lon="2.45414">
        <ele>391.9</ele>
        <time>2023-05-28T06:52:54Z</time>
      </trkpt>
      <trkpt lat="43.34585" lon="2.45414">
        <ele>391.9</ele>
        <time>2023-05-28T06:52:55Z</time>
      </trkpt>
      <trkpt lat="43.34584" lon="2.45415">
        <ele>391.9</ele>
        <time>2023-05-28T06:52:56Z</time>
      </trkpt>
      <trkpt lat="43.34583" lon="2.45416">
        <ele>390.4</ele>
        <time>2023-05-28T06:52:57Z</time>
      </trkpt>
      <trkpt lat="43.34582" lon="2.45416">
        <ele>391</ele>
        <time>2023-05-28T06:52:58Z</time>
      </trkpt>
      <trkpt lat="43.34581" lon="2.45415">
        <ele>390.2</ele>
        <time>2023-05-28T06:52:59Z</time>
      </trkpt>
      <trkpt lat="43.3458" lon="2.45414">
        <ele>390.2</ele>
        <time>2023-05-28T06:53:00Z</time>
      </trkpt>
      <trkpt lat="43.34579" lon="2.45413">
        <ele>390.1</ele>
        <time>2023-05-28T06:53:01Z</time>
      </trkpt>
      <trkpt lat="43.34577" lon="2.45411">
        <ele>390</ele>
        <time>2023-05-28T06:53:02Z</time>
      </trkpt>
      <trkpt lat="43.34576" lon="2.45408">
        <ele>390</ele>
        <time>2023-05-28T06:53:03Z</time>
      </trkpt>
      <trkpt lat="43.34575" lon="2.45408">
        <ele>389.9</ele>
        <time>2023-05-28T06:53:04Z</time>
      </trkpt>
      <trkpt lat="43.34574" lon="2.45407">
        <ele>389.8</ele>
        <time>2023-05-28T06:53:05Z</time>
      </trkpt>
      <trkpt lat="43.34571" lon="2.45405">
        <ele>389</ele>
        <time>2023-05-28T06:53:06Z</time>
      </trkpt>
      <trkpt lat="43.34571" lon="2.45405">
        <ele>389</ele>
        <time>2023-05-28T06:53:07Z</time>
      </trkpt>
      <trkpt lat="43.34569" lon="2.45405">
        <ele>389</ele>
        <time>2023-05-28T06:53:08Z</time>
      </trkpt>
      <trkpt lat="43.34568" lon="2.45406">
        <ele>388.2</ele>
        <time>2023-05-28T06:53:09Z</time>
      </trkpt>
      <trkpt lat="43.34566" lon="2.45407">
        <ele>388.2</ele>
        <time>2023-05-28T06:53:10Z</time>
      </trkpt>
      <trkpt lat="43.34566" lon="2.45408">
        <ele>387.5</ele>
        <time>2023-05-28T06:53:11Z</time>
      </trkpt>
      <trkpt lat="43.34565" lon="2.4541">
        <ele>386.8</ele>
        <time>2023-05-28T06:53:12Z</time>
      </trkpt>
      <trkpt lat="43.34564" lon="2.45413">
        <ele>386</ele>
        <time>2023-05-28T06:53:13Z</time>
      </trkpt>
      <trkpt lat="43.34564" lon="2.45414">
        <ele>386</ele>
        <time>2023-05-28T06:53:14Z</time>
      </trkpt>
      <trkpt lat="43.34564" lon="2.45415">
        <ele>386</ele>
        <time>2023-05-28T06:53:15Z</time>
      </trkpt>
      <trkpt lat="43.34564" lon="2.45417">
        <ele>385.2</ele>
        <time>2023-05-28T06:53:16Z</time>
      </trkpt>
      <trkpt lat="43.34564" lon="2.45418">
        <ele>385.2</ele>
        <time>2023-05-28T06:53:17Z</time>
      </trkpt>
      <trkpt lat="43.34564" lon="2.45419">
        <ele>385.2</ele>
        <time>2023-05-28T06:53:18Z</time>
      </trkpt>
      <trkpt lat="43.34565" lon="2.4542">
        <ele>384.4</ele>
        <time>2023-05-28T06:53:19Z</time>
      </trkpt>
      <trkpt lat="43.34566" lon="2.4542">
        <ele>385.1</ele>
        <time>2023-05-28T06:53:20Z</time>
      </trkpt>
      <trkpt lat="43.34566" lon="2.4542">
        <ele>385</ele>
        <time>2023-05-28T06:53:21Z</time>
      </trkpt>
      <trkpt lat="43.34567" lon="2.4542">
        <ele>385</ele>
        <time>2023-05-28T06:53:22Z</time>
      </trkpt>
      <trkpt lat="43.34567" lon="2.45422">
        <ele>385</ele>
        <time>2023-05-28T06:53:23Z</time>
      </trkpt>
      <trkpt lat="43.34566" lon="2.45424">
        <ele>385</ele>
        <time>2023-05-28T06:53:24Z</time>
      </trkpt>
      <trkpt lat="43.34565" lon="2.45426">
        <ele>383.4</ele>
        <time>2023-05-28T06:53:25Z</time>
      </trkpt>
      <trkpt lat="43.34565" lon="2.45427">
        <ele>383.3</ele>
        <time>2023-05-28T06:53:26Z</time>
      </trkpt>
      <trkpt lat="43.34564" lon="2.45428">
        <ele>383.3</ele>
        <time>2023-05-28T06:53:27Z</time>
      </trkpt>
      <trkpt lat="43.34564" lon="2.45429">
        <ele>382.4</ele>
        <time>2023-05-28T06:53:28Z</time>
      </trkpt>
      <trkpt lat="43.34564" lon="2.45433">
        <ele>382.3</ele>
        <time>2023-05-28T06:53:29Z</time>
      </trkpt>
      <trkpt lat="43.34565" lon="2.45434">
        <ele>381.3</ele>
        <time>2023-05-28T06:53:30Z</time>
      </trkpt>
      <trkpt lat="43.34567" lon="2.45436">
        <ele>382.1</ele>
        <time>2023-05-28T06:53:31Z</time>
      </trkpt>
      <trkpt lat="43.34568" lon="2.45437">
        <ele>382</ele>
        <time>2023-05-28T06:53:32Z</time>
      </trkpt>
      <trkpt lat="43.34569" lon="2.45437">
        <ele>382.8</ele>
        <time>2023-05-28T06:53:33Z</time>
      </trkpt>
      <trkpt lat="43.34571" lon="2.45438">
        <ele>381.7</ele>
        <time>2023-05-28T06:53:34Z</time>
      </trkpt>
      <trkpt lat="43.34572" lon="2.4544">
        <ele>382.5</ele>
        <time>2023-05-28T06:53:35Z</time>
      </trkpt>
      <trkpt lat="43.34572" lon="2.45442">
        <ele>381.4</ele>
        <time>2023-05-28T06:53:36Z</time>
      </trkpt>
      <trkpt lat="43.34572" lon="2.45446">
        <ele>380.3</ele>
        <time>2023-05-28T06:53:37Z</time>
      </trkpt>
      <trkpt lat="43.34572" lon="2.45448">
        <ele>380.2</ele>
        <time>2023-05-28T06:53:38Z</time>
      </trkpt>
      <trkpt lat="43.34572" lon="2.45452">
        <ele>378.2</ele>
        <time>2023-05-28T06:53:39Z</time>
      </trkpt>
      <trkpt lat="43.34571" lon="2.45454">
        <ele>378.2</ele>
        <time>2023-05-28T06:53:40Z</time>
      </trkpt>
      <trkpt lat="43.34571" lon="2.45457">
        <ele>377</ele>
        <time>2023-05-28T06:53:41Z</time>
      </trkpt>
      <trkpt lat="43.34571" lon="2.45458">
        <ele>377</ele>
        <time>2023-05-28T06:53:42Z</time>
      </trkpt>
      <trkpt lat="43.3457" lon="2.45459">
        <ele>375.8</ele>
        <time>2023-05-28T06:53:43Z</time>
      </trkpt>
      <trkpt lat="43.34571" lon="2.45463">
        <ele>375.7</ele>
        <time>2023-05-28T06:53:44Z</time>
      </trkpt>
      <trkpt lat="43.34571" lon="2.45464">
        <ele>374.4</ele>
        <time>2023-05-28T06:53:45Z</time>
      </trkpt>
      <trkpt lat="43.34572" lon="2.45468">
        <ele>372.9</ele>
        <time>2023-05-28T06:53:46Z</time>
      </trkpt>
      <trkpt lat="43.34572" lon="2.45469">
        <ele>372.8</ele>
        <time>2023-05-28T06:53:47Z</time>
      </trkpt>
      <trkpt lat="43.34572" lon="2.45474">
        <ele>371.1</ele>
        <time>2023-05-28T06:53:48Z</time>
      </trkpt>
      <trkpt lat="43.34572" lon="2.45476">
        <ele>371.1</ele>
        <time>2023-05-28T06:53:49Z</time>
      </trkpt>
      <trkpt lat="43.34571" lon="2.45481">
        <ele>367.4</ele>
        <time>2023-05-28T06:53:50Z</time>
      </trkpt>
      <trkpt lat="43.34571" lon="2.45483">
        <ele>367.4</ele>
        <time>2023-05-28T06:53:51Z</time>
      </trkpt>
      <trkpt lat="43.34571" lon="2.45488">
        <ele>365.4</ele>
        <time>2023-05-28T06:53:52Z</time>
      </trkpt>
      <trkpt lat="43.34571" lon="2.4549">
        <ele>363.3</ele>
        <time>2023-05-28T06:53:53Z</time>
      </trkpt>
      <trkpt lat="43.34572" lon="2.45495">
        <ele>362.2</ele>
        <time>2023-05-28T06:53:54Z</time>
      </trkpt>
      <trkpt lat="43.34572" lon="2.45496">
        <ele>362.2</ele>
        <time>2023-05-28T06:53:55Z</time>
      </trkpt>
      <trkpt lat="43.34573" lon="2.45501">
        <ele>360.1</ele>
        <time>2023-05-28T06:53:56Z</time>
      </trkpt>
      <trkpt lat="43.34574" lon="2.45502">
        <ele>358</ele>
        <time>2023-05-28T06:53:57Z</time>
      </trkpt>
      <trkpt lat="43.34574" lon="2.45505">
        <ele>358</ele>
        <time>2023-05-28T06:53:58Z</time>
      </trkpt>
      <trkpt lat="43.34574" lon="2.45507">
        <ele>355.9</ele>
        <time>2023-05-28T06:53:59Z</time>
      </trkpt>
      <trkpt lat="43.34575" lon="2.4551">
        <ele>356.9</ele>
        <time>2023-05-28T06:54:00Z</time>
      </trkpt>
      <trkpt lat="43.34576" lon="2.45512">
        <ele>354.8</ele>
        <time>2023-05-28T06:54:01Z</time>
      </trkpt>
      <trkpt lat="43.34577" lon="2.45516">
        <ele>352.7</ele>
        <time>2023-05-28T06:54:02Z</time>
      </trkpt>
      <trkpt lat="43.34578" lon="2.45519">
        <ele>350.4</ele>
        <time>2023-05-28T06:54:03Z</time>
      </trkpt>
      <trkpt lat="43.34579" lon="2.45523">
        <ele>351.5</ele>
        <time>2023-05-28T06:54:04Z</time>
      </trkpt>
      <trkpt lat="43.34579" lon="2.45524">
        <ele>349.2</ele>
        <time>2023-05-28T06:54:05Z</time>
      </trkpt>
      <trkpt lat="43.3458" lon="2.45529">
        <ele>346.9</ele>
        <time>2023-05-28T06:54:06Z</time>
      </trkpt>
      <trkpt lat="43.34581" lon="2.45531">
        <ele>346.9</ele>
        <time>2023-05-28T06:54:07Z</time>
      </trkpt>
      <trkpt lat="43.34582" lon="2.45535">
        <ele>345.9</ele>
        <time>2023-05-28T06:54:08Z</time>
      </trkpt>
      <trkpt lat="43.34583" lon="2.45536">
        <ele>343.7</ele>
        <time>2023-05-28T06:54:09Z</time>
      </trkpt>
      <trkpt lat="43.34585" lon="2.4554">
        <ele>345</ele>
        <time>2023-05-28T06:54:10Z</time>
      </trkpt>
      <trkpt lat="43.34585" lon="2.45541">
        <ele>342.9</ele>
        <time>2023-05-28T06:54:11Z</time>
      </trkpt>
      <trkpt lat="43.34586" lon="2.45545">
        <ele>340.8</ele>
        <time>2023-05-28T06:54:12Z</time>
      </trkpt>
      <trkpt lat="43.34587" lon="2.45546">
        <ele>340.8</ele>
        <time>2023-05-28T06:54:13Z</time>
      </trkpt>
      <trkpt lat="43.34587" lon="2.45547">
        <ele>342.2</ele>
        <time>2023-05-28T06:54:14Z</time>
      </trkpt>
      <trkpt lat="43.34589" lon="2.45549">
        <ele>340.1</ele>
        <time>2023-05-28T06:54:15Z</time>
      </trkpt>
      <trkpt lat="43.34591" lon="2.45552">
        <ele>341.5</ele>
        <time>2023-05-28T06:54:16Z</time>
      </trkpt>
      <trkpt lat="43.34592" lon="2.45552">
        <ele>341.5</ele>
        <time>2023-05-28T06:54:17Z</time>
      </trkpt>
      <trkpt lat="43.34595" lon="2.45554">
        <ele>340.8</ele>
        <time>2023-05-28T06:54:18Z</time>
      </trkpt>
      <trkpt lat="43.34596" lon="2.45554">
        <ele>340.7</ele>
        <time>2023-05-28T06:54:19Z</time>
      </trkpt>
      <trkpt lat="43.34598" lon="2.45555">
        <ele>342.2</ele>
        <time>2023-05-28T06:54:20Z</time>
      </trkpt>
      <trkpt lat="43.34599" lon="2.45555">
        <ele>342.1</ele>
        <time>2023-05-28T06:54:21Z</time>
      </trkpt>
      <trkpt lat="43.34601" lon="2.45556">
        <ele>343.6</ele>
        <time>2023-05-28T06:54:22Z</time>
      </trkpt>
      <trkpt lat="43.34602" lon="2.45556">
        <ele>343.5</ele>
        <time>2023-05-28T06:54:23Z</time>
      </trkpt>
      <trkpt lat="43.34603" lon="2.45557">
        <ele>343.5</ele>
        <time>2023-05-28T06:54:24Z</time>
      </trkpt>
      <trkpt lat="43.34603" lon="2.45561">
        <ele>341.3</ele>
        <time>2023-05-28T06:54:25Z</time>
      </trkpt>
      <trkpt lat="43.34602" lon="2.45562">
        <ele>338.9</ele>
        <time>2023-05-28T06:54:26Z</time>
      </trkpt>
      <trkpt lat="43.34601" lon="2.45565">
        <ele>338.9</ele>
        <time>2023-05-28T06:54:27Z</time>
      </trkpt>
      <trkpt lat="43.346" lon="2.45566">
        <ele>336.4</ele>
        <time>2023-05-28T06:54:28Z</time>
      </trkpt>
      <trkpt lat="43.34599" lon="2.45567">
        <ele>334.8</ele>
        <time>2023-05-28T06:54:29Z</time>
      </trkpt>
      <trkpt lat="43.34598" lon="2.45568">
        <ele>334.8</ele>
        <time>2023-05-28T06:54:30Z</time>
      </trkpt>
      <trkpt lat="43.34594" lon="2.45569">
        <ele>333.3</ele>
        <time>2023-05-28T06:54:31Z</time>
      </trkpt>
      <trkpt lat="43.34593" lon="2.4557">
        <ele>331.7</ele>
        <time>2023-05-28T06:54:32Z</time>
      </trkpt>
      <trkpt lat="43.34591" lon="2.45572">
        <ele>329.2</ele>
        <time>2023-05-28T06:54:33Z</time>
      </trkpt>
      <trkpt lat="43.3459" lon="2.45572">
        <ele>327.6</ele>
        <time>2023-05-28T06:54:34Z</time>
      </trkpt>
      <trkpt lat="43.34586" lon="2.45574">
        <ele>326.1</ele>
        <time>2023-05-28T06:54:35Z</time>
      </trkpt>
      <trkpt lat="43.34585" lon="2.45574">
        <ele>326.1</ele>
        <time>2023-05-28T06:54:36Z</time>
      </trkpt>
      <trkpt lat="43.34584" lon="2.45574">
        <ele>324.6</ele>
        <time>2023-05-28T06:54:37Z</time>
      </trkpt>
      <trkpt lat="43.34583" lon="2.45575">
        <ele>322</ele>
        <time>2023-05-28T06:54:38Z</time>
      </trkpt>
      <trkpt lat="43.34579" lon="2.45574">
        <ele>323.2</ele>
        <time>2023-05-28T06:54:39Z</time>
      </trkpt>
      <trkpt lat="43.34578" lon="2.45573">
        <ele>323.1</ele>
        <time>2023-05-28T06:54:40Z</time>
      </trkpt>
      <trkpt lat="43.34576" lon="2.4557">
        <ele>324.3</ele>
        <time>2023-05-28T06:54:41Z</time>
      </trkpt>
      <trkpt lat="43.34575" lon="2.45569">
        <ele>324.4</ele>
        <time>2023-05-28T06:54:42Z</time>
      </trkpt>
      <trkpt lat="43.34573" lon="2.45566">
        <ele>324.8</ele>
        <time>2023-05-28T06:54:43Z</time>
      </trkpt>
      <trkpt lat="43.34573" lon="2.45566">
        <ele>324.9</ele>
        <time>2023-05-28T06:54:44Z</time>
      </trkpt>
      <trkpt lat="43.34572" lon="2.45564">
        <ele>325.1</ele>
        <time>2023-05-28T06:54:45Z</time>
      </trkpt>
      <trkpt lat="43.34571" lon="2.45562">
        <ele>325.2</ele>
        <time>2023-05-28T06:54:46Z</time>
      </trkpt>
      <trkpt lat="43.3457" lon="2.4556">
        <ele>325.5</ele>
        <time>2023-05-28T06:54:47Z</time>
      </trkpt>
      <trkpt lat="43.34569" lon="2.45558">
        <ele>325.7</ele>
        <time>2023-05-28T06:54:48Z</time>
      </trkpt>
      <trkpt lat="43.34568" lon="2.45557">
        <ele>325.9</ele>
        <time>2023-05-28T06:54:49Z</time>
      </trkpt>
      <trkpt lat="43.34567" lon="2.45556">
        <ele>326.1</ele>
        <time>2023-05-28T06:54:50Z</time>
      </trkpt>
      <trkpt lat="43.34566" lon="2.45554">
        <ele>326.3</ele>
        <time>2023-05-28T06:54:51Z</time>
      </trkpt>
      <trkpt lat="43.34564" lon="2.45553">
        <ele>326.6</ele>
        <time>2023-05-28T06:54:52Z</time>
      </trkpt>
      <trkpt lat="43.34563" lon="2.45553">
        <ele>326.8</ele>
        <time>2023-05-28T06:54:53Z</time>
      </trkpt>
      <trkpt lat="43.34562" lon="2.45552">
        <ele>327</ele>
        <time>2023-05-28T06:54:54Z</time>
      </trkpt>
      <trkpt lat="43.3456" lon="2.45551">
        <ele>327.3</ele>
        <time>2023-05-28T06:54:55Z</time>
      </trkpt>
      <trkpt lat="43.34559" lon="2.4555">
        <ele>327.4</ele>
        <time>2023-05-28T06:54:56Z</time>
      </trkpt>
      <trkpt lat="43.34558" lon="2.4555">
        <ele>327.6</ele>
        <time>2023-05-28T06:54:57Z</time>
      </trkpt>
      <trkpt lat="43.34557" lon="2.45549">
        <ele>327.8</ele>
        <time>2023-05-28T06:54:58Z</time>
      </trkpt>
      <trkpt lat="43.34557" lon="2.45548">
        <ele>327.9</ele>
        <time>2023-05-28T06:54:59Z</time>
      </trkpt>
      <trkpt lat="43.34556" lon="2.45547">
        <ele>328</ele>
        <time>2023-05-28T06:55:00Z</time>
      </trkpt>
      <trkpt lat="43.34556" lon="2.45546">
        <ele>328.1</ele>
        <time>2023-05-28T06:55:01Z</time>
      </trkpt>
      <trkpt lat="43.34556" lon="2.45546">
        <ele>328.1</ele>
        <time>2023-05-28T06:55:02Z</time>
      </trkpt>
      <trkpt lat="43.34556" lon="2.45546">
        <ele>328.2</ele>
        <time>2023-05-28T06:55:03Z</time>
      </trkpt>
      <trkpt lat="43.34556" lon="2.45546">
        <ele>328.2</ele>
        <time>2023-05-28T06:55:04Z</time>
      </trkpt>
      <trkpt lat="43.34555" lon="2.45546">
        <ele>328.2</ele>
        <time>2023-05-28T06:55:05Z</time>
      </trkpt>
      <trkpt lat="43.34555" lon="2.45546">
        <ele>328.3</ele>
        <time>2023-05-28T06:55:06Z</time>
      </trkpt>
      <trkpt lat="43.34555" lon="2.45546">
        <ele>328.3</ele>
        <time>2023-05-28T06:55:07Z</time>
      </trkpt>
      <trkpt lat="43.34555" lon="2.45546">
        <ele>328.3</ele>
        <time>2023-05-28T06:55:08Z</time>
      </trkpt>
      <trkpt lat="43.34556" lon="2.45546">
        <ele>328.3</ele>
        <time>2023-05-28T06:55:09Z</time>
      </trkpt>
      <trkpt lat="43.34556" lon="2.45546">
        <ele>328.3</ele>
        <time>2023-05-28T06:55:10Z</time>
      </trkpt>
      <trkpt lat="43.34556" lon="2.45546">
        <ele>328.3</ele>
        <time>2023-05-28T06:55:11Z</time>
      </trkpt>
      <trkpt lat="43.34556" lon="2.45546">
        <ele>328.3</ele>
        <time>2023-05-28T06:55:12Z</time>
      </trkpt>
      <trkpt lat="43.34556" lon="2.45546">
        <ele>328.3</ele>
        <time>2023-05-28T06:55:13Z</time>
      </trkpt>
      <trkpt lat="43.34556" lon="2.45546">
        <ele>328.3</ele>
        <time>2023-05-28T06:55:14Z</time>
      </trkpt>
      <trkpt lat="43.34556" lon="2.45546">
        <ele>328.3</ele>
        <time>2023-05-28T06:55:15Z</time>
      </trkpt>
      <trkpt lat="43.34555" lon="2.45545">
        <ele>328.4</ele>
        <time>2023-05-28T06:55:16Z</time>
      </trkpt>
      <trkpt lat="43.34556" lon="2.45545">
        <ele>328.4</ele>
        <time>2023-05-28T06:55:17Z</time>
      </trkpt>
      <trkpt lat="43.34556" lon="2.45545">
        <ele>328.5</ele>
        <time>2023-05-28T06:55:18Z</time>
      </trkpt>
      <trkpt lat="43.34557" lon="2.45545">
        <ele>328.6</ele>
        <time>2023-05-28T06:55:19Z</time>
      </trkpt>
      <trkpt lat="43.34557" lon="2.45544">
        <ele>328.6</ele>
        <time>2023-05-28T06:55:20Z</time>
      </trkpt>
      <trkpt lat="43.34557" lon="2.45544">
        <ele>328.7</ele>
        <time>2023-05-28T06:55:21Z</time>
      </trkpt>
      <trkpt lat="43.34557" lon="2.45544">
        <ele>328.7</ele>
        <time>2023-05-28T06:55:22Z</time>
      </trkpt>
      <trkpt lat="43.34557" lon="2.45543">
        <ele>328.8</ele>
        <time>2023-05-28T06:55:23Z</time>
      </trkpt>
      <trkpt lat="43.34557" lon="2.45543">
        <ele>328.8</ele>
        <time>2023-05-28T06:55:24Z</time>
      </trkpt>
      <trkpt lat="43.34557" lon="2.45543">
        <ele>328.8</ele>
        <time>2023-05-28T06:55:25Z</time>
      </trkpt>
      <trkpt lat="43.34558" lon="2.45543">
        <ele>328.8</ele>
        <time>2023-05-28T06:55:26Z</time>
      </trkpt>
      <trkpt lat="43.34558" lon="2.45543">
        <ele>328.8</ele>
        <time>2023-05-28T06:55:27Z</time>
      </trkpt>
      <trkpt lat="43.34557" lon="2.45543">
        <ele>328.9</ele>
        <time>2023-05-28T06:55:28Z</time>
      </trkpt>
      <trkpt lat="43.34557" lon="2.45543">
        <ele>329</ele>
        <time>2023-05-28T06:55:29Z</time>
      </trkpt>
      <trkpt lat="43.34556" lon="2.45543">
        <ele>329</ele>
        <time>2023-05-28T06:55:30Z</time>
      </trkpt>
      <trkpt lat="43.34556" lon="2.45543">
        <ele>329.1</ele>
        <time>2023-05-28T06:55:31Z</time>
      </trkpt>
      <trkpt lat="43.34556" lon="2.45543">
        <ele>329.1</ele>
        <time>2023-05-28T06:55:32Z</time>
      </trkpt>
      <trkpt lat="43.34556" lon="2.45544">
        <ele>329.1</ele>
        <time>2023-05-28T06:55:33Z</time>
      </trkpt>
      <trkpt lat="43.34556" lon="2.45544">
        <ele>329.2</ele>
        <time>2023-05-28T06:55:34Z</time>
      </trkpt>
      <trkpt lat="43.34556" lon="2.45544">
        <ele>329.2</ele>
        <time>2023-05-28T06:55:35Z</time>
      </trkpt>
      <trkpt lat="43.34557" lon="2.45544">
        <ele>329.2</ele>
        <time>2023-05-28T06:55:36Z</time>
      </trkpt>
      <trkpt lat="43.34557" lon="2.45543">
        <ele>329.3</ele>
        <time>2023-05-28T06:55:37Z</time>
      </trkpt>
      <trkpt lat="43.34557" lon="2.45543">
        <ele>329.3</ele>
        <time>2023-05-28T06:55:38Z</time>
      </trkpt>
      <trkpt lat="43.34557" lon="2.45543">
        <ele>329.4</ele>
        <time>2023-05-28T06:55:39Z</time>
      </trkpt>
      <trkpt lat="43.34557" lon="2.45542">
        <ele>329.4</ele>
        <time>2023-05-28T06:55:40Z</time>
      </trkpt>
      <trkpt lat="43.34558" lon="2.45542">
        <ele>329.5</ele>
        <time>2023-05-28T06:55:41Z</time>
      </trkpt>
      <trkpt lat="43.34558" lon="2.45542">
        <ele>329.5</ele>
        <time>2023-05-28T06:55:42Z</time>
      </trkpt>
      <trkpt lat="43.34558" lon="2.45541">
        <ele>329.6</ele>
        <time>2023-05-28T06:55:43Z</time>
      </trkpt>
      <trkpt lat="43.34558" lon="2.45541">
        <ele>329.6</ele>
        <time>2023-05-28T06:55:44Z</time>
      </trkpt>
      <trkpt lat="43.34558" lon="2.4554">
        <ele>329.7</ele>
        <time>2023-05-28T06:55:45Z</time>
      </trkpt>
      <trkpt lat="43.34558" lon="2.4554">
        <ele>329.7</ele>
        <time>2023-05-28T06:55:46Z</time>
      </trkpt>
      <trkpt lat="43.34558" lon="2.45539">
        <ele>329.8</ele>
        <time>2023-05-28T06:55:47Z</time>
      </trkpt>
      <trkpt lat="43.34558" lon="2.45539">
        <ele>329.8</ele>
        <time>2023-05-28T06:55:48Z</time>
      </trkpt>
      <trkpt lat="43.34558" lon="2.45539">
        <ele>329.8</ele>
        <time>2023-05-28T06:55:49Z</time>
      </trkpt>
      <trkpt lat="43.34558" lon="2.45539">
        <ele>329.9</ele>
        <time>2023-05-28T06:55:50Z</time>
      </trkpt>
      <trkpt lat="43.34557" lon="2.45539">
        <ele>329.9</ele>
        <time>2023-05-28T06:55:51Z</time>
      </trkpt>
      <trkpt lat="43.34557" lon="2.45538">
        <ele>329.9</ele>
        <time>2023-05-28T06:55:52Z</time>
      </trkpt>
      <trkpt lat="43.34556" lon="2.45538">
        <ele>330.1</ele>
        <time>2023-05-28T06:55:53Z</time>
      </trkpt>
      <trkpt lat="43.34556" lon="2.45537">
        <ele>330.1</ele>
        <time>2023-05-28T06:55:54Z</time>
      </trkpt>
      <trkpt lat="43.34556" lon="2.45537">
        <ele>330.2</ele>
        <time>2023-05-28T06:55:55Z</time>
      </trkpt>
      <trkpt lat="43.34555" lon="2.45536">
        <ele>330.3</ele>
        <time>2023-05-28T06:55:56Z</time>
      </trkpt>
      <trkpt lat="43.34555" lon="2.45535">
        <ele>330.4</ele>
        <time>2023-05-28T06:55:57Z</time>
      </trkpt>
      <trkpt lat="43.34554" lon="2.45535">
        <ele>330.5</ele>
        <time>2023-05-28T06:55:58Z</time>
      </trkpt>
      <trkpt lat="43.34554" lon="2.45534">
        <ele>330.6</ele>
        <time>2023-05-28T06:55:59Z</time>
      </trkpt>
      <trkpt lat="43.34553" lon="2.45533">
        <ele>330.7</ele>
        <time>2023-05-28T06:56:00Z</time>
      </trkpt>
      <trkpt lat="43.34553" lon="2.45533">
        <ele>330.8</ele>
        <time>2023-05-28T06:56:01Z</time>
      </trkpt>
      <trkpt lat="43.34552" lon="2.45532">
        <ele>330.9</ele>
        <time>2023-05-28T06:56:02Z</time>
      </trkpt>
      <trkpt lat="43.3455" lon="2.4553">
        <ele>331.2</ele>
        <time>2023-05-28T06:56:03Z</time>
      </trkpt>
      <trkpt lat="43.34549" lon="2.45528">
        <ele>331.4</ele>
        <time>2023-05-28T06:56:04Z</time>
      </trkpt>
      <trkpt lat="43.34548" lon="2.45527">
        <ele>331.5</ele>
        <time>2023-05-28T06:56:05Z</time>
      </trkpt>
      <trkpt lat="43.34547" lon="2.45524">
        <ele>331.8</ele>
        <time>2023-05-28T06:56:06Z</time>
      </trkpt>
      <trkpt lat="43.34547" lon="2.45523">
        <ele>331.9</ele>
        <time>2023-05-28T06:56:07Z</time>
      </trkpt>
      <trkpt lat="43.34546" lon="2.45522">
        <ele>332</ele>
        <time>2023-05-28T06:56:08Z</time>
      </trkpt>
      <trkpt lat="43.34546" lon="2.4552">
        <ele>332.2</ele>
        <time>2023-05-28T06:56:09Z</time>
      </trkpt>
      <trkpt lat="43.34545" lon="2.45518">
        <ele>332.5</ele>
        <time>2023-05-28T06:56:10Z</time>
      </trkpt>
      <trkpt lat="43.34545" lon="2.45516">
        <ele>332.6</ele>
        <time>2023-05-28T06:56:11Z</time>
      </trkpt>
      <trkpt lat="43.34544" lon="2.45515">
        <ele>332.7</ele>
        <time>2023-05-28T06:56:12Z</time>
      </trkpt>
      <trkpt lat="43.34544" lon="2.45514">
        <ele>332.8</ele>
        <time>2023-05-28T06:56:13Z</time>
      </trkpt>
      <trkpt lat="43.34544" lon="2.45513">
        <ele>333</ele>
        <time>2023-05-28T06:56:14Z</time>
      </trkpt>
      <trkpt lat="43.34544" lon="2.45511">
        <ele>333.1</ele>
        <time>2023-05-28T06:56:15Z</time>
      </trkpt>
      <trkpt lat="43.34543" lon="2.4551">
        <ele>333.3</ele>
        <time>2023-05-28T06:56:16Z</time>
      </trkpt>
      <trkpt lat="43.34543" lon="2.45508">
        <ele>333.5</ele>
        <time>2023-05-28T06:56:17Z</time>
      </trkpt>
      <trkpt lat="43.34542" lon="2.45506">
        <ele>333.7</ele>
        <time>2023-05-28T06:56:18Z</time>
      </trkpt>
      <trkpt lat="43.34542" lon="2.45504">
        <ele>333.9</ele>
        <time>2023-05-28T06:56:19Z</time>
      </trkpt>
      <trkpt lat="43.34542" lon="2.45502">
        <ele>334.2</ele>
        <time>2023-05-28T06:56:20Z</time>
      </trkpt>
      <trkpt lat="43.34541" lon="2.45499">
        <ele>334.4</ele>
        <time>2023-05-28T06:56:21Z</time>
      </trkpt>
      <trkpt lat="43.3454" lon="2.45498">
        <ele>334.6</ele>
        <time>2023-05-28T06:56:22Z</time>
      </trkpt>
      <trkpt lat="43.3454" lon="2.45497">
        <ele>334.8</ele>
        <time>2023-05-28T06:56:23Z</time>
      </trkpt>
      <trkpt lat="43.34538" lon="2.45494">
        <ele>335.1</ele>
        <time>2023-05-28T06:56:24Z</time>
      </trkpt>
      <trkpt lat="43.34538" lon="2.45493">
        <ele>335.3</ele>
        <time>2023-05-28T06:56:25Z</time>
      </trkpt>
      <trkpt lat="43.34537" lon="2.45492">
        <ele>335.4</ele>
        <time>2023-05-28T06:56:26Z</time>
      </trkpt>
      <trkpt lat="43.34536" lon="2.45488">
        <ele>335.9</ele>
        <time>2023-05-28T06:56:27Z</time>
      </trkpt>
      <trkpt lat="43.34536" lon="2.45486">
        <ele>336.1</ele>
        <time>2023-05-28T06:56:28Z</time>
      </trkpt>
      <trkpt lat="43.34535" lon="2.45484">
        <ele>336.4</ele>
        <time>2023-05-28T06:56:29Z</time>
      </trkpt>
      <trkpt lat="43.34534" lon="2.45483">
        <ele>336.6</ele>
        <time>2023-05-28T06:56:30Z</time>
      </trkpt>
      <trkpt lat="43.34533" lon="2.45482">
        <ele>336.8</ele>
        <time>2023-05-28T06:56:31Z</time>
      </trkpt>
      <trkpt lat="43.34532" lon="2.4548">
        <ele>337.2</ele>
        <time>2023-05-28T06:56:32Z</time>
      </trkpt>
      <trkpt lat="43.34531" lon="2.45479">
        <ele>337.3</ele>
        <time>2023-05-28T06:56:33Z</time>
      </trkpt>
      <trkpt lat="43.34531" lon="2.45478">
        <ele>337.5</ele>
        <time>2023-05-28T06:56:34Z</time>
      </trkpt>
      <trkpt lat="43.3453" lon="2.45475">
        <ele>337.9</ele>
        <time>2023-05-28T06:56:35Z</time>
      </trkpt>
      <trkpt lat="43.34529" lon="2.45474">
        <ele>338.1</ele>
        <time>2023-05-28T06:56:36Z</time>
      </trkpt>
      <trkpt lat="43.34529" lon="2.45473">
        <ele>338.3</ele>
        <time>2023-05-28T06:56:37Z</time>
      </trkpt>
      <trkpt lat="43.34528" lon="2.45471">
        <ele>338.5</ele>
        <time>2023-05-28T06:56:38Z</time>
      </trkpt>
      <trkpt lat="43.34528" lon="2.45469">
        <ele>338.7</ele>
        <time>2023-05-28T06:56:39Z</time>
      </trkpt>
      <trkpt lat="43.34528" lon="2.45468">
        <ele>338.9</ele>
        <time>2023-05-28T06:56:40Z</time>
      </trkpt>
      <trkpt lat="43.34528" lon="2.45467">
        <ele>339</ele>
        <time>2023-05-28T06:56:41Z</time>
      </trkpt>
      <trkpt lat="43.34527" lon="2.45467">
        <ele>339.1</ele>
        <time>2023-05-28T06:56:42Z</time>
      </trkpt>
      <trkpt lat="43.34527" lon="2.45466">
        <ele>339.2</ele>
        <time>2023-05-28T06:56:43Z</time>
      </trkpt>
      <trkpt lat="43.34526" lon="2.45464">
        <ele>339.5</ele>
        <time>2023-05-28T06:56:44Z</time>
      </trkpt>
      <trkpt lat="43.34523" lon="2.4546">
        <ele>340.2</ele>
        <time>2023-05-28T06:56:45Z</time>
      </trkpt>
      <trkpt lat="43.34523" lon="2.45458">
        <ele>340.5</ele>
        <time>2023-05-28T06:56:46Z</time>
      </trkpt>
      <trkpt lat="43.34522" lon="2.45456">
        <ele>340.8</ele>
        <time>2023-05-28T06:56:47Z</time>
      </trkpt>
      <trkpt lat="43.34521" lon="2.45455">
        <ele>341</ele>
        <time>2023-05-28T06:56:48Z</time>
      </trkpt>
      <trkpt lat="43.34521" lon="2.45453">
        <ele>341.2</ele>
        <time>2023-05-28T06:56:49Z</time>
      </trkpt>
      <trkpt lat="43.34521" lon="2.45452">
        <ele>341.5</ele>
        <time>2023-05-28T06:56:50Z</time>
      </trkpt>
      <trkpt lat="43.3452" lon="2.4545">
        <ele>341.7</ele>
        <time>2023-05-28T06:56:51Z</time>
      </trkpt>
      <trkpt lat="43.34519" lon="2.45449">
        <ele>341.8</ele>
        <time>2023-05-28T06:56:52Z</time>
      </trkpt>
      <trkpt lat="43.34519" lon="2.45449">
        <ele>341.9</ele>
        <time>2023-05-28T06:56:53Z</time>
      </trkpt>
      <trkpt lat="43.34518" lon="2.45449">
        <ele>342.1</ele>
        <time>2023-05-28T06:56:54Z</time>
      </trkpt>
      <trkpt lat="43.34517" lon="2.45449">
        <ele>342.3</ele>
        <time>2023-05-28T06:56:55Z</time>
      </trkpt>
      <trkpt lat="43.34513" lon="2.4545">
        <ele>343</ele>
        <time>2023-05-28T06:56:56Z</time>
      </trkpt>
      <trkpt lat="43.34512" lon="2.4545">
        <ele>343.3</ele>
        <time>2023-05-28T06:56:57Z</time>
      </trkpt>
      <trkpt lat="43.34508" lon="2.45451">
        <ele>343.9</ele>
        <time>2023-05-28T06:56:58Z</time>
      </trkpt>
      <trkpt lat="43.34507" lon="2.45451">
        <ele>344.2</ele>
        <time>2023-05-28T06:56:59Z</time>
      </trkpt>
      <trkpt lat="43.34505" lon="2.45452">
        <ele>344.6</ele>
        <time>2023-05-28T06:57:00Z</time>
      </trkpt>
      <trkpt lat="43.34503" lon="2.45452">
        <ele>344.8</ele>
        <time>2023-05-28T06:57:01Z</time>
      </trkpt>
      <trkpt lat="43.34502" lon="2.45452">
        <ele>345</ele>
        <time>2023-05-28T06:57:02Z</time>
      </trkpt>
      <trkpt lat="43.34499" lon="2.4545">
        <ele>345.5</ele>
        <time>2023-05-28T06:57:03Z</time>
      </trkpt>
      <trkpt lat="43.34499" lon="2.45449">
        <ele>345.7</ele>
        <time>2023-05-28T06:57:04Z</time>
      </trkpt>
      <trkpt lat="43.34499" lon="2.45447">
        <ele>346</ele>
        <time>2023-05-28T06:57:05Z</time>
      </trkpt>
      <trkpt lat="43.34498" lon="2.45444">
        <ele>346.3</ele>
        <time>2023-05-28T06:57:06Z</time>
      </trkpt>
      <trkpt lat="43.34497" lon="2.45442">
        <ele>346.6</ele>
        <time>2023-05-28T06:57:07Z</time>
      </trkpt>
      <trkpt lat="43.34497" lon="2.45442">
        <ele>346.7</ele>
        <time>2023-05-28T06:57:08Z</time>
      </trkpt>
      <trkpt lat="43.34496" lon="2.45441">
        <ele>346.9</ele>
        <time>2023-05-28T06:57:09Z</time>
      </trkpt>
      <trkpt lat="43.34495" lon="2.45441">
        <ele>347.1</ele>
        <time>2023-05-28T06:57:10Z</time>
      </trkpt>
      <trkpt lat="43.34494" lon="2.4544">
        <ele>347.2</ele>
        <time>2023-05-28T06:57:11Z</time>
      </trkpt>
      <trkpt lat="43.34493" lon="2.45439">
        <ele>347.5</ele>
        <time>2023-05-28T06:57:12Z</time>
      </trkpt>
      <trkpt lat="43.34493" lon="2.45437">
        <ele>347.7</ele>
        <time>2023-05-28T06:57:13Z</time>
      </trkpt>
      <trkpt lat="43.34493" lon="2.45436">
        <ele>347.9</ele>
        <time>2023-05-28T06:57:14Z</time>
      </trkpt>
      <trkpt lat="43.34492" lon="2.45435">
        <ele>348.1</ele>
        <time>2023-05-28T06:57:15Z</time>
      </trkpt>
      <trkpt lat="43.34489" lon="2.45434">
        <ele>348.6</ele>
        <time>2023-05-28T06:57:16Z</time>
      </trkpt>
      <trkpt lat="43.34488" lon="2.45433">
        <ele>348.8</ele>
        <time>2023-05-28T06:57:17Z</time>
      </trkpt>
      <trkpt lat="43.34487" lon="2.45433">
        <ele>349</ele>
        <time>2023-05-28T06:57:18Z</time>
      </trkpt>
      <trkpt lat="43.34484" lon="2.45432">
        <ele>349.7</ele>
        <time>2023-05-28T06:57:19Z</time>
      </trkpt>
      <trkpt lat="43.34483" lon="2.45431">
        <ele>349.9</ele>
        <time>2023-05-28T06:57:20Z</time>
      </trkpt>
      <trkpt lat="43.34482" lon="2.4543">
        <ele>350.3</ele>
        <time>2023-05-28T06:57:21Z</time>
      </trkpt>
      <trkpt lat="43.34481" lon="2.45429">
        <ele>350.5</ele>
        <time>2023-05-28T06:57:22Z</time>
      </trkpt>
      <trkpt lat="43.34479" lon="2.45427">
        <ele>350.9</ele>
        <time>2023-05-28T06:57:23Z</time>
      </trkpt>
      <trkpt lat="43.34478" lon="2.45427">
        <ele>351.1</ele>
        <time>2023-05-28T06:57:24Z</time>
      </trkpt>
      <trkpt lat="43.34476" lon="2.45426">
        <ele>351.5</ele>
        <time>2023-05-28T06:57:25Z</time>
      </trkpt>
      <trkpt lat="43.34475" lon="2.45425">
        <ele>351.7</ele>
        <time>2023-05-28T06:57:26Z</time>
      </trkpt>
      <trkpt lat="43.34474" lon="2.45423">
        <ele>351.9</ele>
        <time>2023-05-28T06:57:27Z</time>
      </trkpt>
      <trkpt lat="43.34473" lon="2.45422">
        <ele>352</ele>
        <time>2023-05-28T06:57:28Z</time>
      </trkpt>
      <trkpt lat="43.34473" lon="2.45422">
        <ele>352.1</ele>
        <time>2023-05-28T06:57:29Z</time>
      </trkpt>
      <trkpt lat="43.34472" lon="2.45421">
        <ele>352.2</ele>
        <time>2023-05-28T06:57:30Z</time>
      </trkpt>
      <trkpt lat="43.34471" lon="2.4542">
        <ele>352.4</ele>
        <time>2023-05-28T06:57:31Z</time>
      </trkpt>
      <trkpt lat="43.34471" lon="2.45419">
        <ele>352.5</ele>
        <time>2023-05-28T06:57:32Z</time>
      </trkpt>
      <trkpt lat="43.34471" lon="2.45417">
        <ele>352.6</ele>
        <time>2023-05-28T06:57:33Z</time>
      </trkpt>
      <trkpt lat="43.34471" lon="2.45416">
        <ele>352.7</ele>
        <time>2023-05-28T06:57:34Z</time>
      </trkpt>
      <trkpt lat="43.3447" lon="2.45415">
        <ele>352.9</ele>
        <time>2023-05-28T06:57:35Z</time>
      </trkpt>
      <trkpt lat="43.34469" lon="2.45414">
        <ele>353</ele>
        <time>2023-05-28T06:57:36Z</time>
      </trkpt>
      <trkpt lat="43.34467" lon="2.45413">
        <ele>353.2</ele>
        <time>2023-05-28T06:57:37Z</time>
      </trkpt>
      <trkpt lat="43.34466" lon="2.45411">
        <ele>353.3</ele>
        <time>2023-05-28T06:57:38Z</time>
      </trkpt>
      <trkpt lat="43.34465" lon="2.45409">
        <ele>353.5</ele>
        <time>2023-05-28T06:57:39Z</time>
      </trkpt>
      <trkpt lat="43.34464" lon="2.45408">
        <ele>353.6</ele>
        <time>2023-05-28T06:57:40Z</time>
      </trkpt>
      <trkpt lat="43.34463" lon="2.45406">
        <ele>353.7</ele>
        <time>2023-05-28T06:57:41Z</time>
      </trkpt>
      <trkpt lat="43.34462" lon="2.45404">
        <ele>353.9</ele>
        <time>2023-05-28T06:57:42Z</time>
      </trkpt>
      <trkpt lat="43.3446" lon="2.45401">
        <ele>354.1</ele>
        <time>2023-05-28T06:57:43Z</time>
      </trkpt>
      <trkpt lat="43.34459" lon="2.454">
        <ele>354.2</ele>
        <time>2023-05-28T06:57:44Z</time>
      </trkpt>
      <trkpt lat="43.34458" lon="2.45398">
        <ele>354.3</ele>
        <time>2023-05-28T06:57:45Z</time>
      </trkpt>
      <trkpt lat="43.34457" lon="2.45396">
        <ele>354.4</ele>
        <time>2023-05-28T06:57:46Z</time>
      </trkpt>
      <trkpt lat="43.34456" lon="2.45395">
        <ele>354.6</ele>
        <time>2023-05-28T06:57:47Z</time>
      </trkpt>
      <trkpt lat="43.34455" lon="2.45394">
        <ele>354.7</ele>
        <time>2023-05-28T06:57:48Z</time>
      </trkpt>
      <trkpt lat="43.34453" lon="2.45391">
        <ele>354.9</ele>
        <time>2023-05-28T06:57:49Z</time>
      </trkpt>
      <trkpt lat="43.34452" lon="2.4539">
        <ele>354.9</ele>
        <time>2023-05-28T06:57:50Z</time>
      </trkpt>
      <trkpt lat="43.34451" lon="2.45386">
        <ele>355.2</ele>
        <time>2023-05-28T06:57:51Z</time>
      </trkpt>
      <trkpt lat="43.34451" lon="2.45384">
        <ele>355.3</ele>
        <time>2023-05-28T06:57:52Z</time>
      </trkpt>
      <trkpt lat="43.3445" lon="2.45383">
        <ele>355.3</ele>
        <time>2023-05-28T06:57:53Z</time>
      </trkpt>
      <trkpt lat="43.3445" lon="2.45382">
        <ele>355.4</ele>
        <time>2023-05-28T06:57:54Z</time>
      </trkpt>
      <trkpt lat="43.3445" lon="2.4538">
        <ele>355.5</ele>
        <time>2023-05-28T06:57:55Z</time>
      </trkpt>
      <trkpt lat="43.34449" lon="2.45378">
        <ele>355.7</ele>
        <time>2023-05-28T06:57:56Z</time>
      </trkpt>
      <trkpt lat="43.34449" lon="2.45376">
        <ele>355.8</ele>
        <time>2023-05-28T06:57:57Z</time>
      </trkpt>
      <trkpt lat="43.34448" lon="2.45373">
        <ele>356</ele>
        <time>2023-05-28T06:57:58Z</time>
      </trkpt>
      <trkpt lat="43.34448" lon="2.45372">
        <ele>356</ele>
        <time>2023-05-28T06:57:59Z</time>
      </trkpt>
      <trkpt lat="43.34447" lon="2.45371">
        <ele>356.1</ele>
        <time>2023-05-28T06:58:00Z</time>
      </trkpt>
      <trkpt lat="43.34445" lon="2.45369">
        <ele>356.4</ele>
        <time>2023-05-28T06:58:01Z</time>
      </trkpt>
      <trkpt lat="43.34444" lon="2.45368">
        <ele>356.5</ele>
        <time>2023-05-28T06:58:02Z</time>
      </trkpt>
      <trkpt lat="43.34442" lon="2.45367">
        <ele>356.6</ele>
        <time>2023-05-28T06:58:03Z</time>
      </trkpt>
      <trkpt lat="43.34441" lon="2.45365">
        <ele>356.8</ele>
        <time>2023-05-28T06:58:04Z</time>
      </trkpt>
      <trkpt lat="43.3444" lon="2.45363">
        <ele>357</ele>
        <time>2023-05-28T06:58:05Z</time>
      </trkpt>
      <trkpt lat="43.3444" lon="2.45362">
        <ele>357.1</ele>
        <time>2023-05-28T06:58:06Z</time>
      </trkpt>
      <trkpt lat="43.34439" lon="2.45361">
        <ele>357.1</ele>
        <time>2023-05-28T06:58:07Z</time>
      </trkpt>
      <trkpt lat="43.34438" lon="2.4536">
        <ele>357.3</ele>
        <time>2023-05-28T06:58:08Z</time>
      </trkpt>
      <trkpt lat="43.34437" lon="2.45358">
        <ele>357.5</ele>
        <time>2023-05-28T06:58:09Z</time>
      </trkpt>
      <trkpt lat="43.34435" lon="2.45355">
        <ele>357.8</ele>
        <time>2023-05-28T06:58:10Z</time>
      </trkpt>
      <trkpt lat="43.34435" lon="2.45354">
        <ele>357.9</ele>
        <time>2023-05-28T06:58:11Z</time>
      </trkpt>
      <trkpt lat="43.34434" lon="2.45351">
        <ele>358.2</ele>
        <time>2023-05-28T06:58:12Z</time>
      </trkpt>
      <trkpt lat="43.34433" lon="2.4535">
        <ele>358.4</ele>
        <time>2023-05-28T06:58:13Z</time>
      </trkpt>
      <trkpt lat="43.34431" lon="2.45349">
        <ele>358.6</ele>
        <time>2023-05-28T06:58:14Z</time>
      </trkpt>
      <trkpt lat="43.3443" lon="2.45349">
        <ele>358.7</ele>
        <time>2023-05-28T06:58:15Z</time>
      </trkpt>
      <trkpt lat="43.34428" lon="2.45347">
        <ele>359</ele>
        <time>2023-05-28T06:58:16Z</time>
      </trkpt>
      <trkpt lat="43.34427" lon="2.45347">
        <ele>359.1</ele>
        <time>2023-05-28T06:58:17Z</time>
      </trkpt>
      <trkpt lat="43.34427" lon="2.45346">
        <ele>359.2</ele>
        <time>2023-05-28T06:58:18Z</time>
      </trkpt>
      <trkpt lat="43.34426" lon="2.45344">
        <ele>359.4</ele>
        <time>2023-05-28T06:58:19Z</time>
      </trkpt>
      <trkpt lat="43.34425" lon="2.45343">
        <ele>359.5</ele>
        <time>2023-05-28T06:58:20Z</time>
      </trkpt>
      <trkpt lat="43.34425" lon="2.45342">
        <ele>359.6</ele>
        <time>2023-05-28T06:58:21Z</time>
      </trkpt>
      <trkpt lat="43.34424" lon="2.4534">
        <ele>359.9</ele>
        <time>2023-05-28T06:58:22Z</time>
      </trkpt>
      <trkpt lat="43.34424" lon="2.45338">
        <ele>360</ele>
        <time>2023-05-28T06:58:23Z</time>
      </trkpt>
      <trkpt lat="43.34423" lon="2.45337">
        <ele>360.2</ele>
        <time>2023-05-28T06:58:24Z</time>
      </trkpt>
      <trkpt lat="43.34422" lon="2.45335">
        <ele>360.4</ele>
        <time>2023-05-28T06:58:25Z</time>
      </trkpt>
      <trkpt lat="43.3442" lon="2.45331">
        <ele>360.9</ele>
        <time>2023-05-28T06:58:26Z</time>
      </trkpt>
      <trkpt lat="43.34419" lon="2.4533">
        <ele>361.1</ele>
        <time>2023-05-28T06:58:27Z</time>
      </trkpt>
      <trkpt lat="43.34418" lon="2.45326">
        <ele>361.5</ele>
        <time>2023-05-28T06:58:28Z</time>
      </trkpt>
      <trkpt lat="43.34418" lon="2.45325">
        <ele>361.6</ele>
        <time>2023-05-28T06:58:29Z</time>
      </trkpt>
      <trkpt lat="43.34415" lon="2.45322">
        <ele>362.1</ele>
        <time>2023-05-28T06:58:30Z</time>
      </trkpt>
      <trkpt lat="43.34414" lon="2.45321">
        <ele>362.3</ele>
        <time>2023-05-28T06:58:31Z</time>
      </trkpt>
      <trkpt lat="43.34412" lon="2.45318">
        <ele>362.7</ele>
        <time>2023-05-28T06:58:32Z</time>
      </trkpt>
      <trkpt lat="43.34411" lon="2.45317">
        <ele>362.9</ele>
        <time>2023-05-28T06:58:33Z</time>
      </trkpt>
      <trkpt lat="43.34411" lon="2.45316">
        <ele>363.1</ele>
        <time>2023-05-28T06:58:34Z</time>
      </trkpt>
      <trkpt lat="43.3441" lon="2.45314">
        <ele>363.3</ele>
        <time>2023-05-28T06:58:35Z</time>
      </trkpt>
      <trkpt lat="43.34407" lon="2.4531">
        <ele>363.8</ele>
        <time>2023-05-28T06:58:36Z</time>
      </trkpt>
      <trkpt lat="43.34407" lon="2.45309">
        <ele>364</ele>
        <time>2023-05-28T06:58:37Z</time>
      </trkpt>
      <trkpt lat="43.34404" lon="2.45307">
        <ele>364.4</ele>
        <time>2023-05-28T06:58:38Z</time>
      </trkpt>
      <trkpt lat="43.34404" lon="2.45306">
        <ele>364.5</ele>
        <time>2023-05-28T06:58:39Z</time>
      </trkpt>
      <trkpt lat="43.34402" lon="2.45304">
        <ele>365</ele>
        <time>2023-05-28T06:58:40Z</time>
      </trkpt>
      <trkpt lat="43.34401" lon="2.45303">
        <ele>365.1</ele>
        <time>2023-05-28T06:58:41Z</time>
      </trkpt>
      <trkpt lat="43.34399" lon="2.45299">
        <ele>365.6</ele>
        <time>2023-05-28T06:58:42Z</time>
      </trkpt>
      <trkpt lat="43.34399" lon="2.45299">
        <ele>365.8</ele>
        <time>2023-05-28T06:58:43Z</time>
      </trkpt>
      <trkpt lat="43.34398" lon="2.45297">
        <ele>366</ele>
        <time>2023-05-28T06:58:44Z</time>
      </trkpt>
      <trkpt lat="43.34397" lon="2.45295">
        <ele>366.3</ele>
        <time>2023-05-28T06:58:45Z</time>
      </trkpt>
      <trkpt lat="43.34397" lon="2.45291">
        <ele>366.7</ele>
        <time>2023-05-28T06:58:46Z</time>
      </trkpt>
      <trkpt lat="43.34397" lon="2.4529">
        <ele>366.9</ele>
        <time>2023-05-28T06:58:47Z</time>
      </trkpt>
      <trkpt lat="43.34397" lon="2.45288">
        <ele>367.1</ele>
        <time>2023-05-28T06:58:48Z</time>
      </trkpt>
      <trkpt lat="43.34397" lon="2.45287">
        <ele>367.3</ele>
        <time>2023-05-28T06:58:49Z</time>
      </trkpt>
      <trkpt lat="43.34398" lon="2.45285">
        <ele>367.5</ele>
        <time>2023-05-28T06:58:50Z</time>
      </trkpt>
      <trkpt lat="43.34398" lon="2.45283">
        <ele>367.8</ele>
        <time>2023-05-28T06:58:51Z</time>
      </trkpt>
      <trkpt lat="43.34397" lon="2.45281">
        <ele>368</ele>
        <time>2023-05-28T06:58:52Z</time>
      </trkpt>
      <trkpt lat="43.34397" lon="2.45278">
        <ele>368.4</ele>
        <time>2023-05-28T06:58:53Z</time>
      </trkpt>
      <trkpt lat="43.34397" lon="2.45277">
        <ele>368.5</ele>
        <time>2023-05-28T06:58:54Z</time>
      </trkpt>
      <trkpt lat="43.34397" lon="2.45276">
        <ele>368.6</ele>
        <time>2023-05-28T06:58:55Z</time>
      </trkpt>
      <trkpt lat="43.34397" lon="2.45274">
        <ele>368.9</ele>
        <time>2023-05-28T06:58:56Z</time>
      </trkpt>
      <trkpt lat="43.34396" lon="2.45272">
        <ele>369.1</ele>
        <time>2023-05-28T06:58:57Z</time>
      </trkpt>
      <trkpt lat="43.34396" lon="2.45272">
        <ele>369.2</ele>
        <time>2023-05-28T06:58:58Z</time>
      </trkpt>
      <trkpt lat="43.34396" lon="2.4527">
        <ele>369.4</ele>
        <time>2023-05-28T06:58:59Z</time>
      </trkpt>
      <trkpt lat="43.34396" lon="2.45268">
        <ele>369.7</ele>
        <time>2023-05-28T06:59:00Z</time>
      </trkpt>
      <trkpt lat="43.34396" lon="2.45266">
        <ele>369.9</ele>
        <time>2023-05-28T06:59:01Z</time>
      </trkpt>
      <trkpt lat="43.34395" lon="2.45264">
        <ele>370.1</ele>
        <time>2023-05-28T06:59:02Z</time>
      </trkpt>
      <trkpt lat="43.34395" lon="2.45262">
        <ele>370.4</ele>
        <time>2023-05-28T06:59:03Z</time>
      </trkpt>
      <trkpt lat="43.34395" lon="2.4526">
        <ele>370.6</ele>
        <time>2023-05-28T06:59:04Z</time>
      </trkpt>
      <trkpt lat="43.34395" lon="2.45258">
        <ele>370.9</ele>
        <time>2023-05-28T06:59:05Z</time>
      </trkpt>
      <trkpt lat="43.34394" lon="2.45256">
        <ele>371.2</ele>
        <time>2023-05-28T06:59:06Z</time>
      </trkpt>
      <trkpt lat="43.34394" lon="2.45254">
        <ele>371.3</ele>
        <time>2023-05-28T06:59:07Z</time>
      </trkpt>
      <trkpt lat="43.34394" lon="2.45253">
        <ele>371.5</ele>
        <time>2023-05-28T06:59:08Z</time>
      </trkpt>
      <trkpt lat="43.34394" lon="2.45252">
        <ele>371.6</ele>
        <time>2023-05-28T06:59:09Z</time>
      </trkpt>
      <trkpt lat="43.34393" lon="2.45251">
        <ele>371.8</ele>
        <time>2023-05-28T06:59:10Z</time>
      </trkpt>
      <trkpt lat="43.34393" lon="2.4525">
        <ele>371.9</ele>
        <time>2023-05-28T06:59:11Z</time>
      </trkpt>
      <trkpt lat="43.34393" lon="2.45248">
        <ele>372.2</ele>
        <time>2023-05-28T06:59:12Z</time>
      </trkpt>
      <trkpt lat="43.34394" lon="2.45246">
        <ele>372.4</ele>
        <time>2023-05-28T06:59:13Z</time>
      </trkpt>
      <trkpt lat="43.34394" lon="2.45244">
        <ele>372.7</ele>
        <time>2023-05-28T06:59:14Z</time>
      </trkpt>
      <trkpt lat="43.34394" lon="2.45242">
        <ele>372.9</ele>
        <time>2023-05-28T06:59:15Z</time>
      </trkpt>
      <trkpt lat="43.34394" lon="2.45241">
        <ele>373</ele>
        <time>2023-05-28T06:59:16Z</time>
      </trkpt>
      <trkpt lat="43.34394" lon="2.45239">
        <ele>373.3</ele>
        <time>2023-05-28T06:59:17Z</time>
      </trkpt>
      <trkpt lat="43.34394" lon="2.45237">
        <ele>373.5</ele>
        <time>2023-05-28T06:59:18Z</time>
      </trkpt>
      <trkpt lat="43.34394" lon="2.45234">
        <ele>373.9</ele>
        <time>2023-05-28T06:59:19Z</time>
      </trkpt>
      <trkpt lat="43.34394" lon="2.45233">
        <ele>374.1</ele>
        <time>2023-05-28T06:59:20Z</time>
      </trkpt>
      <trkpt lat="43.34393" lon="2.45232">
        <ele>374.3</ele>
        <time>2023-05-28T06:59:21Z</time>
      </trkpt>
      <trkpt lat="43.34393" lon="2.45231">
        <ele>374.4</ele>
        <time>2023-05-28T06:59:22Z</time>
      </trkpt>
      <trkpt lat="43.34393" lon="2.45229">
        <ele>374.7</ele>
        <time>2023-05-28T06:59:23Z</time>
      </trkpt>
      <trkpt lat="43.34392" lon="2.45228">
        <ele>374.9</ele>
        <time>2023-05-28T06:59:24Z</time>
      </trkpt>
      <trkpt lat="43.34392" lon="2.45226">
        <ele>375</ele>
        <time>2023-05-28T06:59:25Z</time>
      </trkpt>
      <trkpt lat="43.34392" lon="2.45225">
        <ele>375.2</ele>
        <time>2023-05-28T06:59:26Z</time>
      </trkpt>
      <trkpt lat="43.34392" lon="2.45224">
        <ele>375.4</ele>
        <time>2023-05-28T06:59:27Z</time>
      </trkpt>
      <trkpt lat="43.34393" lon="2.45223">
        <ele>375.5</ele>
        <time>2023-05-28T06:59:28Z</time>
      </trkpt>
      <trkpt lat="43.34393" lon="2.45221">
        <ele>375.7</ele>
        <time>2023-05-28T06:59:29Z</time>
      </trkpt>
      <trkpt lat="43.34393" lon="2.4522">
        <ele>375.9</ele>
        <time>2023-05-28T06:59:30Z</time>
      </trkpt>
      <trkpt lat="43.34393" lon="2.45217">
        <ele>376.4</ele>
        <time>2023-05-28T06:59:31Z</time>
      </trkpt>
      <trkpt lat="43.34393" lon="2.45215">
        <ele>376.5</ele>
        <time>2023-05-28T06:59:32Z</time>
      </trkpt>
      <trkpt lat="43.34393" lon="2.45214">
        <ele>376.7</ele>
        <time>2023-05-28T06:59:33Z</time>
      </trkpt>
      <trkpt lat="43.34393" lon="2.45212">
        <ele>377</ele>
        <time>2023-05-28T06:59:34Z</time>
      </trkpt>
      <trkpt lat="43.34393" lon="2.4521">
        <ele>377.3</ele>
        <time>2023-05-28T06:59:35Z</time>
      </trkpt>
      <trkpt lat="43.34393" lon="2.45208">
        <ele>377.6</ele>
        <time>2023-05-28T06:59:36Z</time>
      </trkpt>
      <trkpt lat="43.34393" lon="2.45205">
        <ele>377.9</ele>
        <time>2023-05-28T06:59:37Z</time>
      </trkpt>
      <trkpt lat="43.34394" lon="2.45201">
        <ele>378.5</ele>
        <time>2023-05-28T06:59:38Z</time>
      </trkpt>
      <trkpt lat="43.34394" lon="2.452">
        <ele>378.8</ele>
        <time>2023-05-28T06:59:39Z</time>
      </trkpt>
      <trkpt lat="43.34395" lon="2.45197">
        <ele>379.1</ele>
        <time>2023-05-28T06:59:40Z</time>
      </trkpt>
      <trkpt lat="43.34396" lon="2.45195">
        <ele>379.4</ele>
        <time>2023-05-28T06:59:41Z</time>
      </trkpt>
      <trkpt lat="43.34397" lon="2.45193">
        <ele>379.8</ele>
        <time>2023-05-28T06:59:42Z</time>
      </trkpt>
      <trkpt lat="43.34397" lon="2.45192">
        <ele>380</ele>
        <time>2023-05-28T06:59:43Z</time>
      </trkpt>
      <trkpt lat="43.34398" lon="2.45189">
        <ele>380.4</ele>
        <time>2023-05-28T06:59:44Z</time>
      </trkpt>
      <trkpt lat="43.34398" lon="2.45188">
        <ele>380.6</ele>
        <time>2023-05-28T06:59:45Z</time>
      </trkpt>
      <trkpt lat="43.34399" lon="2.45187">
        <ele>380.7</ele>
        <time>2023-05-28T06:59:46Z</time>
      </trkpt>
      <trkpt lat="43.34399" lon="2.45185">
        <ele>381</ele>
        <time>2023-05-28T06:59:47Z</time>
      </trkpt>
      <trkpt lat="43.344" lon="2.45184">
        <ele>381.2</ele>
        <time>2023-05-28T06:59:48Z</time>
      </trkpt>
      <trkpt lat="43.344" lon="2.45183">
        <ele>381.4</ele>
        <time>2023-05-28T06:59:49Z</time>
      </trkpt>
      <trkpt lat="43.344" lon="2.45181">
        <ele>381.6</ele>
        <time>2023-05-28T06:59:50Z</time>
      </trkpt>
      <trkpt lat="43.34401" lon="2.4518">
        <ele>381.8</ele>
        <time>2023-05-28T06:59:51Z</time>
      </trkpt>
      <trkpt lat="43.34401" lon="2.45179">
        <ele>382</ele>
        <time>2023-05-28T06:59:52Z</time>
      </trkpt>
      <trkpt lat="43.34402" lon="2.45176">
        <ele>382.4</ele>
        <time>2023-05-28T06:59:53Z</time>
      </trkpt>
      <trkpt lat="43.34403" lon="2.45175">
        <ele>382.5</ele>
        <time>2023-05-28T06:59:54Z</time>
      </trkpt>
      <trkpt lat="43.34403" lon="2.45174">
        <ele>382.7</ele>
        <time>2023-05-28T06:59:55Z</time>
      </trkpt>
      <trkpt lat="43.34403" lon="2.45173">
        <ele>382.8</ele>
        <time>2023-05-28T06:59:56Z</time>
      </trkpt>
      <trkpt lat="43.34404" lon="2.45173">
        <ele>382.9</ele>
        <time>2023-05-28T06:59:57Z</time>
      </trkpt>
      <trkpt lat="43.34404" lon="2.45172">
        <ele>383</ele>
        <time>2023-05-28T06:59:58Z</time>
      </trkpt>
      <trkpt lat="43.34404" lon="2.45171">
        <ele>383.1</ele>
        <time>2023-05-28T06:59:59Z</time>
      </trkpt>
      <trkpt lat="43.34404" lon="2.45171">
        <ele>383.2</ele>
        <time>2023-05-28T07:00:00Z</time>
      </trkpt>
      <trkpt lat="43.34403" lon="2.45171">
        <ele>383.3</ele>
        <time>2023-05-28T07:00:01Z</time>
      </trkpt>
      <trkpt lat="43.34402" lon="2.45171">
        <ele>383.5</ele>
        <time>2023-05-28T07:00:02Z</time>
      </trkpt>
      <trkpt lat="43.34401" lon="2.45171">
        <ele>383.6</ele>
        <time>2023-05-28T07:00:03Z</time>
      </trkpt>
      <trkpt lat="43.34399" lon="2.45172">
        <ele>383.9</ele>
        <time>2023-05-28T07:00:04Z</time>
      </trkpt>
      <trkpt lat="43.34398" lon="2.45172">
        <ele>384.1</ele>
        <time>2023-05-28T07:00:05Z</time>
      </trkpt>
      <trkpt lat="43.34398" lon="2.45172">
        <ele>384.2</ele>
        <time>2023-05-28T07:00:06Z</time>
      </trkpt>
      <trkpt lat="43.34397" lon="2.45172">
        <ele>384.4</ele>
        <time>2023-05-28T07:00:07Z</time>
      </trkpt>
      <trkpt lat="43.34395" lon="2.45171">
        <ele>384.8</ele>
        <time>2023-05-28T07:00:08Z</time>
      </trkpt>
      <trkpt lat="43.34394" lon="2.45171">
        <ele>384.9</ele>
        <time>2023-05-28T07:00:09Z</time>
      </trkpt>
      <trkpt lat="43.34393" lon="2.45171">
        <ele>385.1</ele>
        <time>2023-05-28T07:00:10Z</time>
      </trkpt>
      <trkpt lat="43.34392" lon="2.45171">
        <ele>385.3</ele>
        <time>2023-05-28T07:00:11Z</time>
      </trkpt>
      <trkpt lat="43.3439" lon="2.4517">
        <ele>385.5</ele>
        <time>2023-05-28T07:00:12Z</time>
      </trkpt>
      <trkpt lat="43.34389" lon="2.4517">
        <ele>385.8</ele>
        <time>2023-05-28T07:00:13Z</time>
      </trkpt>
      <trkpt lat="43.34388" lon="2.4517">
        <ele>385.9</ele>
        <time>2023-05-28T07:00:14Z</time>
      </trkpt>
      <trkpt lat="43.34387" lon="2.45171">
        <ele>386.1</ele>
        <time>2023-05-28T07:00:15Z</time>
      </trkpt>
      <trkpt lat="43.34385" lon="2.4517">
        <ele>386.4</ele>
        <time>2023-05-28T07:00:16Z</time>
      </trkpt>
      <trkpt lat="43.34385" lon="2.45169">
        <ele>386.6</ele>
        <time>2023-05-28T07:00:17Z</time>
      </trkpt>
      <trkpt lat="43.34384" lon="2.45168">
        <ele>386.8</ele>
        <time>2023-05-28T07:00:18Z</time>
      </trkpt>
      <trkpt lat="43.34383" lon="2.45166">
        <ele>387</ele>
        <time>2023-05-28T07:00:19Z</time>
      </trkpt>
      <trkpt lat="43.34382" lon="2.45165">
        <ele>387.4</ele>
        <time>2023-05-28T07:00:20Z</time>
      </trkpt>
      <trkpt lat="43.34379" lon="2.45161">
        <ele>388</ele>
        <time>2023-05-28T07:00:21Z</time>
      </trkpt>
      <trkpt lat="43.34378" lon="2.4516">
        <ele>388.2</ele>
        <time>2023-05-28T07:00:22Z</time>
      </trkpt>
      <trkpt lat="43.34376" lon="2.45156">
        <ele>388.9</ele>
        <time>2023-05-28T07:00:23Z</time>
      </trkpt>
      <trkpt lat="43.34376" lon="2.45155">
        <ele>389</ele>
        <time>2023-05-28T07:00:24Z</time>
      </trkpt>
      <trkpt lat="43.34375" lon="2.45153">
        <ele>389.4</ele>
        <time>2023-05-28T07:00:25Z</time>
      </trkpt>
      <trkpt lat="43.34374" lon="2.45152">
        <ele>389.7</ele>
        <time>2023-05-28T07:00:26Z</time>
      </trkpt>
      <trkpt lat="43.34372" lon="2.4515">
        <ele>390.1</ele>
        <time>2023-05-28T07:00:27Z</time>
      </trkpt>
      <trkpt lat="43.34371" lon="2.45149">
        <ele>390.3</ele>
        <time>2023-05-28T07:00:28Z</time>
      </trkpt>
      <trkpt lat="43.34369" lon="2.45148">
        <ele>390.7</ele>
        <time>2023-05-28T07:00:29Z</time>
      </trkpt>
      <trkpt lat="43.34368" lon="2.45148">
        <ele>390.9</ele>
        <time>2023-05-28T07:00:30Z</time>
      </trkpt>
      <trkpt lat="43.34367" lon="2.45148">
        <ele>391.1</ele>
        <time>2023-05-28T07:00:31Z</time>
      </trkpt>
      <trkpt lat="43.34365" lon="2.45149">
        <ele>391.5</ele>
        <time>2023-05-28T07:00:32Z</time>
      </trkpt>
      <trkpt lat="43.34365" lon="2.45149">
        <ele>391.7</ele>
        <time>2023-05-28T07:00:33Z</time>
      </trkpt>
      <trkpt lat="43.34364" lon="2.45149">
        <ele>391.9</ele>
        <time>2023-05-28T07:00:34Z</time>
      </trkpt>
      <trkpt lat="43.34361" lon="2.45149">
        <ele>392.4</ele>
        <time>2023-05-28T07:00:35Z</time>
      </trkpt>
      <trkpt lat="43.3436" lon="2.45148">
        <ele>392.7</ele>
        <time>2023-05-28T07:00:36Z</time>
      </trkpt>
      <trkpt lat="43.3436" lon="2.45147">
        <ele>392.9</ele>
        <time>2023-05-28T07:00:37Z</time>
      </trkpt>
      <trkpt lat="43.34359" lon="2.45146">
        <ele>393.1</ele>
        <time>2023-05-28T07:00:38Z</time>
      </trkpt>
      <trkpt lat="43.34359" lon="2.45145">
        <ele>393.4</ele>
        <time>2023-05-28T07:00:39Z</time>
      </trkpt>
      <trkpt lat="43.34358" lon="2.45142">
        <ele>393.7</ele>
        <time>2023-05-28T07:00:40Z</time>
      </trkpt>
      <trkpt lat="43.34358" lon="2.45141">
        <ele>394</ele>
        <time>2023-05-28T07:00:41Z</time>
      </trkpt>
      <trkpt lat="43.34358" lon="2.4514">
        <ele>394.1</ele>
        <time>2023-05-28T07:00:42Z</time>
      </trkpt>
      <trkpt lat="43.34357" lon="2.4514">
        <ele>394.2</ele>
        <time>2023-05-28T07:00:43Z</time>
      </trkpt>
      <trkpt lat="43.34357" lon="2.45142">
        <ele>394.4</ele>
        <time>2023-05-28T07:00:44Z</time>
      </trkpt>
      <trkpt lat="43.34357" lon="2.45143">
        <ele>394.5</ele>
        <time>2023-05-28T07:00:45Z</time>
      </trkpt>
      <trkpt lat="43.34356" lon="2.45143">
        <ele>394.8</ele>
        <time>2023-05-28T07:00:46Z</time>
      </trkpt>
      <trkpt lat="43.34353" lon="2.45143">
        <ele>395.5</ele>
        <time>2023-05-28T07:00:47Z</time>
      </trkpt>
      <trkpt lat="43.34352" lon="2.45143">
        <ele>395.8</ele>
        <time>2023-05-28T07:00:48Z</time>
      </trkpt>
      <trkpt lat="43.34349" lon="2.45141">
        <ele>396.5</ele>
        <time>2023-05-28T07:00:49Z</time>
      </trkpt>
      <trkpt lat="43.34348" lon="2.4514">
        <ele>396.7</ele>
        <time>2023-05-28T07:00:50Z</time>
      </trkpt>
      <trkpt lat="43.34348" lon="2.45138">
        <ele>397</ele>
        <time>2023-05-28T07:00:51Z</time>
      </trkpt>
      <trkpt lat="43.34347" lon="2.45137">
        <ele>397.2</ele>
        <time>2023-05-28T07:00:52Z</time>
      </trkpt>
      <trkpt lat="43.34347" lon="2.45136">
        <ele>397.3</ele>
        <time>2023-05-28T07:00:53Z</time>
      </trkpt>
      <trkpt lat="43.34347" lon="2.45135">
        <ele>397.5</ele>
        <time>2023-05-28T07:00:54Z</time>
      </trkpt>
      <trkpt lat="43.34348" lon="2.45134">
        <ele>397.7</ele>
        <time>2023-05-28T07:00:55Z</time>
      </trkpt>
      <trkpt lat="43.34347" lon="2.45133">
        <ele>397.8</ele>
        <time>2023-05-28T07:00:56Z</time>
      </trkpt>
      <trkpt lat="43.34347" lon="2.45133">
        <ele>397.9</ele>
        <time>2023-05-28T07:00:57Z</time>
      </trkpt>
      <trkpt lat="43.34346" lon="2.45132">
        <ele>398.1</ele>
        <time>2023-05-28T07:00:58Z</time>
      </trkpt>
      <trkpt lat="43.34346" lon="2.45132">
        <ele>398.3</ele>
        <time>2023-05-28T07:00:59Z</time>
      </trkpt>
      <trkpt lat="43.34345" lon="2.45131">
        <ele>398.5</ele>
        <time>2023-05-28T07:01:00Z</time>
      </trkpt>
      <trkpt lat="43.34344" lon="2.45131">
        <ele>398.8</ele>
        <time>2023-05-28T07:01:01Z</time>
      </trkpt>
      <trkpt lat="43.34343" lon="2.4513">
        <ele>399</ele>
        <time>2023-05-28T07:01:02Z</time>
      </trkpt>
      <trkpt lat="43.34342" lon="2.4513">
        <ele>399.2</ele>
        <time>2023-05-28T07:01:03Z</time>
      </trkpt>
      <trkpt lat="43.34341" lon="2.45129">
        <ele>399.3</ele>
        <time>2023-05-28T07:01:04Z</time>
      </trkpt>
      <trkpt lat="43.34341" lon="2.45129">
        <ele>399.5</ele>
        <time>2023-05-28T07:01:05Z</time>
      </trkpt>
      <trkpt lat="43.3434" lon="2.45129">
        <ele>399.7</ele>
        <time>2023-05-28T07:01:06Z</time>
      </trkpt>
      <trkpt lat="43.34339" lon="2.45129">
        <ele>399.9</ele>
        <time>2023-05-28T07:01:07Z</time>
      </trkpt>
      <trkpt lat="43.34338" lon="2.45129">
        <ele>400.1</ele>
        <time>2023-05-28T07:01:08Z</time>
      </trkpt>
      <trkpt lat="43.34337" lon="2.45129">
        <ele>400.3</ele>
        <time>2023-05-28T07:01:09Z</time>
      </trkpt>
      <trkpt lat="43.34336" lon="2.45129">
        <ele>400.4</ele>
        <time>2023-05-28T07:01:10Z</time>
      </trkpt>
      <trkpt lat="43.34335" lon="2.45128">
        <ele>400.6</ele>
        <time>2023-05-28T07:01:11Z</time>
      </trkpt>
      <trkpt lat="43.34335" lon="2.45128">
        <ele>400.8</ele>
        <time>2023-05-28T07:01:12Z</time>
      </trkpt>
      <trkpt lat="43.34334" lon="2.45128">
        <ele>401</ele>
        <time>2023-05-28T07:01:13Z</time>
      </trkpt>
      <trkpt lat="43.34333" lon="2.45129">
        <ele>401.1</ele>
        <time>2023-05-28T07:01:14Z</time>
      </trkpt>
      <trkpt lat="43.34332" lon="2.45129">
        <ele>401.3</ele>
        <time>2023-05-28T07:01:15Z</time>
      </trkpt>
      <trkpt lat="43.34331" lon="2.45129">
        <ele>401.5</ele>
        <time>2023-05-28T07:01:16Z</time>
      </trkpt>
      <trkpt lat="43.3433" lon="2.4513">
        <ele>401.8</ele>
        <time>2023-05-28T07:01:17Z</time>
      </trkpt>
      <trkpt lat="43.34329" lon="2.4513">
        <ele>402</ele>
        <time>2023-05-28T07:01:18Z</time>
      </trkpt>
      <trkpt lat="43.34328" lon="2.45131">
        <ele>402.3</ele>
        <time>2023-05-28T07:01:19Z</time>
      </trkpt>
      <trkpt lat="43.34328" lon="2.45131">
        <ele>402.4</ele>
        <time>2023-05-28T07:01:20Z</time>
      </trkpt>
      <trkpt lat="43.34326" lon="2.45131">
        <ele>402.7</ele>
        <time>2023-05-28T07:01:21Z</time>
      </trkpt>
      <trkpt lat="43.34325" lon="2.4513">
        <ele>403</ele>
        <time>2023-05-28T07:01:22Z</time>
      </trkpt>
      <trkpt lat="43.34323" lon="2.45128">
        <ele>403.4</ele>
        <time>2023-05-28T07:01:23Z</time>
      </trkpt>
      <trkpt lat="43.34322" lon="2.45127">
        <ele>403.7</ele>
        <time>2023-05-28T07:01:24Z</time>
      </trkpt>
      <trkpt lat="43.34322" lon="2.45126">
        <ele>404</ele>
        <time>2023-05-28T07:01:25Z</time>
      </trkpt>
      <trkpt lat="43.34321" lon="2.45124">
        <ele>404.3</ele>
        <time>2023-05-28T07:01:26Z</time>
      </trkpt>
      <trkpt lat="43.3432" lon="2.45123">
        <ele>406.1</ele>
        <time>2023-05-28T07:01:27Z</time>
      </trkpt>
      <trkpt lat="43.3432" lon="2.45121">
        <ele>406.3</ele>
        <time>2023-05-28T07:01:28Z</time>
      </trkpt>
      <trkpt lat="43.34321" lon="2.45119">
        <ele>408.2</ele>
        <time>2023-05-28T07:01:29Z</time>
      </trkpt>
      <trkpt lat="43.34322" lon="2.45116">
        <ele>408.3</ele>
        <time>2023-05-28T07:01:30Z</time>
      </trkpt>
      <trkpt lat="43.34322" lon="2.45115">
        <ele>410.2</ele>
        <time>2023-05-28T07:01:31Z</time>
      </trkpt>
      <trkpt lat="43.34323" lon="2.45114">
        <ele>410.3</ele>
        <time>2023-05-28T07:01:32Z</time>
      </trkpt>
      <trkpt lat="43.34324" lon="2.45113">
        <ele>410.5</ele>
        <time>2023-05-28T07:01:33Z</time>
      </trkpt>
      <trkpt lat="43.34325" lon="2.45112">
        <ele>410.6</ele>
        <time>2023-05-28T07:01:34Z</time>
      </trkpt>
      <trkpt lat="43.34325" lon="2.45112">
        <ele>410.7</ele>
        <time>2023-05-28T07:01:35Z</time>
      </trkpt>
      <trkpt lat="43.34326" lon="2.4511">
        <ele>412.6</ele>
        <time>2023-05-28T07:01:36Z</time>
      </trkpt>
      <trkpt lat="43.34326" lon="2.4511">
        <ele>412.7</ele>
        <time>2023-05-28T07:01:37Z</time>
      </trkpt>
      <trkpt lat="43.34327" lon="2.45109">
        <ele>412.9</ele>
        <time>2023-05-28T07:01:38Z</time>
      </trkpt>
      <trkpt lat="43.34327" lon="2.45108">
        <ele>413</ele>
        <time>2023-05-28T07:01:39Z</time>
      </trkpt>
      <trkpt lat="43.34327" lon="2.45107">
        <ele>413.2</ele>
        <time>2023-05-28T07:01:40Z</time>
      </trkpt>
      <trkpt lat="43.34328" lon="2.45106">
        <ele>415</ele>
        <time>2023-05-28T07:01:41Z</time>
      </trkpt>
      <trkpt lat="43.34329" lon="2.45105">
        <ele>415.2</ele>
        <time>2023-05-28T07:01:42Z</time>
      </trkpt>
      <trkpt lat="43.3433" lon="2.45105">
        <ele>415.3</ele>
        <time>2023-05-28T07:01:43Z</time>
      </trkpt>
      <trkpt lat="43.34331" lon="2.45106">
        <ele>415.5</ele>
        <time>2023-05-28T07:01:44Z</time>
      </trkpt>
      <trkpt lat="43.3433" lon="2.45106">
        <ele>415.6</ele>
        <time>2023-05-28T07:01:45Z</time>
      </trkpt>
      <trkpt lat="43.3433" lon="2.45106">
        <ele>415.8</ele>
        <time>2023-05-28T07:01:46Z</time>
      </trkpt>
      <trkpt lat="43.34329" lon="2.45106">
        <ele>415.9</ele>
        <time>2023-05-28T07:01:47Z</time>
      </trkpt>
      <trkpt lat="43.34328" lon="2.45106">
        <ele>416.1</ele>
        <time>2023-05-28T07:01:48Z</time>
      </trkpt>
      <trkpt lat="43.34327" lon="2.45106">
        <ele>416.2</ele>
        <time>2023-05-28T07:01:49Z</time>
      </trkpt>
      <trkpt lat="43.34326" lon="2.45106">
        <ele>416.4</ele>
        <time>2023-05-28T07:01:50Z</time>
      </trkpt>
      <trkpt lat="43.34325" lon="2.45105">
        <ele>416.5</ele>
        <time>2023-05-28T07:01:51Z</time>
      </trkpt>
      <trkpt lat="43.34325" lon="2.45105">
        <ele>416.7</ele>
        <time>2023-05-28T07:01:52Z</time>
      </trkpt>
      <trkpt lat="43.34324" lon="2.45105">
        <ele>416.9</ele>
        <time>2023-05-28T07:01:53Z</time>
      </trkpt>
      <trkpt lat="43.34323" lon="2.45105">
        <ele>417.1</ele>
        <time>2023-05-28T07:01:54Z</time>
      </trkpt>
      <trkpt lat="43.34322" lon="2.45105">
        <ele>417.2</ele>
        <time>2023-05-28T07:01:55Z</time>
      </trkpt>
      <trkpt lat="43.34321" lon="2.45106">
        <ele>417.4</ele>
        <time>2023-05-28T07:01:56Z</time>
      </trkpt>
      <trkpt lat="43.34319" lon="2.45107">
        <ele>415.9</ele>
        <time>2023-05-28T07:01:57Z</time>
      </trkpt>
      <trkpt lat="43.34318" lon="2.45107">
        <ele>416.2</ele>
        <time>2023-05-28T07:01:58Z</time>
      </trkpt>
      <trkpt lat="43.34317" lon="2.45108">
        <ele>416.3</ele>
        <time>2023-05-28T07:01:59Z</time>
      </trkpt>
      <trkpt lat="43.34314" lon="2.45109">
        <ele>416.7</ele>
        <time>2023-05-28T07:02:00Z</time>
      </trkpt>
      <trkpt lat="43.34313" lon="2.45109">
        <ele>416.8</ele>
        <time>2023-05-28T07:02:01Z</time>
      </trkpt>
      <trkpt lat="43.34311" lon="2.45109">
        <ele>417.2</ele>
        <time>2023-05-28T07:02:02Z</time>
      </trkpt>
      <trkpt lat="43.3431" lon="2.4511">
        <ele>417.3</ele>
        <time>2023-05-28T07:02:03Z</time>
      </trkpt>
      <trkpt lat="43.34308" lon="2.4511">
        <ele>417.8</ele>
        <time>2023-05-28T07:02:04Z</time>
      </trkpt>
      <trkpt lat="43.34307" lon="2.45111">
        <ele>417.9</ele>
        <time>2023-05-28T07:02:05Z</time>
      </trkpt>
      <trkpt lat="43.34304" lon="2.45111">
        <ele>418.4</ele>
        <time>2023-05-28T07:02:06Z</time>
      </trkpt>
      <trkpt lat="43.34303" lon="2.45111">
        <ele>418.6</ele>
        <time>2023-05-28T07:02:07Z</time>
      </trkpt>
      <trkpt lat="43.343" lon="2.4511">
        <ele>419.1</ele>
        <time>2023-05-28T07:02:08Z</time>
      </trkpt>
      <trkpt lat="43.34299" lon="2.4511">
        <ele>419.2</ele>
        <time>2023-05-28T07:02:09Z</time>
      </trkpt>
      <trkpt lat="43.34296" lon="2.4511">
        <ele>419.7</ele>
        <time>2023-05-28T07:02:10Z</time>
      </trkpt>
      <trkpt lat="43.34295" lon="2.4511">
        <ele>419.8</ele>
        <time>2023-05-28T07:02:11Z</time>
      </trkpt>
      <trkpt lat="43.34293" lon="2.4511">
        <ele>420.1</ele>
        <time>2023-05-28T07:02:12Z</time>
      </trkpt>
      <trkpt lat="43.34292" lon="2.4511">
        <ele>420.3</ele>
        <time>2023-05-28T07:02:13Z</time>
      </trkpt>
      <trkpt lat="43.3429" lon="2.4511">
        <ele>420.6</ele>
        <time>2023-05-28T07:02:14Z</time>
      </trkpt>
      <trkpt lat="43.34289" lon="2.4511">
        <ele>420.7</ele>
        <time>2023-05-28T07:02:15Z</time>
      </trkpt>
      <trkpt lat="43.34288" lon="2.4511">
        <ele>420.8</ele>
        <time>2023-05-28T07:02:16Z</time>
      </trkpt>
      <trkpt lat="43.34286" lon="2.45111">
        <ele>421.1</ele>
        <time>2023-05-28T07:02:17Z</time>
      </trkpt>
      <trkpt lat="43.34286" lon="2.45111">
        <ele>421.2</ele>
        <time>2023-05-28T07:02:18Z</time>
      </trkpt>
      <trkpt lat="43.34285" lon="2.45111">
        <ele>421.4</ele>
        <time>2023-05-28T07:02:19Z</time>
      </trkpt>
      <trkpt lat="43.34284" lon="2.45112">
        <ele>421.5</ele>
        <time>2023-05-28T07:02:20Z</time>
      </trkpt>
      <trkpt lat="43.34283" lon="2.45112">
        <ele>421.7</ele>
        <time>2023-05-28T07:02:21Z</time>
      </trkpt>
      <trkpt lat="43.34282" lon="2.45112">
        <ele>421.9</ele>
        <time>2023-05-28T07:02:22Z</time>
      </trkpt>
      <trkpt lat="43.34279" lon="2.45114">
        <ele>422.4</ele>
        <time>2023-05-28T07:02:23Z</time>
      </trkpt>
      <trkpt lat="43.34278" lon="2.45114">
        <ele>422.5</ele>
        <time>2023-05-28T07:02:24Z</time>
      </trkpt>
      <trkpt lat="43.34277" lon="2.45115">
        <ele>422.8</ele>
        <time>2023-05-28T07:02:25Z</time>
      </trkpt>
      <trkpt lat="43.34275" lon="2.45116">
        <ele>423</ele>
        <time>2023-05-28T07:02:26Z</time>
      </trkpt>
      <trkpt lat="43.34274" lon="2.45116">
        <ele>423.2</ele>
        <time>2023-05-28T07:02:27Z</time>
      </trkpt>
      <trkpt lat="43.34273" lon="2.45116">
        <ele>423.4</ele>
        <time>2023-05-28T07:02:28Z</time>
      </trkpt>
      <trkpt lat="43.34272" lon="2.45116">
        <ele>423.5</ele>
        <time>2023-05-28T07:02:29Z</time>
      </trkpt>
      <trkpt lat="43.34271" lon="2.45117">
        <ele>423.7</ele>
        <time>2023-05-28T07:02:30Z</time>
      </trkpt>
      <trkpt lat="43.3427" lon="2.45117">
        <ele>423.8</ele>
        <time>2023-05-28T07:02:31Z</time>
      </trkpt>
      <trkpt lat="43.34269" lon="2.45117">
        <ele>424</ele>
        <time>2023-05-28T07:02:32Z</time>
      </trkpt>
      <trkpt lat="43.34268" lon="2.45118">
        <ele>424.2</ele>
        <time>2023-05-28T07:02:33Z</time>
      </trkpt>
      <trkpt lat="43.34267" lon="2.45119">
        <ele>424.4</ele>
        <time>2023-05-28T07:02:34Z</time>
      </trkpt>
      <trkpt lat="43.34266" lon="2.4512">
        <ele>424.6</ele>
        <time>2023-05-28T07:02:35Z</time>
      </trkpt>
      <trkpt lat="43.34265" lon="2.45121">
        <ele>424.7</ele>
        <time>2023-05-28T07:02:36Z</time>
      </trkpt>
      <trkpt lat="43.34264" lon="2.45122">
        <ele>424.9</ele>
        <time>2023-05-28T07:02:37Z</time>
      </trkpt>
      <trkpt lat="43.34263" lon="2.45123">
        <ele>425.1</ele>
        <time>2023-05-28T07:02:38Z</time>
      </trkpt>
      <trkpt lat="43.34261" lon="2.45124">
        <ele>425.4</ele>
        <time>2023-05-28T07:02:39Z</time>
      </trkpt>
      <trkpt lat="43.34261" lon="2.45124">
        <ele>425.5</ele>
        <time>2023-05-28T07:02:40Z</time>
      </trkpt>
      <trkpt lat="43.3426" lon="2.45124">
        <ele>425.6</ele>
        <time>2023-05-28T07:02:41Z</time>
      </trkpt>
      <trkpt lat="43.34259" lon="2.45125">
        <ele>425.7</ele>
        <time>2023-05-28T07:02:42Z</time>
      </trkpt>
      <trkpt lat="43.34258" lon="2.45125">
        <ele>425.9</ele>
        <time>2023-05-28T07:02:43Z</time>
      </trkpt>
      <trkpt lat="43.34257" lon="2.45125">
        <ele>426</ele>
        <time>2023-05-28T07:02:44Z</time>
      </trkpt>
      <trkpt lat="43.34256" lon="2.45126">
        <ele>426.1</ele>
        <time>2023-05-28T07:02:45Z</time>
      </trkpt>
      <trkpt lat="43.34255" lon="2.45126">
        <ele>426.2</ele>
        <time>2023-05-28T07:02:46Z</time>
      </trkpt>
      <trkpt lat="43.34254" lon="2.45127">
        <ele>426.3</ele>
        <time>2023-05-28T07:02:47Z</time>
      </trkpt>
      <trkpt lat="43.34253" lon="2.45128">
        <ele>426.5</ele>
        <time>2023-05-28T07:02:48Z</time>
      </trkpt>
      <trkpt lat="43.34252" lon="2.45129">
        <ele>426.6</ele>
        <time>2023-05-28T07:02:49Z</time>
      </trkpt>
      <trkpt lat="43.34251" lon="2.4513">
        <ele>426.8</ele>
        <time>2023-05-28T07:02:50Z</time>
      </trkpt>
      <trkpt lat="43.3425" lon="2.45131">
        <ele>426.9</ele>
        <time>2023-05-28T07:02:51Z</time>
      </trkpt>
      <trkpt lat="43.34248" lon="2.45132">
        <ele>427.1</ele>
        <time>2023-05-28T07:02:52Z</time>
      </trkpt>
      <trkpt lat="43.34245" lon="2.45132">
        <ele>427.4</ele>
        <time>2023-05-28T07:02:53Z</time>
      </trkpt>
      <trkpt lat="43.34244" lon="2.45132">
        <ele>427.6</ele>
        <time>2023-05-28T07:02:54Z</time>
      </trkpt>
      <trkpt lat="43.34241" lon="2.45132">
        <ele>427.9</ele>
        <time>2023-05-28T07:02:55Z</time>
      </trkpt>
      <trkpt lat="43.34239" lon="2.45132">
        <ele>428.1</ele>
        <time>2023-05-28T07:02:56Z</time>
      </trkpt>
      <trkpt lat="43.34238" lon="2.45133">
        <ele>428.3</ele>
        <time>2023-05-28T07:02:57Z</time>
      </trkpt>
      <trkpt lat="43.34236" lon="2.45133">
        <ele>428.4</ele>
        <time>2023-05-28T07:02:58Z</time>
      </trkpt>
      <trkpt lat="43.34233" lon="2.45135">
        <ele>428.7</ele>
        <time>2023-05-28T07:02:59Z</time>
      </trkpt>
      <trkpt lat="43.34232" lon="2.45136">
        <ele>428.8</ele>
        <time>2023-05-28T07:03:00Z</time>
      </trkpt>
      <trkpt lat="43.3423" lon="2.45138">
        <ele>429.1</ele>
        <time>2023-05-28T07:03:01Z</time>
      </trkpt>
      <trkpt lat="43.34229" lon="2.45139">
        <ele>429.1</ele>
        <time>2023-05-28T07:03:02Z</time>
      </trkpt>
      <trkpt lat="43.34228" lon="2.4514">
        <ele>429.3</ele>
        <time>2023-05-28T07:03:03Z</time>
      </trkpt>
      <trkpt lat="43.34226" lon="2.45141">
        <ele>429.4</ele>
        <time>2023-05-28T07:03:04Z</time>
      </trkpt>
      <trkpt lat="43.34225" lon="2.45142">
        <ele>429.5</ele>
        <time>2023-05-28T07:03:05Z</time>
      </trkpt>
      <trkpt lat="43.34223" lon="2.45142">
        <ele>429.5</ele>
        <time>2023-05-28T07:03:06Z</time>
      </trkpt>
      <trkpt lat="43.34222" lon="2.45142">
        <ele>429.6</ele>
        <time>2023-05-28T07:03:07Z</time>
      </trkpt>
      <trkpt lat="43.34221" lon="2.45142">
        <ele>429.7</ele>
        <time>2023-05-28T07:03:08Z</time>
      </trkpt>
      <trkpt lat="43.34219" lon="2.45142">
        <ele>429.7</ele>
        <time>2023-05-28T07:03:09Z</time>
      </trkpt>
      <trkpt lat="43.34218" lon="2.45142">
        <ele>429.8</ele>
        <time>2023-05-28T07:03:10Z</time>
      </trkpt>
      <trkpt lat="43.34218" lon="2.45142">
        <ele>429.8</ele>
        <time>2023-05-28T07:03:11Z</time>
      </trkpt>
      <trkpt lat="43.34217" lon="2.45142">
        <ele>429.8</ele>
        <time>2023-05-28T07:03:12Z</time>
      </trkpt>
      <trkpt lat="43.34216" lon="2.45141">
        <ele>429.8</ele>
        <time>2023-05-28T07:03:13Z</time>
      </trkpt>
      <trkpt lat="43.34216" lon="2.45141">
        <ele>429.8</ele>
        <time>2023-05-28T07:03:14Z</time>
      </trkpt>
      <trkpt lat="43.34215" lon="2.45141">
        <ele>429.8</ele>
        <time>2023-05-28T07:03:15Z</time>
      </trkpt>
      <trkpt lat="43.34215" lon="2.45141">
        <ele>429.9</ele>
        <time>2023-05-28T07:03:16Z</time>
      </trkpt>
      <trkpt lat="43.34214" lon="2.45141">
        <ele>429.9</ele>
        <time>2023-05-28T07:03:17Z</time>
      </trkpt>
      <trkpt lat="43.34213" lon="2.4514">
        <ele>429.9</ele>
        <time>2023-05-28T07:03:18Z</time>
      </trkpt>
      <trkpt lat="43.34212" lon="2.4514">
        <ele>429.9</ele>
        <time>2023-05-28T07:03:19Z</time>
      </trkpt>
      <trkpt lat="43.34212" lon="2.45139">
        <ele>430</ele>
        <time>2023-05-28T07:03:20Z</time>
      </trkpt>
      <trkpt lat="43.34211" lon="2.45138">
        <ele>430</ele>
        <time>2023-05-28T07:03:21Z</time>
      </trkpt>
      <trkpt lat="43.34211" lon="2.45136">
        <ele>430</ele>
        <time>2023-05-28T07:03:22Z</time>
      </trkpt>
      <trkpt lat="43.34211" lon="2.45135">
        <ele>430</ele>
        <time>2023-05-28T07:03:23Z</time>
      </trkpt>
      <trkpt lat="43.34212" lon="2.45132">
        <ele>430.1</ele>
        <time>2023-05-28T07:03:24Z</time>
      </trkpt>
      <trkpt lat="43.34212" lon="2.45131">
        <ele>430.1</ele>
        <time>2023-05-28T07:03:25Z</time>
      </trkpt>
      <trkpt lat="43.34212" lon="2.45129">
        <ele>430.1</ele>
        <time>2023-05-28T07:03:26Z</time>
      </trkpt>
      <trkpt lat="43.34212" lon="2.45128">
        <ele>430.1</ele>
        <time>2023-05-28T07:03:27Z</time>
      </trkpt>
      <trkpt lat="43.34211" lon="2.45126">
        <ele>430.2</ele>
        <time>2023-05-28T07:03:28Z</time>
      </trkpt>
      <trkpt lat="43.34211" lon="2.45124">
        <ele>430.2</ele>
        <time>2023-05-28T07:03:29Z</time>
      </trkpt>
      <trkpt lat="43.34211" lon="2.45122">
        <ele>430.2</ele>
        <time>2023-05-28T07:03:30Z</time>
      </trkpt>
      <trkpt lat="43.3421" lon="2.4512">
        <ele>430.3</ele>
        <time>2023-05-28T07:03:31Z</time>
      </trkpt>
      <trkpt lat="43.3421" lon="2.45118">
        <ele>430.3</ele>
        <time>2023-05-28T07:03:32Z</time>
      </trkpt>
      <trkpt lat="43.3421" lon="2.45117">
        <ele>430.3</ele>
        <time>2023-05-28T07:03:33Z</time>
      </trkpt>
      <trkpt lat="43.34209" lon="2.45116">
        <ele>430.3</ele>
        <time>2023-05-28T07:03:34Z</time>
      </trkpt>
      <trkpt lat="43.34209" lon="2.45115">
        <ele>430.4</ele>
        <time>2023-05-28T07:03:35Z</time>
      </trkpt>
      <trkpt lat="43.34208" lon="2.45113">
        <ele>430.4</ele>
        <time>2023-05-28T07:03:36Z</time>
      </trkpt>
      <trkpt lat="43.34208" lon="2.45112">
        <ele>430.4</ele>
        <time>2023-05-28T07:03:37Z</time>
      </trkpt>
      <trkpt lat="43.34208" lon="2.4511">
        <ele>430.5</ele>
        <time>2023-05-28T07:03:38Z</time>
      </trkpt>
      <trkpt lat="43.34207" lon="2.45109">
        <ele>430.5</ele>
        <time>2023-05-28T07:03:39Z</time>
      </trkpt>
      <trkpt lat="43.34207" lon="2.45108">
        <ele>430.5</ele>
        <time>2023-05-28T07:03:40Z</time>
      </trkpt>
      <trkpt lat="43.34207" lon="2.45106">
        <ele>430.6</ele>
        <time>2023-05-28T07:03:41Z</time>
      </trkpt>
      <trkpt lat="43.34206" lon="2.45105">
        <ele>430.6</ele>
        <time>2023-05-28T07:03:42Z</time>
      </trkpt>
      <trkpt lat="43.34206" lon="2.45104">
        <ele>430.6</ele>
        <time>2023-05-28T07:03:43Z</time>
      </trkpt>
      <trkpt lat="43.34206" lon="2.45103">
        <ele>430.6</ele>
        <time>2023-05-28T07:03:44Z</time>
      </trkpt>
      <trkpt lat="43.34205" lon="2.45101">
        <ele>430.7</ele>
        <time>2023-05-28T07:03:45Z</time>
      </trkpt>
      <trkpt lat="43.34204" lon="2.45099">
        <ele>430.8</ele>
        <time>2023-05-28T07:03:46Z</time>
      </trkpt>
      <trkpt lat="43.34204" lon="2.45098">
        <ele>430.8</ele>
        <time>2023-05-28T07:03:47Z</time>
      </trkpt>
      <trkpt lat="43.34203" lon="2.45097">
        <ele>430.8</ele>
        <time>2023-05-28T07:03:48Z</time>
      </trkpt>
      <trkpt lat="43.34203" lon="2.45094">
        <ele>430.9</ele>
        <time>2023-05-28T07:03:49Z</time>
      </trkpt>
      <trkpt lat="43.34202" lon="2.45093">
        <ele>431</ele>
        <time>2023-05-28T07:03:50Z</time>
      </trkpt>
      <trkpt lat="43.34202" lon="2.45092">
        <ele>431</ele>
        <time>2023-05-28T07:03:51Z</time>
      </trkpt>
      <trkpt lat="43.34202" lon="2.45089">
        <ele>431.1</ele>
        <time>2023-05-28T07:03:52Z</time>
      </trkpt>
      <trkpt lat="43.34202" lon="2.45088">
        <ele>431.1</ele>
        <time>2023-05-28T07:03:53Z</time>
      </trkpt>
      <trkpt lat="43.34202" lon="2.45087">
        <ele>431.2</ele>
        <time>2023-05-28T07:03:54Z</time>
      </trkpt>
      <trkpt lat="43.34202" lon="2.45085">
        <ele>431.2</ele>
        <time>2023-05-28T07:03:55Z</time>
      </trkpt>
      <trkpt lat="43.34201" lon="2.45084">
        <ele>431.3</ele>
        <time>2023-05-28T07:03:56Z</time>
      </trkpt>
      <trkpt lat="43.34201" lon="2.45083">
        <ele>431.3</ele>
        <time>2023-05-28T07:03:57Z</time>
      </trkpt>
      <trkpt lat="43.342" lon="2.45081">
        <ele>431.4</ele>
        <time>2023-05-28T07:03:58Z</time>
      </trkpt>
      <trkpt lat="43.342" lon="2.4508">
        <ele>431.5</ele>
        <time>2023-05-28T07:03:59Z</time>
      </trkpt>
      <trkpt lat="43.342" lon="2.45079">
        <ele>431.5</ele>
        <time>2023-05-28T07:04:00Z</time>
      </trkpt>
      <trkpt lat="43.34199" lon="2.45078">
        <ele>431.5</ele>
        <time>2023-05-28T07:04:01Z</time>
      </trkpt>
      <trkpt lat="43.34199" lon="2.45077">
        <ele>431.6</ele>
        <time>2023-05-28T07:04:02Z</time>
      </trkpt>
      <trkpt lat="43.34198" lon="2.45076">
        <ele>431.7</ele>
        <time>2023-05-28T07:04:03Z</time>
      </trkpt>
      <trkpt lat="43.34198" lon="2.45074">
        <ele>431.7</ele>
        <time>2023-05-28T07:04:04Z</time>
      </trkpt>
      <trkpt lat="43.34197" lon="2.45073">
        <ele>431.8</ele>
        <time>2023-05-28T07:04:05Z</time>
      </trkpt>
      <trkpt lat="43.34197" lon="2.45072">
        <ele>431.8</ele>
        <time>2023-05-28T07:04:06Z</time>
      </trkpt>
      <trkpt lat="43.34196" lon="2.45071">
        <ele>431.9</ele>
        <time>2023-05-28T07:04:07Z</time>
      </trkpt>
      <trkpt lat="43.34196" lon="2.4507">
        <ele>431.9</ele>
        <time>2023-05-28T07:04:08Z</time>
      </trkpt>
      <trkpt lat="43.34195" lon="2.45069">
        <ele>432</ele>
        <time>2023-05-28T07:04:09Z</time>
      </trkpt>
      <trkpt lat="43.34194" lon="2.45067">
        <ele>432.1</ele>
        <time>2023-05-28T07:04:10Z</time>
      </trkpt>
      <trkpt lat="43.34193" lon="2.45066">
        <ele>432.2</ele>
        <time>2023-05-28T07:04:11Z</time>
      </trkpt>
      <trkpt lat="43.34193" lon="2.45065">
        <ele>432.3</ele>
        <time>2023-05-28T07:04:12Z</time>
      </trkpt>
      <trkpt lat="43.34192" lon="2.45065">
        <ele>432.3</ele>
        <time>2023-05-28T07:04:13Z</time>
      </trkpt>
      <trkpt lat="43.34191" lon="2.45065">
        <ele>432.4</ele>
        <time>2023-05-28T07:04:14Z</time>
      </trkpt>
      <trkpt lat="43.34191" lon="2.45065">
        <ele>432.4</ele>
        <time>2023-05-28T07:04:15Z</time>
      </trkpt>
      <trkpt lat="43.3419" lon="2.45063">
        <ele>432.5</ele>
        <time>2023-05-28T07:04:16Z</time>
      </trkpt>
      <trkpt lat="43.34189" lon="2.45062">
        <ele>432.6</ele>
        <time>2023-05-28T07:04:17Z</time>
      </trkpt>
      <trkpt lat="43.34189" lon="2.45059">
        <ele>432.7</ele>
        <time>2023-05-28T07:04:18Z</time>
      </trkpt>
      <trkpt lat="43.34188" lon="2.45058">
        <ele>432.8</ele>
        <time>2023-05-28T07:04:19Z</time>
      </trkpt>
      <trkpt lat="43.34188" lon="2.45057">
        <ele>432.8</ele>
        <time>2023-05-28T07:04:20Z</time>
      </trkpt>
      <trkpt lat="43.34187" lon="2.45055">
        <ele>433</ele>
        <time>2023-05-28T07:04:21Z</time>
      </trkpt>
      <trkpt lat="43.34187" lon="2.45053">
        <ele>433.1</ele>
        <time>2023-05-28T07:04:22Z</time>
      </trkpt>
      <trkpt lat="43.34186" lon="2.45051">
        <ele>433.2</ele>
        <time>2023-05-28T07:04:23Z</time>
      </trkpt>
      <trkpt lat="43.34186" lon="2.45049">
        <ele>433.3</ele>
        <time>2023-05-28T07:04:24Z</time>
      </trkpt>
      <trkpt lat="43.34186" lon="2.45046">
        <ele>433.5</ele>
        <time>2023-05-28T07:04:25Z</time>
      </trkpt>
      <trkpt lat="43.34185" lon="2.45045">
        <ele>433.6</ele>
        <time>2023-05-28T07:04:26Z</time>
      </trkpt>
      <trkpt lat="43.34185" lon="2.45044">
        <ele>433.7</ele>
        <time>2023-05-28T07:04:27Z</time>
      </trkpt>
      <trkpt lat="43.34185" lon="2.45042">
        <ele>433.8</ele>
        <time>2023-05-28T07:04:28Z</time>
      </trkpt>
      <trkpt lat="43.34184" lon="2.4504">
        <ele>433.9</ele>
        <time>2023-05-28T07:04:29Z</time>
      </trkpt>
      <trkpt lat="43.34184" lon="2.45037">
        <ele>434.1</ele>
        <time>2023-05-28T07:04:30Z</time>
      </trkpt>
      <trkpt lat="43.34184" lon="2.45036">
        <ele>434.2</ele>
        <time>2023-05-28T07:04:31Z</time>
      </trkpt>
      <trkpt lat="43.34184" lon="2.45035">
        <ele>434.3</ele>
        <time>2023-05-28T07:04:32Z</time>
      </trkpt>
      <trkpt lat="43.34183" lon="2.45031">
        <ele>434.5</ele>
        <time>2023-05-28T07:04:33Z</time>
      </trkpt>
      <trkpt lat="43.34183" lon="2.4503">
        <ele>434.6</ele>
        <time>2023-05-28T07:04:34Z</time>
      </trkpt>
      <trkpt lat="43.34182" lon="2.45027">
        <ele>434.8</ele>
        <time>2023-05-28T07:04:35Z</time>
      </trkpt>
      <trkpt lat="43.34182" lon="2.45025">
        <ele>435</ele>
        <time>2023-05-28T07:04:36Z</time>
      </trkpt>
      <trkpt lat="43.34182" lon="2.45023">
        <ele>435.2</ele>
        <time>2023-05-28T07:04:37Z</time>
      </trkpt>
      <trkpt lat="43.34182" lon="2.4502">
        <ele>435.3</ele>
        <time>2023-05-28T07:04:38Z</time>
      </trkpt>
      <trkpt lat="43.34182" lon="2.45018">
        <ele>435.5</ele>
        <time>2023-05-28T07:04:39Z</time>
      </trkpt>
      <trkpt lat="43.34182" lon="2.45016">
        <ele>435.6</ele>
        <time>2023-05-28T07:04:40Z</time>
      </trkpt>
      <trkpt lat="43.34182" lon="2.45012">
        <ele>435.9</ele>
        <time>2023-05-28T07:04:41Z</time>
      </trkpt>
      <trkpt lat="43.34182" lon="2.45011">
        <ele>436</ele>
        <time>2023-05-28T07:04:42Z</time>
      </trkpt>
      <trkpt lat="43.34182" lon="2.45009">
        <ele>436.2</ele>
        <time>2023-05-28T07:04:43Z</time>
      </trkpt>
      <trkpt lat="43.34182" lon="2.45007">
        <ele>436.3</ele>
        <time>2023-05-28T07:04:44Z</time>
      </trkpt>
      <trkpt lat="43.34182" lon="2.45005">
        <ele>436.5</ele>
        <time>2023-05-28T07:04:45Z</time>
      </trkpt>
      <trkpt lat="43.34183" lon="2.45003">
        <ele>436.7</ele>
        <time>2023-05-28T07:04:46Z</time>
      </trkpt>
      <trkpt lat="43.34184" lon="2.45001">
        <ele>436.9</ele>
        <time>2023-05-28T07:04:47Z</time>
      </trkpt>
      <trkpt lat="43.34184" lon="2.45">
        <ele>437</ele>
        <time>2023-05-28T07:04:48Z</time>
      </trkpt>
      <trkpt lat="43.34185" lon="2.44999">
        <ele>437</ele>
        <time>2023-05-28T07:04:49Z</time>
      </trkpt>
      <trkpt lat="43.34185" lon="2.44996">
        <ele>437.3</ele>
        <time>2023-05-28T07:04:50Z</time>
      </trkpt>
      <trkpt lat="43.34185" lon="2.44995">
        <ele>437.4</ele>
        <time>2023-05-28T07:04:51Z</time>
      </trkpt>
      <trkpt lat="43.34185" lon="2.44994">
        <ele>437.5</ele>
        <time>2023-05-28T07:04:52Z</time>
      </trkpt>
      <trkpt lat="43.34185" lon="2.44991">
        <ele>437.7</ele>
        <time>2023-05-28T07:04:53Z</time>
      </trkpt>
      <trkpt lat="43.34184" lon="2.44989">
        <ele>437.8</ele>
        <time>2023-05-28T07:04:54Z</time>
      </trkpt>
      <trkpt lat="43.34184" lon="2.44987">
        <ele>438</ele>
        <time>2023-05-28T07:04:55Z</time>
      </trkpt>
      <trkpt lat="43.34184" lon="2.44985">
        <ele>438.2</ele>
        <time>2023-05-28T07:04:56Z</time>
      </trkpt>
      <trkpt lat="43.34184" lon="2.44983">
        <ele>438.3</ele>
        <time>2023-05-28T07:04:57Z</time>
      </trkpt>
      <trkpt lat="43.34184" lon="2.44981">
        <ele>438.5</ele>
        <time>2023-05-28T07:04:58Z</time>
      </trkpt>
      <trkpt lat="43.34183" lon="2.44979">
        <ele>438.7</ele>
        <time>2023-05-28T07:04:59Z</time>
      </trkpt>
      <trkpt lat="43.34183" lon="2.44977">
        <ele>438.9</ele>
        <time>2023-05-28T07:05:00Z</time>
      </trkpt>
      <trkpt lat="43.34182" lon="2.44975">
        <ele>439</ele>
        <time>2023-05-28T07:05:01Z</time>
      </trkpt>
      <trkpt lat="43.34181" lon="2.44973">
        <ele>439.3</ele>
        <time>2023-05-28T07:05:02Z</time>
      </trkpt>
      <trkpt lat="43.34181" lon="2.4497">
        <ele>439.5</ele>
        <time>2023-05-28T07:05:03Z</time>
      </trkpt>
      <trkpt lat="43.3418" lon="2.44968">
        <ele>439.7</ele>
        <time>2023-05-28T07:05:04Z</time>
      </trkpt>
      <trkpt lat="43.34179" lon="2.44967">
        <ele>439.8</ele>
        <time>2023-05-28T07:05:05Z</time>
      </trkpt>
      <trkpt lat="43.34178" lon="2.44965">
        <ele>440</ele>
        <time>2023-05-28T07:05:06Z</time>
      </trkpt>
      <trkpt lat="43.34177" lon="2.44963">
        <ele>440.2</ele>
        <time>2023-05-28T07:05:07Z</time>
      </trkpt>
      <trkpt lat="43.34176" lon="2.44961">
        <ele>440.3</ele>
        <time>2023-05-28T07:05:08Z</time>
      </trkpt>
      <trkpt lat="43.34175" lon="2.4496">
        <ele>440.5</ele>
        <time>2023-05-28T07:05:09Z</time>
      </trkpt>
      <trkpt lat="43.34174" lon="2.44958">
        <ele>440.7</ele>
        <time>2023-05-28T07:05:10Z</time>
      </trkpt>
      <trkpt lat="43.34174" lon="2.44957">
        <ele>440.8</ele>
        <time>2023-05-28T07:05:11Z</time>
      </trkpt>
      <trkpt lat="43.34173" lon="2.44955">
        <ele>441</ele>
        <time>2023-05-28T07:05:12Z</time>
      </trkpt>
      <trkpt lat="43.34172" lon="2.44953">
        <ele>441.1</ele>
        <time>2023-05-28T07:05:13Z</time>
      </trkpt>
      <trkpt lat="43.34171" lon="2.44952">
        <ele>441.3</ele>
        <time>2023-05-28T07:05:14Z</time>
      </trkpt>
      <trkpt lat="43.3417" lon="2.4495">
        <ele>441.5</ele>
        <time>2023-05-28T07:05:15Z</time>
      </trkpt>
      <trkpt lat="43.34169" lon="2.44948">
        <ele>441.6</ele>
        <time>2023-05-28T07:05:16Z</time>
      </trkpt>
      <trkpt lat="43.34168" lon="2.44945">
        <ele>441.8</ele>
        <time>2023-05-28T07:05:17Z</time>
      </trkpt>
      <trkpt lat="43.34168" lon="2.44944">
        <ele>441.9</ele>
        <time>2023-05-28T07:05:18Z</time>
      </trkpt>
      <trkpt lat="43.34167" lon="2.44943">
        <ele>442</ele>
        <time>2023-05-28T07:05:19Z</time>
      </trkpt>
      <trkpt lat="43.34167" lon="2.44942">
        <ele>442.1</ele>
        <time>2023-05-28T07:05:20Z</time>
      </trkpt>
      <trkpt lat="43.34166" lon="2.4494">
        <ele>442.3</ele>
        <time>2023-05-28T07:05:21Z</time>
      </trkpt>
      <trkpt lat="43.34166" lon="2.44939">
        <ele>442.4</ele>
        <time>2023-05-28T07:05:22Z</time>
      </trkpt>
      <trkpt lat="43.34166" lon="2.44936">
        <ele>442.6</ele>
        <time>2023-05-28T07:05:23Z</time>
      </trkpt>
      <trkpt lat="43.34166" lon="2.44935">
        <ele>442.6</ele>
        <time>2023-05-28T07:05:24Z</time>
      </trkpt>
      <trkpt lat="43.34166" lon="2.44933">
        <ele>442.7</ele>
        <time>2023-05-28T07:05:25Z</time>
      </trkpt>
      <trkpt lat="43.34165" lon="2.4493">
        <ele>442.9</ele>
        <time>2023-05-28T07:05:26Z</time>
      </trkpt>
      <trkpt lat="43.34165" lon="2.44929">
        <ele>443</ele>
        <time>2023-05-28T07:05:27Z</time>
      </trkpt>
      <trkpt lat="43.34165" lon="2.44928">
        <ele>443.1</ele>
        <time>2023-05-28T07:05:28Z</time>
      </trkpt>
      <trkpt lat="43.34165" lon="2.44926">
        <ele>443.2</ele>
        <time>2023-05-28T07:05:29Z</time>
      </trkpt>
      <trkpt lat="43.34165" lon="2.44925">
        <ele>443.3</ele>
        <time>2023-05-28T07:05:30Z</time>
      </trkpt>
      <trkpt lat="43.34165" lon="2.44924">
        <ele>443.3</ele>
        <time>2023-05-28T07:05:31Z</time>
      </trkpt>
      <trkpt lat="43.34165" lon="2.44922">
        <ele>443.4</ele>
        <time>2023-05-28T07:05:32Z</time>
      </trkpt>
      <trkpt lat="43.34165" lon="2.44921">
        <ele>443.5</ele>
        <time>2023-05-28T07:05:33Z</time>
      </trkpt>
      <trkpt lat="43.34165" lon="2.44919">
        <ele>443.6</ele>
        <time>2023-05-28T07:05:34Z</time>
      </trkpt>
      <trkpt lat="43.34165" lon="2.44917">
        <ele>443.7</ele>
        <time>2023-05-28T07:05:35Z</time>
      </trkpt>
      <trkpt lat="43.34164" lon="2.44915">
        <ele>443.8</ele>
        <time>2023-05-28T07:05:36Z</time>
      </trkpt>
      <trkpt lat="43.34164" lon="2.44912">
        <ele>444</ele>
        <time>2023-05-28T07:05:37Z</time>
      </trkpt>
      <trkpt lat="43.34164" lon="2.44911">
        <ele>444</ele>
        <time>2023-05-28T07:05:38Z</time>
      </trkpt>
      <trkpt lat="43.34164" lon="2.4491">
        <ele>444.1</ele>
        <time>2023-05-28T07:05:39Z</time>
      </trkpt>
      <trkpt lat="43.34165" lon="2.44907">
        <ele>444.2</ele>
        <time>2023-05-28T07:05:40Z</time>
      </trkpt>
      <trkpt lat="43.34165" lon="2.44906">
        <ele>444.3</ele>
        <time>2023-05-28T07:05:41Z</time>
      </trkpt>
      <trkpt lat="43.34165" lon="2.44905">
        <ele>444.3</ele>
        <time>2023-05-28T07:05:42Z</time>
      </trkpt>
      <trkpt lat="43.34165" lon="2.44902">
        <ele>444.4</ele>
        <time>2023-05-28T07:05:43Z</time>
      </trkpt>
      <trkpt lat="43.34165" lon="2.44901">
        <ele>444.5</ele>
        <time>2023-05-28T07:05:44Z</time>
      </trkpt>
      <trkpt lat="43.34165" lon="2.449">
        <ele>444.5</ele>
        <time>2023-05-28T07:05:45Z</time>
      </trkpt>
      <trkpt lat="43.34166" lon="2.44898">
        <ele>444.6</ele>
        <time>2023-05-28T07:05:46Z</time>
      </trkpt>
      <trkpt lat="43.34166" lon="2.44896">
        <ele>444.7</ele>
        <time>2023-05-28T07:05:47Z</time>
      </trkpt>
      <trkpt lat="43.34166" lon="2.44894">
        <ele>444.7</ele>
        <time>2023-05-28T07:05:48Z</time>
      </trkpt>
      <trkpt lat="43.34166" lon="2.44891">
        <ele>444.8</ele>
        <time>2023-05-28T07:05:49Z</time>
      </trkpt>
      <trkpt lat="43.34166" lon="2.44889">
        <ele>444.9</ele>
        <time>2023-05-28T07:05:50Z</time>
      </trkpt>
      <trkpt lat="43.34167" lon="2.44887">
        <ele>444.9</ele>
        <time>2023-05-28T07:05:51Z</time>
      </trkpt>
      <trkpt lat="43.34167" lon="2.44885">
        <ele>445</ele>
        <time>2023-05-28T07:05:52Z</time>
      </trkpt>
      <trkpt lat="43.34167" lon="2.44883">
        <ele>445</ele>
        <time>2023-05-28T07:05:53Z</time>
      </trkpt>
      <trkpt lat="43.34167" lon="2.44881">
        <ele>445.1</ele>
        <time>2023-05-28T07:05:54Z</time>
      </trkpt>
      <trkpt lat="43.34167" lon="2.44879">
        <ele>445.1</ele>
        <time>2023-05-28T07:05:55Z</time>
      </trkpt>
      <trkpt lat="43.34167" lon="2.44877">
        <ele>445.2</ele>
        <time>2023-05-28T07:05:56Z</time>
      </trkpt>
      <trkpt lat="43.34167" lon="2.44875">
        <ele>445.2</ele>
        <time>2023-05-28T07:05:57Z</time>
      </trkpt>
      <trkpt lat="43.34167" lon="2.44872">
        <ele>445.3</ele>
        <time>2023-05-28T07:05:58Z</time>
      </trkpt>
      <trkpt lat="43.34167" lon="2.44871">
        <ele>445.3</ele>
        <time>2023-05-28T07:05:59Z</time>
      </trkpt>
      <trkpt lat="43.34167" lon="2.44869">
        <ele>445.3</ele>
        <time>2023-05-28T07:06:00Z</time>
      </trkpt>
      <trkpt lat="43.34167" lon="2.44867">
        <ele>445.4</ele>
        <time>2023-05-28T07:06:01Z</time>
      </trkpt>
      <trkpt lat="43.34167" lon="2.44865">
        <ele>445.4</ele>
        <time>2023-05-28T07:06:02Z</time>
      </trkpt>
      <trkpt lat="43.34166" lon="2.44864">
        <ele>445.4</ele>
        <time>2023-05-28T07:06:03Z</time>
      </trkpt>
      <trkpt lat="43.34166" lon="2.44862">
        <ele>445.5</ele>
        <time>2023-05-28T07:06:04Z</time>
      </trkpt>
      <trkpt lat="43.34166" lon="2.4486">
        <ele>445.5</ele>
        <time>2023-05-28T07:06:05Z</time>
      </trkpt>
      <trkpt lat="43.34166" lon="2.44858">
        <ele>445.5</ele>
        <time>2023-05-28T07:06:06Z</time>
      </trkpt>
      <trkpt lat="43.34165" lon="2.44856">
        <ele>445.6</ele>
        <time>2023-05-28T07:06:07Z</time>
      </trkpt>
      <trkpt lat="43.34165" lon="2.44854">
        <ele>445.6</ele>
        <time>2023-05-28T07:06:08Z</time>
      </trkpt>
      <trkpt lat="43.34165" lon="2.44851">
        <ele>445.6</ele>
        <time>2023-05-28T07:06:09Z</time>
      </trkpt>
      <trkpt lat="43.34165" lon="2.44849">
        <ele>445.7</ele>
        <time>2023-05-28T07:06:10Z</time>
      </trkpt>
      <trkpt lat="43.34165" lon="2.44848">
        <ele>445.7</ele>
        <time>2023-05-28T07:06:11Z</time>
      </trkpt>
      <trkpt lat="43.34164" lon="2.44846">
        <ele>445.7</ele>
        <time>2023-05-28T07:06:12Z</time>
      </trkpt>
      <trkpt lat="43.34164" lon="2.44844">
        <ele>445.7</ele>
        <time>2023-05-28T07:06:13Z</time>
      </trkpt>
      <trkpt lat="43.34164" lon="2.44842">
        <ele>445.7</ele>
        <time>2023-05-28T07:06:14Z</time>
      </trkpt>
      <trkpt lat="43.34164" lon="2.4484">
        <ele>445.8</ele>
        <time>2023-05-28T07:06:15Z</time>
      </trkpt>
      <trkpt lat="43.34164" lon="2.44837">
        <ele>445.8</ele>
        <time>2023-05-28T07:06:16Z</time>
      </trkpt>
      <trkpt lat="43.34164" lon="2.44835">
        <ele>445.8</ele>
        <time>2023-05-28T07:06:17Z</time>
      </trkpt>
      <trkpt lat="43.34164" lon="2.44834">
        <ele>445.8</ele>
        <time>2023-05-28T07:06:18Z</time>
      </trkpt>
      <trkpt lat="43.34164" lon="2.44832">
        <ele>445.9</ele>
        <time>2023-05-28T07:06:19Z</time>
      </trkpt>
      <trkpt lat="43.34164" lon="2.4483">
        <ele>445.9</ele>
        <time>2023-05-28T07:06:20Z</time>
      </trkpt>
      <trkpt lat="43.34164" lon="2.44828">
        <ele>445.9</ele>
        <time>2023-05-28T07:06:21Z</time>
      </trkpt>
      <trkpt lat="43.34164" lon="2.44826">
        <ele>445.9</ele>
        <time>2023-05-28T07:06:22Z</time>
      </trkpt>
      <trkpt lat="43.34165" lon="2.44824">
        <ele>446</ele>
        <time>2023-05-28T07:06:23Z</time>
      </trkpt>
      <trkpt lat="43.34165" lon="2.44822">
        <ele>446</ele>
        <time>2023-05-28T07:06:24Z</time>
      </trkpt>
      <trkpt lat="43.34165" lon="2.44821">
        <ele>446</ele>
        <time>2023-05-28T07:06:25Z</time>
      </trkpt>
      <trkpt lat="43.34165" lon="2.4482">
        <ele>446</ele>
        <time>2023-05-28T07:06:26Z</time>
      </trkpt>
      <trkpt lat="43.34164" lon="2.44819">
        <ele>446.1</ele>
        <time>2023-05-28T07:06:27Z</time>
      </trkpt>
      <trkpt lat="43.34164" lon="2.44819">
        <ele>446.1</ele>
        <time>2023-05-28T07:06:28Z</time>
      </trkpt>
      <trkpt lat="43.34164" lon="2.44819">
        <ele>446.1</ele>
        <time>2023-05-28T07:06:29Z</time>
      </trkpt>
      <trkpt lat="43.34163" lon="2.44819">
        <ele>446.1</ele>
        <time>2023-05-28T07:06:30Z</time>
      </trkpt>
      <trkpt lat="43.34163" lon="2.44819">
        <ele>446.1</ele>
        <time>2023-05-28T07:06:31Z</time>
      </trkpt>
      <trkpt lat="43.34163" lon="2.44819">
        <ele>446.1</ele>
        <time>2023-05-28T07:06:32Z</time>
      </trkpt>
      <trkpt lat="43.34163" lon="2.44819">
        <ele>446.1</ele>
        <time>2023-05-28T07:06:33Z</time>
      </trkpt>
      <trkpt lat="43.34163" lon="2.44819">
        <ele>446.1</ele>
        <time>2023-05-28T07:06:34Z</time>
      </trkpt>
      <trkpt lat="43.34162" lon="2.44819">
        <ele>446.1</ele>
        <time>2023-05-28T07:06:35Z</time>
      </trkpt>
      <trkpt lat="43.34162" lon="2.44819">
        <ele>446.1</ele>
        <time>2023-05-28T07:06:36Z</time>
      </trkpt>
      <trkpt lat="43.34162" lon="2.44819">
        <ele>446.1</ele>
        <time>2023-05-28T07:06:37Z</time>
      </trkpt>
      <trkpt lat="43.34161" lon="2.44819">
        <ele>446.1</ele>
        <time>2023-05-28T07:06:38Z</time>
      </trkpt>
      <trkpt lat="43.34161" lon="2.44819">
        <ele>446.1</ele>
        <time>2023-05-28T07:06:39Z</time>
      </trkpt>
      <trkpt lat="43.34161" lon="2.4482">
        <ele>446.1</ele>
        <time>2023-05-28T07:06:40Z</time>
      </trkpt>
      <trkpt lat="43.34161" lon="2.4482">
        <ele>446.1</ele>
        <time>2023-05-28T07:06:41Z</time>
      </trkpt>
      <trkpt lat="43.34161" lon="2.4482">
        <ele>446.1</ele>
        <time>2023-05-28T07:06:42Z</time>
      </trkpt>
      <trkpt lat="43.34161" lon="2.44819">
        <ele>446.1</ele>
        <time>2023-05-28T07:06:43Z</time>
      </trkpt>
      <trkpt lat="43.34161" lon="2.44819">
        <ele>446.1</ele>
        <time>2023-05-28T07:06:44Z</time>
      </trkpt>
      <trkpt lat="43.34162" lon="2.44819">
        <ele>446.1</ele>
        <time>2023-05-28T07:06:45Z</time>
      </trkpt>
      <trkpt lat="43.34162" lon="2.44819">
        <ele>446.1</ele>
        <time>2023-05-28T07:06:46Z</time>
      </trkpt>
      <trkpt lat="43.34162" lon="2.44819">
        <ele>446.1</ele>
        <time>2023-05-28T07:06:47Z</time>
      </trkpt>
      <trkpt lat="43.34162" lon="2.44819">
        <ele>446.1</ele>
        <time>2023-05-28T07:06:48Z</time>
      </trkpt>
      <trkpt lat="43.34162" lon="2.4482">
        <ele>446.1</ele>
        <time>2023-05-28T07:06:49Z</time>
      </trkpt>
      <trkpt lat="43.34162" lon="2.4482">
        <ele>446.1</ele>
        <time>2023-05-28T07:06:50Z</time>
      </trkpt>
      <trkpt lat="43.34162" lon="2.4482">
        <ele>446.1</ele>
        <time>2023-05-28T07:06:51Z</time>
      </trkpt>
      <trkpt lat="43.34162" lon="2.4482">
        <ele>446.1</ele>
        <time>2023-05-28T07:06:52Z</time>
      </trkpt>
      <trkpt lat="43.34162" lon="2.4482">
        <ele>446.1</ele>
        <time>2023-05-28T07:06:53Z</time>
      </trkpt>
      <trkpt lat="43.34162" lon="2.4482">
        <ele>446.1</ele>
        <time>2023-05-28T07:06:54Z</time>
      </trkpt>
      <trkpt lat="43.34162" lon="2.4482">
        <ele>446.1</ele>
        <time>2023-05-28T07:06:55Z</time>
      </trkpt>
      <trkpt lat="43.34162" lon="2.4482">
        <ele>446.1</ele>
        <time>2023-05-28T07:06:56Z</time>
      </trkpt>
      <trkpt lat="43.34162" lon="2.4482">
        <ele>446.2</ele>
        <time>2023-05-28T07:06:57Z</time>
      </trkpt>
      <trkpt lat="43.34162" lon="2.4482">
        <ele>446.2</ele>
        <time>2023-05-28T07:06:58Z</time>
      </trkpt>
      <trkpt lat="43.34162" lon="2.4482">
        <ele>446.2</ele>
        <time>2023-05-28T07:06:59Z</time>
      </trkpt>
      <trkpt lat="43.34162" lon="2.4482">
        <ele>446.2</ele>
        <time>2023-05-28T07:07:00Z</time>
      </trkpt>
      <trkpt lat="43.34162" lon="2.4482">
        <ele>446.2</ele>
        <time>2023-05-28T07:07:01Z</time>
      </trkpt>
      <trkpt lat="43.34162" lon="2.4482">
        <ele>446.2</ele>
        <time>2023-05-28T07:07:02Z</time>
      </trkpt>
      <trkpt lat="43.34162" lon="2.4482">
        <ele>446.2</ele>
        <time>2023-05-28T07:07:03Z</time>
      </trkpt>
      <trkpt lat="43.34162" lon="2.4482">
        <ele>446.2</ele>
        <time>2023-05-28T07:07:04Z</time>
      </trkpt>
      <trkpt lat="43.34162" lon="2.4482">
        <ele>446.2</ele>
        <time>2023-05-28T07:07:05Z</time>
      </trkpt>
      <trkpt lat="43.34162" lon="2.44819">
        <ele>446.2</ele>
        <time>2023-05-28T07:07:06Z</time>
      </trkpt>
      <trkpt lat="43.34162" lon="2.44818">
        <ele>446.2</ele>
        <time>2023-05-28T07:07:07Z</time>
      </trkpt>
      <trkpt lat="43.34162" lon="2.44816">
        <ele>446.2</ele>
        <time>2023-05-28T07:07:08Z</time>
      </trkpt>
      <trkpt lat="43.34162" lon="2.44815">
        <ele>446.2</ele>
        <time>2023-05-28T07:07:09Z</time>
      </trkpt>
      <trkpt lat="43.34163" lon="2.44814">
        <ele>446.3</ele>
        <time>2023-05-28T07:07:10Z</time>
      </trkpt>
      <trkpt lat="43.34163" lon="2.44814">
        <ele>446.3</ele>
        <time>2023-05-28T07:07:11Z</time>
      </trkpt>
      <trkpt lat="43.34163" lon="2.44813">
        <ele>446.3</ele>
        <time>2023-05-28T07:07:12Z</time>
      </trkpt>
      <trkpt lat="43.34163" lon="2.44813">
        <ele>446.3</ele>
        <time>2023-05-28T07:07:13Z</time>
      </trkpt>
      <trkpt lat="43.34163" lon="2.44813">
        <ele>446.3</ele>
        <time>2023-05-28T07:07:14Z</time>
      </trkpt>
      <trkpt lat="43.34163" lon="2.44813">
        <ele>446.3</ele>
        <time>2023-05-28T07:07:15Z</time>
      </trkpt>
      <trkpt lat="43.34163" lon="2.44813">
        <ele>446.3</ele>
        <time>2023-05-28T07:07:16Z</time>
      </trkpt>
      <trkpt lat="43.34163" lon="2.44812">
        <ele>446.3</ele>
        <time>2023-05-28T07:07:17Z</time>
      </trkpt>
      <trkpt lat="43.34163" lon="2.44811">
        <ele>446.3</ele>
        <time>2023-05-28T07:07:18Z</time>
      </trkpt>
      <trkpt lat="43.34163" lon="2.4481">
        <ele>446.3</ele>
        <time>2023-05-28T07:07:19Z</time>
      </trkpt>
      <trkpt lat="43.34164" lon="2.44809">
        <ele>446.4</ele>
        <time>2023-05-28T07:07:20Z</time>
      </trkpt>
      <trkpt lat="43.34164" lon="2.44808">
        <ele>446.4</ele>
        <time>2023-05-28T07:07:21Z</time>
      </trkpt>
      <trkpt lat="43.34164" lon="2.44807">
        <ele>446.4</ele>
        <time>2023-05-28T07:07:22Z</time>
      </trkpt>
      <trkpt lat="43.34164" lon="2.44806">
        <ele>446.4</ele>
        <time>2023-05-28T07:07:23Z</time>
      </trkpt>
      <trkpt lat="43.34165" lon="2.44806">
        <ele>446.5</ele>
        <time>2023-05-28T07:07:24Z</time>
      </trkpt>
      <trkpt lat="43.34165" lon="2.44804">
        <ele>446.5</ele>
        <time>2023-05-28T07:07:25Z</time>
      </trkpt>
      <trkpt lat="43.34165" lon="2.44803">
        <ele>446.5</ele>
        <time>2023-05-28T07:07:26Z</time>
      </trkpt>
      <trkpt lat="43.34166" lon="2.44802">
        <ele>446.6</ele>
        <time>2023-05-28T07:07:27Z</time>
      </trkpt>
      <trkpt lat="43.34166" lon="2.44801">
        <ele>446.6</ele>
        <time>2023-05-28T07:07:28Z</time>
      </trkpt>
      <trkpt lat="43.34166" lon="2.448">
        <ele>446.6</ele>
        <time>2023-05-28T07:07:29Z</time>
      </trkpt>
      <trkpt lat="43.34167" lon="2.44797">
        <ele>446.7</ele>
        <time>2023-05-28T07:07:30Z</time>
      </trkpt>
      <trkpt lat="43.34167" lon="2.44796">
        <ele>446.7</ele>
        <time>2023-05-28T07:07:31Z</time>
      </trkpt>
      <trkpt lat="43.34167" lon="2.44795">
        <ele>446.7</ele>
        <time>2023-05-28T07:07:32Z</time>
      </trkpt>
      <trkpt lat="43.34168" lon="2.44792">
        <ele>446.8</ele>
        <time>2023-05-28T07:07:33Z</time>
      </trkpt>
      <trkpt lat="43.34169" lon="2.44791">
        <ele>446.8</ele>
        <time>2023-05-28T07:07:34Z</time>
      </trkpt>
      <trkpt lat="43.34169" lon="2.4479">
        <ele>446.9</ele>
        <time>2023-05-28T07:07:35Z</time>
      </trkpt>
      <trkpt lat="43.3417" lon="2.44788">
        <ele>446.9</ele>
        <time>2023-05-28T07:07:36Z</time>
      </trkpt>
      <trkpt lat="43.3417" lon="2.44786">
        <ele>447</ele>
        <time>2023-05-28T07:07:37Z</time>
      </trkpt>
      <trkpt lat="43.34171" lon="2.44784">
        <ele>447.1</ele>
        <time>2023-05-28T07:07:38Z</time>
      </trkpt>
      <trkpt lat="43.34172" lon="2.44782">
        <ele>447.1</ele>
        <time>2023-05-28T07:07:39Z</time>
      </trkpt>
      <trkpt lat="43.34173" lon="2.4478">
        <ele>447.2</ele>
        <time>2023-05-28T07:07:40Z</time>
      </trkpt>
      <trkpt lat="43.34174" lon="2.44778">
        <ele>447.2</ele>
        <time>2023-05-28T07:07:41Z</time>
      </trkpt>
      <trkpt lat="43.34176" lon="2.44775">
        <ele>447.3</ele>
        <time>2023-05-28T07:07:42Z</time>
      </trkpt>
      <trkpt lat="43.34176" lon="2.44774">
        <ele>447.4</ele>
        <time>2023-05-28T07:07:43Z</time>
      </trkpt>
      <trkpt lat="43.34178" lon="2.44771">
        <ele>447.4</ele>
        <time>2023-05-28T07:07:44Z</time>
      </trkpt>
      <trkpt lat="43.34178" lon="2.4477">
        <ele>447.4</ele>
        <time>2023-05-28T07:07:45Z</time>
      </trkpt>
      <trkpt lat="43.3418" lon="2.44767">
        <ele>447.4</ele>
        <time>2023-05-28T07:07:46Z</time>
      </trkpt>
      <trkpt lat="43.34181" lon="2.44766">
        <ele>447.4</ele>
        <time>2023-05-28T07:07:47Z</time>
      </trkpt>
      <trkpt lat="43.34182" lon="2.44762">
        <ele>447.5</ele>
        <time>2023-05-28T07:07:48Z</time>
      </trkpt>
      <trkpt lat="43.34183" lon="2.44761">
        <ele>447.5</ele>
        <time>2023-05-28T07:07:49Z</time>
      </trkpt>
      <trkpt lat="43.34185" lon="2.44757">
        <ele>447.5</ele>
        <time>2023-05-28T07:07:50Z</time>
      </trkpt>
      <trkpt lat="43.34185" lon="2.44756">
        <ele>447.5</ele>
        <time>2023-05-28T07:07:51Z</time>
      </trkpt>
      <trkpt lat="43.34188" lon="2.44752">
        <ele>447.5</ele>
        <time>2023-05-28T07:07:52Z</time>
      </trkpt>
      <trkpt lat="43.34188" lon="2.44751">
        <ele>447.5</ele>
        <time>2023-05-28T07:07:53Z</time>
      </trkpt>
      <trkpt lat="43.3419" lon="2.44747">
        <ele>447.5</ele>
        <time>2023-05-28T07:07:54Z</time>
      </trkpt>
      <trkpt lat="43.34191" lon="2.44745">
        <ele>447.5</ele>
        <time>2023-05-28T07:07:55Z</time>
      </trkpt>
      <trkpt lat="43.34193" lon="2.44741">
        <ele>447.5</ele>
        <time>2023-05-28T07:07:56Z</time>
      </trkpt>
      <trkpt lat="43.34193" lon="2.4474">
        <ele>447.5</ele>
        <time>2023-05-28T07:07:57Z</time>
      </trkpt>
      <trkpt lat="43.34196" lon="2.44736">
        <ele>447.5</ele>
        <time>2023-05-28T07:07:58Z</time>
      </trkpt>
      <trkpt lat="43.34196" lon="2.44735">
        <ele>447.5</ele>
        <time>2023-05-28T07:07:59Z</time>
      </trkpt>
      <trkpt lat="43.34198" lon="2.44731">
        <ele>447.6</ele>
        <time>2023-05-28T07:08:00Z</time>
      </trkpt>
      <trkpt lat="43.34199" lon="2.4473">
        <ele>447.6</ele>
        <time>2023-05-28T07:08:01Z</time>
      </trkpt>
      <trkpt lat="43.342" lon="2.44726">
        <ele>447.6</ele>
        <time>2023-05-28T07:08:02Z</time>
      </trkpt>
      <trkpt lat="43.34201" lon="2.44725">
        <ele>447.6</ele>
        <time>2023-05-28T07:08:03Z</time>
      </trkpt>
      <trkpt lat="43.34202" lon="2.44721">
        <ele>447.7</ele>
        <time>2023-05-28T07:08:04Z</time>
      </trkpt>
      <trkpt lat="43.34203" lon="2.4472">
        <ele>447.7</ele>
        <time>2023-05-28T07:08:05Z</time>
      </trkpt>
      <trkpt lat="43.34204" lon="2.44716">
        <ele>447.7</ele>
        <time>2023-05-28T07:08:06Z</time>
      </trkpt>
      <trkpt lat="43.34205" lon="2.44714">
        <ele>447.7</ele>
        <time>2023-05-28T07:08:07Z</time>
      </trkpt>
      <trkpt lat="43.34207" lon="2.4471">
        <ele>447.8</ele>
        <time>2023-05-28T07:08:08Z</time>
      </trkpt>
      <trkpt lat="43.34207" lon="2.44708">
        <ele>447.8</ele>
        <time>2023-05-28T07:08:09Z</time>
      </trkpt>
      <trkpt lat="43.34209" lon="2.44704">
        <ele>447.9</ele>
        <time>2023-05-28T07:08:10Z</time>
      </trkpt>
      <trkpt lat="43.34209" lon="2.44703">
        <ele>447.9</ele>
        <time>2023-05-28T07:08:11Z</time>
      </trkpt>
      <trkpt lat="43.3421" lon="2.44699">
        <ele>448</ele>
        <time>2023-05-28T07:08:12Z</time>
      </trkpt>
      <trkpt lat="43.34211" lon="2.44697">
        <ele>448</ele>
        <time>2023-05-28T07:08:13Z</time>
      </trkpt>
      <trkpt lat="43.34213" lon="2.44693">
        <ele>448.1</ele>
        <time>2023-05-28T07:08:14Z</time>
      </trkpt>
      <trkpt lat="43.34214" lon="2.44692">
        <ele>448.2</ele>
        <time>2023-05-28T07:08:15Z</time>
      </trkpt>
      <trkpt lat="43.34215" lon="2.44688">
        <ele>448.3</ele>
        <time>2023-05-28T07:08:16Z</time>
      </trkpt>
      <trkpt lat="43.34216" lon="2.44683">
        <ele>448.4</ele>
        <time>2023-05-28T07:08:17Z</time>
      </trkpt>
      <trkpt lat="43.34217" lon="2.44682">
        <ele>448.5</ele>
        <time>2023-05-28T07:08:18Z</time>
      </trkpt>
      <trkpt lat="43.34218" lon="2.44678">
        <ele>448.6</ele>
        <time>2023-05-28T07:08:19Z</time>
      </trkpt>
      <trkpt lat="43.34219" lon="2.44677">
        <ele>448.6</ele>
        <time>2023-05-28T07:08:20Z</time>
      </trkpt>
      <trkpt lat="43.3422" lon="2.44673">
        <ele>448.7</ele>
        <time>2023-05-28T07:08:21Z</time>
      </trkpt>
      <trkpt lat="43.34221" lon="2.44672">
        <ele>448.8</ele>
        <time>2023-05-28T07:08:22Z</time>
      </trkpt>
      <trkpt lat="43.34223" lon="2.44669">
        <ele>448.9</ele>
        <time>2023-05-28T07:08:23Z</time>
      </trkpt>
      <trkpt lat="43.34224" lon="2.44668">
        <ele>449</ele>
        <time>2023-05-28T07:08:24Z</time>
      </trkpt>
      <trkpt lat="43.34225" lon="2.44666">
        <ele>449</ele>
        <time>2023-05-28T07:08:25Z</time>
      </trkpt>
      <trkpt lat="43.34226" lon="2.44664">
        <ele>449.1</ele>
        <time>2023-05-28T07:08:26Z</time>
      </trkpt>
      <trkpt lat="43.34226" lon="2.44662">
        <ele>449.2</ele>
        <time>2023-05-28T07:08:27Z</time>
      </trkpt>
      <trkpt lat="43.34227" lon="2.4466">
        <ele>449.3</ele>
        <time>2023-05-28T07:08:28Z</time>
      </trkpt>
      <trkpt lat="43.34229" lon="2.44656">
        <ele>449.5</ele>
        <time>2023-05-28T07:08:29Z</time>
      </trkpt>
      <trkpt lat="43.34229" lon="2.44654">
        <ele>449.6</ele>
        <time>2023-05-28T07:08:30Z</time>
      </trkpt>
      <trkpt lat="43.34231" lon="2.4465">
        <ele>449.8</ele>
        <time>2023-05-28T07:08:31Z</time>
      </trkpt>
      <trkpt lat="43.34232" lon="2.44648">
        <ele>449.9</ele>
        <time>2023-05-28T07:08:32Z</time>
      </trkpt>
      <trkpt lat="43.34233" lon="2.44645">
        <ele>450.1</ele>
        <time>2023-05-28T07:08:33Z</time>
      </trkpt>
      <trkpt lat="43.34234" lon="2.44644">
        <ele>450.1</ele>
        <time>2023-05-28T07:08:34Z</time>
      </trkpt>
      <trkpt lat="43.34235" lon="2.4464">
        <ele>450.3</ele>
        <time>2023-05-28T07:08:35Z</time>
      </trkpt>
      <trkpt lat="43.34236" lon="2.44639">
        <ele>450.4</ele>
        <time>2023-05-28T07:08:36Z</time>
      </trkpt>
      <trkpt lat="43.34237" lon="2.44635">
        <ele>450.6</ele>
        <time>2023-05-28T07:08:37Z</time>
      </trkpt>
      <trkpt lat="43.34238" lon="2.44634">
        <ele>450.7</ele>
        <time>2023-05-28T07:08:38Z</time>
      </trkpt>
      <trkpt lat="43.3424" lon="2.4463">
        <ele>450.9</ele>
        <time>2023-05-28T07:08:39Z</time>
      </trkpt>
      <trkpt lat="43.3424" lon="2.44629">
        <ele>450.9</ele>
        <time>2023-05-28T07:08:40Z</time>
      </trkpt>
      <trkpt lat="43.34241" lon="2.44627">
        <ele>451</ele>
        <time>2023-05-28T07:08:41Z</time>
      </trkpt>
      <trkpt lat="43.34241" lon="2.44626">
        <ele>451.1</ele>
        <time>2023-05-28T07:08:42Z</time>
      </trkpt>
      <trkpt lat="43.34243" lon="2.44622">
        <ele>451.3</ele>
        <time>2023-05-28T07:08:43Z</time>
      </trkpt>
      <trkpt lat="43.34243" lon="2.44621">
        <ele>451.4</ele>
        <time>2023-05-28T07:08:44Z</time>
      </trkpt>
      <trkpt lat="43.34244" lon="2.44618">
        <ele>451.6</ele>
        <time>2023-05-28T07:08:45Z</time>
      </trkpt>
      <trkpt lat="43.34245" lon="2.44617">
        <ele>451.6</ele>
        <time>2023-05-28T07:08:46Z</time>
      </trkpt>
      <trkpt lat="43.34246" lon="2.44613">
        <ele>451.8</ele>
        <time>2023-05-28T07:08:47Z</time>
      </trkpt>
      <trkpt lat="43.34246" lon="2.44611">
        <ele>451.8</ele>
        <time>2023-05-28T07:08:48Z</time>
      </trkpt>
      <trkpt lat="43.34247" lon="2.44608">
        <ele>452</ele>
        <time>2023-05-28T07:08:49Z</time>
      </trkpt>
      <trkpt lat="43.34248" lon="2.44606">
        <ele>452</ele>
        <time>2023-05-28T07:08:50Z</time>
      </trkpt>
      <trkpt lat="43.34249" lon="2.44602">
        <ele>452.2</ele>
        <time>2023-05-28T07:08:51Z</time>
      </trkpt>
      <trkpt lat="43.34249" lon="2.44601">
        <ele>452.2</ele>
        <time>2023-05-28T07:08:52Z</time>
      </trkpt>
      <trkpt lat="43.3425" lon="2.44597">
        <ele>452.4</ele>
        <time>2023-05-28T07:08:53Z</time>
      </trkpt>
      <trkpt lat="43.3425" lon="2.44595">
        <ele>452.4</ele>
        <time>2023-05-28T07:08:54Z</time>
      </trkpt>
      <trkpt lat="43.34251" lon="2.44591">
        <ele>452.6</ele>
        <time>2023-05-28T07:08:55Z</time>
      </trkpt>
      <trkpt lat="43.34251" lon="2.4459">
        <ele>452.6</ele>
        <time>2023-05-28T07:08:56Z</time>
      </trkpt>
      <trkpt lat="43.34252" lon="2.44586">
        <ele>452.7</ele>
        <time>2023-05-28T07:08:57Z</time>
      </trkpt>
      <trkpt lat="43.34252" lon="2.44585">
        <ele>452.7</ele>
        <time>2023-05-28T07:08:58Z</time>
      </trkpt>
      <trkpt lat="43.34253" lon="2.4458">
        <ele>452.8</ele>
        <time>2023-05-28T07:08:59Z</time>
      </trkpt>
      <trkpt lat="43.34254" lon="2.44579">
        <ele>452.8</ele>
        <time>2023-05-28T07:09:00Z</time>
      </trkpt>
      <trkpt lat="43.34255" lon="2.44575">
        <ele>452.8</ele>
        <time>2023-05-28T07:09:01Z</time>
      </trkpt>
      <trkpt lat="43.34255" lon="2.44573">
        <ele>452.8</ele>
        <time>2023-05-28T07:09:02Z</time>
      </trkpt>
      <trkpt lat="43.34256" lon="2.44571">
        <ele>452.8</ele>
        <time>2023-05-28T07:09:03Z</time>
      </trkpt>
      <trkpt lat="43.34256" lon="2.44569">
        <ele>452.8</ele>
        <time>2023-05-28T07:09:04Z</time>
      </trkpt>
      <trkpt lat="43.34257" lon="2.44565">
        <ele>452.8</ele>
        <time>2023-05-28T07:09:05Z</time>
      </trkpt>
      <trkpt lat="43.34257" lon="2.44564">
        <ele>452.8</ele>
        <time>2023-05-28T07:09:06Z</time>
      </trkpt>
      <trkpt lat="43.34258" lon="2.4456">
        <ele>452.8</ele>
        <time>2023-05-28T07:09:07Z</time>
      </trkpt>
      <trkpt lat="43.34258" lon="2.44559">
        <ele>452.7</ele>
        <time>2023-05-28T07:09:08Z</time>
      </trkpt>
      <trkpt lat="43.34259" lon="2.44555">
        <ele>452.7</ele>
        <time>2023-05-28T07:09:09Z</time>
      </trkpt>
      <trkpt lat="43.34259" lon="2.44554">
        <ele>452.7</ele>
        <time>2023-05-28T07:09:10Z</time>
      </trkpt>
      <trkpt lat="43.3426" lon="2.44549">
        <ele>452.6</ele>
        <time>2023-05-28T07:09:11Z</time>
      </trkpt>
      <trkpt lat="43.3426" lon="2.44547">
        <ele>452.6</ele>
        <time>2023-05-28T07:09:12Z</time>
      </trkpt>
      <trkpt lat="43.34261" lon="2.44543">
        <ele>452.5</ele>
        <time>2023-05-28T07:09:13Z</time>
      </trkpt>
      <trkpt lat="43.34261" lon="2.44542">
        <ele>452.5</ele>
        <time>2023-05-28T07:09:14Z</time>
      </trkpt>
      <trkpt lat="43.34263" lon="2.44538">
        <ele>452.5</ele>
        <time>2023-05-28T07:09:15Z</time>
      </trkpt>
      <trkpt lat="43.34263" lon="2.44536">
        <ele>452.6</ele>
        <time>2023-05-28T07:09:16Z</time>
      </trkpt>
      <trkpt lat="43.34264" lon="2.44532">
        <ele>452.7</ele>
        <time>2023-05-28T07:09:17Z</time>
      </trkpt>
      <trkpt lat="43.34265" lon="2.4453">
        <ele>452.7</ele>
        <time>2023-05-28T07:09:18Z</time>
      </trkpt>
      <trkpt lat="43.34266" lon="2.44526">
        <ele>452.8</ele>
        <time>2023-05-28T07:09:19Z</time>
      </trkpt>
      <trkpt lat="43.34267" lon="2.44525">
        <ele>452.8</ele>
        <time>2023-05-28T07:09:20Z</time>
      </trkpt>
      <trkpt lat="43.34268" lon="2.44521">
        <ele>452.9</ele>
        <time>2023-05-28T07:09:21Z</time>
      </trkpt>
      <trkpt lat="43.34269" lon="2.44519">
        <ele>453</ele>
        <time>2023-05-28T07:09:22Z</time>
      </trkpt>
      <trkpt lat="43.3427" lon="2.44515">
        <ele>453.1</ele>
        <time>2023-05-28T07:09:23Z</time>
      </trkpt>
      <trkpt lat="43.3427" lon="2.44513">
        <ele>453.1</ele>
        <time>2023-05-28T07:09:24Z</time>
      </trkpt>
      <trkpt lat="43.34271" lon="2.44509">
        <ele>453.2</ele>
        <time>2023-05-28T07:09:25Z</time>
      </trkpt>
      <trkpt lat="43.34272" lon="2.44507">
        <ele>453.3</ele>
        <time>2023-05-28T07:09:26Z</time>
      </trkpt>
      <trkpt lat="43.34273" lon="2.44504">
        <ele>453.4</ele>
        <time>2023-05-28T07:09:27Z</time>
      </trkpt>
      <trkpt lat="43.34273" lon="2.44503">
        <ele>453.4</ele>
        <time>2023-05-28T07:09:28Z</time>
      </trkpt>
      <trkpt lat="43.34275" lon="2.44498">
        <ele>453.5</ele>
        <time>2023-05-28T07:09:29Z</time>
      </trkpt>
      <trkpt lat="43.34275" lon="2.44497">
        <ele>453.5</ele>
        <time>2023-05-28T07:09:30Z</time>
      </trkpt>
      <trkpt lat="43.34277" lon="2.44492">
        <ele>453.7</ele>
        <time>2023-05-28T07:09:31Z</time>
      </trkpt>
      <trkpt lat="43.34277" lon="2.4449">
        <ele>453.7</ele>
        <time>2023-05-28T07:09:32Z</time>
      </trkpt>
      <trkpt lat="43.34278" lon="2.44485">
        <ele>453.9</ele>
        <time>2023-05-28T07:09:33Z</time>
      </trkpt>
      <trkpt lat="43.34279" lon="2.44483">
        <ele>453.9</ele>
        <time>2023-05-28T07:09:34Z</time>
      </trkpt>
      <trkpt lat="43.3428" lon="2.44479">
        <ele>454</ele>
        <time>2023-05-28T07:09:35Z</time>
      </trkpt>
      <trkpt lat="43.3428" lon="2.44477">
        <ele>454.1</ele>
        <time>2023-05-28T07:09:36Z</time>
      </trkpt>
      <trkpt lat="43.34281" lon="2.44472">
        <ele>454.2</ele>
        <time>2023-05-28T07:09:37Z</time>
      </trkpt>
      <trkpt lat="43.34281" lon="2.4447">
        <ele>454.3</ele>
        <time>2023-05-28T07:09:38Z</time>
      </trkpt>
      <trkpt lat="43.34283" lon="2.44466">
        <ele>454.4</ele>
        <time>2023-05-28T07:09:39Z</time>
      </trkpt>
      <trkpt lat="43.34283" lon="2.44464">
        <ele>454.4</ele>
        <time>2023-05-28T07:09:40Z</time>
      </trkpt>
      <trkpt lat="43.34285" lon="2.4446">
        <ele>454.6</ele>
        <time>2023-05-28T07:09:41Z</time>
      </trkpt>
      <trkpt lat="43.34285" lon="2.44458">
        <ele>454.6</ele>
        <time>2023-05-28T07:09:42Z</time>
      </trkpt>
      <trkpt lat="43.34286" lon="2.44454">
        <ele>454.7</ele>
        <time>2023-05-28T07:09:43Z</time>
      </trkpt>
      <trkpt lat="43.34287" lon="2.44452">
        <ele>454.7</ele>
        <time>2023-05-28T07:09:44Z</time>
      </trkpt>
      <trkpt lat="43.34288" lon="2.44447">
        <ele>454.9</ele>
        <time>2023-05-28T07:09:45Z</time>
      </trkpt>
      <trkpt lat="43.34289" lon="2.44446">
        <ele>454.9</ele>
        <time>2023-05-28T07:09:46Z</time>
      </trkpt>
      <trkpt lat="43.3429" lon="2.44441">
        <ele>455</ele>
        <time>2023-05-28T07:09:47Z</time>
      </trkpt>
      <trkpt lat="43.34291" lon="2.4444">
        <ele>455</ele>
        <time>2023-05-28T07:09:48Z</time>
      </trkpt>
      <trkpt lat="43.34292" lon="2.44436">
        <ele>455.1</ele>
        <time>2023-05-28T07:09:49Z</time>
      </trkpt>
      <trkpt lat="43.34293" lon="2.44434">
        <ele>455.1</ele>
        <time>2023-05-28T07:09:50Z</time>
      </trkpt>
      <trkpt lat="43.34295" lon="2.4443">
        <ele>455.2</ele>
        <time>2023-05-28T07:09:51Z</time>
      </trkpt>
      <trkpt lat="43.34296" lon="2.44429">
        <ele>455.3</ele>
        <time>2023-05-28T07:09:52Z</time>
      </trkpt>
      <trkpt lat="43.34299" lon="2.44425">
        <ele>455.4</ele>
        <time>2023-05-28T07:09:53Z</time>
      </trkpt>
      <trkpt lat="43.343" lon="2.44424">
        <ele>455.4</ele>
        <time>2023-05-28T07:09:54Z</time>
      </trkpt>
      <trkpt lat="43.34303" lon="2.4442">
        <ele>455.6</ele>
        <time>2023-05-28T07:09:55Z</time>
      </trkpt>
      <trkpt lat="43.34304" lon="2.44419">
        <ele>455.6</ele>
        <time>2023-05-28T07:09:56Z</time>
      </trkpt>
      <trkpt lat="43.34307" lon="2.44417">
        <ele>455.7</ele>
        <time>2023-05-28T07:09:57Z</time>
      </trkpt>
      <trkpt lat="43.34309" lon="2.44414">
        <ele>455.8</ele>
        <time>2023-05-28T07:09:58Z</time>
      </trkpt>
      <trkpt lat="43.3431" lon="2.44413">
        <ele>455.9</ele>
        <time>2023-05-28T07:09:59Z</time>
      </trkpt>
      <trkpt lat="43.34313" lon="2.4441">
        <ele>456</ele>
        <time>2023-05-28T07:10:00Z</time>
      </trkpt>
      <trkpt lat="43.34314" lon="2.44409">
        <ele>456.1</ele>
        <time>2023-05-28T07:10:01Z</time>
      </trkpt>
      <trkpt lat="43.34317" lon="2.44406">
        <ele>456.2</ele>
        <time>2023-05-28T07:10:02Z</time>
      </trkpt>
      <trkpt lat="43.34318" lon="2.44406">
        <ele>456.2</ele>
        <time>2023-05-28T07:10:03Z</time>
      </trkpt>
      <trkpt lat="43.3432" lon="2.44404">
        <ele>456.4</ele>
        <time>2023-05-28T07:10:04Z</time>
      </trkpt>
      <trkpt lat="43.34321" lon="2.44403">
        <ele>456.4</ele>
        <time>2023-05-28T07:10:05Z</time>
      </trkpt>
      <trkpt lat="43.34324" lon="2.444">
        <ele>456.5</ele>
        <time>2023-05-28T07:10:06Z</time>
      </trkpt>
      <trkpt lat="43.34325" lon="2.44399">
        <ele>456.6</ele>
        <time>2023-05-28T07:10:07Z</time>
      </trkpt>
      <trkpt lat="43.34328" lon="2.44397">
        <ele>456.7</ele>
        <time>2023-05-28T07:10:08Z</time>
      </trkpt>
      <trkpt lat="43.34329" lon="2.44396">
        <ele>456.8</ele>
        <time>2023-05-28T07:10:09Z</time>
      </trkpt>
      <trkpt lat="43.34332" lon="2.44393">
        <ele>457</ele>
        <time>2023-05-28T07:10:10Z</time>
      </trkpt>
      <trkpt lat="43.34333" lon="2.44392">
        <ele>457.1</ele>
        <time>2023-05-28T07:10:11Z</time>
      </trkpt>
      <trkpt lat="43.34336" lon="2.44388">
        <ele>457.3</ele>
        <time>2023-05-28T07:10:12Z</time>
      </trkpt>
      <trkpt lat="43.34337" lon="2.44387">
        <ele>457.3</ele>
        <time>2023-05-28T07:10:13Z</time>
      </trkpt>
      <trkpt lat="43.34339" lon="2.44384">
        <ele>457.5</ele>
        <time>2023-05-28T07:10:14Z</time>
      </trkpt>
      <trkpt lat="43.3434" lon="2.44383">
        <ele>457.6</ele>
        <time>2023-05-28T07:10:15Z</time>
      </trkpt>
      <trkpt lat="43.34343" lon="2.4438">
        <ele>457.8</ele>
        <time>2023-05-28T07:10:16Z</time>
      </trkpt>
      <trkpt lat="43.34343" lon="2.44379">
        <ele>457.9</ele>
        <time>2023-05-28T07:10:17Z</time>
      </trkpt>
      <trkpt lat="43.34346" lon="2.44376">
        <ele>458</ele>
        <time>2023-05-28T07:10:18Z</time>
      </trkpt>
      <trkpt lat="43.34347" lon="2.44375">
        <ele>458.1</ele>
        <time>2023-05-28T07:10:19Z</time>
      </trkpt>
      <trkpt lat="43.3435" lon="2.44372">
        <ele>458.3</ele>
        <time>2023-05-28T07:10:20Z</time>
      </trkpt>
      <trkpt lat="43.34351" lon="2.4437">
        <ele>458.3</ele>
        <time>2023-05-28T07:10:21Z</time>
      </trkpt>
      <trkpt lat="43.34353" lon="2.44366">
        <ele>458.5</ele>
        <time>2023-05-28T07:10:22Z</time>
      </trkpt>
      <trkpt lat="43.34354" lon="2.44365">
        <ele>458.6</ele>
        <time>2023-05-28T07:10:23Z</time>
      </trkpt>
      <trkpt lat="43.34356" lon="2.4436">
        <ele>458.7</ele>
        <time>2023-05-28T07:10:24Z</time>
      </trkpt>
      <trkpt lat="43.34356" lon="2.44358">
        <ele>458.8</ele>
        <time>2023-05-28T07:10:25Z</time>
      </trkpt>
      <trkpt lat="43.34358" lon="2.44354">
        <ele>458.9</ele>
        <time>2023-05-28T07:10:26Z</time>
      </trkpt>
      <trkpt lat="43.34358" lon="2.44352">
        <ele>458.9</ele>
        <time>2023-05-28T07:10:27Z</time>
      </trkpt>
      <trkpt lat="43.34359" lon="2.44347">
        <ele>458.7</ele>
        <time>2023-05-28T07:10:28Z</time>
      </trkpt>
      <trkpt lat="43.3436" lon="2.44345">
        <ele>458.6</ele>
        <time>2023-05-28T07:10:29Z</time>
      </trkpt>
      <trkpt lat="43.3436" lon="2.44341">
        <ele>458.5</ele>
        <time>2023-05-28T07:10:30Z</time>
      </trkpt>
      <trkpt lat="43.34361" lon="2.44336">
        <ele>458.3</ele>
        <time>2023-05-28T07:10:31Z</time>
      </trkpt>
      <trkpt lat="43.34361" lon="2.44335">
        <ele>458.2</ele>
        <time>2023-05-28T07:10:32Z</time>
      </trkpt>
      <trkpt lat="43.34361" lon="2.4433">
        <ele>458.1</ele>
        <time>2023-05-28T07:10:33Z</time>
      </trkpt>
      <trkpt lat="43.34361" lon="2.44329">
        <ele>458</ele>
        <time>2023-05-28T07:10:34Z</time>
      </trkpt>
      <trkpt lat="43.3436" lon="2.44324">
        <ele>457.9</ele>
        <time>2023-05-28T07:10:35Z</time>
      </trkpt>
      <trkpt lat="43.3436" lon="2.44322">
        <ele>457.8</ele>
        <time>2023-05-28T07:10:36Z</time>
      </trkpt>
      <trkpt lat="43.3436" lon="2.44318">
        <ele>457.7</ele>
        <time>2023-05-28T07:10:37Z</time>
      </trkpt>
      <trkpt lat="43.34359" lon="2.44316">
        <ele>457.6</ele>
        <time>2023-05-28T07:10:38Z</time>
      </trkpt>
      <trkpt lat="43.34359" lon="2.44311">
        <ele>457.5</ele>
        <time>2023-05-28T07:10:39Z</time>
      </trkpt>
      <trkpt lat="43.34359" lon="2.44309">
        <ele>457.5</ele>
        <time>2023-05-28T07:10:40Z</time>
      </trkpt>
      <trkpt lat="43.34358" lon="2.44304">
        <ele>457.3</ele>
        <time>2023-05-28T07:10:41Z</time>
      </trkpt>
      <trkpt lat="43.34358" lon="2.44302">
        <ele>457.3</ele>
        <time>2023-05-28T07:10:42Z</time>
      </trkpt>
      <trkpt lat="43.34357" lon="2.44297">
        <ele>457.2</ele>
        <time>2023-05-28T07:10:43Z</time>
      </trkpt>
      <trkpt lat="43.34357" lon="2.44295">
        <ele>457.2</ele>
        <time>2023-05-28T07:10:44Z</time>
      </trkpt>
      <trkpt lat="43.34357" lon="2.4429">
        <ele>457.2</ele>
        <time>2023-05-28T07:10:45Z</time>
      </trkpt>
      <trkpt lat="43.34357" lon="2.44288">
        <ele>457.2</ele>
        <time>2023-05-28T07:10:46Z</time>
      </trkpt>
      <trkpt lat="43.34356" lon="2.44283">
        <ele>457.2</ele>
        <time>2023-05-28T07:10:47Z</time>
      </trkpt>
      <trkpt lat="43.34356" lon="2.44282">
        <ele>457.2</ele>
        <time>2023-05-28T07:10:48Z</time>
      </trkpt>
      <trkpt lat="43.34355" lon="2.44276">
        <ele>457.2</ele>
        <time>2023-05-28T07:10:49Z</time>
      </trkpt>
      <trkpt lat="43.34355" lon="2.44275">
        <ele>457.2</ele>
        <time>2023-05-28T07:10:50Z</time>
      </trkpt>
      <trkpt lat="43.34354" lon="2.4427">
        <ele>457.2</ele>
        <time>2023-05-28T07:10:51Z</time>
      </trkpt>
      <trkpt lat="43.34353" lon="2.44268">
        <ele>457.2</ele>
        <time>2023-05-28T07:10:52Z</time>
      </trkpt>
      <trkpt lat="43.34352" lon="2.44263">
        <ele>457.2</ele>
        <time>2023-05-28T07:10:53Z</time>
      </trkpt>
      <trkpt lat="43.34352" lon="2.44261">
        <ele>457.2</ele>
        <time>2023-05-28T07:10:54Z</time>
      </trkpt>
      <trkpt lat="43.34352" lon="2.44258">
        <ele>457.2</ele>
        <time>2023-05-28T07:10:55Z</time>
      </trkpt>
      <trkpt lat="43.34351" lon="2.44256">
        <ele>457.2</ele>
        <time>2023-05-28T07:10:56Z</time>
      </trkpt>
      <trkpt lat="43.34351" lon="2.44252">
        <ele>457.2</ele>
        <time>2023-05-28T07:10:57Z</time>
      </trkpt>
      <trkpt lat="43.34351" lon="2.44251">
        <ele>457.2</ele>
        <time>2023-05-28T07:10:58Z</time>
      </trkpt>
      <trkpt lat="43.34351" lon="2.44247">
        <ele>457.2</ele>
        <time>2023-05-28T07:10:59Z</time>
      </trkpt>
      <trkpt lat="43.34351" lon="2.44245">
        <ele>457.2</ele>
        <time>2023-05-28T07:11:00Z</time>
      </trkpt>
      <trkpt lat="43.3435" lon="2.4424">
        <ele>457.2</ele>
        <time>2023-05-28T07:11:01Z</time>
      </trkpt>
      <trkpt lat="43.3435" lon="2.44239">
        <ele>457.2</ele>
        <time>2023-05-28T07:11:02Z</time>
      </trkpt>
      <trkpt lat="43.34349" lon="2.44234">
        <ele>457.2</ele>
        <time>2023-05-28T07:11:03Z</time>
      </trkpt>
      <trkpt lat="43.34348" lon="2.44232">
        <ele>457.2</ele>
        <time>2023-05-28T07:11:04Z</time>
      </trkpt>
      <trkpt lat="43.34348" lon="2.44227">
        <ele>457.2</ele>
        <time>2023-05-28T07:11:05Z</time>
      </trkpt>
      <trkpt lat="43.34348" lon="2.44226">
        <ele>457.2</ele>
        <time>2023-05-28T07:11:06Z</time>
      </trkpt>
      <trkpt lat="43.34348" lon="2.44221">
        <ele>457.2</ele>
        <time>2023-05-28T07:11:07Z</time>
      </trkpt>
      <trkpt lat="43.34348" lon="2.44219">
        <ele>457.2</ele>
        <time>2023-05-28T07:11:08Z</time>
      </trkpt>
      <trkpt lat="43.34349" lon="2.44215">
        <ele>457.1</ele>
        <time>2023-05-28T07:11:09Z</time>
      </trkpt>
      <trkpt lat="43.34349" lon="2.44213">
        <ele>457.1</ele>
        <time>2023-05-28T07:11:10Z</time>
      </trkpt>
      <trkpt lat="43.34349" lon="2.44208">
        <ele>457.1</ele>
        <time>2023-05-28T07:11:11Z</time>
      </trkpt>
      <trkpt lat="43.34349" lon="2.44207">
        <ele>457.1</ele>
        <time>2023-05-28T07:11:12Z</time>
      </trkpt>
      <trkpt lat="43.34349" lon="2.44201">
        <ele>457</ele>
        <time>2023-05-28T07:11:13Z</time>
      </trkpt>
      <trkpt lat="43.3435" lon="2.44199">
        <ele>457</ele>
        <time>2023-05-28T07:11:14Z</time>
      </trkpt>
      <trkpt lat="43.3435" lon="2.44195">
        <ele>456.9</ele>
        <time>2023-05-28T07:11:15Z</time>
      </trkpt>
      <trkpt lat="43.3435" lon="2.44192">
        <ele>456.9</ele>
        <time>2023-05-28T07:11:16Z</time>
      </trkpt>
      <trkpt lat="43.34349" lon="2.44188">
        <ele>456.8</ele>
        <time>2023-05-28T07:11:17Z</time>
      </trkpt>
      <trkpt lat="43.34349" lon="2.44182">
        <ele>456.7</ele>
        <time>2023-05-28T07:11:18Z</time>
      </trkpt>
      <trkpt lat="43.34349" lon="2.44181">
        <ele>456.6</ele>
        <time>2023-05-28T07:11:19Z</time>
      </trkpt>
      <trkpt lat="43.34349" lon="2.44176">
        <ele>456.5</ele>
        <time>2023-05-28T07:11:20Z</time>
      </trkpt>
      <trkpt lat="43.34349" lon="2.44175">
        <ele>456.5</ele>
        <time>2023-05-28T07:11:21Z</time>
      </trkpt>
      <trkpt lat="43.34349" lon="2.4417">
        <ele>456.4</ele>
        <time>2023-05-28T07:11:22Z</time>
      </trkpt>
      <trkpt lat="43.34349" lon="2.44168">
        <ele>456.3</ele>
        <time>2023-05-28T07:11:23Z</time>
      </trkpt>
      <trkpt lat="43.34348" lon="2.44164">
        <ele>456.2</ele>
        <time>2023-05-28T07:11:24Z</time>
      </trkpt>
      <trkpt lat="43.34348" lon="2.44163">
        <ele>456.2</ele>
        <time>2023-05-28T07:11:25Z</time>
      </trkpt>
      <trkpt lat="43.34347" lon="2.44158">
        <ele>456</ele>
        <time>2023-05-28T07:11:26Z</time>
      </trkpt>
      <trkpt lat="43.34347" lon="2.44156">
        <ele>456</ele>
        <time>2023-05-28T07:11:27Z</time>
      </trkpt>
      <trkpt lat="43.34347" lon="2.44151">
        <ele>455.8</ele>
        <time>2023-05-28T07:11:28Z</time>
      </trkpt>
      <trkpt lat="43.34347" lon="2.44149">
        <ele>455.8</ele>
        <time>2023-05-28T07:11:29Z</time>
      </trkpt>
      <trkpt lat="43.34347" lon="2.44144">
        <ele>455.6</ele>
        <time>2023-05-28T07:11:30Z</time>
      </trkpt>
      <trkpt lat="43.34347" lon="2.44142">
        <ele>455.5</ele>
        <time>2023-05-28T07:11:31Z</time>
      </trkpt>
      <trkpt lat="43.34347" lon="2.44139">
        <ele>455.4</ele>
        <time>2023-05-28T07:11:32Z</time>
      </trkpt>
      <trkpt lat="43.34347" lon="2.44133">
        <ele>455.3</ele>
        <time>2023-05-28T07:11:33Z</time>
      </trkpt>
      <trkpt lat="43.34346" lon="2.44132">
        <ele>455.2</ele>
        <time>2023-05-28T07:11:34Z</time>
      </trkpt>
      <trkpt lat="43.34346" lon="2.44128">
        <ele>455.1</ele>
        <time>2023-05-28T07:11:35Z</time>
      </trkpt>
      <trkpt lat="43.34346" lon="2.44122">
        <ele>454.9</ele>
        <time>2023-05-28T07:11:36Z</time>
      </trkpt>
      <trkpt lat="43.34346" lon="2.44121">
        <ele>454.9</ele>
        <time>2023-05-28T07:11:37Z</time>
      </trkpt>
      <trkpt lat="43.34345" lon="2.44115">
        <ele>454.7</ele>
        <time>2023-05-28T07:11:38Z</time>
      </trkpt>
      <trkpt lat="43.34345" lon="2.44113">
        <ele>454.7</ele>
        <time>2023-05-28T07:11:39Z</time>
      </trkpt>
      <trkpt lat="43.34345" lon="2.44109">
        <ele>454.6</ele>
        <time>2023-05-28T07:11:40Z</time>
      </trkpt>
      <trkpt lat="43.34345" lon="2.44104">
        <ele>454.4</ele>
        <time>2023-05-28T07:11:41Z</time>
      </trkpt>
      <trkpt lat="43.34344" lon="2.44102">
        <ele>454.4</ele>
        <time>2023-05-28T07:11:42Z</time>
      </trkpt>
      <trkpt lat="43.34344" lon="2.44097">
        <ele>454.3</ele>
        <time>2023-05-28T07:11:43Z</time>
      </trkpt>
      <trkpt lat="43.34344" lon="2.44095">
        <ele>454.2</ele>
        <time>2023-05-28T07:11:44Z</time>
      </trkpt>
      <trkpt lat="43.34343" lon="2.4409">
        <ele>454.1</ele>
        <time>2023-05-28T07:11:45Z</time>
      </trkpt>
      <trkpt lat="43.34343" lon="2.44088">
        <ele>454.1</ele>
        <time>2023-05-28T07:11:46Z</time>
      </trkpt>
      <trkpt lat="43.34342" lon="2.44082">
        <ele>453.9</ele>
        <time>2023-05-28T07:11:47Z</time>
      </trkpt>
      <trkpt lat="43.34342" lon="2.4408">
        <ele>453.9</ele>
        <time>2023-05-28T07:11:48Z</time>
      </trkpt>
      <trkpt lat="43.34342" lon="2.44075">
        <ele>453.7</ele>
        <time>2023-05-28T07:11:49Z</time>
      </trkpt>
      <trkpt lat="43.34341" lon="2.44073">
        <ele>453.7</ele>
        <time>2023-05-28T07:11:50Z</time>
      </trkpt>
      <trkpt lat="43.34341" lon="2.4407">
        <ele>453.6</ele>
        <time>2023-05-28T07:11:51Z</time>
      </trkpt>
      <trkpt lat="43.34341" lon="2.44065">
        <ele>453.4</ele>
        <time>2023-05-28T07:11:52Z</time>
      </trkpt>
      <trkpt lat="43.34341" lon="2.44063">
        <ele>453.3</ele>
        <time>2023-05-28T07:11:53Z</time>
      </trkpt>
      <trkpt lat="43.3434" lon="2.44057">
        <ele>453.1</ele>
        <time>2023-05-28T07:11:54Z</time>
      </trkpt>
      <trkpt lat="43.3434" lon="2.44055">
        <ele>453</ele>
        <time>2023-05-28T07:11:55Z</time>
      </trkpt>
      <trkpt lat="43.34339" lon="2.44049">
        <ele>452.7</ele>
        <time>2023-05-28T07:11:56Z</time>
      </trkpt>
      <trkpt lat="43.34339" lon="2.44048">
        <ele>452.6</ele>
        <time>2023-05-28T07:11:57Z</time>
      </trkpt>
      <trkpt lat="43.34338" lon="2.44044">
        <ele>452.3</ele>
        <time>2023-05-28T07:11:58Z</time>
      </trkpt>
      <trkpt lat="43.34338" lon="2.4404">
        <ele>452</ele>
        <time>2023-05-28T07:11:59Z</time>
      </trkpt>
      <trkpt lat="43.34338" lon="2.44036">
        <ele>451.8</ele>
        <time>2023-05-28T07:12:00Z</time>
      </trkpt>
      <trkpt lat="43.34338" lon="2.44032">
        <ele>451.5</ele>
        <time>2023-05-28T07:12:01Z</time>
      </trkpt>
      <trkpt lat="43.34338" lon="2.44028">
        <ele>451.2</ele>
        <time>2023-05-28T07:12:02Z</time>
      </trkpt>
      <trkpt lat="43.34339" lon="2.44024">
        <ele>450.9</ele>
        <time>2023-05-28T07:12:03Z</time>
      </trkpt>
      <trkpt lat="43.34339" lon="2.4402">
        <ele>450.6</ele>
        <time>2023-05-28T07:12:04Z</time>
      </trkpt>
      <trkpt lat="43.34339" lon="2.44016">
        <ele>450.4</ele>
        <time>2023-05-28T07:12:05Z</time>
      </trkpt>
      <trkpt lat="43.34339" lon="2.44012">
        <ele>450.2</ele>
        <time>2023-05-28T07:12:06Z</time>
      </trkpt>
      <trkpt lat="43.3434" lon="2.44008">
        <ele>450</ele>
        <time>2023-05-28T07:12:07Z</time>
      </trkpt>
      <trkpt lat="43.34341" lon="2.44004">
        <ele>449.8</ele>
        <time>2023-05-28T07:12:08Z</time>
      </trkpt>
      <trkpt lat="43.34341" lon="2.44">
        <ele>449.7</ele>
        <time>2023-05-28T07:12:09Z</time>
      </trkpt>
      <trkpt lat="43.34342" lon="2.43996">
        <ele>449.7</ele>
        <time>2023-05-28T07:12:10Z</time>
      </trkpt>
      <trkpt lat="43.34342" lon="2.43992">
        <ele>449.6</ele>
        <time>2023-05-28T07:12:11Z</time>
      </trkpt>
      <trkpt lat="43.34343" lon="2.43986">
        <ele>449.7</ele>
        <time>2023-05-28T07:12:12Z</time>
      </trkpt>
      <trkpt lat="43.34344" lon="2.43985">
        <ele>449.7</ele>
        <time>2023-05-28T07:12:13Z</time>
      </trkpt>
      <trkpt lat="43.34345" lon="2.4398">
        <ele>449.8</ele>
        <time>2023-05-28T07:12:14Z</time>
      </trkpt>
      <trkpt lat="43.34345" lon="2.43978">
        <ele>449.8</ele>
        <time>2023-05-28T07:12:15Z</time>
      </trkpt>
      <trkpt lat="43.34346" lon="2.43972">
        <ele>450</ele>
        <time>2023-05-28T07:12:16Z</time>
      </trkpt>
      <trkpt lat="43.34346" lon="2.43971">
        <ele>450.1</ele>
        <time>2023-05-28T07:12:17Z</time>
      </trkpt>
      <trkpt lat="43.34347" lon="2.43967">
        <ele>450.3</ele>
        <time>2023-05-28T07:12:18Z</time>
      </trkpt>
      <trkpt lat="43.34348" lon="2.43962">
        <ele>450.5</ele>
        <time>2023-05-28T07:12:19Z</time>
      </trkpt>
      <trkpt lat="43.34348" lon="2.4396">
        <ele>450.6</ele>
        <time>2023-05-28T07:12:20Z</time>
      </trkpt>
      <trkpt lat="43.34348" lon="2.43955">
        <ele>450.9</ele>
        <time>2023-05-28T07:12:21Z</time>
      </trkpt>
      <trkpt lat="43.34348" lon="2.43954">
        <ele>451</ele>
        <time>2023-05-28T07:12:22Z</time>
      </trkpt>
      <trkpt lat="43.34348" lon="2.4395">
        <ele>451.3</ele>
        <time>2023-05-28T07:12:23Z</time>
      </trkpt>
      <trkpt lat="43.34348" lon="2.43948">
        <ele>451.4</ele>
        <time>2023-05-28T07:12:24Z</time>
      </trkpt>
      <trkpt lat="43.34348" lon="2.43944">
        <ele>451.6</ele>
        <time>2023-05-28T07:12:25Z</time>
      </trkpt>
      <trkpt lat="43.34348" lon="2.43943">
        <ele>451.7</ele>
        <time>2023-05-28T07:12:26Z</time>
      </trkpt>
      <trkpt lat="43.34348" lon="2.43938">
        <ele>452</ele>
        <time>2023-05-28T07:12:27Z</time>
      </trkpt>
      <trkpt lat="43.34348" lon="2.43937">
        <ele>452.1</ele>
        <time>2023-05-28T07:12:28Z</time>
      </trkpt>
      <trkpt lat="43.34348" lon="2.43933">
        <ele>452.4</ele>
        <time>2023-05-28T07:12:29Z</time>
      </trkpt>
      <trkpt lat="43.34348" lon="2.43931">
        <ele>452.4</ele>
        <time>2023-05-28T07:12:30Z</time>
      </trkpt>
      <trkpt lat="43.34348" lon="2.43927">
        <ele>452.7</ele>
        <time>2023-05-28T07:12:31Z</time>
      </trkpt>
      <trkpt lat="43.34348" lon="2.43926">
        <ele>452.7</ele>
        <time>2023-05-28T07:12:32Z</time>
      </trkpt>
      <trkpt lat="43.34348" lon="2.43922">
        <ele>452.9</ele>
        <time>2023-05-28T07:12:33Z</time>
      </trkpt>
      <trkpt lat="43.34347" lon="2.43921">
        <ele>453</ele>
        <time>2023-05-28T07:12:34Z</time>
      </trkpt>
      <trkpt lat="43.34347" lon="2.43918">
        <ele>453.1</ele>
        <time>2023-05-28T07:12:35Z</time>
      </trkpt>
      <trkpt lat="43.34348" lon="2.43916">
        <ele>453.2</ele>
        <time>2023-05-28T07:12:36Z</time>
      </trkpt>
      <trkpt lat="43.34348" lon="2.43912">
        <ele>453.3</ele>
        <time>2023-05-28T07:12:37Z</time>
      </trkpt>
      <trkpt lat="43.34348" lon="2.4391">
        <ele>453.4</ele>
        <time>2023-05-28T07:12:38Z</time>
      </trkpt>
      <trkpt lat="43.34348" lon="2.43906">
        <ele>453.5</ele>
        <time>2023-05-28T07:12:39Z</time>
      </trkpt>
      <trkpt lat="43.34348" lon="2.43905">
        <ele>453.6</ele>
        <time>2023-05-28T07:12:40Z</time>
      </trkpt>
      <trkpt lat="43.34347" lon="2.43901">
        <ele>453.7</ele>
        <time>2023-05-28T07:12:41Z</time>
      </trkpt>
      <trkpt lat="43.34347" lon="2.43899">
        <ele>453.8</ele>
        <time>2023-05-28T07:12:42Z</time>
      </trkpt>
      <trkpt lat="43.34347" lon="2.43894">
        <ele>453.9</ele>
        <time>2023-05-28T07:12:43Z</time>
      </trkpt>
      <trkpt lat="43.34347" lon="2.43893">
        <ele>453.9</ele>
        <time>2023-05-28T07:12:44Z</time>
      </trkpt>
      <trkpt lat="43.34347" lon="2.43887">
        <ele>454</ele>
        <time>2023-05-28T07:12:45Z</time>
      </trkpt>
      <trkpt lat="43.34347" lon="2.43885">
        <ele>454</ele>
        <time>2023-05-28T07:12:46Z</time>
      </trkpt>
      <trkpt lat="43.34347" lon="2.43881">
        <ele>454.1</ele>
        <time>2023-05-28T07:12:47Z</time>
      </trkpt>
      <trkpt lat="43.34347" lon="2.43877">
        <ele>454.1</ele>
        <time>2023-05-28T07:12:48Z</time>
      </trkpt>
      <trkpt lat="43.34347" lon="2.43872">
        <ele>454.2</ele>
        <time>2023-05-28T07:12:49Z</time>
      </trkpt>
      <trkpt lat="43.34347" lon="2.4387">
        <ele>454.2</ele>
        <time>2023-05-28T07:12:50Z</time>
      </trkpt>
      <trkpt lat="43.34347" lon="2.43866">
        <ele>454.2</ele>
        <time>2023-05-28T07:12:51Z</time>
      </trkpt>
      <trkpt lat="43.34347" lon="2.43864">
        <ele>454.2</ele>
        <time>2023-05-28T07:12:52Z</time>
      </trkpt>
      <trkpt lat="43.34348" lon="2.43859">
        <ele>454.2</ele>
        <time>2023-05-28T07:12:53Z</time>
      </trkpt>
      <trkpt lat="43.34348" lon="2.43857">
        <ele>454.2</ele>
        <time>2023-05-28T07:12:54Z</time>
      </trkpt>
      <trkpt lat="43.34348" lon="2.43852">
        <ele>454.2</ele>
        <time>2023-05-28T07:12:55Z</time>
      </trkpt>
      <trkpt lat="43.34348" lon="2.4385">
        <ele>454.2</ele>
        <time>2023-05-28T07:12:56Z</time>
      </trkpt>
      <trkpt lat="43.34348" lon="2.43844">
        <ele>454.1</ele>
        <time>2023-05-28T07:12:57Z</time>
      </trkpt>
      <trkpt lat="43.34348" lon="2.43843">
        <ele>454</ele>
        <time>2023-05-28T07:12:58Z</time>
      </trkpt>
      <trkpt lat="43.34349" lon="2.43837">
        <ele>453.9</ele>
        <time>2023-05-28T07:12:59Z</time>
      </trkpt>
      <trkpt lat="43.34349" lon="2.43836">
        <ele>453.8</ele>
        <time>2023-05-28T07:13:00Z</time>
      </trkpt>
      <trkpt lat="43.3435" lon="2.43832">
        <ele>453.6</ele>
        <time>2023-05-28T07:13:01Z</time>
      </trkpt>
      <trkpt lat="43.34351" lon="2.43828">
        <ele>453.5</ele>
        <time>2023-05-28T07:13:02Z</time>
      </trkpt>
      <trkpt lat="43.34352" lon="2.43824">
        <ele>453.3</ele>
        <time>2023-05-28T07:13:03Z</time>
      </trkpt>
      <trkpt lat="43.34352" lon="2.4382">
        <ele>453.1</ele>
        <time>2023-05-28T07:13:04Z</time>
      </trkpt>
      <trkpt lat="43.34353" lon="2.43817">
        <ele>453</ele>
        <time>2023-05-28T07:13:05Z</time>
      </trkpt>
      <trkpt lat="43.34354" lon="2.43812">
        <ele>452.8</ele>
        <time>2023-05-28T07:13:06Z</time>
      </trkpt>
      <trkpt lat="43.34355" lon="2.4381">
        <ele>452.7</ele>
        <time>2023-05-28T07:13:07Z</time>
      </trkpt>
      <trkpt lat="43.34356" lon="2.43805">
        <ele>452.5</ele>
        <time>2023-05-28T07:13:08Z</time>
      </trkpt>
      <trkpt lat="43.34357" lon="2.43804">
        <ele>452.4</ele>
        <time>2023-05-28T07:13:09Z</time>
      </trkpt>
      <trkpt lat="43.34359" lon="2.43799">
        <ele>452.2</ele>
        <time>2023-05-28T07:13:10Z</time>
      </trkpt>
      <trkpt lat="43.34359" lon="2.43797">
        <ele>452.2</ele>
        <time>2023-05-28T07:13:11Z</time>
      </trkpt>
      <trkpt lat="43.34361" lon="2.43793">
        <ele>452</ele>
        <time>2023-05-28T07:13:12Z</time>
      </trkpt>
      <trkpt lat="43.34363" lon="2.43789">
        <ele>451.8</ele>
        <time>2023-05-28T07:13:13Z</time>
      </trkpt>
      <trkpt lat="43.34364" lon="2.43785">
        <ele>451.7</ele>
        <time>2023-05-28T07:13:14Z</time>
      </trkpt>
      <trkpt lat="43.34365" lon="2.43783">
        <ele>451.6</ele>
        <time>2023-05-28T07:13:15Z</time>
      </trkpt>
      <trkpt lat="43.34367" lon="2.4378">
        <ele>451.5</ele>
        <time>2023-05-28T07:13:16Z</time>
      </trkpt>
      <trkpt lat="43.34368" lon="2.43777">
        <ele>451.3</ele>
        <time>2023-05-28T07:13:17Z</time>
      </trkpt>
      <trkpt lat="43.3437" lon="2.43772">
        <ele>451.2</ele>
        <time>2023-05-28T07:13:18Z</time>
      </trkpt>
      <trkpt lat="43.34371" lon="2.43771">
        <ele>451.1</ele>
        <time>2023-05-28T07:13:19Z</time>
      </trkpt>
      <trkpt lat="43.34373" lon="2.43766">
        <ele>450.9</ele>
        <time>2023-05-28T07:13:20Z</time>
      </trkpt>
      <trkpt lat="43.34374" lon="2.43765">
        <ele>450.9</ele>
        <time>2023-05-28T07:13:21Z</time>
      </trkpt>
      <trkpt lat="43.34375" lon="2.43762">
        <ele>450.8</ele>
        <time>2023-05-28T07:13:22Z</time>
      </trkpt>
      <trkpt lat="43.34377" lon="2.43757">
        <ele>450.6</ele>
        <time>2023-05-28T07:13:23Z</time>
      </trkpt>
      <trkpt lat="43.34378" lon="2.43756">
        <ele>450.5</ele>
        <time>2023-05-28T07:13:24Z</time>
      </trkpt>
      <trkpt lat="43.3438" lon="2.43752">
        <ele>450.3</ele>
        <time>2023-05-28T07:13:25Z</time>
      </trkpt>
      <trkpt lat="43.34382" lon="2.43749">
        <ele>450.2</ele>
        <time>2023-05-28T07:13:26Z</time>
      </trkpt>
      <trkpt lat="43.34383" lon="2.43746">
        <ele>450.1</ele>
        <time>2023-05-28T07:13:27Z</time>
      </trkpt>
      <trkpt lat="43.34385" lon="2.43741">
        <ele>449.9</ele>
        <time>2023-05-28T07:13:28Z</time>
      </trkpt>
      <trkpt lat="43.34386" lon="2.4374">
        <ele>449.8</ele>
        <time>2023-05-28T07:13:29Z</time>
      </trkpt>
      <trkpt lat="43.34387" lon="2.43736">
        <ele>449.7</ele>
        <time>2023-05-28T07:13:30Z</time>
      </trkpt>
      <trkpt lat="43.34388" lon="2.43734">
        <ele>449.6</ele>
        <time>2023-05-28T07:13:31Z</time>
      </trkpt>
      <trkpt lat="43.34389" lon="2.4373">
        <ele>449.5</ele>
        <time>2023-05-28T07:13:32Z</time>
      </trkpt>
      <trkpt lat="43.3439" lon="2.43727">
        <ele>449.4</ele>
        <time>2023-05-28T07:13:33Z</time>
      </trkpt>
      <trkpt lat="43.34392" lon="2.43722">
        <ele>449.3</ele>
        <time>2023-05-28T07:13:34Z</time>
      </trkpt>
      <trkpt lat="43.34393" lon="2.4372">
        <ele>449.3</ele>
        <time>2023-05-28T07:13:35Z</time>
      </trkpt>
      <trkpt lat="43.34394" lon="2.43717">
        <ele>449.2</ele>
        <time>2023-05-28T07:13:36Z</time>
      </trkpt>
      <trkpt lat="43.34397" lon="2.43712">
        <ele>449.2</ele>
        <time>2023-05-28T07:13:37Z</time>
      </trkpt>
      <trkpt lat="43.34398" lon="2.43711">
        <ele>449.2</ele>
        <time>2023-05-28T07:13:38Z</time>
      </trkpt>
      <trkpt lat="43.34399" lon="2.43708">
        <ele>449.1</ele>
        <time>2023-05-28T07:13:39Z</time>
      </trkpt>
      <trkpt lat="43.34401" lon="2.43705">
        <ele>449.1</ele>
        <time>2023-05-28T07:13:40Z</time>
      </trkpt>
      <trkpt lat="43.34404" lon="2.43701">
        <ele>449.1</ele>
        <time>2023-05-28T07:13:41Z</time>
      </trkpt>
      <trkpt lat="43.34405" lon="2.437">
        <ele>449.1</ele>
        <time>2023-05-28T07:13:42Z</time>
      </trkpt>
      <trkpt lat="43.34407" lon="2.43697">
        <ele>449.1</ele>
        <time>2023-05-28T07:13:43Z</time>
      </trkpt>
      <trkpt lat="43.34409" lon="2.43695">
        <ele>449.1</ele>
        <time>2023-05-28T07:13:44Z</time>
      </trkpt>
      <trkpt lat="43.34412" lon="2.43692">
        <ele>449</ele>
        <time>2023-05-28T07:13:45Z</time>
      </trkpt>
      <trkpt lat="43.34413" lon="2.43691">
        <ele>449</ele>
        <time>2023-05-28T07:13:46Z</time>
      </trkpt>
      <trkpt lat="43.34415" lon="2.43688">
        <ele>448.9</ele>
        <time>2023-05-28T07:13:47Z</time>
      </trkpt>
      <trkpt lat="43.34418" lon="2.43686">
        <ele>448.8</ele>
        <time>2023-05-28T07:13:48Z</time>
      </trkpt>
      <trkpt lat="43.3442" lon="2.43684">
        <ele>448.7</ele>
        <time>2023-05-28T07:13:49Z</time>
      </trkpt>
      <trkpt lat="43.34423" lon="2.43682">
        <ele>448.6</ele>
        <time>2023-05-28T07:13:50Z</time>
      </trkpt>
      <trkpt lat="43.34425" lon="2.43679">
        <ele>448.5</ele>
        <time>2023-05-28T07:13:51Z</time>
      </trkpt>
      <trkpt lat="43.34426" lon="2.43676">
        <ele>448.4</ele>
        <time>2023-05-28T07:13:52Z</time>
      </trkpt>
      <trkpt lat="43.34428" lon="2.43673">
        <ele>448.3</ele>
        <time>2023-05-28T07:13:53Z</time>
      </trkpt>
      <trkpt lat="43.3443" lon="2.4367">
        <ele>448.2</ele>
        <time>2023-05-28T07:13:54Z</time>
      </trkpt>
      <trkpt lat="43.34433" lon="2.43666">
        <ele>448</ele>
        <time>2023-05-28T07:13:55Z</time>
      </trkpt>
      <trkpt lat="43.34434" lon="2.43665">
        <ele>447.9</ele>
        <time>2023-05-28T07:13:56Z</time>
      </trkpt>
      <trkpt lat="43.34436" lon="2.43662">
        <ele>447.8</ele>
        <time>2023-05-28T07:13:57Z</time>
      </trkpt>
      <trkpt lat="43.34439" lon="2.43659">
        <ele>447.6</ele>
        <time>2023-05-28T07:13:58Z</time>
      </trkpt>
      <trkpt lat="43.3444" lon="2.43659">
        <ele>447.6</ele>
        <time>2023-05-28T07:13:59Z</time>
      </trkpt>
      <trkpt lat="43.34444" lon="2.43657">
        <ele>447.4</ele>
        <time>2023-05-28T07:14:00Z</time>
      </trkpt>
      <trkpt lat="43.34445" lon="2.43657">
        <ele>447.3</ele>
        <time>2023-05-28T07:14:01Z</time>
      </trkpt>
      <trkpt lat="43.34448" lon="2.43656">
        <ele>447.1</ele>
        <time>2023-05-28T07:14:02Z</time>
      </trkpt>
      <trkpt lat="43.34449" lon="2.43656">
        <ele>447.1</ele>
        <time>2023-05-28T07:14:03Z</time>
      </trkpt>
      <trkpt lat="43.3445" lon="2.43656">
        <ele>447</ele>
        <time>2023-05-28T07:14:04Z</time>
      </trkpt>
      <trkpt lat="43.34454" lon="2.43656">
        <ele>446.8</ele>
        <time>2023-05-28T07:14:05Z</time>
      </trkpt>
      <trkpt lat="43.34455" lon="2.43657">
        <ele>446.7</ele>
        <time>2023-05-28T07:14:06Z</time>
      </trkpt>
      <trkpt lat="43.34459" lon="2.43658">
        <ele>446.5</ele>
        <time>2023-05-28T07:14:07Z</time>
      </trkpt>
      <trkpt lat="43.3446" lon="2.43658">
        <ele>446.4</ele>
        <time>2023-05-28T07:14:08Z</time>
      </trkpt>
      <trkpt lat="43.34463" lon="2.4366">
        <ele>446.3</ele>
        <time>2023-05-28T07:14:09Z</time>
      </trkpt>
      <trkpt lat="43.34467" lon="2.43662">
        <ele>446.1</ele>
        <time>2023-05-28T07:14:10Z</time>
      </trkpt>
      <trkpt lat="43.34468" lon="2.43663">
        <ele>446</ele>
        <time>2023-05-28T07:14:11Z</time>
      </trkpt>
      <trkpt lat="43.3447" lon="2.43665">
        <ele>445.8</ele>
        <time>2023-05-28T07:14:12Z</time>
      </trkpt>
      <trkpt lat="43.34473" lon="2.43667">
        <ele>445.7</ele>
        <time>2023-05-28T07:14:13Z</time>
      </trkpt>
      <trkpt lat="43.34475" lon="2.43672">
        <ele>445.5</ele>
        <time>2023-05-28T07:14:14Z</time>
      </trkpt>
      <trkpt lat="43.34476" lon="2.43673">
        <ele>445.5</ele>
        <time>2023-05-28T07:14:15Z</time>
      </trkpt>
      <trkpt lat="43.34478" lon="2.43677">
        <ele>445.3</ele>
        <time>2023-05-28T07:14:16Z</time>
      </trkpt>
      <trkpt lat="43.34479" lon="2.43678">
        <ele>445.3</ele>
        <time>2023-05-28T07:14:17Z</time>
      </trkpt>
      <trkpt lat="43.34482" lon="2.4368">
        <ele>445.1</ele>
        <time>2023-05-28T07:14:18Z</time>
      </trkpt>
      <trkpt lat="43.34484" lon="2.43681">
        <ele>445.1</ele>
        <time>2023-05-28T07:14:19Z</time>
      </trkpt>
      <trkpt lat="43.34486" lon="2.43682">
        <ele>444.9</ele>
        <time>2023-05-28T07:14:20Z</time>
      </trkpt>
      <trkpt lat="43.34489" lon="2.43684">
        <ele>444.8</ele>
        <time>2023-05-28T07:14:21Z</time>
      </trkpt>
      <trkpt lat="43.34493" lon="2.43685">
        <ele>444.6</ele>
        <time>2023-05-28T07:14:22Z</time>
      </trkpt>
      <trkpt lat="43.34494" lon="2.43685">
        <ele>444.5</ele>
        <time>2023-05-28T07:14:23Z</time>
      </trkpt>
      <trkpt lat="43.34498" lon="2.43686">
        <ele>444.2</ele>
        <time>2023-05-28T07:14:24Z</time>
      </trkpt>
      <trkpt lat="43.34499" lon="2.43686">
        <ele>444.1</ele>
        <time>2023-05-28T07:14:25Z</time>
      </trkpt>
      <trkpt lat="43.34502" lon="2.43685">
        <ele>443.9</ele>
        <time>2023-05-28T07:14:26Z</time>
      </trkpt>
      <trkpt lat="43.34506" lon="2.43684">
        <ele>443.7</ele>
        <time>2023-05-28T07:14:27Z</time>
      </trkpt>
      <trkpt lat="43.34507" lon="2.43683">
        <ele>443.6</ele>
        <time>2023-05-28T07:14:28Z</time>
      </trkpt>
      <trkpt lat="43.34509" lon="2.43682">
        <ele>443.4</ele>
        <time>2023-05-28T07:14:29Z</time>
      </trkpt>
      <trkpt lat="43.34512" lon="2.4368">
        <ele>443.2</ele>
        <time>2023-05-28T07:14:30Z</time>
      </trkpt>
      <trkpt lat="43.34515" lon="2.43678">
        <ele>442.9</ele>
        <time>2023-05-28T07:14:31Z</time>
      </trkpt>
      <trkpt lat="43.34518" lon="2.43676">
        <ele>442.7</ele>
        <time>2023-05-28T07:14:32Z</time>
      </trkpt>
      <trkpt lat="43.34521" lon="2.43674">
        <ele>442.5</ele>
        <time>2023-05-28T07:14:33Z</time>
      </trkpt>
      <trkpt lat="43.34523" lon="2.43672">
        <ele>442.3</ele>
        <time>2023-05-28T07:14:34Z</time>
      </trkpt>
      <trkpt lat="43.34527" lon="2.43669">
        <ele>442</ele>
        <time>2023-05-28T07:14:35Z</time>
      </trkpt>
      <trkpt lat="43.34528" lon="2.43668">
        <ele>441.9</ele>
        <time>2023-05-28T07:14:36Z</time>
      </trkpt>
      <trkpt lat="43.34531" lon="2.43665">
        <ele>441.6</ele>
        <time>2023-05-28T07:14:37Z</time>
      </trkpt>
      <trkpt lat="43.34532" lon="2.43664">
        <ele>441.5</ele>
        <time>2023-05-28T07:14:38Z</time>
      </trkpt>
      <trkpt lat="43.34535" lon="2.43663">
        <ele>441.3</ele>
        <time>2023-05-28T07:14:39Z</time>
      </trkpt>
      <trkpt lat="43.34538" lon="2.43662">
        <ele>441.1</ele>
        <time>2023-05-28T07:14:40Z</time>
      </trkpt>
      <trkpt lat="43.34542" lon="2.43663">
        <ele>440.8</ele>
        <time>2023-05-28T07:14:41Z</time>
      </trkpt>
      <trkpt lat="43.34543" lon="2.43663">
        <ele>440.7</ele>
        <time>2023-05-28T07:14:42Z</time>
      </trkpt>
      <trkpt lat="43.34547" lon="2.43663">
        <ele>440.5</ele>
        <time>2023-05-28T07:14:43Z</time>
      </trkpt>
      <trkpt lat="43.34549" lon="2.43663">
        <ele>440.4</ele>
        <time>2023-05-28T07:14:44Z</time>
      </trkpt>
      <trkpt lat="43.34551" lon="2.43663">
        <ele>440.3</ele>
        <time>2023-05-28T07:14:45Z</time>
      </trkpt>
      <trkpt lat="43.34555" lon="2.43663">
        <ele>440.1</ele>
        <time>2023-05-28T07:14:46Z</time>
      </trkpt>
      <trkpt lat="43.34558" lon="2.43662">
        <ele>439.9</ele>
        <time>2023-05-28T07:14:47Z</time>
      </trkpt>
      <trkpt lat="43.3456" lon="2.43662">
        <ele>439.9</ele>
        <time>2023-05-28T07:14:48Z</time>
      </trkpt>
      <trkpt lat="43.34562" lon="2.43661">
        <ele>439.8</ele>
        <time>2023-05-28T07:14:49Z</time>
      </trkpt>
      <trkpt lat="43.34565" lon="2.43659">
        <ele>439.7</ele>
        <time>2023-05-28T07:14:50Z</time>
      </trkpt>
      <trkpt lat="43.34566" lon="2.43658">
        <ele>439.7</ele>
        <time>2023-05-28T07:14:51Z</time>
      </trkpt>
      <trkpt lat="43.34569" lon="2.43656">
        <ele>439.6</ele>
        <time>2023-05-28T07:14:52Z</time>
      </trkpt>
      <trkpt lat="43.3457" lon="2.43655">
        <ele>439.6</ele>
        <time>2023-05-28T07:14:53Z</time>
      </trkpt>
      <trkpt lat="43.34573" lon="2.43653">
        <ele>439.6</ele>
        <time>2023-05-28T07:14:54Z</time>
      </trkpt>
      <trkpt lat="43.34577" lon="2.43651">
        <ele>439.6</ele>
        <time>2023-05-28T07:14:55Z</time>
      </trkpt>
      <trkpt lat="43.34578" lon="2.4365">
        <ele>439.6</ele>
        <time>2023-05-28T07:14:56Z</time>
      </trkpt>
      <trkpt lat="43.3458" lon="2.43649">
        <ele>439.6</ele>
        <time>2023-05-28T07:14:57Z</time>
      </trkpt>
      <trkpt lat="43.34583" lon="2.43648">
        <ele>439.6</ele>
        <time>2023-05-28T07:14:58Z</time>
      </trkpt>
      <trkpt lat="43.34586" lon="2.43647">
        <ele>439.6</ele>
        <time>2023-05-28T07:14:59Z</time>
      </trkpt>
      <trkpt lat="43.34588" lon="2.43645">
        <ele>439.6</ele>
        <time>2023-05-28T07:15:00Z</time>
      </trkpt>
      <trkpt lat="43.34592" lon="2.43644">
        <ele>439.7</ele>
        <time>2023-05-28T07:15:01Z</time>
      </trkpt>
      <trkpt lat="43.34593" lon="2.43644">
        <ele>439.7</ele>
        <time>2023-05-28T07:15:02Z</time>
      </trkpt>
      <trkpt lat="43.34596" lon="2.43643">
        <ele>439.7</ele>
        <time>2023-05-28T07:15:03Z</time>
      </trkpt>
      <trkpt lat="43.34597" lon="2.43643">
        <ele>439.7</ele>
        <time>2023-05-28T07:15:04Z</time>
      </trkpt>
      <trkpt lat="43.346" lon="2.43642">
        <ele>439.8</ele>
        <time>2023-05-28T07:15:05Z</time>
      </trkpt>
      <trkpt lat="43.34601" lon="2.43641">
        <ele>439.8</ele>
        <time>2023-05-28T07:15:06Z</time>
      </trkpt>
      <trkpt lat="43.34604" lon="2.43639">
        <ele>439.8</ele>
        <time>2023-05-28T07:15:07Z</time>
      </trkpt>
      <trkpt lat="43.34605" lon="2.43638">
        <ele>439.8</ele>
        <time>2023-05-28T07:15:08Z</time>
      </trkpt>
      <trkpt lat="43.34608" lon="2.43637">
        <ele>439.9</ele>
        <time>2023-05-28T07:15:09Z</time>
      </trkpt>
      <trkpt lat="43.3461" lon="2.43637">
        <ele>439.9</ele>
        <time>2023-05-28T07:15:10Z</time>
      </trkpt>
      <trkpt lat="43.34613" lon="2.43637">
        <ele>439.9</ele>
        <time>2023-05-28T07:15:11Z</time>
      </trkpt>
      <trkpt lat="43.34614" lon="2.43637">
        <ele>440.5</ele>
        <time>2023-05-28T07:15:12Z</time>
      </trkpt>
      <trkpt lat="43.34616" lon="2.43638">
        <ele>440.9</ele>
        <time>2023-05-28T07:15:13Z</time>
      </trkpt>
      <trkpt lat="43.34617" lon="2.43639">
        <ele>441</ele>
        <time>2023-05-28T07:15:14Z</time>
      </trkpt>
      <trkpt lat="43.34617" lon="2.43639">
        <ele>441.1</ele>
        <time>2023-05-28T07:15:15Z</time>
      </trkpt>
      <trkpt lat="43.34618" lon="2.4364">
        <ele>441.3</ele>
        <time>2023-05-28T07:15:16Z</time>
      </trkpt>
      <trkpt lat="43.3462" lon="2.43642">
        <ele>441.6</ele>
        <time>2023-05-28T07:15:17Z</time>
      </trkpt>
      <trkpt lat="43.34621" lon="2.43642">
        <ele>441.8</ele>
        <time>2023-05-28T07:15:18Z</time>
      </trkpt>
      <trkpt lat="43.34622" lon="2.43641">
        <ele>442.1</ele>
        <time>2023-05-28T07:15:19Z</time>
      </trkpt>
      <trkpt lat="43.34624" lon="2.43641">
        <ele>442.3</ele>
        <time>2023-05-28T07:15:20Z</time>
      </trkpt>
      <trkpt lat="43.34625" lon="2.43641">
        <ele>442.6</ele>
        <time>2023-05-28T07:15:21Z</time>
      </trkpt>
      <trkpt lat="43.34627" lon="2.43642">
        <ele>442.9</ele>
        <time>2023-05-28T07:15:22Z</time>
      </trkpt>
      <trkpt lat="43.34628" lon="2.43642">
        <ele>443.1</ele>
        <time>2023-05-28T07:15:23Z</time>
      </trkpt>
      <trkpt lat="43.3463" lon="2.43643">
        <ele>443.4</ele>
        <time>2023-05-28T07:15:24Z</time>
      </trkpt>
      <trkpt lat="43.34631" lon="2.43643">
        <ele>443.8</ele>
        <time>2023-05-28T07:15:25Z</time>
      </trkpt>
      <trkpt lat="43.34632" lon="2.43643">
        <ele>444</ele>
        <time>2023-05-28T07:15:26Z</time>
      </trkpt>
      <trkpt lat="43.34636" lon="2.43642">
        <ele>444.7</ele>
        <time>2023-05-28T07:15:27Z</time>
      </trkpt>
      <trkpt lat="43.34637" lon="2.43642">
        <ele>445</ele>
        <time>2023-05-28T07:15:28Z</time>
      </trkpt>
      <trkpt lat="43.34639" lon="2.43643">
        <ele>445.4</ele>
        <time>2023-05-28T07:15:29Z</time>
      </trkpt>
      <trkpt lat="43.3464" lon="2.43643">
        <ele>445.8</ele>
        <time>2023-05-28T07:15:30Z</time>
      </trkpt>
      <trkpt lat="43.34641" lon="2.43644">
        <ele>446</ele>
        <time>2023-05-28T07:15:31Z</time>
      </trkpt>
      <trkpt lat="43.34642" lon="2.43644">
        <ele>446.1</ele>
        <time>2023-05-28T07:15:32Z</time>
      </trkpt>
      <trkpt lat="43.34642" lon="2.43645">
        <ele>446.2</ele>
        <time>2023-05-28T07:15:33Z</time>
      </trkpt>
      <trkpt lat="43.34642" lon="2.43645">
        <ele>446.3</ele>
        <time>2023-05-28T07:15:34Z</time>
      </trkpt>
      <trkpt lat="43.34642" lon="2.43645">
        <ele>446.4</ele>
        <time>2023-05-28T07:15:35Z</time>
      </trkpt>
      <trkpt lat="43.34643" lon="2.43644">
        <ele>446.6</ele>
        <time>2023-05-28T07:15:36Z</time>
      </trkpt>
      <trkpt lat="43.34644" lon="2.43644">
        <ele>446.7</ele>
        <time>2023-05-28T07:15:37Z</time>
      </trkpt>
      <trkpt lat="43.34644" lon="2.43643">
        <ele>446.9</ele>
        <time>2023-05-28T07:15:38Z</time>
      </trkpt>
      <trkpt lat="43.34644" lon="2.43642">
        <ele>447.1</ele>
        <time>2023-05-28T07:15:39Z</time>
      </trkpt>
      <trkpt lat="43.34645" lon="2.43642">
        <ele>447.2</ele>
        <time>2023-05-28T07:15:40Z</time>
      </trkpt>
      <trkpt lat="43.34646" lon="2.43642">
        <ele>447.5</ele>
        <time>2023-05-28T07:15:41Z</time>
      </trkpt>
      <trkpt lat="43.34647" lon="2.43644">
        <ele>447.9</ele>
        <time>2023-05-28T07:15:42Z</time>
      </trkpt>
      <trkpt lat="43.34648" lon="2.43645">
        <ele>450.3</ele>
        <time>2023-05-28T07:15:43Z</time>
      </trkpt>
      <trkpt lat="43.3465" lon="2.43645">
        <ele>450.4</ele>
        <time>2023-05-28T07:15:44Z</time>
      </trkpt>
      <trkpt lat="43.34651" lon="2.43644">
        <ele>450.6</ele>
        <time>2023-05-28T07:15:45Z</time>
      </trkpt>
      <trkpt lat="43.34652" lon="2.43643">
        <ele>450.7</ele>
        <time>2023-05-28T07:15:46Z</time>
      </trkpt>
      <trkpt lat="43.34653" lon="2.43642">
        <ele>450.9</ele>
        <time>2023-05-28T07:15:47Z</time>
      </trkpt>
      <trkpt lat="43.34654" lon="2.43641">
        <ele>451</ele>
        <time>2023-05-28T07:15:48Z</time>
      </trkpt>
      <trkpt lat="43.34655" lon="2.4364">
        <ele>451.1</ele>
        <time>2023-05-28T07:15:49Z</time>
      </trkpt>
      <trkpt lat="43.34657" lon="2.4364">
        <ele>452.3</ele>
        <time>2023-05-28T07:15:50Z</time>
      </trkpt>
      <trkpt lat="43.34658" lon="2.43639">
        <ele>452.5</ele>
        <time>2023-05-28T07:15:51Z</time>
      </trkpt>
      <trkpt lat="43.3466" lon="2.43639">
        <ele>452.7</ele>
        <time>2023-05-28T07:15:52Z</time>
      </trkpt>
      <trkpt lat="43.34661" lon="2.4364">
        <ele>452.9</ele>
        <time>2023-05-28T07:15:53Z</time>
      </trkpt>
      <trkpt lat="43.34662" lon="2.4364">
        <ele>453.1</ele>
        <time>2023-05-28T07:15:54Z</time>
      </trkpt>
      <trkpt lat="43.34664" lon="2.43641">
        <ele>453.5</ele>
        <time>2023-05-28T07:15:55Z</time>
      </trkpt>
      <trkpt lat="43.34665" lon="2.43642">
        <ele>453.6</ele>
        <time>2023-05-28T07:15:56Z</time>
      </trkpt>
      <trkpt lat="43.34666" lon="2.43643">
        <ele>453.7</ele>
        <time>2023-05-28T07:15:57Z</time>
      </trkpt>
      <trkpt lat="43.34666" lon="2.43644">
        <ele>453.9</ele>
        <time>2023-05-28T07:15:58Z</time>
      </trkpt>
      <trkpt lat="43.34667" lon="2.43645">
        <ele>454</ele>
        <time>2023-05-28T07:15:59Z</time>
      </trkpt>
      <trkpt lat="43.34667" lon="2.43647">
        <ele>454.2</ele>
        <time>2023-05-28T07:16:00Z</time>
      </trkpt>
      <trkpt lat="43.34667" lon="2.43651">
        <ele>454.7</ele>
        <time>2023-05-28T07:16:01Z</time>
      </trkpt>
      <trkpt lat="43.34667" lon="2.43652">
        <ele>454.8</ele>
        <time>2023-05-28T07:16:02Z</time>
      </trkpt>
      <trkpt lat="43.34667" lon="2.43655">
        <ele>455.1</ele>
        <time>2023-05-28T07:16:03Z</time>
      </trkpt>
      <trkpt lat="43.34667" lon="2.43657">
        <ele>455.3</ele>
        <time>2023-05-28T07:16:04Z</time>
      </trkpt>
      <trkpt lat="43.34668" lon="2.43659">
        <ele>455.7</ele>
        <time>2023-05-28T07:16:05Z</time>
      </trkpt>
      <trkpt lat="43.34669" lon="2.4366">
        <ele>455.8</ele>
        <time>2023-05-28T07:16:06Z</time>
      </trkpt>
      <trkpt lat="43.34669" lon="2.43661">
        <ele>455.9</ele>
        <time>2023-05-28T07:16:07Z</time>
      </trkpt>
      <trkpt lat="43.34671" lon="2.43663">
        <ele>456.2</ele>
        <time>2023-05-28T07:16:08Z</time>
      </trkpt>
      <trkpt lat="43.34672" lon="2.43663">
        <ele>456.3</ele>
        <time>2023-05-28T07:16:09Z</time>
      </trkpt>
      <trkpt lat="43.34672" lon="2.43664">
        <ele>456.5</ele>
        <time>2023-05-28T07:16:10Z</time>
      </trkpt>
      <trkpt lat="43.34673" lon="2.43665">
        <ele>456.6</ele>
        <time>2023-05-28T07:16:11Z</time>
      </trkpt>
      <trkpt lat="43.34674" lon="2.43666">
        <ele>456.8</ele>
        <time>2023-05-28T07:16:12Z</time>
      </trkpt>
      <trkpt lat="43.34675" lon="2.43667">
        <ele>457</ele>
        <time>2023-05-28T07:16:13Z</time>
      </trkpt>
      <trkpt lat="43.34676" lon="2.43668">
        <ele>457.2</ele>
        <time>2023-05-28T07:16:14Z</time>
      </trkpt>
      <trkpt lat="43.34677" lon="2.4367">
        <ele>457.4</ele>
        <time>2023-05-28T07:16:15Z</time>
      </trkpt>
      <trkpt lat="43.34678" lon="2.43672">
        <ele>457.7</ele>
        <time>2023-05-28T07:16:16Z</time>
      </trkpt>
      <trkpt lat="43.34679" lon="2.43674">
        <ele>457.9</ele>
        <time>2023-05-28T07:16:17Z</time>
      </trkpt>
      <trkpt lat="43.3468" lon="2.43675">
        <ele>458.1</ele>
        <time>2023-05-28T07:16:18Z</time>
      </trkpt>
      <trkpt lat="43.34681" lon="2.43677">
        <ele>458.3</ele>
        <time>2023-05-28T07:16:19Z</time>
      </trkpt>
      <trkpt lat="43.34681" lon="2.43678">
        <ele>458.5</ele>
        <time>2023-05-28T07:16:20Z</time>
      </trkpt>
      <trkpt lat="43.34682" lon="2.43679">
        <ele>458.7</ele>
        <time>2023-05-28T07:16:21Z</time>
      </trkpt>
      <trkpt lat="43.34683" lon="2.4368">
        <ele>458.8</ele>
        <time>2023-05-28T07:16:22Z</time>
      </trkpt>
      <trkpt lat="43.34683" lon="2.43681">
        <ele>458.9</ele>
        <time>2023-05-28T07:16:23Z</time>
      </trkpt>
      <trkpt lat="43.34684" lon="2.43681">
        <ele>458.9</ele>
        <time>2023-05-28T07:16:24Z</time>
      </trkpt>
      <trkpt lat="43.34684" lon="2.43681">
        <ele>459</ele>
        <time>2023-05-28T07:16:25Z</time>
      </trkpt>
      <trkpt lat="43.34685" lon="2.43681">
        <ele>459</ele>
        <time>2023-05-28T07:16:26Z</time>
      </trkpt>
      <trkpt lat="43.34685" lon="2.43681">
        <ele>459.1</ele>
        <time>2023-05-28T07:16:27Z</time>
      </trkpt>
      <trkpt lat="43.34685" lon="2.43681">
        <ele>459.2</ele>
        <time>2023-05-28T07:16:28Z</time>
      </trkpt>
      <trkpt lat="43.34686" lon="2.43681">
        <ele>459.2</ele>
        <time>2023-05-28T07:16:29Z</time>
      </trkpt>
      <trkpt lat="43.34686" lon="2.43681">
        <ele>459.3</ele>
        <time>2023-05-28T07:16:30Z</time>
      </trkpt>
      <trkpt lat="43.34686" lon="2.43681">
        <ele>459.3</ele>
        <time>2023-05-28T07:16:31Z</time>
      </trkpt>
      <trkpt lat="43.34688" lon="2.43681">
        <ele>459.5</ele>
        <time>2023-05-28T07:16:32Z</time>
      </trkpt>
      <trkpt lat="43.3469" lon="2.4368">
        <ele>459.7</ele>
        <time>2023-05-28T07:16:33Z</time>
      </trkpt>
      <trkpt lat="43.34692" lon="2.43677">
        <ele>460</ele>
        <time>2023-05-28T07:16:34Z</time>
      </trkpt>
      <trkpt lat="43.34692" lon="2.43676">
        <ele>460.1</ele>
        <time>2023-05-28T07:16:35Z</time>
      </trkpt>
      <trkpt lat="43.34694" lon="2.43675">
        <ele>460.3</ele>
        <time>2023-05-28T07:16:36Z</time>
      </trkpt>
      <trkpt lat="43.34695" lon="2.43673">
        <ele>460.5</ele>
        <time>2023-05-28T07:16:37Z</time>
      </trkpt>
      <trkpt lat="43.34695" lon="2.4367">
        <ele>460.7</ele>
        <time>2023-05-28T07:16:38Z</time>
      </trkpt>
      <trkpt lat="43.34696" lon="2.43668">
        <ele>460.9</ele>
        <time>2023-05-28T07:16:39Z</time>
      </trkpt>
      <trkpt lat="43.34697" lon="2.43667">
        <ele>461</ele>
        <time>2023-05-28T07:16:40Z</time>
      </trkpt>
      <trkpt lat="43.34697" lon="2.43665">
        <ele>461.2</ele>
        <time>2023-05-28T07:16:41Z</time>
      </trkpt>
      <trkpt lat="43.34698" lon="2.43663">
        <ele>461.3</ele>
        <time>2023-05-28T07:16:42Z</time>
      </trkpt>
      <trkpt lat="43.34699" lon="2.43661">
        <ele>461.5</ele>
        <time>2023-05-28T07:16:43Z</time>
      </trkpt>
      <trkpt lat="43.347" lon="2.43658">
        <ele>461.7</ele>
        <time>2023-05-28T07:16:44Z</time>
      </trkpt>
      <trkpt lat="43.347" lon="2.43657">
        <ele>461.8</ele>
        <time>2023-05-28T07:16:45Z</time>
      </trkpt>
      <trkpt lat="43.34701" lon="2.43656">
        <ele>461.8</ele>
        <time>2023-05-28T07:16:46Z</time>
      </trkpt>
      <trkpt lat="43.34702" lon="2.43655">
        <ele>462</ele>
        <time>2023-05-28T07:16:47Z</time>
      </trkpt>
      <trkpt lat="43.34703" lon="2.43654">
        <ele>462.1</ele>
        <time>2023-05-28T07:16:48Z</time>
      </trkpt>
      <trkpt lat="43.34704" lon="2.43652">
        <ele>462.3</ele>
        <time>2023-05-28T07:16:49Z</time>
      </trkpt>
      <trkpt lat="43.34705" lon="2.43651">
        <ele>462.4</ele>
        <time>2023-05-28T07:16:50Z</time>
      </trkpt>
      <trkpt lat="43.34706" lon="2.43649">
        <ele>462.5</ele>
        <time>2023-05-28T07:16:51Z</time>
      </trkpt>
      <trkpt lat="43.34706" lon="2.43647">
        <ele>462.7</ele>
        <time>2023-05-28T07:16:52Z</time>
      </trkpt>
      <trkpt lat="43.34707" lon="2.43645">
        <ele>462.9</ele>
        <time>2023-05-28T07:16:53Z</time>
      </trkpt>
      <trkpt lat="43.34708" lon="2.43643">
        <ele>463</ele>
        <time>2023-05-28T07:16:54Z</time>
      </trkpt>
      <trkpt lat="43.34709" lon="2.43639">
        <ele>463.3</ele>
        <time>2023-05-28T07:16:55Z</time>
      </trkpt>
      <trkpt lat="43.3471" lon="2.43638">
        <ele>463.3</ele>
        <time>2023-05-28T07:16:56Z</time>
      </trkpt>
      <trkpt lat="43.34711" lon="2.43636">
        <ele>463.5</ele>
        <time>2023-05-28T07:16:57Z</time>
      </trkpt>
      <trkpt lat="43.34711" lon="2.43634">
        <ele>463.7</ele>
        <time>2023-05-28T07:16:58Z</time>
      </trkpt>
      <trkpt lat="43.34712" lon="2.43632">
        <ele>463.8</ele>
        <time>2023-05-28T07:16:59Z</time>
      </trkpt>
      <trkpt lat="43.34713" lon="2.4363">
        <ele>463.9</ele>
        <time>2023-05-28T07:17:00Z</time>
      </trkpt>
      <trkpt lat="43.34714" lon="2.43629">
        <ele>464.1</ele>
        <time>2023-05-28T07:17:01Z</time>
      </trkpt>
      <trkpt lat="43.34714" lon="2.43626">
        <ele>464.2</ele>
        <time>2023-05-28T07:17:02Z</time>
      </trkpt>
      <trkpt lat="43.34715" lon="2.43622">
        <ele>464.5</ele>
        <time>2023-05-28T07:17:03Z</time>
      </trkpt>
      <trkpt lat="43.34716" lon="2.4362">
        <ele>464.6</ele>
        <time>2023-05-28T07:17:04Z</time>
      </trkpt>
      <trkpt lat="43.34716" lon="2.43618">
        <ele>464.7</ele>
        <time>2023-05-28T07:17:05Z</time>
      </trkpt>
      <trkpt lat="43.34716" lon="2.43616">
        <ele>464.9</ele>
        <time>2023-05-28T07:17:06Z</time>
      </trkpt>
      <trkpt lat="43.34717" lon="2.43611">
        <ele>465.2</ele>
        <time>2023-05-28T07:17:07Z</time>
      </trkpt>
      <trkpt lat="43.34717" lon="2.43609">
        <ele>465.3</ele>
        <time>2023-05-28T07:17:08Z</time>
      </trkpt>
      <trkpt lat="43.34717" lon="2.43604">
        <ele>465.7</ele>
        <time>2023-05-28T07:17:09Z</time>
      </trkpt>
      <trkpt lat="43.34717" lon="2.43603">
        <ele>465.7</ele>
        <time>2023-05-28T07:17:10Z</time>
      </trkpt>
      <trkpt lat="43.34717" lon="2.43598">
        <ele>466.1</ele>
        <time>2023-05-28T07:17:11Z</time>
      </trkpt>
      <trkpt lat="43.34718" lon="2.43596">
        <ele>466.2</ele>
        <time>2023-05-28T07:17:12Z</time>
      </trkpt>
      <trkpt lat="43.34718" lon="2.43592">
        <ele>466.5</ele>
        <time>2023-05-28T07:17:13Z</time>
      </trkpt>
      <trkpt lat="43.34719" lon="2.43591">
        <ele>466.6</ele>
        <time>2023-05-28T07:17:14Z</time>
      </trkpt>
      <trkpt lat="43.34719" lon="2.43586">
        <ele>466.9</ele>
        <time>2023-05-28T07:17:15Z</time>
      </trkpt>
      <trkpt lat="43.34719" lon="2.43585">
        <ele>467</ele>
        <time>2023-05-28T07:17:16Z</time>
      </trkpt>
      <trkpt lat="43.34719" lon="2.43581">
        <ele>467.2</ele>
        <time>2023-05-28T07:17:17Z</time>
      </trkpt>
      <trkpt lat="43.34719" lon="2.4358">
        <ele>467.3</ele>
        <time>2023-05-28T07:17:18Z</time>
      </trkpt>
      <trkpt lat="43.3472" lon="2.43573">
        <ele>467.7</ele>
        <time>2023-05-28T07:17:20Z</time>
      </trkpt>
      <trkpt lat="43.34721" lon="2.43572">
        <ele>467.9</ele>
        <time>2023-05-28T07:17:21Z</time>
      </trkpt>
      <trkpt lat="43.34722" lon="2.43569">
        <ele>468</ele>
        <time>2023-05-28T07:17:22Z</time>
      </trkpt>
      <trkpt lat="43.34724" lon="2.43566">
        <ele>468.3</ele>
        <time>2023-05-28T07:17:23Z</time>
      </trkpt>
      <trkpt lat="43.34725" lon="2.43564">
        <ele>468.5</ele>
        <time>2023-05-28T07:17:24Z</time>
      </trkpt>
      <trkpt lat="43.34726" lon="2.43563">
        <ele>468.6</ele>
        <time>2023-05-28T07:17:25Z</time>
      </trkpt>
      <trkpt lat="43.34728" lon="2.4356">
        <ele>468.8</ele>
        <time>2023-05-28T07:17:26Z</time>
      </trkpt>
      <trkpt lat="43.34729" lon="2.43559">
        <ele>469</ele>
        <time>2023-05-28T07:17:27Z</time>
      </trkpt>
      <trkpt lat="43.3473" lon="2.43555">
        <ele>469.2</ele>
        <time>2023-05-28T07:17:28Z</time>
      </trkpt>
      <trkpt lat="43.34731" lon="2.43551">
        <ele>470.6</ele>
        <time>2023-05-28T07:17:29Z</time>
      </trkpt>
      <trkpt lat="43.34731" lon="2.43546">
        <ele>470.7</ele>
        <time>2023-05-28T07:17:30Z</time>
      </trkpt>
      <trkpt lat="43.34731" lon="2.43545">
        <ele>470.8</ele>
        <time>2023-05-28T07:17:31Z</time>
      </trkpt>
      <trkpt lat="43.3473" lon="2.43541">
        <ele>470.9</ele>
        <time>2023-05-28T07:17:32Z</time>
      </trkpt>
      <trkpt lat="43.34729" lon="2.43537">
        <ele>471</ele>
        <time>2023-05-28T07:17:33Z</time>
      </trkpt>
      <trkpt lat="43.34728" lon="2.43533">
        <ele>471.1</ele>
        <time>2023-05-28T07:17:34Z</time>
      </trkpt>
      <trkpt lat="43.34726" lon="2.43529">
        <ele>471.3</ele>
        <time>2023-05-28T07:17:35Z</time>
      </trkpt>
      <trkpt lat="43.34725" lon="2.43528">
        <ele>471.3</ele>
        <time>2023-05-28T07:17:36Z</time>
      </trkpt>
      <trkpt lat="43.34723" lon="2.43525">
        <ele>471.5</ele>
        <time>2023-05-28T07:17:37Z</time>
      </trkpt>
      <trkpt lat="43.34721" lon="2.43521">
        <ele>471.6</ele>
        <time>2023-05-28T07:17:38Z</time>
      </trkpt>
      <trkpt lat="43.3472" lon="2.4352">
        <ele>471.7</ele>
        <time>2023-05-28T07:17:39Z</time>
      </trkpt>
      <trkpt lat="43.34718" lon="2.43516">
        <ele>471.9</ele>
        <time>2023-05-28T07:17:40Z</time>
      </trkpt>
      <trkpt lat="43.34718" lon="2.43514">
        <ele>471.9</ele>
        <time>2023-05-28T07:17:41Z</time>
      </trkpt>
      <trkpt lat="43.34716" lon="2.43511">
        <ele>472.1</ele>
        <time>2023-05-28T07:17:42Z</time>
      </trkpt>
      <trkpt lat="43.34715" lon="2.4351">
        <ele>472.2</ele>
        <time>2023-05-28T07:17:43Z</time>
      </trkpt>
      <trkpt lat="43.34713" lon="2.43506">
        <ele>472.4</ele>
        <time>2023-05-28T07:17:44Z</time>
      </trkpt>
      <trkpt lat="43.34712" lon="2.43505">
        <ele>472.4</ele>
        <time>2023-05-28T07:17:45Z</time>
      </trkpt>
      <trkpt lat="43.34711" lon="2.43503">
        <ele>472.5</ele>
        <time>2023-05-28T07:17:46Z</time>
      </trkpt>
      <trkpt lat="43.3471" lon="2.43502">
        <ele>472.6</ele>
        <time>2023-05-28T07:17:47Z</time>
      </trkpt>
      <trkpt lat="43.34708" lon="2.43499">
        <ele>472.8</ele>
        <time>2023-05-28T07:17:48Z</time>
      </trkpt>
      <trkpt lat="43.34708" lon="2.43498">
        <ele>472.8</ele>
        <time>2023-05-28T07:17:49Z</time>
      </trkpt>
      <trkpt lat="43.34707" lon="2.43496">
        <ele>472.9</ele>
        <time>2023-05-28T07:17:50Z</time>
      </trkpt>
      <trkpt lat="43.34706" lon="2.43494">
        <ele>473</ele>
        <time>2023-05-28T07:17:51Z</time>
      </trkpt>
      <trkpt lat="43.34705" lon="2.4349">
        <ele>473.2</ele>
        <time>2023-05-28T07:17:52Z</time>
      </trkpt>
      <trkpt lat="43.34704" lon="2.43489">
        <ele>473.3</ele>
        <time>2023-05-28T07:17:53Z</time>
      </trkpt>
      <trkpt lat="43.34702" lon="2.43486">
        <ele>473.4</ele>
        <time>2023-05-28T07:17:54Z</time>
      </trkpt>
      <trkpt lat="43.34701" lon="2.43484">
        <ele>473.5</ele>
        <time>2023-05-28T07:17:55Z</time>
      </trkpt>
      <trkpt lat="43.34698" lon="2.43481">
        <ele>473.8</ele>
        <time>2023-05-28T07:17:56Z</time>
      </trkpt>
      <trkpt lat="43.34697" lon="2.43479">
        <ele>473.9</ele>
        <time>2023-05-28T07:17:57Z</time>
      </trkpt>
      <trkpt lat="43.34694" lon="2.43477">
        <ele>474.1</ele>
        <time>2023-05-28T07:17:58Z</time>
      </trkpt>
      <trkpt lat="43.34691" lon="2.43475">
        <ele>474.3</ele>
        <time>2023-05-28T07:17:59Z</time>
      </trkpt>
      <trkpt lat="43.34689" lon="2.43473">
        <ele>474.5</ele>
        <time>2023-05-28T07:18:00Z</time>
      </trkpt>
      <trkpt lat="43.34687" lon="2.43471">
        <ele>474.7</ele>
        <time>2023-05-28T07:18:01Z</time>
      </trkpt>
      <trkpt lat="43.34684" lon="2.43468">
        <ele>474.9</ele>
        <time>2023-05-28T07:18:02Z</time>
      </trkpt>
      <trkpt lat="43.34682" lon="2.43466">
        <ele>475.1</ele>
        <time>2023-05-28T07:18:03Z</time>
      </trkpt>
      <trkpt lat="43.34681" lon="2.43465">
        <ele>475.2</ele>
        <time>2023-05-28T07:18:04Z</time>
      </trkpt>
      <trkpt lat="43.34678" lon="2.43462">
        <ele>475.5</ele>
        <time>2023-05-28T07:18:05Z</time>
      </trkpt>
      <trkpt lat="43.34677" lon="2.43461">
        <ele>475.6</ele>
        <time>2023-05-28T07:18:06Z</time>
      </trkpt>
      <trkpt lat="43.34674" lon="2.4346">
        <ele>475.9</ele>
        <time>2023-05-28T07:18:07Z</time>
      </trkpt>
      <trkpt lat="43.34673" lon="2.43459">
        <ele>476</ele>
        <time>2023-05-28T07:18:08Z</time>
      </trkpt>
      <trkpt lat="43.3467" lon="2.43456">
        <ele>476.3</ele>
        <time>2023-05-28T07:18:09Z</time>
      </trkpt>
      <trkpt lat="43.34669" lon="2.43455">
        <ele>476.4</ele>
        <time>2023-05-28T07:18:10Z</time>
      </trkpt>
      <trkpt lat="43.34667" lon="2.43452">
        <ele>476.7</ele>
        <time>2023-05-28T07:18:11Z</time>
      </trkpt>
      <trkpt lat="43.34666" lon="2.43451">
        <ele>476.8</ele>
        <time>2023-05-28T07:18:12Z</time>
      </trkpt>
      <trkpt lat="43.34665" lon="2.43448">
        <ele>477.1</ele>
        <time>2023-05-28T07:18:13Z</time>
      </trkpt>
      <trkpt lat="43.34664" lon="2.43447">
        <ele>477.2</ele>
        <time>2023-05-28T07:18:14Z</time>
      </trkpt>
      <trkpt lat="43.34663" lon="2.43443">
        <ele>477.3</ele>
        <time>2023-05-28T07:18:15Z</time>
      </trkpt>
      <trkpt lat="43.34663" lon="2.43442">
        <ele>477.3</ele>
        <time>2023-05-28T07:18:16Z</time>
      </trkpt>
      <trkpt lat="43.34662" lon="2.4344">
        <ele>477.3</ele>
        <time>2023-05-28T07:18:17Z</time>
      </trkpt>
      <trkpt lat="43.34662" lon="2.43439">
        <ele>477.3</ele>
        <time>2023-05-28T07:18:18Z</time>
      </trkpt>
      <trkpt lat="43.34661" lon="2.43437">
        <ele>477.3</ele>
        <time>2023-05-28T07:18:19Z</time>
      </trkpt>
      <trkpt lat="43.34661" lon="2.43436">
        <ele>477.3</ele>
        <time>2023-05-28T07:18:20Z</time>
      </trkpt>
      <trkpt lat="43.34661" lon="2.43434">
        <ele>477.3</ele>
        <time>2023-05-28T07:18:21Z</time>
      </trkpt>
      <trkpt lat="43.34661" lon="2.43432">
        <ele>477.4</ele>
        <time>2023-05-28T07:18:22Z</time>
      </trkpt>
      <trkpt lat="43.34662" lon="2.4343">
        <ele>477.4</ele>
        <time>2023-05-28T07:18:23Z</time>
      </trkpt>
      <trkpt lat="43.34663" lon="2.43428">
        <ele>477.4</ele>
        <time>2023-05-28T07:18:24Z</time>
      </trkpt>
      <trkpt lat="43.34663" lon="2.43426">
        <ele>477.4</ele>
        <time>2023-05-28T07:18:25Z</time>
      </trkpt>
      <trkpt lat="43.34663" lon="2.43425">
        <ele>477.4</ele>
        <time>2023-05-28T07:18:26Z</time>
      </trkpt>
      <trkpt lat="43.34663" lon="2.43422">
        <ele>477.5</ele>
        <time>2023-05-28T07:18:27Z</time>
      </trkpt>
      <trkpt lat="43.34663" lon="2.4342">
        <ele>477.5</ele>
        <time>2023-05-28T07:18:28Z</time>
      </trkpt>
      <trkpt lat="43.34663" lon="2.43418">
        <ele>477.5</ele>
        <time>2023-05-28T07:18:29Z</time>
      </trkpt>
      <trkpt lat="43.34663" lon="2.43416">
        <ele>477.5</ele>
        <time>2023-05-28T07:18:30Z</time>
      </trkpt>
      <trkpt lat="43.34663" lon="2.43414">
        <ele>477.6</ele>
        <time>2023-05-28T07:18:31Z</time>
      </trkpt>
      <trkpt lat="43.34663" lon="2.43412">
        <ele>477.6</ele>
        <time>2023-05-28T07:18:32Z</time>
      </trkpt>
      <trkpt lat="43.34664" lon="2.43411">
        <ele>477.6</ele>
        <time>2023-05-28T07:18:33Z</time>
      </trkpt>
      <trkpt lat="43.34664" lon="2.43409">
        <ele>477.6</ele>
        <time>2023-05-28T07:18:34Z</time>
      </trkpt>
      <trkpt lat="43.34664" lon="2.43406">
        <ele>477.6</ele>
        <time>2023-05-28T07:18:35Z</time>
      </trkpt>
      <trkpt lat="43.34665" lon="2.43404">
        <ele>477.6</ele>
        <time>2023-05-28T07:18:36Z</time>
      </trkpt>
      <trkpt lat="43.34665" lon="2.43403">
        <ele>477.6</ele>
        <time>2023-05-28T07:18:37Z</time>
      </trkpt>
      <trkpt lat="43.34664" lon="2.43401">
        <ele>477.6</ele>
        <time>2023-05-28T07:18:38Z</time>
      </trkpt>
      <trkpt lat="43.34664" lon="2.43399">
        <ele>477.6</ele>
        <time>2023-05-28T07:18:39Z</time>
      </trkpt>
      <trkpt lat="43.34663" lon="2.43398">
        <ele>477.6</ele>
        <time>2023-05-28T07:18:40Z</time>
      </trkpt>
      <trkpt lat="43.34663" lon="2.43397">
        <ele>477.6</ele>
        <time>2023-05-28T07:18:41Z</time>
      </trkpt>
      <trkpt lat="43.34663" lon="2.43395">
        <ele>477.6</ele>
        <time>2023-05-28T07:18:42Z</time>
      </trkpt>
      <trkpt lat="43.34663" lon="2.43394">
        <ele>477.7</ele>
        <time>2023-05-28T07:18:43Z</time>
      </trkpt>
      <trkpt lat="43.34663" lon="2.43392">
        <ele>477.7</ele>
        <time>2023-05-28T07:18:44Z</time>
      </trkpt>
      <trkpt lat="43.34663" lon="2.43391">
        <ele>477.7</ele>
        <time>2023-05-28T07:18:45Z</time>
      </trkpt>
      <trkpt lat="43.34663" lon="2.4339">
        <ele>477.7</ele>
        <time>2023-05-28T07:18:46Z</time>
      </trkpt>
      <trkpt lat="43.34663" lon="2.43389">
        <ele>477.7</ele>
        <time>2023-05-28T07:18:47Z</time>
      </trkpt>
      <trkpt lat="43.34663" lon="2.43388">
        <ele>477.7</ele>
        <time>2023-05-28T07:18:48Z</time>
      </trkpt>
      <trkpt lat="43.34663" lon="2.43387">
        <ele>477.8</ele>
        <time>2023-05-28T07:18:49Z</time>
      </trkpt>
      <trkpt lat="43.34662" lon="2.43385">
        <ele>477.8</ele>
        <time>2023-05-28T07:18:50Z</time>
      </trkpt>
      <trkpt lat="43.34661" lon="2.43384">
        <ele>477.9</ele>
        <time>2023-05-28T07:18:51Z</time>
      </trkpt>
      <trkpt lat="43.34661" lon="2.43383">
        <ele>477.9</ele>
        <time>2023-05-28T07:18:52Z</time>
      </trkpt>
      <trkpt lat="43.34661" lon="2.43381">
        <ele>478</ele>
        <time>2023-05-28T07:18:53Z</time>
      </trkpt>
      <trkpt lat="43.34661" lon="2.4338">
        <ele>478</ele>
        <time>2023-05-28T07:18:54Z</time>
      </trkpt>
      <trkpt lat="43.34661" lon="2.43379">
        <ele>478.1</ele>
        <time>2023-05-28T07:18:55Z</time>
      </trkpt>
      <trkpt lat="43.34661" lon="2.43378">
        <ele>478.1</ele>
        <time>2023-05-28T07:18:56Z</time>
      </trkpt>
      <trkpt lat="43.34661" lon="2.43376">
        <ele>478.2</ele>
        <time>2023-05-28T07:18:57Z</time>
      </trkpt>
      <trkpt lat="43.34662" lon="2.43375">
        <ele>478.3</ele>
        <time>2023-05-28T07:18:58Z</time>
      </trkpt>
      <trkpt lat="43.34662" lon="2.43374">
        <ele>478.3</ele>
        <time>2023-05-28T07:18:59Z</time>
      </trkpt>
      <trkpt lat="43.34664" lon="2.43373">
        <ele>478.5</ele>
        <time>2023-05-28T07:19:00Z</time>
      </trkpt>
      <trkpt lat="43.34665" lon="2.43373">
        <ele>478.6</ele>
        <time>2023-05-28T07:19:01Z</time>
      </trkpt>
      <trkpt lat="43.34666" lon="2.43373">
        <ele>478.6</ele>
        <time>2023-05-28T07:19:02Z</time>
      </trkpt>
      <trkpt lat="43.34669" lon="2.43374">
        <ele>478.9</ele>
        <time>2023-05-28T07:19:03Z</time>
      </trkpt>
      <trkpt lat="43.34669" lon="2.43375">
        <ele>479.7</ele>
        <time>2023-05-28T07:19:04Z</time>
      </trkpt>
      <trkpt lat="43.34671" lon="2.43375">
        <ele>479.8</ele>
        <time>2023-05-28T07:19:05Z</time>
      </trkpt>
      <trkpt lat="43.34672" lon="2.43376">
        <ele>479.8</ele>
        <time>2023-05-28T07:19:06Z</time>
      </trkpt>
      <trkpt lat="43.34673" lon="2.43376">
        <ele>479.9</ele>
        <time>2023-05-28T07:19:07Z</time>
      </trkpt>
      <trkpt lat="43.34674" lon="2.43377">
        <ele>480</ele>
        <time>2023-05-28T07:19:08Z</time>
      </trkpt>
      <trkpt lat="43.34675" lon="2.43378">
        <ele>480.1</ele>
        <time>2023-05-28T07:19:09Z</time>
      </trkpt>
      <trkpt lat="43.34677" lon="2.43378">
        <ele>480.1</ele>
        <time>2023-05-28T07:19:10Z</time>
      </trkpt>
      <trkpt lat="43.34678" lon="2.43379">
        <ele>480.2</ele>
        <time>2023-05-28T07:19:11Z</time>
      </trkpt>
      <trkpt lat="43.3468" lon="2.43379">
        <ele>480.3</ele>
        <time>2023-05-28T07:19:12Z</time>
      </trkpt>
      <trkpt lat="43.34681" lon="2.4338">
        <ele>480.4</ele>
        <time>2023-05-28T07:19:13Z</time>
      </trkpt>
      <trkpt lat="43.34682" lon="2.4338">
        <ele>480.5</ele>
        <time>2023-05-28T07:19:14Z</time>
      </trkpt>
      <trkpt lat="43.34684" lon="2.43381">
        <ele>480.6</ele>
        <time>2023-05-28T07:19:15Z</time>
      </trkpt>
      <trkpt lat="43.34685" lon="2.43382">
        <ele>480.7</ele>
        <time>2023-05-28T07:19:16Z</time>
      </trkpt>
      <trkpt lat="43.34686" lon="2.43383">
        <ele>480.9</ele>
        <time>2023-05-28T07:19:17Z</time>
      </trkpt>
      <trkpt lat="43.34687" lon="2.43384">
        <ele>481</ele>
        <time>2023-05-28T07:19:18Z</time>
      </trkpt>
      <trkpt lat="43.34689" lon="2.43384">
        <ele>481.1</ele>
        <time>2023-05-28T07:19:19Z</time>
      </trkpt>
      <trkpt lat="43.34691" lon="2.43385">
        <ele>481.2</ele>
        <time>2023-05-28T07:19:20Z</time>
      </trkpt>
      <trkpt lat="43.34692" lon="2.43386">
        <ele>481.4</ele>
        <time>2023-05-28T07:19:21Z</time>
      </trkpt>
      <trkpt lat="43.34694" lon="2.43387">
        <ele>481.5</ele>
        <time>2023-05-28T07:19:22Z</time>
      </trkpt>
      <trkpt lat="43.34695" lon="2.43388">
        <ele>481.6</ele>
        <time>2023-05-28T07:19:23Z</time>
      </trkpt>
      <trkpt lat="43.34697" lon="2.43389">
        <ele>481.8</ele>
        <time>2023-05-28T07:19:24Z</time>
      </trkpt>
      <trkpt lat="43.34698" lon="2.4339">
        <ele>481.9</ele>
        <time>2023-05-28T07:19:25Z</time>
      </trkpt>
      <trkpt lat="43.34699" lon="2.4339">
        <ele>482</ele>
        <time>2023-05-28T07:19:26Z</time>
      </trkpt>
      <trkpt lat="43.34701" lon="2.43391">
        <ele>482.1</ele>
        <time>2023-05-28T07:19:27Z</time>
      </trkpt>
      <trkpt lat="43.34702" lon="2.43392">
        <ele>482.2</ele>
        <time>2023-05-28T07:19:28Z</time>
      </trkpt>
      <trkpt lat="43.34704" lon="2.43393">
        <ele>482.4</ele>
        <time>2023-05-28T07:19:29Z</time>
      </trkpt>
      <trkpt lat="43.34705" lon="2.43394">
        <ele>482.5</ele>
        <time>2023-05-28T07:19:30Z</time>
      </trkpt>
      <trkpt lat="43.34706" lon="2.43395">
        <ele>482.7</ele>
        <time>2023-05-28T07:19:31Z</time>
      </trkpt>
      <trkpt lat="43.34708" lon="2.43396">
        <ele>482.8</ele>
        <time>2023-05-28T07:19:32Z</time>
      </trkpt>
      <trkpt lat="43.34709" lon="2.43396">
        <ele>483</ele>
        <time>2023-05-28T07:19:33Z</time>
      </trkpt>
      <trkpt lat="43.34711" lon="2.43396">
        <ele>483.1</ele>
        <time>2023-05-28T07:19:34Z</time>
      </trkpt>
      <trkpt lat="43.34712" lon="2.43396">
        <ele>483.3</ele>
        <time>2023-05-28T07:19:35Z</time>
      </trkpt>
      <trkpt lat="43.34714" lon="2.43394">
        <ele>483.5</ele>
        <time>2023-05-28T07:19:36Z</time>
      </trkpt>
      <trkpt lat="43.34715" lon="2.43393">
        <ele>483.6</ele>
        <time>2023-05-28T07:19:37Z</time>
      </trkpt>
      <trkpt lat="43.34715" lon="2.43393">
        <ele>483.7</ele>
        <time>2023-05-28T07:19:38Z</time>
      </trkpt>
      <trkpt lat="43.34716" lon="2.43391">
        <ele>484.7</ele>
        <time>2023-05-28T07:19:39Z</time>
      </trkpt>
      <trkpt lat="43.34717" lon="2.43389">
        <ele>484.8</ele>
        <time>2023-05-28T07:19:40Z</time>
      </trkpt>
      <trkpt lat="43.34717" lon="2.43388">
        <ele>484.9</ele>
        <time>2023-05-28T07:19:41Z</time>
      </trkpt>
      <trkpt lat="43.34718" lon="2.43387">
        <ele>484.9</ele>
        <time>2023-05-28T07:19:42Z</time>
      </trkpt>
      <trkpt lat="43.34719" lon="2.43386">
        <ele>485</ele>
        <time>2023-05-28T07:19:43Z</time>
      </trkpt>
      <trkpt lat="43.3472" lon="2.43385">
        <ele>485.1</ele>
        <time>2023-05-28T07:19:44Z</time>
      </trkpt>
      <trkpt lat="43.3472" lon="2.43384">
        <ele>485.1</ele>
        <time>2023-05-28T07:19:45Z</time>
      </trkpt>
      <trkpt lat="43.34721" lon="2.43383">
        <ele>485.2</ele>
        <time>2023-05-28T07:19:46Z</time>
      </trkpt>
      <trkpt lat="43.34722" lon="2.43382">
        <ele>485.2</ele>
        <time>2023-05-28T07:19:47Z</time>
      </trkpt>
      <trkpt lat="43.34722" lon="2.43381">
        <ele>485.3</ele>
        <time>2023-05-28T07:19:48Z</time>
      </trkpt>
      <trkpt lat="43.34723" lon="2.43381">
        <ele>485.3</ele>
        <time>2023-05-28T07:19:49Z</time>
      </trkpt>
      <trkpt lat="43.34724" lon="2.4338">
        <ele>485.4</ele>
        <time>2023-05-28T07:19:50Z</time>
      </trkpt>
      <trkpt lat="43.34725" lon="2.43379">
        <ele>485.4</ele>
        <time>2023-05-28T07:19:51Z</time>
      </trkpt>
      <trkpt lat="43.34726" lon="2.43378">
        <ele>485.5</ele>
        <time>2023-05-28T07:19:52Z</time>
      </trkpt>
      <trkpt lat="43.34728" lon="2.43377">
        <ele>485.5</ele>
        <time>2023-05-28T07:19:53Z</time>
      </trkpt>
      <trkpt lat="43.34729" lon="2.43377">
        <ele>485.6</ele>
        <time>2023-05-28T07:19:54Z</time>
      </trkpt>
      <trkpt lat="43.3473" lon="2.43376">
        <ele>485.6</ele>
        <time>2023-05-28T07:19:55Z</time>
      </trkpt>
      <trkpt lat="43.34732" lon="2.43376">
        <ele>485.7</ele>
        <time>2023-05-28T07:19:56Z</time>
      </trkpt>
      <trkpt lat="43.34733" lon="2.43375">
        <ele>485.7</ele>
        <time>2023-05-28T07:19:57Z</time>
      </trkpt>
      <trkpt lat="43.34734" lon="2.43375">
        <ele>485.7</ele>
        <time>2023-05-28T07:19:58Z</time>
      </trkpt>
      <trkpt lat="43.34736" lon="2.43374">
        <ele>485.7</ele>
        <time>2023-05-28T07:19:59Z</time>
      </trkpt>
      <trkpt lat="43.34737" lon="2.43373">
        <ele>485.8</ele>
        <time>2023-05-28T07:20:00Z</time>
      </trkpt>
      <trkpt lat="43.34738" lon="2.43372">
        <ele>485.8</ele>
        <time>2023-05-28T07:20:01Z</time>
      </trkpt>
      <trkpt lat="43.3474" lon="2.43371">
        <ele>485.8</ele>
        <time>2023-05-28T07:20:02Z</time>
      </trkpt>
      <trkpt lat="43.34741" lon="2.4337">
        <ele>485.8</ele>
        <time>2023-05-28T07:20:03Z</time>
      </trkpt>
      <trkpt lat="43.34742" lon="2.43368">
        <ele>485.6</ele>
        <time>2023-05-28T07:20:04Z</time>
      </trkpt>
      <trkpt lat="43.34743" lon="2.43367">
        <ele>485.5</ele>
        <time>2023-05-28T07:20:05Z</time>
      </trkpt>
      <trkpt lat="43.34744" lon="2.43365">
        <ele>485.5</ele>
        <time>2023-05-28T07:20:06Z</time>
      </trkpt>
      <trkpt lat="43.34744" lon="2.43364">
        <ele>485.4</ele>
        <time>2023-05-28T07:20:07Z</time>
      </trkpt>
      <trkpt lat="43.34745" lon="2.43362">
        <ele>485.4</ele>
        <time>2023-05-28T07:20:08Z</time>
      </trkpt>
      <trkpt lat="43.34745" lon="2.43361">
        <ele>485.4</ele>
        <time>2023-05-28T07:20:09Z</time>
      </trkpt>
      <trkpt lat="43.34745" lon="2.43358">
        <ele>485.3</ele>
        <time>2023-05-28T07:20:10Z</time>
      </trkpt>
      <trkpt lat="43.34745" lon="2.43357">
        <ele>485.2</ele>
        <time>2023-05-28T07:20:11Z</time>
      </trkpt>
      <trkpt lat="43.34745" lon="2.43355">
        <ele>485.2</ele>
        <time>2023-05-28T07:20:12Z</time>
      </trkpt>
      <trkpt lat="43.34745" lon="2.43353">
        <ele>485.1</ele>
        <time>2023-05-28T07:20:13Z</time>
      </trkpt>
      <trkpt lat="43.34745" lon="2.4335">
        <ele>485</ele>
        <time>2023-05-28T07:20:14Z</time>
      </trkpt>
      <trkpt lat="43.34746" lon="2.43346">
        <ele>484.9</ele>
        <time>2023-05-28T07:20:15Z</time>
      </trkpt>
      <trkpt lat="43.34747" lon="2.43345">
        <ele>484.8</ele>
        <time>2023-05-28T07:20:16Z</time>
      </trkpt>
      <trkpt lat="43.34748" lon="2.43341">
        <ele>484.7</ele>
        <time>2023-05-28T07:20:17Z</time>
      </trkpt>
      <trkpt lat="43.34748" lon="2.43339">
        <ele>484.6</ele>
        <time>2023-05-28T07:20:18Z</time>
      </trkpt>
      <trkpt lat="43.3475" lon="2.43335">
        <ele>484.4</ele>
        <time>2023-05-28T07:20:19Z</time>
      </trkpt>
      <trkpt lat="43.34751" lon="2.43334">
        <ele>484.3</ele>
        <time>2023-05-28T07:20:20Z</time>
      </trkpt>
      <trkpt lat="43.34754" lon="2.43332">
        <ele>484</ele>
        <time>2023-05-28T07:20:21Z</time>
      </trkpt>
      <trkpt lat="43.34755" lon="2.43331">
        <ele>484</ele>
        <time>2023-05-28T07:20:22Z</time>
      </trkpt>
      <trkpt lat="43.34758" lon="2.43331">
        <ele>483.7</ele>
        <time>2023-05-28T07:20:23Z</time>
      </trkpt>
      <trkpt lat="43.34759" lon="2.43332">
        <ele>483.6</ele>
        <time>2023-05-28T07:20:24Z</time>
      </trkpt>
      <trkpt lat="43.34762" lon="2.43334">
        <ele>483</ele>
        <time>2023-05-28T07:20:25Z</time>
      </trkpt>
      <trkpt lat="43.34763" lon="2.43335">
        <ele>482.9</ele>
        <time>2023-05-28T07:20:26Z</time>
      </trkpt>
      <trkpt lat="43.34766" lon="2.43338">
        <ele>482.6</ele>
        <time>2023-05-28T07:20:27Z</time>
      </trkpt>
      <trkpt lat="43.34767" lon="2.43339">
        <ele>482.5</ele>
        <time>2023-05-28T07:20:28Z</time>
      </trkpt>
      <trkpt lat="43.34769" lon="2.43341">
        <ele>482.2</ele>
        <time>2023-05-28T07:20:29Z</time>
      </trkpt>
      <trkpt lat="43.3477" lon="2.43342">
        <ele>482.1</ele>
        <time>2023-05-28T07:20:30Z</time>
      </trkpt>
      <trkpt lat="43.34773" lon="2.43344">
        <ele>481.9</ele>
        <time>2023-05-28T07:20:31Z</time>
      </trkpt>
      <trkpt lat="43.34774" lon="2.43345">
        <ele>481.8</ele>
        <time>2023-05-28T07:20:32Z</time>
      </trkpt>
      <trkpt lat="43.34777" lon="2.43347">
        <ele>481.6</ele>
        <time>2023-05-28T07:20:33Z</time>
      </trkpt>
      <trkpt lat="43.34778" lon="2.43348">
        <ele>481.5</ele>
        <time>2023-05-28T07:20:34Z</time>
      </trkpt>
      <trkpt lat="43.3478" lon="2.43349">
        <ele>481.4</ele>
        <time>2023-05-28T07:20:35Z</time>
      </trkpt>
      <trkpt lat="43.34781" lon="2.4335">
        <ele>481.2</ele>
        <time>2023-05-28T07:20:36Z</time>
      </trkpt>
      <trkpt lat="43.34783" lon="2.43352">
        <ele>481</ele>
        <time>2023-05-28T07:20:37Z</time>
      </trkpt>
      <trkpt lat="43.34784" lon="2.43353">
        <ele>481</ele>
        <time>2023-05-28T07:20:38Z</time>
      </trkpt>
      <trkpt lat="43.34787" lon="2.43356">
        <ele>480.7</ele>
        <time>2023-05-28T07:20:39Z</time>
      </trkpt>
      <trkpt lat="43.34788" lon="2.43357">
        <ele>480.6</ele>
        <time>2023-05-28T07:20:40Z</time>
      </trkpt>
      <trkpt lat="43.34791" lon="2.43359">
        <ele>480.3</ele>
        <time>2023-05-28T07:20:41Z</time>
      </trkpt>
      <trkpt lat="43.34792" lon="2.4336">
        <ele>480.2</ele>
        <time>2023-05-28T07:20:42Z</time>
      </trkpt>
      <trkpt lat="43.34794" lon="2.43361">
        <ele>480</ele>
        <time>2023-05-28T07:20:43Z</time>
      </trkpt>
      <trkpt lat="43.34795" lon="2.43361">
        <ele>479.9</ele>
        <time>2023-05-28T07:20:44Z</time>
      </trkpt>
      <trkpt lat="43.34799" lon="2.43363">
        <ele>479.5</ele>
        <time>2023-05-28T07:20:45Z</time>
      </trkpt>
      <trkpt lat="43.348" lon="2.43363">
        <ele>479.4</ele>
        <time>2023-05-28T07:20:46Z</time>
      </trkpt>
      <trkpt lat="43.34803" lon="2.43365">
        <ele>479.1</ele>
        <time>2023-05-28T07:20:47Z</time>
      </trkpt>
      <trkpt lat="43.34804" lon="2.43365">
        <ele>478.9</ele>
        <time>2023-05-28T07:20:48Z</time>
      </trkpt>
      <trkpt lat="43.34808" lon="2.43367">
        <ele>478.6</ele>
        <time>2023-05-28T07:20:49Z</time>
      </trkpt>
      <trkpt lat="43.34809" lon="2.43367">
        <ele>478.5</ele>
        <time>2023-05-28T07:20:50Z</time>
      </trkpt>
      <trkpt lat="43.34812" lon="2.43369">
        <ele>478.1</ele>
        <time>2023-05-28T07:20:51Z</time>
      </trkpt>
      <trkpt lat="43.34814" lon="2.43369">
        <ele>478</ele>
        <time>2023-05-28T07:20:52Z</time>
      </trkpt>
      <trkpt lat="43.34817" lon="2.4337">
        <ele>477.7</ele>
        <time>2023-05-28T07:20:53Z</time>
      </trkpt>
      <trkpt lat="43.34818" lon="2.43371">
        <ele>477.5</ele>
        <time>2023-05-28T07:20:54Z</time>
      </trkpt>
      <trkpt lat="43.34822" lon="2.43372">
        <ele>477.2</ele>
        <time>2023-05-28T07:20:55Z</time>
      </trkpt>
      <trkpt lat="43.34823" lon="2.43372">
        <ele>477.1</ele>
        <time>2023-05-28T07:20:56Z</time>
      </trkpt>
      <trkpt lat="43.34827" lon="2.43373">
        <ele>476.8</ele>
        <time>2023-05-28T07:20:57Z</time>
      </trkpt>
      <trkpt lat="43.34828" lon="2.43373">
        <ele>476.7</ele>
        <time>2023-05-28T07:20:58Z</time>
      </trkpt>
      <trkpt lat="43.34831" lon="2.43374">
        <ele>476.5</ele>
        <time>2023-05-28T07:20:59Z</time>
      </trkpt>
      <trkpt lat="43.34832" lon="2.43374">
        <ele>476.5</ele>
        <time>2023-05-28T07:21:00Z</time>
      </trkpt>
      <trkpt lat="43.34835" lon="2.43374">
        <ele>476.3</ele>
        <time>2023-05-28T07:21:01Z</time>
      </trkpt>
      <trkpt lat="43.34837" lon="2.43373">
        <ele>476.2</ele>
        <time>2023-05-28T07:21:02Z</time>
      </trkpt>
      <trkpt lat="43.34841" lon="2.43372">
        <ele>475.9</ele>
        <time>2023-05-28T07:21:03Z</time>
      </trkpt>
      <trkpt lat="43.34842" lon="2.43371">
        <ele>475.8</ele>
        <time>2023-05-28T07:21:04Z</time>
      </trkpt>
      <trkpt lat="43.34845" lon="2.4337">
        <ele>475.7</ele>
        <time>2023-05-28T07:21:05Z</time>
      </trkpt>
      <trkpt lat="43.34848" lon="2.43369">
        <ele>475.5</ele>
        <time>2023-05-28T07:21:06Z</time>
      </trkpt>
      <trkpt lat="43.3485" lon="2.43369">
        <ele>475.3</ele>
        <time>2023-05-28T07:21:07Z</time>
      </trkpt>
      <trkpt lat="43.34854" lon="2.4337">
        <ele>475.1</ele>
        <time>2023-05-28T07:21:08Z</time>
      </trkpt>
      <trkpt lat="43.34855" lon="2.4337">
        <ele>475.1</ele>
        <time>2023-05-28T07:21:09Z</time>
      </trkpt>
      <trkpt lat="43.34858" lon="2.43371">
        <ele>474.9</ele>
        <time>2023-05-28T07:21:10Z</time>
      </trkpt>
      <trkpt lat="43.34862" lon="2.43372">
        <ele>474.8</ele>
        <time>2023-05-28T07:21:11Z</time>
      </trkpt>
      <trkpt lat="43.34863" lon="2.43373">
        <ele>474.7</ele>
        <time>2023-05-28T07:21:12Z</time>
      </trkpt>
      <trkpt lat="43.34865" lon="2.43374">
        <ele>474.6</ele>
        <time>2023-05-28T07:21:13Z</time>
      </trkpt>
      <trkpt lat="43.34866" lon="2.43374">
        <ele>474.6</ele>
        <time>2023-05-28T07:21:14Z</time>
      </trkpt>
      <trkpt lat="43.3487" lon="2.43374">
        <ele>474.4</ele>
        <time>2023-05-28T07:21:15Z</time>
      </trkpt>
      <trkpt lat="43.34871" lon="2.43374">
        <ele>474.4</ele>
        <time>2023-05-28T07:21:16Z</time>
      </trkpt>
      <trkpt lat="43.34874" lon="2.43373">
        <ele>474.2</ele>
        <time>2023-05-28T07:21:17Z</time>
      </trkpt>
      <trkpt lat="43.3488" lon="2.4337">
        <ele>474</ele>
        <time>2023-05-28T07:21:18Z</time>
      </trkpt>
      <trkpt lat="43.34883" lon="2.43368">
        <ele>473.8</ele>
        <time>2023-05-28T07:21:19Z</time>
      </trkpt>
      <trkpt lat="43.34886" lon="2.43367">
        <ele>473.7</ele>
        <time>2023-05-28T07:21:20Z</time>
      </trkpt>
      <trkpt lat="43.3489" lon="2.43366">
        <ele>473.6</ele>
        <time>2023-05-28T07:21:21Z</time>
      </trkpt>
      <trkpt lat="43.34891" lon="2.43365">
        <ele>473.6</ele>
        <time>2023-05-28T07:21:22Z</time>
      </trkpt>
      <trkpt lat="43.34894" lon="2.43365">
        <ele>473.5</ele>
        <time>2023-05-28T07:21:23Z</time>
      </trkpt>
      <trkpt lat="43.34895" lon="2.43365">
        <ele>473.4</ele>
        <time>2023-05-28T07:21:24Z</time>
      </trkpt>
      <trkpt lat="43.34899" lon="2.43366">
        <ele>473.3</ele>
        <time>2023-05-28T07:21:25Z</time>
      </trkpt>
      <trkpt lat="43.349" lon="2.43366">
        <ele>473.3</ele>
        <time>2023-05-28T07:21:26Z</time>
      </trkpt>
      <trkpt lat="43.34903" lon="2.43367">
        <ele>473.2</ele>
        <time>2023-05-28T07:21:27Z</time>
      </trkpt>
      <trkpt lat="43.34907" lon="2.43367">
        <ele>473.1</ele>
        <time>2023-05-28T07:21:28Z</time>
      </trkpt>
      <trkpt lat="43.34909" lon="2.43368">
        <ele>473.1</ele>
        <time>2023-05-28T07:21:29Z</time>
      </trkpt>
      <trkpt lat="43.34911" lon="2.43368">
        <ele>473</ele>
        <time>2023-05-28T07:21:30Z</time>
      </trkpt>
      <trkpt lat="43.34914" lon="2.43368">
        <ele>472.9</ele>
        <time>2023-05-28T07:21:31Z</time>
      </trkpt>
      <trkpt lat="43.34917" lon="2.43368">
        <ele>472.7</ele>
        <time>2023-05-28T07:21:32Z</time>
      </trkpt>
      <trkpt lat="43.3492" lon="2.43368">
        <ele>472.6</ele>
        <time>2023-05-28T07:21:33Z</time>
      </trkpt>
      <trkpt lat="43.34923" lon="2.43368">
        <ele>472.5</ele>
        <time>2023-05-28T07:21:34Z</time>
      </trkpt>
      <trkpt lat="43.34926" lon="2.43368">
        <ele>472.3</ele>
        <time>2023-05-28T07:21:35Z</time>
      </trkpt>
      <trkpt lat="43.34929" lon="2.43368">
        <ele>472.1</ele>
        <time>2023-05-28T07:21:36Z</time>
      </trkpt>
      <trkpt lat="43.34933" lon="2.43367">
        <ele>471.8</ele>
        <time>2023-05-28T07:21:37Z</time>
      </trkpt>
      <trkpt lat="43.34934" lon="2.43367">
        <ele>471.8</ele>
        <time>2023-05-28T07:21:38Z</time>
      </trkpt>
      <trkpt lat="43.34938" lon="2.43367">
        <ele>471.5</ele>
        <time>2023-05-28T07:21:39Z</time>
      </trkpt>
      <trkpt lat="43.34939" lon="2.43367">
        <ele>471.4</ele>
        <time>2023-05-28T07:21:40Z</time>
      </trkpt>
      <trkpt lat="43.34942" lon="2.43367">
        <ele>471.1</ele>
        <time>2023-05-28T07:21:41Z</time>
      </trkpt>
      <trkpt lat="43.34943" lon="2.43366">
        <ele>471</ele>
        <time>2023-05-28T07:21:42Z</time>
      </trkpt>
      <trkpt lat="43.34947" lon="2.43365">
        <ele>470.8</ele>
        <time>2023-05-28T07:21:43Z</time>
      </trkpt>
      <trkpt lat="43.34948" lon="2.43364">
        <ele>470.7</ele>
        <time>2023-05-28T07:21:44Z</time>
      </trkpt>
      <trkpt lat="43.3495" lon="2.43364">
        <ele>470.4</ele>
        <time>2023-05-28T07:21:45Z</time>
      </trkpt>
      <trkpt lat="43.34953" lon="2.43363">
        <ele>470.2</ele>
        <time>2023-05-28T07:21:46Z</time>
      </trkpt>
      <trkpt lat="43.34957" lon="2.43363">
        <ele>469.9</ele>
        <time>2023-05-28T07:21:47Z</time>
      </trkpt>
      <trkpt lat="43.34958" lon="2.43363">
        <ele>469.8</ele>
        <time>2023-05-28T07:21:48Z</time>
      </trkpt>
      <trkpt lat="43.34961" lon="2.43363">
        <ele>469.5</ele>
        <time>2023-05-28T07:21:49Z</time>
      </trkpt>
      <trkpt lat="43.34963" lon="2.43363">
        <ele>469.4</ele>
        <time>2023-05-28T07:21:50Z</time>
      </trkpt>
      <trkpt lat="43.34965" lon="2.43363">
        <ele>469.2</ele>
        <time>2023-05-28T07:21:51Z</time>
      </trkpt>
      <trkpt lat="43.34966" lon="2.43363">
        <ele>469.1</ele>
        <time>2023-05-28T07:21:52Z</time>
      </trkpt>
      <trkpt lat="43.34969" lon="2.43363">
        <ele>468.8</ele>
        <time>2023-05-28T07:21:53Z</time>
      </trkpt>
      <trkpt lat="43.3497" lon="2.43363">
        <ele>468.8</ele>
        <time>2023-05-28T07:21:54Z</time>
      </trkpt>
      <trkpt lat="43.34973" lon="2.43363">
        <ele>468.5</ele>
        <time>2023-05-28T07:21:55Z</time>
      </trkpt>
      <trkpt lat="43.34974" lon="2.43363">
        <ele>468.4</ele>
        <time>2023-05-28T07:21:56Z</time>
      </trkpt>
      <trkpt lat="43.34978" lon="2.43363">
        <ele>468.1</ele>
        <time>2023-05-28T07:21:57Z</time>
      </trkpt>
      <trkpt lat="43.34979" lon="2.43363">
        <ele>467.9</ele>
        <time>2023-05-28T07:21:58Z</time>
      </trkpt>
      <trkpt lat="43.34983" lon="2.43363">
        <ele>467.5</ele>
        <time>2023-05-28T07:21:59Z</time>
      </trkpt>
      <trkpt lat="43.34984" lon="2.43363">
        <ele>467.4</ele>
        <time>2023-05-28T07:22:00Z</time>
      </trkpt>
      <trkpt lat="43.34988" lon="2.43363">
        <ele>467</ele>
        <time>2023-05-28T07:22:01Z</time>
      </trkpt>
      <trkpt lat="43.34989" lon="2.43363">
        <ele>466.9</ele>
        <time>2023-05-28T07:22:02Z</time>
      </trkpt>
      <trkpt lat="43.34993" lon="2.43363">
        <ele>466.5</ele>
        <time>2023-05-28T07:22:03Z</time>
      </trkpt>
      <trkpt lat="43.34995" lon="2.43363">
        <ele>466.3</ele>
        <time>2023-05-28T07:22:04Z</time>
      </trkpt>
      <trkpt lat="43.34999" lon="2.43363">
        <ele>465.9</ele>
        <time>2023-05-28T07:22:06Z</time>
      </trkpt>
      <trkpt lat="43.35001" lon="2.43362">
        <ele>465.6</ele>
        <time>2023-05-28T07:22:07Z</time>
      </trkpt>
      <trkpt lat="43.35002" lon="2.43362">
        <ele>465.5</ele>
        <time>2023-05-28T07:22:08Z</time>
      </trkpt>
      <trkpt lat="43.35004" lon="2.43362">
        <ele>465.3</ele>
        <time>2023-05-28T07:22:09Z</time>
      </trkpt>
      <trkpt lat="43.35006" lon="2.43361">
        <ele>465.1</ele>
        <time>2023-05-28T07:22:10Z</time>
      </trkpt>
      <trkpt lat="43.35009" lon="2.4336">
        <ele>464.8</ele>
        <time>2023-05-28T07:22:11Z</time>
      </trkpt>
      <trkpt lat="43.3501" lon="2.4336">
        <ele>464.7</ele>
        <time>2023-05-28T07:22:12Z</time>
      </trkpt>
      <trkpt lat="43.35014" lon="2.4336">
        <ele>464.3</ele>
        <time>2023-05-28T07:22:13Z</time>
      </trkpt>
      <trkpt lat="43.35015" lon="2.4336">
        <ele>464.2</ele>
        <time>2023-05-28T07:22:14Z</time>
      </trkpt>
      <trkpt lat="43.35018" lon="2.4336">
        <ele>463.9</ele>
        <time>2023-05-28T07:22:15Z</time>
      </trkpt>
      <trkpt lat="43.35022" lon="2.43361">
        <ele>463.5</ele>
        <time>2023-05-28T07:22:16Z</time>
      </trkpt>
      <trkpt lat="43.35023" lon="2.43361">
        <ele>463.4</ele>
        <time>2023-05-28T07:22:17Z</time>
      </trkpt>
      <trkpt lat="43.35027" lon="2.4336">
        <ele>463</ele>
        <time>2023-05-28T07:22:18Z</time>
      </trkpt>
      <trkpt lat="43.3503" lon="2.4336">
        <ele>462.8</ele>
        <time>2023-05-28T07:22:19Z</time>
      </trkpt>
      <trkpt lat="43.35034" lon="2.43359">
        <ele>462.5</ele>
        <time>2023-05-28T07:22:20Z</time>
      </trkpt>
      <trkpt lat="43.35037" lon="2.43358">
        <ele>462.2</ele>
        <time>2023-05-28T07:22:21Z</time>
      </trkpt>
      <trkpt lat="43.3504" lon="2.43357">
        <ele>461.9</ele>
        <time>2023-05-28T07:22:22Z</time>
      </trkpt>
      <trkpt lat="43.35043" lon="2.43357">
        <ele>461.7</ele>
        <time>2023-05-28T07:22:23Z</time>
      </trkpt>
      <trkpt lat="43.35046" lon="2.43356">
        <ele>461.5</ele>
        <time>2023-05-28T07:22:24Z</time>
      </trkpt>
      <trkpt lat="43.3505" lon="2.43355">
        <ele>461.3</ele>
        <time>2023-05-28T07:22:25Z</time>
      </trkpt>
      <trkpt lat="43.35052" lon="2.43354">
        <ele>461.1</ele>
        <time>2023-05-28T07:22:26Z</time>
      </trkpt>
      <trkpt lat="43.35055" lon="2.43354">
        <ele>461</ele>
        <time>2023-05-28T07:22:27Z</time>
      </trkpt>
      <trkpt lat="43.35059" lon="2.43353">
        <ele>460.9</ele>
        <time>2023-05-28T07:22:28Z</time>
      </trkpt>
      <trkpt lat="43.3506" lon="2.43353">
        <ele>460.8</ele>
        <time>2023-05-28T07:22:29Z</time>
      </trkpt>
      <trkpt lat="43.35062" lon="2.43352">
        <ele>460.8</ele>
        <time>2023-05-28T07:22:30Z</time>
      </trkpt>
      <trkpt lat="43.35065" lon="2.43351">
        <ele>460.7</ele>
        <time>2023-05-28T07:22:31Z</time>
      </trkpt>
      <trkpt lat="43.35068" lon="2.43351">
        <ele>460.7</ele>
        <time>2023-05-28T07:22:32Z</time>
      </trkpt>
      <trkpt lat="43.35071" lon="2.43351">
        <ele>460.7</ele>
        <time>2023-05-28T07:22:33Z</time>
      </trkpt>
      <trkpt lat="43.35075" lon="2.43351">
        <ele>460.8</ele>
        <time>2023-05-28T07:22:34Z</time>
      </trkpt>
      <trkpt lat="43.35077" lon="2.43351">
        <ele>460.8</ele>
        <time>2023-05-28T07:22:35Z</time>
      </trkpt>
      <trkpt lat="43.35079" lon="2.4335">
        <ele>460.9</ele>
        <time>2023-05-28T07:22:36Z</time>
      </trkpt>
      <trkpt lat="43.35083" lon="2.4335">
        <ele>461</ele>
        <time>2023-05-28T07:22:37Z</time>
      </trkpt>
      <trkpt lat="43.35084" lon="2.43349">
        <ele>461</ele>
        <time>2023-05-28T07:22:38Z</time>
      </trkpt>
      <trkpt lat="43.35087" lon="2.43348">
        <ele>461.2</ele>
        <time>2023-05-28T07:22:39Z</time>
      </trkpt>
      <trkpt lat="43.35088" lon="2.43348">
        <ele>461.2</ele>
        <time>2023-05-28T07:22:40Z</time>
      </trkpt>
      <trkpt lat="43.35091" lon="2.43347">
        <ele>461.4</ele>
        <time>2023-05-28T07:22:41Z</time>
      </trkpt>
      <trkpt lat="43.35093" lon="2.43347">
        <ele>461.5</ele>
        <time>2023-05-28T07:22:42Z</time>
      </trkpt>
      <trkpt lat="43.35096" lon="2.43346">
        <ele>461.7</ele>
        <time>2023-05-28T07:22:43Z</time>
      </trkpt>
      <trkpt lat="43.35096" lon="2.43346">
        <ele>461.8</ele>
        <time>2023-05-28T07:22:44Z</time>
      </trkpt>
      <trkpt lat="43.35098" lon="2.43345">
        <ele>461.9</ele>
        <time>2023-05-28T07:22:45Z</time>
      </trkpt>
      <trkpt lat="43.35099" lon="2.43344">
        <ele>462</ele>
        <time>2023-05-28T07:22:46Z</time>
      </trkpt>
      <trkpt lat="43.351" lon="2.43344">
        <ele>462.1</ele>
        <time>2023-05-28T07:22:47Z</time>
      </trkpt>
      <trkpt lat="43.35101" lon="2.43343">
        <ele>462.2</ele>
        <time>2023-05-28T07:22:48Z</time>
      </trkpt>
      <trkpt lat="43.35103" lon="2.43343">
        <ele>462.3</ele>
        <time>2023-05-28T07:22:49Z</time>
      </trkpt>
      <trkpt lat="43.35105" lon="2.43343">
        <ele>462.5</ele>
        <time>2023-05-28T07:22:50Z</time>
      </trkpt>
      <trkpt lat="43.35107" lon="2.43343">
        <ele>462.7</ele>
        <time>2023-05-28T07:22:51Z</time>
      </trkpt>
      <trkpt lat="43.35109" lon="2.43343">
        <ele>462.8</ele>
        <time>2023-05-28T07:22:52Z</time>
      </trkpt>
      <trkpt lat="43.3511" lon="2.43343">
        <ele>462.9</ele>
        <time>2023-05-28T07:22:53Z</time>
      </trkpt>
      <trkpt lat="43.35111" lon="2.43343">
        <ele>463</ele>
        <time>2023-05-28T07:22:54Z</time>
      </trkpt>
      <trkpt lat="43.35114" lon="2.43342">
        <ele>463.3</ele>
        <time>2023-05-28T07:22:55Z</time>
      </trkpt>
      <trkpt lat="43.35115" lon="2.43341">
        <ele>463.4</ele>
        <time>2023-05-28T07:22:56Z</time>
      </trkpt>
      <trkpt lat="43.35118" lon="2.4334">
        <ele>463.7</ele>
        <time>2023-05-28T07:22:57Z</time>
      </trkpt>
      <trkpt lat="43.35119" lon="2.43339">
        <ele>463.8</ele>
        <time>2023-05-28T07:22:58Z</time>
      </trkpt>
      <trkpt lat="43.35122" lon="2.43337">
        <ele>464.1</ele>
        <time>2023-05-28T07:22:59Z</time>
      </trkpt>
      <trkpt lat="43.35123" lon="2.43337">
        <ele>464.2</ele>
        <time>2023-05-28T07:23:00Z</time>
      </trkpt>
      <trkpt lat="43.35126" lon="2.43336">
        <ele>464.6</ele>
        <time>2023-05-28T07:23:01Z</time>
      </trkpt>
      <trkpt lat="43.35127" lon="2.43335">
        <ele>464.7</ele>
        <time>2023-05-28T07:23:02Z</time>
      </trkpt>
      <trkpt lat="43.35129" lon="2.43334">
        <ele>464.9</ele>
        <time>2023-05-28T07:23:03Z</time>
      </trkpt>
      <trkpt lat="43.3513" lon="2.43333">
        <ele>465.1</ele>
        <time>2023-05-28T07:23:04Z</time>
      </trkpt>
      <trkpt lat="43.35131" lon="2.43333">
        <ele>465.3</ele>
        <time>2023-05-28T07:23:05Z</time>
      </trkpt>
      <trkpt lat="43.35132" lon="2.43332">
        <ele>465.4</ele>
        <time>2023-05-28T07:23:06Z</time>
      </trkpt>
      <trkpt lat="43.35133" lon="2.43331">
        <ele>465.5</ele>
        <time>2023-05-28T07:23:07Z</time>
      </trkpt>
      <trkpt lat="43.35133" lon="2.43331">
        <ele>465.6</ele>
        <time>2023-05-28T07:23:08Z</time>
      </trkpt>
      <trkpt lat="43.35134" lon="2.43331">
        <ele>465.7</ele>
        <time>2023-05-28T07:23:09Z</time>
      </trkpt>
      <trkpt lat="43.35134" lon="2.4333">
        <ele>465.9</ele>
        <time>2023-05-28T07:23:10Z</time>
      </trkpt>
      <trkpt lat="43.35134" lon="2.43329">
        <ele>466.2</ele>
        <time>2023-05-28T07:23:11Z</time>
      </trkpt>
      <trkpt lat="43.35134" lon="2.43327">
        <ele>466.4</ele>
        <time>2023-05-28T07:23:12Z</time>
      </trkpt>
      <trkpt lat="43.35134" lon="2.43325">
        <ele>466.7</ele>
        <time>2023-05-28T07:23:13Z</time>
      </trkpt>
      <trkpt lat="43.35133" lon="2.43324">
        <ele>466.9</ele>
        <time>2023-05-28T07:23:14Z</time>
      </trkpt>
      <trkpt lat="43.35133" lon="2.43323">
        <ele>467.1</ele>
        <time>2023-05-28T07:23:15Z</time>
      </trkpt>
      <trkpt lat="43.35132" lon="2.43322">
        <ele>467.4</ele>
        <time>2023-05-28T07:23:16Z</time>
      </trkpt>
      <trkpt lat="43.3513" lon="2.43321">
        <ele>467.7</ele>
        <time>2023-05-28T07:23:17Z</time>
      </trkpt>
      <trkpt lat="43.3513" lon="2.4332">
        <ele>467.9</ele>
        <time>2023-05-28T07:23:18Z</time>
      </trkpt>
      <trkpt lat="43.35129" lon="2.43319">
        <ele>468.2</ele>
        <time>2023-05-28T07:23:19Z</time>
      </trkpt>
      <trkpt lat="43.35128" lon="2.43319">
        <ele>468.3</ele>
        <time>2023-05-28T07:23:20Z</time>
      </trkpt>
      <trkpt lat="43.35128" lon="2.43318">
        <ele>468.4</ele>
        <time>2023-05-28T07:23:21Z</time>
      </trkpt>
      <trkpt lat="43.35127" lon="2.43318">
        <ele>468.6</ele>
        <time>2023-05-28T07:23:22Z</time>
      </trkpt>
      <trkpt lat="43.35127" lon="2.43318">
        <ele>468.7</ele>
        <time>2023-05-28T07:23:23Z</time>
      </trkpt>
      <trkpt lat="43.35126" lon="2.43318">
        <ele>468.9</ele>
        <time>2023-05-28T07:23:24Z</time>
      </trkpt>
      <trkpt lat="43.35125" lon="2.43317">
        <ele>469.1</ele>
        <time>2023-05-28T07:23:25Z</time>
      </trkpt>
      <trkpt lat="43.35125" lon="2.43317">
        <ele>469.2</ele>
        <time>2023-05-28T07:23:26Z</time>
      </trkpt>
      <trkpt lat="43.35124" lon="2.43317">
        <ele>469.3</ele>
        <time>2023-05-28T07:23:27Z</time>
      </trkpt>
      <trkpt lat="43.35124" lon="2.43316">
        <ele>469.4</ele>
        <time>2023-05-28T07:23:28Z</time>
      </trkpt>
      <trkpt lat="43.35124" lon="2.43315">
        <ele>469.6</ele>
        <time>2023-05-28T07:23:29Z</time>
      </trkpt>
      <trkpt lat="43.35124" lon="2.43314">
        <ele>469.8</ele>
        <time>2023-05-28T07:23:30Z</time>
      </trkpt>
      <trkpt lat="43.35123" lon="2.43313">
        <ele>470.1</ele>
        <time>2023-05-28T07:23:31Z</time>
      </trkpt>
      <trkpt lat="43.35121" lon="2.43312">
        <ele>470.4</ele>
        <time>2023-05-28T07:23:32Z</time>
      </trkpt>
      <trkpt lat="43.35121" lon="2.43312">
        <ele>470.5</ele>
        <time>2023-05-28T07:23:33Z</time>
      </trkpt>
      <trkpt lat="43.35121" lon="2.43312">
        <ele>470.5</ele>
        <time>2023-05-28T07:23:34Z</time>
      </trkpt>
      <trkpt lat="43.35121" lon="2.43311">
        <ele>470.6</ele>
        <time>2023-05-28T07:23:35Z</time>
      </trkpt>
      <trkpt lat="43.3512" lon="2.4331">
        <ele>470.8</ele>
        <time>2023-05-28T07:23:36Z</time>
      </trkpt>
      <trkpt lat="43.3512" lon="2.43309">
        <ele>471</ele>
        <time>2023-05-28T07:23:37Z</time>
      </trkpt>
      <trkpt lat="43.35119" lon="2.43309">
        <ele>471.1</ele>
        <time>2023-05-28T07:23:38Z</time>
      </trkpt>
      <trkpt lat="43.35119" lon="2.43308">
        <ele>471.3</ele>
        <time>2023-05-28T07:23:39Z</time>
      </trkpt>
      <trkpt lat="43.35118" lon="2.43307">
        <ele>471.6</ele>
        <time>2023-05-28T07:23:40Z</time>
      </trkpt>
      <trkpt lat="43.35117" lon="2.43306">
        <ele>471.8</ele>
        <time>2023-05-28T07:23:41Z</time>
      </trkpt>
      <trkpt lat="43.35115" lon="2.43304">
        <ele>472.1</ele>
        <time>2023-05-28T07:23:42Z</time>
      </trkpt>
      <trkpt lat="43.35114" lon="2.43303">
        <ele>472.3</ele>
        <time>2023-05-28T07:23:43Z</time>
      </trkpt>
      <trkpt lat="43.35113" lon="2.43303">
        <ele>472.5</ele>
        <time>2023-05-28T07:23:44Z</time>
      </trkpt>
      <trkpt lat="43.3511" lon="2.43301">
        <ele>473</ele>
        <time>2023-05-28T07:23:45Z</time>
      </trkpt>
      <trkpt lat="43.35109" lon="2.43301">
        <ele>473.2</ele>
        <time>2023-05-28T07:23:46Z</time>
      </trkpt>
      <trkpt lat="43.35107" lon="2.43301">
        <ele>473.4</ele>
        <time>2023-05-28T07:23:47Z</time>
      </trkpt>
      <trkpt lat="43.35105" lon="2.43302">
        <ele>473.6</ele>
        <time>2023-05-28T07:23:48Z</time>
      </trkpt>
      <trkpt lat="43.35103" lon="2.43302">
        <ele>473.7</ele>
        <time>2023-05-28T07:23:49Z</time>
      </trkpt>
      <trkpt lat="43.35102" lon="2.43302">
        <ele>473.8</ele>
        <time>2023-05-28T07:23:50Z</time>
      </trkpt>
      <trkpt lat="43.35102" lon="2.43302">
        <ele>473.9</ele>
        <time>2023-05-28T07:23:51Z</time>
      </trkpt>
      <trkpt lat="43.35101" lon="2.43301">
        <ele>474</ele>
        <time>2023-05-28T07:23:52Z</time>
      </trkpt>
      <trkpt lat="43.351" lon="2.433">
        <ele>474.1</ele>
        <time>2023-05-28T07:23:53Z</time>
      </trkpt>
      <trkpt lat="43.35099" lon="2.43298">
        <ele>474.2</ele>
        <time>2023-05-28T07:23:54Z</time>
      </trkpt>
      <trkpt lat="43.35098" lon="2.43297">
        <ele>474.2</ele>
        <time>2023-05-28T07:23:55Z</time>
      </trkpt>
      <trkpt lat="43.35098" lon="2.43297">
        <ele>474.3</ele>
        <time>2023-05-28T07:23:56Z</time>
      </trkpt>
      <trkpt lat="43.35097" lon="2.43296">
        <ele>474.3</ele>
        <time>2023-05-28T07:23:57Z</time>
      </trkpt>
      <trkpt lat="43.35096" lon="2.43295">
        <ele>474.4</ele>
        <time>2023-05-28T07:23:58Z</time>
      </trkpt>
      <trkpt lat="43.35095" lon="2.43295">
        <ele>474.5</ele>
        <time>2023-05-28T07:23:59Z</time>
      </trkpt>
      <trkpt lat="43.35094" lon="2.43294">
        <ele>474.6</ele>
        <time>2023-05-28T07:24:00Z</time>
      </trkpt>
      <trkpt lat="43.35091" lon="2.43294">
        <ele>474.7</ele>
        <time>2023-05-28T07:24:01Z</time>
      </trkpt>
      <trkpt lat="43.3509" lon="2.43294">
        <ele>474.8</ele>
        <time>2023-05-28T07:24:02Z</time>
      </trkpt>
      <trkpt lat="43.35088" lon="2.43294">
        <ele>474.9</ele>
        <time>2023-05-28T07:24:03Z</time>
      </trkpt>
      <trkpt lat="43.35086" lon="2.43294">
        <ele>475</ele>
        <time>2023-05-28T07:24:04Z</time>
      </trkpt>
      <trkpt lat="43.35085" lon="2.43293">
        <ele>475.2</ele>
        <time>2023-05-28T07:24:05Z</time>
      </trkpt>
      <trkpt lat="43.35084" lon="2.43292">
        <ele>475.2</ele>
        <time>2023-05-28T07:24:06Z</time>
      </trkpt>
      <trkpt lat="43.35083" lon="2.43291">
        <ele>475.3</ele>
        <time>2023-05-28T07:24:07Z</time>
      </trkpt>
      <trkpt lat="43.35082" lon="2.4329">
        <ele>475.4</ele>
        <time>2023-05-28T07:24:08Z</time>
      </trkpt>
      <trkpt lat="43.35081" lon="2.43289">
        <ele>475.5</ele>
        <time>2023-05-28T07:24:09Z</time>
      </trkpt>
      <trkpt lat="43.35078" lon="2.43289">
        <ele>475.7</ele>
        <time>2023-05-28T07:24:10Z</time>
      </trkpt>
      <trkpt lat="43.35077" lon="2.43289">
        <ele>475.7</ele>
        <time>2023-05-28T07:24:11Z</time>
      </trkpt>
      <trkpt lat="43.35076" lon="2.43289">
        <ele>475.8</ele>
        <time>2023-05-28T07:24:12Z</time>
      </trkpt>
      <trkpt lat="43.35074" lon="2.4329">
        <ele>476</ele>
        <time>2023-05-28T07:24:13Z</time>
      </trkpt>
      <trkpt lat="43.35073" lon="2.43289">
        <ele>476.1</ele>
        <time>2023-05-28T07:24:14Z</time>
      </trkpt>
      <trkpt lat="43.3507" lon="2.4329">
        <ele>476.3</ele>
        <time>2023-05-28T07:24:15Z</time>
      </trkpt>
      <trkpt lat="43.35068" lon="2.4329">
        <ele>476.4</ele>
        <time>2023-05-28T07:24:17Z</time>
      </trkpt>
      <trkpt lat="43.35067" lon="2.4329">
        <ele>476.5</ele>
        <time>2023-05-28T07:24:18Z</time>
      </trkpt>
      <trkpt lat="43.35065" lon="2.4329">
        <ele>476.6</ele>
        <time>2023-05-28T07:24:19Z</time>
      </trkpt>
      <trkpt lat="43.35062" lon="2.4329">
        <ele>476.8</ele>
        <time>2023-05-28T07:24:20Z</time>
      </trkpt>
      <trkpt lat="43.35061" lon="2.43289">
        <ele>476.9</ele>
        <time>2023-05-28T07:24:21Z</time>
      </trkpt>
      <trkpt lat="43.3506" lon="2.43289">
        <ele>477.1</ele>
        <time>2023-05-28T07:24:22Z</time>
      </trkpt>
      <trkpt lat="43.35058" lon="2.43288">
        <ele>477.2</ele>
        <time>2023-05-28T07:24:23Z</time>
      </trkpt>
      <trkpt lat="43.35055" lon="2.43287">
        <ele>477.4</ele>
        <time>2023-05-28T07:24:24Z</time>
      </trkpt>
      <trkpt lat="43.35055" lon="2.43287">
        <ele>477.4</ele>
        <time>2023-05-28T07:24:25Z</time>
      </trkpt>
      <trkpt lat="43.35052" lon="2.43286">
        <ele>477.7</ele>
        <time>2023-05-28T07:24:26Z</time>
      </trkpt>
      <trkpt lat="43.35051" lon="2.43286">
        <ele>477.7</ele>
        <time>2023-05-28T07:24:27Z</time>
      </trkpt>
      <trkpt lat="43.35048" lon="2.43285">
        <ele>478</ele>
        <time>2023-05-28T07:24:28Z</time>
      </trkpt>
      <trkpt lat="43.35047" lon="2.43285">
        <ele>478</ele>
        <time>2023-05-28T07:24:29Z</time>
      </trkpt>
      <trkpt lat="43.35045" lon="2.43284">
        <ele>478.2</ele>
        <time>2023-05-28T07:24:30Z</time>
      </trkpt>
      <trkpt lat="43.35044" lon="2.43283">
        <ele>478.3</ele>
        <time>2023-05-28T07:24:31Z</time>
      </trkpt>
      <trkpt lat="43.35044" lon="2.43282">
        <ele>478.3</ele>
        <time>2023-05-28T07:24:32Z</time>
      </trkpt>
      <trkpt lat="43.35043" lon="2.43282">
        <ele>478.4</ele>
        <time>2023-05-28T07:24:33Z</time>
      </trkpt>
      <trkpt lat="43.35042" lon="2.43281">
        <ele>478.5</ele>
        <time>2023-05-28T07:24:34Z</time>
      </trkpt>
      <trkpt lat="43.3504" lon="2.4328">
        <ele>478.6</ele>
        <time>2023-05-28T07:24:35Z</time>
      </trkpt>
      <trkpt lat="43.35039" lon="2.4328">
        <ele>478.7</ele>
        <time>2023-05-28T07:24:36Z</time>
      </trkpt>
      <trkpt lat="43.35038" lon="2.43279">
        <ele>478.8</ele>
        <time>2023-05-28T07:24:37Z</time>
      </trkpt>
      <trkpt lat="43.35037" lon="2.43278">
        <ele>478.9</ele>
        <time>2023-05-28T07:24:38Z</time>
      </trkpt>
      <trkpt lat="43.35036" lon="2.43277">
        <ele>479.1</ele>
        <time>2023-05-28T07:24:39Z</time>
      </trkpt>
      <trkpt lat="43.35034" lon="2.43277">
        <ele>479.3</ele>
        <time>2023-05-28T07:24:40Z</time>
      </trkpt>
      <trkpt lat="43.35033" lon="2.43276">
        <ele>479.4</ele>
        <time>2023-05-28T07:24:41Z</time>
      </trkpt>
      <trkpt lat="43.35031" lon="2.43275">
        <ele>479.6</ele>
        <time>2023-05-28T07:24:42Z</time>
      </trkpt>
      <trkpt lat="43.3503" lon="2.43274">
        <ele>479.7</ele>
        <time>2023-05-28T07:24:43Z</time>
      </trkpt>
      <trkpt lat="43.35029" lon="2.43273">
        <ele>479.9</ele>
        <time>2023-05-28T07:24:44Z</time>
      </trkpt>
      <trkpt lat="43.35027" lon="2.43272">
        <ele>480.2</ele>
        <time>2023-05-28T07:24:45Z</time>
      </trkpt>
      <trkpt lat="43.35026" lon="2.43271">
        <ele>480.3</ele>
        <time>2023-05-28T07:24:46Z</time>
      </trkpt>
      <trkpt lat="43.35025" lon="2.43271">
        <ele>480.4</ele>
        <time>2023-05-28T07:24:47Z</time>
      </trkpt>
      <trkpt lat="43.35024" lon="2.4327">
        <ele>480.6</ele>
        <time>2023-05-28T07:24:48Z</time>
      </trkpt>
      <trkpt lat="43.35023" lon="2.43269">
        <ele>480.7</ele>
        <time>2023-05-28T07:24:49Z</time>
      </trkpt>
      <trkpt lat="43.35023" lon="2.43268">
        <ele>480.9</ele>
        <time>2023-05-28T07:24:50Z</time>
      </trkpt>
      <trkpt lat="43.35022" lon="2.43267">
        <ele>481</ele>
        <time>2023-05-28T07:24:51Z</time>
      </trkpt>
      <trkpt lat="43.35021" lon="2.43266">
        <ele>481.1</ele>
        <time>2023-05-28T07:24:52Z</time>
      </trkpt>
      <trkpt lat="43.35021" lon="2.43265">
        <ele>481.3</ele>
        <time>2023-05-28T07:24:53Z</time>
      </trkpt>
      <trkpt lat="43.3502" lon="2.43264">
        <ele>481.4</ele>
        <time>2023-05-28T07:24:54Z</time>
      </trkpt>
      <trkpt lat="43.3502" lon="2.43263">
        <ele>481.5</ele>
        <time>2023-05-28T07:24:55Z</time>
      </trkpt>
      <trkpt lat="43.35019" lon="2.43263">
        <ele>481.6</ele>
        <time>2023-05-28T07:24:56Z</time>
      </trkpt>
      <trkpt lat="43.35019" lon="2.43263">
        <ele>481.7</ele>
        <time>2023-05-28T07:24:57Z</time>
      </trkpt>
      <trkpt lat="43.35018" lon="2.43262">
        <ele>481.8</ele>
        <time>2023-05-28T07:24:58Z</time>
      </trkpt>
      <trkpt lat="43.35017" lon="2.43261">
        <ele>482</ele>
        <time>2023-05-28T07:24:59Z</time>
      </trkpt>
      <trkpt lat="43.35017" lon="2.4326">
        <ele>482.2</ele>
        <time>2023-05-28T07:25:00Z</time>
      </trkpt>
      <trkpt lat="43.35016" lon="2.4326">
        <ele>482.3</ele>
        <time>2023-05-28T07:25:01Z</time>
      </trkpt>
      <trkpt lat="43.35016" lon="2.43259">
        <ele>482.3</ele>
        <time>2023-05-28T07:25:02Z</time>
      </trkpt>
      <trkpt lat="43.35016" lon="2.43259">
        <ele>482.4</ele>
        <time>2023-05-28T07:25:03Z</time>
      </trkpt>
      <trkpt lat="43.35015" lon="2.43258">
        <ele>482.6</ele>
        <time>2023-05-28T07:25:04Z</time>
      </trkpt>
      <trkpt lat="43.35015" lon="2.43257">
        <ele>482.7</ele>
        <time>2023-05-28T07:25:05Z</time>
      </trkpt>
      <trkpt lat="43.35014" lon="2.43256">
        <ele>482.9</ele>
        <time>2023-05-28T07:25:06Z</time>
      </trkpt>
      <trkpt lat="43.35013" lon="2.43255">
        <ele>483</ele>
        <time>2023-05-28T07:25:07Z</time>
      </trkpt>
      <trkpt lat="43.35013" lon="2.43255">
        <ele>483.1</ele>
        <time>2023-05-28T07:25:08Z</time>
      </trkpt>
      <trkpt lat="43.35013" lon="2.43254">
        <ele>483.3</ele>
        <time>2023-05-28T07:25:09Z</time>
      </trkpt>
      <trkpt lat="43.35012" lon="2.43253">
        <ele>483.4</ele>
        <time>2023-05-28T07:25:10Z</time>
      </trkpt>
      <trkpt lat="43.35011" lon="2.43252">
        <ele>483.6</ele>
        <time>2023-05-28T07:25:11Z</time>
      </trkpt>
      <trkpt lat="43.35011" lon="2.43251">
        <ele>483.8</ele>
        <time>2023-05-28T07:25:12Z</time>
      </trkpt>
      <trkpt lat="43.3501" lon="2.4325">
        <ele>484</ele>
        <time>2023-05-28T07:25:13Z</time>
      </trkpt>
      <trkpt lat="43.35009" lon="2.43249">
        <ele>484.3</ele>
        <time>2023-05-28T07:25:14Z</time>
      </trkpt>
      <trkpt lat="43.35008" lon="2.43247">
        <ele>484.6</ele>
        <time>2023-05-28T07:25:15Z</time>
      </trkpt>
      <trkpt lat="43.35007" lon="2.43246">
        <ele>484.9</ele>
        <time>2023-05-28T07:25:16Z</time>
      </trkpt>
      <trkpt lat="43.35006" lon="2.43244">
        <ele>485.3</ele>
        <time>2023-05-28T07:25:17Z</time>
      </trkpt>
      <trkpt lat="43.35004" lon="2.43243">
        <ele>485.6</ele>
        <time>2023-05-28T07:25:18Z</time>
      </trkpt>
      <trkpt lat="43.35003" lon="2.43242">
        <ele>485.9</ele>
        <time>2023-05-28T07:25:19Z</time>
      </trkpt>
      <trkpt lat="43.35002" lon="2.43241">
        <ele>486.2</ele>
        <time>2023-05-28T07:25:20Z</time>
      </trkpt>
      <trkpt lat="43.35001" lon="2.4324">
        <ele>486.4</ele>
        <time>2023-05-28T07:25:21Z</time>
      </trkpt>
      <trkpt lat="43.35" lon="2.43238">
        <ele>486.7</ele>
        <time>2023-05-28T07:25:22Z</time>
      </trkpt>
      <trkpt lat="43.34999" lon="2.43236">
        <ele>487</ele>
        <time>2023-05-28T07:25:23Z</time>
      </trkpt>
      <trkpt lat="43.34998" lon="2.43235">
        <ele>487.2</ele>
        <time>2023-05-28T07:25:24Z</time>
      </trkpt>
      <trkpt lat="43.34996" lon="2.43233">
        <ele>487.6</ele>
        <time>2023-05-28T07:25:25Z</time>
      </trkpt>
      <trkpt lat="43.34996" lon="2.43232">
        <ele>487.7</ele>
        <time>2023-05-28T07:25:26Z</time>
      </trkpt>
      <trkpt lat="43.34995" lon="2.43231">
        <ele>487.8</ele>
        <time>2023-05-28T07:25:27Z</time>
      </trkpt>
      <trkpt lat="43.34994" lon="2.4323">
        <ele>488.1</ele>
        <time>2023-05-28T07:25:28Z</time>
      </trkpt>
      <trkpt lat="43.34994" lon="2.43228">
        <ele>488.3</ele>
        <time>2023-05-28T07:25:29Z</time>
      </trkpt>
      <trkpt lat="43.34993" lon="2.43226">
        <ele>488.5</ele>
        <time>2023-05-28T07:25:30Z</time>
      </trkpt>
      <trkpt lat="43.34992" lon="2.43225">
        <ele>488.7</ele>
        <time>2023-05-28T07:25:31Z</time>
      </trkpt>
      <trkpt lat="43.34992" lon="2.43223">
        <ele>488.9</ele>
        <time>2023-05-28T07:25:32Z</time>
      </trkpt>
      <trkpt lat="43.34991" lon="2.43222">
        <ele>489.1</ele>
        <time>2023-05-28T07:25:33Z</time>
      </trkpt>
      <trkpt lat="43.3499" lon="2.4322">
        <ele>489.2</ele>
        <time>2023-05-28T07:25:34Z</time>
      </trkpt>
      <trkpt lat="43.34989" lon="2.43218">
        <ele>489.5</ele>
        <time>2023-05-28T07:25:35Z</time>
      </trkpt>
      <trkpt lat="43.34988" lon="2.43217">
        <ele>489.7</ele>
        <time>2023-05-28T07:25:36Z</time>
      </trkpt>
      <trkpt lat="43.34987" lon="2.43215">
        <ele>489.8</ele>
        <time>2023-05-28T07:25:37Z</time>
      </trkpt>
      <trkpt lat="43.34986" lon="2.43214">
        <ele>490</ele>
        <time>2023-05-28T07:25:38Z</time>
      </trkpt>
      <trkpt lat="43.34986" lon="2.43213">
        <ele>490.1</ele>
        <time>2023-05-28T07:25:39Z</time>
      </trkpt>
      <trkpt lat="43.34985" lon="2.43211">
        <ele>490.3</ele>
        <time>2023-05-28T07:25:40Z</time>
      </trkpt>
      <trkpt lat="43.34984" lon="2.4321">
        <ele>490.4</ele>
        <time>2023-05-28T07:25:41Z</time>
      </trkpt>
      <trkpt lat="43.34983" lon="2.43208">
        <ele>490.6</ele>
        <time>2023-05-28T07:25:42Z</time>
      </trkpt>
      <trkpt lat="43.34982" lon="2.43207">
        <ele>490.8</ele>
        <time>2023-05-28T07:25:43Z</time>
      </trkpt>
      <trkpt lat="43.34981" lon="2.43205">
        <ele>491</ele>
        <time>2023-05-28T07:25:44Z</time>
      </trkpt>
      <trkpt lat="43.3498" lon="2.43204">
        <ele>491.2</ele>
        <time>2023-05-28T07:25:45Z</time>
      </trkpt>
      <trkpt lat="43.34979" lon="2.43203">
        <ele>491.3</ele>
        <time>2023-05-28T07:25:46Z</time>
      </trkpt>
      <trkpt lat="43.34977" lon="2.43201">
        <ele>491.5</ele>
        <time>2023-05-28T07:25:47Z</time>
      </trkpt>
      <trkpt lat="43.34976" lon="2.432">
        <ele>491.6</ele>
        <time>2023-05-28T07:25:48Z</time>
      </trkpt>
      <trkpt lat="43.34975" lon="2.43198">
        <ele>491.8</ele>
        <time>2023-05-28T07:25:49Z</time>
      </trkpt>
      <trkpt lat="43.34974" lon="2.43197">
        <ele>491.9</ele>
        <time>2023-05-28T07:25:50Z</time>
      </trkpt>
      <trkpt lat="43.34973" lon="2.43196">
        <ele>492.1</ele>
        <time>2023-05-28T07:25:51Z</time>
      </trkpt>
      <trkpt lat="43.34972" lon="2.43194">
        <ele>492.3</ele>
        <time>2023-05-28T07:25:52Z</time>
      </trkpt>
      <trkpt lat="43.3497" lon="2.43192">
        <ele>492.5</ele>
        <time>2023-05-28T07:25:53Z</time>
      </trkpt>
      <trkpt lat="43.3497" lon="2.43191">
        <ele>492.6</ele>
        <time>2023-05-28T07:25:54Z</time>
      </trkpt>
      <trkpt lat="43.34969" lon="2.4319">
        <ele>492.7</ele>
        <time>2023-05-28T07:25:55Z</time>
      </trkpt>
      <trkpt lat="43.34968" lon="2.43188">
        <ele>493</ele>
        <time>2023-05-28T07:25:56Z</time>
      </trkpt>
      <trkpt lat="43.34967" lon="2.43187">
        <ele>493.1</ele>
        <time>2023-05-28T07:25:57Z</time>
      </trkpt>
      <trkpt lat="43.34966" lon="2.43187">
        <ele>493.2</ele>
        <time>2023-05-28T07:25:58Z</time>
      </trkpt>
      <trkpt lat="43.34964" lon="2.43184">
        <ele>493.6</ele>
        <time>2023-05-28T07:25:59Z</time>
      </trkpt>
      <trkpt lat="43.34964" lon="2.43183">
        <ele>493.7</ele>
        <time>2023-05-28T07:26:00Z</time>
      </trkpt>
      <trkpt lat="43.34963" lon="2.43181">
        <ele>494</ele>
        <time>2023-05-28T07:26:01Z</time>
      </trkpt>
      <trkpt lat="43.34961" lon="2.4318">
        <ele>494.3</ele>
        <time>2023-05-28T07:26:02Z</time>
      </trkpt>
      <trkpt lat="43.3496" lon="2.43178">
        <ele>494.5</ele>
        <time>2023-05-28T07:26:03Z</time>
      </trkpt>
      <trkpt lat="43.34959" lon="2.43176">
        <ele>494.8</ele>
        <time>2023-05-28T07:26:04Z</time>
      </trkpt>
      <trkpt lat="43.34958" lon="2.43175">
        <ele>495.1</ele>
        <time>2023-05-28T07:26:05Z</time>
      </trkpt>
      <trkpt lat="43.34957" lon="2.43173">
        <ele>495.3</ele>
        <time>2023-05-28T07:26:06Z</time>
      </trkpt>
      <trkpt lat="43.34957" lon="2.43172">
        <ele>495.6</ele>
        <time>2023-05-28T07:26:07Z</time>
      </trkpt>
      <trkpt lat="43.34956" lon="2.43171">
        <ele>495.7</ele>
        <time>2023-05-28T07:26:08Z</time>
      </trkpt>
      <trkpt lat="43.34955" lon="2.4317">
        <ele>495.9</ele>
        <time>2023-05-28T07:26:09Z</time>
      </trkpt>
      <trkpt lat="43.34955" lon="2.43169">
        <ele>496.1</ele>
        <time>2023-05-28T07:26:10Z</time>
      </trkpt>
      <trkpt lat="43.34955" lon="2.43168">
        <ele>496.3</ele>
        <time>2023-05-28T07:26:11Z</time>
      </trkpt>
      <trkpt lat="43.34954" lon="2.43167">
        <ele>496.5</ele>
        <time>2023-05-28T07:26:12Z</time>
      </trkpt>
      <trkpt lat="43.34952" lon="2.43165">
        <ele>497</ele>
        <time>2023-05-28T07:26:13Z</time>
      </trkpt>
      <trkpt lat="43.34952" lon="2.43164">
        <ele>497.2</ele>
        <time>2023-05-28T07:26:14Z</time>
      </trkpt>
      <trkpt lat="43.34951" lon="2.43163">
        <ele>497.4</ele>
        <time>2023-05-28T07:26:15Z</time>
      </trkpt>
      <trkpt lat="43.3495" lon="2.43162">
        <ele>497.7</ele>
        <time>2023-05-28T07:26:16Z</time>
      </trkpt>
      <trkpt lat="43.34948" lon="2.4316">
        <ele>498.1</ele>
        <time>2023-05-28T07:26:17Z</time>
      </trkpt>
      <trkpt lat="43.34946" lon="2.43158">
        <ele>498.8</ele>
        <time>2023-05-28T07:26:18Z</time>
      </trkpt>
      <trkpt lat="43.34945" lon="2.43157">
        <ele>499</ele>
        <time>2023-05-28T07:26:19Z</time>
      </trkpt>
      <trkpt lat="43.34944" lon="2.43156">
        <ele>499.2</ele>
        <time>2023-05-28T07:26:20Z</time>
      </trkpt>
      <trkpt lat="43.34942" lon="2.43155">
        <ele>499.5</ele>
        <time>2023-05-28T07:26:21Z</time>
      </trkpt>
      <trkpt lat="43.34941" lon="2.43153">
        <ele>499.7</ele>
        <time>2023-05-28T07:26:22Z</time>
      </trkpt>
      <trkpt lat="43.3494" lon="2.43152">
        <ele>499.9</ele>
        <time>2023-05-28T07:26:23Z</time>
      </trkpt>
      <trkpt lat="43.34939" lon="2.4315">
        <ele>500.1</ele>
        <time>2023-05-28T07:26:24Z</time>
      </trkpt>
      <trkpt lat="43.34938" lon="2.43149">
        <ele>500.3</ele>
        <time>2023-05-28T07:26:25Z</time>
      </trkpt>
      <trkpt lat="43.34936" lon="2.43147">
        <ele>500.6</ele>
        <time>2023-05-28T07:26:26Z</time>
      </trkpt>
      <trkpt lat="43.34936" lon="2.43146">
        <ele>500.6</ele>
        <time>2023-05-28T07:26:27Z</time>
      </trkpt>
      <trkpt lat="43.34935" lon="2.43145">
        <ele>500.7</ele>
        <time>2023-05-28T07:26:28Z</time>
      </trkpt>
      <trkpt lat="43.34934" lon="2.43143">
        <ele>501</ele>
        <time>2023-05-28T07:26:29Z</time>
      </trkpt>
      <trkpt lat="43.34934" lon="2.43142">
        <ele>501.1</ele>
        <time>2023-05-28T07:26:30Z</time>
      </trkpt>
      <trkpt lat="43.34934" lon="2.43141">
        <ele>501.2</ele>
        <time>2023-05-28T07:26:31Z</time>
      </trkpt>
      <trkpt lat="43.34933" lon="2.43139">
        <ele>501.3</ele>
        <time>2023-05-28T07:26:32Z</time>
      </trkpt>
      <trkpt lat="43.34933" lon="2.43138">
        <ele>501.5</ele>
        <time>2023-05-28T07:26:33Z</time>
      </trkpt>
      <trkpt lat="43.34933" lon="2.43136">
        <ele>501.6</ele>
        <time>2023-05-28T07:26:34Z</time>
      </trkpt>
      <trkpt lat="43.34932" lon="2.43135">
        <ele>501.7</ele>
        <time>2023-05-28T07:26:35Z</time>
      </trkpt>
      <trkpt lat="43.34932" lon="2.43134">
        <ele>501.8</ele>
        <time>2023-05-28T07:26:36Z</time>
      </trkpt>
      <trkpt lat="43.34932" lon="2.43132">
        <ele>501.9</ele>
        <time>2023-05-28T07:26:37Z</time>
      </trkpt>
      <trkpt lat="43.34931" lon="2.43131">
        <ele>502.1</ele>
        <time>2023-05-28T07:26:38Z</time>
      </trkpt>
      <trkpt lat="43.34931" lon="2.43129">
        <ele>502.2</ele>
        <time>2023-05-28T07:26:39Z</time>
      </trkpt>
      <trkpt lat="43.34931" lon="2.43128">
        <ele>502.4</ele>
        <time>2023-05-28T07:26:40Z</time>
      </trkpt>
      <trkpt lat="43.3493" lon="2.43126">
        <ele>502.6</ele>
        <time>2023-05-28T07:26:41Z</time>
      </trkpt>
      <trkpt lat="43.3493" lon="2.43124">
        <ele>502.7</ele>
        <time>2023-05-28T07:26:42Z</time>
      </trkpt>
      <trkpt lat="43.3493" lon="2.43122">
        <ele>502.9</ele>
        <time>2023-05-28T07:26:43Z</time>
      </trkpt>
      <trkpt lat="43.34929" lon="2.4312">
        <ele>503.1</ele>
        <time>2023-05-28T07:26:44Z</time>
      </trkpt>
      <trkpt lat="43.34929" lon="2.43118">
        <ele>503.3</ele>
        <time>2023-05-28T07:26:45Z</time>
      </trkpt>
      <trkpt lat="43.34929" lon="2.43116">
        <ele>503.5</ele>
        <time>2023-05-28T07:26:46Z</time>
      </trkpt>
      <trkpt lat="43.34929" lon="2.43114">
        <ele>503.7</ele>
        <time>2023-05-28T07:26:47Z</time>
      </trkpt>
      <trkpt lat="43.34928" lon="2.43112">
        <ele>503.9</ele>
        <time>2023-05-28T07:26:48Z</time>
      </trkpt>
      <trkpt lat="43.34928" lon="2.4311">
        <ele>504.1</ele>
        <time>2023-05-28T07:26:49Z</time>
      </trkpt>
      <trkpt lat="43.34928" lon="2.43108">
        <ele>504.3</ele>
        <time>2023-05-28T07:26:50Z</time>
      </trkpt>
      <trkpt lat="43.34927" lon="2.43106">
        <ele>504.5</ele>
        <time>2023-05-28T07:26:51Z</time>
      </trkpt>
      <trkpt lat="43.34926" lon="2.43104">
        <ele>504.7</ele>
        <time>2023-05-28T07:26:52Z</time>
      </trkpt>
      <trkpt lat="43.34926" lon="2.43102">
        <ele>504.9</ele>
        <time>2023-05-28T07:26:53Z</time>
      </trkpt>
      <trkpt lat="43.34925" lon="2.431">
        <ele>505.1</ele>
        <time>2023-05-28T07:26:54Z</time>
      </trkpt>
      <trkpt lat="43.34925" lon="2.43098">
        <ele>505.3</ele>
        <time>2023-05-28T07:26:55Z</time>
      </trkpt>
      <trkpt lat="43.34924" lon="2.43096">
        <ele>505.5</ele>
        <time>2023-05-28T07:26:56Z</time>
      </trkpt>
      <trkpt lat="43.34923" lon="2.43093">
        <ele>505.7</ele>
        <time>2023-05-28T07:26:57Z</time>
      </trkpt>
      <trkpt lat="43.34923" lon="2.43092">
        <ele>505.8</ele>
        <time>2023-05-28T07:26:58Z</time>
      </trkpt>
      <trkpt lat="43.34922" lon="2.43091">
        <ele>505.9</ele>
        <time>2023-05-28T07:26:59Z</time>
      </trkpt>
      <trkpt lat="43.34921" lon="2.43088">
        <ele>506.1</ele>
        <time>2023-05-28T07:27:00Z</time>
      </trkpt>
      <trkpt lat="43.34921" lon="2.43087">
        <ele>506.2</ele>
        <time>2023-05-28T07:27:01Z</time>
      </trkpt>
      <trkpt lat="43.34921" lon="2.43086">
        <ele>506.3</ele>
        <time>2023-05-28T07:27:02Z</time>
      </trkpt>
      <trkpt lat="43.3492" lon="2.43084">
        <ele>506.4</ele>
        <time>2023-05-28T07:27:03Z</time>
      </trkpt>
      <trkpt lat="43.34919" lon="2.43082">
        <ele>506.5</ele>
        <time>2023-05-28T07:27:04Z</time>
      </trkpt>
      <trkpt lat="43.34918" lon="2.4308">
        <ele>506.6</ele>
        <time>2023-05-28T07:27:05Z</time>
      </trkpt>
      <trkpt lat="43.34917" lon="2.43078">
        <ele>506.7</ele>
        <time>2023-05-28T07:27:06Z</time>
      </trkpt>
      <trkpt lat="43.34916" lon="2.43074">
        <ele>506.9</ele>
        <time>2023-05-28T07:27:07Z</time>
      </trkpt>
      <trkpt lat="43.34915" lon="2.43073">
        <ele>507</ele>
        <time>2023-05-28T07:27:08Z</time>
      </trkpt>
      <trkpt lat="43.34915" lon="2.43071">
        <ele>507.1</ele>
        <time>2023-05-28T07:27:09Z</time>
      </trkpt>
      <trkpt lat="43.34914" lon="2.43069">
        <ele>507.2</ele>
        <time>2023-05-28T07:27:10Z</time>
      </trkpt>
      <trkpt lat="43.34914" lon="2.43067">
        <ele>507.3</ele>
        <time>2023-05-28T07:27:11Z</time>
      </trkpt>
      <trkpt lat="43.34914" lon="2.43065">
        <ele>507.4</ele>
        <time>2023-05-28T07:27:12Z</time>
      </trkpt>
      <trkpt lat="43.34914" lon="2.43063">
        <ele>507.5</ele>
        <time>2023-05-28T07:27:13Z</time>
      </trkpt>
      <trkpt lat="43.34914" lon="2.43061">
        <ele>507.6</ele>
        <time>2023-05-28T07:27:14Z</time>
      </trkpt>
      <trkpt lat="43.34913" lon="2.43059">
        <ele>507.7</ele>
        <time>2023-05-28T07:27:15Z</time>
      </trkpt>
      <trkpt lat="43.34913" lon="2.43057">
        <ele>507.8</ele>
        <time>2023-05-28T07:27:16Z</time>
      </trkpt>
      <trkpt lat="43.34913" lon="2.43056">
        <ele>507.9</ele>
        <time>2023-05-28T07:27:17Z</time>
      </trkpt>
      <trkpt lat="43.34913" lon="2.43054">
        <ele>508</ele>
        <time>2023-05-28T07:27:18Z</time>
      </trkpt>
      <trkpt lat="43.34912" lon="2.43052">
        <ele>508.1</ele>
        <time>2023-05-28T07:27:19Z</time>
      </trkpt>
      <trkpt lat="43.34913" lon="2.43049">
        <ele>508.3</ele>
        <time>2023-05-28T07:27:20Z</time>
      </trkpt>
      <trkpt lat="43.34913" lon="2.43048">
        <ele>508.4</ele>
        <time>2023-05-28T07:27:21Z</time>
      </trkpt>
      <trkpt lat="43.34913" lon="2.43047">
        <ele>508.5</ele>
        <time>2023-05-28T07:27:22Z</time>
      </trkpt>
      <trkpt lat="43.34913" lon="2.43044">
        <ele>508.7</ele>
        <time>2023-05-28T07:27:23Z</time>
      </trkpt>
      <trkpt lat="43.34913" lon="2.43043">
        <ele>508.8</ele>
        <time>2023-05-28T07:27:24Z</time>
      </trkpt>
      <trkpt lat="43.34914" lon="2.43041">
        <ele>508.9</ele>
        <time>2023-05-28T07:27:25Z</time>
      </trkpt>
      <trkpt lat="43.34914" lon="2.43039">
        <ele>509.1</ele>
        <time>2023-05-28T07:27:26Z</time>
      </trkpt>
      <trkpt lat="43.34914" lon="2.43038">
        <ele>509.2</ele>
        <time>2023-05-28T07:27:27Z</time>
      </trkpt>
      <trkpt lat="43.34914" lon="2.43036">
        <ele>509.3</ele>
        <time>2023-05-28T07:27:28Z</time>
      </trkpt>
      <trkpt lat="43.34914" lon="2.43034">
        <ele>509.5</ele>
        <time>2023-05-28T07:27:29Z</time>
      </trkpt>
      <trkpt lat="43.34914" lon="2.43032">
        <ele>509.6</ele>
        <time>2023-05-28T07:27:30Z</time>
      </trkpt>
      <trkpt lat="43.34914" lon="2.43031">
        <ele>509.7</ele>
        <time>2023-05-28T07:27:31Z</time>
      </trkpt>
      <trkpt lat="43.34914" lon="2.43029">
        <ele>509.9</ele>
        <time>2023-05-28T07:27:32Z</time>
      </trkpt>
      <trkpt lat="43.34914" lon="2.43027">
        <ele>510.1</ele>
        <time>2023-05-28T07:27:33Z</time>
      </trkpt>
      <trkpt lat="43.34913" lon="2.43024">
        <ele>510.3</ele>
        <time>2023-05-28T07:27:34Z</time>
      </trkpt>
      <trkpt lat="43.34913" lon="2.43023">
        <ele>510.3</ele>
        <time>2023-05-28T07:27:35Z</time>
      </trkpt>
      <trkpt lat="43.34913" lon="2.43022">
        <ele>510.4</ele>
        <time>2023-05-28T07:27:36Z</time>
      </trkpt>
      <trkpt lat="43.34913" lon="2.4302">
        <ele>510.5</ele>
        <time>2023-05-28T07:27:37Z</time>
      </trkpt>
      <trkpt lat="43.34912" lon="2.43018">
        <ele>510.6</ele>
        <time>2023-05-28T07:27:38Z</time>
      </trkpt>
      <trkpt lat="43.34912" lon="2.43014">
        <ele>510.8</ele>
        <time>2023-05-28T07:27:39Z</time>
      </trkpt>
      <trkpt lat="43.34911" lon="2.43013">
        <ele>510.9</ele>
        <time>2023-05-28T07:27:40Z</time>
      </trkpt>
      <trkpt lat="43.3491" lon="2.43008">
        <ele>511.2</ele>
        <time>2023-05-28T07:27:41Z</time>
      </trkpt>
      <trkpt lat="43.3491" lon="2.43006">
        <ele>511.2</ele>
        <time>2023-05-28T07:27:42Z</time>
      </trkpt>
      <trkpt lat="43.34909" lon="2.43002">
        <ele>511.4</ele>
        <time>2023-05-28T07:27:43Z</time>
      </trkpt>
      <trkpt lat="43.34909" lon="2.43">
        <ele>511.4</ele>
        <time>2023-05-28T07:27:44Z</time>
      </trkpt>
      <trkpt lat="43.34909" lon="2.42995">
        <ele>511.6</ele>
        <time>2023-05-28T07:27:45Z</time>
      </trkpt>
      <trkpt lat="43.34908" lon="2.42994">
        <ele>511.6</ele>
        <time>2023-05-28T07:27:46Z</time>
      </trkpt>
      <trkpt lat="43.34907" lon="2.4299">
        <ele>511.7</ele>
        <time>2023-05-28T07:27:47Z</time>
      </trkpt>
      <trkpt lat="43.34906" lon="2.42988">
        <ele>511.8</ele>
        <time>2023-05-28T07:27:48Z</time>
      </trkpt>
      <trkpt lat="43.34905" lon="2.42983">
        <ele>511.9</ele>
        <time>2023-05-28T07:27:49Z</time>
      </trkpt>
      <trkpt lat="43.34905" lon="2.42982">
        <ele>511.9</ele>
        <time>2023-05-28T07:27:50Z</time>
      </trkpt>
      <trkpt lat="43.34905" lon="2.42978">
        <ele>512</ele>
        <time>2023-05-28T07:27:51Z</time>
      </trkpt>
      <trkpt lat="43.34905" lon="2.42977">
        <ele>512</ele>
        <time>2023-05-28T07:27:52Z</time>
      </trkpt>
      <trkpt lat="43.34904" lon="2.42972">
        <ele>512.1</ele>
        <time>2023-05-28T07:27:53Z</time>
      </trkpt>
      <trkpt lat="43.34904" lon="2.4297">
        <ele>512.1</ele>
        <time>2023-05-28T07:27:54Z</time>
      </trkpt>
      <trkpt lat="43.34903" lon="2.42966">
        <ele>512.2</ele>
        <time>2023-05-28T07:27:55Z</time>
      </trkpt>
      <trkpt lat="43.34903" lon="2.42965">
        <ele>512.2</ele>
        <time>2023-05-28T07:27:56Z</time>
      </trkpt>
      <trkpt lat="43.34902" lon="2.4296">
        <ele>512.3</ele>
        <time>2023-05-28T07:27:57Z</time>
      </trkpt>
      <trkpt lat="43.34902" lon="2.42959">
        <ele>512.3</ele>
        <time>2023-05-28T07:27:58Z</time>
      </trkpt>
      <trkpt lat="43.34902" lon="2.42957">
        <ele>512.4</ele>
        <time>2023-05-28T07:27:59Z</time>
      </trkpt>
      <trkpt lat="43.34902" lon="2.42955">
        <ele>512.4</ele>
        <time>2023-05-28T07:28:00Z</time>
      </trkpt>
      <trkpt lat="43.34902" lon="2.42953">
        <ele>512.4</ele>
        <time>2023-05-28T07:28:01Z</time>
      </trkpt>
      <trkpt lat="43.34902" lon="2.42952">
        <ele>512.5</ele>
        <time>2023-05-28T07:28:02Z</time>
      </trkpt>
      <trkpt lat="43.34902" lon="2.4295">
        <ele>512.5</ele>
        <time>2023-05-28T07:28:03Z</time>
      </trkpt>
      <trkpt lat="43.34902" lon="2.42949">
        <ele>512.5</ele>
        <time>2023-05-28T07:28:04Z</time>
      </trkpt>
      <trkpt lat="43.34901" lon="2.42948">
        <ele>512.5</ele>
        <time>2023-05-28T07:28:05Z</time>
      </trkpt>
      <trkpt lat="43.34901" lon="2.42945">
        <ele>512.6</ele>
        <time>2023-05-28T07:28:06Z</time>
      </trkpt>
      <trkpt lat="43.349" lon="2.42941">
        <ele>512.7</ele>
        <time>2023-05-28T07:28:07Z</time>
      </trkpt>
      <trkpt lat="43.349" lon="2.4294">
        <ele>512.7</ele>
        <time>2023-05-28T07:28:08Z</time>
      </trkpt>
      <trkpt lat="43.349" lon="2.42938">
        <ele>512.7</ele>
        <time>2023-05-28T07:28:09Z</time>
      </trkpt>
      <trkpt lat="43.34899" lon="2.42936">
        <ele>512.8</ele>
        <time>2023-05-28T07:28:10Z</time>
      </trkpt>
      <trkpt lat="43.34899" lon="2.42933">
        <ele>512.8</ele>
        <time>2023-05-28T07:28:11Z</time>
      </trkpt>
      <trkpt lat="43.34898" lon="2.42931">
        <ele>512.9</ele>
        <time>2023-05-28T07:28:12Z</time>
      </trkpt>
      <trkpt lat="43.34898" lon="2.42929">
        <ele>512.9</ele>
        <time>2023-05-28T07:28:13Z</time>
      </trkpt>
      <trkpt lat="43.34898" lon="2.42927">
        <ele>513</ele>
        <time>2023-05-28T07:28:14Z</time>
      </trkpt>
      <trkpt lat="43.34898" lon="2.42925">
        <ele>513.1</ele>
        <time>2023-05-28T07:28:15Z</time>
      </trkpt>
      <trkpt lat="43.34897" lon="2.42923">
        <ele>513.1</ele>
        <time>2023-05-28T07:28:16Z</time>
      </trkpt>
      <trkpt lat="43.34897" lon="2.4292">
        <ele>513.2</ele>
        <time>2023-05-28T07:28:17Z</time>
      </trkpt>
      <trkpt lat="43.34897" lon="2.42918">
        <ele>513.3</ele>
        <time>2023-05-28T07:28:18Z</time>
      </trkpt>
      <trkpt lat="43.34896" lon="2.42916">
        <ele>513.4</ele>
        <time>2023-05-28T07:28:19Z</time>
      </trkpt>
      <trkpt lat="43.34896" lon="2.42914">
        <ele>513.5</ele>
        <time>2023-05-28T07:28:20Z</time>
      </trkpt>
      <trkpt lat="43.34896" lon="2.42912">
        <ele>513.6</ele>
        <time>2023-05-28T07:28:21Z</time>
      </trkpt>
      <trkpt lat="43.34896" lon="2.4291">
        <ele>513.7</ele>
        <time>2023-05-28T07:28:22Z</time>
      </trkpt>
      <trkpt lat="43.34897" lon="2.42908">
        <ele>513.8</ele>
        <time>2023-05-28T07:28:23Z</time>
      </trkpt>
      <trkpt lat="43.34897" lon="2.42905">
        <ele>514</ele>
        <time>2023-05-28T07:28:24Z</time>
      </trkpt>
      <trkpt lat="43.34897" lon="2.42904">
        <ele>514.1</ele>
        <time>2023-05-28T07:28:25Z</time>
      </trkpt>
      <trkpt lat="43.34898" lon="2.42902">
        <ele>514.3</ele>
        <time>2023-05-28T07:28:26Z</time>
      </trkpt>
      <trkpt lat="43.34899" lon="2.42898">
        <ele>514.5</ele>
        <time>2023-05-28T07:28:27Z</time>
      </trkpt>
      <trkpt lat="43.34899" lon="2.42896">
        <ele>514.6</ele>
        <time>2023-05-28T07:28:28Z</time>
      </trkpt>
      <trkpt lat="43.34899" lon="2.42893">
        <ele>514.9</ele>
        <time>2023-05-28T07:28:29Z</time>
      </trkpt>
      <trkpt lat="43.34898" lon="2.42891">
        <ele>515</ele>
        <time>2023-05-28T07:28:30Z</time>
      </trkpt>
      <trkpt lat="43.34898" lon="2.42889">
        <ele>515.2</ele>
        <time>2023-05-28T07:28:31Z</time>
      </trkpt>
      <trkpt lat="43.34898" lon="2.42887">
        <ele>515.4</ele>
        <time>2023-05-28T07:28:32Z</time>
      </trkpt>
      <trkpt lat="43.34898" lon="2.42885">
        <ele>515.6</ele>
        <time>2023-05-28T07:28:33Z</time>
      </trkpt>
      <trkpt lat="43.34897" lon="2.42882">
        <ele>515.8</ele>
        <time>2023-05-28T07:28:34Z</time>
      </trkpt>
      <trkpt lat="43.34897" lon="2.4288">
        <ele>516</ele>
        <time>2023-05-28T07:28:35Z</time>
      </trkpt>
      <trkpt lat="43.34897" lon="2.42878">
        <ele>516.2</ele>
        <time>2023-05-28T07:28:36Z</time>
      </trkpt>
      <trkpt lat="43.34897" lon="2.42875">
        <ele>516.4</ele>
        <time>2023-05-28T07:28:37Z</time>
      </trkpt>
      <trkpt lat="43.34897" lon="2.42873">
        <ele>516.6</ele>
        <time>2023-05-28T07:28:38Z</time>
      </trkpt>
      <trkpt lat="43.34897" lon="2.42869">
        <ele>517</ele>
        <time>2023-05-28T07:28:39Z</time>
      </trkpt>
      <trkpt lat="43.34897" lon="2.42868">
        <ele>517.1</ele>
        <time>2023-05-28T07:28:40Z</time>
      </trkpt>
      <trkpt lat="43.34897" lon="2.42865">
        <ele>517.3</ele>
        <time>2023-05-28T07:28:41Z</time>
      </trkpt>
      <trkpt lat="43.34897" lon="2.42863">
        <ele>517.5</ele>
        <time>2023-05-28T07:28:42Z</time>
      </trkpt>
      <trkpt lat="43.34897" lon="2.4286">
        <ele>517.7</ele>
        <time>2023-05-28T07:28:43Z</time>
      </trkpt>
      <trkpt lat="43.34897" lon="2.42859">
        <ele>517.8</ele>
        <time>2023-05-28T07:28:44Z</time>
      </trkpt>
      <trkpt lat="43.34897" lon="2.42857">
        <ele>518</ele>
        <time>2023-05-28T07:28:45Z</time>
      </trkpt>
      <trkpt lat="43.34897" lon="2.42855">
        <ele>518.1</ele>
        <time>2023-05-28T07:28:46Z</time>
      </trkpt>
      <trkpt lat="43.34897" lon="2.42853">
        <ele>518.2</ele>
        <time>2023-05-28T07:28:47Z</time>
      </trkpt>
      <trkpt lat="43.34897" lon="2.42851">
        <ele>518.4</ele>
        <time>2023-05-28T07:28:48Z</time>
      </trkpt>
      <trkpt lat="43.34897" lon="2.42849">
        <ele>518.6</ele>
        <time>2023-05-28T07:28:49Z</time>
      </trkpt>
      <trkpt lat="43.34898" lon="2.42845">
        <ele>518.8</ele>
        <time>2023-05-28T07:28:50Z</time>
      </trkpt>
      <trkpt lat="43.34898" lon="2.42844">
        <ele>518.9</ele>
        <time>2023-05-28T07:28:51Z</time>
      </trkpt>
      <trkpt lat="43.34898" lon="2.42841">
        <ele>519.1</ele>
        <time>2023-05-28T07:28:52Z</time>
      </trkpt>
      <trkpt lat="43.34898" lon="2.42839">
        <ele>519.2</ele>
        <time>2023-05-28T07:28:53Z</time>
      </trkpt>
      <trkpt lat="43.34899" lon="2.42837">
        <ele>519.3</ele>
        <time>2023-05-28T07:28:54Z</time>
      </trkpt>
      <trkpt lat="43.34899" lon="2.42835">
        <ele>519.4</ele>
        <time>2023-05-28T07:28:55Z</time>
      </trkpt>
      <trkpt lat="43.34899" lon="2.42834">
        <ele>519.4</ele>
        <time>2023-05-28T07:28:56Z</time>
      </trkpt>
      <trkpt lat="43.34899" lon="2.42831">
        <ele>519.6</ele>
        <time>2023-05-28T07:28:57Z</time>
      </trkpt>
      <trkpt lat="43.34898" lon="2.4283">
        <ele>519.6</ele>
        <time>2023-05-28T07:28:58Z</time>
      </trkpt>
      <trkpt lat="43.34898" lon="2.42829">
        <ele>519.7</ele>
        <time>2023-05-28T07:28:59Z</time>
      </trkpt>
      <trkpt lat="43.34898" lon="2.42827">
        <ele>519.7</ele>
        <time>2023-05-28T07:29:00Z</time>
      </trkpt>
      <trkpt lat="43.34898" lon="2.42825">
        <ele>519.8</ele>
        <time>2023-05-28T07:29:01Z</time>
      </trkpt>
      <trkpt lat="43.34898" lon="2.42823">
        <ele>519.8</ele>
        <time>2023-05-28T07:29:02Z</time>
      </trkpt>
      <trkpt lat="43.34899" lon="2.42821">
        <ele>519.9</ele>
        <time>2023-05-28T07:29:03Z</time>
      </trkpt>
      <trkpt lat="43.34899" lon="2.4282">
        <ele>519.9</ele>
        <time>2023-05-28T07:29:04Z</time>
      </trkpt>
      <trkpt lat="43.349" lon="2.42818">
        <ele>519.9</ele>
        <time>2023-05-28T07:29:05Z</time>
      </trkpt>
      <trkpt lat="43.34901" lon="2.42817">
        <ele>519.9</ele>
        <time>2023-05-28T07:29:06Z</time>
      </trkpt>
      <trkpt lat="43.34902" lon="2.42816">
        <ele>520</ele>
        <time>2023-05-28T07:29:07Z</time>
      </trkpt>
      <trkpt lat="43.34903" lon="2.42814">
        <ele>520</ele>
        <time>2023-05-28T07:29:08Z</time>
      </trkpt>
      <trkpt lat="43.34903" lon="2.42813">
        <ele>520</ele>
        <time>2023-05-28T07:29:09Z</time>
      </trkpt>
      <trkpt lat="43.34904" lon="2.42813">
        <ele>520</ele>
        <time>2023-05-28T07:29:10Z</time>
      </trkpt>
      <trkpt lat="43.34905" lon="2.42811">
        <ele>520</ele>
        <time>2023-05-28T07:29:11Z</time>
      </trkpt>
      <trkpt lat="43.34905" lon="2.4281">
        <ele>520.1</ele>
        <time>2023-05-28T07:29:12Z</time>
      </trkpt>
      <trkpt lat="43.34906" lon="2.42808">
        <ele>520.1</ele>
        <time>2023-05-28T07:29:13Z</time>
      </trkpt>
      <trkpt lat="43.34907" lon="2.42807">
        <ele>520.1</ele>
        <time>2023-05-28T07:29:14Z</time>
      </trkpt>
      <trkpt lat="43.34907" lon="2.42807">
        <ele>520.1</ele>
        <time>2023-05-28T07:29:15Z</time>
      </trkpt>
      <trkpt lat="43.34909" lon="2.42806">
        <ele>520.1</ele>
        <time>2023-05-28T07:29:16Z</time>
      </trkpt>
      <trkpt lat="43.3491" lon="2.42805">
        <ele>520.2</ele>
        <time>2023-05-28T07:29:17Z</time>
      </trkpt>
      <trkpt lat="43.34912" lon="2.42803">
        <ele>520.2</ele>
        <time>2023-05-28T07:29:18Z</time>
      </trkpt>
      <trkpt lat="43.34913" lon="2.42802">
        <ele>520.2</ele>
        <time>2023-05-28T07:29:19Z</time>
      </trkpt>
      <trkpt lat="43.34914" lon="2.428">
        <ele>520.2</ele>
        <time>2023-05-28T07:29:20Z</time>
      </trkpt>
      <trkpt lat="43.34915" lon="2.42799">
        <ele>520.3</ele>
        <time>2023-05-28T07:29:21Z</time>
      </trkpt>
      <trkpt lat="43.34916" lon="2.42797">
        <ele>520.3</ele>
        <time>2023-05-28T07:29:22Z</time>
      </trkpt>
      <trkpt lat="43.34917" lon="2.42796">
        <ele>520.4</ele>
        <time>2023-05-28T07:29:23Z</time>
      </trkpt>
      <trkpt lat="43.34918" lon="2.42794">
        <ele>520.4</ele>
        <time>2023-05-28T07:29:24Z</time>
      </trkpt>
      <trkpt lat="43.34919" lon="2.42793">
        <ele>520.4</ele>
        <time>2023-05-28T07:29:25Z</time>
      </trkpt>
      <trkpt lat="43.3492" lon="2.42792">
        <ele>520.4</ele>
        <time>2023-05-28T07:29:26Z</time>
      </trkpt>
      <trkpt lat="43.34921" lon="2.42791">
        <ele>520.5</ele>
        <time>2023-05-28T07:29:27Z</time>
      </trkpt>
      <trkpt lat="43.34923" lon="2.4279">
        <ele>520.5</ele>
        <time>2023-05-28T07:29:28Z</time>
      </trkpt>
      <trkpt lat="43.34924" lon="2.4279">
        <ele>520.6</ele>
        <time>2023-05-28T07:29:29Z</time>
      </trkpt>
      <trkpt lat="43.34926" lon="2.42789">
        <ele>520.7</ele>
        <time>2023-05-28T07:29:30Z</time>
      </trkpt>
      <trkpt lat="43.34927" lon="2.42788">
        <ele>520.8</ele>
        <time>2023-05-28T07:29:31Z</time>
      </trkpt>
      <trkpt lat="43.34929" lon="2.42788">
        <ele>520.9</ele>
        <time>2023-05-28T07:29:32Z</time>
      </trkpt>
      <trkpt lat="43.3493" lon="2.42787">
        <ele>521</ele>
        <time>2023-05-28T07:29:33Z</time>
      </trkpt>
      <trkpt lat="43.34931" lon="2.42786">
        <ele>521</ele>
        <time>2023-05-28T07:29:34Z</time>
      </trkpt>
      <trkpt lat="43.34933" lon="2.42785">
        <ele>521.1</ele>
        <time>2023-05-28T07:29:35Z</time>
      </trkpt>
      <trkpt lat="43.34934" lon="2.42784">
        <ele>521.2</ele>
        <time>2023-05-28T07:29:36Z</time>
      </trkpt>
      <trkpt lat="43.34935" lon="2.42783">
        <ele>521.3</ele>
        <time>2023-05-28T07:29:37Z</time>
      </trkpt>
      <trkpt lat="43.34937" lon="2.42782">
        <ele>521.4</ele>
        <time>2023-05-28T07:29:38Z</time>
      </trkpt>
      <trkpt lat="43.34938" lon="2.42781">
        <ele>521.5</ele>
        <time>2023-05-28T07:29:39Z</time>
      </trkpt>
      <trkpt lat="43.34939" lon="2.4278">
        <ele>521.5</ele>
        <time>2023-05-28T07:29:40Z</time>
      </trkpt>
      <trkpt lat="43.3494" lon="2.4278">
        <ele>521.6</ele>
        <time>2023-05-28T07:29:41Z</time>
      </trkpt>
      <trkpt lat="43.34941" lon="2.42779">
        <ele>521.6</ele>
        <time>2023-05-28T07:29:42Z</time>
      </trkpt>
      <trkpt lat="43.34943" lon="2.42777">
        <ele>521.7</ele>
        <time>2023-05-28T07:29:43Z</time>
      </trkpt>
      <trkpt lat="43.34943" lon="2.42776">
        <ele>521.8</ele>
        <time>2023-05-28T07:29:44Z</time>
      </trkpt>
      <trkpt lat="43.34944" lon="2.42775">
        <ele>521.8</ele>
        <time>2023-05-28T07:29:45Z</time>
      </trkpt>
      <trkpt lat="43.34945" lon="2.42774">
        <ele>521.9</ele>
        <time>2023-05-28T07:29:46Z</time>
      </trkpt>
      <trkpt lat="43.34946" lon="2.42772">
        <ele>521.9</ele>
        <time>2023-05-28T07:29:47Z</time>
      </trkpt>
      <trkpt lat="43.34947" lon="2.42771">
        <ele>521.9</ele>
        <time>2023-05-28T07:29:48Z</time>
      </trkpt>
      <trkpt lat="43.34948" lon="2.42769">
        <ele>522</ele>
        <time>2023-05-28T07:29:49Z</time>
      </trkpt>
      <trkpt lat="43.34949" lon="2.42767">
        <ele>522</ele>
        <time>2023-05-28T07:29:50Z</time>
      </trkpt>
      <trkpt lat="43.3495" lon="2.42765">
        <ele>522</ele>
        <time>2023-05-28T07:29:51Z</time>
      </trkpt>
      <trkpt lat="43.3495" lon="2.42763">
        <ele>522</ele>
        <time>2023-05-28T07:29:52Z</time>
      </trkpt>
      <trkpt lat="43.34951" lon="2.42761">
        <ele>522</ele>
        <time>2023-05-28T07:29:53Z</time>
      </trkpt>
      <trkpt lat="43.34952" lon="2.4276">
        <ele>522</ele>
        <time>2023-05-28T07:29:54Z</time>
      </trkpt>
      <trkpt lat="43.34953" lon="2.42758">
        <ele>522</ele>
        <time>2023-05-28T07:29:55Z</time>
      </trkpt>
      <trkpt lat="43.34954" lon="2.42757">
        <ele>521.9</ele>
        <time>2023-05-28T07:29:56Z</time>
      </trkpt>
      <trkpt lat="43.34955" lon="2.42756">
        <ele>521.9</ele>
        <time>2023-05-28T07:29:57Z</time>
      </trkpt>
      <trkpt lat="43.34956" lon="2.42755">
        <ele>521.9</ele>
        <time>2023-05-28T07:29:58Z</time>
      </trkpt>
      <trkpt lat="43.34957" lon="2.42754">
        <ele>521.8</ele>
        <time>2023-05-28T07:29:59Z</time>
      </trkpt>
      <trkpt lat="43.34959" lon="2.42753">
        <ele>521.6</ele>
        <time>2023-05-28T07:30:00Z</time>
      </trkpt>
      <trkpt lat="43.3496" lon="2.42752">
        <ele>521.5</ele>
        <time>2023-05-28T07:30:01Z</time>
      </trkpt>
      <trkpt lat="43.34961" lon="2.42751">
        <ele>521.4</ele>
        <time>2023-05-28T07:30:02Z</time>
      </trkpt>
      <trkpt lat="43.34963" lon="2.42749">
        <ele>521.2</ele>
        <time>2023-05-28T07:30:03Z</time>
      </trkpt>
      <trkpt lat="43.34964" lon="2.42748">
        <ele>521.1</ele>
        <time>2023-05-28T07:30:04Z</time>
      </trkpt>
      <trkpt lat="43.34966" lon="2.42745">
        <ele>520.8</ele>
        <time>2023-05-28T07:30:05Z</time>
      </trkpt>
      <trkpt lat="43.34967" lon="2.42744">
        <ele>520.7</ele>
        <time>2023-05-28T07:30:06Z</time>
      </trkpt>
      <trkpt lat="43.34968" lon="2.42742">
        <ele>520.6</ele>
        <time>2023-05-28T07:30:07Z</time>
      </trkpt>
      <trkpt lat="43.34969" lon="2.42741">
        <ele>520.4</ele>
        <time>2023-05-28T07:30:08Z</time>
      </trkpt>
      <trkpt lat="43.34971" lon="2.42737">
        <ele>520.1</ele>
        <time>2023-05-28T07:30:09Z</time>
      </trkpt>
      <trkpt lat="43.34972" lon="2.42736">
        <ele>519.9</ele>
        <time>2023-05-28T07:30:10Z</time>
      </trkpt>
      <trkpt lat="43.34972" lon="2.42734">
        <ele>519.7</ele>
        <time>2023-05-28T07:30:11Z</time>
      </trkpt>
      <trkpt lat="43.34972" lon="2.42732">
        <ele>519.5</ele>
        <time>2023-05-28T07:30:12Z</time>
      </trkpt>
      <trkpt lat="43.34972" lon="2.4273">
        <ele>519.3</ele>
        <time>2023-05-28T07:30:13Z</time>
      </trkpt>
      <trkpt lat="43.34972" lon="2.42727">
        <ele>519.1</ele>
        <time>2023-05-28T07:30:14Z</time>
      </trkpt>
      <trkpt lat="43.34972" lon="2.42725">
        <ele>518.9</ele>
        <time>2023-05-28T07:30:15Z</time>
      </trkpt>
      <trkpt lat="43.34972" lon="2.42723">
        <ele>518.6</ele>
        <time>2023-05-28T07:30:16Z</time>
      </trkpt>
      <trkpt lat="43.34972" lon="2.42721">
        <ele>518.4</ele>
        <time>2023-05-28T07:30:17Z</time>
      </trkpt>
      <trkpt lat="43.34973" lon="2.4272">
        <ele>518.2</ele>
        <time>2023-05-28T07:30:18Z</time>
      </trkpt>
      <trkpt lat="43.34975" lon="2.42718">
        <ele>517.9</ele>
        <time>2023-05-28T07:30:19Z</time>
      </trkpt>
      <trkpt lat="43.34976" lon="2.42717">
        <ele>517.7</ele>
        <time>2023-05-28T07:30:20Z</time>
      </trkpt>
      <trkpt lat="43.34977" lon="2.42716">
        <ele>517.4</ele>
        <time>2023-05-28T07:30:21Z</time>
      </trkpt>
      <trkpt lat="43.34977" lon="2.42714">
        <ele>517.2</ele>
        <time>2023-05-28T07:30:22Z</time>
      </trkpt>
      <trkpt lat="43.34978" lon="2.42712">
        <ele>516.9</ele>
        <time>2023-05-28T07:30:23Z</time>
      </trkpt>
      <trkpt lat="43.34978" lon="2.4271">
        <ele>516.7</ele>
        <time>2023-05-28T07:30:24Z</time>
      </trkpt>
      <trkpt lat="43.34979" lon="2.42708">
        <ele>516.4</ele>
        <time>2023-05-28T07:30:25Z</time>
      </trkpt>
      <trkpt lat="43.3498" lon="2.42707">
        <ele>516.2</ele>
        <time>2023-05-28T07:30:26Z</time>
      </trkpt>
      <trkpt lat="43.34981" lon="2.42706">
        <ele>516</ele>
        <time>2023-05-28T07:30:27Z</time>
      </trkpt>
      <trkpt lat="43.34983" lon="2.42705">
        <ele>515.6</ele>
        <time>2023-05-28T07:30:28Z</time>
      </trkpt>
      <trkpt lat="43.34983" lon="2.42704">
        <ele>515.5</ele>
        <time>2023-05-28T07:30:29Z</time>
      </trkpt>
      <trkpt lat="43.34984" lon="2.42704">
        <ele>515.4</ele>
        <time>2023-05-28T07:30:30Z</time>
      </trkpt>
      <trkpt lat="43.34985" lon="2.42703">
        <ele>515.1</ele>
        <time>2023-05-28T07:30:31Z</time>
      </trkpt>
      <trkpt lat="43.34985" lon="2.42701">
        <ele>514.9</ele>
        <time>2023-05-28T07:30:32Z</time>
      </trkpt>
      <trkpt lat="43.34985" lon="2.42699">
        <ele>514.7</ele>
        <time>2023-05-28T07:30:33Z</time>
      </trkpt>
      <trkpt lat="43.34985" lon="2.42698">
        <ele>514.5</ele>
        <time>2023-05-28T07:30:34Z</time>
      </trkpt>
      <trkpt lat="43.34984" lon="2.42697">
        <ele>514.3</ele>
        <time>2023-05-28T07:30:35Z</time>
      </trkpt>
      <trkpt lat="43.34984" lon="2.42695">
        <ele>514.1</ele>
        <time>2023-05-28T07:30:36Z</time>
      </trkpt>
      <trkpt lat="43.34983" lon="2.42694">
        <ele>513.9</ele>
        <time>2023-05-28T07:30:37Z</time>
      </trkpt>
      <trkpt lat="43.34983" lon="2.42693">
        <ele>513.8</ele>
        <time>2023-05-28T07:30:38Z</time>
      </trkpt>
      <trkpt lat="43.34983" lon="2.42692">
        <ele>513.7</ele>
        <time>2023-05-28T07:30:39Z</time>
      </trkpt>
      <trkpt lat="43.34982" lon="2.42689">
        <ele>513.4</ele>
        <time>2023-05-28T07:30:40Z</time>
      </trkpt>
      <trkpt lat="43.34982" lon="2.42688">
        <ele>513.2</ele>
        <time>2023-05-28T07:30:41Z</time>
      </trkpt>
      <trkpt lat="43.34981" lon="2.42686">
        <ele>513</ele>
        <time>2023-05-28T07:30:42Z</time>
      </trkpt>
      <trkpt lat="43.34981" lon="2.42684">
        <ele>512.8</ele>
        <time>2023-05-28T07:30:43Z</time>
      </trkpt>
      <trkpt lat="43.34981" lon="2.42682">
        <ele>512.6</ele>
        <time>2023-05-28T07:30:44Z</time>
      </trkpt>
      <trkpt lat="43.34981" lon="2.42678">
        <ele>512.2</ele>
        <time>2023-05-28T07:30:45Z</time>
      </trkpt>
      <trkpt lat="43.34982" lon="2.42676">
        <ele>512.1</ele>
        <time>2023-05-28T07:30:46Z</time>
      </trkpt>
      <trkpt lat="43.34983" lon="2.42673">
        <ele>511.9</ele>
        <time>2023-05-28T07:30:47Z</time>
      </trkpt>
      <trkpt lat="43.34983" lon="2.42672">
        <ele>511.9</ele>
        <time>2023-05-28T07:30:48Z</time>
      </trkpt>
      <trkpt lat="43.34984" lon="2.42671">
        <ele>511.8</ele>
        <time>2023-05-28T07:30:49Z</time>
      </trkpt>
      <trkpt lat="43.34985" lon="2.4267">
        <ele>511.7</ele>
        <time>2023-05-28T07:30:50Z</time>
      </trkpt>
      <trkpt lat="43.34986" lon="2.42669">
        <ele>511.7</ele>
        <time>2023-05-28T07:30:51Z</time>
      </trkpt>
      <trkpt lat="43.34987" lon="2.42669">
        <ele>511.7</ele>
        <time>2023-05-28T07:30:52Z</time>
      </trkpt>
      <trkpt lat="43.34988" lon="2.42668">
        <ele>511.6</ele>
        <time>2023-05-28T07:30:53Z</time>
      </trkpt>
      <trkpt lat="43.34989" lon="2.42666">
        <ele>511.6</ele>
        <time>2023-05-28T07:30:54Z</time>
      </trkpt>
      <trkpt lat="43.3499" lon="2.42664">
        <ele>511.6</ele>
        <time>2023-05-28T07:30:55Z</time>
      </trkpt>
      <trkpt lat="43.34991" lon="2.42663">
        <ele>511.6</ele>
        <time>2023-05-28T07:30:56Z</time>
      </trkpt>
      <trkpt lat="43.34992" lon="2.42662">
        <ele>511.6</ele>
        <time>2023-05-28T07:30:57Z</time>
      </trkpt>
      <trkpt lat="43.34993" lon="2.42661">
        <ele>511.7</ele>
        <time>2023-05-28T07:30:58Z</time>
      </trkpt>
      <trkpt lat="43.34994" lon="2.4266">
        <ele>511.7</ele>
        <time>2023-05-28T07:30:59Z</time>
      </trkpt>
      <trkpt lat="43.34994" lon="2.42659">
        <ele>511.7</ele>
        <time>2023-05-28T07:31:00Z</time>
      </trkpt>
      <trkpt lat="43.34996" lon="2.42659">
        <ele>511.8</ele>
        <time>2023-05-28T07:31:01Z</time>
      </trkpt>
      <trkpt lat="43.34997" lon="2.42659">
        <ele>511.9</ele>
        <time>2023-05-28T07:31:02Z</time>
      </trkpt>
      <trkpt lat="43.34998" lon="2.42659">
        <ele>511.9</ele>
        <time>2023-05-28T07:31:03Z</time>
      </trkpt>
      <trkpt lat="43.34999" lon="2.42659">
        <ele>512</ele>
        <time>2023-05-28T07:31:04Z</time>
      </trkpt>
      <trkpt lat="43.35" lon="2.42659">
        <ele>512.1</ele>
        <time>2023-05-28T07:31:05Z</time>
      </trkpt>
      <trkpt lat="43.35001" lon="2.42658">
        <ele>512.1</ele>
        <time>2023-05-28T07:31:06Z</time>
      </trkpt>
      <trkpt lat="43.35001" lon="2.42656">
        <ele>512.2</ele>
        <time>2023-05-28T07:31:07Z</time>
      </trkpt>
      <trkpt lat="43.35002" lon="2.42655">
        <ele>512.3</ele>
        <time>2023-05-28T07:31:08Z</time>
      </trkpt>
      <trkpt lat="43.35003" lon="2.42653">
        <ele>512.4</ele>
        <time>2023-05-28T07:31:09Z</time>
      </trkpt>
      <trkpt lat="43.35004" lon="2.42651">
        <ele>512.4</ele>
        <time>2023-05-28T07:31:10Z</time>
      </trkpt>
      <trkpt lat="43.35005" lon="2.42649">
        <ele>512.5</ele>
        <time>2023-05-28T07:31:11Z</time>
      </trkpt>
      <trkpt lat="43.35006" lon="2.42649">
        <ele>512.6</ele>
        <time>2023-05-28T07:31:12Z</time>
      </trkpt>
      <trkpt lat="43.35007" lon="2.42648">
        <ele>512.6</ele>
        <time>2023-05-28T07:31:13Z</time>
      </trkpt>
      <trkpt lat="43.35009" lon="2.42645">
        <ele>512.7</ele>
        <time>2023-05-28T07:31:14Z</time>
      </trkpt>
      <trkpt lat="43.3501" lon="2.42644">
        <ele>512.7</ele>
        <time>2023-05-28T07:31:15Z</time>
      </trkpt>
      <trkpt lat="43.35011" lon="2.42643">
        <ele>512.8</ele>
        <time>2023-05-28T07:31:16Z</time>
      </trkpt>
      <trkpt lat="43.35012" lon="2.42641">
        <ele>512.8</ele>
        <time>2023-05-28T07:31:17Z</time>
      </trkpt>
      <trkpt lat="43.35013" lon="2.42639">
        <ele>512.7</ele>
        <time>2023-05-28T07:31:18Z</time>
      </trkpt>
      <trkpt lat="43.35014" lon="2.42637">
        <ele>512.7</ele>
        <time>2023-05-28T07:31:19Z</time>
      </trkpt>
      <trkpt lat="43.35015" lon="2.42636">
        <ele>512.7</ele>
        <time>2023-05-28T07:31:20Z</time>
      </trkpt>
      <trkpt lat="43.35015" lon="2.42634">
        <ele>512.6</ele>
        <time>2023-05-28T07:31:21Z</time>
      </trkpt>
      <trkpt lat="43.35016" lon="2.42633">
        <ele>512.5</ele>
        <time>2023-05-28T07:31:22Z</time>
      </trkpt>
      <trkpt lat="43.35016" lon="2.42632">
        <ele>512.5</ele>
        <time>2023-05-28T07:31:23Z</time>
      </trkpt>
      <trkpt lat="43.35016" lon="2.42631">
        <ele>512.5</ele>
        <time>2023-05-28T07:31:24Z</time>
      </trkpt>
      <trkpt lat="43.35016" lon="2.4263">
        <ele>512.4</ele>
        <time>2023-05-28T07:31:25Z</time>
      </trkpt>
      <trkpt lat="43.35015" lon="2.42627">
        <ele>512.2</ele>
        <time>2023-05-28T07:31:26Z</time>
      </trkpt>
      <trkpt lat="43.35015" lon="2.42625">
        <ele>512</ele>
        <time>2023-05-28T07:31:27Z</time>
      </trkpt>
      <trkpt lat="43.35015" lon="2.42622">
        <ele>511.8</ele>
        <time>2023-05-28T07:31:28Z</time>
      </trkpt>
      <trkpt lat="43.35015" lon="2.4262">
        <ele>511.6</ele>
        <time>2023-05-28T07:31:29Z</time>
      </trkpt>
      <trkpt lat="43.35015" lon="2.42619">
        <ele>511.5</ele>
        <time>2023-05-28T07:31:30Z</time>
      </trkpt>
      <trkpt lat="43.35016" lon="2.42616">
        <ele>511.2</ele>
        <time>2023-05-28T07:31:31Z</time>
      </trkpt>
      <trkpt lat="43.35017" lon="2.42614">
        <ele>510.9</ele>
        <time>2023-05-28T07:31:32Z</time>
      </trkpt>
      <trkpt lat="43.35018" lon="2.42613">
        <ele>510.7</ele>
        <time>2023-05-28T07:31:33Z</time>
      </trkpt>
      <trkpt lat="43.35018" lon="2.42612">
        <ele>510.5</ele>
        <time>2023-05-28T07:31:34Z</time>
      </trkpt>
      <trkpt lat="43.35018" lon="2.42609">
        <ele>510.2</ele>
        <time>2023-05-28T07:31:35Z</time>
      </trkpt>
      <trkpt lat="43.35018" lon="2.42608">
        <ele>510</ele>
        <time>2023-05-28T07:31:36Z</time>
      </trkpt>
      <trkpt lat="43.35018" lon="2.42607">
        <ele>509.8</ele>
        <time>2023-05-28T07:31:37Z</time>
      </trkpt>
      <trkpt lat="43.35016" lon="2.42603">
        <ele>509.2</ele>
        <time>2023-05-28T07:31:38Z</time>
      </trkpt>
      <trkpt lat="43.35015" lon="2.42602">
        <ele>508.9</ele>
        <time>2023-05-28T07:31:39Z</time>
      </trkpt>
      <trkpt lat="43.35014" lon="2.42599">
        <ele>508.5</ele>
        <time>2023-05-28T07:31:40Z</time>
      </trkpt>
      <trkpt lat="43.35014" lon="2.42598">
        <ele>508.2</ele>
        <time>2023-05-28T07:31:41Z</time>
      </trkpt>
      <trkpt lat="43.35014" lon="2.42596">
        <ele>507.9</ele>
        <time>2023-05-28T07:31:42Z</time>
      </trkpt>
      <trkpt lat="43.35014" lon="2.42594">
        <ele>507.5</ele>
        <time>2023-05-28T07:31:43Z</time>
      </trkpt>
      <trkpt lat="43.35015" lon="2.42592">
        <ele>507.3</ele>
        <time>2023-05-28T07:31:44Z</time>
      </trkpt>
      <trkpt lat="43.35015" lon="2.4259">
        <ele>506.8</ele>
        <time>2023-05-28T07:31:45Z</time>
      </trkpt>
      <trkpt lat="43.35015" lon="2.42585">
        <ele>506.1</ele>
        <time>2023-05-28T07:31:46Z</time>
      </trkpt>
      <trkpt lat="43.35015" lon="2.42584">
        <ele>505.8</ele>
        <time>2023-05-28T07:31:47Z</time>
      </trkpt>
      <trkpt lat="43.35015" lon="2.4258">
        <ele>505.2</ele>
        <time>2023-05-28T07:31:48Z</time>
      </trkpt>
      <trkpt lat="43.35016" lon="2.42579">
        <ele>505</ele>
        <time>2023-05-28T07:31:49Z</time>
      </trkpt>
      <trkpt lat="43.35016" lon="2.42578">
        <ele>504.8</ele>
        <time>2023-05-28T07:31:50Z</time>
      </trkpt>
      <trkpt lat="43.35017" lon="2.42574">
        <ele>504</ele>
        <time>2023-05-28T07:31:51Z</time>
      </trkpt>
      <trkpt lat="43.35018" lon="2.42572">
        <ele>503.7</ele>
        <time>2023-05-28T07:31:52Z</time>
      </trkpt>
      <trkpt lat="43.35021" lon="2.4257">
        <ele>503</ele>
        <time>2023-05-28T07:31:53Z</time>
      </trkpt>
      <trkpt lat="43.35021" lon="2.42569">
        <ele>502.9</ele>
        <time>2023-05-28T07:31:54Z</time>
      </trkpt>
      <trkpt lat="43.35021" lon="2.42568">
        <ele>502.7</ele>
        <time>2023-05-28T07:31:55Z</time>
      </trkpt>
      <trkpt lat="43.35021" lon="2.42566">
        <ele>502.4</ele>
        <time>2023-05-28T07:31:56Z</time>
      </trkpt>
      <trkpt lat="43.35021" lon="2.42565">
        <ele>502.2</ele>
        <time>2023-05-28T07:31:57Z</time>
      </trkpt>
      <trkpt lat="43.35021" lon="2.42564">
        <ele>502</ele>
        <time>2023-05-28T07:31:58Z</time>
      </trkpt>
      <trkpt lat="43.3502" lon="2.42563">
        <ele>501.8</ele>
        <time>2023-05-28T07:31:59Z</time>
      </trkpt>
      <trkpt lat="43.35021" lon="2.42561">
        <ele>501.6</ele>
        <time>2023-05-28T07:32:00Z</time>
      </trkpt>
      <trkpt lat="43.35021" lon="2.42558">
        <ele>501.2</ele>
        <time>2023-05-28T07:32:01Z</time>
      </trkpt>
      <trkpt lat="43.35021" lon="2.42556">
        <ele>501</ele>
        <time>2023-05-28T07:32:02Z</time>
      </trkpt>
      <trkpt lat="43.3502" lon="2.42555">
        <ele>500.8</ele>
        <time>2023-05-28T07:32:03Z</time>
      </trkpt>
      <trkpt lat="43.3502" lon="2.42553">
        <ele>500.5</ele>
        <time>2023-05-28T07:32:04Z</time>
      </trkpt>
      <trkpt lat="43.35019" lon="2.42551">
        <ele>500.3</ele>
        <time>2023-05-28T07:32:05Z</time>
      </trkpt>
      <trkpt lat="43.35019" lon="2.4255">
        <ele>500.2</ele>
        <time>2023-05-28T07:32:06Z</time>
      </trkpt>
      <trkpt lat="43.35018" lon="2.42548">
        <ele>500</ele>
        <time>2023-05-28T07:32:07Z</time>
      </trkpt>
      <trkpt lat="43.35017" lon="2.42547">
        <ele>499.8</ele>
        <time>2023-05-28T07:32:08Z</time>
      </trkpt>
      <trkpt lat="43.35016" lon="2.42545">
        <ele>499.7</ele>
        <time>2023-05-28T07:32:09Z</time>
      </trkpt>
      <trkpt lat="43.35017" lon="2.42545">
        <ele>499.6</ele>
        <time>2023-05-28T07:32:10Z</time>
      </trkpt>
      <trkpt lat="43.35017" lon="2.42545">
        <ele>499.5</ele>
        <time>2023-05-28T07:32:11Z</time>
      </trkpt>
      <trkpt lat="43.35016" lon="2.42545">
        <ele>499.4</ele>
        <time>2023-05-28T07:32:12Z</time>
      </trkpt>
      <trkpt lat="43.35015" lon="2.42544">
        <ele>499.3</ele>
        <time>2023-05-28T07:32:13Z</time>
      </trkpt>
      <trkpt lat="43.35014" lon="2.42544">
        <ele>499.2</ele>
        <time>2023-05-28T07:32:14Z</time>
      </trkpt>
      <trkpt lat="43.35011" lon="2.42543">
        <ele>499</ele>
        <time>2023-05-28T07:32:15Z</time>
      </trkpt>
      <trkpt lat="43.3501" lon="2.42542">
        <ele>499</ele>
        <time>2023-05-28T07:32:16Z</time>
      </trkpt>
      <trkpt lat="43.35007" lon="2.42539">
        <ele>498.8</ele>
        <time>2023-05-28T07:32:17Z</time>
      </trkpt>
      <trkpt lat="43.35006" lon="2.42538">
        <ele>498.8</ele>
        <time>2023-05-28T07:32:18Z</time>
      </trkpt>
      <trkpt lat="43.35003" lon="2.42536">
        <ele>498.7</ele>
        <time>2023-05-28T07:32:19Z</time>
      </trkpt>
      <trkpt lat="43.35002" lon="2.42535">
        <ele>498.7</ele>
        <time>2023-05-28T07:32:20Z</time>
      </trkpt>
      <trkpt lat="43.35001" lon="2.42533">
        <ele>498.7</ele>
        <time>2023-05-28T07:32:21Z</time>
      </trkpt>
      <trkpt lat="43.34999" lon="2.42533">
        <ele>498.7</ele>
        <time>2023-05-28T07:32:22Z</time>
      </trkpt>
      <trkpt lat="43.34997" lon="2.42532">
        <ele>498.7</ele>
        <time>2023-05-28T07:32:23Z</time>
      </trkpt>
      <trkpt lat="43.34997" lon="2.42531">
        <ele>498.7</ele>
        <time>2023-05-28T07:32:24Z</time>
      </trkpt>
      <trkpt lat="43.34996" lon="2.42531">
        <ele>498.7</ele>
        <time>2023-05-28T07:32:25Z</time>
      </trkpt>
      <trkpt lat="43.34995" lon="2.4253">
        <ele>498.8</ele>
        <time>2023-05-28T07:32:26Z</time>
      </trkpt>
      <trkpt lat="43.34994" lon="2.42529">
        <ele>498.8</ele>
        <time>2023-05-28T07:32:27Z</time>
      </trkpt>
      <trkpt lat="43.34993" lon="2.42528">
        <ele>498.8</ele>
        <time>2023-05-28T07:32:28Z</time>
      </trkpt>
      <trkpt lat="43.34992" lon="2.42528">
        <ele>498.8</ele>
        <time>2023-05-28T07:32:29Z</time>
      </trkpt>
      <trkpt lat="43.34991" lon="2.42528">
        <ele>498.8</ele>
        <time>2023-05-28T07:32:30Z</time>
      </trkpt>
      <trkpt lat="43.3499" lon="2.42527">
        <ele>498.9</ele>
        <time>2023-05-28T07:32:31Z</time>
      </trkpt>
      <trkpt lat="43.34988" lon="2.42527">
        <ele>498.9</ele>
        <time>2023-05-28T07:32:32Z</time>
      </trkpt>
      <trkpt lat="43.34988" lon="2.42527">
        <ele>498.9</ele>
        <time>2023-05-28T07:32:33Z</time>
      </trkpt>
      <trkpt lat="43.34987" lon="2.42527">
        <ele>498.9</ele>
        <time>2023-05-28T07:32:34Z</time>
      </trkpt>
      <trkpt lat="43.34986" lon="2.42526">
        <ele>498.9</ele>
        <time>2023-05-28T07:32:35Z</time>
      </trkpt>
      <trkpt lat="43.34984" lon="2.42527">
        <ele>499</ele>
        <time>2023-05-28T07:32:36Z</time>
      </trkpt>
      <trkpt lat="43.34982" lon="2.42527">
        <ele>499</ele>
        <time>2023-05-28T07:32:37Z</time>
      </trkpt>
      <trkpt lat="43.34981" lon="2.42527">
        <ele>499</ele>
        <time>2023-05-28T07:32:38Z</time>
      </trkpt>
      <trkpt lat="43.3498" lon="2.42527">
        <ele>499</ele>
        <time>2023-05-28T07:32:39Z</time>
      </trkpt>
      <trkpt lat="43.34979" lon="2.42528">
        <ele>499.1</ele>
        <time>2023-05-28T07:32:40Z</time>
      </trkpt>
      <trkpt lat="43.34978" lon="2.42528">
        <ele>499.1</ele>
        <time>2023-05-28T07:32:41Z</time>
      </trkpt>
      <trkpt lat="43.34976" lon="2.42529">
        <ele>499.1</ele>
        <time>2023-05-28T07:32:42Z</time>
      </trkpt>
      <trkpt lat="43.34975" lon="2.4253">
        <ele>499.2</ele>
        <time>2023-05-28T07:32:43Z</time>
      </trkpt>
      <trkpt lat="43.34974" lon="2.42531">
        <ele>499.2</ele>
        <time>2023-05-28T07:32:44Z</time>
      </trkpt>
      <trkpt lat="43.34972" lon="2.42531">
        <ele>499.3</ele>
        <time>2023-05-28T07:32:45Z</time>
      </trkpt>
      <trkpt lat="43.3497" lon="2.42532">
        <ele>499.3</ele>
        <time>2023-05-28T07:32:46Z</time>
      </trkpt>
      <trkpt lat="43.34969" lon="2.42533">
        <ele>499.4</ele>
        <time>2023-05-28T07:32:47Z</time>
      </trkpt>
      <trkpt lat="43.34967" lon="2.42534">
        <ele>499.5</ele>
        <time>2023-05-28T07:32:48Z</time>
      </trkpt>
      <trkpt lat="43.34966" lon="2.42534">
        <ele>499.5</ele>
        <time>2023-05-28T07:32:49Z</time>
      </trkpt>
      <trkpt lat="43.34965" lon="2.42535">
        <ele>499.6</ele>
        <time>2023-05-28T07:32:50Z</time>
      </trkpt>
      <trkpt lat="43.34963" lon="2.42536">
        <ele>499.7</ele>
        <time>2023-05-28T07:32:51Z</time>
      </trkpt>
      <trkpt lat="43.34962" lon="2.42536">
        <ele>499.8</ele>
        <time>2023-05-28T07:32:52Z</time>
      </trkpt>
      <trkpt lat="43.34962" lon="2.42536">
        <ele>499.8</ele>
        <time>2023-05-28T07:32:53Z</time>
      </trkpt>
      <trkpt lat="43.3496" lon="2.42536">
        <ele>499.9</ele>
        <time>2023-05-28T07:32:54Z</time>
      </trkpt>
      <trkpt lat="43.34959" lon="2.42536">
        <ele>500</ele>
        <time>2023-05-28T07:32:55Z</time>
      </trkpt>
      <trkpt lat="43.34957" lon="2.42535">
        <ele>500.1</ele>
        <time>2023-05-28T07:32:56Z</time>
      </trkpt>
      <trkpt lat="43.34956" lon="2.42535">
        <ele>500.3</ele>
        <time>2023-05-28T07:32:57Z</time>
      </trkpt>
      <trkpt lat="43.34954" lon="2.42534">
        <ele>500.4</ele>
        <time>2023-05-28T07:32:58Z</time>
      </trkpt>
      <trkpt lat="43.34953" lon="2.42533">
        <ele>500.5</ele>
        <time>2023-05-28T07:32:59Z</time>
      </trkpt>
      <trkpt lat="43.34952" lon="2.42532">
        <ele>500.6</ele>
        <time>2023-05-28T07:33:00Z</time>
      </trkpt>
      <trkpt lat="43.34951" lon="2.42531">
        <ele>500.7</ele>
        <time>2023-05-28T07:33:01Z</time>
      </trkpt>
      <trkpt lat="43.34951" lon="2.42529">
        <ele>500.9</ele>
        <time>2023-05-28T07:33:02Z</time>
      </trkpt>
      <trkpt lat="43.3495" lon="2.42528">
        <ele>501</ele>
        <time>2023-05-28T07:33:03Z</time>
      </trkpt>
      <trkpt lat="43.34949" lon="2.42527">
        <ele>501.1</ele>
        <time>2023-05-28T07:33:04Z</time>
      </trkpt>
      <trkpt lat="43.34948" lon="2.42526">
        <ele>501.2</ele>
        <time>2023-05-28T07:33:05Z</time>
      </trkpt>
      <trkpt lat="43.34948" lon="2.42525">
        <ele>501.3</ele>
        <time>2023-05-28T07:33:06Z</time>
      </trkpt>
      <trkpt lat="43.34947" lon="2.42525">
        <ele>501.4</ele>
        <time>2023-05-28T07:33:07Z</time>
      </trkpt>
      <trkpt lat="43.34946" lon="2.42525">
        <ele>501.5</ele>
        <time>2023-05-28T07:33:08Z</time>
      </trkpt>
      <trkpt lat="43.34944" lon="2.42524">
        <ele>501.7</ele>
        <time>2023-05-28T07:33:09Z</time>
      </trkpt>
      <trkpt lat="43.34943" lon="2.42524">
        <ele>501.8</ele>
        <time>2023-05-28T07:33:10Z</time>
      </trkpt>
      <trkpt lat="43.34942" lon="2.42523">
        <ele>501.9</ele>
        <time>2023-05-28T07:33:11Z</time>
      </trkpt>
      <trkpt lat="43.34941" lon="2.42521">
        <ele>502.2</ele>
        <time>2023-05-28T07:33:12Z</time>
      </trkpt>
      <trkpt lat="43.34941" lon="2.4252">
        <ele>502.3</ele>
        <time>2023-05-28T07:33:13Z</time>
      </trkpt>
      <trkpt lat="43.3494" lon="2.42519">
        <ele>502.4</ele>
        <time>2023-05-28T07:33:14Z</time>
      </trkpt>
      <trkpt lat="43.3494" lon="2.42516">
        <ele>502.7</ele>
        <time>2023-05-28T07:33:15Z</time>
      </trkpt>
      <trkpt lat="43.34939" lon="2.42515">
        <ele>502.8</ele>
        <time>2023-05-28T07:33:16Z</time>
      </trkpt>
      <trkpt lat="43.34939" lon="2.42514">
        <ele>502.9</ele>
        <time>2023-05-28T07:33:17Z</time>
      </trkpt>
      <trkpt lat="43.34938" lon="2.42515">
        <ele>503</ele>
        <time>2023-05-28T07:33:18Z</time>
      </trkpt>
      <trkpt lat="43.34936" lon="2.42515">
        <ele>503.2</ele>
        <time>2023-05-28T07:33:19Z</time>
      </trkpt>
      <trkpt lat="43.34935" lon="2.42516">
        <ele>503.4</ele>
        <time>2023-05-28T07:33:20Z</time>
      </trkpt>
      <trkpt lat="43.34933" lon="2.42515">
        <ele>503.6</ele>
        <time>2023-05-28T07:33:21Z</time>
      </trkpt>
      <trkpt lat="43.34932" lon="2.42515">
        <ele>503.9</ele>
        <time>2023-05-28T07:33:22Z</time>
      </trkpt>
      <trkpt lat="43.3493" lon="2.42514">
        <ele>504.2</ele>
        <time>2023-05-28T07:33:23Z</time>
      </trkpt>
      <trkpt lat="43.34929" lon="2.42513">
        <ele>504.3</ele>
        <time>2023-05-28T07:33:24Z</time>
      </trkpt>
      <trkpt lat="43.34927" lon="2.42513">
        <ele>504.5</ele>
        <time>2023-05-28T07:33:25Z</time>
      </trkpt>
      <trkpt lat="43.34926" lon="2.42511">
        <ele>504.8</ele>
        <time>2023-05-28T07:33:26Z</time>
      </trkpt>
      <trkpt lat="43.34925" lon="2.42511">
        <ele>504.9</ele>
        <time>2023-05-28T07:33:27Z</time>
      </trkpt>
      <trkpt lat="43.34925" lon="2.4251">
        <ele>505</ele>
        <time>2023-05-28T07:33:28Z</time>
      </trkpt>
      <trkpt lat="43.34924" lon="2.4251">
        <ele>505.1</ele>
        <time>2023-05-28T07:33:29Z</time>
      </trkpt>
      <trkpt lat="43.34922" lon="2.4251">
        <ele>505.4</ele>
        <time>2023-05-28T07:33:30Z</time>
      </trkpt>
      <trkpt lat="43.34921" lon="2.4251">
        <ele>505.6</ele>
        <time>2023-05-28T07:33:31Z</time>
      </trkpt>
      <trkpt lat="43.34917" lon="2.4251">
        <ele>506.1</ele>
        <time>2023-05-28T07:33:32Z</time>
      </trkpt>
      <trkpt lat="43.34915" lon="2.4251">
        <ele>506.2</ele>
        <time>2023-05-28T07:33:33Z</time>
      </trkpt>
      <trkpt lat="43.34912" lon="2.4251">
        <ele>506.7</ele>
        <time>2023-05-28T07:33:34Z</time>
      </trkpt>
      <trkpt lat="43.34911" lon="2.42511">
        <ele>506.8</ele>
        <time>2023-05-28T07:33:35Z</time>
      </trkpt>
      <trkpt lat="43.34907" lon="2.42512">
        <ele>507.3</ele>
        <time>2023-05-28T07:33:36Z</time>
      </trkpt>
      <trkpt lat="43.34906" lon="2.42513">
        <ele>507.5</ele>
        <time>2023-05-28T07:33:37Z</time>
      </trkpt>
      <trkpt lat="43.34903" lon="2.42513">
        <ele>507.8</ele>
        <time>2023-05-28T07:33:38Z</time>
      </trkpt>
      <trkpt lat="43.34902" lon="2.42513">
        <ele>507.9</ele>
        <time>2023-05-28T07:33:39Z</time>
      </trkpt>
      <trkpt lat="43.34899" lon="2.42514">
        <ele>508.3</ele>
        <time>2023-05-28T07:33:40Z</time>
      </trkpt>
      <trkpt lat="43.34898" lon="2.42514">
        <ele>508.5</ele>
        <time>2023-05-28T07:33:41Z</time>
      </trkpt>
      <trkpt lat="43.34895" lon="2.42513">
        <ele>508.8</ele>
        <time>2023-05-28T07:33:42Z</time>
      </trkpt>
      <trkpt lat="43.34894" lon="2.42513">
        <ele>509</ele>
        <time>2023-05-28T07:33:43Z</time>
      </trkpt>
      <trkpt lat="43.34891" lon="2.42513">
        <ele>509.3</ele>
        <time>2023-05-28T07:33:44Z</time>
      </trkpt>
      <trkpt lat="43.3489" lon="2.42513">
        <ele>509.4</ele>
        <time>2023-05-28T07:33:45Z</time>
      </trkpt>
      <trkpt lat="43.34888" lon="2.42512">
        <ele>509.6</ele>
        <time>2023-05-28T07:33:46Z</time>
      </trkpt>
      <trkpt lat="43.34887" lon="2.42512">
        <ele>509.7</ele>
        <time>2023-05-28T07:33:47Z</time>
      </trkpt>
      <trkpt lat="43.34886" lon="2.4251">
        <ele>509.9</ele>
        <time>2023-05-28T07:33:48Z</time>
      </trkpt>
      <trkpt lat="43.34884" lon="2.42509">
        <ele>510.1</ele>
        <time>2023-05-28T07:33:49Z</time>
      </trkpt>
      <trkpt lat="43.34883" lon="2.42508">
        <ele>510.3</ele>
        <time>2023-05-28T07:33:50Z</time>
      </trkpt>
      <trkpt lat="43.34881" lon="2.42508">
        <ele>510.5</ele>
        <time>2023-05-28T07:33:51Z</time>
      </trkpt>
      <trkpt lat="43.3488" lon="2.42508">
        <ele>510.6</ele>
        <time>2023-05-28T07:33:52Z</time>
      </trkpt>
      <trkpt lat="43.34879" lon="2.42508">
        <ele>510.7</ele>
        <time>2023-05-28T07:33:53Z</time>
      </trkpt>
      <trkpt lat="43.34878" lon="2.42508">
        <ele>510.8</ele>
        <time>2023-05-28T07:33:54Z</time>
      </trkpt>
      <trkpt lat="43.34876" lon="2.42508">
        <ele>511</ele>
        <time>2023-05-28T07:33:55Z</time>
      </trkpt>
      <trkpt lat="43.34875" lon="2.42508">
        <ele>511.2</ele>
        <time>2023-05-28T07:33:56Z</time>
      </trkpt>
      <trkpt lat="43.34874" lon="2.42508">
        <ele>511.3</ele>
        <time>2023-05-28T07:33:57Z</time>
      </trkpt>
      <trkpt lat="43.34874" lon="2.42508">
        <ele>511.3</ele>
        <time>2023-05-28T07:33:58Z</time>
      </trkpt>
      <trkpt lat="43.34873" lon="2.42508">
        <ele>511.4</ele>
        <time>2023-05-28T07:33:59Z</time>
      </trkpt>
      <trkpt lat="43.34873" lon="2.42507">
        <ele>511.4</ele>
        <time>2023-05-28T07:34:00Z</time>
      </trkpt>
      <trkpt lat="43.34872" lon="2.42506">
        <ele>512.2</ele>
        <time>2023-05-28T07:34:01Z</time>
      </trkpt>
      <trkpt lat="43.34871" lon="2.42505">
        <ele>512.5</ele>
        <time>2023-05-28T07:34:02Z</time>
      </trkpt>
      <trkpt lat="43.34869" lon="2.42504">
        <ele>512.8</ele>
        <time>2023-05-28T07:34:03Z</time>
      </trkpt>
      <trkpt lat="43.34868" lon="2.42503">
        <ele>513.1</ele>
        <time>2023-05-28T07:34:04Z</time>
      </trkpt>
      <trkpt lat="43.34868" lon="2.42503">
        <ele>513.2</ele>
        <time>2023-05-28T07:34:05Z</time>
      </trkpt>
      <trkpt lat="43.34867" lon="2.42503">
        <ele>513.3</ele>
        <time>2023-05-28T07:34:06Z</time>
      </trkpt>
      <trkpt lat="43.34867" lon="2.42503">
        <ele>513.3</ele>
        <time>2023-05-28T07:34:07Z</time>
      </trkpt>
      <trkpt lat="43.34866" lon="2.42502">
        <ele>513.6</ele>
        <time>2023-05-28T07:34:08Z</time>
      </trkpt>
      <trkpt lat="43.34864" lon="2.42501">
        <ele>513.8</ele>
        <time>2023-05-28T07:34:09Z</time>
      </trkpt>
      <trkpt lat="43.34864" lon="2.42501">
        <ele>514</ele>
        <time>2023-05-28T07:34:10Z</time>
      </trkpt>
      <trkpt lat="43.34863" lon="2.425">
        <ele>514.2</ele>
        <time>2023-05-28T07:34:11Z</time>
      </trkpt>
      <trkpt lat="43.34862" lon="2.425">
        <ele>514.3</ele>
        <time>2023-05-28T07:34:12Z</time>
      </trkpt>
      <trkpt lat="43.34862" lon="2.42499">
        <ele>514.4</ele>
        <time>2023-05-28T07:34:13Z</time>
      </trkpt>
      <trkpt lat="43.34861" lon="2.42499">
        <ele>514.5</ele>
        <time>2023-05-28T07:34:14Z</time>
      </trkpt>
      <trkpt lat="43.34861" lon="2.42498">
        <ele>514.7</ele>
        <time>2023-05-28T07:34:15Z</time>
      </trkpt>
      <trkpt lat="43.34859" lon="2.42498">
        <ele>514.9</ele>
        <time>2023-05-28T07:34:16Z</time>
      </trkpt>
      <trkpt lat="43.34858" lon="2.42497">
        <ele>515.2</ele>
        <time>2023-05-28T07:34:17Z</time>
      </trkpt>
      <trkpt lat="43.34857" lon="2.42497">
        <ele>515.3</ele>
        <time>2023-05-28T07:34:18Z</time>
      </trkpt>
      <trkpt lat="43.34856" lon="2.42496">
        <ele>515.5</ele>
        <time>2023-05-28T07:34:19Z</time>
      </trkpt>
      <trkpt lat="43.34854" lon="2.42496">
        <ele>515.7</ele>
        <time>2023-05-28T07:34:20Z</time>
      </trkpt>
      <trkpt lat="43.34852" lon="2.42495">
        <ele>516</ele>
        <time>2023-05-28T07:34:21Z</time>
      </trkpt>
      <trkpt lat="43.34851" lon="2.42495">
        <ele>516.2</ele>
        <time>2023-05-28T07:34:22Z</time>
      </trkpt>
      <trkpt lat="43.3485" lon="2.42494">
        <ele>516.4</ele>
        <time>2023-05-28T07:34:23Z</time>
      </trkpt>
      <trkpt lat="43.34848" lon="2.42493">
        <ele>516.6</ele>
        <time>2023-05-28T07:34:24Z</time>
      </trkpt>
      <trkpt lat="43.34845" lon="2.42492">
        <ele>517</ele>
        <time>2023-05-28T07:34:25Z</time>
      </trkpt>
      <trkpt lat="43.34844" lon="2.42492">
        <ele>517.2</ele>
        <time>2023-05-28T07:34:26Z</time>
      </trkpt>
      <trkpt lat="43.34842" lon="2.42491">
        <ele>517.4</ele>
        <time>2023-05-28T07:34:27Z</time>
      </trkpt>
      <trkpt lat="43.3484" lon="2.42492">
        <ele>517.5</ele>
        <time>2023-05-28T07:34:28Z</time>
      </trkpt>
      <trkpt lat="43.34839" lon="2.42492">
        <ele>517.7</ele>
        <time>2023-05-28T07:34:29Z</time>
      </trkpt>
      <trkpt lat="43.34837" lon="2.42492">
        <ele>517.9</ele>
        <time>2023-05-28T07:34:30Z</time>
      </trkpt>
      <trkpt lat="43.34835" lon="2.4249">
        <ele>518.1</ele>
        <time>2023-05-28T07:34:31Z</time>
      </trkpt>
      <trkpt lat="43.34834" lon="2.4249">
        <ele>518.2</ele>
        <time>2023-05-28T07:34:32Z</time>
      </trkpt>
      <trkpt lat="43.34831" lon="2.42487">
        <ele>518.6</ele>
        <time>2023-05-28T07:34:33Z</time>
      </trkpt>
      <trkpt lat="43.3483" lon="2.42486">
        <ele>518.7</ele>
        <time>2023-05-28T07:34:34Z</time>
      </trkpt>
      <trkpt lat="43.34829" lon="2.42485">
        <ele>518.9</ele>
        <time>2023-05-28T07:34:35Z</time>
      </trkpt>
      <trkpt lat="43.34829" lon="2.42483">
        <ele>519</ele>
        <time>2023-05-28T07:34:36Z</time>
      </trkpt>
      <trkpt lat="43.34829" lon="2.42482">
        <ele>519.2</ele>
        <time>2023-05-28T07:34:37Z</time>
      </trkpt>
      <trkpt lat="43.34829" lon="2.42479">
        <ele>519.4</ele>
        <time>2023-05-28T07:34:38Z</time>
      </trkpt>
      <trkpt lat="43.34829" lon="2.42477">
        <ele>519.5</ele>
        <time>2023-05-28T07:34:39Z</time>
      </trkpt>
      <trkpt lat="43.34829" lon="2.42476">
        <ele>519.6</ele>
        <time>2023-05-28T07:34:40Z</time>
      </trkpt>
      <trkpt lat="43.34829" lon="2.42474">
        <ele>519.8</ele>
        <time>2023-05-28T07:34:41Z</time>
      </trkpt>
      <trkpt lat="43.34829" lon="2.42472">
        <ele>520</ele>
        <time>2023-05-28T07:34:42Z</time>
      </trkpt>
      <trkpt lat="43.34829" lon="2.42471">
        <ele>520.1</ele>
        <time>2023-05-28T07:34:43Z</time>
      </trkpt>
      <trkpt lat="43.34828" lon="2.42468">
        <ele>520.3</ele>
        <time>2023-05-28T07:34:44Z</time>
      </trkpt>
      <trkpt lat="43.34827" lon="2.42467">
        <ele>520.4</ele>
        <time>2023-05-28T07:34:45Z</time>
      </trkpt>
      <trkpt lat="43.34827" lon="2.42465">
        <ele>520.6</ele>
        <time>2023-05-28T07:34:46Z</time>
      </trkpt>
      <trkpt lat="43.34826" lon="2.42461">
        <ele>521</ele>
        <time>2023-05-28T07:34:47Z</time>
      </trkpt>
      <trkpt lat="43.34825" lon="2.42459">
        <ele>521.1</ele>
        <time>2023-05-28T07:34:48Z</time>
      </trkpt>
      <trkpt lat="43.34825" lon="2.42457">
        <ele>521.3</ele>
        <time>2023-05-28T07:34:49Z</time>
      </trkpt>
      <trkpt lat="43.34825" lon="2.42455">
        <ele>521.4</ele>
        <time>2023-05-28T07:34:50Z</time>
      </trkpt>
      <trkpt lat="43.34826" lon="2.42451">
        <ele>521.7</ele>
        <time>2023-05-28T07:34:51Z</time>
      </trkpt>
      <trkpt lat="43.34826" lon="2.4245">
        <ele>523.2</ele>
        <time>2023-05-28T07:34:52Z</time>
      </trkpt>
      <trkpt lat="43.34827" lon="2.42446">
        <ele>523.4</ele>
        <time>2023-05-28T07:34:53Z</time>
      </trkpt>
      <trkpt lat="43.34828" lon="2.42445">
        <ele>523.5</ele>
        <time>2023-05-28T07:34:54Z</time>
      </trkpt>
      <trkpt lat="43.3483" lon="2.42442">
        <ele>523.8</ele>
        <time>2023-05-28T07:34:55Z</time>
      </trkpt>
      <trkpt lat="43.34831" lon="2.42441">
        <ele>523.8</ele>
        <time>2023-05-28T07:34:56Z</time>
      </trkpt>
      <trkpt lat="43.34832" lon="2.4244">
        <ele>524</ele>
        <time>2023-05-28T07:34:57Z</time>
      </trkpt>
      <trkpt lat="43.34833" lon="2.42438">
        <ele>524.1</ele>
        <time>2023-05-28T07:34:58Z</time>
      </trkpt>
      <trkpt lat="43.34834" lon="2.42437">
        <ele>524.2</ele>
        <time>2023-05-28T07:34:59Z</time>
      </trkpt>
      <trkpt lat="43.34835" lon="2.42436">
        <ele>524.3</ele>
        <time>2023-05-28T07:35:00Z</time>
      </trkpt>
      <trkpt lat="43.34836" lon="2.42436">
        <ele>524.4</ele>
        <time>2023-05-28T07:35:01Z</time>
      </trkpt>
      <trkpt lat="43.34838" lon="2.42434">
        <ele>524.7</ele>
        <time>2023-05-28T07:35:02Z</time>
      </trkpt>
      <trkpt lat="43.34839" lon="2.42433">
        <ele>524.8</ele>
        <time>2023-05-28T07:35:03Z</time>
      </trkpt>
      <trkpt lat="43.3484" lon="2.42432">
        <ele>524.9</ele>
        <time>2023-05-28T07:35:04Z</time>
      </trkpt>
      <trkpt lat="43.34841" lon="2.42431">
        <ele>525</ele>
        <time>2023-05-28T07:35:05Z</time>
      </trkpt>
      <trkpt lat="43.34842" lon="2.42429">
        <ele>525.1</ele>
        <time>2023-05-28T07:35:06Z</time>
      </trkpt>
      <trkpt lat="43.34843" lon="2.42428">
        <ele>525.3</ele>
        <time>2023-05-28T07:35:07Z</time>
      </trkpt>
      <trkpt lat="43.34844" lon="2.42426">
        <ele>525.5</ele>
        <time>2023-05-28T07:35:08Z</time>
      </trkpt>
      <trkpt lat="43.34845" lon="2.42424">
        <ele>525.6</ele>
        <time>2023-05-28T07:35:09Z</time>
      </trkpt>
      <trkpt lat="43.34845" lon="2.42423">
        <ele>525.6</ele>
        <time>2023-05-28T07:35:10Z</time>
      </trkpt>
      <trkpt lat="43.34846" lon="2.42422">
        <ele>525.8</ele>
        <time>2023-05-28T07:35:11Z</time>
      </trkpt>
      <trkpt lat="43.34846" lon="2.4242">
        <ele>526</ele>
        <time>2023-05-28T07:35:12Z</time>
      </trkpt>
      <trkpt lat="43.34847" lon="2.42418">
        <ele>526.1</ele>
        <time>2023-05-28T07:35:13Z</time>
      </trkpt>
      <trkpt lat="43.34847" lon="2.42416">
        <ele>526.2</ele>
        <time>2023-05-28T07:35:14Z</time>
      </trkpt>
      <trkpt lat="43.34848" lon="2.42415">
        <ele>526.4</ele>
        <time>2023-05-28T07:35:15Z</time>
      </trkpt>
      <trkpt lat="43.34849" lon="2.42413">
        <ele>526.6</ele>
        <time>2023-05-28T07:35:16Z</time>
      </trkpt>
      <trkpt lat="43.3485" lon="2.42412">
        <ele>526.7</ele>
        <time>2023-05-28T07:35:17Z</time>
      </trkpt>
      <trkpt lat="43.34851" lon="2.42411">
        <ele>526.9</ele>
        <time>2023-05-28T07:35:18Z</time>
      </trkpt>
      <trkpt lat="43.34853" lon="2.42409">
        <ele>527.2</ele>
        <time>2023-05-28T07:35:19Z</time>
      </trkpt>
      <trkpt lat="43.34854" lon="2.42408">
        <ele>527.3</ele>
        <time>2023-05-28T07:35:20Z</time>
      </trkpt>
      <trkpt lat="43.34855" lon="2.42407">
        <ele>527.6</ele>
        <time>2023-05-28T07:35:21Z</time>
      </trkpt>
      <trkpt lat="43.34856" lon="2.42407">
        <ele>527.8</ele>
        <time>2023-05-28T07:35:22Z</time>
      </trkpt>
      <trkpt lat="43.34857" lon="2.42406">
        <ele>527.9</ele>
        <time>2023-05-28T07:35:23Z</time>
      </trkpt>
      <trkpt lat="43.34858" lon="2.42405">
        <ele>528</ele>
        <time>2023-05-28T07:35:24Z</time>
      </trkpt>
      <trkpt lat="43.34859" lon="2.42404">
        <ele>528.2</ele>
        <time>2023-05-28T07:35:25Z</time>
      </trkpt>
      <trkpt lat="43.3486" lon="2.42402">
        <ele>528.5</ele>
        <time>2023-05-28T07:35:26Z</time>
      </trkpt>
      <trkpt lat="43.34861" lon="2.42401">
        <ele>528.7</ele>
        <time>2023-05-28T07:35:27Z</time>
      </trkpt>
      <trkpt lat="43.34861" lon="2.42399">
        <ele>528.9</ele>
        <time>2023-05-28T07:35:28Z</time>
      </trkpt>
      <trkpt lat="43.34862" lon="2.42398">
        <ele>529.1</ele>
        <time>2023-05-28T07:35:29Z</time>
      </trkpt>
      <trkpt lat="43.34863" lon="2.42397">
        <ele>529.2</ele>
        <time>2023-05-28T07:35:30Z</time>
      </trkpt>
      <trkpt lat="43.34863" lon="2.42396">
        <ele>529.4</ele>
        <time>2023-05-28T07:35:31Z</time>
      </trkpt>
      <trkpt lat="43.34865" lon="2.42395">
        <ele>529.7</ele>
        <time>2023-05-28T07:35:32Z</time>
      </trkpt>
      <trkpt lat="43.34866" lon="2.42394">
        <ele>529.8</ele>
        <time>2023-05-28T07:35:33Z</time>
      </trkpt>
      <trkpt lat="43.34867" lon="2.42393">
        <ele>530</ele>
        <time>2023-05-28T07:35:34Z</time>
      </trkpt>
      <trkpt lat="43.34868" lon="2.42391">
        <ele>530.3</ele>
        <time>2023-05-28T07:35:35Z</time>
      </trkpt>
      <trkpt lat="43.34869" lon="2.4239">
        <ele>530.5</ele>
        <time>2023-05-28T07:35:36Z</time>
      </trkpt>
      <trkpt lat="43.34869" lon="2.42389">
        <ele>530.7</ele>
        <time>2023-05-28T07:35:37Z</time>
      </trkpt>
      <trkpt lat="43.3487" lon="2.42389">
        <ele>530.9</ele>
        <time>2023-05-28T07:35:38Z</time>
      </trkpt>
      <trkpt lat="43.34871" lon="2.42388">
        <ele>531</ele>
        <time>2023-05-28T07:35:39Z</time>
      </trkpt>
      <trkpt lat="43.34872" lon="2.42387">
        <ele>531.2</ele>
        <time>2023-05-28T07:35:40Z</time>
      </trkpt>
      <trkpt lat="43.34873" lon="2.42386">
        <ele>531.4</ele>
        <time>2023-05-28T07:35:41Z</time>
      </trkpt>
      <trkpt lat="43.34873" lon="2.42385">
        <ele>531.5</ele>
        <time>2023-05-28T07:35:42Z</time>
      </trkpt>
      <trkpt lat="43.34874" lon="2.42384">
        <ele>531.7</ele>
        <time>2023-05-28T07:35:43Z</time>
      </trkpt>
      <trkpt lat="43.34875" lon="2.42382">
        <ele>532.1</ele>
        <time>2023-05-28T07:35:44Z</time>
      </trkpt>
      <trkpt lat="43.34876" lon="2.42381">
        <ele>532.2</ele>
        <time>2023-05-28T07:35:45Z</time>
      </trkpt>
      <trkpt lat="43.34876" lon="2.42379">
        <ele>532.4</ele>
        <time>2023-05-28T07:35:46Z</time>
      </trkpt>
      <trkpt lat="43.34877" lon="2.42378">
        <ele>532.7</ele>
        <time>2023-05-28T07:35:47Z</time>
      </trkpt>
      <trkpt lat="43.34878" lon="2.42377">
        <ele>533</ele>
        <time>2023-05-28T07:35:48Z</time>
      </trkpt>
      <trkpt lat="43.3488" lon="2.42376">
        <ele>533.4</ele>
        <time>2023-05-28T07:35:49Z</time>
      </trkpt>
      <trkpt lat="43.34881" lon="2.42375">
        <ele>533.6</ele>
        <time>2023-05-28T07:35:50Z</time>
      </trkpt>
      <trkpt lat="43.34882" lon="2.42374">
        <ele>533.7</ele>
        <time>2023-05-28T07:35:51Z</time>
      </trkpt>
      <trkpt lat="43.34883" lon="2.42373">
        <ele>534</ele>
        <time>2023-05-28T07:35:52Z</time>
      </trkpt>
      <trkpt lat="43.34884" lon="2.42372">
        <ele>534.2</ele>
        <time>2023-05-28T07:35:53Z</time>
      </trkpt>
      <trkpt lat="43.34885" lon="2.4237">
        <ele>534.5</ele>
        <time>2023-05-28T07:35:54Z</time>
      </trkpt>
      <trkpt lat="43.34886" lon="2.42368">
        <ele>534.9</ele>
        <time>2023-05-28T07:35:55Z</time>
      </trkpt>
      <trkpt lat="43.34887" lon="2.42364">
        <ele>535.4</ele>
        <time>2023-05-28T07:35:56Z</time>
      </trkpt>
      <trkpt lat="43.34887" lon="2.42363">
        <ele>535.4</ele>
        <time>2023-05-28T07:35:57Z</time>
      </trkpt>
      <trkpt lat="43.34888" lon="2.42361">
        <ele>535.4</ele>
        <time>2023-05-28T07:35:58Z</time>
      </trkpt>
      <trkpt lat="43.34889" lon="2.42359">
        <ele>535.4</ele>
        <time>2023-05-28T07:35:59Z</time>
      </trkpt>
      <trkpt lat="43.34889" lon="2.42356">
        <ele>535.5</ele>
        <time>2023-05-28T07:36:00Z</time>
      </trkpt>
      <trkpt lat="43.34889" lon="2.42355">
        <ele>535.6</ele>
        <time>2023-05-28T07:36:01Z</time>
      </trkpt>
      <trkpt lat="43.34889" lon="2.42354">
        <ele>535.6</ele>
        <time>2023-05-28T07:36:02Z</time>
      </trkpt>
      <trkpt lat="43.34888" lon="2.42352">
        <ele>535.7</ele>
        <time>2023-05-28T07:36:03Z</time>
      </trkpt>
      <trkpt lat="43.34888" lon="2.42351">
        <ele>535.8</ele>
        <time>2023-05-28T07:36:04Z</time>
      </trkpt>
      <trkpt lat="43.34887" lon="2.42349">
        <ele>535.9</ele>
        <time>2023-05-28T07:36:05Z</time>
      </trkpt>
      <trkpt lat="43.34886" lon="2.42348">
        <ele>535.9</ele>
        <time>2023-05-28T07:36:06Z</time>
      </trkpt>
      <trkpt lat="43.34886" lon="2.42347">
        <ele>536</ele>
        <time>2023-05-28T07:36:07Z</time>
      </trkpt>
      <trkpt lat="43.34886" lon="2.42346">
        <ele>536.1</ele>
        <time>2023-05-28T07:36:08Z</time>
      </trkpt>
      <trkpt lat="43.34885" lon="2.42345">
        <ele>536.1</ele>
        <time>2023-05-28T07:36:09Z</time>
      </trkpt>
      <trkpt lat="43.34885" lon="2.42343">
        <ele>536.2</ele>
        <time>2023-05-28T07:36:10Z</time>
      </trkpt>
      <trkpt lat="43.34885" lon="2.42342">
        <ele>536.3</ele>
        <time>2023-05-28T07:36:11Z</time>
      </trkpt>
      <trkpt lat="43.34885" lon="2.4234">
        <ele>536.3</ele>
        <time>2023-05-28T07:36:12Z</time>
      </trkpt>
      <trkpt lat="43.34885" lon="2.42339">
        <ele>536.4</ele>
        <time>2023-05-28T07:36:13Z</time>
      </trkpt>
      <trkpt lat="43.34885" lon="2.42337">
        <ele>536.5</ele>
        <time>2023-05-28T07:36:14Z</time>
      </trkpt>
      <trkpt lat="43.34885" lon="2.42336">
        <ele>536.5</ele>
        <time>2023-05-28T07:36:15Z</time>
      </trkpt>
      <trkpt lat="43.34885" lon="2.42334">
        <ele>536.6</ele>
        <time>2023-05-28T07:36:16Z</time>
      </trkpt>
      <trkpt lat="43.34885" lon="2.42333">
        <ele>536.7</ele>
        <time>2023-05-28T07:36:17Z</time>
      </trkpt>
      <trkpt lat="43.34885" lon="2.4233">
        <ele>536.8</ele>
        <time>2023-05-28T07:36:18Z</time>
      </trkpt>
      <trkpt lat="43.34885" lon="2.42329">
        <ele>536.9</ele>
        <time>2023-05-28T07:36:19Z</time>
      </trkpt>
      <trkpt lat="43.34885" lon="2.42328">
        <ele>536.9</ele>
        <time>2023-05-28T07:36:20Z</time>
      </trkpt>
      <trkpt lat="43.34885" lon="2.42325">
        <ele>537</ele>
        <time>2023-05-28T07:36:21Z</time>
      </trkpt>
      <trkpt lat="43.34885" lon="2.42324">
        <ele>537.1</ele>
        <time>2023-05-28T07:36:22Z</time>
      </trkpt>
      <trkpt lat="43.34885" lon="2.42323">
        <ele>537.1</ele>
        <time>2023-05-28T07:36:23Z</time>
      </trkpt>
      <trkpt lat="43.34885" lon="2.42321">
        <ele>537.2</ele>
        <time>2023-05-28T07:36:24Z</time>
      </trkpt>
      <trkpt lat="43.34884" lon="2.42319">
        <ele>537.3</ele>
        <time>2023-05-28T07:36:25Z</time>
      </trkpt>
      <trkpt lat="43.34884" lon="2.42318">
        <ele>537.4</ele>
        <time>2023-05-28T07:36:26Z</time>
      </trkpt>
      <trkpt lat="43.34883" lon="2.42317">
        <ele>537.4</ele>
        <time>2023-05-28T07:36:27Z</time>
      </trkpt>
      <trkpt lat="43.34883" lon="2.42317">
        <ele>537.4</ele>
        <time>2023-05-28T07:36:28Z</time>
      </trkpt>
      <trkpt lat="43.34883" lon="2.42316">
        <ele>537.5</ele>
        <time>2023-05-28T07:36:29Z</time>
      </trkpt>
      <trkpt lat="43.34883" lon="2.42316">
        <ele>537.5</ele>
        <time>2023-05-28T07:36:30Z</time>
      </trkpt>
      <trkpt lat="43.34882" lon="2.42316">
        <ele>537.5</ele>
        <time>2023-05-28T07:36:31Z</time>
      </trkpt>
      <trkpt lat="43.34882" lon="2.42315">
        <ele>537.5</ele>
        <time>2023-05-28T07:36:32Z</time>
      </trkpt>
      <trkpt lat="43.34882" lon="2.42314">
        <ele>537.6</ele>
        <time>2023-05-28T07:36:33Z</time>
      </trkpt>
      <trkpt lat="43.34882" lon="2.42314">
        <ele>537.6</ele>
        <time>2023-05-28T07:36:34Z</time>
      </trkpt>
      <trkpt lat="43.34881" lon="2.42313">
        <ele>537.6</ele>
        <time>2023-05-28T07:36:35Z</time>
      </trkpt>
      <trkpt lat="43.3488" lon="2.42312">
        <ele>537.7</ele>
        <time>2023-05-28T07:36:36Z</time>
      </trkpt>
      <trkpt lat="43.3488" lon="2.42311">
        <ele>537.7</ele>
        <time>2023-05-28T07:36:37Z</time>
      </trkpt>
      <trkpt lat="43.34879" lon="2.42311">
        <ele>537.8</ele>
        <time>2023-05-28T07:36:38Z</time>
      </trkpt>
      <trkpt lat="43.34878" lon="2.4231">
        <ele>537.9</ele>
        <time>2023-05-28T07:36:39Z</time>
      </trkpt>
      <trkpt lat="43.34877" lon="2.42309">
        <ele>537.9</ele>
        <time>2023-05-28T07:36:40Z</time>
      </trkpt>
      <trkpt lat="43.34877" lon="2.42308">
        <ele>538</ele>
        <time>2023-05-28T07:36:41Z</time>
      </trkpt>
      <trkpt lat="43.34876" lon="2.42306">
        <ele>538.1</ele>
        <time>2023-05-28T07:36:42Z</time>
      </trkpt>
      <trkpt lat="43.34876" lon="2.42305">
        <ele>538.1</ele>
        <time>2023-05-28T07:36:43Z</time>
      </trkpt>
      <trkpt lat="43.34876" lon="2.42303">
        <ele>538.2</ele>
        <time>2023-05-28T07:36:44Z</time>
      </trkpt>
      <trkpt lat="43.34876" lon="2.42302">
        <ele>538.3</ele>
        <time>2023-05-28T07:36:45Z</time>
      </trkpt>
      <trkpt lat="43.34876" lon="2.42301">
        <ele>538.3</ele>
        <time>2023-05-28T07:36:46Z</time>
      </trkpt>
      <trkpt lat="43.34876" lon="2.42298">
        <ele>538.5</ele>
        <time>2023-05-28T07:36:47Z</time>
      </trkpt>
      <trkpt lat="43.34876" lon="2.42297">
        <ele>538.5</ele>
        <time>2023-05-28T07:36:48Z</time>
      </trkpt>
      <trkpt lat="43.34876" lon="2.42295">
        <ele>538.6</ele>
        <time>2023-05-28T07:36:49Z</time>
      </trkpt>
      <trkpt lat="43.34875" lon="2.42293">
        <ele>538.7</ele>
        <time>2023-05-28T07:36:50Z</time>
      </trkpt>
      <trkpt lat="43.34874" lon="2.42291">
        <ele>538.8</ele>
        <time>2023-05-28T07:36:51Z</time>
      </trkpt>
      <trkpt lat="43.34874" lon="2.42288">
        <ele>539</ele>
        <time>2023-05-28T07:36:52Z</time>
      </trkpt>
      <trkpt lat="43.34873" lon="2.42286">
        <ele>539.1</ele>
        <time>2023-05-28T07:36:53Z</time>
      </trkpt>
      <trkpt lat="43.34873" lon="2.42284">
        <ele>539.2</ele>
        <time>2023-05-28T07:36:54Z</time>
      </trkpt>
      <trkpt lat="43.34873" lon="2.42282">
        <ele>539.3</ele>
        <time>2023-05-28T07:36:55Z</time>
      </trkpt>
      <trkpt lat="43.34873" lon="2.42279">
        <ele>539.4</ele>
        <time>2023-05-28T07:36:56Z</time>
      </trkpt>
      <trkpt lat="43.34873" lon="2.42277">
        <ele>539.5</ele>
        <time>2023-05-28T07:36:57Z</time>
      </trkpt>
      <trkpt lat="43.34872" lon="2.42273">
        <ele>539.7</ele>
        <time>2023-05-28T07:36:58Z</time>
      </trkpt>
      <trkpt lat="43.34872" lon="2.42272">
        <ele>539.8</ele>
        <time>2023-05-28T07:36:59Z</time>
      </trkpt>
      <trkpt lat="43.34872" lon="2.4227">
        <ele>539.9</ele>
        <time>2023-05-28T07:37:00Z</time>
      </trkpt>
      <trkpt lat="43.34872" lon="2.42267">
        <ele>540.1</ele>
        <time>2023-05-28T07:37:01Z</time>
      </trkpt>
      <trkpt lat="43.34871" lon="2.42265">
        <ele>540.2</ele>
        <time>2023-05-28T07:37:02Z</time>
      </trkpt>
      <trkpt lat="43.34871" lon="2.42262">
        <ele>540.4</ele>
        <time>2023-05-28T07:37:03Z</time>
      </trkpt>
      <trkpt lat="43.34871" lon="2.4226">
        <ele>540.5</ele>
        <time>2023-05-28T07:37:04Z</time>
      </trkpt>
      <trkpt lat="43.3487" lon="2.42258">
        <ele>540.6</ele>
        <time>2023-05-28T07:37:05Z</time>
      </trkpt>
      <trkpt lat="43.3487" lon="2.42256">
        <ele>540.7</ele>
        <time>2023-05-28T07:37:06Z</time>
      </trkpt>
      <trkpt lat="43.34869" lon="2.42255">
        <ele>540.8</ele>
        <time>2023-05-28T07:37:07Z</time>
      </trkpt>
      <trkpt lat="43.34869" lon="2.42253">
        <ele>541</ele>
        <time>2023-05-28T07:37:08Z</time>
      </trkpt>
      <trkpt lat="43.34868" lon="2.42251">
        <ele>541.1</ele>
        <time>2023-05-28T07:37:09Z</time>
      </trkpt>
      <trkpt lat="43.34868" lon="2.42249">
        <ele>541.2</ele>
        <time>2023-05-28T07:37:10Z</time>
      </trkpt>
      <trkpt lat="43.34867" lon="2.42248">
        <ele>541.3</ele>
        <time>2023-05-28T07:37:11Z</time>
      </trkpt>
      <trkpt lat="43.34867" lon="2.42247">
        <ele>541.4</ele>
        <time>2023-05-28T07:37:12Z</time>
      </trkpt>
      <trkpt lat="43.34866" lon="2.42246">
        <ele>541.4</ele>
        <time>2023-05-28T07:37:13Z</time>
      </trkpt>
      <trkpt lat="43.34865" lon="2.42245">
        <ele>541.5</ele>
        <time>2023-05-28T07:37:14Z</time>
      </trkpt>
      <trkpt lat="43.34865" lon="2.42244">
        <ele>541.6</ele>
        <time>2023-05-28T07:37:15Z</time>
      </trkpt>
      <trkpt lat="43.34864" lon="2.42242">
        <ele>541.7</ele>
        <time>2023-05-28T07:37:16Z</time>
      </trkpt>
      <trkpt lat="43.34864" lon="2.42242">
        <ele>541.7</ele>
        <time>2023-05-28T07:37:17Z</time>
      </trkpt>
      <trkpt lat="43.34864" lon="2.42241">
        <ele>541.8</ele>
        <time>2023-05-28T07:37:18Z</time>
      </trkpt>
      <trkpt lat="43.34864" lon="2.42241">
        <ele>541.8</ele>
        <time>2023-05-28T07:37:19Z</time>
      </trkpt>
      <trkpt lat="43.34864" lon="2.4224">
        <ele>541.8</ele>
        <time>2023-05-28T07:37:20Z</time>
      </trkpt>
      <trkpt lat="43.34864" lon="2.4224">
        <ele>541.8</ele>
        <time>2023-05-28T07:37:21Z</time>
      </trkpt>
      <trkpt lat="43.34864" lon="2.4224">
        <ele>541.8</ele>
        <time>2023-05-28T07:37:22Z</time>
      </trkpt>
      <trkpt lat="43.34864" lon="2.4224">
        <ele>541.9</ele>
        <time>2023-05-28T07:37:23Z</time>
      </trkpt>
      <trkpt lat="43.34864" lon="2.42239">
        <ele>541.9</ele>
        <time>2023-05-28T07:37:24Z</time>
      </trkpt>
      <trkpt lat="43.34864" lon="2.42239">
        <ele>542</ele>
        <time>2023-05-28T07:37:25Z</time>
      </trkpt>
      <trkpt lat="43.34864" lon="2.42239">
        <ele>542</ele>
        <time>2023-05-28T07:37:26Z</time>
      </trkpt>
      <trkpt lat="43.34863" lon="2.42239">
        <ele>542</ele>
        <time>2023-05-28T07:37:27Z</time>
      </trkpt>
      <trkpt lat="43.34863" lon="2.42239">
        <ele>542</ele>
        <time>2023-05-28T07:37:28Z</time>
      </trkpt>
      <trkpt lat="43.34863" lon="2.42238">
        <ele>542</ele>
        <time>2023-05-28T07:37:29Z</time>
      </trkpt>
      <trkpt lat="43.34863" lon="2.42238">
        <ele>542</ele>
        <time>2023-05-28T07:37:30Z</time>
      </trkpt>
      <trkpt lat="43.34863" lon="2.42238">
        <ele>542.1</ele>
        <time>2023-05-28T07:37:31Z</time>
      </trkpt>
      <trkpt lat="43.34863" lon="2.42237">
        <ele>542.1</ele>
        <time>2023-05-28T07:37:32Z</time>
      </trkpt>
      <trkpt lat="43.34863" lon="2.42237">
        <ele>542.1</ele>
        <time>2023-05-28T07:37:33Z</time>
      </trkpt>
      <trkpt lat="43.34863" lon="2.42237">
        <ele>542.1</ele>
        <time>2023-05-28T07:37:34Z</time>
      </trkpt>
      <trkpt lat="43.34863" lon="2.42237">
        <ele>542.1</ele>
        <time>2023-05-28T07:37:35Z</time>
      </trkpt>
      <trkpt lat="43.34863" lon="2.42237">
        <ele>542.1</ele>
        <time>2023-05-28T07:37:36Z</time>
      </trkpt>
      <trkpt lat="43.34863" lon="2.42237">
        <ele>542.1</ele>
        <time>2023-05-28T07:37:37Z</time>
      </trkpt>
      <trkpt lat="43.34863" lon="2.42237">
        <ele>542.1</ele>
        <time>2023-05-28T07:37:38Z</time>
      </trkpt>
      <trkpt lat="43.34863" lon="2.42237">
        <ele>542.1</ele>
        <time>2023-05-28T07:37:39Z</time>
      </trkpt>
      <trkpt lat="43.34863" lon="2.42237">
        <ele>542.1</ele>
        <time>2023-05-28T07:37:40Z</time>
      </trkpt>
      <trkpt lat="43.34863" lon="2.42237">
        <ele>542.1</ele>
        <time>2023-05-28T07:37:41Z</time>
      </trkpt>
      <trkpt lat="43.34863" lon="2.42237">
        <ele>542.1</ele>
        <time>2023-05-28T07:37:42Z</time>
      </trkpt>
      <trkpt lat="43.34863" lon="2.42237">
        <ele>542.1</ele>
        <time>2023-05-28T07:37:43Z</time>
      </trkpt>
      <trkpt lat="43.34863" lon="2.42237">
        <ele>542.1</ele>
        <time>2023-05-28T07:37:44Z</time>
      </trkpt>
      <trkpt lat="43.34863" lon="2.42237">
        <ele>542.1</ele>
        <time>2023-05-28T07:37:45Z</time>
      </trkpt>
      <trkpt lat="43.34863" lon="2.42237">
        <ele>542.1</ele>
        <time>2023-05-28T07:37:46Z</time>
      </trkpt>
      <trkpt lat="43.34863" lon="2.42237">
        <ele>542.1</ele>
        <time>2023-05-28T07:37:47Z</time>
      </trkpt>
      <trkpt lat="43.34863" lon="2.42237">
        <ele>542.1</ele>
        <time>2023-05-28T07:37:48Z</time>
      </trkpt>
      <trkpt lat="43.34863" lon="2.42237">
        <ele>542.1</ele>
        <time>2023-05-28T07:37:49Z</time>
      </trkpt>
      <trkpt lat="43.34863" lon="2.42237">
        <ele>542.1</ele>
        <time>2023-05-28T07:37:50Z</time>
      </trkpt>
      <trkpt lat="43.34863" lon="2.42237">
        <ele>542.1</ele>
        <time>2023-05-28T07:37:51Z</time>
      </trkpt>
      <trkpt lat="43.34863" lon="2.42237">
        <ele>542.1</ele>
        <time>2023-05-28T07:37:52Z</time>
      </trkpt>
      <trkpt lat="43.34863" lon="2.42237">
        <ele>542.1</ele>
        <time>2023-05-28T07:37:53Z</time>
      </trkpt>
      <trkpt lat="43.34863" lon="2.42237">
        <ele>542.1</ele>
        <time>2023-05-28T07:37:54Z</time>
      </trkpt>
      <trkpt lat="43.34863" lon="2.42237">
        <ele>542.1</ele>
        <time>2023-05-28T07:37:55Z</time>
      </trkpt>
      <trkpt lat="43.34863" lon="2.42237">
        <ele>542.1</ele>
        <time>2023-05-28T07:37:56Z</time>
      </trkpt>
      <trkpt lat="43.34863" lon="2.42237">
        <ele>542.1</ele>
        <time>2023-05-28T07:37:57Z</time>
      </trkpt>
      <trkpt lat="43.34863" lon="2.42237">
        <ele>542.1</ele>
        <time>2023-05-28T07:37:58Z</time>
      </trkpt>
      <trkpt lat="43.34863" lon="2.42237">
        <ele>542.1</ele>
        <time>2023-05-28T07:37:59Z</time>
      </trkpt>
      <trkpt lat="43.34863" lon="2.42237">
        <ele>542.1</ele>
        <time>2023-05-28T07:38:00Z</time>
      </trkpt>
      <trkpt lat="43.34863" lon="2.42237">
        <ele>542.1</ele>
        <time>2023-05-28T07:38:01Z</time>
      </trkpt>
      <trkpt lat="43.34863" lon="2.42237">
        <ele>542.1</ele>
        <time>2023-05-28T07:38:02Z</time>
      </trkpt>
      <trkpt lat="43.34863" lon="2.42237">
        <ele>542.1</ele>
        <time>2023-05-28T07:38:03Z</time>
      </trkpt>
      <trkpt lat="43.34863" lon="2.42237">
        <ele>542.1</ele>
        <time>2023-05-28T07:38:04Z</time>
      </trkpt>
      <trkpt lat="43.34863" lon="2.42237">
        <ele>542.1</ele>
        <time>2023-05-28T07:38:05Z</time>
      </trkpt>
      <trkpt lat="43.34863" lon="2.42237">
        <ele>542.1</ele>
        <time>2023-05-28T07:38:06Z</time>
      </trkpt>
      <trkpt lat="43.34863" lon="2.42237">
        <ele>542.1</ele>
        <time>2023-05-28T07:38:07Z</time>
      </trkpt>
      <trkpt lat="43.34863" lon="2.42237">
        <ele>542.1</ele>
        <time>2023-05-28T07:38:08Z</time>
      </trkpt>
      <trkpt lat="43.34863" lon="2.42237">
        <ele>542.1</ele>
        <time>2023-05-28T07:38:09Z</time>
      </trkpt>
      <trkpt lat="43.34863" lon="2.42237">
        <ele>542.1</ele>
        <time>2023-05-28T07:38:10Z</time>
      </trkpt>
      <trkpt lat="43.34863" lon="2.42237">
        <ele>542.1</ele>
        <time>2023-05-28T07:38:11Z</time>
      </trkpt>
      <trkpt lat="43.34863" lon="2.42237">
        <ele>542.1</ele>
        <time>2023-05-28T07:38:12Z</time>
      </trkpt>
      <trkpt lat="43.34863" lon="2.42237">
        <ele>542.1</ele>
        <time>2023-05-28T07:38:13Z</time>
      </trkpt>
      <trkpt lat="43.34863" lon="2.42237">
        <ele>542.1</ele>
        <time>2023-05-28T07:38:14Z</time>
      </trkpt>
      <trkpt lat="43.34863" lon="2.42237">
        <ele>542.1</ele>
        <time>2023-05-28T07:38:15Z</time>
      </trkpt>
      <trkpt lat="43.34863" lon="2.42236">
        <ele>542.2</ele>
        <time>2023-05-28T07:38:16Z</time>
      </trkpt>
      <trkpt lat="43.34862" lon="2.42236">
        <ele>542.2</ele>
        <time>2023-05-28T07:38:17Z</time>
      </trkpt>
      <trkpt lat="43.34863" lon="2.42237">
        <ele>542.2</ele>
        <time>2023-05-28T07:38:18Z</time>
      </trkpt>
      <trkpt lat="43.34863" lon="2.42238">
        <ele>542.3</ele>
        <time>2023-05-28T07:38:19Z</time>
      </trkpt>
      <trkpt lat="43.34864" lon="2.4224">
        <ele>542.4</ele>
        <time>2023-05-28T07:38:20Z</time>
      </trkpt>
      <trkpt lat="43.34864" lon="2.42241">
        <ele>542.4</ele>
        <time>2023-05-28T07:38:21Z</time>
      </trkpt>
      <trkpt lat="43.34864" lon="2.42242">
        <ele>542.5</ele>
        <time>2023-05-28T07:38:22Z</time>
      </trkpt>
      <trkpt lat="43.34865" lon="2.42242">
        <ele>542.6</ele>
        <time>2023-05-28T07:38:23Z</time>
      </trkpt>
      <trkpt lat="43.34865" lon="2.42243">
        <ele>542.6</ele>
        <time>2023-05-28T07:38:24Z</time>
      </trkpt>
      <trkpt lat="43.34866" lon="2.42244">
        <ele>542.7</ele>
        <time>2023-05-28T07:38:25Z</time>
      </trkpt>
      <trkpt lat="43.34867" lon="2.42245">
        <ele>542.8</ele>
        <time>2023-05-28T07:38:26Z</time>
      </trkpt>
      <trkpt lat="43.34867" lon="2.42245">
        <ele>542.8</ele>
        <time>2023-05-28T07:38:27Z</time>
      </trkpt>
      <trkpt lat="43.34867" lon="2.42245">
        <ele>542.8</ele>
        <time>2023-05-28T07:38:28Z</time>
      </trkpt>
      <trkpt lat="43.34867" lon="2.42245">
        <ele>542.8</ele>
        <time>2023-05-28T07:38:29Z</time>
      </trkpt>
      <trkpt lat="43.34868" lon="2.42245">
        <ele>542.8</ele>
        <time>2023-05-28T07:38:30Z</time>
      </trkpt>
      <trkpt lat="43.34868" lon="2.42245">
        <ele>542.9</ele>
        <time>2023-05-28T07:38:31Z</time>
      </trkpt>
      <trkpt lat="43.34868" lon="2.42245">
        <ele>542.9</ele>
        <time>2023-05-28T07:38:32Z</time>
      </trkpt>
      <trkpt lat="43.34869" lon="2.42246">
        <ele>542.9</ele>
        <time>2023-05-28T07:38:33Z</time>
      </trkpt>
      <trkpt lat="43.34869" lon="2.42246">
        <ele>542.9</ele>
        <time>2023-05-28T07:38:34Z</time>
      </trkpt>
      <trkpt lat="43.34869" lon="2.42246">
        <ele>543</ele>
        <time>2023-05-28T07:38:35Z</time>
      </trkpt>
      <trkpt lat="43.3487" lon="2.42246">
        <ele>543</ele>
        <time>2023-05-28T07:38:36Z</time>
      </trkpt>
      <trkpt lat="43.3487" lon="2.42247">
        <ele>543.1</ele>
        <time>2023-05-28T07:38:37Z</time>
      </trkpt>
      <trkpt lat="43.3487" lon="2.4225">
        <ele>543.2</ele>
        <time>2023-05-28T07:38:38Z</time>
      </trkpt>
      <trkpt lat="43.3487" lon="2.42254">
        <ele>543.4</ele>
        <time>2023-05-28T07:38:39Z</time>
      </trkpt>
      <trkpt lat="43.3487" lon="2.42256">
        <ele>543.5</ele>
        <time>2023-05-28T07:38:40Z</time>
      </trkpt>
      <trkpt lat="43.3487" lon="2.4226">
        <ele>543.7</ele>
        <time>2023-05-28T07:38:41Z</time>
      </trkpt>
      <trkpt lat="43.34871" lon="2.42261">
        <ele>543.7</ele>
        <time>2023-05-28T07:38:42Z</time>
      </trkpt>
      <trkpt lat="43.34871" lon="2.42265">
        <ele>544</ele>
        <time>2023-05-28T07:38:43Z</time>
      </trkpt>
      <trkpt lat="43.34871" lon="2.42267">
        <ele>544</ele>
        <time>2023-05-28T07:38:44Z</time>
      </trkpt>
      <trkpt lat="43.34871" lon="2.42269">
        <ele>544.1</ele>
        <time>2023-05-28T07:38:45Z</time>
      </trkpt>
      <trkpt lat="43.34871" lon="2.42272">
        <ele>544.2</ele>
        <time>2023-05-28T07:38:46Z</time>
      </trkpt>
      <trkpt lat="43.34872" lon="2.42276">
        <ele>544.4</ele>
        <time>2023-05-28T07:38:47Z</time>
      </trkpt>
      <trkpt lat="43.34872" lon="2.42277">
        <ele>544.4</ele>
        <time>2023-05-28T07:38:48Z</time>
      </trkpt>
      <trkpt lat="43.34872" lon="2.42281">
        <ele>544.6</ele>
        <time>2023-05-28T07:38:49Z</time>
      </trkpt>
      <trkpt lat="43.34872" lon="2.42282">
        <ele>544.6</ele>
        <time>2023-05-28T07:38:50Z</time>
      </trkpt>
      <trkpt lat="43.34872" lon="2.42284">
        <ele>544.7</ele>
        <time>2023-05-28T07:38:51Z</time>
      </trkpt>
      <trkpt lat="43.34871" lon="2.42285">
        <ele>544.7</ele>
        <time>2023-05-28T07:38:52Z</time>
      </trkpt>
      <trkpt lat="43.34871" lon="2.42286">
        <ele>544.7</ele>
        <time>2023-05-28T07:38:53Z</time>
      </trkpt>
      <trkpt lat="43.34871" lon="2.42287">
        <ele>544.8</ele>
        <time>2023-05-28T07:38:54Z</time>
      </trkpt>
      <trkpt lat="43.3487" lon="2.42287">
        <ele>544.8</ele>
        <time>2023-05-28T07:38:55Z</time>
      </trkpt>
      <trkpt lat="43.3487" lon="2.42287">
        <ele>544.8</ele>
        <time>2023-05-28T07:38:56Z</time>
      </trkpt>
      <trkpt lat="43.3487" lon="2.42286">
        <ele>544.8</ele>
        <time>2023-05-28T07:38:57Z</time>
      </trkpt>
      <trkpt lat="43.34871" lon="2.42285">
        <ele>544.8</ele>
        <time>2023-05-28T07:38:58Z</time>
      </trkpt>
      <trkpt lat="43.34871" lon="2.42283">
        <ele>544.9</ele>
        <time>2023-05-28T07:38:59Z</time>
      </trkpt>
      <trkpt lat="43.34871" lon="2.42281">
        <ele>544.9</ele>
        <time>2023-05-28T07:39:00Z</time>
      </trkpt>
      <trkpt lat="43.34871" lon="2.4228">
        <ele>545</ele>
        <time>2023-05-28T07:39:01Z</time>
      </trkpt>
      <trkpt lat="43.34871" lon="2.42278">
        <ele>545</ele>
        <time>2023-05-28T07:39:02Z</time>
      </trkpt>
      <trkpt lat="43.34871" lon="2.42276">
        <ele>545.1</ele>
        <time>2023-05-28T07:39:03Z</time>
      </trkpt>
      <trkpt lat="43.34871" lon="2.42275">
        <ele>545.1</ele>
        <time>2023-05-28T07:39:04Z</time>
      </trkpt>
      <trkpt lat="43.34871" lon="2.42274">
        <ele>545.1</ele>
        <time>2023-05-28T07:39:05Z</time>
      </trkpt>
      <trkpt lat="43.34871" lon="2.42273">
        <ele>545.2</ele>
        <time>2023-05-28T07:39:06Z</time>
      </trkpt>
      <trkpt lat="43.34871" lon="2.42271">
        <ele>545.2</ele>
        <time>2023-05-28T07:39:07Z</time>
      </trkpt>
      <trkpt lat="43.34871" lon="2.42269">
        <ele>545.3</ele>
        <time>2023-05-28T07:39:08Z</time>
      </trkpt>
      <trkpt lat="43.34871" lon="2.42267">
        <ele>545.3</ele>
        <time>2023-05-28T07:39:09Z</time>
      </trkpt>
      <trkpt lat="43.34871" lon="2.42265">
        <ele>545.4</ele>
        <time>2023-05-28T07:39:10Z</time>
      </trkpt>
      <trkpt lat="43.34871" lon="2.42264">
        <ele>545.4</ele>
        <time>2023-05-28T07:39:11Z</time>
      </trkpt>
      <trkpt lat="43.34871" lon="2.42262">
        <ele>545.4</ele>
        <time>2023-05-28T07:39:12Z</time>
      </trkpt>
      <trkpt lat="43.34871" lon="2.42261">
        <ele>545.5</ele>
        <time>2023-05-28T07:39:13Z</time>
      </trkpt>
      <trkpt lat="43.34871" lon="2.4226">
        <ele>545.5</ele>
        <time>2023-05-28T07:39:14Z</time>
      </trkpt>
      <trkpt lat="43.34871" lon="2.42259">
        <ele>545.5</ele>
        <time>2023-05-28T07:39:15Z</time>
      </trkpt>
      <trkpt lat="43.34871" lon="2.42257">
        <ele>545.5</ele>
        <time>2023-05-28T07:39:16Z</time>
      </trkpt>
      <trkpt lat="43.34871" lon="2.42256">
        <ele>545.6</ele>
        <time>2023-05-28T07:39:17Z</time>
      </trkpt>
      <trkpt lat="43.34871" lon="2.42254">
        <ele>545.6</ele>
        <time>2023-05-28T07:39:18Z</time>
      </trkpt>
      <trkpt lat="43.3487" lon="2.42252">
        <ele>545.7</ele>
        <time>2023-05-28T07:39:19Z</time>
      </trkpt>
      <trkpt lat="43.3487" lon="2.42251">
        <ele>545.7</ele>
        <time>2023-05-28T07:39:20Z</time>
      </trkpt>
      <trkpt lat="43.3487" lon="2.4225">
        <ele>545.7</ele>
        <time>2023-05-28T07:39:21Z</time>
      </trkpt>
      <trkpt lat="43.34869" lon="2.42249">
        <ele>545.7</ele>
        <time>2023-05-28T07:39:22Z</time>
      </trkpt>
      <trkpt lat="43.34869" lon="2.42248">
        <ele>545.8</ele>
        <time>2023-05-28T07:39:23Z</time>
      </trkpt>
      <trkpt lat="43.34869" lon="2.42247">
        <ele>545.8</ele>
        <time>2023-05-28T07:39:24Z</time>
      </trkpt>
      <trkpt lat="43.34869" lon="2.42246">
        <ele>545.8</ele>
        <time>2023-05-28T07:39:25Z</time>
      </trkpt>
      <trkpt lat="43.34868" lon="2.42245">
        <ele>545.8</ele>
        <time>2023-05-28T07:39:26Z</time>
      </trkpt>
      <trkpt lat="43.34868" lon="2.42244">
        <ele>545.8</ele>
        <time>2023-05-28T07:39:27Z</time>
      </trkpt>
      <trkpt lat="43.34868" lon="2.42243">
        <ele>545.8</ele>
        <time>2023-05-28T07:39:28Z</time>
      </trkpt>
      <trkpt lat="43.34868" lon="2.42243">
        <ele>545.8</ele>
        <time>2023-05-28T07:39:29Z</time>
      </trkpt>
      <trkpt lat="43.34868" lon="2.42242">
        <ele>545.8</ele>
        <time>2023-05-28T07:39:30Z</time>
      </trkpt>
      <trkpt lat="43.34867" lon="2.4224">
        <ele>545.8</ele>
        <time>2023-05-28T07:39:31Z</time>
      </trkpt>
      <trkpt lat="43.34867" lon="2.42239">
        <ele>545.8</ele>
        <time>2023-05-28T07:39:32Z</time>
      </trkpt>
      <trkpt lat="43.34867" lon="2.42237">
        <ele>545.9</ele>
        <time>2023-05-28T07:39:33Z</time>
      </trkpt>
      <trkpt lat="43.34867" lon="2.42236">
        <ele>545.9</ele>
        <time>2023-05-28T07:39:34Z</time>
      </trkpt>
      <trkpt lat="43.34867" lon="2.42235">
        <ele>545.9</ele>
        <time>2023-05-28T07:39:35Z</time>
      </trkpt>
      <trkpt lat="43.34867" lon="2.42235">
        <ele>545.9</ele>
        <time>2023-05-28T07:39:36Z</time>
      </trkpt>
      <trkpt lat="43.34867" lon="2.42234">
        <ele>545.9</ele>
        <time>2023-05-28T07:39:37Z</time>
      </trkpt>
      <trkpt lat="43.34867" lon="2.42233">
        <ele>545.9</ele>
        <time>2023-05-28T07:39:38Z</time>
      </trkpt>
      <trkpt lat="43.34866" lon="2.42231">
        <ele>545.9</ele>
        <time>2023-05-28T07:39:39Z</time>
      </trkpt>
      <trkpt lat="43.34866" lon="2.4223">
        <ele>545.9</ele>
        <time>2023-05-28T07:39:40Z</time>
      </trkpt>
      <trkpt lat="43.34865" lon="2.42228">
        <ele>545.9</ele>
        <time>2023-05-28T07:39:41Z</time>
      </trkpt>
      <trkpt lat="43.34864" lon="2.42226">
        <ele>545.9</ele>
        <time>2023-05-28T07:39:42Z</time>
      </trkpt>
      <trkpt lat="43.34863" lon="2.42224">
        <ele>545.8</ele>
        <time>2023-05-28T07:39:43Z</time>
      </trkpt>
      <trkpt lat="43.34863" lon="2.42222">
        <ele>545.8</ele>
        <time>2023-05-28T07:39:44Z</time>
      </trkpt>
      <trkpt lat="43.34863" lon="2.4222">
        <ele>545.8</ele>
        <time>2023-05-28T07:39:45Z</time>
      </trkpt>
      <trkpt lat="43.34862" lon="2.42217">
        <ele>545.8</ele>
        <time>2023-05-28T07:39:46Z</time>
      </trkpt>
      <trkpt lat="43.34861" lon="2.42216">
        <ele>545.8</ele>
        <time>2023-05-28T07:39:47Z</time>
      </trkpt>
      <trkpt lat="43.34861" lon="2.42215">
        <ele>545.8</ele>
        <time>2023-05-28T07:39:48Z</time>
      </trkpt>
      <trkpt lat="43.34861" lon="2.42213">
        <ele>545.8</ele>
        <time>2023-05-28T07:39:49Z</time>
      </trkpt>
      <trkpt lat="43.3486" lon="2.42211">
        <ele>545.8</ele>
        <time>2023-05-28T07:39:50Z</time>
      </trkpt>
      <trkpt lat="43.34859" lon="2.42208">
        <ele>545.8</ele>
        <time>2023-05-28T07:39:51Z</time>
      </trkpt>
      <trkpt lat="43.34858" lon="2.42206">
        <ele>545.8</ele>
        <time>2023-05-28T07:39:52Z</time>
      </trkpt>
      <trkpt lat="43.34857" lon="2.42203">
        <ele>545.7</ele>
        <time>2023-05-28T07:39:53Z</time>
      </trkpt>
      <trkpt lat="43.34856" lon="2.42202">
        <ele>545.7</ele>
        <time>2023-05-28T07:39:54Z</time>
      </trkpt>
      <trkpt lat="43.34855" lon="2.42198">
        <ele>545.7</ele>
        <time>2023-05-28T07:39:55Z</time>
      </trkpt>
      <trkpt lat="43.34855" lon="2.42197">
        <ele>545.7</ele>
        <time>2023-05-28T07:39:56Z</time>
      </trkpt>
      <trkpt lat="43.34854" lon="2.42194">
        <ele>545.7</ele>
        <time>2023-05-28T07:39:57Z</time>
      </trkpt>
      <trkpt lat="43.34853" lon="2.42192">
        <ele>545.6</ele>
        <time>2023-05-28T07:39:58Z</time>
      </trkpt>
      <trkpt lat="43.34852" lon="2.42189">
        <ele>545.6</ele>
        <time>2023-05-28T07:39:59Z</time>
      </trkpt>
      <trkpt lat="43.34852" lon="2.42187">
        <ele>545.6</ele>
        <time>2023-05-28T07:40:00Z</time>
      </trkpt>
      <trkpt lat="43.34852" lon="2.42185">
        <ele>545.6</ele>
        <time>2023-05-28T07:40:01Z</time>
      </trkpt>
      <trkpt lat="43.34851" lon="2.42183">
        <ele>545.6</ele>
        <time>2023-05-28T07:40:02Z</time>
      </trkpt>
      <trkpt lat="43.34851" lon="2.4218">
        <ele>545.5</ele>
        <time>2023-05-28T07:40:03Z</time>
      </trkpt>
      <trkpt lat="43.34851" lon="2.42178">
        <ele>545.5</ele>
        <time>2023-05-28T07:40:04Z</time>
      </trkpt>
      <trkpt lat="43.34851" lon="2.42177">
        <ele>545.5</ele>
        <time>2023-05-28T07:40:05Z</time>
      </trkpt>
      <trkpt lat="43.34851" lon="2.42176">
        <ele>545.5</ele>
        <time>2023-05-28T07:40:06Z</time>
      </trkpt>
      <trkpt lat="43.34851" lon="2.42174">
        <ele>545.5</ele>
        <time>2023-05-28T07:40:07Z</time>
      </trkpt>
      <trkpt lat="43.34851" lon="2.42172">
        <ele>545.4</ele>
        <time>2023-05-28T07:40:08Z</time>
      </trkpt>
      <trkpt lat="43.34851" lon="2.42169">
        <ele>545.4</ele>
        <time>2023-05-28T07:40:09Z</time>
      </trkpt>
      <trkpt lat="43.34851" lon="2.42168">
        <ele>545.4</ele>
        <time>2023-05-28T07:40:10Z</time>
      </trkpt>
      <trkpt lat="43.34851" lon="2.42166">
        <ele>545.4</ele>
        <time>2023-05-28T07:40:11Z</time>
      </trkpt>
      <trkpt lat="43.34851" lon="2.42165">
        <ele>545.3</ele>
        <time>2023-05-28T07:40:12Z</time>
      </trkpt>
      <trkpt lat="43.3485" lon="2.4216">
        <ele>545.3</ele>
        <time>2023-05-28T07:40:13Z</time>
      </trkpt>
      <trkpt lat="43.3485" lon="2.42159">
        <ele>545.2</ele>
        <time>2023-05-28T07:40:14Z</time>
      </trkpt>
      <trkpt lat="43.34849" lon="2.42154">
        <ele>545.1</ele>
        <time>2023-05-28T07:40:15Z</time>
      </trkpt>
      <trkpt lat="43.34849" lon="2.42153">
        <ele>545.1</ele>
        <time>2023-05-28T07:40:16Z</time>
      </trkpt>
      <trkpt lat="43.34848" lon="2.42149">
        <ele>545</ele>
        <time>2023-05-28T07:40:17Z</time>
      </trkpt>
      <trkpt lat="43.34848" lon="2.42147">
        <ele>545</ele>
        <time>2023-05-28T07:40:18Z</time>
      </trkpt>
      <trkpt lat="43.34847" lon="2.42143">
        <ele>544.8</ele>
        <time>2023-05-28T07:40:19Z</time>
      </trkpt>
      <trkpt lat="43.34846" lon="2.42142">
        <ele>544.8</ele>
        <time>2023-05-28T07:40:20Z</time>
      </trkpt>
      <trkpt lat="43.34845" lon="2.42138">
        <ele>544.7</ele>
        <time>2023-05-28T07:40:21Z</time>
      </trkpt>
      <trkpt lat="43.34845" lon="2.42137">
        <ele>544.6</ele>
        <time>2023-05-28T07:40:22Z</time>
      </trkpt>
      <trkpt lat="43.34845" lon="2.42135">
        <ele>544.5</ele>
        <time>2023-05-28T07:40:23Z</time>
      </trkpt>
      <trkpt lat="43.34844" lon="2.42132">
        <ele>544.5</ele>
        <time>2023-05-28T07:40:24Z</time>
      </trkpt>
      <trkpt lat="43.34843" lon="2.42128">
        <ele>544.3</ele>
        <time>2023-05-28T07:40:25Z</time>
      </trkpt>
      <trkpt lat="43.34843" lon="2.42127">
        <ele>544.3</ele>
        <time>2023-05-28T07:40:26Z</time>
      </trkpt>
      <trkpt lat="43.34843" lon="2.42124">
        <ele>544.1</ele>
        <time>2023-05-28T07:40:27Z</time>
      </trkpt>
      <trkpt lat="43.34843" lon="2.42123">
        <ele>544.1</ele>
        <time>2023-05-28T07:40:28Z</time>
      </trkpt>
      <trkpt lat="43.34842" lon="2.42122">
        <ele>544</ele>
        <time>2023-05-28T07:40:29Z</time>
      </trkpt>
      <trkpt lat="43.34842" lon="2.4212">
        <ele>544</ele>
        <time>2023-05-28T07:40:30Z</time>
      </trkpt>
      <trkpt lat="43.34842" lon="2.42118">
        <ele>543.9</ele>
        <time>2023-05-28T07:40:31Z</time>
      </trkpt>
      <trkpt lat="43.34841" lon="2.42113">
        <ele>543.7</ele>
        <time>2023-05-28T07:40:32Z</time>
      </trkpt>
      <trkpt lat="43.34841" lon="2.42111">
        <ele>543.6</ele>
        <time>2023-05-28T07:40:33Z</time>
      </trkpt>
      <trkpt lat="43.3484" lon="2.42106">
        <ele>543.4</ele>
        <time>2023-05-28T07:40:34Z</time>
      </trkpt>
      <trkpt lat="43.3484" lon="2.42105">
        <ele>543.4</ele>
        <time>2023-05-28T07:40:35Z</time>
      </trkpt>
      <trkpt lat="43.34839" lon="2.42101">
        <ele>543.2</ele>
        <time>2023-05-28T07:40:36Z</time>
      </trkpt>
      <trkpt lat="43.34838" lon="2.421">
        <ele>543.1</ele>
        <time>2023-05-28T07:40:37Z</time>
      </trkpt>
      <trkpt lat="43.34836" lon="2.42095">
        <ele>542.9</ele>
        <time>2023-05-28T07:40:38Z</time>
      </trkpt>
      <trkpt lat="43.34835" lon="2.42093">
        <ele>542.8</ele>
        <time>2023-05-28T07:40:39Z</time>
      </trkpt>
      <trkpt lat="43.34834" lon="2.42089">
        <ele>542.6</ele>
        <time>2023-05-28T07:40:40Z</time>
      </trkpt>
      <trkpt lat="43.34833" lon="2.42085">
        <ele>542.3</ele>
        <time>2023-05-28T07:40:41Z</time>
      </trkpt>
      <trkpt lat="43.34833" lon="2.42083">
        <ele>542.3</ele>
        <time>2023-05-28T07:40:42Z</time>
      </trkpt>
      <trkpt lat="43.34833" lon="2.42079">
        <ele>542</ele>
        <time>2023-05-28T07:40:43Z</time>
      </trkpt>
      <trkpt lat="43.34833" lon="2.42077">
        <ele>542</ele>
        <time>2023-05-28T07:40:44Z</time>
      </trkpt>
      <trkpt lat="43.34833" lon="2.42073">
        <ele>541.8</ele>
        <time>2023-05-28T07:40:45Z</time>
      </trkpt>
      <trkpt lat="43.34832" lon="2.42069">
        <ele>541.5</ele>
        <time>2023-05-28T07:40:46Z</time>
      </trkpt>
      <trkpt lat="43.34831" lon="2.42065">
        <ele>541.3</ele>
        <time>2023-05-28T07:40:47Z</time>
      </trkpt>
      <trkpt lat="43.34831" lon="2.42061">
        <ele>541.1</ele>
        <time>2023-05-28T07:40:48Z</time>
      </trkpt>
      <trkpt lat="43.34831" lon="2.42057">
        <ele>540.9</ele>
        <time>2023-05-28T07:40:49Z</time>
      </trkpt>
      <trkpt lat="43.34831" lon="2.42055">
        <ele>540.8</ele>
        <time>2023-05-28T07:40:50Z</time>
      </trkpt>
      <trkpt lat="43.34831" lon="2.42051">
        <ele>540.6</ele>
        <time>2023-05-28T07:40:51Z</time>
      </trkpt>
      <trkpt lat="43.34831" lon="2.4205">
        <ele>540.5</ele>
        <time>2023-05-28T07:40:52Z</time>
      </trkpt>
      <trkpt lat="43.3483" lon="2.42044">
        <ele>540.3</ele>
        <time>2023-05-28T07:40:53Z</time>
      </trkpt>
      <trkpt lat="43.3483" lon="2.42042">
        <ele>540.2</ele>
        <time>2023-05-28T07:40:54Z</time>
      </trkpt>
      <trkpt lat="43.3483" lon="2.42037">
        <ele>539.9</ele>
        <time>2023-05-28T07:40:55Z</time>
      </trkpt>
      <trkpt lat="43.3483" lon="2.42035">
        <ele>539.8</ele>
        <time>2023-05-28T07:40:56Z</time>
      </trkpt>
      <trkpt lat="43.34829" lon="2.4203">
        <ele>539.6</ele>
        <time>2023-05-28T07:40:57Z</time>
      </trkpt>
      <trkpt lat="43.34829" lon="2.42025">
        <ele>539.4</ele>
        <time>2023-05-28T07:40:58Z</time>
      </trkpt>
      <trkpt lat="43.34829" lon="2.42024">
        <ele>539.3</ele>
        <time>2023-05-28T07:40:59Z</time>
      </trkpt>
      <trkpt lat="43.34828" lon="2.42019">
        <ele>539.1</ele>
        <time>2023-05-28T07:41:00Z</time>
      </trkpt>
      <trkpt lat="43.34828" lon="2.42017">
        <ele>539.1</ele>
        <time>2023-05-28T07:41:01Z</time>
      </trkpt>
      <trkpt lat="43.34827" lon="2.42013">
        <ele>538.9</ele>
        <time>2023-05-28T07:41:02Z</time>
      </trkpt>
      <trkpt lat="43.34826" lon="2.42011">
        <ele>538.8</ele>
        <time>2023-05-28T07:41:03Z</time>
      </trkpt>
      <trkpt lat="43.34825" lon="2.42007">
        <ele>538.7</ele>
        <time>2023-05-28T07:41:04Z</time>
      </trkpt>
      <trkpt lat="43.34824" lon="2.42003">
        <ele>538.5</ele>
        <time>2023-05-28T07:41:05Z</time>
      </trkpt>
      <trkpt lat="43.34824" lon="2.41998">
        <ele>538.4</ele>
        <time>2023-05-28T07:41:06Z</time>
      </trkpt>
      <trkpt lat="43.34825" lon="2.41994">
        <ele>538.2</ele>
        <time>2023-05-28T07:41:07Z</time>
      </trkpt>
      <trkpt lat="43.34826" lon="2.41993">
        <ele>538.1</ele>
        <time>2023-05-28T07:41:08Z</time>
      </trkpt>
      <trkpt lat="43.34828" lon="2.41991">
        <ele>537.9</ele>
        <time>2023-05-28T07:41:09Z</time>
      </trkpt>
      <trkpt lat="43.34829" lon="2.4199">
        <ele>537.9</ele>
        <time>2023-05-28T07:41:10Z</time>
      </trkpt>
      <trkpt lat="43.34832" lon="2.41986">
        <ele>537.6</ele>
        <time>2023-05-28T07:41:11Z</time>
      </trkpt>
      <trkpt lat="43.34833" lon="2.41984">
        <ele>537.6</ele>
        <time>2023-05-28T07:41:12Z</time>
      </trkpt>
      <trkpt lat="43.34834" lon="2.4198">
        <ele>537.4</ele>
        <time>2023-05-28T07:41:13Z</time>
      </trkpt>
      <trkpt lat="43.34834" lon="2.41979">
        <ele>537.3</ele>
        <time>2023-05-28T07:41:14Z</time>
      </trkpt>
      <trkpt lat="43.34836" lon="2.41974">
        <ele>537.2</ele>
        <time>2023-05-28T07:41:15Z</time>
      </trkpt>
      <trkpt lat="43.34837" lon="2.41973">
        <ele>537.1</ele>
        <time>2023-05-28T07:41:16Z</time>
      </trkpt>
      <trkpt lat="43.34839" lon="2.41969">
        <ele>537</ele>
        <time>2023-05-28T07:41:17Z</time>
      </trkpt>
      <trkpt lat="43.34839" lon="2.41967">
        <ele>537</ele>
        <time>2023-05-28T07:41:18Z</time>
      </trkpt>
      <trkpt lat="43.34841" lon="2.41964">
        <ele>536.9</ele>
        <time>2023-05-28T07:41:19Z</time>
      </trkpt>
      <trkpt lat="43.34842" lon="2.41963">
        <ele>536.9</ele>
        <time>2023-05-28T07:41:20Z</time>
      </trkpt>
      <trkpt lat="43.34844" lon="2.41959">
        <ele>536.9</ele>
        <time>2023-05-28T07:41:21Z</time>
      </trkpt>
      <trkpt lat="43.34845" lon="2.41958">
        <ele>536.9</ele>
        <time>2023-05-28T07:41:22Z</time>
      </trkpt>
      <trkpt lat="43.34846" lon="2.41954">
        <ele>536.9</ele>
        <time>2023-05-28T07:41:23Z</time>
      </trkpt>
      <trkpt lat="43.34847" lon="2.41951">
        <ele>536.9</ele>
        <time>2023-05-28T07:41:24Z</time>
      </trkpt>
      <trkpt lat="43.34849" lon="2.41946">
        <ele>536.8</ele>
        <time>2023-05-28T07:41:25Z</time>
      </trkpt>
      <trkpt lat="43.34849" lon="2.41944">
        <ele>536.8</ele>
        <time>2023-05-28T07:41:26Z</time>
      </trkpt>
      <trkpt lat="43.34849" lon="2.41942">
        <ele>536.8</ele>
        <time>2023-05-28T07:41:27Z</time>
      </trkpt>
      <trkpt lat="43.34849" lon="2.41939">
        <ele>536.8</ele>
        <time>2023-05-28T07:41:28Z</time>
      </trkpt>
      <trkpt lat="43.3485" lon="2.41935">
        <ele>536.8</ele>
        <time>2023-05-28T07:41:29Z</time>
      </trkpt>
      <trkpt lat="43.3485" lon="2.41934">
        <ele>536.8</ele>
        <time>2023-05-28T07:41:30Z</time>
      </trkpt>
      <trkpt lat="43.3485" lon="2.41929">
        <ele>536.7</ele>
        <time>2023-05-28T07:41:31Z</time>
      </trkpt>
      <trkpt lat="43.3485" lon="2.41928">
        <ele>536.7</ele>
        <time>2023-05-28T07:41:32Z</time>
      </trkpt>
      <trkpt lat="43.34849" lon="2.41924">
        <ele>536.7</ele>
        <time>2023-05-28T07:41:33Z</time>
      </trkpt>
      <trkpt lat="43.34849" lon="2.41922">
        <ele>536.7</ele>
        <time>2023-05-28T07:41:34Z</time>
      </trkpt>
      <trkpt lat="43.34849" lon="2.41918">
        <ele>536.6</ele>
        <time>2023-05-28T07:41:35Z</time>
      </trkpt>
      <trkpt lat="43.3485" lon="2.41916">
        <ele>536.5</ele>
        <time>2023-05-28T07:41:36Z</time>
      </trkpt>
      <trkpt lat="43.34851" lon="2.41914">
        <ele>536.5</ele>
        <time>2023-05-28T07:41:37Z</time>
      </trkpt>
      <trkpt lat="43.34851" lon="2.41912">
        <ele>536.4</ele>
        <time>2023-05-28T07:41:38Z</time>
      </trkpt>
      <trkpt lat="43.34851" lon="2.41908">
        <ele>536.3</ele>
        <time>2023-05-28T07:41:39Z</time>
      </trkpt>
      <trkpt lat="43.3485" lon="2.41906">
        <ele>536.3</ele>
        <time>2023-05-28T07:41:40Z</time>
      </trkpt>
      <trkpt lat="43.34849" lon="2.41903">
        <ele>536.2</ele>
        <time>2023-05-28T07:41:41Z</time>
      </trkpt>
      <trkpt lat="43.34846" lon="2.41899">
        <ele>535.9</ele>
        <time>2023-05-28T07:41:42Z</time>
      </trkpt>
      <trkpt lat="43.34845" lon="2.41898">
        <ele>535.9</ele>
        <time>2023-05-28T07:41:43Z</time>
      </trkpt>
      <trkpt lat="43.34843" lon="2.41894">
        <ele>535.6</ele>
        <time>2023-05-28T07:41:44Z</time>
      </trkpt>
      <trkpt lat="43.34843" lon="2.41893">
        <ele>535.5</ele>
        <time>2023-05-28T07:41:45Z</time>
      </trkpt>
      <trkpt lat="43.34841" lon="2.41889">
        <ele>535.3</ele>
        <time>2023-05-28T07:41:46Z</time>
      </trkpt>
      <trkpt lat="43.34841" lon="2.41887">
        <ele>535.2</ele>
        <time>2023-05-28T07:41:47Z</time>
      </trkpt>
      <trkpt lat="43.34839" lon="2.41884">
        <ele>534.9</ele>
        <time>2023-05-28T07:41:48Z</time>
      </trkpt>
      <trkpt lat="43.34837" lon="2.41881">
        <ele>534.6</ele>
        <time>2023-05-28T07:41:49Z</time>
      </trkpt>
      <trkpt lat="43.34836" lon="2.41878">
        <ele>534.4</ele>
        <time>2023-05-28T07:41:50Z</time>
      </trkpt>
      <trkpt lat="43.34834" lon="2.41873">
        <ele>534</ele>
        <time>2023-05-28T07:41:51Z</time>
      </trkpt>
      <trkpt lat="43.34833" lon="2.41871">
        <ele>533.9</ele>
        <time>2023-05-28T07:41:52Z</time>
      </trkpt>
      <trkpt lat="43.34832" lon="2.41867">
        <ele>533.6</ele>
        <time>2023-05-28T07:41:53Z</time>
      </trkpt>
      <trkpt lat="43.34833" lon="2.41862">
        <ele>533.3</ele>
        <time>2023-05-28T07:41:54Z</time>
      </trkpt>
      <trkpt lat="43.34833" lon="2.41861">
        <ele>533.2</ele>
        <time>2023-05-28T07:41:55Z</time>
      </trkpt>
      <trkpt lat="43.34834" lon="2.41856">
        <ele>532.8</ele>
        <time>2023-05-28T07:41:56Z</time>
      </trkpt>
      <trkpt lat="43.34835" lon="2.41854">
        <ele>532.7</ele>
        <time>2023-05-28T07:41:57Z</time>
      </trkpt>
      <trkpt lat="43.34836" lon="2.4185">
        <ele>532.5</ele>
        <time>2023-05-28T07:41:58Z</time>
      </trkpt>
      <trkpt lat="43.34837" lon="2.41847">
        <ele>532.2</ele>
        <time>2023-05-28T07:41:59Z</time>
      </trkpt>
      <trkpt lat="43.34837" lon="2.41843">
        <ele>531.9</ele>
        <time>2023-05-28T07:42:00Z</time>
      </trkpt>
      <trkpt lat="43.34838" lon="2.41839">
        <ele>531.6</ele>
        <time>2023-05-28T07:42:01Z</time>
      </trkpt>
      <trkpt lat="43.34838" lon="2.41834">
        <ele>531.2</ele>
        <time>2023-05-28T07:42:02Z</time>
      </trkpt>
      <trkpt lat="43.34839" lon="2.41833">
        <ele>531.1</ele>
        <time>2023-05-28T07:42:03Z</time>
      </trkpt>
      <trkpt lat="43.34839" lon="2.41829">
        <ele>530.8</ele>
        <time>2023-05-28T07:42:04Z</time>
      </trkpt>
      <trkpt lat="43.3484" lon="2.41829">
        <ele>530.8</ele>
        <time>2023-05-28T07:42:05Z</time>
      </trkpt>
      <trkpt lat="43.3484" lon="2.41828">
        <ele>530.7</ele>
        <time>2023-05-28T07:42:06Z</time>
      </trkpt>
      <trkpt lat="43.3484" lon="2.41827">
        <ele>530.6</ele>
        <time>2023-05-28T07:42:07Z</time>
      </trkpt>
      <trkpt lat="43.3484" lon="2.41826">
        <ele>530.5</ele>
        <time>2023-05-28T07:42:08Z</time>
      </trkpt>
      <trkpt lat="43.34839" lon="2.41824">
        <ele>530.3</ele>
        <time>2023-05-28T07:42:09Z</time>
      </trkpt>
      <trkpt lat="43.34838" lon="2.41822">
        <ele>530.1</ele>
        <time>2023-05-28T07:42:10Z</time>
      </trkpt>
      <trkpt lat="43.34837" lon="2.41821">
        <ele>529.9</ele>
        <time>2023-05-28T07:42:11Z</time>
      </trkpt>
      <trkpt lat="43.34837" lon="2.41821">
        <ele>529.8</ele>
        <time>2023-05-28T07:42:12Z</time>
      </trkpt>
      <trkpt lat="43.34837" lon="2.4182">
        <ele>529.8</ele>
        <time>2023-05-28T07:42:13Z</time>
      </trkpt>
      <trkpt lat="43.34837" lon="2.4182">
        <ele>529.7</ele>
        <time>2023-05-28T07:42:14Z</time>
      </trkpt>
      <trkpt lat="43.34836" lon="2.41819">
        <ele>529.6</ele>
        <time>2023-05-28T07:42:15Z</time>
      </trkpt>
      <trkpt lat="43.34836" lon="2.41818">
        <ele>529.1</ele>
        <time>2023-05-28T07:42:16Z</time>
      </trkpt>
      <trkpt lat="43.34834" lon="2.41815">
        <ele>528.6</ele>
        <time>2023-05-28T07:42:17Z</time>
      </trkpt>
      <trkpt lat="43.34833" lon="2.41814">
        <ele>528.4</ele>
        <time>2023-05-28T07:42:18Z</time>
      </trkpt>
      <trkpt lat="43.34831" lon="2.4181">
        <ele>527.7</ele>
        <time>2023-05-28T07:42:19Z</time>
      </trkpt>
      <trkpt lat="43.3483" lon="2.41809">
        <ele>527.5</ele>
        <time>2023-05-28T07:42:20Z</time>
      </trkpt>
      <trkpt lat="43.34827" lon="2.41805">
        <ele>526.9</ele>
        <time>2023-05-28T07:42:21Z</time>
      </trkpt>
      <trkpt lat="43.34826" lon="2.41804">
        <ele>526.7</ele>
        <time>2023-05-28T07:42:22Z</time>
      </trkpt>
      <trkpt lat="43.34824" lon="2.418">
        <ele>526</ele>
        <time>2023-05-28T07:42:23Z</time>
      </trkpt>
      <trkpt lat="43.34823" lon="2.41798">
        <ele>525.8</ele>
        <time>2023-05-28T07:42:24Z</time>
      </trkpt>
      <trkpt lat="43.34821" lon="2.41794">
        <ele>525.2</ele>
        <time>2023-05-28T07:42:25Z</time>
      </trkpt>
      <trkpt lat="43.3482" lon="2.41793">
        <ele>524.9</ele>
        <time>2023-05-28T07:42:26Z</time>
      </trkpt>
      <trkpt lat="43.34818" lon="2.4179">
        <ele>524.5</ele>
        <time>2023-05-28T07:42:27Z</time>
      </trkpt>
      <trkpt lat="43.34817" lon="2.41787">
        <ele>524</ele>
        <time>2023-05-28T07:42:28Z</time>
      </trkpt>
      <trkpt lat="43.34814" lon="2.41783">
        <ele>523.4</ele>
        <time>2023-05-28T07:42:29Z</time>
      </trkpt>
      <trkpt lat="43.34813" lon="2.41781">
        <ele>523.2</ele>
        <time>2023-05-28T07:42:30Z</time>
      </trkpt>
      <trkpt lat="43.34811" lon="2.41777">
        <ele>522.6</ele>
        <time>2023-05-28T07:42:31Z</time>
      </trkpt>
      <trkpt lat="43.3481" lon="2.41776">
        <ele>522.4</ele>
        <time>2023-05-28T07:42:32Z</time>
      </trkpt>
      <trkpt lat="43.34808" lon="2.41773">
        <ele>522</ele>
        <time>2023-05-28T07:42:33Z</time>
      </trkpt>
      <trkpt lat="43.34806" lon="2.4177">
        <ele>521.6</ele>
        <time>2023-05-28T07:42:34Z</time>
      </trkpt>
      <trkpt lat="43.34804" lon="2.41767">
        <ele>521.2</ele>
        <time>2023-05-28T07:42:35Z</time>
      </trkpt>
      <trkpt lat="43.34802" lon="2.41765">
        <ele>520.8</ele>
        <time>2023-05-28T07:42:36Z</time>
      </trkpt>
      <trkpt lat="43.348" lon="2.41762">
        <ele>520.4</ele>
        <time>2023-05-28T07:42:37Z</time>
      </trkpt>
      <trkpt lat="43.34797" lon="2.4176">
        <ele>520</ele>
        <time>2023-05-28T07:42:38Z</time>
      </trkpt>
      <trkpt lat="43.34795" lon="2.41757">
        <ele>519.7</ele>
        <time>2023-05-28T07:42:39Z</time>
      </trkpt>
      <trkpt lat="43.34793" lon="2.41755">
        <ele>519.3</ele>
        <time>2023-05-28T07:42:40Z</time>
      </trkpt>
      <trkpt lat="43.34791" lon="2.41753">
        <ele>519</ele>
        <time>2023-05-28T07:42:41Z</time>
      </trkpt>
      <trkpt lat="43.34787" lon="2.4175">
        <ele>518.5</ele>
        <time>2023-05-28T07:42:42Z</time>
      </trkpt>
      <trkpt lat="43.34787" lon="2.4175">
        <ele>518.4</ele>
        <time>2023-05-28T07:42:43Z</time>
      </trkpt>
      <trkpt lat="43.34785" lon="2.41748">
        <ele>518.4</ele>
        <time>2023-05-28T07:42:44Z</time>
      </trkpt>
      <trkpt lat="43.34784" lon="2.41746">
        <ele>518.4</ele>
        <time>2023-05-28T07:42:45Z</time>
      </trkpt>
      <trkpt lat="43.34783" lon="2.41744">
        <ele>518.4</ele>
        <time>2023-05-28T07:42:46Z</time>
      </trkpt>
      <trkpt lat="43.34783" lon="2.41742">
        <ele>518.5</ele>
        <time>2023-05-28T07:42:47Z</time>
      </trkpt>
      <trkpt lat="43.34782" lon="2.41741">
        <ele>518.5</ele>
        <time>2023-05-28T07:42:48Z</time>
      </trkpt>
      <trkpt lat="43.34781" lon="2.41738">
        <ele>518.5</ele>
        <time>2023-05-28T07:42:49Z</time>
      </trkpt>
      <trkpt lat="43.34781" lon="2.41737">
        <ele>518.2</ele>
        <time>2023-05-28T07:42:50Z</time>
      </trkpt>
      <trkpt lat="43.34779" lon="2.41733">
        <ele>517.8</ele>
        <time>2023-05-28T07:42:51Z</time>
      </trkpt>
      <trkpt lat="43.34779" lon="2.41731">
        <ele>517.7</ele>
        <time>2023-05-28T07:42:52Z</time>
      </trkpt>
      <trkpt lat="43.34777" lon="2.41727">
        <ele>517.3</ele>
        <time>2023-05-28T07:42:53Z</time>
      </trkpt>
      <trkpt lat="43.34776" lon="2.41725">
        <ele>517.1</ele>
        <time>2023-05-28T07:42:54Z</time>
      </trkpt>
      <trkpt lat="43.34775" lon="2.41721">
        <ele>516.7</ele>
        <time>2023-05-28T07:42:55Z</time>
      </trkpt>
      <trkpt lat="43.34774" lon="2.4172">
        <ele>516.6</ele>
        <time>2023-05-28T07:42:56Z</time>
      </trkpt>
      <trkpt lat="43.34773" lon="2.41716">
        <ele>516.2</ele>
        <time>2023-05-28T07:42:57Z</time>
      </trkpt>
      <trkpt lat="43.34773" lon="2.41714">
        <ele>516.1</ele>
        <time>2023-05-28T07:42:58Z</time>
      </trkpt>
      <trkpt lat="43.34771" lon="2.4171">
        <ele>515.8</ele>
        <time>2023-05-28T07:42:59Z</time>
      </trkpt>
      <trkpt lat="43.34771" lon="2.41709">
        <ele>515.7</ele>
        <time>2023-05-28T07:43:00Z</time>
      </trkpt>
      <trkpt lat="43.3477" lon="2.41705">
        <ele>515.3</ele>
        <time>2023-05-28T07:43:01Z</time>
      </trkpt>
      <trkpt lat="43.34769" lon="2.41703">
        <ele>515.1</ele>
        <time>2023-05-28T07:43:02Z</time>
      </trkpt>
      <trkpt lat="43.34768" lon="2.41699">
        <ele>514.8</ele>
        <time>2023-05-28T07:43:03Z</time>
      </trkpt>
      <trkpt lat="43.34768" lon="2.41698">
        <ele>514.7</ele>
        <time>2023-05-28T07:43:04Z</time>
      </trkpt>
      <trkpt lat="43.34767" lon="2.41694">
        <ele>514.3</ele>
        <time>2023-05-28T07:43:05Z</time>
      </trkpt>
      <trkpt lat="43.34767" lon="2.41693">
        <ele>514.2</ele>
        <time>2023-05-28T07:43:06Z</time>
      </trkpt>
      <trkpt lat="43.34765" lon="2.41689">
        <ele>513.8</ele>
        <time>2023-05-28T07:43:07Z</time>
      </trkpt>
      <trkpt lat="43.34765" lon="2.41687">
        <ele>513.6</ele>
        <time>2023-05-28T07:43:08Z</time>
      </trkpt>
      <trkpt lat="43.34763" lon="2.41684">
        <ele>513.2</ele>
        <time>2023-05-28T07:43:09Z</time>
      </trkpt>
      <trkpt lat="43.34762" lon="2.41683">
        <ele>513.1</ele>
        <time>2023-05-28T07:43:10Z</time>
      </trkpt>
      <trkpt lat="43.3476" lon="2.41679">
        <ele>512.7</ele>
        <time>2023-05-28T07:43:11Z</time>
      </trkpt>
      <trkpt lat="43.3476" lon="2.41677">
        <ele>512.6</ele>
        <time>2023-05-28T07:43:12Z</time>
      </trkpt>
      <trkpt lat="43.34759" lon="2.41673">
        <ele>512.2</ele>
        <time>2023-05-28T07:43:13Z</time>
      </trkpt>
      <trkpt lat="43.34758" lon="2.41672">
        <ele>512.1</ele>
        <time>2023-05-28T07:43:14Z</time>
      </trkpt>
      <trkpt lat="43.34757" lon="2.41668">
        <ele>511.7</ele>
        <time>2023-05-28T07:43:15Z</time>
      </trkpt>
      <trkpt lat="43.34757" lon="2.41667">
        <ele>511.6</ele>
        <time>2023-05-28T07:43:16Z</time>
      </trkpt>
      <trkpt lat="43.34757" lon="2.41663">
        <ele>511.2</ele>
        <time>2023-05-28T07:43:17Z</time>
      </trkpt>
      <trkpt lat="43.34756" lon="2.41662">
        <ele>511.1</ele>
        <time>2023-05-28T07:43:18Z</time>
      </trkpt>
      <trkpt lat="43.34755" lon="2.41658">
        <ele>510.7</ele>
        <time>2023-05-28T07:43:19Z</time>
      </trkpt>
      <trkpt lat="43.34755" lon="2.41657">
        <ele>510.5</ele>
        <time>2023-05-28T07:43:20Z</time>
      </trkpt>
      <trkpt lat="43.34754" lon="2.41654">
        <ele>510.2</ele>
        <time>2023-05-28T07:43:21Z</time>
      </trkpt>
      <trkpt lat="43.34753" lon="2.41653">
        <ele>510</ele>
        <time>2023-05-28T07:43:22Z</time>
      </trkpt>
      <trkpt lat="43.34751" lon="2.4165">
        <ele>509.6</ele>
        <time>2023-05-28T07:43:23Z</time>
      </trkpt>
      <trkpt lat="43.3475" lon="2.41649">
        <ele>509.5</ele>
        <time>2023-05-28T07:43:24Z</time>
      </trkpt>
      <trkpt lat="43.34748" lon="2.41645">
        <ele>509</ele>
        <time>2023-05-28T07:43:25Z</time>
      </trkpt>
      <trkpt lat="43.34747" lon="2.41644">
        <ele>508.9</ele>
        <time>2023-05-28T07:43:26Z</time>
      </trkpt>
      <trkpt lat="43.34745" lon="2.4164">
        <ele>508.4</ele>
        <time>2023-05-28T07:43:27Z</time>
      </trkpt>
      <trkpt lat="43.34744" lon="2.41638">
        <ele>508.2</ele>
        <time>2023-05-28T07:43:28Z</time>
      </trkpt>
      <trkpt lat="43.34741" lon="2.41635">
        <ele>507.8</ele>
        <time>2023-05-28T07:43:29Z</time>
      </trkpt>
      <trkpt lat="43.3474" lon="2.41634">
        <ele>507.6</ele>
        <time>2023-05-28T07:43:30Z</time>
      </trkpt>
      <trkpt lat="43.34738" lon="2.41631">
        <ele>507.3</ele>
        <time>2023-05-28T07:43:31Z</time>
      </trkpt>
      <trkpt lat="43.34737" lon="2.4163">
        <ele>507.2</ele>
        <time>2023-05-28T07:43:32Z</time>
      </trkpt>
      <trkpt lat="43.34735" lon="2.41626">
        <ele>506.8</ele>
        <time>2023-05-28T07:43:33Z</time>
      </trkpt>
      <trkpt lat="43.34734" lon="2.41625">
        <ele>506.6</ele>
        <time>2023-05-28T07:43:34Z</time>
      </trkpt>
      <trkpt lat="43.34732" lon="2.41621">
        <ele>506.2</ele>
        <time>2023-05-28T07:43:35Z</time>
      </trkpt>
      <trkpt lat="43.34731" lon="2.4162">
        <ele>506.1</ele>
        <time>2023-05-28T07:43:36Z</time>
      </trkpt>
      <trkpt lat="43.34728" lon="2.41617">
        <ele>505.6</ele>
        <time>2023-05-28T07:43:37Z</time>
      </trkpt>
      <trkpt lat="43.34727" lon="2.41616">
        <ele>505.5</ele>
        <time>2023-05-28T07:43:38Z</time>
      </trkpt>
      <trkpt lat="43.34724" lon="2.41615">
        <ele>505</ele>
        <time>2023-05-28T07:43:39Z</time>
      </trkpt>
      <trkpt lat="43.34723" lon="2.41614">
        <ele>504.8</ele>
        <time>2023-05-28T07:43:40Z</time>
      </trkpt>
      <trkpt lat="43.34721" lon="2.41612">
        <ele>504.4</ele>
        <time>2023-05-28T07:43:41Z</time>
      </trkpt>
      <trkpt lat="43.3472" lon="2.41611">
        <ele>504.2</ele>
        <time>2023-05-28T07:43:42Z</time>
      </trkpt>
      <trkpt lat="43.34718" lon="2.41607">
        <ele>503.7</ele>
        <time>2023-05-28T07:43:43Z</time>
      </trkpt>
      <trkpt lat="43.34717" lon="2.41606">
        <ele>503.6</ele>
        <time>2023-05-28T07:43:44Z</time>
      </trkpt>
      <trkpt lat="43.34714" lon="2.41603">
        <ele>503.1</ele>
        <time>2023-05-28T07:43:45Z</time>
      </trkpt>
      <trkpt lat="43.34713" lon="2.41602">
        <ele>502.9</ele>
        <time>2023-05-28T07:43:46Z</time>
      </trkpt>
      <trkpt lat="43.3471" lon="2.416">
        <ele>502.4</ele>
        <time>2023-05-28T07:43:47Z</time>
      </trkpt>
      <trkpt lat="43.34709" lon="2.41599">
        <ele>502.2</ele>
        <time>2023-05-28T07:43:48Z</time>
      </trkpt>
      <trkpt lat="43.34705" lon="2.41597">
        <ele>501.7</ele>
        <time>2023-05-28T07:43:49Z</time>
      </trkpt>
      <trkpt lat="43.34704" lon="2.41597">
        <ele>501.6</ele>
        <time>2023-05-28T07:43:50Z</time>
      </trkpt>
      <trkpt lat="43.34701" lon="2.41594">
        <ele>501.2</ele>
        <time>2023-05-28T07:43:51Z</time>
      </trkpt>
      <trkpt lat="43.347" lon="2.41594">
        <ele>501</ele>
        <time>2023-05-28T07:43:52Z</time>
      </trkpt>
      <trkpt lat="43.34698" lon="2.41591">
        <ele>500.7</ele>
        <time>2023-05-28T07:43:53Z</time>
      </trkpt>
      <trkpt lat="43.34697" lon="2.4159">
        <ele>500.6</ele>
        <time>2023-05-28T07:43:54Z</time>
      </trkpt>
      <trkpt lat="43.34695" lon="2.41587">
        <ele>500.2</ele>
        <time>2023-05-28T07:43:55Z</time>
      </trkpt>
      <trkpt lat="43.34694" lon="2.41586">
        <ele>500.1</ele>
        <time>2023-05-28T07:43:56Z</time>
      </trkpt>
      <trkpt lat="43.34692" lon="2.41583">
        <ele>499.7</ele>
        <time>2023-05-28T07:43:57Z</time>
      </trkpt>
      <trkpt lat="43.34691" lon="2.41582">
        <ele>499.6</ele>
        <time>2023-05-28T07:43:58Z</time>
      </trkpt>
      <trkpt lat="43.34688" lon="2.41581">
        <ele>499.1</ele>
        <time>2023-05-28T07:43:59Z</time>
      </trkpt>
      <trkpt lat="43.34687" lon="2.4158">
        <ele>499</ele>
        <time>2023-05-28T07:44:00Z</time>
      </trkpt>
      <trkpt lat="43.34684" lon="2.41579">
        <ele>498.5</ele>
        <time>2023-05-28T07:44:01Z</time>
      </trkpt>
      <trkpt lat="43.34683" lon="2.41578">
        <ele>498.4</ele>
        <time>2023-05-28T07:44:02Z</time>
      </trkpt>
      <trkpt lat="43.3468" lon="2.41576">
        <ele>497.9</ele>
        <time>2023-05-28T07:44:03Z</time>
      </trkpt>
      <trkpt lat="43.34679" lon="2.41576">
        <ele>497.7</ele>
        <time>2023-05-28T07:44:04Z</time>
      </trkpt>
      <trkpt lat="43.34677" lon="2.41573">
        <ele>497.2</ele>
        <time>2023-05-28T07:44:05Z</time>
      </trkpt>
      <trkpt lat="43.34676" lon="2.41572">
        <ele>497</ele>
        <time>2023-05-28T07:44:06Z</time>
      </trkpt>
      <trkpt lat="43.34673" lon="2.41569">
        <ele>496.5</ele>
        <time>2023-05-28T07:44:07Z</time>
      </trkpt>
      <trkpt lat="43.34672" lon="2.41569">
        <ele>496.3</ele>
        <time>2023-05-28T07:44:08Z</time>
      </trkpt>
      <trkpt lat="43.34669" lon="2.41566">
        <ele>495.8</ele>
        <time>2023-05-28T07:44:09Z</time>
      </trkpt>
      <trkpt lat="43.34668" lon="2.41565">
        <ele>495.7</ele>
        <time>2023-05-28T07:44:10Z</time>
      </trkpt>
      <trkpt lat="43.34665" lon="2.41563">
        <ele>495.2</ele>
        <time>2023-05-28T07:44:11Z</time>
      </trkpt>
      <trkpt lat="43.34664" lon="2.41562">
        <ele>495.1</ele>
        <time>2023-05-28T07:44:12Z</time>
      </trkpt>
      <trkpt lat="43.34661" lon="2.41559">
        <ele>494.7</ele>
        <time>2023-05-28T07:44:13Z</time>
      </trkpt>
      <trkpt lat="43.34661" lon="2.41558">
        <ele>494.6</ele>
        <time>2023-05-28T07:44:14Z</time>
      </trkpt>
      <trkpt lat="43.34658" lon="2.41554">
        <ele>494.2</ele>
        <time>2023-05-28T07:44:15Z</time>
      </trkpt>
      <trkpt lat="43.34657" lon="2.41553">
        <ele>494</ele>
        <time>2023-05-28T07:44:16Z</time>
      </trkpt>
      <trkpt lat="43.34654" lon="2.4155">
        <ele>493.6</ele>
        <time>2023-05-28T07:44:17Z</time>
      </trkpt>
      <trkpt lat="43.34653" lon="2.41548">
        <ele>493.5</ele>
        <time>2023-05-28T07:44:18Z</time>
      </trkpt>
      <trkpt lat="43.34649" lon="2.41546">
        <ele>493.2</ele>
        <time>2023-05-28T07:44:19Z</time>
      </trkpt>
      <trkpt lat="43.34648" lon="2.41545">
        <ele>493.1</ele>
        <time>2023-05-28T07:44:20Z</time>
      </trkpt>
      <trkpt lat="43.34644" lon="2.41545">
        <ele>492.7</ele>
        <time>2023-05-28T07:44:21Z</time>
      </trkpt>
      <trkpt lat="43.34643" lon="2.41545">
        <ele>492.6</ele>
        <time>2023-05-28T07:44:22Z</time>
      </trkpt>
      <trkpt lat="43.34639" lon="2.41545">
        <ele>492.4</ele>
        <time>2023-05-28T07:44:23Z</time>
      </trkpt>
      <trkpt lat="43.34638" lon="2.41545">
        <ele>492.3</ele>
        <time>2023-05-28T07:44:24Z</time>
      </trkpt>
      <trkpt lat="43.34635" lon="2.41544">
        <ele>492.1</ele>
        <time>2023-05-28T07:44:25Z</time>
      </trkpt>
      <trkpt lat="43.34634" lon="2.41544">
        <ele>492.1</ele>
        <time>2023-05-28T07:44:26Z</time>
      </trkpt>
      <trkpt lat="43.34632" lon="2.41542">
        <ele>491.9</ele>
        <time>2023-05-28T07:44:27Z</time>
      </trkpt>
      <trkpt lat="43.34631" lon="2.41541">
        <ele>491.8</ele>
        <time>2023-05-28T07:44:28Z</time>
      </trkpt>
      <trkpt lat="43.34629" lon="2.41537">
        <ele>491.6</ele>
        <time>2023-05-28T07:44:29Z</time>
      </trkpt>
      <trkpt lat="43.34628" lon="2.41536">
        <ele>491.6</ele>
        <time>2023-05-28T07:44:30Z</time>
      </trkpt>
      <trkpt lat="43.34626" lon="2.41533">
        <ele>491.4</ele>
        <time>2023-05-28T07:44:31Z</time>
      </trkpt>
      <trkpt lat="43.34625" lon="2.41533">
        <ele>491.3</ele>
        <time>2023-05-28T07:44:32Z</time>
      </trkpt>
      <trkpt lat="43.34622" lon="2.41532">
        <ele>491.2</ele>
        <time>2023-05-28T07:44:33Z</time>
      </trkpt>
      <trkpt lat="43.3462" lon="2.41533">
        <ele>491.1</ele>
        <time>2023-05-28T07:44:34Z</time>
      </trkpt>
      <trkpt lat="43.34618" lon="2.41534">
        <ele>490.9</ele>
        <time>2023-05-28T07:44:35Z</time>
      </trkpt>
      <trkpt lat="43.34617" lon="2.41534">
        <ele>490.9</ele>
        <time>2023-05-28T07:44:36Z</time>
      </trkpt>
      <trkpt lat="43.34615" lon="2.41533">
        <ele>490.8</ele>
        <time>2023-05-28T07:44:37Z</time>
      </trkpt>
      <trkpt lat="43.34614" lon="2.41532">
        <ele>490.6</ele>
        <time>2023-05-28T07:44:38Z</time>
      </trkpt>
      <trkpt lat="43.34612" lon="2.41528">
        <ele>490.4</ele>
        <time>2023-05-28T07:44:39Z</time>
      </trkpt>
      <trkpt lat="43.34611" lon="2.41526">
        <ele>490.3</ele>
        <time>2023-05-28T07:44:40Z</time>
      </trkpt>
      <trkpt lat="43.3461" lon="2.41523">
        <ele>490.2</ele>
        <time>2023-05-28T07:44:41Z</time>
      </trkpt>
      <trkpt lat="43.34607" lon="2.41519">
        <ele>489.9</ele>
        <time>2023-05-28T07:44:42Z</time>
      </trkpt>
      <trkpt lat="43.34607" lon="2.41517">
        <ele>489.8</ele>
        <time>2023-05-28T07:44:43Z</time>
      </trkpt>
      <trkpt lat="43.34604" lon="2.41513">
        <ele>489.6</ele>
        <time>2023-05-28T07:44:44Z</time>
      </trkpt>
      <trkpt lat="43.34603" lon="2.41512">
        <ele>489.5</ele>
        <time>2023-05-28T07:44:45Z</time>
      </trkpt>
      <trkpt lat="43.34601" lon="2.41509">
        <ele>489.3</ele>
        <time>2023-05-28T07:44:46Z</time>
      </trkpt>
      <trkpt lat="43.34601" lon="2.41508">
        <ele>489.2</ele>
        <time>2023-05-28T07:44:47Z</time>
      </trkpt>
      <trkpt lat="43.34599" lon="2.41505">
        <ele>489</ele>
        <time>2023-05-28T07:44:48Z</time>
      </trkpt>
      <trkpt lat="43.34599" lon="2.41503">
        <ele>489</ele>
        <time>2023-05-28T07:44:49Z</time>
      </trkpt>
      <trkpt lat="43.34598" lon="2.41499">
        <ele>488.7</ele>
        <time>2023-05-28T07:44:50Z</time>
      </trkpt>
      <trkpt lat="43.34598" lon="2.41497">
        <ele>488.6</ele>
        <time>2023-05-28T07:44:51Z</time>
      </trkpt>
      <trkpt lat="43.34597" lon="2.41492">
        <ele>488.3</ele>
        <time>2023-05-28T07:44:52Z</time>
      </trkpt>
      <trkpt lat="43.34597" lon="2.4149">
        <ele>488.2</ele>
        <time>2023-05-28T07:44:53Z</time>
      </trkpt>
      <trkpt lat="43.34597" lon="2.41485">
        <ele>487.8</ele>
        <time>2023-05-28T07:44:54Z</time>
      </trkpt>
      <trkpt lat="43.34597" lon="2.41484">
        <ele>487.7</ele>
        <time>2023-05-28T07:44:55Z</time>
      </trkpt>
      <trkpt lat="43.34597" lon="2.4148">
        <ele>487.4</ele>
        <time>2023-05-28T07:44:56Z</time>
      </trkpt>
      <trkpt lat="43.34597" lon="2.41478">
        <ele>487.3</ele>
        <time>2023-05-28T07:44:57Z</time>
      </trkpt>
      <trkpt lat="43.34596" lon="2.41474">
        <ele>487</ele>
        <time>2023-05-28T07:44:58Z</time>
      </trkpt>
      <trkpt lat="43.34596" lon="2.41473">
        <ele>486.9</ele>
        <time>2023-05-28T07:44:59Z</time>
      </trkpt>
      <trkpt lat="43.34594" lon="2.41469">
        <ele>486.6</ele>
        <time>2023-05-28T07:45:00Z</time>
      </trkpt>
      <trkpt lat="43.34593" lon="2.41468">
        <ele>486.5</ele>
        <time>2023-05-28T07:45:01Z</time>
      </trkpt>
      <trkpt lat="43.34591" lon="2.41465">
        <ele>486.1</ele>
        <time>2023-05-28T07:45:02Z</time>
      </trkpt>
      <trkpt lat="43.3459" lon="2.41464">
        <ele>486</ele>
        <time>2023-05-28T07:45:03Z</time>
      </trkpt>
      <trkpt lat="43.34588" lon="2.4146">
        <ele>485.8</ele>
        <time>2023-05-28T07:45:04Z</time>
      </trkpt>
      <trkpt lat="43.34587" lon="2.41459">
        <ele>485.7</ele>
        <time>2023-05-28T07:45:05Z</time>
      </trkpt>
      <trkpt lat="43.34587" lon="2.41455">
        <ele>485.4</ele>
        <time>2023-05-28T07:45:06Z</time>
      </trkpt>
      <trkpt lat="43.34587" lon="2.41451">
        <ele>485.2</ele>
        <time>2023-05-28T07:45:07Z</time>
      </trkpt>
      <trkpt lat="43.34586" lon="2.41447">
        <ele>484.9</ele>
        <time>2023-05-28T07:45:08Z</time>
      </trkpt>
      <trkpt lat="43.34586" lon="2.41446">
        <ele>484.9</ele>
        <time>2023-05-28T07:45:09Z</time>
      </trkpt>
      <trkpt lat="43.34585" lon="2.41442">
        <ele>484.7</ele>
        <time>2023-05-28T07:45:10Z</time>
      </trkpt>
      <trkpt lat="43.34584" lon="2.41441">
        <ele>484.6</ele>
        <time>2023-05-28T07:45:11Z</time>
      </trkpt>
      <trkpt lat="43.34583" lon="2.41436">
        <ele>484.4</ele>
        <time>2023-05-28T07:45:12Z</time>
      </trkpt>
      <trkpt lat="43.34583" lon="2.41434">
        <ele>484.3</ele>
        <time>2023-05-28T07:45:13Z</time>
      </trkpt>
      <trkpt lat="43.34582" lon="2.4143">
        <ele>484.1</ele>
        <time>2023-05-28T07:45:14Z</time>
      </trkpt>
      <trkpt lat="43.34581" lon="2.41426">
        <ele>484</ele>
        <time>2023-05-28T07:45:15Z</time>
      </trkpt>
      <trkpt lat="43.34581" lon="2.41424">
        <ele>483.9</ele>
        <time>2023-05-28T07:45:16Z</time>
      </trkpt>
      <trkpt lat="43.34582" lon="2.4142">
        <ele>483.8</ele>
        <time>2023-05-28T07:45:17Z</time>
      </trkpt>
      <trkpt lat="43.34583" lon="2.41418">
        <ele>483.7</ele>
        <time>2023-05-28T07:45:18Z</time>
      </trkpt>
      <trkpt lat="43.34584" lon="2.41414">
        <ele>483.6</ele>
        <time>2023-05-28T07:45:19Z</time>
      </trkpt>
      <trkpt lat="43.34584" lon="2.41413">
        <ele>483.5</ele>
        <time>2023-05-28T07:45:20Z</time>
      </trkpt>
      <trkpt lat="43.34583" lon="2.41409">
        <ele>483.3</ele>
        <time>2023-05-28T07:45:21Z</time>
      </trkpt>
      <trkpt lat="43.34583" lon="2.41407">
        <ele>483.2</ele>
        <time>2023-05-28T07:45:22Z</time>
      </trkpt>
      <trkpt lat="43.34581" lon="2.41403">
        <ele>483</ele>
        <time>2023-05-28T07:45:23Z</time>
      </trkpt>
      <trkpt lat="43.3458" lon="2.41401">
        <ele>482.9</ele>
        <time>2023-05-28T07:45:24Z</time>
      </trkpt>
      <trkpt lat="43.34578" lon="2.41398">
        <ele>482.6</ele>
        <time>2023-05-28T07:45:25Z</time>
      </trkpt>
      <trkpt lat="43.34577" lon="2.41397">
        <ele>482.6</ele>
        <time>2023-05-28T07:45:26Z</time>
      </trkpt>
      <trkpt lat="43.34574" lon="2.41394">
        <ele>482.3</ele>
        <time>2023-05-28T07:45:27Z</time>
      </trkpt>
      <trkpt lat="43.34573" lon="2.41393">
        <ele>482.2</ele>
        <time>2023-05-28T07:45:28Z</time>
      </trkpt>
      <trkpt lat="43.3457" lon="2.4139">
        <ele>482</ele>
        <time>2023-05-28T07:45:29Z</time>
      </trkpt>
      <trkpt lat="43.34569" lon="2.41389">
        <ele>482</ele>
        <time>2023-05-28T07:45:30Z</time>
      </trkpt>
      <trkpt lat="43.34568" lon="2.41386">
        <ele>481.9</ele>
        <time>2023-05-28T07:45:31Z</time>
      </trkpt>
      <trkpt lat="43.34567" lon="2.41385">
        <ele>481.8</ele>
        <time>2023-05-28T07:45:32Z</time>
      </trkpt>
      <trkpt lat="43.34566" lon="2.4138">
        <ele>481.7</ele>
        <time>2023-05-28T07:45:33Z</time>
      </trkpt>
      <trkpt lat="43.34566" lon="2.41379">
        <ele>481.6</ele>
        <time>2023-05-28T07:45:34Z</time>
      </trkpt>
      <trkpt lat="43.34567" lon="2.41374">
        <ele>481.4</ele>
        <time>2023-05-28T07:45:35Z</time>
      </trkpt>
      <trkpt lat="43.34567" lon="2.41372">
        <ele>481.4</ele>
        <time>2023-05-28T07:45:36Z</time>
      </trkpt>
      <trkpt lat="43.34567" lon="2.41368">
        <ele>481.2</ele>
        <time>2023-05-28T07:45:37Z</time>
      </trkpt>
      <trkpt lat="43.34566" lon="2.41366">
        <ele>481.2</ele>
        <time>2023-05-28T07:45:38Z</time>
      </trkpt>
      <trkpt lat="43.34564" lon="2.41363">
        <ele>481</ele>
        <time>2023-05-28T07:45:39Z</time>
      </trkpt>
      <trkpt lat="43.34563" lon="2.41362">
        <ele>480.9</ele>
        <time>2023-05-28T07:45:40Z</time>
      </trkpt>
      <trkpt lat="43.34561" lon="2.41359">
        <ele>480.7</ele>
        <time>2023-05-28T07:45:41Z</time>
      </trkpt>
      <trkpt lat="43.3456" lon="2.41358">
        <ele>480.7</ele>
        <time>2023-05-28T07:45:42Z</time>
      </trkpt>
      <trkpt lat="43.34558" lon="2.41354">
        <ele>480.5</ele>
        <time>2023-05-28T07:45:43Z</time>
      </trkpt>
      <trkpt lat="43.34557" lon="2.41353">
        <ele>480.4</ele>
        <time>2023-05-28T07:45:44Z</time>
      </trkpt>
      <trkpt lat="43.34555" lon="2.4135">
        <ele>480.2</ele>
        <time>2023-05-28T07:45:45Z</time>
      </trkpt>
      <trkpt lat="43.34554" lon="2.41349">
        <ele>480.2</ele>
        <time>2023-05-28T07:45:46Z</time>
      </trkpt>
      <trkpt lat="43.34553" lon="2.41347">
        <ele>480.1</ele>
        <time>2023-05-28T07:45:47Z</time>
      </trkpt>
      <trkpt lat="43.34552" lon="2.41346">
        <ele>480.1</ele>
        <time>2023-05-28T07:45:48Z</time>
      </trkpt>
      <trkpt lat="43.34551" lon="2.41345">
        <ele>480</ele>
        <time>2023-05-28T07:45:49Z</time>
      </trkpt>
      <trkpt lat="43.3455" lon="2.41343">
        <ele>479.9</ele>
        <time>2023-05-28T07:45:50Z</time>
      </trkpt>
      <trkpt lat="43.34549" lon="2.41342">
        <ele>479.8</ele>
        <time>2023-05-28T07:45:51Z</time>
      </trkpt>
      <trkpt lat="43.34548" lon="2.4134">
        <ele>479.8</ele>
        <time>2023-05-28T07:45:52Z</time>
      </trkpt>
      <trkpt lat="43.34546" lon="2.41338">
        <ele>479.7</ele>
        <time>2023-05-28T07:45:53Z</time>
      </trkpt>
      <trkpt lat="43.34546" lon="2.41338">
        <ele>479.1</ele>
        <time>2023-05-28T07:45:54Z</time>
      </trkpt>
      <trkpt lat="43.34545" lon="2.41337">
        <ele>479</ele>
        <time>2023-05-28T07:45:55Z</time>
      </trkpt>
      <trkpt lat="43.34544" lon="2.41337">
        <ele>478.9</ele>
        <time>2023-05-28T07:45:56Z</time>
      </trkpt>
      <trkpt lat="43.34543" lon="2.41336">
        <ele>478.7</ele>
        <time>2023-05-28T07:45:57Z</time>
      </trkpt>
      <trkpt lat="43.34542" lon="2.41336">
        <ele>478.6</ele>
        <time>2023-05-28T07:45:58Z</time>
      </trkpt>
      <trkpt lat="43.3454" lon="2.41337">
        <ele>478.4</ele>
        <time>2023-05-28T07:45:59Z</time>
      </trkpt>
      <trkpt lat="43.34539" lon="2.41339">
        <ele>478.1</ele>
        <time>2023-05-28T07:46:00Z</time>
      </trkpt>
      <trkpt lat="43.34538" lon="2.41343">
        <ele>477.7</ele>
        <time>2023-05-28T07:46:01Z</time>
      </trkpt>
      <trkpt lat="43.34538" lon="2.41344">
        <ele>477.6</ele>
        <time>2023-05-28T07:46:02Z</time>
      </trkpt>
      <trkpt lat="43.34537" lon="2.41349">
        <ele>477.2</ele>
        <time>2023-05-28T07:46:03Z</time>
      </trkpt>
      <trkpt lat="43.34537" lon="2.4135">
        <ele>477.1</ele>
        <time>2023-05-28T07:46:04Z</time>
      </trkpt>
      <trkpt lat="43.34535" lon="2.41354">
        <ele>476.7</ele>
        <time>2023-05-28T07:46:05Z</time>
      </trkpt>
      <trkpt lat="43.34534" lon="2.41355">
        <ele>476.6</ele>
        <time>2023-05-28T07:46:06Z</time>
      </trkpt>
      <trkpt lat="43.34532" lon="2.41359">
        <ele>476.3</ele>
        <time>2023-05-28T07:46:07Z</time>
      </trkpt>
      <trkpt lat="43.34531" lon="2.4136">
        <ele>476.2</ele>
        <time>2023-05-28T07:46:08Z</time>
      </trkpt>
      <trkpt lat="43.3453" lon="2.41363">
        <ele>475.8</ele>
        <time>2023-05-28T07:46:09Z</time>
      </trkpt>
      <trkpt lat="43.34529" lon="2.41364">
        <ele>475.7</ele>
        <time>2023-05-28T07:46:10Z</time>
      </trkpt>
      <trkpt lat="43.34528" lon="2.41368">
        <ele>475.4</ele>
        <time>2023-05-28T07:46:11Z</time>
      </trkpt>
      <trkpt lat="43.34528" lon="2.4137">
        <ele>475.3</ele>
        <time>2023-05-28T07:46:12Z</time>
      </trkpt>
      <trkpt lat="43.34528" lon="2.41374">
        <ele>475</ele>
        <time>2023-05-28T07:46:13Z</time>
      </trkpt>
      <trkpt lat="43.34528" lon="2.41375">
        <ele>474.9</ele>
        <time>2023-05-28T07:46:14Z</time>
      </trkpt>
      <trkpt lat="43.34527" lon="2.41379">
        <ele>474.7</ele>
        <time>2023-05-28T07:46:15Z</time>
      </trkpt>
      <trkpt lat="43.34527" lon="2.41381">
        <ele>474.6</ele>
        <time>2023-05-28T07:46:16Z</time>
      </trkpt>
      <trkpt lat="43.34525" lon="2.41384">
        <ele>474.3</ele>
        <time>2023-05-28T07:46:17Z</time>
      </trkpt>
      <trkpt lat="43.34524" lon="2.41385">
        <ele>474.1</ele>
        <time>2023-05-28T07:46:18Z</time>
      </trkpt>
      <trkpt lat="43.34522" lon="2.41387">
        <ele>473.8</ele>
        <time>2023-05-28T07:46:19Z</time>
      </trkpt>
      <trkpt lat="43.3452" lon="2.41387">
        <ele>473.7</ele>
        <time>2023-05-28T07:46:20Z</time>
      </trkpt>
      <trkpt lat="43.34517" lon="2.41389">
        <ele>473.3</ele>
        <time>2023-05-28T07:46:21Z</time>
      </trkpt>
      <trkpt lat="43.34516" lon="2.41389">
        <ele>473.1</ele>
        <time>2023-05-28T07:46:22Z</time>
      </trkpt>
      <trkpt lat="43.34513" lon="2.4139">
        <ele>472.8</ele>
        <time>2023-05-28T07:46:23Z</time>
      </trkpt>
      <trkpt lat="43.34512" lon="2.4139">
        <ele>472.6</ele>
        <time>2023-05-28T07:46:24Z</time>
      </trkpt>
      <trkpt lat="43.34509" lon="2.4139">
        <ele>472.2</ele>
        <time>2023-05-28T07:46:25Z</time>
      </trkpt>
      <trkpt lat="43.34507" lon="2.4139">
        <ele>472</ele>
        <time>2023-05-28T07:46:26Z</time>
      </trkpt>
      <trkpt lat="43.34505" lon="2.41393">
        <ele>471.5</ele>
        <time>2023-05-28T07:46:27Z</time>
      </trkpt>
      <trkpt lat="43.34504" lon="2.41395">
        <ele>471.4</ele>
        <time>2023-05-28T07:46:28Z</time>
      </trkpt>
      <trkpt lat="43.34504" lon="2.414">
        <ele>470.9</ele>
        <time>2023-05-28T07:46:29Z</time>
      </trkpt>
      <trkpt lat="43.34503" lon="2.41402">
        <ele>470.7</ele>
        <time>2023-05-28T07:46:30Z</time>
      </trkpt>
      <trkpt lat="43.34503" lon="2.41405">
        <ele>470.4</ele>
        <time>2023-05-28T07:46:31Z</time>
      </trkpt>
      <trkpt lat="43.34503" lon="2.4141">
        <ele>470</ele>
        <time>2023-05-28T07:46:32Z</time>
      </trkpt>
      <trkpt lat="43.34503" lon="2.41411">
        <ele>469.9</ele>
        <time>2023-05-28T07:46:33Z</time>
      </trkpt>
      <trkpt lat="43.34503" lon="2.41415">
        <ele>469.5</ele>
        <time>2023-05-28T07:46:34Z</time>
      </trkpt>
      <trkpt lat="43.34504" lon="2.41416">
        <ele>469.4</ele>
        <time>2023-05-28T07:46:35Z</time>
      </trkpt>
      <trkpt lat="43.34505" lon="2.41418">
        <ele>469.2</ele>
        <time>2023-05-28T07:46:36Z</time>
      </trkpt>
      <trkpt lat="43.34505" lon="2.4142">
        <ele>469.1</ele>
        <time>2023-05-28T07:46:37Z</time>
      </trkpt>
      <trkpt lat="43.34506" lon="2.41422">
        <ele>469</ele>
        <time>2023-05-28T07:46:38Z</time>
      </trkpt>
      <trkpt lat="43.34507" lon="2.41423">
        <ele>468.8</ele>
        <time>2023-05-28T07:46:39Z</time>
      </trkpt>
      <trkpt lat="43.34507" lon="2.41425">
        <ele>468.7</ele>
        <time>2023-05-28T07:46:40Z</time>
      </trkpt>
      <trkpt lat="43.34507" lon="2.41427">
        <ele>468.5</ele>
        <time>2023-05-28T07:46:41Z</time>
      </trkpt>
      <trkpt lat="43.34507" lon="2.41428">
        <ele>468.5</ele>
        <time>2023-05-28T07:46:42Z</time>
      </trkpt>
      <trkpt lat="43.34505" lon="2.41429">
        <ele>468.3</ele>
        <time>2023-05-28T07:46:43Z</time>
      </trkpt>
      <trkpt lat="43.34504" lon="2.41429">
        <ele>468.1</ele>
        <time>2023-05-28T07:46:44Z</time>
      </trkpt>
      <trkpt lat="43.34503" lon="2.41429">
        <ele>468</ele>
        <time>2023-05-28T07:46:45Z</time>
      </trkpt>
      <trkpt lat="43.34501" lon="2.4143">
        <ele>467.8</ele>
        <time>2023-05-28T07:46:46Z</time>
      </trkpt>
      <trkpt lat="43.345" lon="2.4143">
        <ele>467.6</ele>
        <time>2023-05-28T07:46:47Z</time>
      </trkpt>
      <trkpt lat="43.34498" lon="2.41432">
        <ele>467.4</ele>
        <time>2023-05-28T07:46:48Z</time>
      </trkpt>
      <trkpt lat="43.34497" lon="2.41434">
        <ele>467.2</ele>
        <time>2023-05-28T07:46:49Z</time>
      </trkpt>
      <trkpt lat="43.34497" lon="2.41436">
        <ele>467</ele>
        <time>2023-05-28T07:46:50Z</time>
      </trkpt>
      <trkpt lat="43.34496" lon="2.41438">
        <ele>466.8</ele>
        <time>2023-05-28T07:46:51Z</time>
      </trkpt>
      <trkpt lat="43.34495" lon="2.41441">
        <ele>466.6</ele>
        <time>2023-05-28T07:46:52Z</time>
      </trkpt>
      <trkpt lat="43.34495" lon="2.41442">
        <ele>466.5</ele>
        <time>2023-05-28T07:46:53Z</time>
      </trkpt>
      <trkpt lat="43.34495" lon="2.41443">
        <ele>466.4</ele>
        <time>2023-05-28T07:46:54Z</time>
      </trkpt>
      <trkpt lat="43.34494" lon="2.41445">
        <ele>466.2</ele>
        <time>2023-05-28T07:46:55Z</time>
      </trkpt>
      <trkpt lat="43.34493" lon="2.41446">
        <ele>466.1</ele>
        <time>2023-05-28T07:46:56Z</time>
      </trkpt>
      <trkpt lat="43.34493" lon="2.41448">
        <ele>466</ele>
        <time>2023-05-28T07:46:57Z</time>
      </trkpt>
      <trkpt lat="43.34492" lon="2.41448">
        <ele>465.9</ele>
        <time>2023-05-28T07:46:58Z</time>
      </trkpt>
      <trkpt lat="43.34491" lon="2.4145">
        <ele>465.7</ele>
        <time>2023-05-28T07:46:59Z</time>
      </trkpt>
      <trkpt lat="43.3449" lon="2.41451">
        <ele>465.5</ele>
        <time>2023-05-28T07:47:00Z</time>
      </trkpt>
      <trkpt lat="43.34489" lon="2.41452">
        <ele>465.4</ele>
        <time>2023-05-28T07:47:01Z</time>
      </trkpt>
      <trkpt lat="43.34486" lon="2.41454">
        <ele>465.1</ele>
        <time>2023-05-28T07:47:02Z</time>
      </trkpt>
      <trkpt lat="43.34485" lon="2.41455">
        <ele>465</ele>
        <time>2023-05-28T07:47:03Z</time>
      </trkpt>
      <trkpt lat="43.34485" lon="2.41458">
        <ele>464.7</ele>
        <time>2023-05-28T07:47:04Z</time>
      </trkpt>
      <trkpt lat="43.34484" lon="2.41459">
        <ele>464.6</ele>
        <time>2023-05-28T07:47:05Z</time>
      </trkpt>
      <trkpt lat="43.34484" lon="2.4146">
        <ele>464.6</ele>
        <time>2023-05-28T07:47:06Z</time>
      </trkpt>
      <trkpt lat="43.34484" lon="2.41462">
        <ele>464.4</ele>
        <time>2023-05-28T07:47:07Z</time>
      </trkpt>
      <trkpt lat="43.34484" lon="2.41463">
        <ele>464.3</ele>
        <time>2023-05-28T07:47:08Z</time>
      </trkpt>
      <trkpt lat="43.34483" lon="2.41464">
        <ele>464.2</ele>
        <time>2023-05-28T07:47:09Z</time>
      </trkpt>
      <trkpt lat="43.34482" lon="2.41463">
        <ele>464.1</ele>
        <time>2023-05-28T07:47:10Z</time>
      </trkpt>
      <trkpt lat="43.3448" lon="2.41462">
        <ele>463.9</ele>
        <time>2023-05-28T07:47:11Z</time>
      </trkpt>
      <trkpt lat="43.34478" lon="2.41459">
        <ele>463.7</ele>
        <time>2023-05-28T07:47:12Z</time>
      </trkpt>
      <trkpt lat="43.34477" lon="2.41458">
        <ele>463.6</ele>
        <time>2023-05-28T07:47:13Z</time>
      </trkpt>
      <trkpt lat="43.34476" lon="2.41455">
        <ele>463.5</ele>
        <time>2023-05-28T07:47:14Z</time>
      </trkpt>
      <trkpt lat="43.34475" lon="2.41454">
        <ele>463.4</ele>
        <time>2023-05-28T07:47:15Z</time>
      </trkpt>
      <trkpt lat="43.34474" lon="2.41451">
        <ele>463.3</ele>
        <time>2023-05-28T07:47:16Z</time>
      </trkpt>
      <trkpt lat="43.34472" lon="2.4145">
        <ele>463.3</ele>
        <time>2023-05-28T07:47:17Z</time>
      </trkpt>
      <trkpt lat="43.34471" lon="2.4145">
        <ele>463.2</ele>
        <time>2023-05-28T07:47:18Z</time>
      </trkpt>
      <trkpt lat="43.3447" lon="2.4145">
        <ele>463.2</ele>
        <time>2023-05-28T07:47:19Z</time>
      </trkpt>
      <trkpt lat="43.34469" lon="2.4145">
        <ele>463.2</ele>
        <time>2023-05-28T07:47:20Z</time>
      </trkpt>
      <trkpt lat="43.34468" lon="2.4145">
        <ele>463.2</ele>
        <time>2023-05-28T07:47:21Z</time>
      </trkpt>
      <trkpt lat="43.34467" lon="2.41451">
        <ele>463.2</ele>
        <time>2023-05-28T07:47:22Z</time>
      </trkpt>
      <trkpt lat="43.34466" lon="2.41451">
        <ele>463.2</ele>
        <time>2023-05-28T07:47:23Z</time>
      </trkpt>
      <trkpt lat="43.34465" lon="2.41452">
        <ele>463.2</ele>
        <time>2023-05-28T07:47:24Z</time>
      </trkpt>
      <trkpt lat="43.34464" lon="2.41452">
        <ele>463.2</ele>
        <time>2023-05-28T07:47:25Z</time>
      </trkpt>
      <trkpt lat="43.34463" lon="2.41453">
        <ele>463.2</ele>
        <time>2023-05-28T07:47:26Z</time>
      </trkpt>
      <trkpt lat="43.34462" lon="2.41453">
        <ele>463.2</ele>
        <time>2023-05-28T07:47:27Z</time>
      </trkpt>
      <trkpt lat="43.3446" lon="2.41453">
        <ele>463.2</ele>
        <time>2023-05-28T07:47:28Z</time>
      </trkpt>
      <trkpt lat="43.34459" lon="2.41453">
        <ele>463.3</ele>
        <time>2023-05-28T07:47:29Z</time>
      </trkpt>
      <trkpt lat="43.34457" lon="2.41453">
        <ele>463.3</ele>
        <time>2023-05-28T07:47:30Z</time>
      </trkpt>
      <trkpt lat="43.34456" lon="2.41453">
        <ele>463.3</ele>
        <time>2023-05-28T07:47:31Z</time>
      </trkpt>
      <trkpt lat="43.34455" lon="2.41453">
        <ele>463.3</ele>
        <time>2023-05-28T07:47:32Z</time>
      </trkpt>
      <trkpt lat="43.34454" lon="2.41454">
        <ele>463.4</ele>
        <time>2023-05-28T07:47:33Z</time>
      </trkpt>
      <trkpt lat="43.34453" lon="2.41454">
        <ele>463.4</ele>
        <time>2023-05-28T07:47:34Z</time>
      </trkpt>
      <trkpt lat="43.34451" lon="2.41455">
        <ele>463.4</ele>
        <time>2023-05-28T07:47:35Z</time>
      </trkpt>
      <trkpt lat="43.34449" lon="2.41457">
        <ele>463.5</ele>
        <time>2023-05-28T07:47:36Z</time>
      </trkpt>
      <trkpt lat="43.34448" lon="2.41457">
        <ele>463.5</ele>
        <time>2023-05-28T07:47:37Z</time>
      </trkpt>
      <trkpt lat="43.34445" lon="2.41459">
        <ele>463.5</ele>
        <time>2023-05-28T07:47:38Z</time>
      </trkpt>
      <trkpt lat="43.34444" lon="2.41459">
        <ele>463.5</ele>
        <time>2023-05-28T07:47:39Z</time>
      </trkpt>
      <trkpt lat="43.34443" lon="2.4146">
        <ele>463.5</ele>
        <time>2023-05-28T07:47:40Z</time>
      </trkpt>
      <trkpt lat="43.34442" lon="2.41461">
        <ele>463.5</ele>
        <time>2023-05-28T07:47:41Z</time>
      </trkpt>
      <trkpt lat="43.34441" lon="2.41462">
        <ele>463.5</ele>
        <time>2023-05-28T07:47:42Z</time>
      </trkpt>
      <trkpt lat="43.34439" lon="2.41463">
        <ele>463.4</ele>
        <time>2023-05-28T07:47:43Z</time>
      </trkpt>
      <trkpt lat="43.34436" lon="2.41463">
        <ele>463.4</ele>
        <time>2023-05-28T07:47:44Z</time>
      </trkpt>
      <trkpt lat="43.34435" lon="2.41462">
        <ele>463.3</ele>
        <time>2023-05-28T07:47:45Z</time>
      </trkpt>
      <trkpt lat="43.34433" lon="2.4146">
        <ele>463.2</ele>
        <time>2023-05-28T07:47:46Z</time>
      </trkpt>
      <trkpt lat="43.34432" lon="2.4146">
        <ele>463.1</ele>
        <time>2023-05-28T07:47:47Z</time>
      </trkpt>
      <trkpt lat="43.34431" lon="2.41456">
        <ele>463</ele>
        <time>2023-05-28T07:47:48Z</time>
      </trkpt>
      <trkpt lat="43.3443" lon="2.41455">
        <ele>462.9</ele>
        <time>2023-05-28T07:47:49Z</time>
      </trkpt>
      <trkpt lat="43.3443" lon="2.41451">
        <ele>462.6</ele>
        <time>2023-05-28T07:47:50Z</time>
      </trkpt>
      <trkpt lat="43.3443" lon="2.41449">
        <ele>462.5</ele>
        <time>2023-05-28T07:47:51Z</time>
      </trkpt>
      <trkpt lat="43.3443" lon="2.41445">
        <ele>462.2</ele>
        <time>2023-05-28T07:47:52Z</time>
      </trkpt>
      <trkpt lat="43.34429" lon="2.41444">
        <ele>462.1</ele>
        <time>2023-05-28T07:47:53Z</time>
      </trkpt>
      <trkpt lat="43.34428" lon="2.41442">
        <ele>461.9</ele>
        <time>2023-05-28T07:47:54Z</time>
      </trkpt>
      <trkpt lat="43.34427" lon="2.4144">
        <ele>461.8</ele>
        <time>2023-05-28T07:47:55Z</time>
      </trkpt>
      <trkpt lat="43.34426" lon="2.41438">
        <ele>461.6</ele>
        <time>2023-05-28T07:47:56Z</time>
      </trkpt>
      <trkpt lat="43.34425" lon="2.41436">
        <ele>461.4</ele>
        <time>2023-05-28T07:47:57Z</time>
      </trkpt>
      <trkpt lat="43.34425" lon="2.41432">
        <ele>461.1</ele>
        <time>2023-05-28T07:47:58Z</time>
      </trkpt>
      <trkpt lat="43.34425" lon="2.4143">
        <ele>460.9</ele>
        <time>2023-05-28T07:47:59Z</time>
      </trkpt>
      <trkpt lat="43.34425" lon="2.41426">
        <ele>460.6</ele>
        <time>2023-05-28T07:48:00Z</time>
      </trkpt>
      <trkpt lat="43.34425" lon="2.41424">
        <ele>460.5</ele>
        <time>2023-05-28T07:48:01Z</time>
      </trkpt>
      <trkpt lat="43.34424" lon="2.41422">
        <ele>460.3</ele>
        <time>2023-05-28T07:48:02Z</time>
      </trkpt>
      <trkpt lat="43.34423" lon="2.4142">
        <ele>460.1</ele>
        <time>2023-05-28T07:48:03Z</time>
      </trkpt>
      <trkpt lat="43.34422" lon="2.41418">
        <ele>459.9</ele>
        <time>2023-05-28T07:48:04Z</time>
      </trkpt>
      <trkpt lat="43.34421" lon="2.41417">
        <ele>459.7</ele>
        <time>2023-05-28T07:48:05Z</time>
      </trkpt>
      <trkpt lat="43.34419" lon="2.41413">
        <ele>459.4</ele>
        <time>2023-05-28T07:48:06Z</time>
      </trkpt>
      <trkpt lat="43.34418" lon="2.41412">
        <ele>459.2</ele>
        <time>2023-05-28T07:48:07Z</time>
      </trkpt>
      <trkpt lat="43.34418" lon="2.41408">
        <ele>458.8</ele>
        <time>2023-05-28T07:48:08Z</time>
      </trkpt>
      <trkpt lat="43.34418" lon="2.41406">
        <ele>458.7</ele>
        <time>2023-05-28T07:48:09Z</time>
      </trkpt>
      <trkpt lat="43.34418" lon="2.41401">
        <ele>458.2</ele>
        <time>2023-05-28T07:48:10Z</time>
      </trkpt>
      <trkpt lat="43.34418" lon="2.414">
        <ele>458</ele>
        <time>2023-05-28T07:48:11Z</time>
      </trkpt>
      <trkpt lat="43.34418" lon="2.41398">
        <ele>457.8</ele>
        <time>2023-05-28T07:48:12Z</time>
      </trkpt>
      <trkpt lat="43.34416" lon="2.41396">
        <ele>457.5</ele>
        <time>2023-05-28T07:48:13Z</time>
      </trkpt>
      <trkpt lat="43.34415" lon="2.41396">
        <ele>457.3</ele>
        <time>2023-05-28T07:48:14Z</time>
      </trkpt>
      <trkpt lat="43.34413" lon="2.41396">
        <ele>457</ele>
        <time>2023-05-28T07:48:15Z</time>
      </trkpt>
      <trkpt lat="43.34412" lon="2.41397">
        <ele>456.7</ele>
        <time>2023-05-28T07:48:16Z</time>
      </trkpt>
      <trkpt lat="43.34411" lon="2.41398">
        <ele>456</ele>
        <time>2023-05-28T07:48:17Z</time>
      </trkpt>
      <trkpt lat="43.34411" lon="2.41398">
        <ele>455.9</ele>
        <time>2023-05-28T07:48:18Z</time>
      </trkpt>
      <trkpt lat="43.34411" lon="2.41399">
        <ele>455.9</ele>
        <time>2023-05-28T07:48:19Z</time>
      </trkpt>
      <trkpt lat="43.34411" lon="2.41399">
        <ele>455.9</ele>
        <time>2023-05-28T07:48:20Z</time>
      </trkpt>
      <trkpt lat="43.3441" lon="2.414">
        <ele>455.8</ele>
        <time>2023-05-28T07:48:21Z</time>
      </trkpt>
      <trkpt lat="43.3441" lon="2.414">
        <ele>455.8</ele>
        <time>2023-05-28T07:48:22Z</time>
      </trkpt>
      <trkpt lat="43.3441" lon="2.41401">
        <ele>455.7</ele>
        <time>2023-05-28T07:48:23Z</time>
      </trkpt>
      <trkpt lat="43.3441" lon="2.41401">
        <ele>455.7</ele>
        <time>2023-05-28T07:48:24Z</time>
      </trkpt>
      <trkpt lat="43.34409" lon="2.41401">
        <ele>455.7</ele>
        <time>2023-05-28T07:48:25Z</time>
      </trkpt>
      <trkpt lat="43.34409" lon="2.41401">
        <ele>455.7</ele>
        <time>2023-05-28T07:48:26Z</time>
      </trkpt>
      <trkpt lat="43.34409" lon="2.41401">
        <ele>455.7</ele>
        <time>2023-05-28T07:48:27Z</time>
      </trkpt>
      <trkpt lat="43.34409" lon="2.41402">
        <ele>455.6</ele>
        <time>2023-05-28T07:48:28Z</time>
      </trkpt>
      <trkpt lat="43.34409" lon="2.41402">
        <ele>455.6</ele>
        <time>2023-05-28T07:48:29Z</time>
      </trkpt>
      <trkpt lat="43.34408" lon="2.41402">
        <ele>455.6</ele>
        <time>2023-05-28T07:48:30Z</time>
      </trkpt>
      <trkpt lat="43.34407" lon="2.41402">
        <ele>455.5</ele>
        <time>2023-05-28T07:48:31Z</time>
      </trkpt>
      <trkpt lat="43.34406" lon="2.41402">
        <ele>455.4</ele>
        <time>2023-05-28T07:48:32Z</time>
      </trkpt>
      <trkpt lat="43.34405" lon="2.41402">
        <ele>455.3</ele>
        <time>2023-05-28T07:48:33Z</time>
      </trkpt>
      <trkpt lat="43.34405" lon="2.41401">
        <ele>455.2</ele>
        <time>2023-05-28T07:48:34Z</time>
      </trkpt>
      <trkpt lat="43.34404" lon="2.41401">
        <ele>455.1</ele>
        <time>2023-05-28T07:48:35Z</time>
      </trkpt>
      <trkpt lat="43.34402" lon="2.414">
        <ele>455</ele>
        <time>2023-05-28T07:48:36Z</time>
      </trkpt>
      <trkpt lat="43.34401" lon="2.41401">
        <ele>454.9</ele>
        <time>2023-05-28T07:48:37Z</time>
      </trkpt>
      <trkpt lat="43.34401" lon="2.41402">
        <ele>454.8</ele>
        <time>2023-05-28T07:48:38Z</time>
      </trkpt>
      <trkpt lat="43.344" lon="2.41404">
        <ele>454.7</ele>
        <time>2023-05-28T07:48:39Z</time>
      </trkpt>
      <trkpt lat="43.34399" lon="2.41407">
        <ele>454.5</ele>
        <time>2023-05-28T07:48:40Z</time>
      </trkpt>
      <trkpt lat="43.34399" lon="2.41408">
        <ele>454.5</ele>
        <time>2023-05-28T07:48:41Z</time>
      </trkpt>
      <trkpt lat="43.34399" lon="2.41409">
        <ele>454.4</ele>
        <time>2023-05-28T07:48:42Z</time>
      </trkpt>
      <trkpt lat="43.34399" lon="2.4141">
        <ele>454.4</ele>
        <time>2023-05-28T07:48:43Z</time>
      </trkpt>
      <trkpt lat="43.34398" lon="2.41412">
        <ele>454.3</ele>
        <time>2023-05-28T07:48:44Z</time>
      </trkpt>
      <trkpt lat="43.34397" lon="2.41413">
        <ele>454.2</ele>
        <time>2023-05-28T07:48:45Z</time>
      </trkpt>
      <trkpt lat="43.34397" lon="2.41414">
        <ele>454.2</ele>
        <time>2023-05-28T07:48:46Z</time>
      </trkpt>
      <trkpt lat="43.34396" lon="2.41416">
        <ele>454.1</ele>
        <time>2023-05-28T07:48:47Z</time>
      </trkpt>
      <trkpt lat="43.34396" lon="2.41417">
        <ele>454</ele>
        <time>2023-05-28T07:48:48Z</time>
      </trkpt>
      <trkpt lat="43.34395" lon="2.4142">
        <ele>453.9</ele>
        <time>2023-05-28T07:48:49Z</time>
      </trkpt>
      <trkpt lat="43.34394" lon="2.41421">
        <ele>453.9</ele>
        <time>2023-05-28T07:48:50Z</time>
      </trkpt>
      <trkpt lat="43.34394" lon="2.41422">
        <ele>453.8</ele>
        <time>2023-05-28T07:48:51Z</time>
      </trkpt>
      <trkpt lat="43.34393" lon="2.41425">
        <ele>453.7</ele>
        <time>2023-05-28T07:48:52Z</time>
      </trkpt>
      <trkpt lat="43.34392" lon="2.41426">
        <ele>453.7</ele>
        <time>2023-05-28T07:48:53Z</time>
      </trkpt>
      <trkpt lat="43.34391" lon="2.41426">
        <ele>453.6</ele>
        <time>2023-05-28T07:48:54Z</time>
      </trkpt>
      <trkpt lat="43.3439" lon="2.41428">
        <ele>453.5</ele>
        <time>2023-05-28T07:48:55Z</time>
      </trkpt>
      <trkpt lat="43.34389" lon="2.41428">
        <ele>453.5</ele>
        <time>2023-05-28T07:48:56Z</time>
      </trkpt>
      <trkpt lat="43.34388" lon="2.41429">
        <ele>453.4</ele>
        <time>2023-05-28T07:48:57Z</time>
      </trkpt>
      <trkpt lat="43.34387" lon="2.4143">
        <ele>453.4</ele>
        <time>2023-05-28T07:48:58Z</time>
      </trkpt>
      <trkpt lat="43.34387" lon="2.41432">
        <ele>453.3</ele>
        <time>2023-05-28T07:48:59Z</time>
      </trkpt>
      <trkpt lat="43.34385" lon="2.41435">
        <ele>453.1</ele>
        <time>2023-05-28T07:49:00Z</time>
      </trkpt>
      <trkpt lat="43.34385" lon="2.41436">
        <ele>453.1</ele>
        <time>2023-05-28T07:49:01Z</time>
      </trkpt>
      <trkpt lat="43.34384" lon="2.41437">
        <ele>453</ele>
        <time>2023-05-28T07:49:02Z</time>
      </trkpt>
      <trkpt lat="43.34383" lon="2.4144">
        <ele>452.9</ele>
        <time>2023-05-28T07:49:03Z</time>
      </trkpt>
      <trkpt lat="43.34382" lon="2.41441">
        <ele>452.8</ele>
        <time>2023-05-28T07:49:04Z</time>
      </trkpt>
      <trkpt lat="43.34381" lon="2.41444">
        <ele>452.7</ele>
        <time>2023-05-28T07:49:05Z</time>
      </trkpt>
      <trkpt lat="43.34381" lon="2.41446">
        <ele>452.6</ele>
        <time>2023-05-28T07:49:06Z</time>
      </trkpt>
      <trkpt lat="43.3438" lon="2.41449">
        <ele>452.4</ele>
        <time>2023-05-28T07:49:07Z</time>
      </trkpt>
      <trkpt lat="43.34379" lon="2.4145">
        <ele>452.3</ele>
        <time>2023-05-28T07:49:08Z</time>
      </trkpt>
      <trkpt lat="43.34377" lon="2.41454">
        <ele>452.1</ele>
        <time>2023-05-28T07:49:09Z</time>
      </trkpt>
      <trkpt lat="43.34377" lon="2.41455">
        <ele>452.1</ele>
        <time>2023-05-28T07:49:10Z</time>
      </trkpt>
      <trkpt lat="43.34376" lon="2.41457">
        <ele>452</ele>
        <time>2023-05-28T07:49:11Z</time>
      </trkpt>
      <trkpt lat="43.34375" lon="2.41458">
        <ele>451.9</ele>
        <time>2023-05-28T07:49:12Z</time>
      </trkpt>
      <trkpt lat="43.34373" lon="2.41461">
        <ele>451.8</ele>
        <time>2023-05-28T07:49:13Z</time>
      </trkpt>
      <trkpt lat="43.34372" lon="2.41462">
        <ele>451.7</ele>
        <time>2023-05-28T07:49:14Z</time>
      </trkpt>
      <trkpt lat="43.3437" lon="2.41466">
        <ele>451.6</ele>
        <time>2023-05-28T07:49:15Z</time>
      </trkpt>
      <trkpt lat="43.3437" lon="2.41468">
        <ele>451.5</ele>
        <time>2023-05-28T07:49:16Z</time>
      </trkpt>
      <trkpt lat="43.34367" lon="2.41472">
        <ele>451.5</ele>
        <time>2023-05-28T07:49:17Z</time>
      </trkpt>
      <trkpt lat="43.34367" lon="2.41473">
        <ele>451.5</ele>
        <time>2023-05-28T07:49:18Z</time>
      </trkpt>
      <trkpt lat="43.34364" lon="2.41476">
        <ele>451.5</ele>
        <time>2023-05-28T07:49:19Z</time>
      </trkpt>
      <trkpt lat="43.34364" lon="2.41477">
        <ele>451.5</ele>
        <time>2023-05-28T07:49:20Z</time>
      </trkpt>
      <trkpt lat="43.34362" lon="2.41479">
        <ele>451.5</ele>
        <time>2023-05-28T07:49:21Z</time>
      </trkpt>
      <trkpt lat="43.34361" lon="2.4148">
        <ele>451.5</ele>
        <time>2023-05-28T07:49:22Z</time>
      </trkpt>
      <trkpt lat="43.34359" lon="2.41484">
        <ele>451.6</ele>
        <time>2023-05-28T07:49:23Z</time>
      </trkpt>
      <trkpt lat="43.34358" lon="2.41485">
        <ele>451.6</ele>
        <time>2023-05-28T07:49:24Z</time>
      </trkpt>
      <trkpt lat="43.34355" lon="2.41489">
        <ele>451.8</ele>
        <time>2023-05-28T07:49:25Z</time>
      </trkpt>
      <trkpt lat="43.34354" lon="2.4149">
        <ele>451.8</ele>
        <time>2023-05-28T07:49:26Z</time>
      </trkpt>
      <trkpt lat="43.3435" lon="2.41492">
        <ele>452</ele>
        <time>2023-05-28T07:49:27Z</time>
      </trkpt>
      <trkpt lat="43.34349" lon="2.41493">
        <ele>452</ele>
        <time>2023-05-28T07:49:28Z</time>
      </trkpt>
      <trkpt lat="43.34346" lon="2.41496">
        <ele>452.1</ele>
        <time>2023-05-28T07:49:29Z</time>
      </trkpt>
      <trkpt lat="43.34345" lon="2.41497">
        <ele>452.2</ele>
        <time>2023-05-28T07:49:30Z</time>
      </trkpt>
      <trkpt lat="43.34343" lon="2.415">
        <ele>452.3</ele>
        <time>2023-05-28T07:49:31Z</time>
      </trkpt>
      <trkpt lat="43.34342" lon="2.41501">
        <ele>452.3</ele>
        <time>2023-05-28T07:49:32Z</time>
      </trkpt>
      <trkpt lat="43.34341" lon="2.41505">
        <ele>452.4</ele>
        <time>2023-05-28T07:49:33Z</time>
      </trkpt>
      <trkpt lat="43.3434" lon="2.41506">
        <ele>452.4</ele>
        <time>2023-05-28T07:49:34Z</time>
      </trkpt>
      <trkpt lat="43.34339" lon="2.4151">
        <ele>452.5</ele>
        <time>2023-05-28T07:49:35Z</time>
      </trkpt>
      <trkpt lat="43.34338" lon="2.41512">
        <ele>452.5</ele>
        <time>2023-05-28T07:49:36Z</time>
      </trkpt>
      <trkpt lat="43.34336" lon="2.41515">
        <ele>452.5</ele>
        <time>2023-05-28T07:49:37Z</time>
      </trkpt>
      <trkpt lat="43.34336" lon="2.41516">
        <ele>452.6</ele>
        <time>2023-05-28T07:49:38Z</time>
      </trkpt>
      <trkpt lat="43.34333" lon="2.41519">
        <ele>452.6</ele>
        <time>2023-05-28T07:49:39Z</time>
      </trkpt>
      <trkpt lat="43.34332" lon="2.41519">
        <ele>452.6</ele>
        <time>2023-05-28T07:49:40Z</time>
      </trkpt>
      <trkpt lat="43.34329" lon="2.41521">
        <ele>452.6</ele>
        <time>2023-05-28T07:49:41Z</time>
      </trkpt>
      <trkpt lat="43.34328" lon="2.41521">
        <ele>452.7</ele>
        <time>2023-05-28T07:49:42Z</time>
      </trkpt>
      <trkpt lat="43.34325" lon="2.41523">
        <ele>452.7</ele>
        <time>2023-05-28T07:49:43Z</time>
      </trkpt>
      <trkpt lat="43.34324" lon="2.41523">
        <ele>452.6</ele>
        <time>2023-05-28T07:49:44Z</time>
      </trkpt>
      <trkpt lat="43.34321" lon="2.41524">
        <ele>452.6</ele>
        <time>2023-05-28T07:49:45Z</time>
      </trkpt>
      <trkpt lat="43.3432" lon="2.41525">
        <ele>452.6</ele>
        <time>2023-05-28T07:49:46Z</time>
      </trkpt>
      <trkpt lat="43.34317" lon="2.41525">
        <ele>452.5</ele>
        <time>2023-05-28T07:49:47Z</time>
      </trkpt>
      <trkpt lat="43.34316" lon="2.41525">
        <ele>452.5</ele>
        <time>2023-05-28T07:49:48Z</time>
      </trkpt>
      <trkpt lat="43.34313" lon="2.41525">
        <ele>452.4</ele>
        <time>2023-05-28T07:49:49Z</time>
      </trkpt>
      <trkpt lat="43.34312" lon="2.41525">
        <ele>452.3</ele>
        <time>2023-05-28T07:49:50Z</time>
      </trkpt>
      <trkpt lat="43.34309" lon="2.41525">
        <ele>452</ele>
        <time>2023-05-28T07:49:51Z</time>
      </trkpt>
      <trkpt lat="43.34308" lon="2.41525">
        <ele>452.1</ele>
        <time>2023-05-28T07:49:52Z</time>
      </trkpt>
      <trkpt lat="43.34306" lon="2.41525">
        <ele>452.4</ele>
        <time>2023-05-28T07:49:53Z</time>
      </trkpt>
      <trkpt lat="43.34304" lon="2.41524">
        <ele>452.6</ele>
        <time>2023-05-28T07:49:54Z</time>
      </trkpt>
      <trkpt lat="43.34303" lon="2.4152">
        <ele>453</ele>
        <time>2023-05-28T07:49:55Z</time>
      </trkpt>
      <trkpt lat="43.34303" lon="2.41519">
        <ele>453.1</ele>
        <time>2023-05-28T07:49:56Z</time>
      </trkpt>
      <trkpt lat="43.34303" lon="2.41518">
        <ele>453.2</ele>
        <time>2023-05-28T07:49:57Z</time>
      </trkpt>
      <trkpt lat="43.34304" lon="2.41517">
        <ele>453.3</ele>
        <time>2023-05-28T07:49:58Z</time>
      </trkpt>
      <trkpt lat="43.34304" lon="2.41518">
        <ele>453.4</ele>
        <time>2023-05-28T07:49:59Z</time>
      </trkpt>
      <trkpt lat="43.34305" lon="2.41518">
        <ele>453.5</ele>
        <time>2023-05-28T07:50:00Z</time>
      </trkpt>
      <trkpt lat="43.34305" lon="2.41518">
        <ele>453.5</ele>
        <time>2023-05-28T07:50:01Z</time>
      </trkpt>
      <trkpt lat="43.34305" lon="2.41517">
        <ele>453.5</ele>
        <time>2023-05-28T07:50:02Z</time>
      </trkpt>
      <trkpt lat="43.34305" lon="2.41517">
        <ele>453.6</ele>
        <time>2023-05-28T07:50:03Z</time>
      </trkpt>
      <trkpt lat="43.34306" lon="2.41517">
        <ele>453.6</ele>
        <time>2023-05-28T07:50:04Z</time>
      </trkpt>
      <trkpt lat="43.34305" lon="2.41517">
        <ele>453.6</ele>
        <time>2023-05-28T07:50:05Z</time>
      </trkpt>
      <trkpt lat="43.34305" lon="2.41516">
        <ele>453.7</ele>
        <time>2023-05-28T07:50:06Z</time>
      </trkpt>
      <trkpt lat="43.34306" lon="2.41514">
        <ele>453.9</ele>
        <time>2023-05-28T07:50:07Z</time>
      </trkpt>
      <trkpt lat="43.34306" lon="2.41513">
        <ele>454</ele>
        <time>2023-05-28T07:50:08Z</time>
      </trkpt>
      <trkpt lat="43.34306" lon="2.41512">
        <ele>454.1</ele>
        <time>2023-05-28T07:50:09Z</time>
      </trkpt>
      <trkpt lat="43.34306" lon="2.41511">
        <ele>454.2</ele>
        <time>2023-05-28T07:50:10Z</time>
      </trkpt>
      <trkpt lat="43.34306" lon="2.41508">
        <ele>454.5</ele>
        <time>2023-05-28T07:50:11Z</time>
      </trkpt>
      <trkpt lat="43.34306" lon="2.41506">
        <ele>454.7</ele>
        <time>2023-05-28T07:50:12Z</time>
      </trkpt>
      <trkpt lat="43.34306" lon="2.41505">
        <ele>454.8</ele>
        <time>2023-05-28T07:50:13Z</time>
      </trkpt>
      <trkpt lat="43.34305" lon="2.41503">
        <ele>455</ele>
        <time>2023-05-28T07:50:14Z</time>
      </trkpt>
      <trkpt lat="43.34305" lon="2.415">
        <ele>455.3</ele>
        <time>2023-05-28T07:50:15Z</time>
      </trkpt>
      <trkpt lat="43.34304" lon="2.41498">
        <ele>455.5</ele>
        <time>2023-05-28T07:50:16Z</time>
      </trkpt>
      <trkpt lat="43.34304" lon="2.41496">
        <ele>455.7</ele>
        <time>2023-05-28T07:50:17Z</time>
      </trkpt>
      <trkpt lat="43.34304" lon="2.41494">
        <ele>455.9</ele>
        <time>2023-05-28T07:50:18Z</time>
      </trkpt>
      <trkpt lat="43.34303" lon="2.41491">
        <ele>456.1</ele>
        <time>2023-05-28T07:50:19Z</time>
      </trkpt>
      <trkpt lat="43.34302" lon="2.41487">
        <ele>456.5</ele>
        <time>2023-05-28T07:50:20Z</time>
      </trkpt>
      <trkpt lat="43.34301" lon="2.41486">
        <ele>456.7</ele>
        <time>2023-05-28T07:50:21Z</time>
      </trkpt>
      <trkpt lat="43.343" lon="2.41484">
        <ele>456.9</ele>
        <time>2023-05-28T07:50:22Z</time>
      </trkpt>
      <trkpt lat="43.343" lon="2.41482">
        <ele>457</ele>
        <time>2023-05-28T07:50:23Z</time>
      </trkpt>
      <trkpt lat="43.34298" lon="2.4148">
        <ele>457.2</ele>
        <time>2023-05-28T07:50:24Z</time>
      </trkpt>
      <trkpt lat="43.34297" lon="2.41479">
        <ele>457.3</ele>
        <time>2023-05-28T07:50:25Z</time>
      </trkpt>
      <trkpt lat="43.34297" lon="2.41479">
        <ele>457.4</ele>
        <time>2023-05-28T07:50:26Z</time>
      </trkpt>
      <trkpt lat="43.34296" lon="2.41478">
        <ele>457.5</ele>
        <time>2023-05-28T07:50:27Z</time>
      </trkpt>
      <trkpt lat="43.34295" lon="2.41478">
        <ele>457.6</ele>
        <time>2023-05-28T07:50:28Z</time>
      </trkpt>
      <trkpt lat="43.34294" lon="2.41477">
        <ele>457.7</ele>
        <time>2023-05-28T07:50:29Z</time>
      </trkpt>
      <trkpt lat="43.34293" lon="2.41477">
        <ele>457.7</ele>
        <time>2023-05-28T07:50:30Z</time>
      </trkpt>
      <trkpt lat="43.34292" lon="2.41476">
        <ele>457.9</ele>
        <time>2023-05-28T07:50:31Z</time>
      </trkpt>
      <trkpt lat="43.34291" lon="2.41476">
        <ele>457.9</ele>
        <time>2023-05-28T07:50:32Z</time>
      </trkpt>
      <trkpt lat="43.3429" lon="2.41475">
        <ele>458</ele>
        <time>2023-05-28T07:50:33Z</time>
      </trkpt>
      <trkpt lat="43.34289" lon="2.41475">
        <ele>458</ele>
        <time>2023-05-28T07:50:34Z</time>
      </trkpt>
      <trkpt lat="43.34289" lon="2.41475">
        <ele>458.1</ele>
        <time>2023-05-28T07:50:35Z</time>
      </trkpt>
      <trkpt lat="43.34289" lon="2.41475">
        <ele>458.1</ele>
        <time>2023-05-28T07:50:36Z</time>
      </trkpt>
      <trkpt lat="43.34289" lon="2.41475">
        <ele>458.1</ele>
        <time>2023-05-28T07:50:37Z</time>
      </trkpt>
      <trkpt lat="43.3429" lon="2.41475">
        <ele>458.1</ele>
        <time>2023-05-28T07:50:38Z</time>
      </trkpt>
      <trkpt lat="43.34289" lon="2.41475">
        <ele>458.1</ele>
        <time>2023-05-28T07:50:39Z</time>
      </trkpt>
      <trkpt lat="43.34291" lon="2.41475">
        <ele>458.2</ele>
        <time>2023-05-28T07:50:40Z</time>
      </trkpt>
      <trkpt lat="43.34291" lon="2.41475">
        <ele>458.2</ele>
        <time>2023-05-28T07:50:41Z</time>
      </trkpt>
      <trkpt lat="43.34291" lon="2.41475">
        <ele>458.2</ele>
        <time>2023-05-28T07:50:42Z</time>
      </trkpt>
      <trkpt lat="43.34292" lon="2.41475">
        <ele>458.3</ele>
        <time>2023-05-28T07:50:43Z</time>
      </trkpt>
      <trkpt lat="43.34292" lon="2.41475">
        <ele>458.3</ele>
        <time>2023-05-28T07:50:44Z</time>
      </trkpt>
      <trkpt lat="43.34291" lon="2.41475">
        <ele>458.3</ele>
        <time>2023-05-28T07:50:45Z</time>
      </trkpt>
      <trkpt lat="43.34291" lon="2.41475">
        <ele>458.3</ele>
        <time>2023-05-28T07:50:46Z</time>
      </trkpt>
      <trkpt lat="43.34291" lon="2.41475">
        <ele>458.3</ele>
        <time>2023-05-28T07:50:47Z</time>
      </trkpt>
      <trkpt lat="43.34291" lon="2.41474">
        <ele>458.3</ele>
        <time>2023-05-28T07:50:48Z</time>
      </trkpt>
      <trkpt lat="43.34291" lon="2.41474">
        <ele>458.3</ele>
        <time>2023-05-28T07:50:49Z</time>
      </trkpt>
      <trkpt lat="43.34291" lon="2.41474">
        <ele>458.3</ele>
        <time>2023-05-28T07:50:50Z</time>
      </trkpt>
      <trkpt lat="43.34291" lon="2.41474">
        <ele>458.3</ele>
        <time>2023-05-28T07:50:51Z</time>
      </trkpt>
      <trkpt lat="43.34291" lon="2.41474">
        <ele>458.3</ele>
        <time>2023-05-28T07:50:52Z</time>
      </trkpt>
      <trkpt lat="43.34291" lon="2.41474">
        <ele>458.3</ele>
        <time>2023-05-28T07:50:53Z</time>
      </trkpt>
      <trkpt lat="43.34291" lon="2.41474">
        <ele>458.3</ele>
        <time>2023-05-28T07:50:54Z</time>
      </trkpt>
      <trkpt lat="43.34291" lon="2.41474">
        <ele>458.3</ele>
        <time>2023-05-28T07:50:55Z</time>
      </trkpt>
      <trkpt lat="43.34291" lon="2.41474">
        <ele>458.3</ele>
        <time>2023-05-28T07:50:56Z</time>
      </trkpt>
      <trkpt lat="43.34291" lon="2.41474">
        <ele>458.3</ele>
        <time>2023-05-28T07:50:57Z</time>
      </trkpt>
      <trkpt lat="43.34291" lon="2.41474">
        <ele>458.3</ele>
        <time>2023-05-28T07:50:58Z</time>
      </trkpt>
      <trkpt lat="43.34291" lon="2.41474">
        <ele>458.3</ele>
        <time>2023-05-28T07:50:59Z</time>
      </trkpt>
      <trkpt lat="43.34291" lon="2.41474">
        <ele>458.3</ele>
        <time>2023-05-28T07:51:00Z</time>
      </trkpt>
      <trkpt lat="43.34291" lon="2.41474">
        <ele>458.3</ele>
        <time>2023-05-28T07:51:01Z</time>
      </trkpt>
      <trkpt lat="43.34291" lon="2.41474">
        <ele>458.3</ele>
        <time>2023-05-28T07:51:02Z</time>
      </trkpt>
      <trkpt lat="43.34291" lon="2.41474">
        <ele>458.3</ele>
        <time>2023-05-28T07:51:03Z</time>
      </trkpt>
      <trkpt lat="43.34291" lon="2.41474">
        <ele>458.4</ele>
        <time>2023-05-28T07:51:04Z</time>
      </trkpt>
      <trkpt lat="43.3429" lon="2.41474">
        <ele>458.4</ele>
        <time>2023-05-28T07:51:05Z</time>
      </trkpt>
      <trkpt lat="43.3429" lon="2.41474">
        <ele>458.4</ele>
        <time>2023-05-28T07:51:06Z</time>
      </trkpt>
      <trkpt lat="43.3429" lon="2.41474">
        <ele>458.4</ele>
        <time>2023-05-28T07:51:07Z</time>
      </trkpt>
      <trkpt lat="43.3429" lon="2.41474">
        <ele>458.4</ele>
        <time>2023-05-28T07:51:08Z</time>
      </trkpt>
      <trkpt lat="43.3429" lon="2.41474">
        <ele>458.4</ele>
        <time>2023-05-28T07:51:09Z</time>
      </trkpt>
      <trkpt lat="43.3429" lon="2.41474">
        <ele>458.4</ele>
        <time>2023-05-28T07:51:10Z</time>
      </trkpt>
      <trkpt lat="43.3429" lon="2.41473">
        <ele>458.4</ele>
        <time>2023-05-28T07:51:11Z</time>
      </trkpt>
      <trkpt lat="43.34291" lon="2.41473">
        <ele>458.5</ele>
        <time>2023-05-28T07:51:12Z</time>
      </trkpt>
      <trkpt lat="43.34291" lon="2.41473">
        <ele>458.5</ele>
        <time>2023-05-28T07:51:13Z</time>
      </trkpt>
      <trkpt lat="43.34293" lon="2.41474">
        <ele>458.6</ele>
        <time>2023-05-28T07:51:14Z</time>
      </trkpt>
      <trkpt lat="43.34294" lon="2.41475">
        <ele>458.7</ele>
        <time>2023-05-28T07:51:15Z</time>
      </trkpt>
      <trkpt lat="43.34295" lon="2.41475">
        <ele>458.7</ele>
        <time>2023-05-28T07:51:16Z</time>
      </trkpt>
      <trkpt lat="43.34296" lon="2.41475">
        <ele>458.7</ele>
        <time>2023-05-28T07:51:17Z</time>
      </trkpt>
      <trkpt lat="43.34297" lon="2.41476">
        <ele>458.7</ele>
        <time>2023-05-28T07:51:18Z</time>
      </trkpt>
      <trkpt lat="43.34298" lon="2.41476">
        <ele>458.8</ele>
        <time>2023-05-28T07:51:19Z</time>
      </trkpt>
      <trkpt lat="43.34299" lon="2.41475">
        <ele>458.8</ele>
        <time>2023-05-28T07:51:20Z</time>
      </trkpt>
      <trkpt lat="43.343" lon="2.41475">
        <ele>458.8</ele>
        <time>2023-05-28T07:51:21Z</time>
      </trkpt>
      <trkpt lat="43.34301" lon="2.41474">
        <ele>458.8</ele>
        <time>2023-05-28T07:51:22Z</time>
      </trkpt>
      <trkpt lat="43.34301" lon="2.41474">
        <ele>458.9</ele>
        <time>2023-05-28T07:51:23Z</time>
      </trkpt>
      <trkpt lat="43.34302" lon="2.41473">
        <ele>458.9</ele>
        <time>2023-05-28T07:51:24Z</time>
      </trkpt>
      <trkpt lat="43.34304" lon="2.41473">
        <ele>458.9</ele>
        <time>2023-05-28T07:51:25Z</time>
      </trkpt>
      <trkpt lat="43.34305" lon="2.41472">
        <ele>458.9</ele>
        <time>2023-05-28T07:51:26Z</time>
      </trkpt>
      <trkpt lat="43.34307" lon="2.41471">
        <ele>458.9</ele>
        <time>2023-05-28T07:51:27Z</time>
      </trkpt>
      <trkpt lat="43.34308" lon="2.4147">
        <ele>458.9</ele>
        <time>2023-05-28T07:51:28Z</time>
      </trkpt>
      <trkpt lat="43.34309" lon="2.41468">
        <ele>458.9</ele>
        <time>2023-05-28T07:51:29Z</time>
      </trkpt>
      <trkpt lat="43.34311" lon="2.41465">
        <ele>458.9</ele>
        <time>2023-05-28T07:51:30Z</time>
      </trkpt>
      <trkpt lat="43.34312" lon="2.41464">
        <ele>458.9</ele>
        <time>2023-05-28T07:51:31Z</time>
      </trkpt>
      <trkpt lat="43.34314" lon="2.41462">
        <ele>458.8</ele>
        <time>2023-05-28T07:51:32Z</time>
      </trkpt>
      <trkpt lat="43.34315" lon="2.41461">
        <ele>458.8</ele>
        <time>2023-05-28T07:51:33Z</time>
      </trkpt>
      <trkpt lat="43.34317" lon="2.41458">
        <ele>458.7</ele>
        <time>2023-05-28T07:51:34Z</time>
      </trkpt>
      <trkpt lat="43.34318" lon="2.41457">
        <ele>458.6</ele>
        <time>2023-05-28T07:51:35Z</time>
      </trkpt>
      <trkpt lat="43.34319" lon="2.41453">
        <ele>458.5</ele>
        <time>2023-05-28T07:51:36Z</time>
      </trkpt>
      <trkpt lat="43.3432" lon="2.41452">
        <ele>458.4</ele>
        <time>2023-05-28T07:51:37Z</time>
      </trkpt>
      <trkpt lat="43.3432" lon="2.41448">
        <ele>458.3</ele>
        <time>2023-05-28T07:51:38Z</time>
      </trkpt>
      <trkpt lat="43.3432" lon="2.41446">
        <ele>458.2</ele>
        <time>2023-05-28T07:51:39Z</time>
      </trkpt>
      <trkpt lat="43.3432" lon="2.41443">
        <ele>458.1</ele>
        <time>2023-05-28T07:51:40Z</time>
      </trkpt>
      <trkpt lat="43.34321" lon="2.41441">
        <ele>458</ele>
        <time>2023-05-28T07:51:41Z</time>
      </trkpt>
      <trkpt lat="43.34321" lon="2.4144">
        <ele>458</ele>
        <time>2023-05-28T07:51:42Z</time>
      </trkpt>
      <trkpt lat="43.34322" lon="2.41439">
        <ele>457.9</ele>
        <time>2023-05-28T07:51:43Z</time>
      </trkpt>
      <trkpt lat="43.34323" lon="2.41438">
        <ele>457.8</ele>
        <time>2023-05-28T07:51:44Z</time>
      </trkpt>
      <trkpt lat="43.34324" lon="2.41437">
        <ele>457.7</ele>
        <time>2023-05-28T07:51:45Z</time>
      </trkpt>
      <trkpt lat="43.34325" lon="2.41436">
        <ele>457.7</ele>
        <time>2023-05-28T07:51:46Z</time>
      </trkpt>
      <trkpt lat="43.34326" lon="2.41436">
        <ele>457.6</ele>
        <time>2023-05-28T07:51:47Z</time>
      </trkpt>
      <trkpt lat="43.34327" lon="2.41434">
        <ele>457.4</ele>
        <time>2023-05-28T07:51:48Z</time>
      </trkpt>
      <trkpt lat="43.34327" lon="2.41433">
        <ele>457.4</ele>
        <time>2023-05-28T07:51:49Z</time>
      </trkpt>
      <trkpt lat="43.34328" lon="2.41432">
        <ele>457.3</ele>
        <time>2023-05-28T07:51:50Z</time>
      </trkpt>
      <trkpt lat="43.34329" lon="2.4143">
        <ele>457.1</ele>
        <time>2023-05-28T07:51:51Z</time>
      </trkpt>
      <trkpt lat="43.3433" lon="2.41429">
        <ele>457</ele>
        <time>2023-05-28T07:51:52Z</time>
      </trkpt>
      <trkpt lat="43.34331" lon="2.41428">
        <ele>457</ele>
        <time>2023-05-28T07:51:53Z</time>
      </trkpt>
      <trkpt lat="43.34332" lon="2.41427">
        <ele>456.9</ele>
        <time>2023-05-28T07:51:54Z</time>
      </trkpt>
      <trkpt lat="43.34333" lon="2.41427">
        <ele>456.8</ele>
        <time>2023-05-28T07:51:55Z</time>
      </trkpt>
      <trkpt lat="43.34333" lon="2.41426">
        <ele>456.7</ele>
        <time>2023-05-28T07:51:56Z</time>
      </trkpt>
      <trkpt lat="43.34333" lon="2.41424">
        <ele>456.6</ele>
        <time>2023-05-28T07:51:57Z</time>
      </trkpt>
      <trkpt lat="43.34333" lon="2.41423">
        <ele>456.5</ele>
        <time>2023-05-28T07:51:58Z</time>
      </trkpt>
      <trkpt lat="43.34333" lon="2.41421">
        <ele>456.4</ele>
        <time>2023-05-28T07:51:59Z</time>
      </trkpt>
      <trkpt lat="43.34332" lon="2.4142">
        <ele>456.3</ele>
        <time>2023-05-28T07:52:00Z</time>
      </trkpt>
      <trkpt lat="43.34331" lon="2.41418">
        <ele>456.1</ele>
        <time>2023-05-28T07:52:01Z</time>
      </trkpt>
      <trkpt lat="43.34331" lon="2.41415">
        <ele>455.9</ele>
        <time>2023-05-28T07:52:02Z</time>
      </trkpt>
      <trkpt lat="43.34331" lon="2.41414">
        <ele>455.9</ele>
        <time>2023-05-28T07:52:03Z</time>
      </trkpt>
      <trkpt lat="43.34331" lon="2.41412">
        <ele>455.8</ele>
        <time>2023-05-28T07:52:04Z</time>
      </trkpt>
      <trkpt lat="43.34332" lon="2.41411">
        <ele>455.7</ele>
        <time>2023-05-28T07:52:05Z</time>
      </trkpt>
      <trkpt lat="43.34332" lon="2.4141">
        <ele>455.6</ele>
        <time>2023-05-28T07:52:06Z</time>
      </trkpt>
      <trkpt lat="43.34333" lon="2.41409">
        <ele>455.6</ele>
        <time>2023-05-28T07:52:07Z</time>
      </trkpt>
      <trkpt lat="43.34333" lon="2.41408">
        <ele>455.5</ele>
        <time>2023-05-28T07:52:08Z</time>
      </trkpt>
      <trkpt lat="43.34333" lon="2.41406">
        <ele>455.4</ele>
        <time>2023-05-28T07:52:09Z</time>
      </trkpt>
      <trkpt lat="43.34333" lon="2.41405">
        <ele>455.3</ele>
        <time>2023-05-28T07:52:10Z</time>
      </trkpt>
      <trkpt lat="43.34333" lon="2.41403">
        <ele>455.2</ele>
        <time>2023-05-28T07:52:11Z</time>
      </trkpt>
      <trkpt lat="43.34333" lon="2.41402">
        <ele>455.1</ele>
        <time>2023-05-28T07:52:12Z</time>
      </trkpt>
      <trkpt lat="43.34333" lon="2.41401">
        <ele>455</ele>
        <time>2023-05-28T07:52:13Z</time>
      </trkpt>
      <trkpt lat="43.34333" lon="2.414">
        <ele>455</ele>
        <time>2023-05-28T07:52:14Z</time>
      </trkpt>
      <trkpt lat="43.34332" lon="2.41399">
        <ele>454.9</ele>
        <time>2023-05-28T07:52:15Z</time>
      </trkpt>
      <trkpt lat="43.34332" lon="2.41399">
        <ele>454.9</ele>
        <time>2023-05-28T07:52:16Z</time>
      </trkpt>
      <trkpt lat="43.34332" lon="2.41398">
        <ele>454.7</ele>
        <time>2023-05-28T07:52:17Z</time>
      </trkpt>
      <trkpt lat="43.34332" lon="2.41397">
        <ele>454.7</ele>
        <time>2023-05-28T07:52:18Z</time>
      </trkpt>
      <trkpt lat="43.34332" lon="2.41397">
        <ele>454.7</ele>
        <time>2023-05-28T07:52:19Z</time>
      </trkpt>
      <trkpt lat="43.34332" lon="2.41396">
        <ele>454.6</ele>
        <time>2023-05-28T07:52:20Z</time>
      </trkpt>
      <trkpt lat="43.34331" lon="2.41395">
        <ele>454.6</ele>
        <time>2023-05-28T07:52:21Z</time>
      </trkpt>
      <trkpt lat="43.34331" lon="2.41395">
        <ele>454.6</ele>
        <time>2023-05-28T07:52:22Z</time>
      </trkpt>
      <trkpt lat="43.34331" lon="2.41392">
        <ele>454.6</ele>
        <time>2023-05-28T07:52:23Z</time>
      </trkpt>
      <trkpt lat="43.34332" lon="2.4139">
        <ele>454.5</ele>
        <time>2023-05-28T07:52:24Z</time>
      </trkpt>
      <trkpt lat="43.34332" lon="2.41388">
        <ele>454.5</ele>
        <time>2023-05-28T07:52:25Z</time>
      </trkpt>
      <trkpt lat="43.34332" lon="2.41385">
        <ele>454.4</ele>
        <time>2023-05-28T07:52:26Z</time>
      </trkpt>
      <trkpt lat="43.34331" lon="2.41381">
        <ele>454.4</ele>
        <time>2023-05-28T07:52:27Z</time>
      </trkpt>
      <trkpt lat="43.34331" lon="2.4138">
        <ele>454.4</ele>
        <time>2023-05-28T07:52:28Z</time>
      </trkpt>
      <trkpt lat="43.34331" lon="2.41379">
        <ele>454.3</ele>
        <time>2023-05-28T07:52:29Z</time>
      </trkpt>
      <trkpt lat="43.3433" lon="2.41378">
        <ele>454.3</ele>
        <time>2023-05-28T07:52:30Z</time>
      </trkpt>
      <trkpt lat="43.3433" lon="2.41377">
        <ele>454.3</ele>
        <time>2023-05-28T07:52:31Z</time>
      </trkpt>
      <trkpt lat="43.3433" lon="2.41376">
        <ele>454.3</ele>
        <time>2023-05-28T07:52:32Z</time>
      </trkpt>
      <trkpt lat="43.3433" lon="2.41375">
        <ele>454.2</ele>
        <time>2023-05-28T07:52:33Z</time>
      </trkpt>
      <trkpt lat="43.3433" lon="2.41374">
        <ele>454.2</ele>
        <time>2023-05-28T07:52:34Z</time>
      </trkpt>
      <trkpt lat="43.34331" lon="2.41374">
        <ele>454.2</ele>
        <time>2023-05-28T07:52:35Z</time>
      </trkpt>
      <trkpt lat="43.34331" lon="2.41373">
        <ele>454.2</ele>
        <time>2023-05-28T07:52:36Z</time>
      </trkpt>
      <trkpt lat="43.34331" lon="2.41372">
        <ele>454.2</ele>
        <time>2023-05-28T07:52:37Z</time>
      </trkpt>
      <trkpt lat="43.34332" lon="2.41371">
        <ele>454.2</ele>
        <time>2023-05-28T07:52:38Z</time>
      </trkpt>
      <trkpt lat="43.34332" lon="2.4137">
        <ele>454.1</ele>
        <time>2023-05-28T07:52:39Z</time>
      </trkpt>
      <trkpt lat="43.34333" lon="2.41369">
        <ele>454.1</ele>
        <time>2023-05-28T07:52:40Z</time>
      </trkpt>
      <trkpt lat="43.34334" lon="2.41368">
        <ele>454.1</ele>
        <time>2023-05-28T07:52:41Z</time>
      </trkpt>
      <trkpt lat="43.34334" lon="2.41368">
        <ele>454.1</ele>
        <time>2023-05-28T07:52:42Z</time>
      </trkpt>
      <trkpt lat="43.34334" lon="2.41368">
        <ele>454.1</ele>
        <time>2023-05-28T07:52:43Z</time>
      </trkpt>
      <trkpt lat="43.34334" lon="2.41368">
        <ele>454.1</ele>
        <time>2023-05-28T07:52:44Z</time>
      </trkpt>
      <trkpt lat="43.34333" lon="2.41368">
        <ele>454</ele>
        <time>2023-05-28T07:52:45Z</time>
      </trkpt>
      <trkpt lat="43.34333" lon="2.41367">
        <ele>454</ele>
        <time>2023-05-28T07:52:46Z</time>
      </trkpt>
      <trkpt lat="43.34332" lon="2.41367">
        <ele>454</ele>
        <time>2023-05-28T07:52:47Z</time>
      </trkpt>
      <trkpt lat="43.34332" lon="2.41366">
        <ele>454</ele>
        <time>2023-05-28T07:52:48Z</time>
      </trkpt>
      <trkpt lat="43.34331" lon="2.41366">
        <ele>454</ele>
        <time>2023-05-28T07:52:49Z</time>
      </trkpt>
      <trkpt lat="43.34331" lon="2.41366">
        <ele>454</ele>
        <time>2023-05-28T07:52:50Z</time>
      </trkpt>
      <trkpt lat="43.34331" lon="2.41366">
        <ele>453.9</ele>
        <time>2023-05-28T07:52:51Z</time>
      </trkpt>
      <trkpt lat="43.34331" lon="2.41365">
        <ele>453.9</ele>
        <time>2023-05-28T07:52:52Z</time>
      </trkpt>
      <trkpt lat="43.34331" lon="2.41365">
        <ele>453.9</ele>
        <time>2023-05-28T07:52:53Z</time>
      </trkpt>
      <trkpt lat="43.34331" lon="2.41365">
        <ele>453.9</ele>
        <time>2023-05-28T07:52:54Z</time>
      </trkpt>
      <trkpt lat="43.34331" lon="2.41365">
        <ele>453.9</ele>
        <time>2023-05-28T07:52:55Z</time>
      </trkpt>
      <trkpt lat="43.34331" lon="2.41364">
        <ele>453.9</ele>
        <time>2023-05-28T07:52:56Z</time>
      </trkpt>
      <trkpt lat="43.34331" lon="2.41364">
        <ele>453.9</ele>
        <time>2023-05-28T07:52:57Z</time>
      </trkpt>
      <trkpt lat="43.34332" lon="2.41364">
        <ele>453.9</ele>
        <time>2023-05-28T07:52:58Z</time>
      </trkpt>
      <trkpt lat="43.34332" lon="2.41363">
        <ele>453.8</ele>
        <time>2023-05-28T07:52:59Z</time>
      </trkpt>
      <trkpt lat="43.34333" lon="2.41363">
        <ele>453.8</ele>
        <time>2023-05-28T07:53:00Z</time>
      </trkpt>
      <trkpt lat="43.34333" lon="2.41363">
        <ele>453.8</ele>
        <time>2023-05-28T07:53:01Z</time>
      </trkpt>
      <trkpt lat="43.34333" lon="2.41363">
        <ele>453.8</ele>
        <time>2023-05-28T07:53:02Z</time>
      </trkpt>
      <trkpt lat="43.34333" lon="2.41362">
        <ele>453.8</ele>
        <time>2023-05-28T07:53:03Z</time>
      </trkpt>
      <trkpt lat="43.34334" lon="2.41363">
        <ele>453.7</ele>
        <time>2023-05-28T07:53:04Z</time>
      </trkpt>
      <trkpt lat="43.34334" lon="2.41364">
        <ele>453.7</ele>
        <time>2023-05-28T07:53:05Z</time>
      </trkpt>
      <trkpt lat="43.34335" lon="2.41364">
        <ele>453.7</ele>
        <time>2023-05-28T07:53:06Z</time>
      </trkpt>
      <trkpt lat="43.34335" lon="2.41364">
        <ele>453.7</ele>
        <time>2023-05-28T07:53:07Z</time>
      </trkpt>
      <trkpt lat="43.34335" lon="2.41364">
        <ele>453.7</ele>
        <time>2023-05-28T07:53:08Z</time>
      </trkpt>
      <trkpt lat="43.34335" lon="2.41364">
        <ele>453.7</ele>
        <time>2023-05-28T07:53:09Z</time>
      </trkpt>
      <trkpt lat="43.34335" lon="2.41364">
        <ele>453.7</ele>
        <time>2023-05-28T07:53:10Z</time>
      </trkpt>
      <trkpt lat="43.34335" lon="2.41364">
        <ele>453.7</ele>
        <time>2023-05-28T07:53:11Z</time>
      </trkpt>
      <trkpt lat="43.34335" lon="2.41364">
        <ele>453.7</ele>
        <time>2023-05-28T07:53:12Z</time>
      </trkpt>
      <trkpt lat="43.34335" lon="2.41364">
        <ele>453.7</ele>
        <time>2023-05-28T07:53:13Z</time>
      </trkpt>
      <trkpt lat="43.34335" lon="2.41364">
        <ele>453.7</ele>
        <time>2023-05-28T07:53:14Z</time>
      </trkpt>
      <trkpt lat="43.34335" lon="2.41364">
        <ele>453.7</ele>
        <time>2023-05-28T07:53:15Z</time>
      </trkpt>
      <trkpt lat="43.34335" lon="2.41364">
        <ele>453.7</ele>
        <time>2023-05-28T07:53:16Z</time>
      </trkpt>
      <trkpt lat="43.34335" lon="2.41364">
        <ele>453.7</ele>
        <time>2023-05-28T07:53:17Z</time>
      </trkpt>
      <trkpt lat="43.34335" lon="2.41364">
        <ele>453.7</ele>
        <time>2023-05-28T07:53:18Z</time>
      </trkpt>
      <trkpt lat="43.34334" lon="2.41364">
        <ele>453.6</ele>
        <time>2023-05-28T07:53:19Z</time>
      </trkpt>
      <trkpt lat="43.34333" lon="2.41363">
        <ele>453.6</ele>
        <time>2023-05-28T07:53:20Z</time>
      </trkpt>
      <trkpt lat="43.34332" lon="2.41363">
        <ele>453.5</ele>
        <time>2023-05-28T07:53:21Z</time>
      </trkpt>
      <trkpt lat="43.34331" lon="2.41363">
        <ele>453.5</ele>
        <time>2023-05-28T07:53:22Z</time>
      </trkpt>
      <trkpt lat="43.3433" lon="2.41362">
        <ele>453.4</ele>
        <time>2023-05-28T07:53:23Z</time>
      </trkpt>
      <trkpt lat="43.34329" lon="2.41362">
        <ele>453.3</ele>
        <time>2023-05-28T07:53:24Z</time>
      </trkpt>
      <trkpt lat="43.34328" lon="2.41362">
        <ele>453.3</ele>
        <time>2023-05-28T07:53:25Z</time>
      </trkpt>
      <trkpt lat="43.34326" lon="2.41361">
        <ele>453.2</ele>
        <time>2023-05-28T07:53:26Z</time>
      </trkpt>
      <trkpt lat="43.34325" lon="2.4136">
        <ele>452.5</ele>
        <time>2023-05-28T07:53:27Z</time>
      </trkpt>
      <trkpt lat="43.34324" lon="2.41359">
        <ele>452.3</ele>
        <time>2023-05-28T07:53:28Z</time>
      </trkpt>
      <trkpt lat="43.34323" lon="2.41358">
        <ele>452.2</ele>
        <time>2023-05-28T07:53:29Z</time>
      </trkpt>
      <trkpt lat="43.34323" lon="2.41356">
        <ele>451.9</ele>
        <time>2023-05-28T07:53:30Z</time>
      </trkpt>
      <trkpt lat="43.34323" lon="2.41354">
        <ele>451.6</ele>
        <time>2023-05-28T07:53:31Z</time>
      </trkpt>
      <trkpt lat="43.34323" lon="2.41349">
        <ele>451</ele>
        <time>2023-05-28T07:53:32Z</time>
      </trkpt>
      <trkpt lat="43.34323" lon="2.41348">
        <ele>450.8</ele>
        <time>2023-05-28T07:53:33Z</time>
      </trkpt>
      <trkpt lat="43.34323" lon="2.41343">
        <ele>450.2</ele>
        <time>2023-05-28T07:53:34Z</time>
      </trkpt>
      <trkpt lat="43.34323" lon="2.41341">
        <ele>450</ele>
        <time>2023-05-28T07:53:35Z</time>
      </trkpt>
      <trkpt lat="43.34323" lon="2.41337">
        <ele>449.6</ele>
        <time>2023-05-28T07:53:36Z</time>
      </trkpt>
      <trkpt lat="43.34322" lon="2.41333">
        <ele>449.2</ele>
        <time>2023-05-28T07:53:37Z</time>
      </trkpt>
      <trkpt lat="43.34321" lon="2.41328">
        <ele>448.7</ele>
        <time>2023-05-28T07:53:38Z</time>
      </trkpt>
      <trkpt lat="43.3432" lon="2.41324">
        <ele>448.3</ele>
        <time>2023-05-28T07:53:39Z</time>
      </trkpt>
      <trkpt lat="43.34319" lon="2.41321">
        <ele>448</ele>
        <time>2023-05-28T07:53:40Z</time>
      </trkpt>
      <trkpt lat="43.34318" lon="2.41316">
        <ele>447.6</ele>
        <time>2023-05-28T07:53:41Z</time>
      </trkpt>
      <trkpt lat="43.34317" lon="2.41315">
        <ele>447.5</ele>
        <time>2023-05-28T07:53:42Z</time>
      </trkpt>
      <trkpt lat="43.34316" lon="2.41311">
        <ele>447.2</ele>
        <time>2023-05-28T07:53:43Z</time>
      </trkpt>
      <trkpt lat="43.34314" lon="2.41307">
        <ele>446.7</ele>
        <time>2023-05-28T07:53:44Z</time>
      </trkpt>
      <trkpt lat="43.34313" lon="2.41305">
        <ele>446.6</ele>
        <time>2023-05-28T07:53:45Z</time>
      </trkpt>
      <trkpt lat="43.34311" lon="2.41301">
        <ele>446.1</ele>
        <time>2023-05-28T07:53:46Z</time>
      </trkpt>
      <trkpt lat="43.3431" lon="2.41299">
        <ele>446</ele>
        <time>2023-05-28T07:53:47Z</time>
      </trkpt>
      <trkpt lat="43.34308" lon="2.41296">
        <ele>445.6</ele>
        <time>2023-05-28T07:53:48Z</time>
      </trkpt>
      <trkpt lat="43.34306" lon="2.41293">
        <ele>445.3</ele>
        <time>2023-05-28T07:53:49Z</time>
      </trkpt>
      <trkpt lat="43.34304" lon="2.41289">
        <ele>444.7</ele>
        <time>2023-05-28T07:53:50Z</time>
      </trkpt>
      <trkpt lat="43.34303" lon="2.41288">
        <ele>444.6</ele>
        <time>2023-05-28T07:53:51Z</time>
      </trkpt>
      <trkpt lat="43.343" lon="2.41286">
        <ele>444.2</ele>
        <time>2023-05-28T07:53:52Z</time>
      </trkpt>
      <trkpt lat="43.34298" lon="2.41283">
        <ele>443.7</ele>
        <time>2023-05-28T07:53:53Z</time>
      </trkpt>
      <trkpt lat="43.34295" lon="2.4128">
        <ele>443.1</ele>
        <time>2023-05-28T07:53:54Z</time>
      </trkpt>
      <trkpt lat="43.34294" lon="2.41278">
        <ele>442.9</ele>
        <time>2023-05-28T07:53:55Z</time>
      </trkpt>
      <trkpt lat="43.34291" lon="2.41275">
        <ele>442.1</ele>
        <time>2023-05-28T07:53:56Z</time>
      </trkpt>
      <trkpt lat="43.3429" lon="2.41274">
        <ele>441.9</ele>
        <time>2023-05-28T07:53:57Z</time>
      </trkpt>
      <trkpt lat="43.34287" lon="2.4127">
        <ele>441.2</ele>
        <time>2023-05-28T07:53:58Z</time>
      </trkpt>
      <trkpt lat="43.34286" lon="2.41269">
        <ele>440.9</ele>
        <time>2023-05-28T07:53:59Z</time>
      </trkpt>
      <trkpt lat="43.34283" lon="2.41266">
        <ele>440.2</ele>
        <time>2023-05-28T07:54:00Z</time>
      </trkpt>
      <trkpt lat="43.34282" lon="2.41265">
        <ele>440</ele>
        <time>2023-05-28T07:54:01Z</time>
      </trkpt>
      <trkpt lat="43.34279" lon="2.41263">
        <ele>439.4</ele>
        <time>2023-05-28T07:54:02Z</time>
      </trkpt>
      <trkpt lat="43.34279" lon="2.41263">
        <ele>439.3</ele>
        <time>2023-05-28T07:54:03Z</time>
      </trkpt>
      <trkpt lat="43.34277" lon="2.41263">
        <ele>439</ele>
        <time>2023-05-28T07:54:04Z</time>
      </trkpt>
      <trkpt lat="43.34276" lon="2.41265">
        <ele>438.7</ele>
        <time>2023-05-28T07:54:05Z</time>
      </trkpt>
      <trkpt lat="43.34275" lon="2.41269">
        <ele>438.1</ele>
        <time>2023-05-28T07:54:06Z</time>
      </trkpt>
      <trkpt lat="43.34275" lon="2.41271">
        <ele>437.9</ele>
        <time>2023-05-28T07:54:07Z</time>
      </trkpt>
      <trkpt lat="43.34273" lon="2.41274">
        <ele>437.5</ele>
        <time>2023-05-28T07:54:08Z</time>
      </trkpt>
      <trkpt lat="43.34272" lon="2.41275">
        <ele>437.4</ele>
        <time>2023-05-28T07:54:09Z</time>
      </trkpt>
      <trkpt lat="43.34271" lon="2.41276">
        <ele>437.2</ele>
        <time>2023-05-28T07:54:10Z</time>
      </trkpt>
      <trkpt lat="43.3427" lon="2.41276">
        <ele>437.1</ele>
        <time>2023-05-28T07:54:11Z</time>
      </trkpt>
      <trkpt lat="43.34269" lon="2.41276">
        <ele>437</ele>
        <time>2023-05-28T07:54:12Z</time>
      </trkpt>
      <trkpt lat="43.34266" lon="2.41275">
        <ele>436.6</ele>
        <time>2023-05-28T07:54:13Z</time>
      </trkpt>
      <trkpt lat="43.34265" lon="2.41275">
        <ele>436.5</ele>
        <time>2023-05-28T07:54:14Z</time>
      </trkpt>
      <trkpt lat="43.34262" lon="2.41275">
        <ele>436.1</ele>
        <time>2023-05-28T07:54:15Z</time>
      </trkpt>
      <trkpt lat="43.3426" lon="2.41275">
        <ele>436</ele>
        <time>2023-05-28T07:54:16Z</time>
      </trkpt>
      <trkpt lat="43.34256" lon="2.41275">
        <ele>435.6</ele>
        <time>2023-05-28T07:54:17Z</time>
      </trkpt>
      <trkpt lat="43.34255" lon="2.41275">
        <ele>435.5</ele>
        <time>2023-05-28T07:54:18Z</time>
      </trkpt>
      <trkpt lat="43.34252" lon="2.41275">
        <ele>435.3</ele>
        <time>2023-05-28T07:54:19Z</time>
      </trkpt>
      <trkpt lat="43.34249" lon="2.41275">
        <ele>435</ele>
        <time>2023-05-28T07:54:20Z</time>
      </trkpt>
      <trkpt lat="43.34248" lon="2.41275">
        <ele>434.9</ele>
        <time>2023-05-28T07:54:21Z</time>
      </trkpt>
      <trkpt lat="43.34245" lon="2.41274">
        <ele>434.6</ele>
        <time>2023-05-28T07:54:22Z</time>
      </trkpt>
      <trkpt lat="43.34244" lon="2.41274">
        <ele>434.5</ele>
        <time>2023-05-28T07:54:23Z</time>
      </trkpt>
      <trkpt lat="43.3424" lon="2.41273">
        <ele>434.2</ele>
        <time>2023-05-28T07:54:24Z</time>
      </trkpt>
      <trkpt lat="43.34239" lon="2.41272">
        <ele>434.1</ele>
        <time>2023-05-28T07:54:25Z</time>
      </trkpt>
      <trkpt lat="43.34235" lon="2.41272">
        <ele>433.8</ele>
        <time>2023-05-28T07:54:26Z</time>
      </trkpt>
      <trkpt lat="43.34234" lon="2.41272">
        <ele>433.7</ele>
        <time>2023-05-28T07:54:27Z</time>
      </trkpt>
      <trkpt lat="43.3423" lon="2.41272">
        <ele>433.4</ele>
        <time>2023-05-28T07:54:28Z</time>
      </trkpt>
      <trkpt lat="43.34229" lon="2.41272">
        <ele>431.9</ele>
        <time>2023-05-28T07:54:29Z</time>
      </trkpt>
      <trkpt lat="43.34225" lon="2.41271">
        <ele>431.3</ele>
        <time>2023-05-28T07:54:30Z</time>
      </trkpt>
      <trkpt lat="43.34224" lon="2.41271">
        <ele>431.2</ele>
        <time>2023-05-28T07:54:31Z</time>
      </trkpt>
      <trkpt lat="43.34221" lon="2.4127">
        <ele>430.6</ele>
        <time>2023-05-28T07:54:32Z</time>
      </trkpt>
      <trkpt lat="43.3422" lon="2.4127">
        <ele>430.4</ele>
        <time>2023-05-28T07:54:33Z</time>
      </trkpt>
      <trkpt lat="43.34217" lon="2.4127">
        <ele>429.8</ele>
        <time>2023-05-28T07:54:34Z</time>
      </trkpt>
      <trkpt lat="43.34215" lon="2.4127">
        <ele>429.6</ele>
        <time>2023-05-28T07:54:35Z</time>
      </trkpt>
      <trkpt lat="43.34213" lon="2.41271">
        <ele>428.9</ele>
        <time>2023-05-28T07:54:36Z</time>
      </trkpt>
      <trkpt lat="43.3421" lon="2.41273">
        <ele>428.7</ele>
        <time>2023-05-28T07:54:37Z</time>
      </trkpt>
      <trkpt lat="43.34208" lon="2.41275">
        <ele>428.5</ele>
        <time>2023-05-28T07:54:38Z</time>
      </trkpt>
      <trkpt lat="43.34205" lon="2.41277">
        <ele>428.3</ele>
        <time>2023-05-28T07:54:39Z</time>
      </trkpt>
      <trkpt lat="43.34202" lon="2.4128">
        <ele>428.1</ele>
        <time>2023-05-28T07:54:40Z</time>
      </trkpt>
      <trkpt lat="43.34201" lon="2.41281">
        <ele>428</ele>
        <time>2023-05-28T07:54:41Z</time>
      </trkpt>
      <trkpt lat="43.34198" lon="2.41283">
        <ele>427.8</ele>
        <time>2023-05-28T07:54:42Z</time>
      </trkpt>
      <trkpt lat="43.34196" lon="2.41284">
        <ele>427.7</ele>
        <time>2023-05-28T07:54:43Z</time>
      </trkpt>
      <trkpt lat="43.34193" lon="2.41286">
        <ele>427.5</ele>
        <time>2023-05-28T07:54:44Z</time>
      </trkpt>
      <trkpt lat="43.34192" lon="2.41286">
        <ele>427.4</ele>
        <time>2023-05-28T07:54:45Z</time>
      </trkpt>
      <trkpt lat="43.34188" lon="2.41287">
        <ele>427.3</ele>
        <time>2023-05-28T07:54:46Z</time>
      </trkpt>
      <trkpt lat="43.34186" lon="2.41287">
        <ele>427.2</ele>
        <time>2023-05-28T07:54:47Z</time>
      </trkpt>
      <trkpt lat="43.34182" lon="2.41288">
        <ele>427.1</ele>
        <time>2023-05-28T07:54:48Z</time>
      </trkpt>
      <trkpt lat="43.34181" lon="2.41288">
        <ele>427</ele>
        <time>2023-05-28T07:54:49Z</time>
      </trkpt>
      <trkpt lat="43.34177" lon="2.4129">
        <ele>426.9</ele>
        <time>2023-05-28T07:54:50Z</time>
      </trkpt>
      <trkpt lat="43.34176" lon="2.4129">
        <ele>426.9</ele>
        <time>2023-05-28T07:54:51Z</time>
      </trkpt>
      <trkpt lat="43.34173" lon="2.41291">
        <ele>426.9</ele>
        <time>2023-05-28T07:54:52Z</time>
      </trkpt>
      <trkpt lat="43.34169" lon="2.41292">
        <ele>426.9</ele>
        <time>2023-05-28T07:54:53Z</time>
      </trkpt>
      <trkpt lat="43.34168" lon="2.41292">
        <ele>426.8</ele>
        <time>2023-05-28T07:54:54Z</time>
      </trkpt>
      <trkpt lat="43.34164" lon="2.41293">
        <ele>426.5</ele>
        <time>2023-05-28T07:54:55Z</time>
      </trkpt>
      <trkpt lat="43.34163" lon="2.41293">
        <ele>426.4</ele>
        <time>2023-05-28T07:54:56Z</time>
      </trkpt>
      <trkpt lat="43.34159" lon="2.41295">
        <ele>426</ele>
        <time>2023-05-28T07:54:57Z</time>
      </trkpt>
      <trkpt lat="43.34158" lon="2.41296">
        <ele>425.8</ele>
        <time>2023-05-28T07:54:58Z</time>
      </trkpt>
      <trkpt lat="43.34155" lon="2.41297">
        <ele>425.5</ele>
        <time>2023-05-28T07:54:59Z</time>
      </trkpt>
      <trkpt lat="43.34153" lon="2.41298">
        <ele>425.2</ele>
        <time>2023-05-28T07:55:00Z</time>
      </trkpt>
      <trkpt lat="43.3415" lon="2.413">
        <ele>424.9</ele>
        <time>2023-05-28T07:55:01Z</time>
      </trkpt>
      <trkpt lat="43.34147" lon="2.41301">
        <ele>424.5</ele>
        <time>2023-05-28T07:55:02Z</time>
      </trkpt>
      <trkpt lat="43.34144" lon="2.41304">
        <ele>424.1</ele>
        <time>2023-05-28T07:55:03Z</time>
      </trkpt>
      <trkpt lat="43.34142" lon="2.41305">
        <ele>423.9</ele>
        <time>2023-05-28T07:55:04Z</time>
      </trkpt>
      <trkpt lat="43.34139" lon="2.41307">
        <ele>423.5</ele>
        <time>2023-05-28T07:55:05Z</time>
      </trkpt>
      <trkpt lat="43.34138" lon="2.41307">
        <ele>423.3</ele>
        <time>2023-05-28T07:55:06Z</time>
      </trkpt>
      <trkpt lat="43.34136" lon="2.41309">
        <ele>423</ele>
        <time>2023-05-28T07:55:07Z</time>
      </trkpt>
      <trkpt lat="43.34135" lon="2.4131">
        <ele>422.9</ele>
        <time>2023-05-28T07:55:08Z</time>
      </trkpt>
      <trkpt lat="43.34132" lon="2.41312">
        <ele>422.4</ele>
        <time>2023-05-28T07:55:09Z</time>
      </trkpt>
      <trkpt lat="43.3413" lon="2.41313">
        <ele>422.2</ele>
        <time>2023-05-28T07:55:10Z</time>
      </trkpt>
      <trkpt lat="43.34127" lon="2.41315">
        <ele>421.8</ele>
        <time>2023-05-28T07:55:11Z</time>
      </trkpt>
      <trkpt lat="43.34126" lon="2.41315">
        <ele>421.6</ele>
        <time>2023-05-28T07:55:12Z</time>
      </trkpt>
      <trkpt lat="43.34123" lon="2.41317">
        <ele>421.1</ele>
        <time>2023-05-28T07:55:13Z</time>
      </trkpt>
      <trkpt lat="43.34121" lon="2.41318">
        <ele>421</ele>
        <time>2023-05-28T07:55:14Z</time>
      </trkpt>
      <trkpt lat="43.34118" lon="2.4132">
        <ele>420.5</ele>
        <time>2023-05-28T07:55:15Z</time>
      </trkpt>
      <trkpt lat="43.34117" lon="2.4132">
        <ele>420.3</ele>
        <time>2023-05-28T07:55:16Z</time>
      </trkpt>
      <trkpt lat="43.34114" lon="2.41322">
        <ele>420</ele>
        <time>2023-05-28T07:55:17Z</time>
      </trkpt>
      <trkpt lat="43.34112" lon="2.41323">
        <ele>419.6</ele>
        <time>2023-05-28T07:55:18Z</time>
      </trkpt>
      <trkpt lat="43.34108" lon="2.41325">
        <ele>419.1</ele>
        <time>2023-05-28T07:55:19Z</time>
      </trkpt>
      <trkpt lat="43.34105" lon="2.41326">
        <ele>418.7</ele>
        <time>2023-05-28T07:55:20Z</time>
      </trkpt>
      <trkpt lat="43.34104" lon="2.41327">
        <ele>418.6</ele>
        <time>2023-05-28T07:55:21Z</time>
      </trkpt>
      <trkpt lat="43.34101" lon="2.41328">
        <ele>418.1</ele>
        <time>2023-05-28T07:55:22Z</time>
      </trkpt>
      <trkpt lat="43.341" lon="2.41328">
        <ele>418</ele>
        <time>2023-05-28T07:55:23Z</time>
      </trkpt>
      <trkpt lat="43.34096" lon="2.41329">
        <ele>417.5</ele>
        <time>2023-05-28T07:55:24Z</time>
      </trkpt>
      <trkpt lat="43.34095" lon="2.4133">
        <ele>417.3</ele>
        <time>2023-05-28T07:55:25Z</time>
      </trkpt>
      <trkpt lat="43.34092" lon="2.41332">
        <ele>416.8</ele>
        <time>2023-05-28T07:55:26Z</time>
      </trkpt>
      <trkpt lat="43.34091" lon="2.41333">
        <ele>416.7</ele>
        <time>2023-05-28T07:55:27Z</time>
      </trkpt>
      <trkpt lat="43.34089" lon="2.41336">
        <ele>416.2</ele>
        <time>2023-05-28T07:55:28Z</time>
      </trkpt>
      <trkpt lat="43.34088" lon="2.41337">
        <ele>416</ele>
        <time>2023-05-28T07:55:29Z</time>
      </trkpt>
      <trkpt lat="43.34085" lon="2.41341">
        <ele>415.4</ele>
        <time>2023-05-28T07:55:30Z</time>
      </trkpt>
      <trkpt lat="43.34084" lon="2.41342">
        <ele>415.3</ele>
        <time>2023-05-28T07:55:31Z</time>
      </trkpt>
      <trkpt lat="43.34081" lon="2.41344">
        <ele>414.7</ele>
        <time>2023-05-28T07:55:32Z</time>
      </trkpt>
      <trkpt lat="43.3408" lon="2.41345">
        <ele>414.6</ele>
        <time>2023-05-28T07:55:33Z</time>
      </trkpt>
      <trkpt lat="43.34077" lon="2.41347">
        <ele>414.1</ele>
        <time>2023-05-28T07:55:34Z</time>
      </trkpt>
      <trkpt lat="43.34075" lon="2.41348">
        <ele>413.9</ele>
        <time>2023-05-28T07:55:35Z</time>
      </trkpt>
      <trkpt lat="43.34073" lon="2.4135">
        <ele>413.5</ele>
        <time>2023-05-28T07:55:36Z</time>
      </trkpt>
      <trkpt lat="43.34069" lon="2.41352">
        <ele>413</ele>
        <time>2023-05-28T07:55:37Z</time>
      </trkpt>
      <trkpt lat="43.34068" lon="2.41353">
        <ele>412.8</ele>
        <time>2023-05-28T07:55:38Z</time>
      </trkpt>
      <trkpt lat="43.34065" lon="2.41356">
        <ele>412.3</ele>
        <time>2023-05-28T07:55:39Z</time>
      </trkpt>
      <trkpt lat="43.34063" lon="2.41359">
        <ele>411.9</ele>
        <time>2023-05-28T07:55:40Z</time>
      </trkpt>
      <trkpt lat="43.34062" lon="2.4136">
        <ele>411.7</ele>
        <time>2023-05-28T07:55:41Z</time>
      </trkpt>
      <trkpt lat="43.34059" lon="2.41363">
        <ele>411.3</ele>
        <time>2023-05-28T07:55:42Z</time>
      </trkpt>
      <trkpt lat="43.34057" lon="2.41366">
        <ele>410.8</ele>
        <time>2023-05-28T07:55:43Z</time>
      </trkpt>
      <trkpt lat="43.34055" lon="2.41368">
        <ele>410.5</ele>
        <time>2023-05-28T07:55:44Z</time>
      </trkpt>
      <trkpt lat="43.34053" lon="2.41371">
        <ele>410</ele>
        <time>2023-05-28T07:55:45Z</time>
      </trkpt>
      <trkpt lat="43.34051" lon="2.41374">
        <ele>409.6</ele>
        <time>2023-05-28T07:55:46Z</time>
      </trkpt>
      <trkpt lat="43.34049" lon="2.41377">
        <ele>409.2</ele>
        <time>2023-05-28T07:55:47Z</time>
      </trkpt>
      <trkpt lat="43.34047" lon="2.41379">
        <ele>408.8</ele>
        <time>2023-05-28T07:55:48Z</time>
      </trkpt>
      <trkpt lat="43.34044" lon="2.41383">
        <ele>408.4</ele>
        <time>2023-05-28T07:55:49Z</time>
      </trkpt>
      <trkpt lat="43.34042" lon="2.41386">
        <ele>408</ele>
        <time>2023-05-28T07:55:50Z</time>
      </trkpt>
      <trkpt lat="43.3404" lon="2.41389">
        <ele>407.6</ele>
        <time>2023-05-28T07:55:51Z</time>
      </trkpt>
      <trkpt lat="43.34038" lon="2.41392">
        <ele>407.1</ele>
        <time>2023-05-28T07:55:52Z</time>
      </trkpt>
      <trkpt lat="43.34036" lon="2.41395">
        <ele>406.7</ele>
        <time>2023-05-28T07:55:53Z</time>
      </trkpt>
      <trkpt lat="43.34034" lon="2.41398">
        <ele>406.2</ele>
        <time>2023-05-28T07:55:54Z</time>
      </trkpt>
      <trkpt lat="43.34032" lon="2.41401">
        <ele>405.7</ele>
        <time>2023-05-28T07:55:55Z</time>
      </trkpt>
      <trkpt lat="43.3403" lon="2.41404">
        <ele>405.2</ele>
        <time>2023-05-28T07:55:56Z</time>
      </trkpt>
      <trkpt lat="43.34028" lon="2.41408">
        <ele>404.8</ele>
        <time>2023-05-28T07:55:57Z</time>
      </trkpt>
      <trkpt lat="43.34026" lon="2.41411">
        <ele>404.3</ele>
        <time>2023-05-28T07:55:58Z</time>
      </trkpt>
      <trkpt lat="43.34023" lon="2.41415">
        <ele>403.8</ele>
        <time>2023-05-28T07:55:59Z</time>
      </trkpt>
      <trkpt lat="43.3402" lon="2.41419">
        <ele>403.3</ele>
        <time>2023-05-28T07:56:00Z</time>
      </trkpt>
      <trkpt lat="43.34019" lon="2.4142">
        <ele>403.2</ele>
        <time>2023-05-28T07:56:01Z</time>
      </trkpt>
      <trkpt lat="43.34017" lon="2.41424">
        <ele>402.8</ele>
        <time>2023-05-28T07:56:02Z</time>
      </trkpt>
      <trkpt lat="43.34016" lon="2.41425">
        <ele>402.6</ele>
        <time>2023-05-28T07:56:03Z</time>
      </trkpt>
      <trkpt lat="43.34013" lon="2.4143">
        <ele>402.2</ele>
        <time>2023-05-28T07:56:04Z</time>
      </trkpt>
      <trkpt lat="43.34012" lon="2.41431">
        <ele>402.1</ele>
        <time>2023-05-28T07:56:05Z</time>
      </trkpt>
      <trkpt lat="43.3401" lon="2.41434">
        <ele>401.8</ele>
        <time>2023-05-28T07:56:06Z</time>
      </trkpt>
      <trkpt lat="43.34008" lon="2.41436">
        <ele>401.5</ele>
        <time>2023-05-28T07:56:07Z</time>
      </trkpt>
      <trkpt lat="43.34005" lon="2.4144">
        <ele>401.2</ele>
        <time>2023-05-28T07:56:08Z</time>
      </trkpt>
      <trkpt lat="43.34004" lon="2.41441">
        <ele>401</ele>
        <time>2023-05-28T07:56:09Z</time>
      </trkpt>
      <trkpt lat="43.34002" lon="2.41444">
        <ele>400.7</ele>
        <time>2023-05-28T07:56:10Z</time>
      </trkpt>
      <trkpt lat="43.34001" lon="2.41447">
        <ele>400.5</ele>
        <time>2023-05-28T07:56:11Z</time>
      </trkpt>
      <trkpt lat="43.33998" lon="2.41451">
        <ele>400.1</ele>
        <time>2023-05-28T07:56:12Z</time>
      </trkpt>
      <trkpt lat="43.33997" lon="2.41453">
        <ele>399.9</ele>
        <time>2023-05-28T07:56:13Z</time>
      </trkpt>
      <trkpt lat="43.33996" lon="2.41456">
        <ele>399.6</ele>
        <time>2023-05-28T07:56:14Z</time>
      </trkpt>
      <trkpt lat="43.33994" lon="2.41459">
        <ele>399.3</ele>
        <time>2023-05-28T07:56:15Z</time>
      </trkpt>
      <trkpt lat="43.33991" lon="2.41463">
        <ele>398.9</ele>
        <time>2023-05-28T07:56:16Z</time>
      </trkpt>
      <trkpt lat="43.33989" lon="2.41466">
        <ele>398.6</ele>
        <time>2023-05-28T07:56:17Z</time>
      </trkpt>
      <trkpt lat="43.33987" lon="2.41469">
        <ele>398.2</ele>
        <time>2023-05-28T07:56:18Z</time>
      </trkpt>
      <trkpt lat="43.33985" lon="2.41473">
        <ele>397.8</ele>
        <time>2023-05-28T07:56:19Z</time>
      </trkpt>
      <trkpt lat="43.33982" lon="2.41476">
        <ele>397.4</ele>
        <time>2023-05-28T07:56:20Z</time>
      </trkpt>
      <trkpt lat="43.33981" lon="2.41477">
        <ele>397.3</ele>
        <time>2023-05-28T07:56:21Z</time>
      </trkpt>
      <trkpt lat="43.33979" lon="2.41481">
        <ele>397.1</ele>
        <time>2023-05-28T07:56:22Z</time>
      </trkpt>
      <trkpt lat="43.33978" lon="2.41482">
        <ele>397</ele>
        <time>2023-05-28T07:56:23Z</time>
      </trkpt>
      <trkpt lat="43.33975" lon="2.41485">
        <ele>396.8</ele>
        <time>2023-05-28T07:56:24Z</time>
      </trkpt>
      <trkpt lat="43.33974" lon="2.41486">
        <ele>396.7</ele>
        <time>2023-05-28T07:56:25Z</time>
      </trkpt>
      <trkpt lat="43.33972" lon="2.41488">
        <ele>396.6</ele>
        <time>2023-05-28T07:56:26Z</time>
      </trkpt>
      <trkpt lat="43.33972" lon="2.41489">
        <ele>396.5</ele>
        <time>2023-05-28T07:56:27Z</time>
      </trkpt>
      <trkpt lat="43.33969" lon="2.41492">
        <ele>396.3</ele>
        <time>2023-05-28T07:56:28Z</time>
      </trkpt>
      <trkpt lat="43.33968" lon="2.41493">
        <ele>396.2</ele>
        <time>2023-05-28T07:56:29Z</time>
      </trkpt>
      <trkpt lat="43.33966" lon="2.41496">
        <ele>396</ele>
        <time>2023-05-28T07:56:30Z</time>
      </trkpt>
      <trkpt lat="43.33963" lon="2.41498">
        <ele>395.8</ele>
        <time>2023-05-28T07:56:31Z</time>
      </trkpt>
      <trkpt lat="43.33961" lon="2.41501">
        <ele>395.7</ele>
        <time>2023-05-28T07:56:32Z</time>
      </trkpt>
      <trkpt lat="43.33958" lon="2.41504">
        <ele>395.5</ele>
        <time>2023-05-28T07:56:33Z</time>
      </trkpt>
      <trkpt lat="43.33956" lon="2.41507">
        <ele>395.3</ele>
        <time>2023-05-28T07:56:34Z</time>
      </trkpt>
      <trkpt lat="43.33953" lon="2.4151">
        <ele>395.1</ele>
        <time>2023-05-28T07:56:35Z</time>
      </trkpt>
      <trkpt lat="43.33951" lon="2.41512">
        <ele>395</ele>
        <time>2023-05-28T07:56:36Z</time>
      </trkpt>
      <trkpt lat="43.33948" lon="2.41515">
        <ele>394.8</ele>
        <time>2023-05-28T07:56:37Z</time>
      </trkpt>
      <trkpt lat="43.33945" lon="2.41518">
        <ele>394.7</ele>
        <time>2023-05-28T07:56:38Z</time>
      </trkpt>
      <trkpt lat="43.33942" lon="2.41521">
        <ele>394.5</ele>
        <time>2023-05-28T07:56:39Z</time>
      </trkpt>
      <trkpt lat="43.33939" lon="2.41524">
        <ele>394.3</ele>
        <time>2023-05-28T07:56:40Z</time>
      </trkpt>
      <trkpt lat="43.33938" lon="2.41525">
        <ele>394.2</ele>
        <time>2023-05-28T07:56:41Z</time>
      </trkpt>
      <trkpt lat="43.33935" lon="2.41528">
        <ele>393.9</ele>
        <time>2023-05-28T07:56:42Z</time>
      </trkpt>
      <trkpt lat="43.33934" lon="2.41529">
        <ele>393.8</ele>
        <time>2023-05-28T07:56:43Z</time>
      </trkpt>
      <trkpt lat="43.33931" lon="2.41531">
        <ele>393.5</ele>
        <time>2023-05-28T07:56:44Z</time>
      </trkpt>
      <trkpt lat="43.33929" lon="2.41534">
        <ele>393.3</ele>
        <time>2023-05-28T07:56:45Z</time>
      </trkpt>
      <trkpt lat="43.33927" lon="2.41536">
        <ele>393</ele>
        <time>2023-05-28T07:56:46Z</time>
      </trkpt>
      <trkpt lat="43.33925" lon="2.41539">
        <ele>392.8</ele>
        <time>2023-05-28T07:56:47Z</time>
      </trkpt>
      <trkpt lat="43.33923" lon="2.41542">
        <ele>392.5</ele>
        <time>2023-05-28T07:56:48Z</time>
      </trkpt>
      <trkpt lat="43.3392" lon="2.41545">
        <ele>392.3</ele>
        <time>2023-05-28T07:56:49Z</time>
      </trkpt>
      <trkpt lat="43.33918" lon="2.41547">
        <ele>392.1</ele>
        <time>2023-05-28T07:56:50Z</time>
      </trkpt>
      <trkpt lat="43.33916" lon="2.4155">
        <ele>391.8</ele>
        <time>2023-05-28T07:56:51Z</time>
      </trkpt>
      <trkpt lat="43.33914" lon="2.41552">
        <ele>391.6</ele>
        <time>2023-05-28T07:56:52Z</time>
      </trkpt>
      <trkpt lat="43.33911" lon="2.41554">
        <ele>391.4</ele>
        <time>2023-05-28T07:56:53Z</time>
      </trkpt>
      <trkpt lat="43.33909" lon="2.41557">
        <ele>391.2</ele>
        <time>2023-05-28T07:56:54Z</time>
      </trkpt>
      <trkpt lat="43.33906" lon="2.41559">
        <ele>391</ele>
        <time>2023-05-28T07:56:55Z</time>
      </trkpt>
      <trkpt lat="43.33904" lon="2.41561">
        <ele>390.8</ele>
        <time>2023-05-28T07:56:56Z</time>
      </trkpt>
      <trkpt lat="43.33901" lon="2.41563">
        <ele>390.6</ele>
        <time>2023-05-28T07:56:57Z</time>
      </trkpt>
      <trkpt lat="43.33898" lon="2.41565">
        <ele>390.4</ele>
        <time>2023-05-28T07:56:58Z</time>
      </trkpt>
      <trkpt lat="43.33896" lon="2.41567">
        <ele>390.3</ele>
        <time>2023-05-28T07:56:59Z</time>
      </trkpt>
      <trkpt lat="43.33894" lon="2.4157">
        <ele>390.1</ele>
        <time>2023-05-28T07:57:00Z</time>
      </trkpt>
      <trkpt lat="43.33892" lon="2.41572">
        <ele>390</ele>
        <time>2023-05-28T07:57:01Z</time>
      </trkpt>
      <trkpt lat="43.3389" lon="2.41575">
        <ele>389.8</ele>
        <time>2023-05-28T07:57:02Z</time>
      </trkpt>
      <trkpt lat="43.33887" lon="2.41577">
        <ele>389.7</ele>
        <time>2023-05-28T07:57:03Z</time>
      </trkpt>
      <trkpt lat="43.33885" lon="2.4158">
        <ele>389.6</ele>
        <time>2023-05-28T07:57:04Z</time>
      </trkpt>
      <trkpt lat="43.33883" lon="2.41582">
        <ele>389.5</ele>
        <time>2023-05-28T07:57:05Z</time>
      </trkpt>
      <trkpt lat="43.33881" lon="2.41584">
        <ele>389.4</ele>
        <time>2023-05-28T07:57:06Z</time>
      </trkpt>
      <trkpt lat="43.33878" lon="2.41586">
        <ele>389.3</ele>
        <time>2023-05-28T07:57:07Z</time>
      </trkpt>
      <trkpt lat="43.33875" lon="2.41588">
        <ele>389.2</ele>
        <time>2023-05-28T07:57:08Z</time>
      </trkpt>
      <trkpt lat="43.33874" lon="2.41589">
        <ele>389.2</ele>
        <time>2023-05-28T07:57:09Z</time>
      </trkpt>
      <trkpt lat="43.33871" lon="2.41591">
        <ele>389.1</ele>
        <time>2023-05-28T07:57:10Z</time>
      </trkpt>
      <trkpt lat="43.33868" lon="2.41593">
        <ele>389</ele>
        <time>2023-05-28T07:57:11Z</time>
      </trkpt>
      <trkpt lat="43.33867" lon="2.41594">
        <ele>388.9</ele>
        <time>2023-05-28T07:57:12Z</time>
      </trkpt>
      <trkpt lat="43.33863" lon="2.41596">
        <ele>388.8</ele>
        <time>2023-05-28T07:57:13Z</time>
      </trkpt>
      <trkpt lat="43.33862" lon="2.41597">
        <ele>388.8</ele>
        <time>2023-05-28T07:57:14Z</time>
      </trkpt>
      <trkpt lat="43.3386" lon="2.41599">
        <ele>388.7</ele>
        <time>2023-05-28T07:57:15Z</time>
      </trkpt>
      <trkpt lat="43.33858" lon="2.41603">
        <ele>388.7</ele>
        <time>2023-05-28T07:57:16Z</time>
      </trkpt>
      <trkpt lat="43.33857" lon="2.41604">
        <ele>388.7</ele>
        <time>2023-05-28T07:57:17Z</time>
      </trkpt>
      <trkpt lat="43.33855" lon="2.41607">
        <ele>388.7</ele>
        <time>2023-05-28T07:57:18Z</time>
      </trkpt>
      <trkpt lat="43.33855" lon="2.41608">
        <ele>388.6</ele>
        <time>2023-05-28T07:57:19Z</time>
      </trkpt>
      <trkpt lat="43.33853" lon="2.4161">
        <ele>388.6</ele>
        <time>2023-05-28T07:57:20Z</time>
      </trkpt>
      <trkpt lat="43.33852" lon="2.41611">
        <ele>388.5</ele>
        <time>2023-05-28T07:57:21Z</time>
      </trkpt>
      <trkpt lat="43.33849" lon="2.41614">
        <ele>388.4</ele>
        <time>2023-05-28T07:57:22Z</time>
      </trkpt>
      <trkpt lat="43.33848" lon="2.41615">
        <ele>388.4</ele>
        <time>2023-05-28T07:57:23Z</time>
      </trkpt>
      <trkpt lat="43.33844" lon="2.41617">
        <ele>388.3</ele>
        <time>2023-05-28T07:57:24Z</time>
      </trkpt>
      <trkpt lat="43.33843" lon="2.41617">
        <ele>388.3</ele>
        <time>2023-05-28T07:57:25Z</time>
      </trkpt>
      <trkpt lat="43.3384" lon="2.41619">
        <ele>388.2</ele>
        <time>2023-05-28T07:57:26Z</time>
      </trkpt>
      <trkpt lat="43.33837" lon="2.4162">
        <ele>388.1</ele>
        <time>2023-05-28T07:57:27Z</time>
      </trkpt>
      <trkpt lat="43.33834" lon="2.41622">
        <ele>388</ele>
        <time>2023-05-28T07:57:28Z</time>
      </trkpt>
      <trkpt lat="43.33833" lon="2.41623">
        <ele>388</ele>
        <time>2023-05-28T07:57:29Z</time>
      </trkpt>
      <trkpt lat="43.33831" lon="2.41625">
        <ele>387.6</ele>
        <time>2023-05-28T07:57:30Z</time>
      </trkpt>
      <trkpt lat="43.3383" lon="2.41626">
        <ele>387.4</ele>
        <time>2023-05-28T07:57:31Z</time>
      </trkpt>
      <trkpt lat="43.33827" lon="2.41628">
        <ele>387</ele>
        <time>2023-05-28T07:57:32Z</time>
      </trkpt>
      <trkpt lat="43.33825" lon="2.41629">
        <ele>386.9</ele>
        <time>2023-05-28T07:57:33Z</time>
      </trkpt>
      <trkpt lat="43.33823" lon="2.41632">
        <ele>386.4</ele>
        <time>2023-05-28T07:57:34Z</time>
      </trkpt>
      <trkpt lat="43.33822" lon="2.41633">
        <ele>386.3</ele>
        <time>2023-05-28T07:57:35Z</time>
      </trkpt>
      <trkpt lat="43.3382" lon="2.41637">
        <ele>385.9</ele>
        <time>2023-05-28T07:57:36Z</time>
      </trkpt>
      <trkpt lat="43.3382" lon="2.41639">
        <ele>385.7</ele>
        <time>2023-05-28T07:57:37Z</time>
      </trkpt>
      <trkpt lat="43.33818" lon="2.41643">
        <ele>385.2</ele>
        <time>2023-05-28T07:57:38Z</time>
      </trkpt>
      <trkpt lat="43.33818" lon="2.41644">
        <ele>385.1</ele>
        <time>2023-05-28T07:57:39Z</time>
      </trkpt>
      <trkpt lat="43.33816" lon="2.41648">
        <ele>384.6</ele>
        <time>2023-05-28T07:57:40Z</time>
      </trkpt>
      <trkpt lat="43.33815" lon="2.4165">
        <ele>384.4</ele>
        <time>2023-05-28T07:57:41Z</time>
      </trkpt>
      <trkpt lat="43.33813" lon="2.41653">
        <ele>384</ele>
        <time>2023-05-28T07:57:42Z</time>
      </trkpt>
      <trkpt lat="43.33811" lon="2.41655">
        <ele>383.5</ele>
        <time>2023-05-28T07:57:43Z</time>
      </trkpt>
      <trkpt lat="43.3381" lon="2.41657">
        <ele>383.3</ele>
        <time>2023-05-28T07:57:44Z</time>
      </trkpt>
      <trkpt lat="43.33808" lon="2.4166">
        <ele>382.8</ele>
        <time>2023-05-28T07:57:45Z</time>
      </trkpt>
      <trkpt lat="43.33808" lon="2.41662">
        <ele>382.6</ele>
        <time>2023-05-28T07:57:46Z</time>
      </trkpt>
      <trkpt lat="43.33807" lon="2.41663">
        <ele>382.4</ele>
        <time>2023-05-28T07:57:47Z</time>
      </trkpt>
      <trkpt lat="43.33806" lon="2.41664">
        <ele>382.2</ele>
        <time>2023-05-28T07:57:48Z</time>
      </trkpt>
      <trkpt lat="43.33805" lon="2.41663">
        <ele>381.9</ele>
        <time>2023-05-28T07:57:49Z</time>
      </trkpt>
      <trkpt lat="43.33805" lon="2.41659">
        <ele>381.8</ele>
        <time>2023-05-28T07:57:50Z</time>
      </trkpt>
      <trkpt lat="43.33805" lon="2.41655">
        <ele>381.8</ele>
        <time>2023-05-28T07:57:51Z</time>
      </trkpt>
      <trkpt lat="43.33805" lon="2.41651">
        <ele>381.7</ele>
        <time>2023-05-28T07:57:52Z</time>
      </trkpt>
      <trkpt lat="43.33806" lon="2.41647">
        <ele>381.6</ele>
        <time>2023-05-28T07:57:53Z</time>
      </trkpt>
      <trkpt lat="43.33806" lon="2.41643">
        <ele>381.5</ele>
        <time>2023-05-28T07:57:54Z</time>
      </trkpt>
      <trkpt lat="43.33806" lon="2.41639">
        <ele>381.4</ele>
        <time>2023-05-28T07:57:55Z</time>
      </trkpt>
      <trkpt lat="43.33806" lon="2.41637">
        <ele>381.4</ele>
        <time>2023-05-28T07:57:56Z</time>
      </trkpt>
      <trkpt lat="43.33806" lon="2.41633">
        <ele>381.3</ele>
        <time>2023-05-28T07:57:57Z</time>
      </trkpt>
      <trkpt lat="43.33805" lon="2.41628">
        <ele>381</ele>
        <time>2023-05-28T07:57:58Z</time>
      </trkpt>
      <trkpt lat="43.33804" lon="2.41626">
        <ele>381</ele>
        <time>2023-05-28T07:57:59Z</time>
      </trkpt>
      <trkpt lat="43.33802" lon="2.41623">
        <ele>380.8</ele>
        <time>2023-05-28T07:58:00Z</time>
      </trkpt>
      <trkpt lat="43.338" lon="2.4162">
        <ele>380.7</ele>
        <time>2023-05-28T07:58:01Z</time>
      </trkpt>
      <trkpt lat="43.33797" lon="2.41618">
        <ele>380.5</ele>
        <time>2023-05-28T07:58:02Z</time>
      </trkpt>
      <trkpt lat="43.33794" lon="2.41616">
        <ele>380.5</ele>
        <time>2023-05-28T07:58:03Z</time>
      </trkpt>
      <trkpt lat="43.33791" lon="2.41615">
        <ele>380.4</ele>
        <time>2023-05-28T07:58:04Z</time>
      </trkpt>
      <trkpt lat="43.33789" lon="2.41615">
        <ele>380.3</ele>
        <time>2023-05-28T07:58:05Z</time>
      </trkpt>
      <trkpt lat="43.33785" lon="2.41616">
        <ele>380.3</ele>
        <time>2023-05-28T07:58:06Z</time>
      </trkpt>
      <trkpt lat="43.33784" lon="2.41617">
        <ele>380.3</ele>
        <time>2023-05-28T07:58:07Z</time>
      </trkpt>
      <trkpt lat="43.3378" lon="2.41618">
        <ele>380.3</ele>
        <time>2023-05-28T07:58:08Z</time>
      </trkpt>
      <trkpt lat="43.33779" lon="2.41619">
        <ele>380.3</ele>
        <time>2023-05-28T07:58:09Z</time>
      </trkpt>
      <trkpt lat="43.33775" lon="2.4162">
        <ele>380.4</ele>
        <time>2023-05-28T07:58:10Z</time>
      </trkpt>
      <trkpt lat="43.33774" lon="2.41621">
        <ele>380.4</ele>
        <time>2023-05-28T07:58:11Z</time>
      </trkpt>
      <trkpt lat="43.3377" lon="2.41622">
        <ele>380.5</ele>
        <time>2023-05-28T07:58:12Z</time>
      </trkpt>
      <trkpt lat="43.33769" lon="2.41623">
        <ele>380.5</ele>
        <time>2023-05-28T07:58:13Z</time>
      </trkpt>
      <trkpt lat="43.33766" lon="2.41624">
        <ele>380.5</ele>
        <time>2023-05-28T07:58:14Z</time>
      </trkpt>
      <trkpt lat="43.33764" lon="2.41624">
        <ele>380.6</ele>
        <time>2023-05-28T07:58:15Z</time>
      </trkpt>
      <trkpt lat="43.33762" lon="2.41625">
        <ele>380.6</ele>
        <time>2023-05-28T07:58:16Z</time>
      </trkpt>
      <trkpt lat="43.33759" lon="2.41626">
        <ele>380.7</ele>
        <time>2023-05-28T07:58:17Z</time>
      </trkpt>
      <trkpt lat="43.33755" lon="2.41628">
        <ele>380.9</ele>
        <time>2023-05-28T07:58:18Z</time>
      </trkpt>
      <trkpt lat="43.33754" lon="2.41629">
        <ele>380.9</ele>
        <time>2023-05-28T07:58:19Z</time>
      </trkpt>
      <trkpt lat="43.33751" lon="2.4163">
        <ele>381</ele>
        <time>2023-05-28T07:58:20Z</time>
      </trkpt>
      <trkpt lat="43.33749" lon="2.41632">
        <ele>381.1</ele>
        <time>2023-05-28T07:58:21Z</time>
      </trkpt>
      <trkpt lat="43.33748" lon="2.41633">
        <ele>381.2</ele>
        <time>2023-05-28T07:58:22Z</time>
      </trkpt>
      <trkpt lat="43.33745" lon="2.41634">
        <ele>381.3</ele>
        <time>2023-05-28T07:58:23Z</time>
      </trkpt>
      <trkpt lat="43.33744" lon="2.41635">
        <ele>381.4</ele>
        <time>2023-05-28T07:58:24Z</time>
      </trkpt>
      <trkpt lat="43.3374" lon="2.41637">
        <ele>381.5</ele>
        <time>2023-05-28T07:58:25Z</time>
      </trkpt>
      <trkpt lat="43.33739" lon="2.41637">
        <ele>381.5</ele>
        <time>2023-05-28T07:58:26Z</time>
      </trkpt>
      <trkpt lat="43.33736" lon="2.41639">
        <ele>381.7</ele>
        <time>2023-05-28T07:58:27Z</time>
      </trkpt>
      <trkpt lat="43.33735" lon="2.41639">
        <ele>381.7</ele>
        <time>2023-05-28T07:58:28Z</time>
      </trkpt>
      <trkpt lat="43.33733" lon="2.41641">
        <ele>381.8</ele>
        <time>2023-05-28T07:58:29Z</time>
      </trkpt>
      <trkpt lat="43.33732" lon="2.41641">
        <ele>381.8</ele>
        <time>2023-05-28T07:58:30Z</time>
      </trkpt>
      <trkpt lat="43.33729" lon="2.41642">
        <ele>381.9</ele>
        <time>2023-05-28T07:58:31Z</time>
      </trkpt>
      <trkpt lat="43.33728" lon="2.41643">
        <ele>381.9</ele>
        <time>2023-05-28T07:58:32Z</time>
      </trkpt>
      <trkpt lat="43.33725" lon="2.41644">
        <ele>382</ele>
        <time>2023-05-28T07:58:33Z</time>
      </trkpt>
      <trkpt lat="43.33724" lon="2.41645">
        <ele>382</ele>
        <time>2023-05-28T07:58:34Z</time>
      </trkpt>
      <trkpt lat="43.3372" lon="2.41648">
        <ele>382.1</ele>
        <time>2023-05-28T07:58:35Z</time>
      </trkpt>
      <trkpt lat="43.33719" lon="2.41649">
        <ele>382.1</ele>
        <time>2023-05-28T07:58:36Z</time>
      </trkpt>
      <trkpt lat="43.33716" lon="2.4165">
        <ele>382.1</ele>
        <time>2023-05-28T07:58:37Z</time>
      </trkpt>
      <trkpt lat="43.33713" lon="2.41653">
        <ele>382.1</ele>
        <time>2023-05-28T07:58:38Z</time>
      </trkpt>
      <trkpt lat="43.33712" lon="2.41653">
        <ele>382.1</ele>
        <time>2023-05-28T07:58:39Z</time>
      </trkpt>
      <trkpt lat="43.33709" lon="2.41655">
        <ele>382.1</ele>
        <time>2023-05-28T07:58:40Z</time>
      </trkpt>
      <trkpt lat="43.33707" lon="2.41657">
        <ele>382</ele>
        <time>2023-05-28T07:58:41Z</time>
      </trkpt>
      <trkpt lat="43.33704" lon="2.41661">
        <ele>382</ele>
        <time>2023-05-28T07:58:42Z</time>
      </trkpt>
      <trkpt lat="43.33703" lon="2.41662">
        <ele>381.9</ele>
        <time>2023-05-28T07:58:43Z</time>
      </trkpt>
      <trkpt lat="43.337" lon="2.41665">
        <ele>381.8</ele>
        <time>2023-05-28T07:58:44Z</time>
      </trkpt>
      <trkpt lat="43.33699" lon="2.41666">
        <ele>381.8</ele>
        <time>2023-05-28T07:58:45Z</time>
      </trkpt>
      <trkpt lat="43.33696" lon="2.41669">
        <ele>381.7</ele>
        <time>2023-05-28T07:58:46Z</time>
      </trkpt>
      <trkpt lat="43.33695" lon="2.4167">
        <ele>381.6</ele>
        <time>2023-05-28T07:58:47Z</time>
      </trkpt>
      <trkpt lat="43.33692" lon="2.41672">
        <ele>381.5</ele>
        <time>2023-05-28T07:58:48Z</time>
      </trkpt>
      <trkpt lat="43.33691" lon="2.41673">
        <ele>381.4</ele>
        <time>2023-05-28T07:58:49Z</time>
      </trkpt>
      <trkpt lat="43.33688" lon="2.41675">
        <ele>381.3</ele>
        <time>2023-05-28T07:58:50Z</time>
      </trkpt>
      <trkpt lat="43.33688" lon="2.41676">
        <ele>381.2</ele>
        <time>2023-05-28T07:58:51Z</time>
      </trkpt>
      <trkpt lat="43.33685" lon="2.41679">
        <ele>381</ele>
        <time>2023-05-28T07:58:52Z</time>
      </trkpt>
      <trkpt lat="43.33684" lon="2.4168">
        <ele>381</ele>
        <time>2023-05-28T07:58:53Z</time>
      </trkpt>
      <trkpt lat="43.33682" lon="2.41684">
        <ele>380.7</ele>
        <time>2023-05-28T07:58:54Z</time>
      </trkpt>
      <trkpt lat="43.33681" lon="2.41685">
        <ele>380.7</ele>
        <time>2023-05-28T07:58:55Z</time>
      </trkpt>
      <trkpt lat="43.33679" lon="2.41689">
        <ele>380.5</ele>
        <time>2023-05-28T07:58:56Z</time>
      </trkpt>
      <trkpt lat="43.33678" lon="2.4169">
        <ele>380.4</ele>
        <time>2023-05-28T07:58:57Z</time>
      </trkpt>
      <trkpt lat="43.33676" lon="2.41695">
        <ele>380.2</ele>
        <time>2023-05-28T07:58:58Z</time>
      </trkpt>
      <trkpt lat="43.33676" lon="2.41696">
        <ele>380.1</ele>
        <time>2023-05-28T07:58:59Z</time>
      </trkpt>
      <trkpt lat="43.33673" lon="2.417">
        <ele>379.9</ele>
        <time>2023-05-28T07:59:00Z</time>
      </trkpt>
      <trkpt lat="43.33672" lon="2.41701">
        <ele>379.8</ele>
        <time>2023-05-28T07:59:01Z</time>
      </trkpt>
      <trkpt lat="43.3367" lon="2.41705">
        <ele>379.5</ele>
        <time>2023-05-28T07:59:02Z</time>
      </trkpt>
      <trkpt lat="43.33669" lon="2.41707">
        <ele>379.4</ele>
        <time>2023-05-28T07:59:03Z</time>
      </trkpt>
      <trkpt lat="43.33666" lon="2.4171">
        <ele>379.3</ele>
        <time>2023-05-28T07:59:04Z</time>
      </trkpt>
      <trkpt lat="43.33664" lon="2.41713">
        <ele>379.1</ele>
        <time>2023-05-28T07:59:05Z</time>
      </trkpt>
      <trkpt lat="43.33662" lon="2.41715">
        <ele>379</ele>
        <time>2023-05-28T07:59:06Z</time>
      </trkpt>
      <trkpt lat="43.3366" lon="2.41717">
        <ele>378.8</ele>
        <time>2023-05-28T07:59:07Z</time>
      </trkpt>
      <trkpt lat="43.33657" lon="2.41721">
        <ele>378.6</ele>
        <time>2023-05-28T07:59:08Z</time>
      </trkpt>
      <trkpt lat="43.33655" lon="2.41722">
        <ele>378.5</ele>
        <time>2023-05-28T07:59:09Z</time>
      </trkpt>
      <trkpt lat="43.33653" lon="2.41724">
        <ele>378.3</ele>
        <time>2023-05-28T07:59:10Z</time>
      </trkpt>
      <trkpt lat="43.3365" lon="2.41727">
        <ele>378.1</ele>
        <time>2023-05-28T07:59:11Z</time>
      </trkpt>
      <trkpt lat="43.33647" lon="2.41729">
        <ele>378</ele>
        <time>2023-05-28T07:59:12Z</time>
      </trkpt>
      <trkpt lat="43.33644" lon="2.41731">
        <ele>377.8</ele>
        <time>2023-05-28T07:59:13Z</time>
      </trkpt>
      <trkpt lat="43.33641" lon="2.41733">
        <ele>377.6</ele>
        <time>2023-05-28T07:59:14Z</time>
      </trkpt>
      <trkpt lat="43.33638" lon="2.41735">
        <ele>377.4</ele>
        <time>2023-05-28T07:59:15Z</time>
      </trkpt>
      <trkpt lat="43.33636" lon="2.41737">
        <ele>377.3</ele>
        <time>2023-05-28T07:59:16Z</time>
      </trkpt>
      <trkpt lat="43.33633" lon="2.41739">
        <ele>377.1</ele>
        <time>2023-05-28T07:59:17Z</time>
      </trkpt>
      <trkpt lat="43.3363" lon="2.4174">
        <ele>376.9</ele>
        <time>2023-05-28T07:59:18Z</time>
      </trkpt>
      <trkpt lat="43.33626" lon="2.41742">
        <ele>376.7</ele>
        <time>2023-05-28T07:59:19Z</time>
      </trkpt>
      <trkpt lat="43.33624" lon="2.41743">
        <ele>376.5</ele>
        <time>2023-05-28T07:59:20Z</time>
      </trkpt>
      <trkpt lat="43.33621" lon="2.41744">
        <ele>376.3</ele>
        <time>2023-05-28T07:59:21Z</time>
      </trkpt>
      <trkpt lat="43.33618" lon="2.41745">
        <ele>376.1</ele>
        <time>2023-05-28T07:59:22Z</time>
      </trkpt>
      <trkpt lat="43.33615" lon="2.41746">
        <ele>375.9</ele>
        <time>2023-05-28T07:59:23Z</time>
      </trkpt>
      <trkpt lat="43.33612" lon="2.41747">
        <ele>375.7</ele>
        <time>2023-05-28T07:59:24Z</time>
      </trkpt>
      <trkpt lat="43.33609" lon="2.41748">
        <ele>375.5</ele>
        <time>2023-05-28T07:59:25Z</time>
      </trkpt>
      <trkpt lat="43.33605" lon="2.41749">
        <ele>375.2</ele>
        <time>2023-05-28T07:59:26Z</time>
      </trkpt>
      <trkpt lat="43.33603" lon="2.41751">
        <ele>375</ele>
        <time>2023-05-28T07:59:27Z</time>
      </trkpt>
      <trkpt lat="43.336" lon="2.41752">
        <ele>374.7</ele>
        <time>2023-05-28T07:59:28Z</time>
      </trkpt>
      <trkpt lat="43.33596" lon="2.41753">
        <ele>374.4</ele>
        <time>2023-05-28T07:59:29Z</time>
      </trkpt>
      <trkpt lat="43.33593" lon="2.41755">
        <ele>374.1</ele>
        <time>2023-05-28T07:59:30Z</time>
      </trkpt>
      <trkpt lat="43.3359" lon="2.41757">
        <ele>373.8</ele>
        <time>2023-05-28T07:59:31Z</time>
      </trkpt>
      <trkpt lat="43.33588" lon="2.41758">
        <ele>373.5</ele>
        <time>2023-05-28T07:59:32Z</time>
      </trkpt>
      <trkpt lat="43.33585" lon="2.4176">
        <ele>373.3</ele>
        <time>2023-05-28T07:59:33Z</time>
      </trkpt>
      <trkpt lat="43.33582" lon="2.41761">
        <ele>373</ele>
        <time>2023-05-28T07:59:34Z</time>
      </trkpt>
      <trkpt lat="43.3358" lon="2.41763">
        <ele>372.7</ele>
        <time>2023-05-28T07:59:35Z</time>
      </trkpt>
      <trkpt lat="43.33577" lon="2.41764">
        <ele>372.5</ele>
        <time>2023-05-28T07:59:36Z</time>
      </trkpt>
      <trkpt lat="43.33574" lon="2.41766">
        <ele>372.2</ele>
        <time>2023-05-28T07:59:37Z</time>
      </trkpt>
      <trkpt lat="43.33572" lon="2.41767">
        <ele>371.9</ele>
        <time>2023-05-28T07:59:38Z</time>
      </trkpt>
      <trkpt lat="43.33569" lon="2.41769">
        <ele>371.7</ele>
        <time>2023-05-28T07:59:39Z</time>
      </trkpt>
      <trkpt lat="43.33567" lon="2.4177">
        <ele>371.4</ele>
        <time>2023-05-28T07:59:40Z</time>
      </trkpt>
      <trkpt lat="43.33564" lon="2.41772">
        <ele>371.2</ele>
        <time>2023-05-28T07:59:41Z</time>
      </trkpt>
      <trkpt lat="43.33561" lon="2.41773">
        <ele>370.9</ele>
        <time>2023-05-28T07:59:42Z</time>
      </trkpt>
      <trkpt lat="43.33559" lon="2.41775">
        <ele>370.7</ele>
        <time>2023-05-28T07:59:43Z</time>
      </trkpt>
      <trkpt lat="43.33556" lon="2.41776">
        <ele>370.4</ele>
        <time>2023-05-28T07:59:44Z</time>
      </trkpt>
      <trkpt lat="43.33553" lon="2.41778">
        <ele>370.2</ele>
        <time>2023-05-28T07:59:45Z</time>
      </trkpt>
      <trkpt lat="43.3355" lon="2.41779">
        <ele>369.9</ele>
        <time>2023-05-28T07:59:46Z</time>
      </trkpt>
      <trkpt lat="43.33547" lon="2.41781">
        <ele>369.7</ele>
        <time>2023-05-28T07:59:47Z</time>
      </trkpt>
      <trkpt lat="43.33544" lon="2.41782">
        <ele>369.4</ele>
        <time>2023-05-28T07:59:48Z</time>
      </trkpt>
      <trkpt lat="43.33541" lon="2.41784">
        <ele>369.1</ele>
        <time>2023-05-28T07:59:49Z</time>
      </trkpt>
      <trkpt lat="43.33538" lon="2.41786">
        <ele>368.9</ele>
        <time>2023-05-28T07:59:50Z</time>
      </trkpt>
      <trkpt lat="43.33535" lon="2.41787">
        <ele>368.7</ele>
        <time>2023-05-28T07:59:51Z</time>
      </trkpt>
      <trkpt lat="43.33532" lon="2.41789">
        <ele>368.5</ele>
        <time>2023-05-28T07:59:52Z</time>
      </trkpt>
      <trkpt lat="43.33529" lon="2.4179">
        <ele>368.3</ele>
        <time>2023-05-28T07:59:53Z</time>
      </trkpt>
      <trkpt lat="43.33526" lon="2.41791">
        <ele>368.1</ele>
        <time>2023-05-28T07:59:54Z</time>
      </trkpt>
      <trkpt lat="43.33523" lon="2.41792">
        <ele>368</ele>
        <time>2023-05-28T07:59:55Z</time>
      </trkpt>
      <trkpt lat="43.3352" lon="2.41794">
        <ele>367.9</ele>
        <time>2023-05-28T07:59:56Z</time>
      </trkpt>
      <trkpt lat="43.33517" lon="2.41795">
        <ele>367.7</ele>
        <time>2023-05-28T07:59:57Z</time>
      </trkpt>
      <trkpt lat="43.33516" lon="2.41796">
        <ele>367.7</ele>
        <time>2023-05-28T07:59:58Z</time>
      </trkpt>
      <trkpt lat="43.33514" lon="2.41798">
        <ele>367.6</ele>
        <time>2023-05-28T07:59:59Z</time>
      </trkpt>
      <trkpt lat="43.33511" lon="2.418">
        <ele>367.4</ele>
        <time>2023-05-28T08:00:00Z</time>
      </trkpt>
      <trkpt lat="43.3351" lon="2.41801">
        <ele>367.4</ele>
        <time>2023-05-28T08:00:01Z</time>
      </trkpt>
      <trkpt lat="43.33506" lon="2.41803">
        <ele>367.2</ele>
        <time>2023-05-28T08:00:02Z</time>
      </trkpt>
      <trkpt lat="43.33505" lon="2.41804">
        <ele>367.2</ele>
        <time>2023-05-28T08:00:03Z</time>
      </trkpt>
      <trkpt lat="43.33501" lon="2.41806">
        <ele>367</ele>
        <time>2023-05-28T08:00:04Z</time>
      </trkpt>
      <trkpt lat="43.335" lon="2.41806">
        <ele>367</ele>
        <time>2023-05-28T08:00:05Z</time>
      </trkpt>
      <trkpt lat="43.33496" lon="2.41808">
        <ele>366.8</ele>
        <time>2023-05-28T08:00:06Z</time>
      </trkpt>
      <trkpt lat="43.33495" lon="2.41809">
        <ele>366.7</ele>
        <time>2023-05-28T08:00:07Z</time>
      </trkpt>
      <trkpt lat="43.33493" lon="2.4181">
        <ele>366.6</ele>
        <time>2023-05-28T08:00:08Z</time>
      </trkpt>
      <trkpt lat="43.3349" lon="2.41811">
        <ele>366.4</ele>
        <time>2023-05-28T08:00:09Z</time>
      </trkpt>
      <trkpt lat="43.33487" lon="2.41813">
        <ele>366.2</ele>
        <time>2023-05-28T08:00:10Z</time>
      </trkpt>
      <trkpt lat="43.33485" lon="2.41814">
        <ele>366</ele>
        <time>2023-05-28T08:00:11Z</time>
      </trkpt>
      <trkpt lat="43.33481" lon="2.41815">
        <ele>365.7</ele>
        <time>2023-05-28T08:00:12Z</time>
      </trkpt>
      <trkpt lat="43.33479" lon="2.41815">
        <ele>365.6</ele>
        <time>2023-05-28T08:00:13Z</time>
      </trkpt>
      <trkpt lat="43.33476" lon="2.41813">
        <ele>365.4</ele>
        <time>2023-05-28T08:00:14Z</time>
      </trkpt>
      <trkpt lat="43.33475" lon="2.41812">
        <ele>365.3</ele>
        <time>2023-05-28T08:00:15Z</time>
      </trkpt>
      <trkpt lat="43.33473" lon="2.4181">
        <ele>365.2</ele>
        <time>2023-05-28T08:00:16Z</time>
      </trkpt>
      <trkpt lat="43.33471" lon="2.41807">
        <ele>365.1</ele>
        <time>2023-05-28T08:00:17Z</time>
      </trkpt>
      <trkpt lat="43.33469" lon="2.41803">
        <ele>365</ele>
        <time>2023-05-28T08:00:18Z</time>
      </trkpt>
      <trkpt lat="43.33468" lon="2.41799">
        <ele>364.8</ele>
        <time>2023-05-28T08:00:19Z</time>
      </trkpt>
      <trkpt lat="43.33465" lon="2.41794">
        <ele>364.7</ele>
        <time>2023-05-28T08:00:20Z</time>
      </trkpt>
      <trkpt lat="43.33464" lon="2.41793">
        <ele>364.6</ele>
        <time>2023-05-28T08:00:21Z</time>
      </trkpt>
      <trkpt lat="43.33462" lon="2.4179">
        <ele>364.6</ele>
        <time>2023-05-28T08:00:22Z</time>
      </trkpt>
      <trkpt lat="43.33459" lon="2.41788">
        <ele>364.4</ele>
        <time>2023-05-28T08:00:23Z</time>
      </trkpt>
      <trkpt lat="43.33458" lon="2.41787">
        <ele>364.4</ele>
        <time>2023-05-28T08:00:24Z</time>
      </trkpt>
      <trkpt lat="43.33455" lon="2.41786">
        <ele>364.3</ele>
        <time>2023-05-28T08:00:25Z</time>
      </trkpt>
      <trkpt lat="43.33452" lon="2.41785">
        <ele>364.2</ele>
        <time>2023-05-28T08:00:26Z</time>
      </trkpt>
      <trkpt lat="43.33449" lon="2.41785">
        <ele>364.2</ele>
        <time>2023-05-28T08:00:27Z</time>
      </trkpt>
      <trkpt lat="43.33445" lon="2.41786">
        <ele>364.1</ele>
        <time>2023-05-28T08:00:28Z</time>
      </trkpt>
      <trkpt lat="43.33444" lon="2.41786">
        <ele>364</ele>
        <time>2023-05-28T08:00:29Z</time>
      </trkpt>
      <trkpt lat="43.3344" lon="2.41787">
        <ele>364</ele>
        <time>2023-05-28T08:00:30Z</time>
      </trkpt>
      <trkpt lat="43.33439" lon="2.41788">
        <ele>364</ele>
        <time>2023-05-28T08:00:31Z</time>
      </trkpt>
      <trkpt lat="43.33435" lon="2.41789">
        <ele>363.9</ele>
        <time>2023-05-28T08:00:32Z</time>
      </trkpt>
      <trkpt lat="43.33434" lon="2.4179">
        <ele>363.9</ele>
        <time>2023-05-28T08:00:33Z</time>
      </trkpt>
      <trkpt lat="43.33432" lon="2.41791">
        <ele>363.9</ele>
        <time>2023-05-28T08:00:34Z</time>
      </trkpt>
      <trkpt lat="43.33429" lon="2.41792">
        <ele>364</ele>
        <time>2023-05-28T08:00:35Z</time>
      </trkpt>
      <trkpt lat="43.33426" lon="2.41794">
        <ele>364</ele>
        <time>2023-05-28T08:00:36Z</time>
      </trkpt>
      <trkpt lat="43.33424" lon="2.41795">
        <ele>364</ele>
        <time>2023-05-28T08:00:37Z</time>
      </trkpt>
      <trkpt lat="43.33421" lon="2.41797">
        <ele>364</ele>
        <time>2023-05-28T08:00:38Z</time>
      </trkpt>
      <trkpt lat="43.33418" lon="2.41799">
        <ele>364.1</ele>
        <time>2023-05-28T08:00:39Z</time>
      </trkpt>
      <trkpt lat="43.33416" lon="2.418">
        <ele>364.1</ele>
        <time>2023-05-28T08:00:40Z</time>
      </trkpt>
      <trkpt lat="43.33412" lon="2.41802">
        <ele>364.2</ele>
        <time>2023-05-28T08:00:41Z</time>
      </trkpt>
      <trkpt lat="43.33411" lon="2.41803">
        <ele>364.2</ele>
        <time>2023-05-28T08:00:42Z</time>
      </trkpt>
      <trkpt lat="43.33407" lon="2.41805">
        <ele>364.2</ele>
        <time>2023-05-28T08:00:43Z</time>
      </trkpt>
      <trkpt lat="43.33406" lon="2.41806">
        <ele>364.2</ele>
        <time>2023-05-28T08:00:44Z</time>
      </trkpt>
      <trkpt lat="43.33403" lon="2.41808">
        <ele>364.2</ele>
        <time>2023-05-28T08:00:45Z</time>
      </trkpt>
      <trkpt lat="43.33401" lon="2.41809">
        <ele>364.2</ele>
        <time>2023-05-28T08:00:46Z</time>
      </trkpt>
      <trkpt lat="43.33399" lon="2.4181">
        <ele>364.2</ele>
        <time>2023-05-28T08:00:47Z</time>
      </trkpt>
      <trkpt lat="43.33395" lon="2.41812">
        <ele>364.1</ele>
        <time>2023-05-28T08:00:48Z</time>
      </trkpt>
      <trkpt lat="43.33394" lon="2.41813">
        <ele>364.1</ele>
        <time>2023-05-28T08:00:49Z</time>
      </trkpt>
      <trkpt lat="43.33391" lon="2.41815">
        <ele>364.1</ele>
        <time>2023-05-28T08:00:50Z</time>
      </trkpt>
      <trkpt lat="43.33388" lon="2.41817">
        <ele>364</ele>
        <time>2023-05-28T08:00:51Z</time>
      </trkpt>
      <trkpt lat="43.33387" lon="2.41818">
        <ele>363.9</ele>
        <time>2023-05-28T08:00:52Z</time>
      </trkpt>
      <trkpt lat="43.33384" lon="2.4182">
        <ele>363.9</ele>
        <time>2023-05-28T08:00:53Z</time>
      </trkpt>
      <trkpt lat="43.33382" lon="2.41822">
        <ele>363.8</ele>
        <time>2023-05-28T08:00:54Z</time>
      </trkpt>
      <trkpt lat="43.33379" lon="2.41823">
        <ele>363.7</ele>
        <time>2023-05-28T08:00:55Z</time>
      </trkpt>
      <trkpt lat="43.33378" lon="2.41824">
        <ele>363.6</ele>
        <time>2023-05-28T08:00:56Z</time>
      </trkpt>
      <trkpt lat="43.33374" lon="2.41826">
        <ele>363.5</ele>
        <time>2023-05-28T08:00:57Z</time>
      </trkpt>
      <trkpt lat="43.33373" lon="2.41826">
        <ele>363.5</ele>
        <time>2023-05-28T08:00:58Z</time>
      </trkpt>
      <trkpt lat="43.33369" lon="2.41829">
        <ele>363.3</ele>
        <time>2023-05-28T08:00:59Z</time>
      </trkpt>
      <trkpt lat="43.33368" lon="2.41829">
        <ele>363.3</ele>
        <time>2023-05-28T08:01:00Z</time>
      </trkpt>
      <trkpt lat="43.33365" lon="2.41832">
        <ele>363.1</ele>
        <time>2023-05-28T08:01:01Z</time>
      </trkpt>
      <trkpt lat="43.33364" lon="2.41833">
        <ele>363.1</ele>
        <time>2023-05-28T08:01:02Z</time>
      </trkpt>
      <trkpt lat="43.33362" lon="2.41835">
        <ele>362.9</ele>
        <time>2023-05-28T08:01:03Z</time>
      </trkpt>
      <trkpt lat="43.33361" lon="2.41836">
        <ele>362.9</ele>
        <time>2023-05-28T08:01:04Z</time>
      </trkpt>
      <trkpt lat="43.33358" lon="2.41837">
        <ele>362.7</ele>
        <time>2023-05-28T08:01:05Z</time>
      </trkpt>
      <trkpt lat="43.33356" lon="2.41838">
        <ele>362.6</ele>
        <time>2023-05-28T08:01:06Z</time>
      </trkpt>
      <trkpt lat="43.33354" lon="2.4184">
        <ele>362.5</ele>
        <time>2023-05-28T08:01:07Z</time>
      </trkpt>
      <trkpt lat="43.33351" lon="2.41842">
        <ele>362.3</ele>
        <time>2023-05-28T08:01:08Z</time>
      </trkpt>
      <trkpt lat="43.33349" lon="2.41843">
        <ele>362.2</ele>
        <time>2023-05-28T08:01:09Z</time>
      </trkpt>
      <trkpt lat="43.33346" lon="2.41846">
        <ele>361.9</ele>
        <time>2023-05-28T08:01:10Z</time>
      </trkpt>
      <trkpt lat="43.33344" lon="2.41846">
        <ele>361.8</ele>
        <time>2023-05-28T08:01:11Z</time>
      </trkpt>
      <trkpt lat="43.33341" lon="2.41847">
        <ele>361.6</ele>
        <time>2023-05-28T08:01:12Z</time>
      </trkpt>
      <trkpt lat="43.3334" lon="2.41848">
        <ele>361.5</ele>
        <time>2023-05-28T08:01:13Z</time>
      </trkpt>
      <trkpt lat="43.33336" lon="2.41849">
        <ele>361.2</ele>
        <time>2023-05-28T08:01:14Z</time>
      </trkpt>
      <trkpt lat="43.33335" lon="2.41849">
        <ele>361.1</ele>
        <time>2023-05-28T08:01:15Z</time>
      </trkpt>
      <trkpt lat="43.33332" lon="2.4185">
        <ele>360.9</ele>
        <time>2023-05-28T08:01:16Z</time>
      </trkpt>
      <trkpt lat="43.33331" lon="2.4185">
        <ele>360.8</ele>
        <time>2023-05-28T08:01:17Z</time>
      </trkpt>
      <trkpt lat="43.33328" lon="2.41851">
        <ele>360.5</ele>
        <time>2023-05-28T08:01:18Z</time>
      </trkpt>
      <trkpt lat="43.33324" lon="2.41852">
        <ele>360.2</ele>
        <time>2023-05-28T08:01:19Z</time>
      </trkpt>
      <trkpt lat="43.33323" lon="2.41852">
        <ele>360.1</ele>
        <time>2023-05-28T08:01:20Z</time>
      </trkpt>
      <trkpt lat="43.33319" lon="2.41853">
        <ele>359.7</ele>
        <time>2023-05-28T08:01:21Z</time>
      </trkpt>
      <trkpt lat="43.33318" lon="2.41853">
        <ele>359.6</ele>
        <time>2023-05-28T08:01:22Z</time>
      </trkpt>
      <trkpt lat="43.33315" lon="2.41853">
        <ele>359.3</ele>
        <time>2023-05-28T08:01:23Z</time>
      </trkpt>
      <trkpt lat="43.33314" lon="2.41853">
        <ele>359.2</ele>
        <time>2023-05-28T08:01:24Z</time>
      </trkpt>
      <trkpt lat="43.3331" lon="2.41854">
        <ele>358.8</ele>
        <time>2023-05-28T08:01:25Z</time>
      </trkpt>
      <trkpt lat="43.33309" lon="2.41854">
        <ele>358.7</ele>
        <time>2023-05-28T08:01:26Z</time>
      </trkpt>
      <trkpt lat="43.33306" lon="2.41855">
        <ele>358.4</ele>
        <time>2023-05-28T08:01:27Z</time>
      </trkpt>
      <trkpt lat="43.33305" lon="2.41855">
        <ele>358.3</ele>
        <time>2023-05-28T08:01:28Z</time>
      </trkpt>
      <trkpt lat="43.33301" lon="2.41856">
        <ele>357.9</ele>
        <time>2023-05-28T08:01:29Z</time>
      </trkpt>
      <trkpt lat="43.333" lon="2.41856">
        <ele>357.8</ele>
        <time>2023-05-28T08:01:30Z</time>
      </trkpt>
      <trkpt lat="43.33296" lon="2.41856">
        <ele>357.4</ele>
        <time>2023-05-28T08:01:31Z</time>
      </trkpt>
      <trkpt lat="43.33295" lon="2.41856">
        <ele>357.2</ele>
        <time>2023-05-28T08:01:32Z</time>
      </trkpt>
      <trkpt lat="43.33293" lon="2.41857">
        <ele>356.9</ele>
        <time>2023-05-28T08:01:33Z</time>
      </trkpt>
      <trkpt lat="43.33289" lon="2.41857">
        <ele>356.6</ele>
        <time>2023-05-28T08:01:34Z</time>
      </trkpt>
      <trkpt lat="43.33288" lon="2.41857">
        <ele>356.5</ele>
        <time>2023-05-28T08:01:35Z</time>
      </trkpt>
      <trkpt lat="43.33285" lon="2.41857">
        <ele>356</ele>
        <time>2023-05-28T08:01:36Z</time>
      </trkpt>
      <trkpt lat="43.33283" lon="2.41857">
        <ele>355.9</ele>
        <time>2023-05-28T08:01:37Z</time>
      </trkpt>
      <trkpt lat="43.3328" lon="2.41857">
        <ele>355.5</ele>
        <time>2023-05-28T08:01:38Z</time>
      </trkpt>
      <trkpt lat="43.33278" lon="2.41857">
        <ele>355.4</ele>
        <time>2023-05-28T08:01:39Z</time>
      </trkpt>
      <trkpt lat="43.33275" lon="2.41857">
        <ele>355</ele>
        <time>2023-05-28T08:01:40Z</time>
      </trkpt>
      <trkpt lat="43.33274" lon="2.41857">
        <ele>354.9</ele>
        <time>2023-05-28T08:01:41Z</time>
      </trkpt>
      <trkpt lat="43.3327" lon="2.41857">
        <ele>354.6</ele>
        <time>2023-05-28T08:01:42Z</time>
      </trkpt>
      <trkpt lat="43.33269" lon="2.41857">
        <ele>354.5</ele>
        <time>2023-05-28T08:01:43Z</time>
      </trkpt>
      <trkpt lat="43.33265" lon="2.41857">
        <ele>354.2</ele>
        <time>2023-05-28T08:01:44Z</time>
      </trkpt>
      <trkpt lat="43.33264" lon="2.41857">
        <ele>354.1</ele>
        <time>2023-05-28T08:01:45Z</time>
      </trkpt>
      <trkpt lat="43.3326" lon="2.41858">
        <ele>353.8</ele>
        <time>2023-05-28T08:01:46Z</time>
      </trkpt>
      <trkpt lat="43.33259" lon="2.41858">
        <ele>353.7</ele>
        <time>2023-05-28T08:01:47Z</time>
      </trkpt>
      <trkpt lat="43.33256" lon="2.41859">
        <ele>353.5</ele>
        <time>2023-05-28T08:01:48Z</time>
      </trkpt>
      <trkpt lat="43.33255" lon="2.41859">
        <ele>353.4</ele>
        <time>2023-05-28T08:01:49Z</time>
      </trkpt>
      <trkpt lat="43.33251" lon="2.41861">
        <ele>353.1</ele>
        <time>2023-05-28T08:01:50Z</time>
      </trkpt>
      <trkpt lat="43.3325" lon="2.41861">
        <ele>353</ele>
        <time>2023-05-28T08:01:51Z</time>
      </trkpt>
      <trkpt lat="43.33247" lon="2.41863">
        <ele>352.7</ele>
        <time>2023-05-28T08:01:52Z</time>
      </trkpt>
      <trkpt lat="43.33246" lon="2.41863">
        <ele>352.6</ele>
        <time>2023-05-28T08:01:53Z</time>
      </trkpt>
      <trkpt lat="43.33243" lon="2.41865">
        <ele>352.4</ele>
        <time>2023-05-28T08:01:54Z</time>
      </trkpt>
      <trkpt lat="43.33242" lon="2.41865">
        <ele>352.3</ele>
        <time>2023-05-28T08:01:55Z</time>
      </trkpt>
      <trkpt lat="43.33238" lon="2.41866">
        <ele>352</ele>
        <time>2023-05-28T08:01:56Z</time>
      </trkpt>
      <trkpt lat="43.33237" lon="2.41866">
        <ele>351.9</ele>
        <time>2023-05-28T08:01:57Z</time>
      </trkpt>
      <trkpt lat="43.33234" lon="2.41866">
        <ele>351.8</ele>
        <time>2023-05-28T08:01:58Z</time>
      </trkpt>
      <trkpt lat="43.33231" lon="2.41867">
        <ele>351.6</ele>
        <time>2023-05-28T08:01:59Z</time>
      </trkpt>
      <trkpt lat="43.33229" lon="2.41866">
        <ele>351.5</ele>
        <time>2023-05-28T08:02:00Z</time>
      </trkpt>
      <trkpt lat="43.33226" lon="2.41866">
        <ele>351.3</ele>
        <time>2023-05-28T08:02:01Z</time>
      </trkpt>
      <trkpt lat="43.33225" lon="2.41866">
        <ele>351.2</ele>
        <time>2023-05-28T08:02:02Z</time>
      </trkpt>
      <trkpt lat="43.33221" lon="2.41866">
        <ele>351.1</ele>
        <time>2023-05-28T08:02:03Z</time>
      </trkpt>
      <trkpt lat="43.33219" lon="2.41866">
        <ele>351</ele>
        <time>2023-05-28T08:02:04Z</time>
      </trkpt>
      <trkpt lat="43.33216" lon="2.41866">
        <ele>350.8</ele>
        <time>2023-05-28T08:02:05Z</time>
      </trkpt>
      <trkpt lat="43.33215" lon="2.41866">
        <ele>350.8</ele>
        <time>2023-05-28T08:02:06Z</time>
      </trkpt>
      <trkpt lat="43.33211" lon="2.41866">
        <ele>350.6</ele>
        <time>2023-05-28T08:02:07Z</time>
      </trkpt>
      <trkpt lat="43.3321" lon="2.41866">
        <ele>350.6</ele>
        <time>2023-05-28T08:02:08Z</time>
      </trkpt>
      <trkpt lat="43.33207" lon="2.41865">
        <ele>350.4</ele>
        <time>2023-05-28T08:02:09Z</time>
      </trkpt>
      <trkpt lat="43.33206" lon="2.41865">
        <ele>350.3</ele>
        <time>2023-05-28T08:02:10Z</time>
      </trkpt>
      <trkpt lat="43.33203" lon="2.41864">
        <ele>350.2</ele>
        <time>2023-05-28T08:02:11Z</time>
      </trkpt>
      <trkpt lat="43.33202" lon="2.41864">
        <ele>350.1</ele>
        <time>2023-05-28T08:02:12Z</time>
      </trkpt>
      <trkpt lat="43.332" lon="2.41863">
        <ele>350</ele>
        <time>2023-05-28T08:02:13Z</time>
      </trkpt>
      <trkpt lat="43.33199" lon="2.41861">
        <ele>349.9</ele>
        <time>2023-05-28T08:02:14Z</time>
      </trkpt>
      <trkpt lat="43.33199" lon="2.41859">
        <ele>349.8</ele>
        <time>2023-05-28T08:02:15Z</time>
      </trkpt>
      <trkpt lat="43.33199" lon="2.41857">
        <ele>350</ele>
        <time>2023-05-28T08:02:16Z</time>
      </trkpt>
      <trkpt lat="43.33199" lon="2.41854">
        <ele>350.2</ele>
        <time>2023-05-28T08:02:17Z</time>
      </trkpt>
      <trkpt lat="43.33199" lon="2.41853">
        <ele>350.2</ele>
        <time>2023-05-28T08:02:18Z</time>
      </trkpt>
      <trkpt lat="43.33199" lon="2.41852">
        <ele>350.3</ele>
        <time>2023-05-28T08:02:19Z</time>
      </trkpt>
      <trkpt lat="43.332" lon="2.41849">
        <ele>350.5</ele>
        <time>2023-05-28T08:02:20Z</time>
      </trkpt>
      <trkpt lat="43.332" lon="2.41848">
        <ele>350.6</ele>
        <time>2023-05-28T08:02:21Z</time>
      </trkpt>
      <trkpt lat="43.332" lon="2.41847">
        <ele>350.6</ele>
        <time>2023-05-28T08:02:22Z</time>
      </trkpt>
      <trkpt lat="43.33201" lon="2.41845">
        <ele>350.8</ele>
        <time>2023-05-28T08:02:23Z</time>
      </trkpt>
      <trkpt lat="43.33201" lon="2.41843">
        <ele>350.9</ele>
        <time>2023-05-28T08:02:24Z</time>
      </trkpt>
      <trkpt lat="43.33202" lon="2.4184">
        <ele>351</ele>
        <time>2023-05-28T08:02:25Z</time>
      </trkpt>
      <trkpt lat="43.33202" lon="2.41839">
        <ele>351</ele>
        <time>2023-05-28T08:02:26Z</time>
      </trkpt>
      <trkpt lat="43.33202" lon="2.41838">
        <ele>351.1</ele>
        <time>2023-05-28T08:02:27Z</time>
      </trkpt>
      <trkpt lat="43.33202" lon="2.41836">
        <ele>351.2</ele>
        <time>2023-05-28T08:02:28Z</time>
      </trkpt>
      <trkpt lat="43.33202" lon="2.41834">
        <ele>351.3</ele>
        <time>2023-05-28T08:02:29Z</time>
      </trkpt>
      <trkpt lat="43.33201" lon="2.41831">
        <ele>351.4</ele>
        <time>2023-05-28T08:02:30Z</time>
      </trkpt>
      <trkpt lat="43.33201" lon="2.4183">
        <ele>351.5</ele>
        <time>2023-05-28T08:02:31Z</time>
      </trkpt>
      <trkpt lat="43.33201" lon="2.41829">
        <ele>351.6</ele>
        <time>2023-05-28T08:02:32Z</time>
      </trkpt>
      <trkpt lat="43.33202" lon="2.41826">
        <ele>351.6</ele>
        <time>2023-05-28T08:02:33Z</time>
      </trkpt>
      <trkpt lat="43.33202" lon="2.41824">
        <ele>351.7</ele>
        <time>2023-05-28T08:02:34Z</time>
      </trkpt>
      <trkpt lat="43.33202" lon="2.41823">
        <ele>351.8</ele>
        <time>2023-05-28T08:02:35Z</time>
      </trkpt>
      <trkpt lat="43.33202" lon="2.41821">
        <ele>351.8</ele>
        <time>2023-05-28T08:02:36Z</time>
      </trkpt>
      <trkpt lat="43.33201" lon="2.41819">
        <ele>351.9</ele>
        <time>2023-05-28T08:02:37Z</time>
      </trkpt>
      <trkpt lat="43.33201" lon="2.41817">
        <ele>352</ele>
        <time>2023-05-28T08:02:38Z</time>
      </trkpt>
      <trkpt lat="43.33201" lon="2.41815">
        <ele>352.1</ele>
        <time>2023-05-28T08:02:39Z</time>
      </trkpt>
      <trkpt lat="43.33201" lon="2.41814">
        <ele>352.1</ele>
        <time>2023-05-28T08:02:40Z</time>
      </trkpt>
      <trkpt lat="43.33201" lon="2.41812">
        <ele>352.2</ele>
        <time>2023-05-28T08:02:41Z</time>
      </trkpt>
      <trkpt lat="43.33201" lon="2.41811">
        <ele>352.1</ele>
        <time>2023-05-28T08:02:42Z</time>
      </trkpt>
      <trkpt lat="43.33201" lon="2.41808">
        <ele>352.2</ele>
        <time>2023-05-28T08:02:43Z</time>
      </trkpt>
      <trkpt lat="43.33201" lon="2.41807">
        <ele>352.3</ele>
        <time>2023-05-28T08:02:44Z</time>
      </trkpt>
      <trkpt lat="43.33201" lon="2.41806">
        <ele>352.3</ele>
        <time>2023-05-28T08:02:45Z</time>
      </trkpt>
      <trkpt lat="43.33201" lon="2.41804">
        <ele>352.3</ele>
        <time>2023-05-28T08:02:46Z</time>
      </trkpt>
      <trkpt lat="43.33201" lon="2.41802">
        <ele>352.2</ele>
        <time>2023-05-28T08:02:47Z</time>
      </trkpt>
      <trkpt lat="43.332" lon="2.41799">
        <ele>352.3</ele>
        <time>2023-05-28T08:02:48Z</time>
      </trkpt>
      <trkpt lat="43.33199" lon="2.41798">
        <ele>352.4</ele>
        <time>2023-05-28T08:02:49Z</time>
      </trkpt>
      <trkpt lat="43.33199" lon="2.41797">
        <ele>352.2</ele>
        <time>2023-05-28T08:02:50Z</time>
      </trkpt>
      <trkpt lat="43.33198" lon="2.41796">
        <ele>352.3</ele>
        <time>2023-05-28T08:02:51Z</time>
      </trkpt>
      <trkpt lat="43.33198" lon="2.41794">
        <ele>352.3</ele>
        <time>2023-05-28T08:02:52Z</time>
      </trkpt>
      <trkpt lat="43.33197" lon="2.41792">
        <ele>352.1</ele>
        <time>2023-05-28T08:02:53Z</time>
      </trkpt>
      <trkpt lat="43.33197" lon="2.41791">
        <ele>352.2</ele>
        <time>2023-05-28T08:02:54Z</time>
      </trkpt>
      <trkpt lat="43.33197" lon="2.4179">
        <ele>352.3</ele>
        <time>2023-05-28T08:02:55Z</time>
      </trkpt>
      <trkpt lat="43.33196" lon="2.41787">
        <ele>352</ele>
        <time>2023-05-28T08:02:56Z</time>
      </trkpt>
      <trkpt lat="43.33196" lon="2.41786">
        <ele>352.1</ele>
        <time>2023-05-28T08:02:57Z</time>
      </trkpt>
      <trkpt lat="43.33196" lon="2.41785">
        <ele>351.8</ele>
        <time>2023-05-28T08:02:58Z</time>
      </trkpt>
      <trkpt lat="43.33195" lon="2.41781">
        <ele>351.7</ele>
        <time>2023-05-28T08:02:59Z</time>
      </trkpt>
      <trkpt lat="43.33194" lon="2.4178">
        <ele>351.4</ele>
        <time>2023-05-28T08:03:00Z</time>
      </trkpt>
      <trkpt lat="43.33193" lon="2.41776">
        <ele>351</ele>
        <time>2023-05-28T08:03:01Z</time>
      </trkpt>
      <trkpt lat="43.33193" lon="2.41774">
        <ele>351.1</ele>
        <time>2023-05-28T08:03:02Z</time>
      </trkpt>
      <trkpt lat="43.33192" lon="2.4177">
        <ele>350.5</ele>
        <time>2023-05-28T08:03:03Z</time>
      </trkpt>
      <trkpt lat="43.33192" lon="2.41768">
        <ele>350.6</ele>
        <time>2023-05-28T08:03:04Z</time>
      </trkpt>
      <trkpt lat="43.33191" lon="2.41764">
        <ele>350.2</ele>
        <time>2023-05-28T08:03:05Z</time>
      </trkpt>
      <trkpt lat="43.33191" lon="2.4176">
        <ele>349.8</ele>
        <time>2023-05-28T08:03:06Z</time>
      </trkpt>
      <trkpt lat="43.33191" lon="2.41757">
        <ele>349.5</ele>
        <time>2023-05-28T08:03:07Z</time>
      </trkpt>
      <trkpt lat="43.33191" lon="2.41752">
        <ele>349.1</ele>
        <time>2023-05-28T08:03:08Z</time>
      </trkpt>
      <trkpt lat="43.3319" lon="2.4175">
        <ele>348.8</ele>
        <time>2023-05-28T08:03:09Z</time>
      </trkpt>
      <trkpt lat="43.33188" lon="2.41747">
        <ele>348.7</ele>
        <time>2023-05-28T08:03:10Z</time>
      </trkpt>
      <trkpt lat="43.33187" lon="2.41746">
        <ele>348.4</ele>
        <time>2023-05-28T08:03:11Z</time>
      </trkpt>
      <trkpt lat="43.33183" lon="2.41747">
        <ele>348.7</ele>
        <time>2023-05-28T08:03:12Z</time>
      </trkpt>
      <trkpt lat="43.33181" lon="2.41748">
        <ele>348.6</ele>
        <time>2023-05-28T08:03:13Z</time>
      </trkpt>
      <trkpt lat="43.33179" lon="2.41751">
        <ele>348.6</ele>
        <time>2023-05-28T08:03:14Z</time>
      </trkpt>
      <trkpt lat="43.33176" lon="2.41753">
        <ele>348.9</ele>
        <time>2023-05-28T08:03:15Z</time>
      </trkpt>
      <trkpt lat="43.33173" lon="2.41756">
        <ele>349.3</ele>
        <time>2023-05-28T08:03:16Z</time>
      </trkpt>
      <trkpt lat="43.33171" lon="2.41759">
        <ele>349.4</ele>
        <time>2023-05-28T08:03:17Z</time>
      </trkpt>
      <trkpt lat="43.33168" lon="2.41762">
        <ele>349.8</ele>
        <time>2023-05-28T08:03:18Z</time>
      </trkpt>
      <trkpt lat="43.33167" lon="2.41763">
        <ele>349.7</ele>
        <time>2023-05-28T08:03:19Z</time>
      </trkpt>
      <trkpt lat="43.33164" lon="2.41766">
        <ele>350.2</ele>
        <time>2023-05-28T08:03:20Z</time>
      </trkpt>
      <trkpt lat="43.33162" lon="2.41768">
        <ele>350.6</ele>
        <time>2023-05-28T08:03:21Z</time>
      </trkpt>
      <trkpt lat="43.33159" lon="2.4177">
        <ele>350.5</ele>
        <time>2023-05-28T08:03:22Z</time>
      </trkpt>
      <trkpt lat="43.33157" lon="2.41772">
        <ele>350.4</ele>
        <time>2023-05-28T08:03:23Z</time>
      </trkpt>
      <trkpt lat="43.33153" lon="2.41773">
        <ele>350.7</ele>
        <time>2023-05-28T08:03:24Z</time>
      </trkpt>
      <trkpt lat="43.33152" lon="2.41773">
        <ele>350.8</ele>
        <time>2023-05-28T08:03:25Z</time>
      </trkpt>
      <trkpt lat="43.3315" lon="2.41771">
        <ele>350.1</ele>
        <time>2023-05-28T08:03:26Z</time>
      </trkpt>
      <trkpt lat="43.33147" lon="2.41769">
        <ele>349.9</ele>
        <time>2023-05-28T08:03:27Z</time>
      </trkpt>
      <trkpt lat="43.33146" lon="2.41768">
        <ele>349.5</ele>
        <time>2023-05-28T08:03:28Z</time>
      </trkpt>
      <trkpt lat="43.33143" lon="2.41766">
        <ele>349.2</ele>
        <time>2023-05-28T08:03:29Z</time>
      </trkpt>
      <trkpt lat="43.3314" lon="2.41765">
        <ele>348.9</ele>
        <time>2023-05-28T08:03:30Z</time>
      </trkpt>
      <trkpt lat="43.33137" lon="2.41764">
        <ele>348.6</ele>
        <time>2023-05-28T08:03:31Z</time>
      </trkpt>
      <trkpt lat="43.33133" lon="2.41764">
        <ele>348.3</ele>
        <time>2023-05-28T08:03:32Z</time>
      </trkpt>
      <trkpt lat="43.33132" lon="2.41764">
        <ele>347.5</ele>
        <time>2023-05-28T08:03:33Z</time>
      </trkpt>
      <trkpt lat="43.33129" lon="2.41763">
        <ele>347.2</ele>
        <time>2023-05-28T08:03:34Z</time>
      </trkpt>
      <trkpt lat="43.33126" lon="2.41763">
        <ele>346.9</ele>
        <time>2023-05-28T08:03:35Z</time>
      </trkpt>
      <trkpt lat="43.33123" lon="2.41763">
        <ele>346.6</ele>
        <time>2023-05-28T08:03:36Z</time>
      </trkpt>
      <trkpt lat="43.3312" lon="2.41763">
        <ele>346.3</ele>
        <time>2023-05-28T08:03:37Z</time>
      </trkpt>
      <trkpt lat="43.33117" lon="2.41762">
        <ele>345.9</ele>
        <time>2023-05-28T08:03:38Z</time>
      </trkpt>
      <trkpt lat="43.33114" lon="2.41759">
        <ele>345</ele>
        <time>2023-05-28T08:03:39Z</time>
      </trkpt>
      <trkpt lat="43.33112" lon="2.41756">
        <ele>345.1</ele>
        <time>2023-05-28T08:03:40Z</time>
      </trkpt>
      <trkpt lat="43.3311" lon="2.41752">
        <ele>344.2</ele>
        <time>2023-05-28T08:03:41Z</time>
      </trkpt>
      <trkpt lat="43.33108" lon="2.41749">
        <ele>343.2</ele>
        <time>2023-05-28T08:03:42Z</time>
      </trkpt>
      <trkpt lat="43.33105" lon="2.41747">
        <ele>342.8</ele>
        <time>2023-05-28T08:03:43Z</time>
      </trkpt>
      <trkpt lat="43.33104" lon="2.41746">
        <ele>342.3</ele>
        <time>2023-05-28T08:03:44Z</time>
      </trkpt>
      <trkpt lat="43.33101" lon="2.41744">
        <ele>341.9</ele>
        <time>2023-05-28T08:03:45Z</time>
      </trkpt>
      <trkpt lat="43.331" lon="2.41744">
        <ele>342</ele>
        <time>2023-05-28T08:03:46Z</time>
      </trkpt>
      <trkpt lat="43.33096" lon="2.41742">
        <ele>340.9</ele>
        <time>2023-05-28T08:03:47Z</time>
      </trkpt>
      <trkpt lat="43.33095" lon="2.41741">
        <ele>340.4</ele>
        <time>2023-05-28T08:03:48Z</time>
      </trkpt>
      <trkpt lat="43.33093" lon="2.4174">
        <ele>340.5</ele>
        <time>2023-05-28T08:03:49Z</time>
      </trkpt>
      <trkpt lat="43.3309" lon="2.4174">
        <ele>340.1</ele>
        <time>2023-05-28T08:03:50Z</time>
      </trkpt>
      <trkpt lat="43.33087" lon="2.4174">
        <ele>339.5</ele>
        <time>2023-05-28T08:03:51Z</time>
      </trkpt>
      <trkpt lat="43.33084" lon="2.41741">
        <ele>338.9</ele>
        <time>2023-05-28T08:03:52Z</time>
      </trkpt>
      <trkpt lat="43.3308" lon="2.41742">
        <ele>338.3</ele>
        <time>2023-05-28T08:03:53Z</time>
      </trkpt>
      <trkpt lat="43.33079" lon="2.41742">
        <ele>338.3</ele>
        <time>2023-05-28T08:03:54Z</time>
      </trkpt>
      <trkpt lat="43.33076" lon="2.41744">
        <ele>337.7</ele>
        <time>2023-05-28T08:03:55Z</time>
      </trkpt>
      <trkpt lat="43.33075" lon="2.41745">
        <ele>337.8</ele>
        <time>2023-05-28T08:03:56Z</time>
      </trkpt>
      <trkpt lat="43.33073" lon="2.41747">
        <ele>337.9</ele>
        <time>2023-05-28T08:03:57Z</time>
      </trkpt>
      <trkpt lat="43.33072" lon="2.41748">
        <ele>338</ele>
        <time>2023-05-28T08:03:58Z</time>
      </trkpt>
      <trkpt lat="43.3307" lon="2.41749">
        <ele>337.4</ele>
        <time>2023-05-28T08:03:59Z</time>
      </trkpt>
      <trkpt lat="43.33069" lon="2.41749">
        <ele>337.5</ele>
        <time>2023-05-28T08:04:00Z</time>
      </trkpt>
      <trkpt lat="43.33067" lon="2.41747">
        <ele>337.6</ele>
        <time>2023-05-28T08:04:01Z</time>
      </trkpt>
      <trkpt lat="43.33067" lon="2.41745">
        <ele>336.3</ele>
        <time>2023-05-28T08:04:02Z</time>
      </trkpt>
      <trkpt lat="43.33065" lon="2.41742">
        <ele>335.7</ele>
        <time>2023-05-28T08:04:03Z</time>
      </trkpt>
      <trkpt lat="43.33064" lon="2.41741">
        <ele>335.1</ele>
        <time>2023-05-28T08:04:04Z</time>
      </trkpt>
      <trkpt lat="43.3306" lon="2.41742">
        <ele>334.4</ele>
        <time>2023-05-28T08:04:05Z</time>
      </trkpt>
      <trkpt lat="43.33059" lon="2.41742">
        <ele>335.2</ele>
        <time>2023-05-28T08:04:06Z</time>
      </trkpt>
      <trkpt lat="43.33056" lon="2.41744">
        <ele>334.6</ele>
        <time>2023-05-28T08:04:07Z</time>
      </trkpt>
      <trkpt lat="43.33053" lon="2.41746">
        <ele>333.8</ele>
        <time>2023-05-28T08:04:08Z</time>
      </trkpt>
      <trkpt lat="43.3305" lon="2.41749">
        <ele>333.9</ele>
        <time>2023-05-28T08:04:09Z</time>
      </trkpt>
      <trkpt lat="43.33047" lon="2.41751">
        <ele>334</ele>
        <time>2023-05-28T08:04:10Z</time>
      </trkpt>
      <trkpt lat="43.33044" lon="2.41753">
        <ele>333.4</ele>
        <time>2023-05-28T08:04:11Z</time>
      </trkpt>
      <trkpt lat="43.33041" lon="2.41755">
        <ele>332.8</ele>
        <time>2023-05-28T08:04:12Z</time>
      </trkpt>
      <trkpt lat="43.33037" lon="2.41757">
        <ele>332.9</ele>
        <time>2023-05-28T08:04:13Z</time>
      </trkpt>
      <trkpt lat="43.33034" lon="2.41759">
        <ele>332.2</ele>
        <time>2023-05-28T08:04:14Z</time>
      </trkpt>
      <trkpt lat="43.33031" lon="2.41761">
        <ele>332.2</ele>
        <time>2023-05-28T08:04:15Z</time>
      </trkpt>
      <trkpt lat="43.33028" lon="2.41763">
        <ele>331.3</ele>
        <time>2023-05-28T08:04:16Z</time>
      </trkpt>
      <trkpt lat="43.33025" lon="2.41766">
        <ele>331.3</ele>
        <time>2023-05-28T08:04:17Z</time>
      </trkpt>
      <trkpt lat="43.33022" lon="2.41769">
        <ele>331.3</ele>
        <time>2023-05-28T08:04:18Z</time>
      </trkpt>
      <trkpt lat="43.33022" lon="2.4177">
        <ele>331.4</ele>
        <time>2023-05-28T08:04:19Z</time>
      </trkpt>
      <trkpt lat="43.3302" lon="2.41773">
        <ele>331.5</ele>
        <time>2023-05-28T08:04:20Z</time>
      </trkpt>
      <trkpt lat="43.33018" lon="2.41777">
        <ele>332.3</ele>
        <time>2023-05-28T08:04:21Z</time>
      </trkpt>
      <trkpt lat="43.33016" lon="2.41779">
        <ele>331.6</ele>
        <time>2023-05-28T08:04:22Z</time>
      </trkpt>
      <trkpt lat="43.33013" lon="2.41783">
        <ele>331.7</ele>
        <time>2023-05-28T08:04:23Z</time>
      </trkpt>
      <trkpt lat="43.33012" lon="2.41785">
        <ele>331.8</ele>
        <time>2023-05-28T08:04:24Z</time>
      </trkpt>
      <trkpt lat="43.3301" lon="2.41788">
        <ele>331.9</ele>
        <time>2023-05-28T08:04:25Z</time>
      </trkpt>
      <trkpt lat="43.33009" lon="2.41791">
        <ele>332.7</ele>
        <time>2023-05-28T08:04:26Z</time>
      </trkpt>
      <trkpt lat="43.33006" lon="2.41795">
        <ele>332.7</ele>
        <time>2023-05-28T08:04:27Z</time>
      </trkpt>
      <trkpt lat="43.33006" lon="2.41796">
        <ele>332.8</ele>
        <time>2023-05-28T08:04:28Z</time>
      </trkpt>
      <trkpt lat="43.33003" lon="2.418">
        <ele>332.7</ele>
        <time>2023-05-28T08:04:29Z</time>
      </trkpt>
      <trkpt lat="43.33003" lon="2.41802">
        <ele>332.8</ele>
        <time>2023-05-28T08:04:30Z</time>
      </trkpt>
      <trkpt lat="43.33" lon="2.41804">
        <ele>332.7</ele>
        <time>2023-05-28T08:04:31Z</time>
      </trkpt>
      <trkpt lat="43.32999" lon="2.41805">
        <ele>332.8</ele>
        <time>2023-05-28T08:04:32Z</time>
      </trkpt>
      <trkpt lat="43.32996" lon="2.41806">
        <ele>332.1</ele>
        <time>2023-05-28T08:04:33Z</time>
      </trkpt>
      <trkpt lat="43.32994" lon="2.41807">
        <ele>332.1</ele>
        <time>2023-05-28T08:04:34Z</time>
      </trkpt>
      <trkpt lat="43.3299" lon="2.41808">
        <ele>331.4</ele>
        <time>2023-05-28T08:04:35Z</time>
      </trkpt>
      <trkpt lat="43.32989" lon="2.41808">
        <ele>331.5</ele>
        <time>2023-05-28T08:04:36Z</time>
      </trkpt>
      <trkpt lat="43.32986" lon="2.41808">
        <ele>330.1</ele>
        <time>2023-05-28T08:04:37Z</time>
      </trkpt>
      <trkpt lat="43.32985" lon="2.41808">
        <ele>330.2</ele>
        <time>2023-05-28T08:04:38Z</time>
      </trkpt>
      <trkpt lat="43.32981" lon="2.41808">
        <ele>329.5</ele>
        <time>2023-05-28T08:04:39Z</time>
      </trkpt>
      <trkpt lat="43.3298" lon="2.41808">
        <ele>329.6</ele>
        <time>2023-05-28T08:04:40Z</time>
      </trkpt>
      <trkpt lat="43.32977" lon="2.41808">
        <ele>329</ele>
        <time>2023-05-28T08:04:41Z</time>
      </trkpt>
      <trkpt lat="43.32976" lon="2.41808">
        <ele>328.3</ele>
        <time>2023-05-28T08:04:42Z</time>
      </trkpt>
      <trkpt lat="43.32974" lon="2.41805">
        <ele>327.7</ele>
        <time>2023-05-28T08:04:43Z</time>
      </trkpt>
      <trkpt lat="43.32973" lon="2.41803">
        <ele>327</ele>
        <time>2023-05-28T08:04:44Z</time>
      </trkpt>
      <trkpt lat="43.32973" lon="2.41798">
        <ele>325.6</ele>
        <time>2023-05-28T08:04:45Z</time>
      </trkpt>
      <trkpt lat="43.32974" lon="2.41796">
        <ele>326.4</ele>
        <time>2023-05-28T08:04:46Z</time>
      </trkpt>
      <trkpt lat="43.32975" lon="2.41794">
        <ele>326.5</ele>
        <time>2023-05-28T08:04:47Z</time>
      </trkpt>
      <trkpt lat="43.32976" lon="2.41792">
        <ele>325.8</ele>
        <time>2023-05-28T08:04:48Z</time>
      </trkpt>
      <trkpt lat="43.32977" lon="2.41791">
        <ele>326.6</ele>
        <time>2023-05-28T08:04:49Z</time>
      </trkpt>
      <trkpt lat="43.32978" lon="2.41789">
        <ele>325.9</ele>
        <time>2023-05-28T08:04:50Z</time>
      </trkpt>
      <trkpt lat="43.32981" lon="2.41786">
        <ele>326.7</ele>
        <time>2023-05-28T08:04:51Z</time>
      </trkpt>
      <trkpt lat="43.32982" lon="2.41785">
        <ele>326.8</ele>
        <time>2023-05-28T08:04:52Z</time>
      </trkpt>
      <trkpt lat="43.32985" lon="2.41781">
        <ele>326.9</ele>
        <time>2023-05-28T08:04:53Z</time>
      </trkpt>
      <trkpt lat="43.32986" lon="2.41779">
        <ele>326.2</ele>
        <time>2023-05-28T08:04:54Z</time>
      </trkpt>
      <trkpt lat="43.32987" lon="2.41776">
        <ele>326.4</ele>
        <time>2023-05-28T08:04:55Z</time>
      </trkpt>
      <trkpt lat="43.32989" lon="2.41772">
        <ele>326.4</ele>
        <time>2023-05-28T08:04:56Z</time>
      </trkpt>
      <trkpt lat="43.32989" lon="2.41768">
        <ele>325.8</ele>
        <time>2023-05-28T08:04:57Z</time>
      </trkpt>
      <trkpt lat="43.32989" lon="2.41767">
        <ele>325.2</ele>
        <time>2023-05-28T08:04:58Z</time>
      </trkpt>
      <trkpt lat="43.32988" lon="2.41765">
        <ele>325.3</ele>
        <time>2023-05-28T08:04:59Z</time>
      </trkpt>
      <trkpt lat="43.32986" lon="2.41765">
        <ele>325.4</ele>
        <time>2023-05-28T08:05:00Z</time>
      </trkpt>
      <trkpt lat="43.32983" lon="2.41765">
        <ele>324.8</ele>
        <time>2023-05-28T08:05:01Z</time>
      </trkpt>
      <trkpt lat="43.32982" lon="2.41766">
        <ele>324.1</ele>
        <time>2023-05-28T08:05:02Z</time>
      </trkpt>
      <trkpt lat="43.3298" lon="2.41767">
        <ele>323.5</ele>
        <time>2023-05-28T08:05:03Z</time>
      </trkpt>
      <trkpt lat="43.32979" lon="2.41768">
        <ele>323.6</ele>
        <time>2023-05-28T08:05:04Z</time>
      </trkpt>
      <trkpt lat="43.32976" lon="2.4177">
        <ele>323.6</ele>
        <time>2023-05-28T08:05:05Z</time>
      </trkpt>
      <trkpt lat="43.32975" lon="2.4177">
        <ele>323.7</ele>
        <time>2023-05-28T08:05:06Z</time>
      </trkpt>
      <trkpt lat="43.32972" lon="2.41772">
        <ele>323.7</ele>
        <time>2023-05-28T08:05:07Z</time>
      </trkpt>
      <trkpt lat="43.32971" lon="2.41773">
        <ele>323.8</ele>
        <time>2023-05-28T08:05:08Z</time>
      </trkpt>
      <trkpt lat="43.32968" lon="2.41775">
        <ele>323.2</ele>
        <time>2023-05-28T08:05:09Z</time>
      </trkpt>
      <trkpt lat="43.32966" lon="2.41775">
        <ele>322.5</ele>
        <time>2023-05-28T08:05:10Z</time>
      </trkpt>
      <trkpt lat="43.32964" lon="2.41777">
        <ele>322.6</ele>
        <time>2023-05-28T08:05:11Z</time>
      </trkpt>
      <trkpt lat="43.32961" lon="2.41778">
        <ele>322.1</ele>
        <time>2023-05-28T08:05:12Z</time>
      </trkpt>
      <trkpt lat="43.32958" lon="2.41779">
        <ele>322.1</ele>
        <time>2023-05-28T08:05:13Z</time>
      </trkpt>
      <trkpt lat="43.32955" lon="2.4178">
        <ele>321.6</ele>
        <time>2023-05-28T08:05:14Z</time>
      </trkpt>
      <trkpt lat="43.32952" lon="2.41781">
        <ele>321.8</ele>
        <time>2023-05-28T08:05:15Z</time>
      </trkpt>
      <trkpt lat="43.32949" lon="2.41782">
        <ele>321.2</ele>
        <time>2023-05-28T08:05:16Z</time>
      </trkpt>
      <trkpt lat="43.32946" lon="2.41784">
        <ele>320.6</ele>
        <time>2023-05-28T08:05:17Z</time>
      </trkpt>
      <trkpt lat="43.32944" lon="2.41784">
        <ele>320</ele>
        <time>2023-05-28T08:05:18Z</time>
      </trkpt>
      <trkpt lat="43.32942" lon="2.41785">
        <ele>319.3</ele>
        <time>2023-05-28T08:05:19Z</time>
      </trkpt>
      <trkpt lat="43.32939" lon="2.41786">
        <ele>319.3</ele>
        <time>2023-05-28T08:05:20Z</time>
      </trkpt>
      <trkpt lat="43.32936" lon="2.41788">
        <ele>318.7</ele>
        <time>2023-05-28T08:05:21Z</time>
      </trkpt>
      <trkpt lat="43.32935" lon="2.41789">
        <ele>319.3</ele>
        <time>2023-05-28T08:05:22Z</time>
      </trkpt>
      <trkpt lat="43.32933" lon="2.41792">
        <ele>318.8</ele>
        <time>2023-05-28T08:05:23Z</time>
      </trkpt>
      <trkpt lat="43.32931" lon="2.41795">
        <ele>319.4</ele>
        <time>2023-05-28T08:05:24Z</time>
      </trkpt>
      <trkpt lat="43.32928" lon="2.41798">
        <ele>319.4</ele>
        <time>2023-05-28T08:05:25Z</time>
      </trkpt>
      <trkpt lat="43.32927" lon="2.41799">
        <ele>319.5</ele>
        <time>2023-05-28T08:05:26Z</time>
      </trkpt>
      <trkpt lat="43.32926" lon="2.41801">
        <ele>318.9</ele>
        <time>2023-05-28T08:05:27Z</time>
      </trkpt>
      <trkpt lat="43.32925" lon="2.41803">
        <ele>319.5</ele>
        <time>2023-05-28T08:05:28Z</time>
      </trkpt>
      <trkpt lat="43.32923" lon="2.41806">
        <ele>318.9</ele>
        <time>2023-05-28T08:05:29Z</time>
      </trkpt>
      <trkpt lat="43.32922" lon="2.41807">
        <ele>319.5</ele>
        <time>2023-05-28T08:05:30Z</time>
      </trkpt>
      <trkpt lat="43.32919" lon="2.4181">
        <ele>318.9</ele>
        <time>2023-05-28T08:05:31Z</time>
      </trkpt>
      <trkpt lat="43.32919" lon="2.41811">
        <ele>319.4</ele>
        <time>2023-05-28T08:05:32Z</time>
      </trkpt>
      <trkpt lat="43.32917" lon="2.41814">
        <ele>318.8</ele>
        <time>2023-05-28T08:05:33Z</time>
      </trkpt>
      <trkpt lat="43.32916" lon="2.41815">
        <ele>319.3</ele>
        <time>2023-05-28T08:05:34Z</time>
      </trkpt>
      <trkpt lat="43.32915" lon="2.41817">
        <ele>319.3</ele>
        <time>2023-05-28T08:05:35Z</time>
      </trkpt>
      <trkpt lat="43.32915" lon="2.41818">
        <ele>319.4</ele>
        <time>2023-05-28T08:05:36Z</time>
      </trkpt>
      <trkpt lat="43.32915" lon="2.41819">
        <ele>319.5</ele>
        <time>2023-05-28T08:05:37Z</time>
      </trkpt>
      <trkpt lat="43.32914" lon="2.41819">
        <ele>318.9</ele>
        <time>2023-05-28T08:05:38Z</time>
      </trkpt>
      <trkpt lat="43.32914" lon="2.41819">
        <ele>319</ele>
        <time>2023-05-28T08:05:39Z</time>
      </trkpt>
      <trkpt lat="43.32914" lon="2.41819">
        <ele>319.1</ele>
        <time>2023-05-28T08:05:40Z</time>
      </trkpt>
      <trkpt lat="43.32913" lon="2.41819">
        <ele>319.2</ele>
        <time>2023-05-28T08:05:41Z</time>
      </trkpt>
      <trkpt lat="43.32913" lon="2.41818">
        <ele>319.3</ele>
        <time>2023-05-28T08:05:42Z</time>
      </trkpt>
      <trkpt lat="43.32913" lon="2.41818">
        <ele>319.3</ele>
        <time>2023-05-28T08:05:43Z</time>
      </trkpt>
      <trkpt lat="43.32913" lon="2.41817">
        <ele>319.4</ele>
        <time>2023-05-28T08:05:44Z</time>
      </trkpt>
      <trkpt lat="43.32913" lon="2.41817">
        <ele>319.5</ele>
        <time>2023-05-28T08:05:45Z</time>
      </trkpt>
      <trkpt lat="43.32913" lon="2.41817">
        <ele>319.6</ele>
        <time>2023-05-28T08:05:46Z</time>
      </trkpt>
      <trkpt lat="43.32913" lon="2.41817">
        <ele>319.7</ele>
        <time>2023-05-28T08:05:47Z</time>
      </trkpt>
      <trkpt lat="43.32913" lon="2.41816">
        <ele>319.7</ele>
        <time>2023-05-28T08:05:48Z</time>
      </trkpt>
      <trkpt lat="43.32913" lon="2.41816">
        <ele>319.8</ele>
        <time>2023-05-28T08:05:49Z</time>
      </trkpt>
      <trkpt lat="43.32913" lon="2.41816">
        <ele>319.9</ele>
        <time>2023-05-28T08:05:50Z</time>
      </trkpt>
      <trkpt lat="43.32913" lon="2.41816">
        <ele>320</ele>
        <time>2023-05-28T08:05:51Z</time>
      </trkpt>
      <trkpt lat="43.32913" lon="2.41815">
        <ele>320.1</ele>
        <time>2023-05-28T08:05:52Z</time>
      </trkpt>
      <trkpt lat="43.32913" lon="2.41815">
        <ele>320.2</ele>
        <time>2023-05-28T08:05:53Z</time>
      </trkpt>
      <trkpt lat="43.32912" lon="2.41816">
        <ele>320.2</ele>
        <time>2023-05-28T08:05:54Z</time>
      </trkpt>
      <trkpt lat="43.32912" lon="2.41816">
        <ele>320.3</ele>
        <time>2023-05-28T08:05:55Z</time>
      </trkpt>
      <trkpt lat="43.32912" lon="2.41816">
        <ele>320.4</ele>
        <time>2023-05-28T08:05:56Z</time>
      </trkpt>
      <trkpt lat="43.32911" lon="2.41815">
        <ele>320.1</ele>
        <time>2023-05-28T08:05:57Z</time>
      </trkpt>
      <trkpt lat="43.32911" lon="2.41815">
        <ele>319.6</ele>
        <time>2023-05-28T08:05:58Z</time>
      </trkpt>
      <trkpt lat="43.3291" lon="2.41814">
        <ele>319.7</ele>
        <time>2023-05-28T08:05:59Z</time>
      </trkpt>
      <trkpt lat="43.32909" lon="2.41813">
        <ele>319.8</ele>
        <time>2023-05-28T08:06:00Z</time>
      </trkpt>
      <trkpt lat="43.32908" lon="2.41812">
        <ele>319.3</ele>
        <time>2023-05-28T08:06:01Z</time>
      </trkpt>
      <trkpt lat="43.32906" lon="2.41812">
        <ele>319.4</ele>
        <time>2023-05-28T08:06:02Z</time>
      </trkpt>
      <trkpt lat="43.32904" lon="2.41811">
        <ele>319</ele>
        <time>2023-05-28T08:06:03Z</time>
      </trkpt>
      <trkpt lat="43.32901" lon="2.41812">
        <ele>318.7</ele>
        <time>2023-05-28T08:06:04Z</time>
      </trkpt>
      <trkpt lat="43.32899" lon="2.41813">
        <ele>318.7</ele>
        <time>2023-05-28T08:06:05Z</time>
      </trkpt>
      <trkpt lat="43.32896" lon="2.41816">
        <ele>318.7</ele>
        <time>2023-05-28T08:06:06Z</time>
      </trkpt>
      <trkpt lat="43.32895" lon="2.41817">
        <ele>318.3</ele>
        <time>2023-05-28T08:06:07Z</time>
      </trkpt>
      <trkpt lat="43.32892" lon="2.41821">
        <ele>318.6</ele>
        <time>2023-05-28T08:06:08Z</time>
      </trkpt>
      <trkpt lat="43.32892" lon="2.41822">
        <ele>318.2</ele>
        <time>2023-05-28T08:06:09Z</time>
      </trkpt>
      <trkpt lat="43.32889" lon="2.41824">
        <ele>318.1</ele>
        <time>2023-05-28T08:06:10Z</time>
      </trkpt>
      <trkpt lat="43.32888" lon="2.41825">
        <ele>318.2</ele>
        <time>2023-05-28T08:06:11Z</time>
      </trkpt>
      <trkpt lat="43.32885" lon="2.41826">
        <ele>317.8</ele>
        <time>2023-05-28T08:06:12Z</time>
      </trkpt>
      <trkpt lat="43.32884" lon="2.41827">
        <ele>317.9</ele>
        <time>2023-05-28T08:06:13Z</time>
      </trkpt>
      <trkpt lat="43.32882" lon="2.41829">
        <ele>317.8</ele>
        <time>2023-05-28T08:06:14Z</time>
      </trkpt>
      <trkpt lat="43.32881" lon="2.4183">
        <ele>317.9</ele>
        <time>2023-05-28T08:06:15Z</time>
      </trkpt>
      <trkpt lat="43.32878" lon="2.41834">
        <ele>317.8</ele>
        <time>2023-05-28T08:06:16Z</time>
      </trkpt>
      <trkpt lat="43.32877" lon="2.41835">
        <ele>317.9</ele>
        <time>2023-05-28T08:06:17Z</time>
      </trkpt>
      <trkpt lat="43.32874" lon="2.41837">
        <ele>317.7</ele>
        <time>2023-05-28T08:06:18Z</time>
      </trkpt>
      <trkpt lat="43.32871" lon="2.41838">
        <ele>317.5</ele>
        <time>2023-05-28T08:06:19Z</time>
      </trkpt>
      <trkpt lat="43.32867" lon="2.4184">
        <ele>317.3</ele>
        <time>2023-05-28T08:06:20Z</time>
      </trkpt>
      <trkpt lat="43.32863" lon="2.41842">
        <ele>317</ele>
        <time>2023-05-28T08:06:21Z</time>
      </trkpt>
      <trkpt lat="43.3286" lon="2.41843">
        <ele>316.9</ele>
        <time>2023-05-28T08:06:22Z</time>
      </trkpt>
      <trkpt lat="43.32856" lon="2.41845">
        <ele>316.7</ele>
        <time>2023-05-28T08:06:23Z</time>
      </trkpt>
      <trkpt lat="43.32853" lon="2.41847">
        <ele>316.5</ele>
        <time>2023-05-28T08:06:24Z</time>
      </trkpt>
      <trkpt lat="43.3285" lon="2.41848">
        <ele>316.3</ele>
        <time>2023-05-28T08:06:25Z</time>
      </trkpt>
      <trkpt lat="43.32847" lon="2.4185">
        <ele>316.1</ele>
        <time>2023-05-28T08:06:26Z</time>
      </trkpt>
      <trkpt lat="43.32844" lon="2.41853">
        <ele>315.9</ele>
        <time>2023-05-28T08:06:27Z</time>
      </trkpt>
      <trkpt lat="43.32841" lon="2.41855">
        <ele>315.7</ele>
        <time>2023-05-28T08:06:28Z</time>
      </trkpt>
      <trkpt lat="43.3284" lon="2.41856">
        <ele>315.6</ele>
        <time>2023-05-28T08:06:29Z</time>
      </trkpt>
      <trkpt lat="43.32836" lon="2.41858">
        <ele>315.4</ele>
        <time>2023-05-28T08:06:30Z</time>
      </trkpt>
      <trkpt lat="43.32833" lon="2.41858">
        <ele>315.2</ele>
        <time>2023-05-28T08:06:31Z</time>
      </trkpt>
      <trkpt lat="43.3283" lon="2.41859">
        <ele>315</ele>
        <time>2023-05-28T08:06:32Z</time>
      </trkpt>
      <trkpt lat="43.32827" lon="2.41859">
        <ele>314.8</ele>
        <time>2023-05-28T08:06:33Z</time>
      </trkpt>
      <trkpt lat="43.32825" lon="2.41858">
        <ele>314.6</ele>
        <time>2023-05-28T08:06:34Z</time>
      </trkpt>
      <trkpt lat="43.32821" lon="2.41857">
        <ele>314.2</ele>
        <time>2023-05-28T08:06:35Z</time>
      </trkpt>
      <trkpt lat="43.3282" lon="2.41856">
        <ele>314.1</ele>
        <time>2023-05-28T08:06:36Z</time>
      </trkpt>
      <trkpt lat="43.32818" lon="2.41852">
        <ele>313.8</ele>
        <time>2023-05-28T08:06:37Z</time>
      </trkpt>
      <trkpt lat="43.32817" lon="2.41851">
        <ele>313.7</ele>
        <time>2023-05-28T08:06:38Z</time>
      </trkpt>
      <trkpt lat="43.32816" lon="2.41846">
        <ele>313.4</ele>
        <time>2023-05-28T08:06:39Z</time>
      </trkpt>
      <trkpt lat="43.32816" lon="2.41844">
        <ele>313.3</ele>
        <time>2023-05-28T08:06:40Z</time>
      </trkpt>
      <trkpt lat="43.32813" lon="2.41843">
        <ele>313</ele>
        <time>2023-05-28T08:06:41Z</time>
      </trkpt>
      <trkpt lat="43.32812" lon="2.41843">
        <ele>313</ele>
        <time>2023-05-28T08:06:42Z</time>
      </trkpt>
      <trkpt lat="43.32809" lon="2.41845">
        <ele>312.7</ele>
        <time>2023-05-28T08:06:43Z</time>
      </trkpt>
      <trkpt lat="43.32808" lon="2.41846">
        <ele>312.6</ele>
        <time>2023-05-28T08:06:44Z</time>
      </trkpt>
      <trkpt lat="43.32805" lon="2.41848">
        <ele>312.3</ele>
        <time>2023-05-28T08:06:45Z</time>
      </trkpt>
      <trkpt lat="43.32804" lon="2.41849">
        <ele>312.3</ele>
        <time>2023-05-28T08:06:46Z</time>
      </trkpt>
      <trkpt lat="43.32801" lon="2.41849">
        <ele>312.2</ele>
        <time>2023-05-28T08:06:47Z</time>
      </trkpt>
      <trkpt lat="43.32799" lon="2.41849">
        <ele>312.2</ele>
        <time>2023-05-28T08:06:48Z</time>
      </trkpt>
      <trkpt lat="43.32796" lon="2.41849">
        <ele>312.2</ele>
        <time>2023-05-28T08:06:49Z</time>
      </trkpt>
      <trkpt lat="43.32795" lon="2.41849">
        <ele>312.2</ele>
        <time>2023-05-28T08:06:50Z</time>
      </trkpt>
      <trkpt lat="43.32792" lon="2.4185">
        <ele>312.1</ele>
        <time>2023-05-28T08:06:51Z</time>
      </trkpt>
      <trkpt lat="43.3279" lon="2.4185">
        <ele>312.1</ele>
        <time>2023-05-28T08:06:52Z</time>
      </trkpt>
      <trkpt lat="43.32787" lon="2.4185">
        <ele>312.1</ele>
        <time>2023-05-28T08:06:53Z</time>
      </trkpt>
      <trkpt lat="43.32785" lon="2.41851">
        <ele>312.1</ele>
        <time>2023-05-28T08:06:54Z</time>
      </trkpt>
      <trkpt lat="43.32783" lon="2.41852">
        <ele>312.1</ele>
        <time>2023-05-28T08:06:55Z</time>
      </trkpt>
      <trkpt lat="43.32782" lon="2.41852">
        <ele>312.1</ele>
        <time>2023-05-28T08:06:56Z</time>
      </trkpt>
      <trkpt lat="43.32781" lon="2.41852">
        <ele>312</ele>
        <time>2023-05-28T08:06:57Z</time>
      </trkpt>
      <trkpt lat="43.3278" lon="2.41853">
        <ele>312</ele>
        <time>2023-05-28T08:06:58Z</time>
      </trkpt>
      <trkpt lat="43.32779" lon="2.41852">
        <ele>312</ele>
        <time>2023-05-28T08:06:59Z</time>
      </trkpt>
      <trkpt lat="43.32776" lon="2.41851">
        <ele>311.9</ele>
        <time>2023-05-28T08:07:00Z</time>
      </trkpt>
      <trkpt lat="43.32775" lon="2.4185">
        <ele>311.9</ele>
        <time>2023-05-28T08:07:01Z</time>
      </trkpt>
      <trkpt lat="43.32772" lon="2.41847">
        <ele>311.7</ele>
        <time>2023-05-28T08:07:02Z</time>
      </trkpt>
      <trkpt lat="43.32771" lon="2.41846">
        <ele>311.7</ele>
        <time>2023-05-28T08:07:03Z</time>
      </trkpt>
      <trkpt lat="43.32769" lon="2.41843">
        <ele>311.5</ele>
        <time>2023-05-28T08:07:04Z</time>
      </trkpt>
      <trkpt lat="43.32768" lon="2.41842">
        <ele>311.5</ele>
        <time>2023-05-28T08:07:05Z</time>
      </trkpt>
      <trkpt lat="43.32766" lon="2.41839">
        <ele>311.3</ele>
        <time>2023-05-28T08:07:06Z</time>
      </trkpt>
      <trkpt lat="43.32765" lon="2.41838">
        <ele>311.2</ele>
        <time>2023-05-28T08:07:07Z</time>
      </trkpt>
      <trkpt lat="43.32762" lon="2.41836">
        <ele>311</ele>
        <time>2023-05-28T08:07:08Z</time>
      </trkpt>
      <trkpt lat="43.32762" lon="2.41835">
        <ele>310.9</ele>
        <time>2023-05-28T08:07:09Z</time>
      </trkpt>
      <trkpt lat="43.3276" lon="2.41832">
        <ele>310.7</ele>
        <time>2023-05-28T08:07:10Z</time>
      </trkpt>
      <trkpt lat="43.32759" lon="2.41831">
        <ele>310.6</ele>
        <time>2023-05-28T08:07:11Z</time>
      </trkpt>
      <trkpt lat="43.32758" lon="2.41827">
        <ele>310.3</ele>
        <time>2023-05-28T08:07:12Z</time>
      </trkpt>
      <trkpt lat="43.32756" lon="2.41823">
        <ele>309.9</ele>
        <time>2023-05-28T08:07:13Z</time>
      </trkpt>
      <trkpt lat="43.32755" lon="2.41819">
        <ele>309.6</ele>
        <time>2023-05-28T08:07:14Z</time>
      </trkpt>
      <trkpt lat="43.32755" lon="2.41815">
        <ele>309.2</ele>
        <time>2023-05-28T08:07:15Z</time>
      </trkpt>
      <trkpt lat="43.32755" lon="2.41811">
        <ele>308.8</ele>
        <time>2023-05-28T08:07:16Z</time>
      </trkpt>
      <trkpt lat="43.32755" lon="2.41807">
        <ele>308.4</ele>
        <time>2023-05-28T08:07:17Z</time>
      </trkpt>
      <trkpt lat="43.32755" lon="2.41803">
        <ele>308</ele>
        <time>2023-05-28T08:07:18Z</time>
      </trkpt>
      <trkpt lat="43.32756" lon="2.41799">
        <ele>307.6</ele>
        <time>2023-05-28T08:07:19Z</time>
      </trkpt>
      <trkpt lat="43.32757" lon="2.41795">
        <ele>307.2</ele>
        <time>2023-05-28T08:07:20Z</time>
      </trkpt>
      <trkpt lat="43.32758" lon="2.41792">
        <ele>306.8</ele>
        <time>2023-05-28T08:07:21Z</time>
      </trkpt>
      <trkpt lat="43.32758" lon="2.41788">
        <ele>306.3</ele>
        <time>2023-05-28T08:07:22Z</time>
      </trkpt>
      <trkpt lat="43.32759" lon="2.41784">
        <ele>305.8</ele>
        <time>2023-05-28T08:07:23Z</time>
      </trkpt>
      <trkpt lat="43.32759" lon="2.41778">
        <ele>305.2</ele>
        <time>2023-05-28T08:07:24Z</time>
      </trkpt>
      <trkpt lat="43.32759" lon="2.41776">
        <ele>305</ele>
        <time>2023-05-28T08:07:25Z</time>
      </trkpt>
      <trkpt lat="43.32757" lon="2.41772">
        <ele>304.4</ele>
        <time>2023-05-28T08:07:26Z</time>
      </trkpt>
      <trkpt lat="43.32757" lon="2.4177">
        <ele>304.2</ele>
        <time>2023-05-28T08:07:27Z</time>
      </trkpt>
      <trkpt lat="43.32755" lon="2.41766">
        <ele>303.7</ele>
        <time>2023-05-28T08:07:28Z</time>
      </trkpt>
      <trkpt lat="43.32754" lon="2.41765">
        <ele>303.5</ele>
        <time>2023-05-28T08:07:29Z</time>
      </trkpt>
      <trkpt lat="43.32752" lon="2.41761">
        <ele>302.9</ele>
        <time>2023-05-28T08:07:30Z</time>
      </trkpt>
      <trkpt lat="43.32751" lon="2.4176">
        <ele>302.8</ele>
        <time>2023-05-28T08:07:31Z</time>
      </trkpt>
      <trkpt lat="43.3275" lon="2.41755">
        <ele>302.2</ele>
        <time>2023-05-28T08:07:32Z</time>
      </trkpt>
      <trkpt lat="43.3275" lon="2.41754">
        <ele>302</ele>
        <time>2023-05-28T08:07:33Z</time>
      </trkpt>
      <trkpt lat="43.32751" lon="2.41749">
        <ele>301.5</ele>
        <time>2023-05-28T08:07:34Z</time>
      </trkpt>
      <trkpt lat="43.32752" lon="2.41747">
        <ele>301.3</ele>
        <time>2023-05-28T08:07:35Z</time>
      </trkpt>
      <trkpt lat="43.32755" lon="2.41745">
        <ele>300.8</ele>
        <time>2023-05-28T08:07:36Z</time>
      </trkpt>
      <trkpt lat="43.32756" lon="2.41744">
        <ele>300.6</ele>
        <time>2023-05-28T08:07:37Z</time>
      </trkpt>
      <trkpt lat="43.32759" lon="2.41744">
        <ele>300.2</ele>
        <time>2023-05-28T08:07:38Z</time>
      </trkpt>
      <trkpt lat="43.32763" lon="2.41745">
        <ele>299.7</ele>
        <time>2023-05-28T08:07:39Z</time>
      </trkpt>
      <trkpt lat="43.32764" lon="2.41745">
        <ele>299.6</ele>
        <time>2023-05-28T08:07:40Z</time>
      </trkpt>
      <trkpt lat="43.32767" lon="2.41745">
        <ele>299.2</ele>
        <time>2023-05-28T08:07:41Z</time>
      </trkpt>
      <trkpt lat="43.3277" lon="2.41745">
        <ele>298.8</ele>
        <time>2023-05-28T08:07:42Z</time>
      </trkpt>
      <trkpt lat="43.32771" lon="2.41745">
        <ele>298.7</ele>
        <time>2023-05-28T08:07:43Z</time>
      </trkpt>
      <trkpt lat="43.32773" lon="2.41745">
        <ele>298.5</ele>
        <time>2023-05-28T08:07:44Z</time>
      </trkpt>
      <trkpt lat="43.32774" lon="2.41744">
        <ele>298.3</ele>
        <time>2023-05-28T08:07:45Z</time>
      </trkpt>
      <trkpt lat="43.32776" lon="2.41744">
        <ele>298.1</ele>
        <time>2023-05-28T08:07:46Z</time>
      </trkpt>
      <trkpt lat="43.32777" lon="2.41743">
        <ele>297.9</ele>
        <time>2023-05-28T08:07:47Z</time>
      </trkpt>
      <trkpt lat="43.3278" lon="2.41741">
        <ele>297.5</ele>
        <time>2023-05-28T08:07:48Z</time>
      </trkpt>
      <trkpt lat="43.32781" lon="2.4174">
        <ele>297.3</ele>
        <time>2023-05-28T08:07:49Z</time>
      </trkpt>
      <trkpt lat="43.32782" lon="2.41738">
        <ele>297.1</ele>
        <time>2023-05-28T08:07:50Z</time>
      </trkpt>
      <trkpt lat="43.32785" lon="2.41735">
        <ele>296.6</ele>
        <time>2023-05-28T08:07:51Z</time>
      </trkpt>
      <trkpt lat="43.32786" lon="2.41733">
        <ele>296.4</ele>
        <time>2023-05-28T08:07:52Z</time>
      </trkpt>
      <trkpt lat="43.32789" lon="2.41732">
        <ele>296</ele>
        <time>2023-05-28T08:07:53Z</time>
      </trkpt>
      <trkpt lat="43.32791" lon="2.41731">
        <ele>295.5</ele>
        <time>2023-05-28T08:07:54Z</time>
      </trkpt>
      <trkpt lat="43.32795" lon="2.4173">
        <ele>294.9</ele>
        <time>2023-05-28T08:07:55Z</time>
      </trkpt>
      <trkpt lat="43.32796" lon="2.41729">
        <ele>294.7</ele>
        <time>2023-05-28T08:07:56Z</time>
      </trkpt>
      <trkpt lat="43.32797" lon="2.41726">
        <ele>294.3</ele>
        <time>2023-05-28T08:07:57Z</time>
      </trkpt>
      <trkpt lat="43.32793" lon="2.41721">
        <ele>293.3</ele>
        <time>2023-05-28T08:08:00Z</time>
      </trkpt>
      <trkpt lat="43.32791" lon="2.41719">
        <ele>292.8</ele>
        <time>2023-05-28T08:08:01Z</time>
      </trkpt>
      <trkpt lat="43.32787" lon="2.41718">
        <ele>292.2</ele>
        <time>2023-05-28T08:08:02Z</time>
      </trkpt>
      <trkpt lat="43.32786" lon="2.41718">
        <ele>292</ele>
        <time>2023-05-28T08:08:03Z</time>
      </trkpt>
      <trkpt lat="43.32783" lon="2.41717">
        <ele>291.2</ele>
        <time>2023-05-28T08:08:04Z</time>
      </trkpt>
      <trkpt lat="43.32781" lon="2.41717">
        <ele>291</ele>
        <time>2023-05-28T08:08:05Z</time>
      </trkpt>
      <trkpt lat="43.32778" lon="2.41716">
        <ele>290.4</ele>
        <time>2023-05-28T08:08:06Z</time>
      </trkpt>
      <trkpt lat="43.32777" lon="2.41715">
        <ele>290.2</ele>
        <time>2023-05-28T08:08:07Z</time>
      </trkpt>
      <trkpt lat="43.32776" lon="2.41713">
        <ele>289.9</ele>
        <time>2023-05-28T08:08:08Z</time>
      </trkpt>
      <trkpt lat="43.32776" lon="2.41711">
        <ele>289.5</ele>
        <time>2023-05-28T08:08:09Z</time>
      </trkpt>
      <trkpt lat="43.32779" lon="2.41708">
        <ele>288.9</ele>
        <time>2023-05-28T08:08:10Z</time>
      </trkpt>
      <trkpt lat="43.3278" lon="2.41708">
        <ele>288.6</ele>
        <time>2023-05-28T08:08:11Z</time>
      </trkpt>
      <trkpt lat="43.32783" lon="2.41707">
        <ele>288.1</ele>
        <time>2023-05-28T08:08:12Z</time>
      </trkpt>
      <trkpt lat="43.32786" lon="2.41708">
        <ele>287.5</ele>
        <time>2023-05-28T08:08:13Z</time>
      </trkpt>
      <trkpt lat="43.32789" lon="2.41708">
        <ele>287</ele>
        <time>2023-05-28T08:08:14Z</time>
      </trkpt>
      <trkpt lat="43.32792" lon="2.41708">
        <ele>286.4</ele>
        <time>2023-05-28T08:08:15Z</time>
      </trkpt>
      <trkpt lat="43.32794" lon="2.41708">
        <ele>286.2</ele>
        <time>2023-05-28T08:08:16Z</time>
      </trkpt>
      <trkpt lat="43.32796" lon="2.41708">
        <ele>285.8</ele>
        <time>2023-05-28T08:08:17Z</time>
      </trkpt>
      <trkpt lat="43.32801" lon="2.41707">
        <ele>285</ele>
        <time>2023-05-28T08:08:19Z</time>
      </trkpt>
      <trkpt lat="43.32804" lon="2.41707">
        <ele>284.7</ele>
        <time>2023-05-28T08:08:20Z</time>
      </trkpt>
      <trkpt lat="43.32808" lon="2.41707">
        <ele>284.1</ele>
        <time>2023-05-28T08:08:21Z</time>
      </trkpt>
      <trkpt lat="43.32809" lon="2.41708">
        <ele>283.9</ele>
        <time>2023-05-28T08:08:22Z</time>
      </trkpt>
      <trkpt lat="43.32812" lon="2.41709">
        <ele>284.7</ele>
        <time>2023-05-28T08:08:23Z</time>
      </trkpt>
      <trkpt lat="43.32815" lon="2.4171">
        <ele>286.3</ele>
        <time>2023-05-28T08:08:24Z</time>
      </trkpt>
      <trkpt lat="43.32819" lon="2.41711">
        <ele>287.9</ele>
        <time>2023-05-28T08:08:25Z</time>
      </trkpt>
      <trkpt lat="43.3282" lon="2.41711">
        <ele>288.3</ele>
        <time>2023-05-28T08:08:26Z</time>
      </trkpt>
      <trkpt lat="43.32821" lon="2.41711">
        <ele>288.9</ele>
        <time>2023-05-28T08:08:27Z</time>
      </trkpt>
      <trkpt lat="43.32823" lon="2.41711">
        <ele>289.6</ele>
        <time>2023-05-28T08:08:28Z</time>
      </trkpt>
      <trkpt lat="43.32824" lon="2.41711">
        <ele>290.3</ele>
        <time>2023-05-28T08:08:29Z</time>
      </trkpt>
      <trkpt lat="43.32826" lon="2.4171">
        <ele>291.2</ele>
        <time>2023-05-28T08:08:30Z</time>
      </trkpt>
      <trkpt lat="43.32829" lon="2.41709">
        <ele>292.8</ele>
        <time>2023-05-28T08:08:31Z</time>
      </trkpt>
      <trkpt lat="43.3283" lon="2.41709">
        <ele>293.4</ele>
        <time>2023-05-28T08:08:32Z</time>
      </trkpt>
      <trkpt lat="43.32833" lon="2.41709">
        <ele>294.7</ele>
        <time>2023-05-28T08:08:33Z</time>
      </trkpt>
      <trkpt lat="43.32836" lon="2.41709">
        <ele>296.2</ele>
        <time>2023-05-28T08:08:34Z</time>
      </trkpt>
      <trkpt lat="43.32837" lon="2.4171">
        <ele>296.7</ele>
        <time>2023-05-28T08:08:35Z</time>
      </trkpt>
      <trkpt lat="43.32841" lon="2.41709">
        <ele>298.4</ele>
        <time>2023-05-28T08:08:36Z</time>
      </trkpt>
      <trkpt lat="43.32842" lon="2.41709">
        <ele>298.9</ele>
        <time>2023-05-28T08:08:37Z</time>
      </trkpt>
      <trkpt lat="43.32845" lon="2.41707">
        <ele>297.8</ele>
        <time>2023-05-28T08:08:38Z</time>
      </trkpt>
      <trkpt lat="43.32845" lon="2.41705">
        <ele>297.4</ele>
        <time>2023-05-28T08:08:39Z</time>
      </trkpt>
      <trkpt lat="43.32845" lon="2.41701">
        <ele>296.5</ele>
        <time>2023-05-28T08:08:40Z</time>
      </trkpt>
      <trkpt lat="43.32844" lon="2.417">
        <ele>296.1</ele>
        <time>2023-05-28T08:08:41Z</time>
      </trkpt>
      <trkpt lat="43.32842" lon="2.41699">
        <ele>295.5</ele>
        <time>2023-05-28T08:08:42Z</time>
      </trkpt>
      <trkpt lat="43.32841" lon="2.41699">
        <ele>294.9</ele>
        <time>2023-05-28T08:08:43Z</time>
      </trkpt>
      <trkpt lat="43.32837" lon="2.41697">
        <ele>293.7</ele>
        <time>2023-05-28T08:08:44Z</time>
      </trkpt>
      <trkpt lat="43.32836" lon="2.41697">
        <ele>293.3</ele>
        <time>2023-05-28T08:08:45Z</time>
      </trkpt>
      <trkpt lat="43.32832" lon="2.41696">
        <ele>292.2</ele>
        <time>2023-05-28T08:08:46Z</time>
      </trkpt>
      <trkpt lat="43.32831" lon="2.41695">
        <ele>291.9</ele>
        <time>2023-05-28T08:08:47Z</time>
      </trkpt>
      <trkpt lat="43.3283" lon="2.41695">
        <ele>291.3</ele>
        <time>2023-05-28T08:08:48Z</time>
      </trkpt>
      <trkpt lat="43.32828" lon="2.41695">
        <ele>290.8</ele>
        <time>2023-05-28T08:08:49Z</time>
      </trkpt>
      <trkpt lat="43.32825" lon="2.41694">
        <ele>289.7</ele>
        <time>2023-05-28T08:08:50Z</time>
      </trkpt>
      <trkpt lat="43.32824" lon="2.41693">
        <ele>289.4</ele>
        <time>2023-05-28T08:08:51Z</time>
      </trkpt>
      <trkpt lat="43.3282" lon="2.41691">
        <ele>288.3</ele>
        <time>2023-05-28T08:08:52Z</time>
      </trkpt>
      <trkpt lat="43.32819" lon="2.41691">
        <ele>283.6</ele>
        <time>2023-05-28T08:08:53Z</time>
      </trkpt>
      <trkpt lat="43.32816" lon="2.41689">
        <ele>283.5</ele>
        <time>2023-05-28T08:08:54Z</time>
      </trkpt>
      <trkpt lat="43.32815" lon="2.41689">
        <ele>283.5</ele>
        <time>2023-05-28T08:08:55Z</time>
      </trkpt>
      <trkpt lat="43.32811" lon="2.41687">
        <ele>283.4</ele>
        <time>2023-05-28T08:08:56Z</time>
      </trkpt>
      <trkpt lat="43.3281" lon="2.41686">
        <ele>283.4</ele>
        <time>2023-05-28T08:08:57Z</time>
      </trkpt>
      <trkpt lat="43.32807" lon="2.41684">
        <ele>283.4</ele>
        <time>2023-05-28T08:08:58Z</time>
      </trkpt>
      <trkpt lat="43.32806" lon="2.41684">
        <ele>283.3</ele>
        <time>2023-05-28T08:08:59Z</time>
      </trkpt>
      <trkpt lat="43.32802" lon="2.41683">
        <ele>283.3</ele>
        <time>2023-05-28T08:09:00Z</time>
      </trkpt>
      <trkpt lat="43.32801" lon="2.41683">
        <ele>283.3</ele>
        <time>2023-05-28T08:09:01Z</time>
      </trkpt>
      <trkpt lat="43.32798" lon="2.41682">
        <ele>283.2</ele>
        <time>2023-05-28T08:09:02Z</time>
      </trkpt>
      <trkpt lat="43.32795" lon="2.41682">
        <ele>283.2</ele>
        <time>2023-05-28T08:09:03Z</time>
      </trkpt>
      <trkpt lat="43.32794" lon="2.41682">
        <ele>283.1</ele>
        <time>2023-05-28T08:09:04Z</time>
      </trkpt>
      <trkpt lat="43.32793" lon="2.41681">
        <ele>283.1</ele>
        <time>2023-05-28T08:09:05Z</time>
      </trkpt>
      <trkpt lat="43.32791" lon="2.4168">
        <ele>283.1</ele>
        <time>2023-05-28T08:09:06Z</time>
      </trkpt>
      <trkpt lat="43.32789" lon="2.41677">
        <ele>283</ele>
        <time>2023-05-28T08:09:07Z</time>
      </trkpt>
      <trkpt lat="43.32789" lon="2.41676">
        <ele>283</ele>
        <time>2023-05-28T08:09:08Z</time>
      </trkpt>
      <trkpt lat="43.32788" lon="2.41675">
        <ele>282.9</ele>
        <time>2023-05-28T08:09:09Z</time>
      </trkpt>
      <trkpt lat="43.32786" lon="2.41673">
        <ele>282.8</ele>
        <time>2023-05-28T08:09:10Z</time>
      </trkpt>
      <trkpt lat="43.32785" lon="2.41671">
        <ele>282.8</ele>
        <time>2023-05-28T08:09:11Z</time>
      </trkpt>
      <trkpt lat="43.32784" lon="2.4167">
        <ele>282.7</ele>
        <time>2023-05-28T08:09:12Z</time>
      </trkpt>
      <trkpt lat="43.32784" lon="2.41668">
        <ele>282.6</ele>
        <time>2023-05-28T08:09:13Z</time>
      </trkpt>
      <trkpt lat="43.32783" lon="2.41666">
        <ele>282.5</ele>
        <time>2023-05-28T08:09:14Z</time>
      </trkpt>
      <trkpt lat="43.32782" lon="2.41665">
        <ele>282.4</ele>
        <time>2023-05-28T08:09:15Z</time>
      </trkpt>
      <trkpt lat="43.32781" lon="2.41663">
        <ele>282.3</ele>
        <time>2023-05-28T08:09:16Z</time>
      </trkpt>
      <trkpt lat="43.3278" lon="2.41659">
        <ele>282.1</ele>
        <time>2023-05-28T08:09:17Z</time>
      </trkpt>
      <trkpt lat="43.32779" lon="2.41657">
        <ele>282</ele>
        <time>2023-05-28T08:09:18Z</time>
      </trkpt>
      <trkpt lat="43.32777" lon="2.41653">
        <ele>281.7</ele>
        <time>2023-05-28T08:09:19Z</time>
      </trkpt>
      <trkpt lat="43.32777" lon="2.41652">
        <ele>281.6</ele>
        <time>2023-05-28T08:09:20Z</time>
      </trkpt>
      <trkpt lat="43.32775" lon="2.4165">
        <ele>281.5</ele>
        <time>2023-05-28T08:09:21Z</time>
      </trkpt>
      <trkpt lat="43.32774" lon="2.41649">
        <ele>281.2</ele>
        <time>2023-05-28T08:09:22Z</time>
      </trkpt>
      <trkpt lat="43.32771" lon="2.41648">
        <ele>280.8</ele>
        <time>2023-05-28T08:09:23Z</time>
      </trkpt>
      <trkpt lat="43.3277" lon="2.41647">
        <ele>280.7</ele>
        <time>2023-05-28T08:09:24Z</time>
      </trkpt>
      <trkpt lat="43.32766" lon="2.41646">
        <ele>280.2</ele>
        <time>2023-05-28T08:09:25Z</time>
      </trkpt>
      <trkpt lat="43.32765" lon="2.41646">
        <ele>280.1</ele>
        <time>2023-05-28T08:09:26Z</time>
      </trkpt>
      <trkpt lat="43.32762" lon="2.41646">
        <ele>279.7</ele>
        <time>2023-05-28T08:09:27Z</time>
      </trkpt>
      <trkpt lat="43.32761" lon="2.41646">
        <ele>279.6</ele>
        <time>2023-05-28T08:09:28Z</time>
      </trkpt>
      <trkpt lat="43.32758" lon="2.41646">
        <ele>279.2</ele>
        <time>2023-05-28T08:09:29Z</time>
      </trkpt>
      <trkpt lat="43.32757" lon="2.41646">
        <ele>279.1</ele>
        <time>2023-05-28T08:09:30Z</time>
      </trkpt>
      <trkpt lat="43.32756" lon="2.41646">
        <ele>279</ele>
        <time>2023-05-28T08:09:31Z</time>
      </trkpt>
      <trkpt lat="43.32754" lon="2.41645">
        <ele>278.8</ele>
        <time>2023-05-28T08:09:32Z</time>
      </trkpt>
      <trkpt lat="43.32751" lon="2.41646">
        <ele>278.5</ele>
        <time>2023-05-28T08:09:33Z</time>
      </trkpt>
      <trkpt lat="43.3275" lon="2.41647">
        <ele>278.4</ele>
        <time>2023-05-28T08:09:34Z</time>
      </trkpt>
      <trkpt lat="43.32747" lon="2.41648">
        <ele>278.2</ele>
        <time>2023-05-28T08:09:35Z</time>
      </trkpt>
      <trkpt lat="43.32746" lon="2.41648">
        <ele>278.1</ele>
        <time>2023-05-28T08:09:36Z</time>
      </trkpt>
      <trkpt lat="43.32743" lon="2.41649">
        <ele>278</ele>
        <time>2023-05-28T08:09:37Z</time>
      </trkpt>
      <trkpt lat="43.3274" lon="2.41649">
        <ele>277.9</ele>
        <time>2023-05-28T08:09:38Z</time>
      </trkpt>
      <trkpt lat="43.32739" lon="2.41649">
        <ele>277.8</ele>
        <time>2023-05-28T08:09:39Z</time>
      </trkpt>
      <trkpt lat="43.32736" lon="2.41651">
        <ele>277.7</ele>
        <time>2023-05-28T08:09:40Z</time>
      </trkpt>
      <trkpt lat="43.32735" lon="2.41651">
        <ele>277.7</ele>
        <time>2023-05-28T08:09:41Z</time>
      </trkpt>
      <trkpt lat="43.32732" lon="2.41654">
        <ele>277.6</ele>
        <time>2023-05-28T08:09:42Z</time>
      </trkpt>
      <trkpt lat="43.32731" lon="2.41655">
        <ele>277.6</ele>
        <time>2023-05-28T08:09:43Z</time>
      </trkpt>
      <trkpt lat="43.32728" lon="2.41659">
        <ele>277.6</ele>
        <time>2023-05-28T08:09:44Z</time>
      </trkpt>
      <trkpt lat="43.32727" lon="2.4166">
        <ele>277.6</ele>
        <time>2023-05-28T08:09:45Z</time>
      </trkpt>
      <trkpt lat="43.32724" lon="2.41662">
        <ele>277.5</ele>
        <time>2023-05-28T08:09:46Z</time>
      </trkpt>
      <trkpt lat="43.32723" lon="2.41663">
        <ele>277.5</ele>
        <time>2023-05-28T08:09:47Z</time>
      </trkpt>
      <trkpt lat="43.3272" lon="2.41664">
        <ele>277.5</ele>
        <time>2023-05-28T08:09:48Z</time>
      </trkpt>
      <trkpt lat="43.32719" lon="2.41664">
        <ele>277.5</ele>
        <time>2023-05-28T08:09:49Z</time>
      </trkpt>
      <trkpt lat="43.32717" lon="2.41665">
        <ele>277.5</ele>
        <time>2023-05-28T08:09:50Z</time>
      </trkpt>
      <trkpt lat="43.32716" lon="2.41665">
        <ele>277.5</ele>
        <time>2023-05-28T08:09:51Z</time>
      </trkpt>
      <trkpt lat="43.32715" lon="2.41665">
        <ele>277.4</ele>
        <time>2023-05-28T08:09:52Z</time>
      </trkpt>
      <trkpt lat="43.32714" lon="2.41666">
        <ele>277.4</ele>
        <time>2023-05-28T08:09:53Z</time>
      </trkpt>
      <trkpt lat="43.32713" lon="2.41666">
        <ele>277.4</ele>
        <time>2023-05-28T08:09:54Z</time>
      </trkpt>
      <trkpt lat="43.32713" lon="2.41667">
        <ele>277.4</ele>
        <time>2023-05-28T08:09:55Z</time>
      </trkpt>
      <trkpt lat="43.32712" lon="2.41668">
        <ele>277.3</ele>
        <time>2023-05-28T08:09:56Z</time>
      </trkpt>
      <trkpt lat="43.32711" lon="2.41669">
        <ele>277.3</ele>
        <time>2023-05-28T08:09:57Z</time>
      </trkpt>
      <trkpt lat="43.3271" lon="2.4167">
        <ele>277.3</ele>
        <time>2023-05-28T08:09:58Z</time>
      </trkpt>
      <trkpt lat="43.32709" lon="2.4167">
        <ele>277.2</ele>
        <time>2023-05-28T08:09:59Z</time>
      </trkpt>
      <trkpt lat="43.32707" lon="2.4167">
        <ele>277.2</ele>
        <time>2023-05-28T08:10:00Z</time>
      </trkpt>
      <trkpt lat="43.32703" lon="2.4167">
        <ele>277</ele>
        <time>2023-05-28T08:10:01Z</time>
      </trkpt>
      <trkpt lat="43.32702" lon="2.4167">
        <ele>277</ele>
        <time>2023-05-28T08:10:02Z</time>
      </trkpt>
      <trkpt lat="43.32699" lon="2.4167">
        <ele>276.8</ele>
        <time>2023-05-28T08:10:03Z</time>
      </trkpt>
      <trkpt lat="43.32698" lon="2.4167">
        <ele>276.8</ele>
        <time>2023-05-28T08:10:04Z</time>
      </trkpt>
      <trkpt lat="43.32696" lon="2.4167">
        <ele>276.7</ele>
        <time>2023-05-28T08:10:05Z</time>
      </trkpt>
      <trkpt lat="43.32695" lon="2.4167">
        <ele>276.6</ele>
        <time>2023-05-28T08:10:06Z</time>
      </trkpt>
      <trkpt lat="43.32691" lon="2.4167">
        <ele>276.4</ele>
        <time>2023-05-28T08:10:07Z</time>
      </trkpt>
      <trkpt lat="43.3269" lon="2.4167">
        <ele>276.4</ele>
        <time>2023-05-28T08:10:08Z</time>
      </trkpt>
      <trkpt lat="43.32689" lon="2.4167">
        <ele>276.3</ele>
        <time>2023-05-28T08:10:09Z</time>
      </trkpt>
      <trkpt lat="43.32687" lon="2.41669">
        <ele>276.2</ele>
        <time>2023-05-28T08:10:10Z</time>
      </trkpt>
      <trkpt lat="43.32685" lon="2.41669">
        <ele>276.1</ele>
        <time>2023-05-28T08:10:11Z</time>
      </trkpt>
      <trkpt lat="43.32684" lon="2.41668">
        <ele>275.9</ele>
        <time>2023-05-28T08:10:12Z</time>
      </trkpt>
      <trkpt lat="43.32682" lon="2.41667">
        <ele>275.8</ele>
        <time>2023-05-28T08:10:13Z</time>
      </trkpt>
      <trkpt lat="43.32681" lon="2.41666">
        <ele>275.7</ele>
        <time>2023-05-28T08:10:14Z</time>
      </trkpt>
      <trkpt lat="43.32679" lon="2.41666">
        <ele>275.6</ele>
        <time>2023-05-28T08:10:15Z</time>
      </trkpt>
      <trkpt lat="43.32678" lon="2.41665">
        <ele>275.5</ele>
        <time>2023-05-28T08:10:16Z</time>
      </trkpt>
      <trkpt lat="43.32677" lon="2.41666">
        <ele>275.4</ele>
        <time>2023-05-28T08:10:18Z</time>
      </trkpt>
      <trkpt lat="43.32675" lon="2.41666">
        <ele>275.2</ele>
        <time>2023-05-28T08:10:19Z</time>
      </trkpt>
      <trkpt lat="43.32674" lon="2.41667">
        <ele>275.2</ele>
        <time>2023-05-28T08:10:20Z</time>
      </trkpt>
      <trkpt lat="43.32673" lon="2.41667">
        <ele>275.1</ele>
        <time>2023-05-28T08:10:21Z</time>
      </trkpt>
      <trkpt lat="43.32671" lon="2.41667">
        <ele>274.9</ele>
        <time>2023-05-28T08:10:22Z</time>
      </trkpt>
      <trkpt lat="43.3267" lon="2.41666">
        <ele>274.8</ele>
        <time>2023-05-28T08:10:23Z</time>
      </trkpt>
      <trkpt lat="43.32669" lon="2.41666">
        <ele>274.8</ele>
        <time>2023-05-28T08:10:24Z</time>
      </trkpt>
      <trkpt lat="43.32666" lon="2.41666">
        <ele>274.5</ele>
        <time>2023-05-28T08:10:25Z</time>
      </trkpt>
      <trkpt lat="43.32665" lon="2.41667">
        <ele>274.5</ele>
        <time>2023-05-28T08:10:26Z</time>
      </trkpt>
      <trkpt lat="43.32662" lon="2.41668">
        <ele>274.2</ele>
        <time>2023-05-28T08:10:27Z</time>
      </trkpt>
      <trkpt lat="43.32661" lon="2.41669">
        <ele>274.1</ele>
        <time>2023-05-28T08:10:28Z</time>
      </trkpt>
      <trkpt lat="43.32658" lon="2.41671">
        <ele>273.9</ele>
        <time>2023-05-28T08:10:29Z</time>
      </trkpt>
      <trkpt lat="43.32657" lon="2.41673">
        <ele>273.9</ele>
        <time>2023-05-28T08:10:30Z</time>
      </trkpt>
      <trkpt lat="43.32656" lon="2.41676">
        <ele>273.7</ele>
        <time>2023-05-28T08:10:31Z</time>
      </trkpt>
      <trkpt lat="43.32655" lon="2.4168">
        <ele>273.6</ele>
        <time>2023-05-28T08:10:32Z</time>
      </trkpt>
      <trkpt lat="43.32654" lon="2.41684">
        <ele>273.5</ele>
        <time>2023-05-28T08:10:33Z</time>
      </trkpt>
      <trkpt lat="43.32654" lon="2.41689">
        <ele>273.4</ele>
        <time>2023-05-28T08:10:34Z</time>
      </trkpt>
      <trkpt lat="43.32654" lon="2.41691">
        <ele>273.4</ele>
        <time>2023-05-28T08:10:35Z</time>
      </trkpt>
      <trkpt lat="43.32654" lon="2.41694">
        <ele>273.4</ele>
        <time>2023-05-28T08:10:36Z</time>
      </trkpt>
      <trkpt lat="43.32654" lon="2.41698">
        <ele>273.4</ele>
        <time>2023-05-28T08:10:37Z</time>
      </trkpt>
      <trkpt lat="43.32654" lon="2.41704">
        <ele>273.4</ele>
        <time>2023-05-28T08:10:38Z</time>
      </trkpt>
      <trkpt lat="43.32654" lon="2.41705">
        <ele>273.4</ele>
        <time>2023-05-28T08:10:39Z</time>
      </trkpt>
      <trkpt lat="43.32654" lon="2.41711">
        <ele>273.4</ele>
        <time>2023-05-28T08:10:40Z</time>
      </trkpt>
      <trkpt lat="43.32654" lon="2.41712">
        <ele>273.4</ele>
        <time>2023-05-28T08:10:41Z</time>
      </trkpt>
      <trkpt lat="43.32653" lon="2.41716">
        <ele>273.4</ele>
        <time>2023-05-28T08:10:42Z</time>
      </trkpt>
      <trkpt lat="43.32653" lon="2.4172">
        <ele>273.5</ele>
        <time>2023-05-28T08:10:43Z</time>
      </trkpt>
      <trkpt lat="43.32653" lon="2.41721">
        <ele>273.5</ele>
        <time>2023-05-28T08:10:44Z</time>
      </trkpt>
      <trkpt lat="43.32653" lon="2.41725">
        <ele>273.5</ele>
        <time>2023-05-28T08:10:45Z</time>
      </trkpt>
      <trkpt lat="43.32653" lon="2.41726">
        <ele>273.5</ele>
        <time>2023-05-28T08:10:46Z</time>
      </trkpt>
      <trkpt lat="43.32653" lon="2.4173">
        <ele>273.5</ele>
        <time>2023-05-28T08:10:47Z</time>
      </trkpt>
      <trkpt lat="43.32652" lon="2.41732">
        <ele>273.6</ele>
        <time>2023-05-28T08:10:48Z</time>
      </trkpt>
      <trkpt lat="43.32652" lon="2.41736">
        <ele>273.6</ele>
        <time>2023-05-28T08:10:49Z</time>
      </trkpt>
      <trkpt lat="43.32652" lon="2.41737">
        <ele>273.6</ele>
        <time>2023-05-28T08:10:50Z</time>
      </trkpt>
      <trkpt lat="43.32651" lon="2.41741">
        <ele>273.7</ele>
        <time>2023-05-28T08:10:51Z</time>
      </trkpt>
      <trkpt lat="43.32651" lon="2.41743">
        <ele>273.7</ele>
        <time>2023-05-28T08:10:52Z</time>
      </trkpt>
      <trkpt lat="43.32651" lon="2.41747">
        <ele>273.7</ele>
        <time>2023-05-28T08:10:53Z</time>
      </trkpt>
      <trkpt lat="43.32651" lon="2.41748">
        <ele>273.7</ele>
        <time>2023-05-28T08:10:54Z</time>
      </trkpt>
      <trkpt lat="43.32651" lon="2.41752">
        <ele>273.8</ele>
        <time>2023-05-28T08:10:55Z</time>
      </trkpt>
      <trkpt lat="43.32651" lon="2.41754">
        <ele>273.8</ele>
        <time>2023-05-28T08:10:56Z</time>
      </trkpt>
      <trkpt lat="43.3265" lon="2.41758">
        <ele>273.9</ele>
        <time>2023-05-28T08:10:57Z</time>
      </trkpt>
      <trkpt lat="43.32649" lon="2.41759">
        <ele>273.9</ele>
        <time>2023-05-28T08:10:58Z</time>
      </trkpt>
      <trkpt lat="43.32648" lon="2.41763">
        <ele>274</ele>
        <time>2023-05-28T08:10:59Z</time>
      </trkpt>
      <trkpt lat="43.32648" lon="2.41764">
        <ele>274</ele>
        <time>2023-05-28T08:11:00Z</time>
      </trkpt>
      <trkpt lat="43.32646" lon="2.41768">
        <ele>274.1</ele>
        <time>2023-05-28T08:11:01Z</time>
      </trkpt>
      <trkpt lat="43.32645" lon="2.41769">
        <ele>274.2</ele>
        <time>2023-05-28T08:11:02Z</time>
      </trkpt>
      <trkpt lat="43.32642" lon="2.41772">
        <ele>274.3</ele>
        <time>2023-05-28T08:11:03Z</time>
      </trkpt>
      <trkpt lat="43.32641" lon="2.41773">
        <ele>274.4</ele>
        <time>2023-05-28T08:11:04Z</time>
      </trkpt>
      <trkpt lat="43.32639" lon="2.41777">
        <ele>274.5</ele>
        <time>2023-05-28T08:11:05Z</time>
      </trkpt>
      <trkpt lat="43.32638" lon="2.41778">
        <ele>274.6</ele>
        <time>2023-05-28T08:11:06Z</time>
      </trkpt>
      <trkpt lat="43.32635" lon="2.41781">
        <ele>274.7</ele>
        <time>2023-05-28T08:11:07Z</time>
      </trkpt>
      <trkpt lat="43.32634" lon="2.41782">
        <ele>274.8</ele>
        <time>2023-05-28T08:11:08Z</time>
      </trkpt>
      <trkpt lat="43.32633" lon="2.41784">
        <ele>274.9</ele>
        <time>2023-05-28T08:11:09Z</time>
      </trkpt>
      <trkpt lat="43.32632" lon="2.41785">
        <ele>274.9</ele>
        <time>2023-05-28T08:11:10Z</time>
      </trkpt>
      <trkpt lat="43.3263" lon="2.41788">
        <ele>275.1</ele>
        <time>2023-05-28T08:11:11Z</time>
      </trkpt>
      <trkpt lat="43.32629" lon="2.41789">
        <ele>275.1</ele>
        <time>2023-05-28T08:11:12Z</time>
      </trkpt>
      <trkpt lat="43.32628" lon="2.4179">
        <ele>275.1</ele>
        <time>2023-05-28T08:11:13Z</time>
      </trkpt>
      <trkpt lat="43.32627" lon="2.41792">
        <ele>275.2</ele>
        <time>2023-05-28T08:11:14Z</time>
      </trkpt>
      <trkpt lat="43.32626" lon="2.41794">
        <ele>275.2</ele>
        <time>2023-05-28T08:11:15Z</time>
      </trkpt>
      <trkpt lat="43.32625" lon="2.41795">
        <ele>275.3</ele>
        <time>2023-05-28T08:11:16Z</time>
      </trkpt>
      <trkpt lat="43.32621" lon="2.41797">
        <ele>275.4</ele>
        <time>2023-05-28T08:11:17Z</time>
      </trkpt>
      <trkpt lat="43.3262" lon="2.41797">
        <ele>275.4</ele>
        <time>2023-05-28T08:11:18Z</time>
      </trkpt>
      <trkpt lat="43.32617" lon="2.41798">
        <ele>275.5</ele>
        <time>2023-05-28T08:11:19Z</time>
      </trkpt>
      <trkpt lat="43.32614" lon="2.418">
        <ele>275.5</ele>
        <time>2023-05-28T08:11:20Z</time>
      </trkpt>
      <trkpt lat="43.32613" lon="2.41801">
        <ele>275.6</ele>
        <time>2023-05-28T08:11:21Z</time>
      </trkpt>
      <trkpt lat="43.3261" lon="2.41802">
        <ele>275.7</ele>
        <time>2023-05-28T08:11:22Z</time>
      </trkpt>
      <trkpt lat="43.32609" lon="2.41803">
        <ele>275.7</ele>
        <time>2023-05-28T08:11:23Z</time>
      </trkpt>
      <trkpt lat="43.32606" lon="2.41804">
        <ele>275.8</ele>
        <time>2023-05-28T08:11:24Z</time>
      </trkpt>
      <trkpt lat="43.32605" lon="2.41805">
        <ele>275.8</ele>
        <time>2023-05-28T08:11:25Z</time>
      </trkpt>
      <trkpt lat="43.32601" lon="2.41806">
        <ele>276</ele>
        <time>2023-05-28T08:11:26Z</time>
      </trkpt>
      <trkpt lat="43.326" lon="2.41807">
        <ele>276</ele>
        <time>2023-05-28T08:11:27Z</time>
      </trkpt>
      <trkpt lat="43.32599" lon="2.41808">
        <ele>276.1</ele>
        <time>2023-05-28T08:11:28Z</time>
      </trkpt>
      <trkpt lat="43.32598" lon="2.4181">
        <ele>276.2</ele>
        <time>2023-05-28T08:11:29Z</time>
      </trkpt>
      <trkpt lat="43.32595" lon="2.41813">
        <ele>276.4</ele>
        <time>2023-05-28T08:11:30Z</time>
      </trkpt>
      <trkpt lat="43.32595" lon="2.41814">
        <ele>276.4</ele>
        <time>2023-05-28T08:11:31Z</time>
      </trkpt>
      <trkpt lat="43.32593" lon="2.41815">
        <ele>276.5</ele>
        <time>2023-05-28T08:11:32Z</time>
      </trkpt>
      <trkpt lat="43.32592" lon="2.41816">
        <ele>276.6</ele>
        <time>2023-05-28T08:11:33Z</time>
      </trkpt>
      <trkpt lat="43.3259" lon="2.41817">
        <ele>276.7</ele>
        <time>2023-05-28T08:11:34Z</time>
      </trkpt>
      <trkpt lat="43.32589" lon="2.41818">
        <ele>276.8</ele>
        <time>2023-05-28T08:11:35Z</time>
      </trkpt>
      <trkpt lat="43.32587" lon="2.41819">
        <ele>276.8</ele>
        <time>2023-05-28T08:11:36Z</time>
      </trkpt>
      <trkpt lat="43.32586" lon="2.4182">
        <ele>276.9</ele>
        <time>2023-05-28T08:11:37Z</time>
      </trkpt>
      <trkpt lat="43.32584" lon="2.41821">
        <ele>277</ele>
        <time>2023-05-28T08:11:38Z</time>
      </trkpt>
      <trkpt lat="43.32583" lon="2.41822">
        <ele>277</ele>
        <time>2023-05-28T08:11:39Z</time>
      </trkpt>
      <trkpt lat="43.32582" lon="2.41822">
        <ele>277.1</ele>
        <time>2023-05-28T08:11:40Z</time>
      </trkpt>
      <trkpt lat="43.3258" lon="2.41824">
        <ele>277.2</ele>
        <time>2023-05-28T08:11:41Z</time>
      </trkpt>
      <trkpt lat="43.32579" lon="2.41825">
        <ele>277.2</ele>
        <time>2023-05-28T08:11:42Z</time>
      </trkpt>
      <trkpt lat="43.32577" lon="2.41826">
        <ele>277.3</ele>
        <time>2023-05-28T08:11:43Z</time>
      </trkpt>
      <trkpt lat="43.32576" lon="2.41827">
        <ele>277.3</ele>
        <time>2023-05-28T08:11:44Z</time>
      </trkpt>
      <trkpt lat="43.32576" lon="2.41828">
        <ele>277.3</ele>
        <time>2023-05-28T08:11:45Z</time>
      </trkpt>
      <trkpt lat="43.32575" lon="2.41828">
        <ele>277.4</ele>
        <time>2023-05-28T08:11:46Z</time>
      </trkpt>
      <trkpt lat="43.32573" lon="2.41829">
        <ele>277.4</ele>
        <time>2023-05-28T08:11:47Z</time>
      </trkpt>
      <trkpt lat="43.3257" lon="2.41831">
        <ele>277.5</ele>
        <time>2023-05-28T08:11:48Z</time>
      </trkpt>
      <trkpt lat="43.32569" lon="2.41831">
        <ele>277.6</ele>
        <time>2023-05-28T08:11:49Z</time>
      </trkpt>
      <trkpt lat="43.32567" lon="2.41834">
        <ele>277.7</ele>
        <time>2023-05-28T08:11:50Z</time>
      </trkpt>
      <trkpt lat="43.32566" lon="2.41835">
        <ele>277.7</ele>
        <time>2023-05-28T08:11:51Z</time>
      </trkpt>
      <trkpt lat="43.32565" lon="2.41836">
        <ele>277.8</ele>
        <time>2023-05-28T08:11:52Z</time>
      </trkpt>
      <trkpt lat="43.32564" lon="2.41837">
        <ele>277.8</ele>
        <time>2023-05-28T08:11:53Z</time>
      </trkpt>
      <trkpt lat="43.32563" lon="2.41839">
        <ele>277.9</ele>
        <time>2023-05-28T08:11:54Z</time>
      </trkpt>
      <trkpt lat="43.32562" lon="2.4184">
        <ele>277.9</ele>
        <time>2023-05-28T08:11:55Z</time>
      </trkpt>
      <trkpt lat="43.32561" lon="2.41842">
        <ele>278</ele>
        <time>2023-05-28T08:11:56Z</time>
      </trkpt>
      <trkpt lat="43.32561" lon="2.41843">
        <ele>278</ele>
        <time>2023-05-28T08:11:57Z</time>
      </trkpt>
      <trkpt lat="43.3256" lon="2.41844">
        <ele>278</ele>
        <time>2023-05-28T08:11:58Z</time>
      </trkpt>
      <trkpt lat="43.32559" lon="2.41846">
        <ele>278.1</ele>
        <time>2023-05-28T08:11:59Z</time>
      </trkpt>
      <trkpt lat="43.32559" lon="2.41847">
        <ele>278.1</ele>
        <time>2023-05-28T08:12:00Z</time>
      </trkpt>
      <trkpt lat="43.32559" lon="2.41848">
        <ele>278.2</ele>
        <time>2023-05-28T08:12:01Z</time>
      </trkpt>
      <trkpt lat="43.32558" lon="2.4185">
        <ele>278.2</ele>
        <time>2023-05-28T08:12:02Z</time>
      </trkpt>
      <trkpt lat="43.32556" lon="2.41851">
        <ele>278.3</ele>
        <time>2023-05-28T08:12:03Z</time>
      </trkpt>
      <trkpt lat="43.32555" lon="2.41852">
        <ele>278.3</ele>
        <time>2023-05-28T08:12:04Z</time>
      </trkpt>
      <trkpt lat="43.32553" lon="2.41854">
        <ele>278.3</ele>
        <time>2023-05-28T08:12:05Z</time>
      </trkpt>
      <trkpt lat="43.32551" lon="2.41856">
        <ele>278.4</ele>
        <time>2023-05-28T08:12:06Z</time>
      </trkpt>
      <trkpt lat="43.3255" lon="2.41857">
        <ele>278.4</ele>
        <time>2023-05-28T08:12:07Z</time>
      </trkpt>
      <trkpt lat="43.32547" lon="2.4186">
        <ele>278.5</ele>
        <time>2023-05-28T08:12:08Z</time>
      </trkpt>
      <trkpt lat="43.32547" lon="2.4186">
        <ele>278.5</ele>
        <time>2023-05-28T08:12:09Z</time>
      </trkpt>
      <trkpt lat="43.32544" lon="2.41863">
        <ele>278.5</ele>
        <time>2023-05-28T08:12:10Z</time>
      </trkpt>
      <trkpt lat="43.32543" lon="2.41864">
        <ele>278.6</ele>
        <time>2023-05-28T08:12:11Z</time>
      </trkpt>
      <trkpt lat="43.32542" lon="2.41866">
        <ele>278.6</ele>
        <time>2023-05-28T08:12:12Z</time>
      </trkpt>
      <trkpt lat="43.32541" lon="2.41867">
        <ele>278.6</ele>
        <time>2023-05-28T08:12:13Z</time>
      </trkpt>
      <trkpt lat="43.32539" lon="2.41868">
        <ele>278.6</ele>
        <time>2023-05-28T08:12:14Z</time>
      </trkpt>
      <trkpt lat="43.32537" lon="2.41869">
        <ele>278.6</ele>
        <time>2023-05-28T08:12:15Z</time>
      </trkpt>
      <trkpt lat="43.32536" lon="2.4187">
        <ele>278.7</ele>
        <time>2023-05-28T08:12:16Z</time>
      </trkpt>
      <trkpt lat="43.32534" lon="2.4187">
        <ele>278.7</ele>
        <time>2023-05-28T08:12:17Z</time>
      </trkpt>
      <trkpt lat="43.32531" lon="2.41872">
        <ele>278.7</ele>
        <time>2023-05-28T08:12:18Z</time>
      </trkpt>
      <trkpt lat="43.3253" lon="2.41872">
        <ele>278.7</ele>
        <time>2023-05-28T08:12:19Z</time>
      </trkpt>
      <trkpt lat="43.32527" lon="2.41873">
        <ele>278.8</ele>
        <time>2023-05-28T08:12:20Z</time>
      </trkpt>
      <trkpt lat="43.32526" lon="2.41873">
        <ele>278.8</ele>
        <time>2023-05-28T08:12:21Z</time>
      </trkpt>
      <trkpt lat="43.32523" lon="2.41872">
        <ele>278.9</ele>
        <time>2023-05-28T08:12:22Z</time>
      </trkpt>
      <trkpt lat="43.32522" lon="2.41872">
        <ele>278.9</ele>
        <time>2023-05-28T08:12:23Z</time>
      </trkpt>
      <trkpt lat="43.32519" lon="2.41871">
        <ele>279</ele>
        <time>2023-05-28T08:12:24Z</time>
      </trkpt>
      <trkpt lat="43.32518" lon="2.41871">
        <ele>279</ele>
        <time>2023-05-28T08:12:25Z</time>
      </trkpt>
      <trkpt lat="43.32515" lon="2.41871">
        <ele>279.1</ele>
        <time>2023-05-28T08:12:26Z</time>
      </trkpt>
      <trkpt lat="43.32514" lon="2.41871">
        <ele>279.1</ele>
        <time>2023-05-28T08:12:27Z</time>
      </trkpt>
      <trkpt lat="43.32511" lon="2.41872">
        <ele>279.2</ele>
        <time>2023-05-28T08:12:28Z</time>
      </trkpt>
      <trkpt lat="43.3251" lon="2.41873">
        <ele>279.3</ele>
        <time>2023-05-28T08:12:29Z</time>
      </trkpt>
      <trkpt lat="43.32509" lon="2.41873">
        <ele>279.3</ele>
        <time>2023-05-28T08:12:30Z</time>
      </trkpt>
      <trkpt lat="43.32508" lon="2.41874">
        <ele>279.3</ele>
        <time>2023-05-28T08:12:31Z</time>
      </trkpt>
      <trkpt lat="43.32507" lon="2.41874">
        <ele>279.4</ele>
        <time>2023-05-28T08:12:32Z</time>
      </trkpt>
      <trkpt lat="43.32505" lon="2.41876">
        <ele>279.5</ele>
        <time>2023-05-28T08:12:33Z</time>
      </trkpt>
      <trkpt lat="43.32504" lon="2.41877">
        <ele>279.5</ele>
        <time>2023-05-28T08:12:34Z</time>
      </trkpt>
      <trkpt lat="43.32504" lon="2.41877">
        <ele>279.5</ele>
        <time>2023-05-28T08:12:35Z</time>
      </trkpt>
      <trkpt lat="43.32501" lon="2.4188">
        <ele>279.6</ele>
        <time>2023-05-28T08:12:36Z</time>
      </trkpt>
      <trkpt lat="43.325" lon="2.41881">
        <ele>279.7</ele>
        <time>2023-05-28T08:12:37Z</time>
      </trkpt>
      <trkpt lat="43.32498" lon="2.41883">
        <ele>279.7</ele>
        <time>2023-05-28T08:12:38Z</time>
      </trkpt>
      <trkpt lat="43.32498" lon="2.41884">
        <ele>279.8</ele>
        <time>2023-05-28T08:12:39Z</time>
      </trkpt>
      <trkpt lat="43.32497" lon="2.41886">
        <ele>279.8</ele>
        <time>2023-05-28T08:12:40Z</time>
      </trkpt>
      <trkpt lat="43.32496" lon="2.41887">
        <ele>279.9</ele>
        <time>2023-05-28T08:12:41Z</time>
      </trkpt>
      <trkpt lat="43.32495" lon="2.41888">
        <ele>279.9</ele>
        <time>2023-05-28T08:12:42Z</time>
      </trkpt>
      <trkpt lat="43.32494" lon="2.41891">
        <ele>279.9</ele>
        <time>2023-05-28T08:12:43Z</time>
      </trkpt>
      <trkpt lat="43.32493" lon="2.41892">
        <ele>279.9</ele>
        <time>2023-05-28T08:12:44Z</time>
      </trkpt>
      <trkpt lat="43.32491" lon="2.41893">
        <ele>279.9</ele>
        <time>2023-05-28T08:12:45Z</time>
      </trkpt>
      <trkpt lat="43.3249" lon="2.41895">
        <ele>279.9</ele>
        <time>2023-05-28T08:12:46Z</time>
      </trkpt>
      <trkpt lat="43.32488" lon="2.41897">
        <ele>279.9</ele>
        <time>2023-05-28T08:12:47Z</time>
      </trkpt>
      <trkpt lat="43.32487" lon="2.41898">
        <ele>279.9</ele>
        <time>2023-05-28T08:12:48Z</time>
      </trkpt>
      <trkpt lat="43.32485" lon="2.41899">
        <ele>279.9</ele>
        <time>2023-05-28T08:12:49Z</time>
      </trkpt>
      <trkpt lat="43.32484" lon="2.41901">
        <ele>279.9</ele>
        <time>2023-05-28T08:12:50Z</time>
      </trkpt>
      <trkpt lat="43.32483" lon="2.41903">
        <ele>279.9</ele>
        <time>2023-05-28T08:12:51Z</time>
      </trkpt>
      <trkpt lat="43.32483" lon="2.41905">
        <ele>279.9</ele>
        <time>2023-05-28T08:12:52Z</time>
      </trkpt>
      <trkpt lat="43.32482" lon="2.41906">
        <ele>279.9</ele>
        <time>2023-05-28T08:12:53Z</time>
      </trkpt>
      <trkpt lat="43.3248" lon="2.41908">
        <ele>279.9</ele>
        <time>2023-05-28T08:12:54Z</time>
      </trkpt>
      <trkpt lat="43.32479" lon="2.41909">
        <ele>279.9</ele>
        <time>2023-05-28T08:12:55Z</time>
      </trkpt>
      <trkpt lat="43.32477" lon="2.41912">
        <ele>279.9</ele>
        <time>2023-05-28T08:12:56Z</time>
      </trkpt>
      <trkpt lat="43.32476" lon="2.41913">
        <ele>279.9</ele>
        <time>2023-05-28T08:12:57Z</time>
      </trkpt>
      <trkpt lat="43.32476" lon="2.41914">
        <ele>279.9</ele>
        <time>2023-05-28T08:12:58Z</time>
      </trkpt>
      <trkpt lat="43.32475" lon="2.41916">
        <ele>279.9</ele>
        <time>2023-05-28T08:12:59Z</time>
      </trkpt>
      <trkpt lat="43.32474" lon="2.41916">
        <ele>279.8</ele>
        <time>2023-05-28T08:13:00Z</time>
      </trkpt>
      <trkpt lat="43.32473" lon="2.41917">
        <ele>279.8</ele>
        <time>2023-05-28T08:13:01Z</time>
      </trkpt>
      <trkpt lat="43.32472" lon="2.41916">
        <ele>279.8</ele>
        <time>2023-05-28T08:13:02Z</time>
      </trkpt>
      <trkpt lat="43.32471" lon="2.41917">
        <ele>279.8</ele>
        <time>2023-05-28T08:13:03Z</time>
      </trkpt>
      <trkpt lat="43.32469" lon="2.41916">
        <ele>278.6</ele>
        <time>2023-05-28T08:13:04Z</time>
      </trkpt>
      <trkpt lat="43.32468" lon="2.41916">
        <ele>278.5</ele>
        <time>2023-05-28T08:13:05Z</time>
      </trkpt>
      <trkpt lat="43.32467" lon="2.41916">
        <ele>278.3</ele>
        <time>2023-05-28T08:13:06Z</time>
      </trkpt>
      <trkpt lat="43.32467" lon="2.41915">
        <ele>278.2</ele>
        <time>2023-05-28T08:13:07Z</time>
      </trkpt>
      <trkpt lat="43.32466" lon="2.41914">
        <ele>278.1</ele>
        <time>2023-05-28T08:13:08Z</time>
      </trkpt>
      <trkpt lat="43.32465" lon="2.41914">
        <ele>277.9</ele>
        <time>2023-05-28T08:13:09Z</time>
      </trkpt>
      <trkpt lat="43.32464" lon="2.41914">
        <ele>277.8</ele>
        <time>2023-05-28T08:13:10Z</time>
      </trkpt>
      <trkpt lat="43.32463" lon="2.41914">
        <ele>277.7</ele>
        <time>2023-05-28T08:13:11Z</time>
      </trkpt>
      <trkpt lat="43.32462" lon="2.41913">
        <ele>277.6</ele>
        <time>2023-05-28T08:13:12Z</time>
      </trkpt>
      <trkpt lat="43.32462" lon="2.41913">
        <ele>277.6</ele>
        <time>2023-05-28T08:13:13Z</time>
      </trkpt>
      <trkpt lat="43.32462" lon="2.41913">
        <ele>277.6</ele>
        <time>2023-05-28T08:13:14Z</time>
      </trkpt>
      <trkpt lat="43.32462" lon="2.41913">
        <ele>277.5</ele>
        <time>2023-05-28T08:13:15Z</time>
      </trkpt>
      <trkpt lat="43.32462" lon="2.41913">
        <ele>277.5</ele>
        <time>2023-05-28T08:13:16Z</time>
      </trkpt>
      <trkpt lat="43.32462" lon="2.41914">
        <ele>277.5</ele>
        <time>2023-05-28T08:13:17Z</time>
      </trkpt>
      <trkpt lat="43.32462" lon="2.41914">
        <ele>277.4</ele>
        <time>2023-05-28T08:13:18Z</time>
      </trkpt>
      <trkpt lat="43.32461" lon="2.41915">
        <ele>277.3</ele>
        <time>2023-05-28T08:13:19Z</time>
      </trkpt>
      <trkpt lat="43.3246" lon="2.41915">
        <ele>277.2</ele>
        <time>2023-05-28T08:13:20Z</time>
      </trkpt>
      <trkpt lat="43.3246" lon="2.41916">
        <ele>277.1</ele>
        <time>2023-05-28T08:13:21Z</time>
      </trkpt>
      <trkpt lat="43.32459" lon="2.41917">
        <ele>277</ele>
        <time>2023-05-28T08:13:22Z</time>
      </trkpt>
      <trkpt lat="43.32458" lon="2.41918">
        <ele>276.8</ele>
        <time>2023-05-28T08:13:23Z</time>
      </trkpt>
      <trkpt lat="43.32458" lon="2.41919">
        <ele>276.7</ele>
        <time>2023-05-28T08:13:24Z</time>
      </trkpt>
      <trkpt lat="43.32458" lon="2.4192">
        <ele>276.6</ele>
        <time>2023-05-28T08:13:25Z</time>
      </trkpt>
      <trkpt lat="43.32457" lon="2.41922">
        <ele>276.5</ele>
        <time>2023-05-28T08:13:26Z</time>
      </trkpt>
      <trkpt lat="43.32458" lon="2.41923">
        <ele>276.3</ele>
        <time>2023-05-28T08:13:27Z</time>
      </trkpt>
      <trkpt lat="43.32458" lon="2.41924">
        <ele>276.2</ele>
        <time>2023-05-28T08:13:28Z</time>
      </trkpt>
      <trkpt lat="43.32458" lon="2.41925">
        <ele>276.2</ele>
        <time>2023-05-28T08:13:29Z</time>
      </trkpt>
      <trkpt lat="43.32458" lon="2.41925">
        <ele>276.1</ele>
        <time>2023-05-28T08:13:30Z</time>
      </trkpt>
      <trkpt lat="43.32458" lon="2.41925">
        <ele>276.1</ele>
        <time>2023-05-28T08:13:31Z</time>
      </trkpt>
      <trkpt lat="43.32457" lon="2.41925">
        <ele>276.1</ele>
        <time>2023-05-28T08:13:32Z</time>
      </trkpt>
      <trkpt lat="43.32457" lon="2.41925">
        <ele>276</ele>
        <time>2023-05-28T08:13:33Z</time>
      </trkpt>
      <trkpt lat="43.32456" lon="2.41926">
        <ele>275.9</ele>
        <time>2023-05-28T08:13:34Z</time>
      </trkpt>
      <trkpt lat="43.32456" lon="2.41926">
        <ele>275.9</ele>
        <time>2023-05-28T08:13:35Z</time>
      </trkpt>
      <trkpt lat="43.32456" lon="2.41926">
        <ele>275.9</ele>
        <time>2023-05-28T08:13:36Z</time>
      </trkpt>
      <trkpt lat="43.32456" lon="2.41926">
        <ele>275.9</ele>
        <time>2023-05-28T08:13:37Z</time>
      </trkpt>
      <trkpt lat="43.32456" lon="2.41926">
        <ele>275.9</ele>
        <time>2023-05-28T08:13:38Z</time>
      </trkpt>
      <trkpt lat="43.32456" lon="2.41926">
        <ele>275.8</ele>
        <time>2023-05-28T08:13:39Z</time>
      </trkpt>
      <trkpt lat="43.32457" lon="2.41925">
        <ele>275.8</ele>
        <time>2023-05-28T08:13:40Z</time>
      </trkpt>
      <trkpt lat="43.32457" lon="2.41925">
        <ele>275.8</ele>
        <time>2023-05-28T08:13:41Z</time>
      </trkpt>
      <trkpt lat="43.32457" lon="2.41925">
        <ele>275.7</ele>
        <time>2023-05-28T08:13:42Z</time>
      </trkpt>
      <trkpt lat="43.32457" lon="2.41925">
        <ele>275.7</ele>
        <time>2023-05-28T08:13:43Z</time>
      </trkpt>
      <trkpt lat="43.32457" lon="2.41925">
        <ele>275.7</ele>
        <time>2023-05-28T08:13:44Z</time>
      </trkpt>
      <trkpt lat="43.32457" lon="2.41925">
        <ele>275.7</ele>
        <time>2023-05-28T08:13:45Z</time>
      </trkpt>
      <trkpt lat="43.32457" lon="2.41926">
        <ele>275.6</ele>
        <time>2023-05-28T08:13:46Z</time>
      </trkpt>
      <trkpt lat="43.32457" lon="2.41926">
        <ele>275.5</ele>
        <time>2023-05-28T08:13:47Z</time>
      </trkpt>
      <trkpt lat="43.32456" lon="2.41928">
        <ele>275.4</ele>
        <time>2023-05-28T08:13:48Z</time>
      </trkpt>
      <trkpt lat="43.32456" lon="2.41929">
        <ele>275.3</ele>
        <time>2023-05-28T08:13:49Z</time>
      </trkpt>
      <trkpt lat="43.32456" lon="2.4193">
        <ele>275.2</ele>
        <time>2023-05-28T08:13:50Z</time>
      </trkpt>
      <trkpt lat="43.32455" lon="2.41932">
        <ele>275</ele>
        <time>2023-05-28T08:13:51Z</time>
      </trkpt>
      <trkpt lat="43.32455" lon="2.41933">
        <ele>274.9</ele>
        <time>2023-05-28T08:13:52Z</time>
      </trkpt>
      <trkpt lat="43.32455" lon="2.41934">
        <ele>274.8</ele>
        <time>2023-05-28T08:13:53Z</time>
      </trkpt>
      <trkpt lat="43.32455" lon="2.41936">
        <ele>274.6</ele>
        <time>2023-05-28T08:13:54Z</time>
      </trkpt>
      <trkpt lat="43.32454" lon="2.41937">
        <ele>274.5</ele>
        <time>2023-05-28T08:13:55Z</time>
      </trkpt>
      <trkpt lat="43.32453" lon="2.41939">
        <ele>274.3</ele>
        <time>2023-05-28T08:13:56Z</time>
      </trkpt>
      <trkpt lat="43.32453" lon="2.4194">
        <ele>274.2</ele>
        <time>2023-05-28T08:13:57Z</time>
      </trkpt>
      <trkpt lat="43.32451" lon="2.41942">
        <ele>273.9</ele>
        <time>2023-05-28T08:13:58Z</time>
      </trkpt>
      <trkpt lat="43.32451" lon="2.41943">
        <ele>273.8</ele>
        <time>2023-05-28T08:13:59Z</time>
      </trkpt>
      <trkpt lat="43.3245" lon="2.41944">
        <ele>273.7</ele>
        <time>2023-05-28T08:14:00Z</time>
      </trkpt>
      <trkpt lat="43.32449" lon="2.41947">
        <ele>273.4</ele>
        <time>2023-05-28T08:14:01Z</time>
      </trkpt>
      <trkpt lat="43.32448" lon="2.41949">
        <ele>273.4</ele>
        <time>2023-05-28T08:14:02Z</time>
      </trkpt>
      <trkpt lat="43.32447" lon="2.41952">
        <ele>273.3</ele>
        <time>2023-05-28T08:14:03Z</time>
      </trkpt>
      <trkpt lat="43.32446" lon="2.41953">
        <ele>273.2</ele>
        <time>2023-05-28T08:14:04Z</time>
      </trkpt>
      <trkpt lat="43.32445" lon="2.41957">
        <ele>272.8</ele>
        <time>2023-05-28T08:14:05Z</time>
      </trkpt>
      <trkpt lat="43.32444" lon="2.41958">
        <ele>272.7</ele>
        <time>2023-05-28T08:14:06Z</time>
      </trkpt>
      <trkpt lat="43.32443" lon="2.41963">
        <ele>272.3</ele>
        <time>2023-05-28T08:14:07Z</time>
      </trkpt>
      <trkpt lat="43.32443" lon="2.41964">
        <ele>272.1</ele>
        <time>2023-05-28T08:14:08Z</time>
      </trkpt>
      <trkpt lat="43.32442" lon="2.41968">
        <ele>271.7</ele>
        <time>2023-05-28T08:14:09Z</time>
      </trkpt>
      <trkpt lat="43.32441" lon="2.41969">
        <ele>271.5</ele>
        <time>2023-05-28T08:14:10Z</time>
      </trkpt>
      <trkpt lat="43.3244" lon="2.41974">
        <ele>271</ele>
        <time>2023-05-28T08:14:11Z</time>
      </trkpt>
      <trkpt lat="43.3244" lon="2.41975">
        <ele>270.9</ele>
        <time>2023-05-28T08:14:12Z</time>
      </trkpt>
      <trkpt lat="43.3244" lon="2.41979">
        <ele>270.4</ele>
        <time>2023-05-28T08:14:13Z</time>
      </trkpt>
      <trkpt lat="43.32441" lon="2.41981">
        <ele>270.2</ele>
        <time>2023-05-28T08:14:14Z</time>
      </trkpt>
      <trkpt lat="43.32441" lon="2.41986">
        <ele>269.6</ele>
        <time>2023-05-28T08:14:15Z</time>
      </trkpt>
      <trkpt lat="43.32441" lon="2.41988">
        <ele>269.4</ele>
        <time>2023-05-28T08:14:16Z</time>
      </trkpt>
      <trkpt lat="43.32442" lon="2.41992">
        <ele>268.8</ele>
        <time>2023-05-28T08:14:17Z</time>
      </trkpt>
      <trkpt lat="43.32442" lon="2.41994">
        <ele>268.6</ele>
        <time>2023-05-28T08:14:18Z</time>
      </trkpt>
      <trkpt lat="43.32442" lon="2.41997">
        <ele>268.2</ele>
        <time>2023-05-28T08:14:19Z</time>
      </trkpt>
      <trkpt lat="43.32443" lon="2.41998">
        <ele>268.1</ele>
        <time>2023-05-28T08:14:20Z</time>
      </trkpt>
      <trkpt lat="43.32443" lon="2.41999">
        <ele>268</ele>
        <time>2023-05-28T08:14:21Z</time>
      </trkpt>
      <trkpt lat="43.32444" lon="2.42003">
        <ele>267.4</ele>
        <time>2023-05-28T08:14:22Z</time>
      </trkpt>
      <trkpt lat="43.32444" lon="2.42005">
        <ele>267.2</ele>
        <time>2023-05-28T08:14:23Z</time>
      </trkpt>
      <trkpt lat="43.32446" lon="2.42008">
        <ele>266.6</ele>
        <time>2023-05-28T08:14:24Z</time>
      </trkpt>
      <trkpt lat="43.32447" lon="2.42009">
        <ele>266.4</ele>
        <time>2023-05-28T08:14:25Z</time>
      </trkpt>
      <trkpt lat="43.32449" lon="2.42012">
        <ele>265.9</ele>
        <time>2023-05-28T08:14:26Z</time>
      </trkpt>
      <trkpt lat="43.3245" lon="2.42015">
        <ele>265.3</ele>
        <time>2023-05-28T08:14:27Z</time>
      </trkpt>
      <trkpt lat="43.32451" lon="2.42018">
        <ele>264.8</ele>
        <time>2023-05-28T08:14:28Z</time>
      </trkpt>
      <trkpt lat="43.32451" lon="2.42023">
        <ele>264.2</ele>
        <time>2023-05-28T08:14:29Z</time>
      </trkpt>
      <trkpt lat="43.32451" lon="2.42024">
        <ele>264.1</ele>
        <time>2023-05-28T08:14:30Z</time>
      </trkpt>
      <trkpt lat="43.3245" lon="2.42028">
        <ele>263.5</ele>
        <time>2023-05-28T08:14:31Z</time>
      </trkpt>
      <trkpt lat="43.32449" lon="2.42029">
        <ele>263.3</ele>
        <time>2023-05-28T08:14:32Z</time>
      </trkpt>
      <trkpt lat="43.32448" lon="2.42033">
        <ele>262.9</ele>
        <time>2023-05-28T08:14:33Z</time>
      </trkpt>
      <trkpt lat="43.32447" lon="2.42035">
        <ele>262.7</ele>
        <time>2023-05-28T08:14:34Z</time>
      </trkpt>
      <trkpt lat="43.32444" lon="2.42038">
        <ele>262.2</ele>
        <time>2023-05-28T08:14:35Z</time>
      </trkpt>
      <trkpt lat="43.32443" lon="2.42038">
        <ele>262</ele>
        <time>2023-05-28T08:14:36Z</time>
      </trkpt>
      <trkpt lat="43.3244" lon="2.42039">
        <ele>261.6</ele>
        <time>2023-05-28T08:14:37Z</time>
      </trkpt>
      <trkpt lat="43.32437" lon="2.42038">
        <ele>261.2</ele>
        <time>2023-05-28T08:14:38Z</time>
      </trkpt>
      <trkpt lat="43.32434" lon="2.42036">
        <ele>260.8</ele>
        <time>2023-05-28T08:14:39Z</time>
      </trkpt>
      <trkpt lat="43.32434" lon="2.42036">
        <ele>260.7</ele>
        <time>2023-05-28T08:14:40Z</time>
      </trkpt>
      <trkpt lat="43.32431" lon="2.42035">
        <ele>260.4</ele>
        <time>2023-05-28T08:14:41Z</time>
      </trkpt>
      <trkpt lat="43.3243" lon="2.42035">
        <ele>260.2</ele>
        <time>2023-05-28T08:14:42Z</time>
      </trkpt>
      <trkpt lat="43.32429" lon="2.42034">
        <ele>259.8</ele>
        <time>2023-05-28T08:14:43Z</time>
      </trkpt>
      <trkpt lat="43.32425" lon="2.42033">
        <ele>259.2</ele>
        <time>2023-05-28T08:14:44Z</time>
      </trkpt>
      <trkpt lat="43.32424" lon="2.42033">
        <ele>259.1</ele>
        <time>2023-05-28T08:14:45Z</time>
      </trkpt>
      <trkpt lat="43.3242" lon="2.42032">
        <ele>258.4</ele>
        <time>2023-05-28T08:14:46Z</time>
      </trkpt>
      <trkpt lat="43.32418" lon="2.42032">
        <ele>258.3</ele>
        <time>2023-05-28T08:14:47Z</time>
      </trkpt>
      <trkpt lat="43.32415" lon="2.42032">
        <ele>257.8</ele>
        <time>2023-05-28T08:14:48Z</time>
      </trkpt>
      <trkpt lat="43.32414" lon="2.42032">
        <ele>257.6</ele>
        <time>2023-05-28T08:14:49Z</time>
      </trkpt>
      <trkpt lat="43.3241" lon="2.42032">
        <ele>257.1</ele>
        <time>2023-05-28T08:14:50Z</time>
      </trkpt>
      <trkpt lat="43.32409" lon="2.42033">
        <ele>257</ele>
        <time>2023-05-28T08:14:51Z</time>
      </trkpt>
      <trkpt lat="43.32406" lon="2.42033">
        <ele>256.6</ele>
        <time>2023-05-28T08:14:52Z</time>
      </trkpt>
      <trkpt lat="43.32404" lon="2.42033">
        <ele>256.5</ele>
        <time>2023-05-28T08:14:53Z</time>
      </trkpt>
      <trkpt lat="43.32401" lon="2.42033">
        <ele>256.3</ele>
        <time>2023-05-28T08:14:54Z</time>
      </trkpt>
      <trkpt lat="43.324" lon="2.42033">
        <ele>256.2</ele>
        <time>2023-05-28T08:14:55Z</time>
      </trkpt>
      <trkpt lat="43.32396" lon="2.42035">
        <ele>256</ele>
        <time>2023-05-28T08:14:56Z</time>
      </trkpt>
      <trkpt lat="43.32395" lon="2.42035">
        <ele>255.9</ele>
        <time>2023-05-28T08:14:57Z</time>
      </trkpt>
      <trkpt lat="43.32393" lon="2.42034">
        <ele>255.7</ele>
        <time>2023-05-28T08:14:58Z</time>
      </trkpt>
      <trkpt lat="43.32392" lon="2.42034">
        <ele>255.7</ele>
        <time>2023-05-28T08:14:59Z</time>
      </trkpt>
      <trkpt lat="43.32391" lon="2.42033">
        <ele>255.6</ele>
        <time>2023-05-28T08:15:00Z</time>
      </trkpt>
      <trkpt lat="43.32389" lon="2.42031">
        <ele>255.5</ele>
        <time>2023-05-28T08:15:01Z</time>
      </trkpt>
      <trkpt lat="43.32388" lon="2.4203">
        <ele>255.4</ele>
        <time>2023-05-28T08:15:02Z</time>
      </trkpt>
      <trkpt lat="43.32387" lon="2.4203">
        <ele>255.3</ele>
        <time>2023-05-28T08:15:03Z</time>
      </trkpt>
      <trkpt lat="43.32386" lon="2.42029">
        <ele>254.7</ele>
        <time>2023-05-28T08:15:04Z</time>
      </trkpt>
      <trkpt lat="43.32385" lon="2.42029">
        <ele>254.5</ele>
        <time>2023-05-28T08:15:05Z</time>
      </trkpt>
      <trkpt lat="43.32384" lon="2.42029">
        <ele>254.2</ele>
        <time>2023-05-28T08:15:06Z</time>
      </trkpt>
      <trkpt lat="43.32383" lon="2.42028">
        <ele>253.9</ele>
        <time>2023-05-28T08:15:07Z</time>
      </trkpt>
      <trkpt lat="43.32382" lon="2.42028">
        <ele>253.6</ele>
        <time>2023-05-28T08:15:08Z</time>
      </trkpt>
      <trkpt lat="43.32381" lon="2.42027">
        <ele>253.3</ele>
        <time>2023-05-28T08:15:09Z</time>
      </trkpt>
      <trkpt lat="43.3238" lon="2.42027">
        <ele>253</ele>
        <time>2023-05-28T08:15:10Z</time>
      </trkpt>
      <trkpt lat="43.32379" lon="2.42027">
        <ele>252.7</ele>
        <time>2023-05-28T08:15:11Z</time>
      </trkpt>
      <trkpt lat="43.32378" lon="2.42027">
        <ele>252.4</ele>
        <time>2023-05-28T08:15:12Z</time>
      </trkpt>
      <trkpt lat="43.32377" lon="2.42027">
        <ele>252.2</ele>
        <time>2023-05-28T08:15:13Z</time>
      </trkpt>
      <trkpt lat="43.32376" lon="2.42026">
        <ele>251.9</ele>
        <time>2023-05-28T08:15:14Z</time>
      </trkpt>
      <trkpt lat="43.32375" lon="2.42026">
        <ele>251.7</ele>
        <time>2023-05-28T08:15:15Z</time>
      </trkpt>
      <trkpt lat="43.32374" lon="2.42026">
        <ele>251.5</ele>
        <time>2023-05-28T08:15:16Z</time>
      </trkpt>
      <trkpt lat="43.32373" lon="2.42026">
        <ele>251.3</ele>
        <time>2023-05-28T08:15:17Z</time>
      </trkpt>
      <trkpt lat="43.32373" lon="2.42026">
        <ele>251.1</ele>
        <time>2023-05-28T08:15:18Z</time>
      </trkpt>
      <trkpt lat="43.32371" lon="2.42026">
        <ele>250.7</ele>
        <time>2023-05-28T08:15:19Z</time>
      </trkpt>
      <trkpt lat="43.3237" lon="2.42026">
        <ele>250.4</ele>
        <time>2023-05-28T08:15:20Z</time>
      </trkpt>
      <trkpt lat="43.32368" lon="2.42026">
        <ele>250.2</ele>
        <time>2023-05-28T08:15:21Z</time>
      </trkpt>
      <trkpt lat="43.32365" lon="2.42026">
        <ele>249.4</ele>
        <time>2023-05-28T08:15:22Z</time>
      </trkpt>
      <trkpt lat="43.32364" lon="2.42026">
        <ele>249.2</ele>
        <time>2023-05-28T08:15:23Z</time>
      </trkpt>
      <trkpt lat="43.3236" lon="2.42026">
        <ele>248.4</ele>
        <time>2023-05-28T08:15:24Z</time>
      </trkpt>
      <trkpt lat="43.32358" lon="2.42026">
        <ele>248.2</ele>
        <time>2023-05-28T08:15:25Z</time>
      </trkpt>
      <trkpt lat="43.32356" lon="2.42026">
        <ele>247.7</ele>
        <time>2023-05-28T08:15:26Z</time>
      </trkpt>
      <trkpt lat="43.32352" lon="2.42026">
        <ele>247</ele>
        <time>2023-05-28T08:15:27Z</time>
      </trkpt>
      <trkpt lat="43.3235" lon="2.42026">
        <ele>246.8</ele>
        <time>2023-05-28T08:15:28Z</time>
      </trkpt>
      <trkpt lat="43.32347" lon="2.42026">
        <ele>246.3</ele>
        <time>2023-05-28T08:15:29Z</time>
      </trkpt>
      <trkpt lat="43.32346" lon="2.42026">
        <ele>246.2</ele>
        <time>2023-05-28T08:15:30Z</time>
      </trkpt>
      <trkpt lat="43.32343" lon="2.42027">
        <ele>245.6</ele>
        <time>2023-05-28T08:15:31Z</time>
      </trkpt>
      <trkpt lat="43.32342" lon="2.42027">
        <ele>245.4</ele>
        <time>2023-05-28T08:15:32Z</time>
      </trkpt>
      <trkpt lat="43.32338" lon="2.42029">
        <ele>244.8</ele>
        <time>2023-05-28T08:15:33Z</time>
      </trkpt>
      <trkpt lat="43.32337" lon="2.4203">
        <ele>244.6</ele>
        <time>2023-05-28T08:15:34Z</time>
      </trkpt>
      <trkpt lat="43.32334" lon="2.42032">
        <ele>244.1</ele>
        <time>2023-05-28T08:15:35Z</time>
      </trkpt>
      <trkpt lat="43.32332" lon="2.42034">
        <ele>243.8</ele>
        <time>2023-05-28T08:15:36Z</time>
      </trkpt>
      <trkpt lat="43.32329" lon="2.42037">
        <ele>243.5</ele>
        <time>2023-05-28T08:15:37Z</time>
      </trkpt>
      <trkpt lat="43.32327" lon="2.42039">
        <ele>243.2</ele>
        <time>2023-05-28T08:15:38Z</time>
      </trkpt>
      <trkpt lat="43.32325" lon="2.42041">
        <ele>242.9</ele>
        <time>2023-05-28T08:15:39Z</time>
      </trkpt>
      <trkpt lat="43.32322" lon="2.42044">
        <ele>242.4</ele>
        <time>2023-05-28T08:15:40Z</time>
      </trkpt>
      <trkpt lat="43.32321" lon="2.42046">
        <ele>242.3</ele>
        <time>2023-05-28T08:15:41Z</time>
      </trkpt>
      <trkpt lat="43.32318" lon="2.42049">
        <ele>241.8</ele>
        <time>2023-05-28T08:15:42Z</time>
      </trkpt>
      <trkpt lat="43.32318" lon="2.42051">
        <ele>241.7</ele>
        <time>2023-05-28T08:15:43Z</time>
      </trkpt>
      <trkpt lat="43.32315" lon="2.42055">
        <ele>241.2</ele>
        <time>2023-05-28T08:15:44Z</time>
      </trkpt>
      <trkpt lat="43.32314" lon="2.42056">
        <ele>241.1</ele>
        <time>2023-05-28T08:15:45Z</time>
      </trkpt>
      <trkpt lat="43.32312" lon="2.42059">
        <ele>240.7</ele>
        <time>2023-05-28T08:15:46Z</time>
      </trkpt>
      <trkpt lat="43.3231" lon="2.42061">
        <ele>240.4</ele>
        <time>2023-05-28T08:15:47Z</time>
      </trkpt>
      <trkpt lat="43.32307" lon="2.42064">
        <ele>240</ele>
        <time>2023-05-28T08:15:48Z</time>
      </trkpt>
      <trkpt lat="43.32305" lon="2.42066">
        <ele>239.7</ele>
        <time>2023-05-28T08:15:49Z</time>
      </trkpt>
      <trkpt lat="43.32302" lon="2.42069">
        <ele>239.3</ele>
        <time>2023-05-28T08:15:50Z</time>
      </trkpt>
      <trkpt lat="43.32301" lon="2.4207">
        <ele>239.1</ele>
        <time>2023-05-28T08:15:51Z</time>
      </trkpt>
      <trkpt lat="43.32298" lon="2.42074">
        <ele>238.6</ele>
        <time>2023-05-28T08:15:52Z</time>
      </trkpt>
      <trkpt lat="43.32297" lon="2.42075">
        <ele>238.5</ele>
        <time>2023-05-28T08:15:53Z</time>
      </trkpt>
      <trkpt lat="43.32295" lon="2.42078">
        <ele>238.1</ele>
        <time>2023-05-28T08:15:54Z</time>
      </trkpt>
      <trkpt lat="43.32292" lon="2.42081">
        <ele>237.7</ele>
        <time>2023-05-28T08:15:55Z</time>
      </trkpt>
      <trkpt lat="43.32291" lon="2.42082">
        <ele>237.5</ele>
        <time>2023-05-28T08:15:56Z</time>
      </trkpt>
      <trkpt lat="43.32289" lon="2.42084">
        <ele>237.2</ele>
        <time>2023-05-28T08:15:57Z</time>
      </trkpt>
      <trkpt lat="43.32285" lon="2.42086">
        <ele>236.7</ele>
        <time>2023-05-28T08:15:58Z</time>
      </trkpt>
      <trkpt lat="43.32284" lon="2.42087">
        <ele>236.6</ele>
        <time>2023-05-28T08:15:59Z</time>
      </trkpt>
      <trkpt lat="43.3228" lon="2.42088">
        <ele>236.1</ele>
        <time>2023-05-28T08:16:00Z</time>
      </trkpt>
      <trkpt lat="43.32279" lon="2.42089">
        <ele>236</ele>
        <time>2023-05-28T08:16:01Z</time>
      </trkpt>
      <trkpt lat="43.32275" lon="2.4209">
        <ele>235.6</ele>
        <time>2023-05-28T08:16:02Z</time>
      </trkpt>
      <trkpt lat="43.32274" lon="2.4209">
        <ele>235.4</ele>
        <time>2023-05-28T08:16:03Z</time>
      </trkpt>
      <trkpt lat="43.3227" lon="2.42091">
        <ele>235</ele>
        <time>2023-05-28T08:16:04Z</time>
      </trkpt>
      <trkpt lat="43.32268" lon="2.42091">
        <ele>234.9</ele>
        <time>2023-05-28T08:16:05Z</time>
      </trkpt>
      <trkpt lat="43.32266" lon="2.42092">
        <ele>234.7</ele>
        <time>2023-05-28T08:16:06Z</time>
      </trkpt>
      <trkpt lat="43.32263" lon="2.42093">
        <ele>234.5</ele>
        <time>2023-05-28T08:16:07Z</time>
      </trkpt>
      <trkpt lat="43.3226" lon="2.42094">
        <ele>234.3</ele>
        <time>2023-05-28T08:16:08Z</time>
      </trkpt>
      <trkpt lat="43.32257" lon="2.42095">
        <ele>234.1</ele>
        <time>2023-05-28T08:16:09Z</time>
      </trkpt>
      <trkpt lat="43.32254" lon="2.42096">
        <ele>233.9</ele>
        <time>2023-05-28T08:16:10Z</time>
      </trkpt>
      <trkpt lat="43.32251" lon="2.42097">
        <ele>233.7</ele>
        <time>2023-05-28T08:16:11Z</time>
      </trkpt>
      <trkpt lat="43.32248" lon="2.42098">
        <ele>233.5</ele>
        <time>2023-05-28T08:16:12Z</time>
      </trkpt>
      <trkpt lat="43.32245" lon="2.421">
        <ele>233.3</ele>
        <time>2023-05-28T08:16:13Z</time>
      </trkpt>
      <trkpt lat="43.32242" lon="2.42101">
        <ele>233.2</ele>
        <time>2023-05-28T08:16:14Z</time>
      </trkpt>
      <trkpt lat="43.32239" lon="2.42102">
        <ele>233</ele>
        <time>2023-05-28T08:16:15Z</time>
      </trkpt>
      <trkpt lat="43.32237" lon="2.42103">
        <ele>232.9</ele>
        <time>2023-05-28T08:16:16Z</time>
      </trkpt>
      <trkpt lat="43.32234" lon="2.42104">
        <ele>232.7</ele>
        <time>2023-05-28T08:16:17Z</time>
      </trkpt>
      <trkpt lat="43.32231" lon="2.42105">
        <ele>232.6</ele>
        <time>2023-05-28T08:16:18Z</time>
      </trkpt>
      <trkpt lat="43.32228" lon="2.42105">
        <ele>232.5</ele>
        <time>2023-05-28T08:16:19Z</time>
      </trkpt>
      <trkpt lat="43.32225" lon="2.42106">
        <ele>232.4</ele>
        <time>2023-05-28T08:16:20Z</time>
      </trkpt>
      <trkpt lat="43.32222" lon="2.42108">
        <ele>232.3</ele>
        <time>2023-05-28T08:16:21Z</time>
      </trkpt>
      <trkpt lat="43.32219" lon="2.42109">
        <ele>232.2</ele>
        <time>2023-05-28T08:16:22Z</time>
      </trkpt>
      <trkpt lat="43.32216" lon="2.4211">
        <ele>232.1</ele>
        <time>2023-05-28T08:16:23Z</time>
      </trkpt>
      <trkpt lat="43.32214" lon="2.42111">
        <ele>232</ele>
        <time>2023-05-28T08:16:24Z</time>
      </trkpt>
      <trkpt lat="43.3221" lon="2.42111">
        <ele>231.9</ele>
        <time>2023-05-28T08:16:25Z</time>
      </trkpt>
      <trkpt lat="43.32208" lon="2.42111">
        <ele>231.9</ele>
        <time>2023-05-28T08:16:26Z</time>
      </trkpt>
      <trkpt lat="43.32206" lon="2.42111">
        <ele>231.9</ele>
        <time>2023-05-28T08:16:27Z</time>
      </trkpt>
      <trkpt lat="43.32203" lon="2.4211">
        <ele>231.8</ele>
        <time>2023-05-28T08:16:28Z</time>
      </trkpt>
      <trkpt lat="43.322" lon="2.4211">
        <ele>231.8</ele>
        <time>2023-05-28T08:16:29Z</time>
      </trkpt>
      <trkpt lat="43.32197" lon="2.42109">
        <ele>231.7</ele>
        <time>2023-05-28T08:16:30Z</time>
      </trkpt>
      <trkpt lat="43.3219" lon="2.42108">
        <ele>231.6</ele>
        <time>2023-05-28T08:16:31Z</time>
      </trkpt>
      <trkpt lat="43.32183" lon="2.42106">
        <ele>231.5</ele>
        <time>2023-05-28T08:16:33Z</time>
      </trkpt>
      <trkpt lat="43.32179" lon="2.42105">
        <ele>231.5</ele>
        <time>2023-05-28T08:16:34Z</time>
      </trkpt>
      <trkpt lat="43.32176" lon="2.42104">
        <ele>231.4</ele>
        <time>2023-05-28T08:16:35Z</time>
      </trkpt>
      <trkpt lat="43.32173" lon="2.42104">
        <ele>231.4</ele>
        <time>2023-05-28T08:16:37Z</time>
      </trkpt>
      <trkpt lat="43.3217" lon="2.42104">
        <ele>231.3</ele>
        <time>2023-05-28T08:16:38Z</time>
      </trkpt>
      <trkpt lat="43.32168" lon="2.42103">
        <ele>231.3</ele>
        <time>2023-05-28T08:16:39Z</time>
      </trkpt>
      <trkpt lat="43.32165" lon="2.42103">
        <ele>231.3</ele>
        <time>2023-05-28T08:16:40Z</time>
      </trkpt>
      <trkpt lat="43.32161" lon="2.42102">
        <ele>231.2</ele>
        <time>2023-05-28T08:16:41Z</time>
      </trkpt>
      <trkpt lat="43.3216" lon="2.42102">
        <ele>231.2</ele>
        <time>2023-05-28T08:16:42Z</time>
      </trkpt>
      <trkpt lat="43.32157" lon="2.42101">
        <ele>231.2</ele>
        <time>2023-05-28T08:16:43Z</time>
      </trkpt>
      <trkpt lat="43.32152" lon="2.421">
        <ele>231.1</ele>
        <time>2023-05-28T08:16:44Z</time>
      </trkpt>
      <trkpt lat="43.3215" lon="2.42099">
        <ele>231.1</ele>
        <time>2023-05-28T08:16:45Z</time>
      </trkpt>
      <trkpt lat="43.32146" lon="2.42098">
        <ele>231</ele>
        <time>2023-05-28T08:16:47Z</time>
      </trkpt>
      <trkpt lat="43.32145" lon="2.42098">
        <ele>231</ele>
        <time>2023-05-28T08:16:48Z</time>
      </trkpt>
      <trkpt lat="43.32141" lon="2.42097">
        <ele>230.9</ele>
        <time>2023-05-28T08:16:49Z</time>
      </trkpt>
      <trkpt lat="43.3214" lon="2.42097">
        <ele>230.9</ele>
        <time>2023-05-28T08:16:50Z</time>
      </trkpt>
      <trkpt lat="43.32135" lon="2.42096">
        <ele>230.8</ele>
        <time>2023-05-28T08:16:51Z</time>
      </trkpt>
      <trkpt lat="43.32132" lon="2.42095">
        <ele>230.8</ele>
        <time>2023-05-28T08:16:53Z</time>
      </trkpt>
      <trkpt lat="43.32129" lon="2.42095">
        <ele>230.7</ele>
        <time>2023-05-28T08:16:54Z</time>
      </trkpt>
      <trkpt lat="43.32126" lon="2.42094">
        <ele>230.7</ele>
        <time>2023-05-28T08:16:55Z</time>
      </trkpt>
      <trkpt lat="43.32123" lon="2.42094">
        <ele>230.6</ele>
        <time>2023-05-28T08:16:56Z</time>
      </trkpt>
      <trkpt lat="43.3212" lon="2.42093">
        <ele>230.6</ele>
        <time>2023-05-28T08:16:57Z</time>
      </trkpt>
      <trkpt lat="43.32117" lon="2.42092">
        <ele>230.5</ele>
        <time>2023-05-28T08:16:58Z</time>
      </trkpt>
      <trkpt lat="43.32116" lon="2.42092">
        <ele>230.5</ele>
        <time>2023-05-28T08:16:59Z</time>
      </trkpt>
      <trkpt lat="43.32112" lon="2.42091">
        <ele>230.4</ele>
        <time>2023-05-28T08:17:00Z</time>
      </trkpt>
      <trkpt lat="43.32111" lon="2.4209">
        <ele>230.4</ele>
        <time>2023-05-28T08:17:01Z</time>
      </trkpt>
      <trkpt lat="43.32108" lon="2.42089">
        <ele>230.4</ele>
        <time>2023-05-28T08:17:02Z</time>
      </trkpt>
      <trkpt lat="43.32105" lon="2.42087">
        <ele>230.3</ele>
        <time>2023-05-28T08:17:03Z</time>
      </trkpt>
      <trkpt lat="43.32103" lon="2.42085">
        <ele>230.2</ele>
        <time>2023-05-28T08:17:04Z</time>
      </trkpt>
      <trkpt lat="43.321" lon="2.42082">
        <ele>230.1</ele>
        <time>2023-05-28T08:17:05Z</time>
      </trkpt>
      <trkpt lat="43.32098" lon="2.4208">
        <ele>230</ele>
        <time>2023-05-28T08:17:06Z</time>
      </trkpt>
      <trkpt lat="43.32095" lon="2.42077">
        <ele>229.8</ele>
        <time>2023-05-28T08:17:07Z</time>
      </trkpt>
      <trkpt lat="43.32093" lon="2.42075">
        <ele>229.7</ele>
        <time>2023-05-28T08:17:08Z</time>
      </trkpt>
      <trkpt lat="43.32089" lon="2.42072">
        <ele>229.6</ele>
        <time>2023-05-28T08:17:09Z</time>
      </trkpt>
      <trkpt lat="43.32088" lon="2.4207">
        <ele>229.5</ele>
        <time>2023-05-28T08:17:10Z</time>
      </trkpt>
      <trkpt lat="43.32085" lon="2.42067">
        <ele>229.4</ele>
        <time>2023-05-28T08:17:11Z</time>
      </trkpt>
      <trkpt lat="43.32084" lon="2.42066">
        <ele>229.4</ele>
        <time>2023-05-28T08:17:12Z</time>
      </trkpt>
      <trkpt lat="43.32081" lon="2.4206">
        <ele>229.2</ele>
        <time>2023-05-28T08:17:13Z</time>
      </trkpt>
      <trkpt lat="43.32079" lon="2.42057">
        <ele>229.1</ele>
        <time>2023-05-28T08:17:14Z</time>
      </trkpt>
      <trkpt lat="43.32076" lon="2.4205">
        <ele>228.9</ele>
        <time>2023-05-28T08:17:16Z</time>
      </trkpt>
      <trkpt lat="43.32075" lon="2.42046">
        <ele>228.8</ele>
        <time>2023-05-28T08:17:17Z</time>
      </trkpt>
      <trkpt lat="43.32073" lon="2.42041">
        <ele>228.7</ele>
        <time>2023-05-28T08:17:18Z</time>
      </trkpt>
      <trkpt lat="43.32073" lon="2.42039">
        <ele>228.6</ele>
        <time>2023-05-28T08:17:19Z</time>
      </trkpt>
      <trkpt lat="43.32072" lon="2.42036">
        <ele>228.6</ele>
        <time>2023-05-28T08:17:20Z</time>
      </trkpt>
      <trkpt lat="43.3207" lon="2.42031">
        <ele>228.5</ele>
        <time>2023-05-28T08:17:21Z</time>
      </trkpt>
      <trkpt lat="43.3207" lon="2.4203">
        <ele>228.4</ele>
        <time>2023-05-28T08:17:22Z</time>
      </trkpt>
      <trkpt lat="43.32067" lon="2.42024">
        <ele>228.3</ele>
        <time>2023-05-28T08:17:24Z</time>
      </trkpt>
      <trkpt lat="43.32066" lon="2.4202">
        <ele>228.2</ele>
        <time>2023-05-28T08:17:25Z</time>
      </trkpt>
      <trkpt lat="43.32065" lon="2.42019">
        <ele>228.2</ele>
        <time>2023-05-28T08:17:26Z</time>
      </trkpt>
      <trkpt lat="43.32064" lon="2.42014">
        <ele>228.1</ele>
        <time>2023-05-28T08:17:27Z</time>
      </trkpt>
      <trkpt lat="43.32063" lon="2.42012">
        <ele>228.1</ele>
        <time>2023-05-28T08:17:28Z</time>
      </trkpt>
      <trkpt lat="43.32062" lon="2.42009">
        <ele>228</ele>
        <time>2023-05-28T08:17:29Z</time>
      </trkpt>
      <trkpt lat="43.3206" lon="2.42006">
        <ele>227.9</ele>
        <time>2023-05-28T08:17:30Z</time>
      </trkpt>
      <trkpt lat="43.32059" lon="2.42002">
        <ele>227.8</ele>
        <time>2023-05-28T08:17:31Z</time>
      </trkpt>
      <trkpt lat="43.32057" lon="2.41998">
        <ele>227.7</ele>
        <time>2023-05-28T08:17:32Z</time>
      </trkpt>
      <trkpt lat="43.32056" lon="2.41996">
        <ele>227.7</ele>
        <time>2023-05-28T08:17:33Z</time>
      </trkpt>
      <trkpt lat="43.32054" lon="2.41991">
        <ele>227.5</ele>
        <time>2023-05-28T08:17:34Z</time>
      </trkpt>
      <trkpt lat="43.32054" lon="2.4199">
        <ele>227.5</ele>
        <time>2023-05-28T08:17:35Z</time>
      </trkpt>
      <trkpt lat="43.32052" lon="2.41986">
        <ele>227.4</ele>
        <time>2023-05-28T08:17:36Z</time>
      </trkpt>
      <trkpt lat="43.32052" lon="2.41985">
        <ele>227.4</ele>
        <time>2023-05-28T08:17:37Z</time>
      </trkpt>
      <trkpt lat="43.3205" lon="2.41981">
        <ele>227.3</ele>
        <time>2023-05-28T08:17:38Z</time>
      </trkpt>
      <trkpt lat="43.3205" lon="2.41979">
        <ele>227.2</ele>
        <time>2023-05-28T08:17:39Z</time>
      </trkpt>
      <trkpt lat="43.32048" lon="2.41975">
        <ele>227.1</ele>
        <time>2023-05-28T08:17:40Z</time>
      </trkpt>
      <trkpt lat="43.32048" lon="2.41974">
        <ele>227.1</ele>
        <time>2023-05-28T08:17:41Z</time>
      </trkpt>
      <trkpt lat="43.32046" lon="2.4197">
        <ele>227</ele>
        <time>2023-05-28T08:17:42Z</time>
      </trkpt>
      <trkpt lat="43.32045" lon="2.41968">
        <ele>227</ele>
        <time>2023-05-28T08:17:43Z</time>
      </trkpt>
      <trkpt lat="43.32042" lon="2.41964">
        <ele>226.9</ele>
        <time>2023-05-28T08:17:44Z</time>
      </trkpt>
      <trkpt lat="43.32042" lon="2.41963">
        <ele>226.9</ele>
        <time>2023-05-28T08:17:45Z</time>
      </trkpt>
      <trkpt lat="43.32039" lon="2.41959">
        <ele>226.8</ele>
        <time>2023-05-28T08:17:46Z</time>
      </trkpt>
      <trkpt lat="43.32038" lon="2.41958">
        <ele>226.7</ele>
        <time>2023-05-28T08:17:47Z</time>
      </trkpt>
      <trkpt lat="43.32035" lon="2.41956">
        <ele>226.7</ele>
        <time>2023-05-28T08:17:48Z</time>
      </trkpt>
      <trkpt lat="43.32035" lon="2.41955">
        <ele>226.7</ele>
        <time>2023-05-28T08:17:49Z</time>
      </trkpt>
      <trkpt lat="43.32032" lon="2.41953">
        <ele>226.6</ele>
        <time>2023-05-28T08:17:50Z</time>
      </trkpt>
      <trkpt lat="43.32031" lon="2.41952">
        <ele>226.6</ele>
        <time>2023-05-28T08:17:51Z</time>
      </trkpt>
      <trkpt lat="43.3203" lon="2.41952">
        <ele>226.6</ele>
        <time>2023-05-28T08:17:52Z</time>
      </trkpt>
      <trkpt lat="43.32028" lon="2.41952">
        <ele>226.5</ele>
        <time>2023-05-28T08:17:53Z</time>
      </trkpt>
      <trkpt lat="43.32027" lon="2.41952">
        <ele>226.5</ele>
        <time>2023-05-28T08:17:54Z</time>
      </trkpt>
      <trkpt lat="43.32025" lon="2.41953">
        <ele>226.5</ele>
        <time>2023-05-28T08:17:55Z</time>
      </trkpt>
      <trkpt lat="43.32024" lon="2.41954">
        <ele>226.5</ele>
        <time>2023-05-28T08:17:56Z</time>
      </trkpt>
      <trkpt lat="43.32023" lon="2.41955">
        <ele>226.4</ele>
        <time>2023-05-28T08:17:57Z</time>
      </trkpt>
      <trkpt lat="43.32023" lon="2.41956">
        <ele>226.4</ele>
        <time>2023-05-28T08:17:58Z</time>
      </trkpt>
      <trkpt lat="43.32022" lon="2.41958">
        <ele>226.4</ele>
        <time>2023-05-28T08:17:59Z</time>
      </trkpt>
      <trkpt lat="43.32022" lon="2.41959">
        <ele>226.4</ele>
        <time>2023-05-28T08:18:00Z</time>
      </trkpt>
      <trkpt lat="43.32022" lon="2.41961">
        <ele>226.4</ele>
        <time>2023-05-28T08:18:01Z</time>
      </trkpt>
      <trkpt lat="43.32021" lon="2.41963">
        <ele>226.3</ele>
        <time>2023-05-28T08:18:03Z</time>
      </trkpt>
      <trkpt lat="43.32021" lon="2.41965">
        <ele>226.3</ele>
        <time>2023-05-28T08:18:05Z</time>
      </trkpt>
      <trkpt lat="43.32021" lon="2.41967">
        <ele>226.3</ele>
        <time>2023-05-28T08:18:06Z</time>
      </trkpt>
      <trkpt lat="43.32021" lon="2.41968">
        <ele>226.3</ele>
        <time>2023-05-28T08:18:07Z</time>
      </trkpt>
      <trkpt lat="43.32022" lon="2.41969">
        <ele>226.3</ele>
        <time>2023-05-28T08:18:08Z</time>
      </trkpt>
      <trkpt lat="43.32022" lon="2.4197">
        <ele>226.3</ele>
        <time>2023-05-28T08:18:09Z</time>
      </trkpt>
      <trkpt lat="43.32022" lon="2.41971">
        <ele>226.3</ele>
        <time>2023-05-28T08:18:10Z</time>
      </trkpt>
      <trkpt lat="43.32023" lon="2.41972">
        <ele>226.3</ele>
        <time>2023-05-28T08:18:11Z</time>
      </trkpt>
      <trkpt lat="43.32023" lon="2.41973">
        <ele>226.3</ele>
        <time>2023-05-28T08:18:12Z</time>
      </trkpt>
      <trkpt lat="43.32023" lon="2.41974">
        <ele>226.3</ele>
        <time>2023-05-28T08:18:13Z</time>
      </trkpt>
      <trkpt lat="43.32023" lon="2.41976">
        <ele>226.3</ele>
        <time>2023-05-28T08:18:14Z</time>
      </trkpt>
      <trkpt lat="43.32023" lon="2.41977">
        <ele>226.3</ele>
        <time>2023-05-28T08:18:15Z</time>
      </trkpt>
      <trkpt lat="43.32022" lon="2.41977">
        <ele>226.3</ele>
        <time>2023-05-28T08:18:16Z</time>
      </trkpt>
      <trkpt lat="43.32022" lon="2.41977">
        <ele>226.3</ele>
        <time>2023-05-28T08:18:18Z</time>
      </trkpt>
      <trkpt lat="43.32021" lon="2.41977">
        <ele>226.3</ele>
        <time>2023-05-28T08:18:19Z</time>
      </trkpt>
      <trkpt lat="43.32021" lon="2.41976">
        <ele>226.3</ele>
        <time>2023-05-28T08:18:20Z</time>
      </trkpt>
      <trkpt lat="43.32021" lon="2.41976">
        <ele>226.3</ele>
        <time>2023-05-28T08:18:21Z</time>
      </trkpt>
      <trkpt lat="43.32021" lon="2.41976">
        <ele>226.3</ele>
        <time>2023-05-28T08:18:22Z</time>
      </trkpt>
      <trkpt lat="43.32021" lon="2.41976">
        <ele>226.3</ele>
        <time>2023-05-28T08:18:23Z</time>
      </trkpt>
      <trkpt lat="43.32021" lon="2.41976">
        <ele>226.3</ele>
        <time>2023-05-28T08:18:26Z</time>
      </trkpt>
      <trkpt lat="43.32021" lon="2.41976">
        <ele>226.3</ele>
        <time>2023-05-28T08:18:27Z</time>
      </trkpt>
      <trkpt lat="43.32021" lon="2.41976">
        <ele>226.3</ele>
        <time>2023-05-28T08:18:28Z</time>
      </trkpt>
    </trkseg>
  </trk>
</gpx>